﻿<?xml version="1.0" encoding="utf-8"?><gpx creator="Garmin Desktop App" version="1.1" xsi:schemaLocation="http://www.topografix.com/GPX/1/1 http://www.topografix.com/GPX/1/1/gpx.xsd http://www.garmin.com/xmlschemas/WaypointExtension/v1 http://www8.garmin.com/xmlschemas/WaypointExtensionv1.xsd http://www.garmin.com/xmlschemas/TrackPointExtension/v1 http://www.garmin.com/xmlschemas/TrackPointExtensionv1.xsd http://www.garmin.com/xmlschemas/GpxExtensions/v3 http://www8.garmin.com/xmlschemas/GpxExtensionsv3.xsd http://www.garmin.com/xmlschemas/ActivityExtension/v1 http://www8.garmin.com/xmlschemas/ActivityExtensionv1.xsd http://www.garmin.com/xmlschemas/AdventuresExtensions/v1 http://www8.garmin.com/xmlschemas/AdventuresExtensionv1.xsd http://www.garmin.com/xmlschemas/PressureExtension/v1 http://www.garmin.com/xmlschemas/PressureExtensionv1.xsd http://www.garmin.com/xmlschemas/TripExtensions/v1 http://www.garmin.com/xmlschemas/TripExtensionsv1.xsd http://www.garmin.com/xmlschemas/TripMetaDataExtensions/v1 http://www.garmin.com/xmlschemas/TripMetaDataExtensionsv1.xsd http://www.garmin.com/xmlschemas/ViaPointTransportationModeExtensions/v1 http://www.garmin.com/xmlschemas/ViaPointTransportationModeExtensionsv1.xsd http://www.garmin.com/xmlschemas/CreationTimeExtension/v1 http://www.garmin.com/xmlschemas/CreationTimeExtensionsv1.xsd http://www.garmin.com/xmlschemas/AccelerationExtension/v1 http://www.garmin.com/xmlschemas/AccelerationExtensionv1.xsd http://www.garmin.com/xmlschemas/PowerExtension/v1 http://www.garmin.com/xmlschemas/PowerExtensionv1.xsd http://www.garmin.com/xmlschemas/VideoExtension/v1 http://www.garmin.com/xmlschemas/VideoExtensionv1.xsd" xmlns="http://www.topografix.com/GPX/1/1" xmlns:xsi="http://www.w3.org/2001/XMLSchema-instance" xmlns:wptx1="http://www.garmin.com/xmlschemas/WaypointExtension/v1" xmlns:gpxtrx="http://www.garmin.com/xmlschemas/GpxExtensions/v3" xmlns:gpxtpx="http://www.garmin.com/xmlschemas/TrackPointExtension/v1" xmlns:gpxx="http://www.garmin.com/xmlschemas/GpxExtensions/v3" xmlns:trp="http://www.garmin.com/xmlschemas/TripExtensions/v1" xmlns:adv="http://www.garmin.com/xmlschemas/AdventuresExtensions/v1" xmlns:prs="http://www.garmin.com/xmlschemas/PressureExtension/v1" xmlns:tmd="http://www.garmin.com/xmlschemas/TripMetaDataExtensions/v1" xmlns:vptm="http://www.garmin.com/xmlschemas/ViaPointTransportationModeExtensions/v1" xmlns:ctx="http://www.garmin.com/xmlschemas/CreationTimeExtension/v1" xmlns:gpxacc="http://www.garmin.com/xmlschemas/AccelerationExtension/v1" xmlns:gpxpx="http://www.garmin.com/xmlschemas/PowerExtension/v1" xmlns:vidx1="http://www.garmin.com/xmlschemas/VideoExtension/v1">

  <metadata>
    <link href="http://www.garmin.com">
      <text>Garmin International</text>
    </link>
    <time>2023-08-30T20:15:51Z</time>
    <bounds maxlat="56.86054696328938" maxlon="-5.075373966246843" minlat="56.313902037218213" minlon="-6.369194984436035" />
  </metadata>

  <trk>
    <name>Track vom: 2023-08-30 07:43</name>
    <extensions>
      <gpxx:TrackExtension>
        <gpxx:DisplayColor>DarkGray</gpxx:DisplayColor>
      </gpxx:TrackExtension>
    </extensions>
    <trkseg>
      <trkpt lat="56.623124023899436" lon="-6.066688997671008">
        <ele>19.359999999999999</ele>
        <time>2023-08-30T06:43:28Z</time>
      </trkpt>
      <trkpt lat="56.623064009472728" lon="-6.066394960507751">
        <ele>10.23</ele>
        <time>2023-08-30T06:44:29Z</time>
      </trkpt>
      <trkpt lat="56.623078007251024" lon="-6.066422034054995">
        <ele>9.27</ele>
        <time>2023-08-30T06:45:10Z</time>
      </trkpt>
      <trkpt lat="56.623036013916135" lon="-6.066394038498402">
        <ele>12.15</ele>
        <time>2023-08-30T06:45:53Z</time>
      </trkpt>
      <trkpt lat="56.623038025572896" lon="-6.066394960507751">
        <ele>12.15</ele>
        <time>2023-08-30T06:46:50Z</time>
      </trkpt>
      <trkpt lat="56.623036013916135" lon="-6.066394038498402">
        <ele>12.630000000000001</ele>
        <time>2023-08-30T06:47:30Z</time>
      </trkpt>
      <trkpt lat="56.623013969510794" lon="-6.066109975799918">
        <ele>10.710000000000001</ele>
        <time>2023-08-30T06:47:35Z</time>
      </trkpt>
      <trkpt lat="56.62298496812582" lon="-6.065862039104104">
        <ele>7.35</ele>
        <time>2023-08-30T06:47:41Z</time>
      </trkpt>
      <trkpt lat="56.62300399504602" lon="-6.065814010798931">
        <ele>6.39</ele>
        <time>2023-08-30T06:47:42Z</time>
      </trkpt>
      <trkpt lat="56.6230240277946" lon="-6.065819961950183">
        <ele>5.91</ele>
        <time>2023-08-30T06:47:43Z</time>
      </trkpt>
      <trkpt lat="56.622986979782581" lon="-6.065880982205272">
        <ele>3.5</ele>
        <time>2023-08-30T06:47:46Z</time>
      </trkpt>
      <trkpt lat="56.622987985610962" lon="-6.065893974155188">
        <ele>1.58</ele>
        <time>2023-08-30T06:47:48Z</time>
      </trkpt>
      <trkpt lat="56.622995026409626" lon="-6.065951976925135">
        <ele>0.62</ele>
        <time>2023-08-30T06:47:49Z</time>
      </trkpt>
      <trkpt lat="56.623002989217639" lon="-6.066012997180224">
        <ele>-0.34</ele>
        <time>2023-08-30T06:47:50Z</time>
      </trkpt>
      <trkpt lat="56.623011035844684" lon="-6.066083991900086">
        <ele>-1.3</ele>
        <time>2023-08-30T06:47:51Z</time>
      </trkpt>
      <trkpt lat="56.623021010309458" lon="-6.066170996055007">
        <ele>-1.79</ele>
        <time>2023-08-30T06:47:52Z</time>
      </trkpt>
      <trkpt lat="56.623032996430993" lon="-6.066267974674702">
        <ele>-2.75</ele>
        <time>2023-08-30T06:47:53Z</time>
      </trkpt>
      <trkpt lat="56.623055962845683" lon="-6.066463021561503">
        <ele>-4.19</ele>
        <time>2023-08-30T06:47:55Z</time>
      </trkpt>
      <trkpt lat="56.62306803278625" lon="-6.066566035151482">
        <ele>-5.15</ele>
        <time>2023-08-30T06:47:56Z</time>
      </trkpt>
      <trkpt lat="56.623080018907785" lon="-6.066667037084699">
        <ele>-5.63</ele>
        <time>2023-08-30T06:47:57Z</time>
      </trkpt>
      <trkpt lat="56.623109020292759" lon="-6.066947998479009">
        <ele>-7.07</ele>
        <time>2023-08-30T06:48:00Z</time>
      </trkpt>
      <trkpt lat="56.623118994757533" lon="-6.067049000412226">
        <ele>-7.55</ele>
        <time>2023-08-30T06:48:01Z</time>
      </trkpt>
      <trkpt lat="56.623129975050688" lon="-6.067153019830585">
        <ele>-7.55</ele>
        <time>2023-08-30T06:48:02Z</time>
      </trkpt>
      <trkpt lat="56.623150007799268" lon="-6.067349994555116">
        <ele>-7.55</ele>
        <time>2023-08-30T06:48:03Z</time>
      </trkpt>
      <trkpt lat="56.623124023899436" lon="-6.067425012588501">
        <ele>-7.55</ele>
        <time>2023-08-30T06:48:04Z</time>
      </trkpt>
      <trkpt lat="56.623086975887418" lon="-6.06753196567297">
        <ele>-8.029999999999999</ele>
        <time>2023-08-30T06:48:05Z</time>
      </trkpt>
      <trkpt lat="56.622977005317807" lon="-6.067851986736059">
        <ele>-7.55</ele>
        <time>2023-08-30T06:48:08Z</time>
      </trkpt>
      <trkpt lat="56.622936017811298" lon="-6.067973021417856">
        <ele>-7.55</ele>
        <time>2023-08-30T06:48:09Z</time>
      </trkpt>
      <trkpt lat="56.622880026698112" lon="-6.068092966452241">
        <ele>-7.55</ele>
        <time>2023-08-30T06:48:10Z</time>
      </trkpt>
      <trkpt lat="56.622822023928165" lon="-6.068189023062587">
        <ele>-7.55</ele>
        <time>2023-08-30T06:48:11Z</time>
      </trkpt>
      <trkpt lat="56.62276703864336" lon="-6.068281978368759">
        <ele>-7.07</ele>
        <time>2023-08-30T06:48:12Z</time>
      </trkpt>
      <trkpt lat="56.622712975367904" lon="-6.06836998835206">
        <ele>-7.07</ele>
        <time>2023-08-30T06:48:13Z</time>
      </trkpt>
      <trkpt lat="56.62266100756824" lon="-6.068457998335362">
        <ele>-6.59</ele>
        <time>2023-08-30T06:48:14Z</time>
      </trkpt>
      <trkpt lat="56.622451040893793" lon="-6.068792017176747">
        <ele>-5.63</ele>
        <time>2023-08-30T06:48:18Z</time>
      </trkpt>
      <trkpt lat="56.622401000931859" lon="-6.068870974704623">
        <ele>-5.63</ele>
        <time>2023-08-30T06:48:19Z</time>
      </trkpt>
      <trkpt lat="56.622350960969925" lon="-6.068950016051531">
        <ele>-5.63</ele>
        <time>2023-08-30T06:48:20Z</time>
      </trkpt>
      <trkpt lat="56.622291030362248" lon="-6.069044983014464">
        <ele>-5.15</ele>
        <time>2023-08-30T06:48:21Z</time>
      </trkpt>
      <trkpt lat="56.622239984571934" lon="-6.06909703463316">
        <ele>-5.15</ele>
        <time>2023-08-30T06:48:22Z</time>
      </trkpt>
      <trkpt lat="56.622110987082124" lon="-6.06922896578908">
        <ele>-5.15</ele>
        <time>2023-08-30T06:48:24Z</time>
      </trkpt>
      <trkpt lat="56.621918035671115" lon="-6.069425018504262">
        <ele>-4.67</ele>
        <time>2023-08-30T06:48:27Z</time>
      </trkpt>
      <trkpt lat="56.621850980445743" lon="-6.069492995738983">
        <ele>-4.19</ele>
        <time>2023-08-30T06:48:28Z</time>
      </trkpt>
      <trkpt lat="56.621720977127552" lon="-6.069625010713935">
        <ele>-3.71</ele>
        <time>2023-08-30T06:48:30Z</time>
      </trkpt>
      <trkpt lat="56.621652999892831" lon="-6.069694999605417">
        <ele>-3.71</ele>
        <time>2023-08-30T06:48:31Z</time>
      </trkpt>
      <trkpt lat="56.621261984109879" lon="-6.070091966539621">
        <ele>-1.79</ele>
        <time>2023-08-30T06:48:36Z</time>
      </trkpt>
      <trkpt lat="56.621174979954958" lon="-6.070179976522923">
        <ele>-0.82</ele>
        <time>2023-08-30T06:48:37Z</time>
      </trkpt>
      <trkpt lat="56.621094010770321" lon="-6.070263041183353">
        <ele>0.14</ele>
        <time>2023-08-30T06:48:38Z</time>
      </trkpt>
      <trkpt lat="56.621013963595033" lon="-6.070346022024751">
        <ele>0.14</ele>
        <time>2023-08-30T06:48:39Z</time>
      </trkpt>
      <trkpt lat="56.620931988582015" lon="-6.070437971502543">
        <ele>1.1</ele>
        <time>2023-08-30T06:48:40Z</time>
      </trkpt>
      <trkpt lat="56.620583971962333" lon="-6.070724967867136">
        <ele>3.98</ele>
        <time>2023-08-30T06:48:44Z</time>
      </trkpt>
      <trkpt lat="56.620215000584722" lon="-6.070909034460783">
        <ele>8.310000000000001</ele>
        <time>2023-08-30T06:48:48Z</time>
      </trkpt>
      <trkpt lat="56.619903026148677" lon="-6.070873998105526">
        <ele>11.19</ele>
        <time>2023-08-30T06:48:51Z</time>
      </trkpt>
      <trkpt lat="56.619219984859228" lon="-6.070760004222393">
        <ele>20.32</ele>
        <time>2023-08-30T06:48:59Z</time>
      </trkpt>
      <trkpt lat="56.619122000411153" lon="-6.07077500782907">
        <ele>21.77</ele>
        <time>2023-08-30T06:49:00Z</time>
      </trkpt>
      <trkpt lat="56.619032984599471" lon="-6.07081700116396">
        <ele>22.73</ele>
        <time>2023-08-30T06:49:01Z</time>
      </trkpt>
      <trkpt lat="56.618932988494635" lon="-6.07090400531888">
        <ele>23.690000000000001</ele>
        <time>2023-08-30T06:49:02Z</time>
      </trkpt>
      <trkpt lat="56.618823017925024" lon="-6.070998972281814">
        <ele>24.649999999999999</ele>
        <time>2023-08-30T06:49:03Z</time>
      </trkpt>
      <trkpt lat="56.618737019598484" lon="-6.071097040548921">
        <ele>25.609999999999999</ele>
        <time>2023-08-30T06:49:04Z</time>
      </trkpt>
      <trkpt lat="56.618667030707002" lon="-6.071275994181633">
        <ele>26.57</ele>
        <time>2023-08-30T06:49:05Z</time>
      </trkpt>
      <trkpt lat="56.618596035987139" lon="-6.071456959471107">
        <ele>27.530000000000001</ele>
        <time>2023-08-30T06:49:06Z</time>
      </trkpt>
      <trkpt lat="56.61851498298347" lon="-6.071662986651063">
        <ele>28.5</ele>
        <time>2023-08-30T06:49:07Z</time>
      </trkpt>
      <trkpt lat="56.618497967720032" lon="-6.071818973869085">
        <ele>29.940000000000001</ele>
        <time>2023-08-30T06:49:08Z</time>
      </trkpt>
      <trkpt lat="56.618476007133722" lon="-6.072019971907139">
        <ele>31.379999999999999</ele>
        <time>2023-08-30T06:49:09Z</time>
      </trkpt>
      <trkpt lat="56.618456980213523" lon="-6.072196997702122">
        <ele>32.340000000000003</ele>
        <time>2023-08-30T06:49:10Z</time>
      </trkpt>
      <trkpt lat="56.618427978828549" lon="-6.072462033480406">
        <ele>34.740000000000002</ele>
        <time>2023-08-30T06:49:12Z</time>
      </trkpt>
      <trkpt lat="56.618418004363775" lon="-6.072552977129817">
        <ele>35.710000000000001</ele>
        <time>2023-08-30T06:49:13Z</time>
      </trkpt>
      <trkpt lat="56.618409035727382" lon="-6.072629000991583">
        <ele>36.670000000000002</ele>
        <time>2023-08-30T06:49:14Z</time>
      </trkpt>
      <trkpt lat="56.618401994928718" lon="-6.072697984054685">
        <ele>37.630000000000003</ele>
        <time>2023-08-30T06:49:15Z</time>
      </trkpt>
      <trkpt lat="56.618395037949085" lon="-6.072762021794915">
        <ele>38.590000000000003</ele>
        <time>2023-08-30T06:49:16Z</time>
      </trkpt>
      <trkpt lat="56.618387997150421" lon="-6.072821030393243">
        <ele>39.549999999999997</ele>
        <time>2023-08-30T06:49:17Z</time>
      </trkpt>
      <trkpt lat="56.618303004652262" lon="-6.072956984862685">
        <ele>40.030000000000001</ele>
        <time>2023-08-30T06:49:18Z</time>
      </trkpt>
      <trkpt lat="56.618450023233891" lon="-6.072993027046323">
        <ele>40.990000000000002</ele>
        <time>2023-08-30T06:49:19Z</time>
      </trkpt>
      <trkpt lat="56.61844901740551" lon="-6.072995038703084">
        <ele>41.469999999999999</ele>
        <time>2023-08-30T06:49:20Z</time>
      </trkpt>
      <trkpt lat="56.618450023233891" lon="-6.072993027046323">
        <ele>41.950000000000003</ele>
        <time>2023-08-30T06:49:21Z</time>
      </trkpt>
      <trkpt lat="56.618393026292324" lon="-6.072775013744831">
        <ele>42.920000000000002</ele>
        <time>2023-08-30T06:49:22Z</time>
      </trkpt>
      <trkpt lat="56.618400989100337" lon="-6.072702007368207">
        <ele>43.880000000000003</ele>
        <time>2023-08-30T06:49:24Z</time>
      </trkpt>
      <trkpt lat="56.618424039334059" lon="-6.072497991845012">
        <ele>43.880000000000003</ele>
        <time>2023-08-30T06:49:25Z</time>
      </trkpt>
      <trkpt lat="56.61851498298347" lon="-6.071662986651063">
        <ele>44.840000000000003</ele>
        <time>2023-08-30T06:49:31Z</time>
      </trkpt>
      <trkpt lat="56.618593018501997" lon="-6.07146299444139">
        <ele>43.880000000000003</ele>
        <time>2023-08-30T06:49:32Z</time>
      </trkpt>
      <trkpt lat="56.618651021271944" lon="-6.071316981688142">
        <ele>42.920000000000002</ele>
        <time>2023-08-30T06:49:33Z</time>
      </trkpt>
      <trkpt lat="56.618709024041891" lon="-6.071169041097164">
        <ele>42.439999999999998</ele>
        <time>2023-08-30T06:49:34Z</time>
      </trkpt>
      <trkpt lat="56.618790999054909" lon="-6.071026967838407">
        <ele>41.950000000000003</ele>
        <time>2023-08-30T06:49:35Z</time>
      </trkpt>
      <trkpt lat="56.618886971846223" lon="-6.070943986997008">
        <ele>40.990000000000002</ele>
        <time>2023-08-30T06:49:36Z</time>
      </trkpt>
      <trkpt lat="56.618974981829524" lon="-6.070867963135243">
        <ele>40.509999999999998</ele>
        <time>2023-08-30T06:49:37Z</time>
      </trkpt>
      <trkpt lat="56.619059974327683" lon="-6.07079403474927">
        <ele>39.549999999999997</ele>
        <time>2023-08-30T06:49:38Z</time>
      </trkpt>
      <trkpt lat="56.61915997043252" lon="-6.070769978687167">
        <ele>38.590000000000003</ele>
        <time>2023-08-30T06:49:39Z</time>
      </trkpt>
      <trkpt lat="56.619259966537356" lon="-6.07075396925211">
        <ele>37.630000000000003</ele>
        <time>2023-08-30T06:49:40Z</time>
      </trkpt>
      <trkpt lat="56.619371026754379" lon="-6.070745000615716">
        <ele>37.149999999999999</ele>
        <time>2023-08-30T06:49:41Z</time>
      </trkpt>
      <trkpt lat="56.619488038122654" lon="-6.070772996172309">
        <ele>36.189999999999998</ele>
        <time>2023-08-30T06:49:42Z</time>
      </trkpt>
      <trkpt lat="56.61961100064218" lon="-6.070803003385663">
        <ele>35.229999999999997</ele>
        <time>2023-08-30T06:49:43Z</time>
      </trkpt>
      <trkpt lat="56.619728012010455" lon="-6.070832004770637">
        <ele>33.780000000000001</ele>
        <time>2023-08-30T06:49:44Z</time>
      </trkpt>
      <trkpt lat="56.620170995593071" lon="-6.070924960076809">
        <ele>28.5</ele>
        <time>2023-08-30T06:49:48Z</time>
      </trkpt>
      <trkpt lat="56.620290018618107" lon="-6.070881960913539">
        <ele>27.050000000000001</ele>
        <time>2023-08-30T06:49:49Z</time>
      </trkpt>
      <trkpt lat="56.620409963652492" lon="-6.070838961750269">
        <ele>25.609999999999999</ele>
        <time>2023-08-30T06:49:50Z</time>
      </trkpt>
      <trkpt lat="56.620520018041134" lon="-6.070770984515548">
        <ele>24.170000000000002</ele>
        <time>2023-08-30T06:49:51Z</time>
      </trkpt>
      <trkpt lat="56.620627976953983" lon="-6.070692026987672">
        <ele>22.73</ele>
        <time>2023-08-30T06:49:52Z</time>
      </trkpt>
      <trkpt lat="56.620874991640449" lon="-6.070502009242773">
        <ele>18.879999999999999</ele>
        <time>2023-08-30T06:49:55Z</time>
      </trkpt>
      <trkpt lat="56.620925031602383" lon="-6.070446018129587">
        <ele>17.920000000000002</ele>
        <time>2023-08-30T06:49:56Z</time>
      </trkpt>
      <trkpt lat="56.6210070066154" lon="-6.070247031748295">
        <ele>13.6</ele>
        <time>2023-08-30T06:50:00Z</time>
      </trkpt>
      <trkpt lat="56.620993008837104" lon="-6.070179976522923">
        <ele>12.15</ele>
        <time>2023-08-30T06:50:01Z</time>
      </trkpt>
      <trkpt lat="56.620976999402046" lon="-6.070103030651808">
        <ele>11.19</ele>
        <time>2023-08-30T06:50:02Z</time>
      </trkpt>
      <trkpt lat="56.620958978310227" lon="-6.070018960162997">
        <ele>10.23</ele>
        <time>2023-08-30T06:50:03Z</time>
      </trkpt>
      <trkpt lat="56.620939029380679" lon="-6.069927010685206">
        <ele>8.789999999999999</ele>
        <time>2023-08-30T06:50:04Z</time>
      </trkpt>
      <trkpt lat="56.62092000246048" lon="-6.069839000701904">
        <ele>7.83</ele>
        <time>2023-08-30T06:50:05Z</time>
      </trkpt>
      <trkpt lat="56.620672987774014" lon="-6.069576982408762">
        <ele>2.54</ele>
        <time>2023-08-30T06:50:13Z</time>
      </trkpt>
      <trkpt lat="56.62063904106617" lon="-6.069559967145324">
        <ele>1.58</ele>
        <time>2023-08-30T06:50:14Z</time>
      </trkpt>
      <trkpt lat="56.620614985004067" lon="-6.069547981023789">
        <ele>0.62</ele>
        <time>2023-08-30T06:50:15Z</time>
      </trkpt>
      <trkpt lat="56.6205960419029" lon="-6.069539012387395">
        <ele>-0.34</ele>
        <time>2023-08-30T06:50:16Z</time>
      </trkpt>
      <trkpt lat="56.6205960419029" lon="-6.069539012387395">
        <ele>-0.82</ele>
        <time>2023-08-30T06:50:17Z</time>
      </trkpt>
      <trkpt lat="56.6205960419029" lon="-6.069539012387395">
        <ele>-4.19</ele>
        <time>2023-08-30T06:50:30Z</time>
      </trkpt>
      <trkpt lat="56.6205960419029" lon="-6.069539012387395">
        <ele>-4.19</ele>
        <time>2023-08-30T06:50:59Z</time>
      </trkpt>
      <trkpt lat="56.6205960419029" lon="-6.069539012387395">
        <ele>-3.71</ele>
        <time>2023-08-30T06:51:25Z</time>
      </trkpt>
      <trkpt lat="56.6205960419029" lon="-6.069539012387395">
        <ele>-3.23</ele>
        <time>2023-08-30T06:52:05Z</time>
      </trkpt>
      <trkpt lat="56.6205960419029" lon="-6.069539012387395">
        <ele>-3.23</ele>
        <time>2023-08-30T06:52:25Z</time>
      </trkpt>
      <trkpt lat="56.620478024706244" lon="-6.069466006010771">
        <ele>8.310000000000001</ele>
        <time>2023-08-30T06:54:39Z</time>
      </trkpt>
      <trkpt lat="56.620450029149652" lon="-6.069439016282558">
        <ele>16</ele>
        <time>2023-08-30T06:55:12Z</time>
      </trkpt>
      <trkpt lat="56.620464026927948" lon="-6.069396017119288">
        <ele>14.56</ele>
        <time>2023-08-30T06:55:33Z</time>
      </trkpt>
      <trkpt lat="56.620508031919599" lon="-6.069384030997753">
        <ele>11.19</ele>
        <time>2023-08-30T06:55:47Z</time>
      </trkpt>
      <trkpt lat="56.62064298056066" lon="-6.069561978802085">
        <ele>10.23</ele>
        <time>2023-08-30T06:55:52Z</time>
      </trkpt>
      <trkpt lat="56.620683968067169" lon="-6.069583017379046">
        <ele>10.23</ele>
        <time>2023-08-30T06:55:53Z</time>
      </trkpt>
      <trkpt lat="56.62076803855598" lon="-6.069624004885554">
        <ele>10.23</ele>
        <time>2023-08-30T06:55:56Z</time>
      </trkpt>
      <trkpt lat="56.62076803855598" lon="-6.069624004885554">
        <ele>9.75</ele>
        <time>2023-08-30T06:55:57Z</time>
      </trkpt>
      <trkpt lat="56.620893012732267" lon="-6.069711009040475">
        <ele>9.75</ele>
        <time>2023-08-30T06:55:58Z</time>
      </trkpt>
      <trkpt lat="56.620908016338944" lon="-6.069777980446816">
        <ele>9.75</ele>
        <time>2023-08-30T06:55:59Z</time>
      </trkpt>
      <trkpt lat="56.620923019945621" lon="-6.069849980995059">
        <ele>9.75</ele>
        <time>2023-08-30T06:56:00Z</time>
      </trkpt>
      <trkpt lat="56.620938023552299" lon="-6.069919969886541">
        <ele>9.75</ele>
        <time>2023-08-30T06:56:01Z</time>
      </trkpt>
      <trkpt lat="56.620953027158976" lon="-6.069989958778024">
        <ele>9.75</ele>
        <time>2023-08-30T06:56:02Z</time>
      </trkpt>
      <trkpt lat="56.620967024937272" lon="-6.070058019831777">
        <ele>9.27</ele>
        <time>2023-08-30T06:56:03Z</time>
      </trkpt>
      <trkpt lat="56.620997032150626" lon="-6.070364965125918">
        <ele>6.39</ele>
        <time>2023-08-30T06:56:07Z</time>
      </trkpt>
      <trkpt lat="56.620972976088524" lon="-6.070392038673163">
        <ele>5.42</ele>
        <time>2023-08-30T06:56:08Z</time>
      </trkpt>
      <trkpt lat="56.62094296887517" lon="-6.070424979552627">
        <ele>4.94</ele>
        <time>2023-08-30T06:56:09Z</time>
      </trkpt>
      <trkpt lat="56.620903993025422" lon="-6.070468984544277">
        <ele>3.98</ele>
        <time>2023-08-30T06:56:10Z</time>
      </trkpt>
      <trkpt lat="56.620845990255475" lon="-6.070531010627747">
        <ele>3.02</ele>
        <time>2023-08-30T06:56:11Z</time>
      </trkpt>
      <trkpt lat="56.620777007192373" lon="-6.07058197259903">
        <ele>2.54</ele>
        <time>2023-08-30T06:56:12Z</time>
      </trkpt>
      <trkpt lat="56.620700983330607" lon="-6.070637963712215">
        <ele>2.06</ele>
        <time>2023-08-30T06:56:13Z</time>
      </trkpt>
      <trkpt lat="56.620615990832448" lon="-6.070700995624065">
        <ele>1.58</ele>
        <time>2023-08-30T06:56:14Z</time>
      </trkpt>
      <trkpt lat="56.620044009760022" lon="-6.070909034460783">
        <ele>-0.34</ele>
        <time>2023-08-30T06:56:20Z</time>
      </trkpt>
      <trkpt lat="56.619940996170044" lon="-6.0708839725703">
        <ele>0.14</ele>
        <time>2023-08-30T06:56:21Z</time>
      </trkpt>
      <trkpt lat="56.619835970923305" lon="-6.070857988670468">
        <ele>0.62</ele>
        <time>2023-08-30T06:56:22Z</time>
      </trkpt>
      <trkpt lat="56.619161982089281" lon="-6.070768972858787">
        <ele>6.87</ele>
        <time>2023-08-30T06:56:28Z</time>
      </trkpt>
      <trkpt lat="56.619072966277599" lon="-6.070782970637083">
        <ele>7.83</ele>
        <time>2023-08-30T06:56:29Z</time>
      </trkpt>
      <trkpt lat="56.618968024849892" lon="-6.070872992277145">
        <ele>8.310000000000001</ele>
        <time>2023-08-30T06:56:30Z</time>
      </trkpt>
      <trkpt lat="56.618867022916675" lon="-6.070962008088827">
        <ele>9.75</ele>
        <time>2023-08-30T06:56:31Z</time>
      </trkpt>
      <trkpt lat="56.618777001276612" lon="-6.071039037778974">
        <ele>11.19</ele>
        <time>2023-08-30T06:56:32Z</time>
      </trkpt>
      <trkpt lat="56.618727967143059" lon="-6.071121012791991">
        <ele>12.630000000000001</ele>
        <time>2023-08-30T06:56:33Z</time>
      </trkpt>
      <trkpt lat="56.618667030707002" lon="-6.071273982524872">
        <ele>14.56</ele>
        <time>2023-08-30T06:56:34Z</time>
      </trkpt>
      <trkpt lat="56.618605004623532" lon="-6.071433993056417">
        <ele>16</ele>
        <time>2023-08-30T06:56:35Z</time>
      </trkpt>
      <trkpt lat="56.61851498298347" lon="-6.071662986651063">
        <ele>18.399999999999999</ele>
        <time>2023-08-30T06:56:36Z</time>
      </trkpt>
      <trkpt lat="56.618504002690315" lon="-6.071757031604648">
        <ele>20.809999999999999</ele>
        <time>2023-08-30T06:56:37Z</time>
      </trkpt>
      <trkpt lat="56.618481958284974" lon="-6.071960963308811">
        <ele>22.73</ele>
        <time>2023-08-30T06:56:38Z</time>
      </trkpt>
      <trkpt lat="56.618416998535395" lon="-6.072554988786578">
        <ele>28.98</ele>
        <time>2023-08-30T06:56:42Z</time>
      </trkpt>
      <trkpt lat="56.618392020463943" lon="-6.072789011523128">
        <ele>33.299999999999997</ele>
        <time>2023-08-30T06:56:45Z</time>
      </trkpt>
      <trkpt lat="56.61838598549366" lon="-6.072842990979552">
        <ele>34.740000000000002</ele>
        <time>2023-08-30T06:56:46Z</time>
      </trkpt>
      <trkpt lat="56.618325971066952" lon="-6.073003001511097">
        <ele>36.189999999999998</ele>
        <time>2023-08-30T06:56:47Z</time>
      </trkpt>
      <trkpt lat="56.618450023233891" lon="-6.072993027046323">
        <ele>37.149999999999999</ele>
        <time>2023-08-30T06:56:48Z</time>
      </trkpt>
      <trkpt lat="56.618453962728381" lon="-6.072994032874703">
        <ele>38.590000000000003</ele>
        <time>2023-08-30T06:56:49Z</time>
      </trkpt>
      <trkpt lat="56.618513977155089" lon="-6.073009036481381">
        <ele>39.549999999999997</ele>
        <time>2023-08-30T06:56:50Z</time>
      </trkpt>
      <trkpt lat="56.618582038208842" lon="-6.073025967925787">
        <ele>40.030000000000001</ele>
        <time>2023-08-30T06:56:51Z</time>
      </trkpt>
      <trkpt lat="56.618646997958422" lon="-6.073041977360845">
        <ele>40.990000000000002</ele>
        <time>2023-08-30T06:56:52Z</time>
      </trkpt>
      <trkpt lat="56.618711035698652" lon="-6.073057986795902">
        <ele>41.950000000000003</ele>
        <time>2023-08-30T06:56:53Z</time>
      </trkpt>
      <trkpt lat="56.618771972134709" lon="-6.07307399623096">
        <ele>42.920000000000002</ele>
        <time>2023-08-30T06:56:54Z</time>
      </trkpt>
      <trkpt lat="56.618821006268263" lon="-6.073182038962841">
        <ele>43.880000000000003</ele>
        <time>2023-08-30T06:56:55Z</time>
      </trkpt>
      <trkpt lat="56.618846990168095" lon="-6.073278011754155">
        <ele>44.840000000000003</ele>
        <time>2023-08-30T06:56:56Z</time>
      </trkpt>
      <trkpt lat="56.618871968239546" lon="-6.073369961231947">
        <ele>46.280000000000001</ele>
        <time>2023-08-30T06:56:57Z</time>
      </trkpt>
      <trkpt lat="56.618897030130029" lon="-6.073464006185532">
        <ele>47.240000000000002</ele>
        <time>2023-08-30T06:56:58Z</time>
      </trkpt>
      <trkpt lat="56.618924019858241" lon="-6.073564002290368">
        <ele>48.200000000000003</ele>
        <time>2023-08-30T06:56:59Z</time>
      </trkpt>
      <trkpt lat="56.618948997929692" lon="-6.073672967031598">
        <ele>49.159999999999997</ele>
        <time>2023-08-30T06:57:00Z</time>
      </trkpt>
      <trkpt lat="56.619013035669923" lon="-6.074222987517715">
        <ele>53.009999999999998</ele>
        <time>2023-08-30T06:57:04Z</time>
      </trkpt>
      <trkpt lat="56.619066009297967" lon="-6.076013026759028">
        <ele>61.18</ele>
        <time>2023-08-30T06:57:14Z</time>
      </trkpt>
      <trkpt lat="56.61909501068294" lon="-6.076343022286892">
        <ele>63.100000000000001</ele>
        <time>2023-08-30T06:57:16Z</time>
      </trkpt>
      <trkpt lat="56.619128035381436" lon="-6.076475959271193">
        <ele>64.069999999999993</ele>
        <time>2023-08-30T06:57:17Z</time>
      </trkpt>
      <trkpt lat="56.619161982089281" lon="-6.076614009216428">
        <ele>64.549999999999997</ele>
        <time>2023-08-30T06:57:18Z</time>
      </trkpt>
      <trkpt lat="56.619344037026167" lon="-6.077163023874164">
        <ele>66.469999999999999</ele>
        <time>2023-08-30T06:57:22Z</time>
      </trkpt>
      <trkpt lat="56.619405979290605" lon="-6.077295960858464">
        <ele>66.469999999999999</ele>
        <time>2023-08-30T06:57:23Z</time>
      </trkpt>
      <trkpt lat="56.61948099732399" lon="-6.077418001368642">
        <ele>66.469999999999999</ele>
        <time>2023-08-30T06:57:24Z</time>
      </trkpt>
      <trkpt lat="56.620452040806413" lon="-6.078992960974574">
        <ele>72.239999999999995</ele>
        <time>2023-08-30T06:57:35Z</time>
      </trkpt>
      <trkpt lat="56.620954032987356" lon="-6.079808017238975">
        <ele>78</ele>
        <time>2023-08-30T06:57:42Z</time>
      </trkpt>
      <trkpt lat="56.620998959988356" lon="-6.079881023615599">
        <ele>78.480000000000004</ele>
        <time>2023-08-30T06:57:43Z</time>
      </trkpt>
      <trkpt lat="56.621025027707219" lon="-6.079924022778869">
        <ele>78.969999999999999</ele>
        <time>2023-08-30T06:57:44Z</time>
      </trkpt>
      <trkpt lat="56.620970964431763" lon="-6.080043967813253">
        <ele>79.450000000000003</ele>
        <time>2023-08-30T06:57:45Z</time>
      </trkpt>
      <trkpt lat="56.620936011895537" lon="-6.080119991675019">
        <ele>79.450000000000003</ele>
        <time>2023-08-30T06:57:46Z</time>
      </trkpt>
      <trkpt lat="56.620917990803719" lon="-6.080159973353148">
        <ele>79.930000000000007</ele>
        <time>2023-08-30T06:57:47Z</time>
      </trkpt>
      <trkpt lat="56.620852025225759" lon="-6.080177994444966">
        <ele>80.409999999999997</ele>
        <time>2023-08-30T06:57:48Z</time>
      </trkpt>
      <trkpt lat="56.620772983878851" lon="-6.080200038850308">
        <ele>80.409999999999997</ele>
        <time>2023-08-30T06:57:49Z</time>
      </trkpt>
      <trkpt lat="56.62068204022944" lon="-6.080225016921759">
        <ele>80.409999999999997</ele>
        <time>2023-08-30T06:57:50Z</time>
      </trkpt>
      <trkpt lat="56.620611967518926" lon="-6.08014203608036">
        <ele>80.409999999999997</ele>
        <time>2023-08-30T06:57:51Z</time>
      </trkpt>
      <trkpt lat="56.620521023869514" lon="-6.080031981691718">
        <ele>79.930000000000007</ele>
        <time>2023-08-30T06:57:52Z</time>
      </trkpt>
      <trkpt lat="56.62012699060142" lon="-6.079563014209271">
        <ele>80.890000000000001</ele>
        <time>2023-08-30T06:57:57Z</time>
      </trkpt>
      <trkpt lat="56.620055995881557" lon="-6.079558990895748">
        <ele>81.370000000000005</ele>
        <time>2023-08-30T06:57:58Z</time>
      </trkpt>
      <trkpt lat="56.619986006990075" lon="-6.079558990895748">
        <ele>81.849999999999994</ele>
        <time>2023-08-30T06:57:59Z</time>
      </trkpt>
      <trkpt lat="56.619905959814787" lon="-6.079594027251005">
        <ele>82.329999999999998</ele>
        <time>2023-08-30T06:58:00Z</time>
      </trkpt>
      <trkpt lat="56.619837982580066" lon="-6.079686982557178">
        <ele>82.329999999999998</ele>
        <time>2023-08-30T06:58:01Z</time>
      </trkpt>
      <trkpt lat="56.619757013395429" lon="-6.079808017238975">
        <ele>82.810000000000002</ele>
        <time>2023-08-30T06:58:02Z</time>
      </trkpt>
      <trkpt lat="56.619723988696933" lon="-6.079954029992223">
        <ele>82.810000000000002</ele>
        <time>2023-08-30T06:58:03Z</time>
      </trkpt>
      <trkpt lat="56.619691969826818" lon="-6.080097025260329">
        <ele>83.290000000000006</ele>
        <time>2023-08-30T06:58:04Z</time>
      </trkpt>
      <trkpt lat="56.619677972048521" lon="-6.080257035791874">
        <ele>83.769999999999996</ele>
        <time>2023-08-30T06:58:05Z</time>
      </trkpt>
      <trkpt lat="56.619688030332327" lon="-6.080406988039613">
        <ele>84.25</ele>
        <time>2023-08-30T06:58:06Z</time>
      </trkpt>
      <trkpt lat="56.619715020060539" lon="-6.080560041591525">
        <ele>84.730000000000004</ele>
        <time>2023-08-30T06:58:07Z</time>
      </trkpt>
      <trkpt lat="56.619765982031822" lon="-6.080699013546109">
        <ele>84.730000000000004</ele>
        <time>2023-08-30T06:58:08Z</time>
      </trkpt>
      <trkpt lat="56.619821973145008" lon="-6.08085198327899">
        <ele>85.209999999999994</ele>
        <time>2023-08-30T06:58:09Z</time>
      </trkpt>
      <trkpt lat="56.619878970086575" lon="-6.081009982153773">
        <ele>85.689999999999998</ele>
        <time>2023-08-30T06:58:10Z</time>
      </trkpt>
      <trkpt lat="56.619934039190412" lon="-6.081162029877305">
        <ele>86.180000000000007</ele>
        <time>2023-08-30T06:58:11Z</time>
      </trkpt>
      <trkpt lat="56.619946025311947" lon="-6.08132497407496">
        <ele>87.140000000000001</ele>
        <time>2023-08-30T06:58:12Z</time>
      </trkpt>
      <trkpt lat="56.619937978684902" lon="-6.081465035676956">
        <ele>88.099999999999994</ele>
        <time>2023-08-30T06:58:13Z</time>
      </trkpt>
      <trkpt lat="56.619920963421464" lon="-6.081586992368102">
        <ele>89.060000000000002</ele>
        <time>2023-08-30T06:58:14Z</time>
      </trkpt>
      <trkpt lat="56.619863966479897" lon="-6.081653041765094">
        <ele>90.019999999999996</ele>
        <time>2023-08-30T06:58:15Z</time>
      </trkpt>
      <trkpt lat="56.619796995073557" lon="-6.081729987636209">
        <ele>90.980000000000004</ele>
        <time>2023-08-30T06:58:16Z</time>
      </trkpt>
      <trkpt lat="56.619721977040172" lon="-6.081814980134368">
        <ele>91.459999999999994</ele>
        <time>2023-08-30T06:58:17Z</time>
      </trkpt>
      <trkpt lat="56.61963103339076" lon="-6.081920005381107">
        <ele>91.939999999999998</ele>
        <time>2023-08-30T06:58:18Z</time>
      </trkpt>
      <trkpt lat="56.619448978453875" lon="-6.082026036456227">
        <ele>92.900000000000006</ele>
        <time>2023-08-30T06:58:20Z</time>
      </trkpt>
      <trkpt lat="56.618787981569767" lon="-6.082110023126006">
        <ele>93.870000000000005</ele>
        <time>2023-08-30T06:58:26Z</time>
      </trkpt>
      <trkpt lat="56.618670970201492" lon="-6.082160985097289">
        <ele>93.390000000000001</ele>
        <time>2023-08-30T06:58:28Z</time>
      </trkpt>
      <trkpt lat="56.618597963824868" lon="-6.082203984260559">
        <ele>92.900000000000006</ele>
        <time>2023-08-30T06:58:29Z</time>
      </trkpt>
      <trkpt lat="56.618515988811851" lon="-6.082274978980422">
        <ele>92.420000000000002</ele>
        <time>2023-08-30T06:58:30Z</time>
      </trkpt>
      <trkpt lat="56.618436025455594" lon="-6.082409005612135">
        <ele>91.939999999999998</ele>
        <time>2023-08-30T06:58:31Z</time>
      </trkpt>
      <trkpt lat="56.618346003815532" lon="-6.082559041678906">
        <ele>90.980000000000004</ele>
        <time>2023-08-30T06:58:32Z</time>
      </trkpt>
      <trkpt lat="56.617187960073352" lon="-6.084494004026055">
        <ele>85.689999999999998</ele>
        <time>2023-08-30T06:58:44Z</time>
      </trkpt>
      <trkpt lat="56.616904987022281" lon="-6.084966994822025">
        <ele>88.099999999999994</ele>
        <time>2023-08-30T06:58:48Z</time>
      </trkpt>
      <trkpt lat="56.616846984252334" lon="-6.085116025060415">
        <ele>88.579999999999998</ele>
        <time>2023-08-30T06:58:49Z</time>
      </trkpt>
      <trkpt lat="56.616789987310767" lon="-6.085260026156902">
        <ele>88.579999999999998</ele>
        <time>2023-08-30T06:58:50Z</time>
      </trkpt>
      <trkpt lat="56.616712035611272" lon="-6.085460018366575">
        <ele>88.579999999999998</ele>
        <time>2023-08-30T06:58:51Z</time>
      </trkpt>
      <trkpt lat="56.616682028397918" lon="-6.085602007806301">
        <ele>88.099999999999994</ele>
        <time>2023-08-30T06:58:52Z</time>
      </trkpt>
      <trkpt lat="56.616642968729138" lon="-6.085791019722819">
        <ele>88.099999999999994</ele>
        <time>2023-08-30T06:58:53Z</time>
      </trkpt>
      <trkpt lat="56.616569962352514" lon="-6.086135013028979">
        <ele>87.140000000000001</ele>
        <time>2023-08-30T06:58:55Z</time>
      </trkpt>
      <trkpt lat="56.616540960967541" lon="-6.086275996640325">
        <ele>86.659999999999997</ele>
        <time>2023-08-30T06:58:56Z</time>
      </trkpt>
      <trkpt lat="56.616468038409948" lon="-6.086327964439988">
        <ele>86.180000000000007</ele>
        <time>2023-08-30T06:58:57Z</time>
      </trkpt>
      <trkpt lat="56.616390002891421" lon="-6.086383033543825">
        <ele>86.180000000000007</ele>
        <time>2023-08-30T06:58:58Z</time>
      </trkpt>
      <trkpt lat="56.61630199290812" lon="-6.086410023272038">
        <ele>85.689999999999998</ele>
        <time>2023-08-30T06:58:59Z</time>
      </trkpt>
      <trkpt lat="56.61621599458158" lon="-6.086436007171869">
        <ele>85.689999999999998</ele>
        <time>2023-08-30T06:59:00Z</time>
      </trkpt>
      <trkpt lat="56.616132007911801" lon="-6.086461991071701">
        <ele>86.180000000000007</ele>
        <time>2023-08-30T06:59:01Z</time>
      </trkpt>
      <trkpt lat="56.616055984050035" lon="-6.086516976356506">
        <ele>86.180000000000007</ele>
        <time>2023-08-30T06:59:02Z</time>
      </trkpt>
      <trkpt lat="56.61597702652216" lon="-6.086586965247989">
        <ele>86.180000000000007</ele>
        <time>2023-08-30T06:59:03Z</time>
      </trkpt>
      <trkpt lat="56.615908965468407" lon="-6.086676986888051">
        <ele>86.659999999999997</ele>
        <time>2023-08-30T06:59:04Z</time>
      </trkpt>
      <trkpt lat="56.615842999890447" lon="-6.086799027398229">
        <ele>86.659999999999997</ele>
        <time>2023-08-30T06:59:05Z</time>
      </trkpt>
      <trkpt lat="56.615779967978597" lon="-6.086926013231278">
        <ele>86.659999999999997</ele>
        <time>2023-08-30T06:59:06Z</time>
      </trkpt>
      <trkpt lat="56.615731017664075" lon="-6.0870820004493">
        <ele>86.659999999999997</ele>
        <time>2023-08-30T06:59:07Z</time>
      </trkpt>
      <trkpt lat="56.615535970777273" lon="-6.087957993149757">
        <ele>87.140000000000001</ele>
        <time>2023-08-30T06:59:12Z</time>
      </trkpt>
      <trkpt lat="56.615510992705822" lon="-6.088145999237895">
        <ele>87.620000000000005</ele>
        <time>2023-08-30T06:59:13Z</time>
      </trkpt>
      <trkpt lat="56.615490037947893" lon="-6.088341968134046">
        <ele>88.099999999999994</ele>
        <time>2023-08-30T06:59:14Z</time>
      </trkpt>
      <trkpt lat="56.615494983270764" lon="-6.08854103833437">
        <ele>88.579999999999998</ele>
        <time>2023-08-30T06:59:15Z</time>
      </trkpt>
      <trkpt lat="56.615501018241048" lon="-6.088753016665578">
        <ele>89.060000000000002</ele>
        <time>2023-08-30T06:59:16Z</time>
      </trkpt>
      <trkpt lat="56.615532031282783" lon="-6.089945007115603">
        <ele>90.980000000000004</ele>
        <time>2023-08-30T06:59:22Z</time>
      </trkpt>
      <trkpt lat="56.615513004362583" lon="-6.090131001546979">
        <ele>91.459999999999994</ele>
        <time>2023-08-30T06:59:23Z</time>
      </trkpt>
      <trkpt lat="56.615493977442384" lon="-6.09030400402844">
        <ele>91.939999999999998</ele>
        <time>2023-08-30T06:59:24Z</time>
      </trkpt>
      <trkpt lat="56.615435974672437" lon="-6.090421015396714">
        <ele>92.420000000000002</ele>
        <time>2023-08-30T06:59:25Z</time>
      </trkpt>
      <trkpt lat="56.615361962467432" lon="-6.090515982359648">
        <ele>92.900000000000006</ele>
        <time>2023-08-30T06:59:26Z</time>
      </trkpt>
      <trkpt lat="56.615274958312511" lon="-6.090565016493201">
        <ele>93.390000000000001</ele>
        <time>2023-08-30T06:59:27Z</time>
      </trkpt>
      <trkpt lat="56.615174962207675" lon="-6.090596029534936">
        <ele>94.349999999999994</ele>
        <time>2023-08-30T06:59:28Z</time>
      </trkpt>
      <trkpt lat="56.615064991638064" lon="-6.090629976242781">
        <ele>95.310000000000002</ele>
        <time>2023-08-30T06:59:29Z</time>
      </trkpt>
      <trkpt lat="56.614958038553596" lon="-6.090663000941277">
        <ele>96.269999999999996</ele>
        <time>2023-08-30T06:59:30Z</time>
      </trkpt>
      <trkpt lat="56.614781012758613" lon="-6.090716980397701">
        <ele>98.189999999999998</ele>
        <time>2023-08-30T06:59:32Z</time>
      </trkpt>
      <trkpt lat="56.614705994725227" lon="-6.090804990381002">
        <ele>99.150000000000006</ele>
        <time>2023-08-30T06:59:33Z</time>
      </trkpt>
      <trkpt lat="56.614641034975648" lon="-6.090897023677826">
        <ele>100.11</ele>
        <time>2023-08-30T06:59:34Z</time>
      </trkpt>
      <trkpt lat="56.614587977528572" lon="-6.09103498980403">
        <ele>100.59999999999999</ele>
        <time>2023-08-30T06:59:35Z</time>
      </trkpt>
      <trkpt lat="56.614544978365302" lon="-6.091146972030401">
        <ele>100.59999999999999</ele>
        <time>2023-08-30T06:59:36Z</time>
      </trkpt>
      <trkpt lat="56.614520000293851" lon="-6.091330032795668">
        <ele>101.08</ele>
        <time>2023-08-30T06:59:37Z</time>
      </trkpt>
      <trkpt lat="56.614497033879161" lon="-6.091497000306845">
        <ele>101.56</ele>
        <time>2023-08-30T06:59:38Z</time>
      </trkpt>
      <trkpt lat="56.614483036100864" lon="-6.091647036373615">
        <ele>101.56</ele>
        <time>2023-08-30T06:59:39Z</time>
      </trkpt>
      <trkpt lat="56.614498039707541" lon="-6.091820960864425">
        <ele>102.04000000000001</ele>
        <time>2023-08-30T06:59:40Z</time>
      </trkpt>
      <trkpt lat="56.614528968930244" lon="-6.092178029939532">
        <ele>102.52</ele>
        <time>2023-08-30T06:59:42Z</time>
      </trkpt>
      <trkpt lat="56.614542966708541" lon="-6.092344997450709">
        <ele>103</ele>
        <time>2023-08-30T06:59:43Z</time>
      </trkpt>
      <trkpt lat="56.61449602805078" lon="-6.092508025467396">
        <ele>103.48</ele>
        <time>2023-08-30T06:59:44Z</time>
      </trkpt>
      <trkpt lat="56.614451017230749" lon="-6.092638028785586">
        <ele>104.44</ele>
        <time>2023-08-30T06:59:45Z</time>
      </trkpt>
      <trkpt lat="56.614403994753957" lon="-6.092769037932158">
        <ele>105.40000000000001</ele>
        <time>2023-08-30T06:59:46Z</time>
      </trkpt>
      <trkpt lat="56.614354038611054" lon="-6.092912033200264">
        <ele>106.36</ele>
        <time>2023-08-30T06:59:47Z</time>
      </trkpt>
      <trkpt lat="56.614300981163979" lon="-6.093061985448003">
        <ele>106.84</ele>
        <time>2023-08-30T06:59:48Z</time>
      </trkpt>
      <trkpt lat="56.614265022799373" lon="-6.093213027343154">
        <ele>107.81</ele>
        <time>2023-08-30T06:59:49Z</time>
      </trkpt>
      <trkpt lat="56.614231998100877" lon="-6.093375971540809">
        <ele>108.77</ele>
        <time>2023-08-30T06:59:50Z</time>
      </trkpt>
      <trkpt lat="56.614201990887523" lon="-6.093537993729115">
        <ele>109.73</ele>
        <time>2023-08-30T06:59:51Z</time>
      </trkpt>
      <trkpt lat="56.614212971180677" lon="-6.093717031180859">
        <ele>110.69</ele>
        <time>2023-08-30T06:59:52Z</time>
      </trkpt>
      <trkpt lat="56.614234009757638" lon="-6.093896990641952">
        <ele>112.13</ele>
        <time>2023-08-30T06:59:53Z</time>
      </trkpt>
      <trkpt lat="56.614297963678837" lon="-6.094047026708722">
        <ele>113.09</ele>
        <time>2023-08-30T06:59:54Z</time>
      </trkpt>
      <trkpt lat="56.614362001419067" lon="-6.094198990613222">
        <ele>114.05</ele>
        <time>2023-08-30T06:59:55Z</time>
      </trkpt>
      <trkpt lat="56.614464009180665" lon="-6.094471989199519">
        <ele>115.98</ele>
        <time>2023-08-30T06:59:57Z</time>
      </trkpt>
      <trkpt lat="56.614479012787342" lon="-6.094610039144754">
        <ele>116.94</ele>
        <time>2023-08-30T06:59:58Z</time>
      </trkpt>
      <trkpt lat="56.614435007795691" lon="-6.094713974744082">
        <ele>117.42</ele>
        <time>2023-08-30T06:59:59Z</time>
      </trkpt>
      <trkpt lat="56.614387985318899" lon="-6.094809025526047">
        <ele>118.38</ele>
        <time>2023-08-30T07:00:00Z</time>
      </trkpt>
      <trkpt lat="56.614336017519236" lon="-6.094912039116025">
        <ele>118.86</ele>
        <time>2023-08-30T07:00:01Z</time>
      </trkpt>
      <trkpt lat="56.61428103223443" lon="-6.095022009685636">
        <ele>119.81999999999999</ele>
        <time>2023-08-30T07:00:02Z</time>
      </trkpt>
      <trkpt lat="56.614229986444116" lon="-6.095125023275614">
        <ele>120.3</ele>
        <time>2023-08-30T07:00:03Z</time>
      </trkpt>
      <trkpt lat="56.614192016422749" lon="-6.095243962481618">
        <ele>120.78</ele>
        <time>2023-08-30T07:00:04Z</time>
      </trkpt>
      <trkpt lat="56.614167038351297" lon="-6.095403973013163">
        <ele>120.78</ele>
        <time>2023-08-30T07:00:05Z</time>
      </trkpt>
      <trkpt lat="56.614138036966324" lon="-6.09558803960681">
        <ele>121.26000000000001</ele>
        <time>2023-08-30T07:00:06Z</time>
      </trkpt>
      <trkpt lat="56.613841988146305" lon="-6.097489977255464">
        <ele>123.67</ele>
        <time>2023-08-30T07:00:14Z</time>
      </trkpt>
      <trkpt lat="56.613565972074866" lon="-6.099027972668409">
        <ele>127.51000000000001</ele>
        <time>2023-08-30T07:00:21Z</time>
      </trkpt>
      <trkpt lat="56.613501012325287" lon="-6.099169962108135">
        <ele>128.47</ele>
        <time>2023-08-30T07:00:22Z</time>
      </trkpt>
      <trkpt lat="56.613450972363353" lon="-6.099279010668397">
        <ele>129.43000000000001</ele>
        <time>2023-08-30T07:00:23Z</time>
      </trkpt>
      <trkpt lat="56.61333697848022" lon="-6.099306000396609">
        <ele>130.40000000000001</ele>
        <time>2023-08-30T07:00:24Z</time>
      </trkpt>
      <trkpt lat="56.613239999860525" lon="-6.099328966811299">
        <ele>131.84</ele>
        <time>2023-08-30T07:00:25Z</time>
      </trkpt>
      <trkpt lat="56.613132962957025" lon="-6.099355034530163">
        <ele>132.80000000000001</ele>
        <time>2023-08-30T07:00:26Z</time>
      </trkpt>
      <trkpt lat="56.613026009872556" lon="-6.099380012601614">
        <ele>133.75999999999999</ele>
        <time>2023-08-30T07:00:27Z</time>
      </trkpt>
      <trkpt lat="56.612921990454197" lon="-6.099346987903118">
        <ele>134.72</ele>
        <time>2023-08-30T07:00:28Z</time>
      </trkpt>
      <trkpt lat="56.612599035724998" lon="-6.099181026220322">
        <ele>137.13</ele>
        <time>2023-08-30T07:00:31Z</time>
      </trkpt>
      <trkpt lat="56.611548028886318" lon="-6.098489016294479">
        <ele>140.00999999999999</ele>
        <time>2023-08-30T07:00:39Z</time>
      </trkpt>
      <trkpt lat="56.611055005341768" lon="-6.09806296415627">
        <ele>139.05000000000001</ele>
        <time>2023-08-30T07:00:43Z</time>
      </trkpt>
      <trkpt lat="56.610965989530087" lon="-6.09791100025177">
        <ele>139.05000000000001</ele>
        <time>2023-08-30T07:00:44Z</time>
      </trkpt>
      <trkpt lat="56.610874040052295" lon="-6.097749983891845">
        <ele>139.05000000000001</ele>
        <time>2023-08-30T07:00:45Z</time>
      </trkpt>
      <trkpt lat="56.610785024240613" lon="-6.097592990845442">
        <ele>139.05000000000001</ele>
        <time>2023-08-30T07:00:46Z</time>
      </trkpt>
      <trkpt lat="56.610698020085692" lon="-6.097440021112561">
        <ele>139.53</ele>
        <time>2023-08-30T07:00:47Z</time>
      </trkpt>
      <trkpt lat="56.610603975132108" lon="-6.097304988652468">
        <ele>140.00999999999999</ele>
        <time>2023-08-30T07:00:48Z</time>
      </trkpt>
      <trkpt lat="56.610504984855652" lon="-6.097170962020755">
        <ele>140.49000000000001</ele>
        <time>2023-08-30T07:00:49Z</time>
      </trkpt>
      <trkpt lat="56.610394008457661" lon="-6.097059985622764">
        <ele>140.97</ele>
        <time>2023-08-30T07:00:50Z</time>
      </trkpt>
      <trkpt lat="56.610266016796231" lon="-6.096985973417759">
        <ele>140.97</ele>
        <time>2023-08-30T07:00:51Z</time>
      </trkpt>
      <trkpt lat="56.609887992963195" lon="-6.096768965944648">
        <ele>142.41</ele>
        <time>2023-08-30T07:00:54Z</time>
      </trkpt>
      <trkpt lat="56.609777016565204" lon="-6.096705012023449">
        <ele>142.88999999999999</ele>
        <time>2023-08-30T07:00:55Z</time>
      </trkpt>
      <trkpt lat="56.609660005196929" lon="-6.096705012023449">
        <ele>143.37</ele>
        <time>2023-08-30T07:00:56Z</time>
      </trkpt>
      <trkpt lat="56.609541988000274" lon="-6.096738958731294">
        <ele>143.84999999999999</ele>
        <time>2023-08-30T07:00:57Z</time>
      </trkpt>
      <trkpt lat="56.609423970803618" lon="-6.096776006743312">
        <ele>144.34</ele>
        <time>2023-08-30T07:00:58Z</time>
      </trkpt>
      <trkpt lat="56.609308971092105" lon="-6.096840966492891">
        <ele>145.30000000000001</ele>
        <time>2023-08-30T07:00:59Z</time>
      </trkpt>
      <trkpt lat="56.608977969735861" lon="-6.097027966752648">
        <ele>145.78</ele>
        <time>2023-08-30T07:01:02Z</time>
      </trkpt>
      <trkpt lat="56.608862970024347" lon="-6.097046993672848">
        <ele>145.78</ele>
        <time>2023-08-30T07:01:03Z</time>
      </trkpt>
      <trkpt lat="56.608752999454737" lon="-6.097014974802733">
        <ele>145.78</ele>
        <time>2023-08-30T07:01:04Z</time>
      </trkpt>
      <trkpt lat="56.608642023056746" lon="-6.096957977861166">
        <ele>145.78</ele>
        <time>2023-08-30T07:01:05Z</time>
      </trkpt>
      <trkpt lat="56.608529035001993" lon="-6.096898969262838">
        <ele>145.78</ele>
        <time>2023-08-30T07:01:06Z</time>
      </trkpt>
      <trkpt lat="56.608413029462099" lon="-6.096839038655162">
        <ele>145.78</ele>
        <time>2023-08-30T07:01:07Z</time>
      </trkpt>
      <trkpt lat="56.607824033126235" lon="-6.096672993153334">
        <ele>148.18000000000001</ele>
        <time>2023-08-30T07:01:12Z</time>
      </trkpt>
      <trkpt lat="56.607724959030747" lon="-6.09666402451694">
        <ele>148.18000000000001</ele>
        <time>2023-08-30T07:01:13Z</time>
      </trkpt>
      <trkpt lat="56.607652958482504" lon="-6.096722027286887">
        <ele>148.18000000000001</ele>
        <time>2023-08-30T07:01:14Z</time>
      </trkpt>
      <trkpt lat="56.607580035924911" lon="-6.09681598842144">
        <ele>148.18000000000001</ele>
        <time>2023-08-30T07:01:15Z</time>
      </trkpt>
      <trkpt lat="56.607517004013062" lon="-6.096932999789715">
        <ele>148.18000000000001</ele>
        <time>2023-08-30T07:01:16Z</time>
      </trkpt>
      <trkpt lat="56.607452966272831" lon="-6.097084041684866">
        <ele>148.18000000000001</ele>
        <time>2023-08-30T07:01:17Z</time>
      </trkpt>
      <trkpt lat="56.606886014342308" lon="-6.098397988826037">
        <ele>149.13999999999999</ele>
        <time>2023-08-30T07:01:25Z</time>
      </trkpt>
      <trkpt lat="56.606808984652162" lon="-6.098475018516183">
        <ele>149.13999999999999</ele>
        <time>2023-08-30T07:01:26Z</time>
      </trkpt>
      <trkpt lat="56.606734972447157" lon="-6.098499996587634">
        <ele>149.13999999999999</ele>
        <time>2023-08-30T07:01:27Z</time>
      </trkpt>
      <trkpt lat="56.606660038232803" lon="-6.098487004637718">
        <ele>149.62</ele>
        <time>2023-08-30T07:01:28Z</time>
      </trkpt>
      <trkpt lat="56.60659197717905" lon="-6.098435036838055">
        <ele>149.62</ele>
        <time>2023-08-30T07:01:29Z</time>
      </trkpt>
      <trkpt lat="56.606517964974046" lon="-6.098368987441063">
        <ele>149.62</ele>
        <time>2023-08-30T07:01:30Z</time>
      </trkpt>
      <trkpt lat="56.606443030759692" lon="-6.098303021863103">
        <ele>149.62</ele>
        <time>2023-08-30T07:01:31Z</time>
      </trkpt>
      <trkpt lat="56.606370024383068" lon="-6.098238984122872">
        <ele>149.62</ele>
        <time>2023-08-30T07:01:32Z</time>
      </trkpt>
      <trkpt lat="56.606300035491586" lon="-6.098177041858435">
        <ele>149.13999999999999</ele>
        <time>2023-08-30T07:01:33Z</time>
      </trkpt>
      <trkpt lat="56.606227029114962" lon="-6.098193973302841">
        <ele>148.66</ele>
        <time>2023-08-30T07:01:34Z</time>
      </trkpt>
      <trkpt lat="56.606153016909957" lon="-6.098234038800001">
        <ele>148.18000000000001</ele>
        <time>2023-08-30T07:01:35Z</time>
      </trkpt>
      <trkpt lat="56.606047991663218" lon="-6.098292041569948">
        <ele>147.69999999999999</ele>
        <time>2023-08-30T07:01:36Z</time>
      </trkpt>
      <trkpt lat="56.605990994721651" lon="-6.098386002704501">
        <ele>147.22</ele>
        <time>2023-08-30T07:01:37Z</time>
      </trkpt>
      <trkpt lat="56.605912959203124" lon="-6.098517011851072">
        <ele>146.74000000000001</ele>
        <time>2023-08-30T07:01:38Z</time>
      </trkpt>
      <trkpt lat="56.605662005022168" lon="-6.098936023190618">
        <ele>146.74000000000001</ele>
        <time>2023-08-30T07:01:41Z</time>
      </trkpt>
      <trkpt lat="56.605607019737363" lon="-6.099131992086768">
        <ele>146.74000000000001</ele>
        <time>2023-08-30T07:01:42Z</time>
      </trkpt>
      <trkpt lat="56.605551028624177" lon="-6.099335001781583">
        <ele>146.74000000000001</ele>
        <time>2023-08-30T07:01:43Z</time>
      </trkpt>
      <trkpt lat="56.605274006724358" lon="-6.100225998088718">
        <ele>147.69999999999999</ele>
        <time>2023-08-30T07:01:48Z</time>
      </trkpt>
      <trkpt lat="56.605210974812508" lon="-6.100351978093386">
        <ele>147.69999999999999</ele>
        <time>2023-08-30T07:01:49Z</time>
      </trkpt>
      <trkpt lat="56.605130005627871" lon="-6.100399000570178">
        <ele>147.69999999999999</ele>
        <time>2023-08-30T07:01:50Z</time>
      </trkpt>
      <trkpt lat="56.605041995644569" lon="-6.100449962541461">
        <ele>148.18000000000001</ele>
        <time>2023-08-30T07:01:51Z</time>
      </trkpt>
      <trkpt lat="56.604950968176126" lon="-6.100503019988537">
        <ele>148.18000000000001</ele>
        <time>2023-08-30T07:01:52Z</time>
      </trkpt>
      <trkpt lat="56.604854995384812" lon="-6.100558005273342">
        <ele>148.18000000000001</ele>
        <time>2023-08-30T07:01:53Z</time>
      </trkpt>
      <trkpt lat="56.604754999279976" lon="-6.100616008043289">
        <ele>148.18000000000001</ele>
        <time>2023-08-30T07:01:54Z</time>
      </trkpt>
      <trkpt lat="56.604651985689998" lon="-6.100676022469997">
        <ele>148.18000000000001</ele>
        <time>2023-08-30T07:01:55Z</time>
      </trkpt>
      <trkpt lat="56.604546960443258" lon="-6.100736958906055">
        <ele>148.18000000000001</ele>
        <time>2023-08-30T07:01:56Z</time>
      </trkpt>
      <trkpt lat="56.604029964655638" lon="-6.101270969957113">
        <ele>148.66</ele>
        <time>2023-08-30T07:02:01Z</time>
      </trkpt>
      <trkpt lat="56.603928962722421" lon="-6.101374989375472">
        <ele>148.66</ele>
        <time>2023-08-30T07:02:02Z</time>
      </trkpt>
      <trkpt lat="56.603827960789204" lon="-6.101418994367123">
        <ele>149.13999999999999</ele>
        <time>2023-08-30T07:02:03Z</time>
      </trkpt>
      <trkpt lat="56.603718996047974" lon="-6.101441960781813">
        <ele>149.13999999999999</ele>
        <time>2023-08-30T07:02:04Z</time>
      </trkpt>
      <trkpt lat="56.60360399633646" lon="-6.101466016843915">
        <ele>149.13999999999999</ele>
        <time>2023-08-30T07:02:05Z</time>
      </trkpt>
      <trkpt lat="56.602968983352184" lon="-6.101591996848583">
        <ele>150.09999999999999</ele>
        <time>2023-08-30T07:02:10Z</time>
      </trkpt>
      <trkpt lat="56.602848032489419" lon="-6.101539023220539">
        <ele>150.58000000000001</ele>
        <time>2023-08-30T07:02:11Z</time>
      </trkpt>
      <trkpt lat="56.602732026949525" lon="-6.101487977430224">
        <ele>150.58000000000001</ele>
        <time>2023-08-30T07:02:12Z</time>
      </trkpt>
      <trkpt lat="56.60227001644671" lon="-6.10128496773541">
        <ele>151.53999999999999</ele>
        <time>2023-08-30T07:02:16Z</time>
      </trkpt>
      <trkpt lat="56.602147975936532" lon="-6.101230988278985">
        <ele>151.53999999999999</ele>
        <time>2023-08-30T07:02:17Z</time>
      </trkpt>
      <trkpt lat="56.602017972618341" lon="-6.101232999935746">
        <ele>151.53999999999999</ele>
        <time>2023-08-30T07:02:18Z</time>
      </trkpt>
      <trkpt lat="56.601889980956912" lon="-6.101269964128733">
        <ele>151.06</ele>
        <time>2023-08-30T07:02:19Z</time>
      </trkpt>
      <trkpt lat="56.601765006780624" lon="-6.10130600631237">
        <ele>151.06</ele>
        <time>2023-08-30T07:02:20Z</time>
      </trkpt>
      <trkpt lat="56.6015400364995" lon="-6.101369960233569">
        <ele>151.06</ele>
        <time>2023-08-30T07:02:22Z</time>
      </trkpt>
      <trkpt lat="56.601448003202677" lon="-6.10145403072238">
        <ele>150.58000000000001</ele>
        <time>2023-08-30T07:02:23Z</time>
      </trkpt>
      <trkpt lat="56.601356975734234" lon="-6.101582022383809">
        <ele>149.62</ele>
        <time>2023-08-30T07:02:24Z</time>
      </trkpt>
      <trkpt lat="56.601257985457778" lon="-6.101722000166774">
        <ele>149.13999999999999</ele>
        <time>2023-08-30T07:02:25Z</time>
      </trkpt>
      <trkpt lat="56.601153966039419" lon="-6.101870024576783">
        <ele>148.66</ele>
        <time>2023-08-30T07:02:26Z</time>
      </trkpt>
      <trkpt lat="56.599798025563359" lon="-6.103640031069517">
        <ele>146.74000000000001</ele>
        <time>2023-08-30T07:02:38Z</time>
      </trkpt>
      <trkpt lat="56.599340038374066" lon="-6.10411997884512">
        <ele>146.25999999999999</ele>
        <time>2023-08-30T07:02:42Z</time>
      </trkpt>
      <trkpt lat="56.599256973713636" lon="-6.104271020740271">
        <ele>146.74000000000001</ele>
        <time>2023-08-30T07:02:43Z</time>
      </trkpt>
      <trkpt lat="56.599173992872238" lon="-6.104429019615054">
        <ele>147.22</ele>
        <time>2023-08-30T07:02:44Z</time>
      </trkpt>
      <trkpt lat="56.599093023687601" lon="-6.104587018489838">
        <ele>148.18000000000001</ele>
        <time>2023-08-30T07:02:45Z</time>
      </trkpt>
      <trkpt lat="56.599024962633848" lon="-6.104780975729227">
        <ele>148.66</ele>
        <time>2023-08-30T07:02:46Z</time>
      </trkpt>
      <trkpt lat="56.598954973742366" lon="-6.104983985424042">
        <ele>149.13999999999999</ele>
        <time>2023-08-30T07:02:47Z</time>
      </trkpt>
      <trkpt lat="56.598899988457561" lon="-6.105201998725534">
        <ele>149.62</ele>
        <time>2023-08-30T07:02:48Z</time>
      </trkpt>
      <trkpt lat="56.598859000951052" lon="-6.105415988713503">
        <ele>150.09999999999999</ele>
        <time>2023-08-30T07:02:49Z</time>
      </trkpt>
      <trkpt lat="56.598859000951052" lon="-6.105677001178265">
        <ele>150.58000000000001</ele>
        <time>2023-08-30T07:02:50Z</time>
      </trkpt>
      <trkpt lat="56.598864030092955" lon="-6.105919992551208">
        <ele>151.06</ele>
        <time>2023-08-30T07:02:51Z</time>
      </trkpt>
      <trkpt lat="56.598886996507645" lon="-6.106167007237673">
        <ele>151.53999999999999</ele>
        <time>2023-08-30T07:02:52Z</time>
      </trkpt>
      <trkpt lat="56.598909962922335" lon="-6.106418967247009">
        <ele>152.03</ele>
        <time>2023-08-30T07:02:53Z</time>
      </trkpt>
      <trkpt lat="56.599016999825835" lon="-6.107886973768473">
        <ele>155.87</ele>
        <time>2023-08-30T07:02:59Z</time>
      </trkpt>
      <trkpt lat="56.598993027582765" lon="-6.108104987069964">
        <ele>156.34999999999999</ele>
        <time>2023-08-30T07:03:00Z</time>
      </trkpt>
      <trkpt lat="56.598777025938034" lon="-6.110318982973695">
        <ele>159.24000000000001</ele>
        <time>2023-08-30T07:03:09Z</time>
      </trkpt>
      <trkpt lat="56.598485000431538" lon="-6.112600034102798">
        <ele>162.59999999999999</ele>
        <time>2023-08-30T07:03:18Z</time>
      </trkpt>
      <trkpt lat="56.598377963528037" lon="-6.113336971029639">
        <ele>163.08000000000001</ele>
        <time>2023-08-30T07:03:21Z</time>
      </trkpt>
      <trkpt lat="56.598327001556754" lon="-6.113563030958176">
        <ele>163.08000000000001</ele>
        <time>2023-08-30T07:03:22Z</time>
      </trkpt>
      <trkpt lat="56.598031036555767" lon="-6.114655025303364">
        <ele>163.08000000000001</ele>
        <time>2023-08-30T07:03:27Z</time>
      </trkpt>
      <trkpt lat="56.597958030179143" lon="-6.114921988919377">
        <ele>162.59999999999999</ele>
        <time>2023-08-30T07:03:28Z</time>
      </trkpt>
      <trkpt lat="56.597940009087324" lon="-6.115091973915696">
        <ele>162.12</ele>
        <time>2023-08-30T07:03:29Z</time>
      </trkpt>
      <trkpt lat="56.597799025475979" lon="-6.116326041519642">
        <ele>160.19999999999999</ele>
        <time>2023-08-30T07:03:34Z</time>
      </trkpt>
      <trkpt lat="56.59762904047966" lon="-6.117417030036449">
        <ele>160.19999999999999</ele>
        <time>2023-08-30T07:03:40Z</time>
      </trkpt>
      <trkpt lat="56.597626022994518" lon="-6.117453994229436">
        <ele>159.72</ele>
        <time>2023-08-30T07:03:48Z</time>
      </trkpt>
      <trkpt lat="56.597623005509377" lon="-6.117503028362989">
        <ele>160.19999999999999</ele>
        <time>2023-08-30T07:03:54Z</time>
      </trkpt>
      <trkpt lat="56.597617976367474" lon="-6.11756999976933">
        <ele>160.19999999999999</ele>
        <time>2023-08-30T07:03:55Z</time>
      </trkpt>
      <trkpt lat="56.597612025216222" lon="-6.117668990045786">
        <ele>160.19999999999999</ele>
        <time>2023-08-30T07:03:56Z</time>
      </trkpt>
      <trkpt lat="56.597530972212553" lon="-6.118853017687798">
        <ele>160.19999999999999</ele>
        <time>2023-08-30T07:04:03Z</time>
      </trkpt>
      <trkpt lat="56.597516974434257" lon="-6.11905200406909">
        <ele>160.19999999999999</ele>
        <time>2023-08-30T07:04:04Z</time>
      </trkpt>
      <trkpt lat="56.597491996362805" lon="-6.119243027642369">
        <ele>160.19999999999999</ele>
        <time>2023-08-30T07:04:05Z</time>
      </trkpt>
      <trkpt lat="56.597437011078" lon="-6.119431033730507">
        <ele>160.19999999999999</ele>
        <time>2023-08-30T07:04:06Z</time>
      </trkpt>
      <trkpt lat="56.597378002479672" lon="-6.119629014283419">
        <ele>160.68000000000001</ele>
        <time>2023-08-30T07:04:07Z</time>
      </trkpt>
      <trkpt lat="56.596873998641968" lon="-6.121174972504377">
        <ele>159.24000000000001</ele>
        <time>2023-08-30T07:04:15Z</time>
      </trkpt>
      <trkpt lat="56.596611980348825" lon="-6.121677970513701">
        <ele>157.78999999999999</ele>
        <time>2023-08-30T07:04:18Z</time>
      </trkpt>
      <trkpt lat="56.59627502784133" lon="-6.12218901515007">
        <ele>156.34999999999999</ele>
        <time>2023-08-30T07:04:22Z</time>
      </trkpt>
      <trkpt lat="56.596220964565873" lon="-6.122327987104654">
        <ele>156.34999999999999</ele>
        <time>2023-08-30T07:04:23Z</time>
      </trkpt>
      <trkpt lat="56.596156004816294" lon="-6.122495960444212">
        <ele>156.34999999999999</ele>
        <time>2023-08-30T07:04:24Z</time>
      </trkpt>
      <trkpt lat="56.596141001209617" lon="-6.122620012611151">
        <ele>156.34999999999999</ele>
        <time>2023-08-30T07:04:25Z</time>
      </trkpt>
      <trkpt lat="56.596119962632656" lon="-6.122801983729005">
        <ele>155.87</ele>
        <time>2023-08-30T07:04:26Z</time>
      </trkpt>
      <trkpt lat="56.596096996217966" lon="-6.122995018959045">
        <ele>155.38999999999999</ele>
        <time>2023-08-30T07:04:27Z</time>
      </trkpt>
      <trkpt lat="56.596070006489754" lon="-6.123226024210453">
        <ele>154.91</ele>
        <time>2023-08-30T07:04:28Z</time>
      </trkpt>
      <trkpt lat="56.596073023974895" lon="-6.123375976458192">
        <ele>154.43000000000001</ele>
        <time>2023-08-30T07:04:29Z</time>
      </trkpt>
      <trkpt lat="56.596076963469386" lon="-6.12356498837471">
        <ele>154.43000000000001</ele>
        <time>2023-08-30T07:04:30Z</time>
      </trkpt>
      <trkpt lat="56.596079980954528" lon="-6.123762968927622">
        <ele>153.94999999999999</ele>
        <time>2023-08-30T07:04:31Z</time>
      </trkpt>
      <trkpt lat="56.596088027581573" lon="-6.124150967225432">
        <ele>152.50999999999999</ele>
        <time>2023-08-30T07:04:33Z</time>
      </trkpt>
      <trkpt lat="56.596090961247683" lon="-6.124320030212402">
        <ele>151.53999999999999</ele>
        <time>2023-08-30T07:04:34Z</time>
      </trkpt>
      <trkpt lat="56.596024995669723" lon="-6.124486997723579">
        <ele>151.06</ele>
        <time>2023-08-30T07:04:35Z</time>
      </trkpt>
      <trkpt lat="56.595962969586253" lon="-6.124641979113221">
        <ele>150.58000000000001</ele>
        <time>2023-08-30T07:04:36Z</time>
      </trkpt>
      <trkpt lat="56.5958880353719" lon="-6.124777011573315">
        <ele>150.09999999999999</ele>
        <time>2023-08-30T07:04:37Z</time>
      </trkpt>
      <trkpt lat="56.595817962661386" lon="-6.124901985749602">
        <ele>150.09999999999999</ele>
        <time>2023-08-30T07:04:38Z</time>
      </trkpt>
      <trkpt lat="56.595750991255045" lon="-6.125023020431399">
        <ele>149.62</ele>
        <time>2023-08-30T07:04:39Z</time>
      </trkpt>
      <trkpt lat="56.595700029283762" lon="-6.125166015699506">
        <ele>149.62</ele>
        <time>2023-08-30T07:04:40Z</time>
      </trkpt>
      <trkpt lat="56.595644960179925" lon="-6.125322002917528">
        <ele>149.62</ele>
        <time>2023-08-30T07:04:41Z</time>
      </trkpt>
      <trkpt lat="56.595593998208642" lon="-6.125486958771944">
        <ele>149.62</ele>
        <time>2023-08-30T07:04:42Z</time>
      </trkpt>
      <trkpt lat="56.595572959631681" lon="-6.125671025365591">
        <ele>149.13999999999999</ele>
        <time>2023-08-30T07:04:43Z</time>
      </trkpt>
      <trkpt lat="56.595559967681766" lon="-6.125852996483445">
        <ele>149.62</ele>
        <time>2023-08-30T07:04:44Z</time>
      </trkpt>
      <trkpt lat="56.59558704122901" lon="-6.126032033935189">
        <ele>150.09999999999999</ele>
        <time>2023-08-30T07:04:45Z</time>
      </trkpt>
      <trkpt lat="56.595614030957222" lon="-6.126218028366566">
        <ele>150.58000000000001</ele>
        <time>2023-08-30T07:04:46Z</time>
      </trkpt>
      <trkpt lat="56.595643032342196" lon="-6.126407040283084">
        <ele>151.06</ele>
        <time>2023-08-30T07:04:47Z</time>
      </trkpt>
      <trkpt lat="56.595669016242027" lon="-6.126583982259035">
        <ele>151.53999999999999</ele>
        <time>2023-08-30T07:04:48Z</time>
      </trkpt>
      <trkpt lat="56.595667004585266" lon="-6.126740975305438">
        <ele>151.53999999999999</ele>
        <time>2023-08-30T07:04:49Z</time>
      </trkpt>
      <trkpt lat="56.595634985715151" lon="-6.126858992502093">
        <ele>152.03</ele>
        <time>2023-08-30T07:04:50Z</time>
      </trkpt>
      <trkpt lat="56.595606990158558" lon="-6.126957982778549">
        <ele>152.03</ele>
        <time>2023-08-30T07:04:51Z</time>
      </trkpt>
      <trkpt lat="56.595583017915487" lon="-6.12704498693347">
        <ele>152.03</ele>
        <time>2023-08-30T07:04:52Z</time>
      </trkpt>
      <trkpt lat="56.595564996823668" lon="-6.127110030502081">
        <ele>152.03</ele>
        <time>2023-08-30T07:04:53Z</time>
      </trkpt>
      <trkpt lat="56.595555022358894" lon="-6.127146994695067">
        <ele>152.50999999999999</ele>
        <time>2023-08-30T07:05:01Z</time>
      </trkpt>
      <trkpt lat="56.595555022358894" lon="-6.127146994695067">
        <ele>152.50999999999999</ele>
        <time>2023-08-30T07:05:43Z</time>
      </trkpt>
      <trkpt lat="56.59554798156023" lon="-6.127170966938138">
        <ele>152.50999999999999</ele>
        <time>2023-08-30T07:06:14Z</time>
      </trkpt>
      <trkpt lat="56.595441028475761" lon="-6.127759963274002">
        <ele>149.62</ele>
        <time>2023-08-30T07:06:20Z</time>
      </trkpt>
      <trkpt lat="56.595404986292124" lon="-6.12798904068768">
        <ele>148.66</ele>
        <time>2023-08-30T07:06:22Z</time>
      </trkpt>
      <trkpt lat="56.595341032370925" lon="-6.12811703234911">
        <ele>148.18000000000001</ele>
        <time>2023-08-30T07:06:23Z</time>
      </trkpt>
      <trkpt lat="56.595285963267088" lon="-6.12822700291872">
        <ele>148.18000000000001</ele>
        <time>2023-08-30T07:06:24Z</time>
      </trkpt>
      <trkpt lat="56.595225026831031" lon="-6.128339990973473">
        <ele>147.69999999999999</ele>
        <time>2023-08-30T07:06:25Z</time>
      </trkpt>
      <trkpt lat="56.595136011019349" lon="-6.128422971814871">
        <ele>147.22</ele>
        <time>2023-08-30T07:06:26Z</time>
      </trkpt>
      <trkpt lat="56.595040960237384" lon="-6.128510981798172">
        <ele>147.22</ele>
        <time>2023-08-30T07:06:27Z</time>
      </trkpt>
      <trkpt lat="56.59494498744607" lon="-6.128599997609854">
        <ele>146.74000000000001</ele>
        <time>2023-08-30T07:06:28Z</time>
      </trkpt>
      <trkpt lat="56.594853037968278" lon="-6.128684990108013">
        <ele>146.74000000000001</ele>
        <time>2023-08-30T07:06:29Z</time>
      </trkpt>
      <trkpt lat="56.594640975818038" lon="-6.128882970660925">
        <ele>145.78</ele>
        <time>2023-08-30T07:06:32Z</time>
      </trkpt>
      <trkpt lat="56.594617003574967" lon="-6.128967041149736">
        <ele>145.78</ele>
        <time>2023-08-30T07:06:33Z</time>
      </trkpt>
      <trkpt lat="56.594594959169626" lon="-6.129077011719346">
        <ele>145.30000000000001</ele>
        <time>2023-08-30T07:06:34Z</time>
      </trkpt>
      <trkpt lat="56.594569981098175" lon="-6.129200980067253">
        <ele>145.30000000000001</ele>
        <time>2023-08-30T07:06:35Z</time>
      </trkpt>
      <trkpt lat="56.594541985541582" lon="-6.12934104166925">
        <ele>144.81999999999999</ele>
        <time>2023-08-30T07:06:36Z</time>
      </trkpt>
      <trkpt lat="56.5944529697299" lon="-6.129972031340003">
        <ele>141.93000000000001</ele>
        <time>2023-08-30T07:06:40Z</time>
      </trkpt>
      <trkpt lat="56.594447018578649" lon="-6.130125001072884">
        <ele>140.97</ele>
        <time>2023-08-30T07:06:41Z</time>
      </trkpt>
      <trkpt lat="56.594418017193675" lon="-6.130413003265858">
        <ele>139.05000000000001</ele>
        <time>2023-08-30T07:06:43Z</time>
      </trkpt>
      <trkpt lat="56.594379963353276" lon="-6.130526997148991">
        <ele>137.61000000000001</ele>
        <time>2023-08-30T07:06:44Z</time>
      </trkpt>
      <trkpt lat="56.594327995553613" lon="-6.130576031282544">
        <ele>136.63999999999999</ele>
        <time>2023-08-30T07:06:45Z</time>
      </trkpt>
      <trkpt lat="56.594255995005369" lon="-6.130627999082208">
        <ele>135.19999999999999</ele>
        <time>2023-08-30T07:06:46Z</time>
      </trkpt>
      <trkpt lat="56.59417200833559" lon="-6.130688013508916">
        <ele>134.24000000000001</ele>
        <time>2023-08-30T07:06:47Z</time>
      </trkpt>
      <trkpt lat="56.594077963382006" lon="-6.130755990743637">
        <ele>133.28</ele>
        <time>2023-08-30T07:06:48Z</time>
      </trkpt>
      <trkpt lat="56.593704968690872" lon="-6.131023960188031">
        <ele>128.94999999999999</ele>
        <time>2023-08-30T07:06:52Z</time>
      </trkpt>
      <trkpt lat="56.593660963699222" lon="-6.131109958514571">
        <ele>128.47</ele>
        <time>2023-08-30T07:06:53Z</time>
      </trkpt>
      <trkpt lat="56.593627016991377" lon="-6.131205009296536">
        <ele>127.03</ele>
        <time>2023-08-30T07:06:54Z</time>
      </trkpt>
      <trkpt lat="56.593602038919926" lon="-6.131271980702877">
        <ele>126.55</ele>
        <time>2023-08-30T07:06:55Z</time>
      </trkpt>
      <trkpt lat="56.593615030869842" lon="-6.131440037861466">
        <ele>125.59</ele>
        <time>2023-08-30T07:06:56Z</time>
      </trkpt>
      <trkpt lat="56.593633973971009" lon="-6.131597030907869">
        <ele>124.63</ele>
        <time>2023-08-30T07:06:57Z</time>
      </trkpt>
      <trkpt lat="56.593674039468169" lon="-6.131775984540582">
        <ele>123.67</ele>
        <time>2023-08-30T07:06:58Z</time>
      </trkpt>
      <trkpt lat="56.594082992523909" lon="-6.133406013250351">
        <ele>115.5</ele>
        <time>2023-08-30T07:07:07Z</time>
      </trkpt>
      <trkpt lat="56.594147030264139" lon="-6.133508021011949">
        <ele>114.05</ele>
        <time>2023-08-30T07:07:08Z</time>
      </trkpt>
      <trkpt lat="56.594209978356957" lon="-6.133609022945166">
        <ele>113.09</ele>
        <time>2023-08-30T07:07:09Z</time>
      </trkpt>
      <trkpt lat="56.59427703358233" lon="-6.13368303515017">
        <ele>112.61</ele>
        <time>2023-08-30T07:07:10Z</time>
      </trkpt>
      <trkpt lat="56.594356996938586" lon="-6.133757969364524">
        <ele>111.65000000000001</ele>
        <time>2023-08-30T07:07:11Z</time>
      </trkpt>
      <trkpt lat="56.594529999420047" lon="-6.133923009037972">
        <ele>109.73</ele>
        <time>2023-08-30T07:07:13Z</time>
      </trkpt>
      <trkpt lat="56.59462102688849" lon="-6.134009007364512">
        <ele>108.77</ele>
        <time>2023-08-30T07:07:14Z</time>
      </trkpt>
      <trkpt lat="56.594704007729888" lon="-6.134167006239295">
        <ele>107.81</ele>
        <time>2023-08-30T07:07:15Z</time>
      </trkpt>
      <trkpt lat="56.594767039641738" lon="-6.134321987628937">
        <ele>106.84</ele>
        <time>2023-08-30T07:07:16Z</time>
      </trkpt>
      <trkpt lat="56.594827976077795" lon="-6.134475963190198">
        <ele>105.88</ele>
        <time>2023-08-30T07:07:17Z</time>
      </trkpt>
      <trkpt lat="56.59496502019465" lon="-6.134762959554792">
        <ele>103.48</ele>
        <time>2023-08-30T07:07:19Z</time>
      </trkpt>
      <trkpt lat="56.595045989379287" lon="-6.134882988408208">
        <ele>102.52</ele>
        <time>2023-08-30T07:07:20Z</time>
      </trkpt>
      <trkpt lat="56.595361987128854" lon="-6.135349022224546">
        <ele>99.150000000000006</ele>
        <time>2023-08-30T07:07:24Z</time>
      </trkpt>
      <trkpt lat="56.595413032919168" lon="-6.135527975857258">
        <ele>98.189999999999998</ele>
        <time>2023-08-30T07:07:25Z</time>
      </trkpt>
      <trkpt lat="56.595447985455394" lon="-6.135650016367436">
        <ele>97.230000000000004</ele>
        <time>2023-08-30T07:07:26Z</time>
      </trkpt>
      <trkpt lat="56.595434993505478" lon="-6.135835004970431">
        <ele>96.75</ele>
        <time>2023-08-30T07:07:27Z</time>
      </trkpt>
      <trkpt lat="56.595424013212323" lon="-6.13600498996675">
        <ele>95.790000000000006</ele>
        <time>2023-08-30T07:07:28Z</time>
      </trkpt>
      <trkpt lat="56.595412027090788" lon="-6.136187966912985">
        <ele>95.310000000000002</ele>
        <time>2023-08-30T07:07:29Z</time>
      </trkpt>
      <trkpt lat="56.59524598158896" lon="-6.138685019686818">
        <ele>86.659999999999997</ele>
        <time>2023-08-30T07:07:40Z</time>
      </trkpt>
      <trkpt lat="56.595103992149234" lon="-6.140822991728783">
        <ele>80.890000000000001</ele>
        <time>2023-08-30T07:07:50Z</time>
      </trkpt>
      <trkpt lat="56.595060992985964" lon="-6.141499998047948">
        <ele>78.969999999999999</ele>
        <time>2023-08-30T07:07:54Z</time>
      </trkpt>
      <trkpt lat="56.595060992985964" lon="-6.141688004136086">
        <ele>78.480000000000004</ele>
        <time>2023-08-30T07:07:55Z</time>
      </trkpt>
      <trkpt lat="56.595164006575942" lon="-6.143616009503603">
        <ele>69.829999999999998</ele>
        <time>2023-08-30T07:08:03Z</time>
      </trkpt>
      <trkpt lat="56.595212034881115" lon="-6.144395023584366">
        <ele>66.469999999999999</ele>
        <time>2023-08-30T07:08:06Z</time>
      </trkpt>
      <trkpt lat="56.595212034881115" lon="-6.144637009128928">
        <ele>65.510000000000005</ele>
        <time>2023-08-30T07:08:07Z</time>
      </trkpt>
      <trkpt lat="56.595133999362588" lon="-6.145723974332213">
        <ele>63.100000000000001</ele>
        <time>2023-08-30T07:08:12Z</time>
      </trkpt>
      <trkpt lat="56.595141962170601" lon="-6.145879961550236">
        <ele>62.619999999999997</ele>
        <time>2023-08-30T07:08:13Z</time>
      </trkpt>
      <trkpt lat="56.595174986869097" lon="-6.146046007052064">
        <ele>62.140000000000001</ele>
        <time>2023-08-30T07:08:14Z</time>
      </trkpt>
      <trkpt lat="56.595208011567593" lon="-6.14621096290648">
        <ele>62.140000000000001</ele>
        <time>2023-08-30T07:08:15Z</time>
      </trkpt>
      <trkpt lat="56.595241958275437" lon="-6.146382037550211">
        <ele>62.140000000000001</ele>
        <time>2023-08-30T07:08:16Z</time>
      </trkpt>
      <trkpt lat="56.595462989062071" lon="-6.147485012188554">
        <ele>62.619999999999997</ele>
        <time>2023-08-30T07:08:21Z</time>
      </trkpt>
      <trkpt lat="56.595531972125173" lon="-6.147715011611581">
        <ele>63.100000000000001</ele>
        <time>2023-08-30T07:08:22Z</time>
      </trkpt>
      <trkpt lat="56.596031030640006" lon="-6.149527011439204">
        <ele>70.310000000000002</ele>
        <time>2023-08-30T07:08:30Z</time>
      </trkpt>
      <trkpt lat="56.5960399992764" lon="-6.149733038619161">
        <ele>71.269999999999996</ele>
        <time>2023-08-30T07:08:31Z</time>
      </trkpt>
      <trkpt lat="56.596048967912793" lon="-6.149944011121988">
        <ele>71.760000000000005</ele>
        <time>2023-08-30T07:08:32Z</time>
      </trkpt>
      <trkpt lat="56.596085010096431" lon="-6.150775998830795">
        <ele>73.680000000000007</ele>
        <time>2023-08-30T07:08:36Z</time>
      </trkpt>
      <trkpt lat="56.596090961247683" lon="-6.150927962735295">
        <ele>73.680000000000007</ele>
        <time>2023-08-30T07:08:37Z</time>
      </trkpt>
      <trkpt lat="56.596026001498103" lon="-6.151090990751982">
        <ele>74.159999999999997</ele>
        <time>2023-08-30T07:08:38Z</time>
      </trkpt>
      <trkpt lat="56.595980990678072" lon="-6.151203978806734">
        <ele>74.640000000000001</ele>
        <time>2023-08-30T07:08:39Z</time>
      </trkpt>
      <trkpt lat="56.59591200761497" lon="-6.151286037638784">
        <ele>74.640000000000001</ele>
        <time>2023-08-30T07:08:40Z</time>
      </trkpt>
      <trkpt lat="56.595830032601953" lon="-6.151344040408731">
        <ele>75.120000000000005</ele>
        <time>2023-08-30T07:08:41Z</time>
      </trkpt>
      <trkpt lat="56.595728024840355" lon="-6.151363989338279">
        <ele>75.120000000000005</ele>
        <time>2023-08-30T07:08:42Z</time>
      </trkpt>
      <trkpt lat="56.595619982108474" lon="-6.151373041793704">
        <ele>75.120000000000005</ele>
        <time>2023-08-30T07:08:43Z</time>
      </trkpt>
      <trkpt lat="56.594733009114861" lon="-6.151503967121244">
        <ele>72.719999999999999</ele>
        <time>2023-08-30T07:08:50Z</time>
      </trkpt>
      <trkpt lat="56.594632007181644" lon="-6.151571022346616">
        <ele>71.760000000000005</ele>
        <time>2023-08-30T07:08:51Z</time>
      </trkpt>
      <trkpt lat="56.59455799497664" lon="-6.151703959330916">
        <ele>71.269999999999996</ele>
        <time>2023-08-30T07:08:52Z</time>
      </trkpt>
      <trkpt lat="56.594498986378312" lon="-6.151847960427404">
        <ele>71.269999999999996</ele>
        <time>2023-08-30T07:08:53Z</time>
      </trkpt>
      <trkpt lat="56.594438971951604" lon="-6.152043007314205">
        <ele>71.269999999999996</ele>
        <time>2023-08-30T07:08:54Z</time>
      </trkpt>
      <trkpt lat="56.594413993880153" lon="-6.152202012017369">
        <ele>70.790000000000006</ele>
        <time>2023-08-30T07:08:55Z</time>
      </trkpt>
      <trkpt lat="56.594383986666799" lon="-6.152395969256759">
        <ele>71.269999999999996</ele>
        <time>2023-08-30T07:08:56Z</time>
      </trkpt>
      <trkpt lat="56.59432397224009" lon="-6.152772987261415">
        <ele>71.269999999999996</ele>
        <time>2023-08-30T07:08:58Z</time>
      </trkpt>
      <trkpt lat="56.594251971691847" lon="-6.152932997792959">
        <ele>71.269999999999996</ele>
        <time>2023-08-30T07:08:59Z</time>
      </trkpt>
      <trkpt lat="56.59417100250721" lon="-6.153036011382937">
        <ele>71.760000000000005</ele>
        <time>2023-08-30T07:09:00Z</time>
      </trkpt>
      <trkpt lat="56.594087015837431" lon="-6.153141958639026">
        <ele>72.239999999999995</ele>
        <time>2023-08-30T07:09:01Z</time>
      </trkpt>
      <trkpt lat="56.593989031389356" lon="-6.153267016634345">
        <ele>72.719999999999999</ele>
        <time>2023-08-30T07:09:02Z</time>
      </trkpt>
      <trkpt lat="56.593891968950629" lon="-6.153333988040686">
        <ele>73.200000000000003</ele>
        <time>2023-08-30T07:09:03Z</time>
      </trkpt>
      <trkpt lat="56.593543030321598" lon="-6.153576979413629">
        <ele>74.640000000000001</ele>
        <time>2023-08-30T07:09:06Z</time>
      </trkpt>
      <trkpt lat="56.593415960669518" lon="-6.153606986626983">
        <ele>75.120000000000005</ele>
        <time>2023-08-30T07:09:07Z</time>
      </trkpt>
      <trkpt lat="56.593288974836469" lon="-6.153603969141841">
        <ele>75.599999999999994</ele>
        <time>2023-08-30T07:09:08Z</time>
      </trkpt>
      <trkpt lat="56.592716993764043" lon="-6.153633976355195">
        <ele>75.120000000000005</ele>
        <time>2023-08-30T07:09:13Z</time>
      </trkpt>
      <trkpt lat="56.59262403845787" lon="-6.153680998831987">
        <ele>75.599999999999994</ele>
        <time>2023-08-30T07:09:14Z</time>
      </trkpt>
      <trkpt lat="56.592552959918976" lon="-6.153777977451682">
        <ele>75.599999999999994</ele>
        <time>2023-08-30T07:09:15Z</time>
      </trkpt>
      <trkpt lat="56.592493029311299" lon="-6.153898006305099">
        <ele>76.079999999999998</ele>
        <time>2023-08-30T07:09:16Z</time>
      </trkpt>
      <trkpt lat="56.592454975470901" lon="-6.154025997966528">
        <ele>76.560000000000002</ele>
        <time>2023-08-30T07:09:17Z</time>
      </trkpt>
      <trkpt lat="56.592433014884591" lon="-6.154177961871028">
        <ele>76.560000000000002</ele>
        <time>2023-08-30T07:09:18Z</time>
      </trkpt>
      <trkpt lat="56.59243100322783" lon="-6.154335960745812">
        <ele>77.040000000000006</ele>
        <time>2023-08-30T07:09:19Z</time>
      </trkpt>
      <trkpt lat="56.592449024319649" lon="-6.154508963227272">
        <ele>77.040000000000006</ele>
        <time>2023-08-30T07:09:20Z</time>
      </trkpt>
      <trkpt lat="56.592475008219481" lon="-6.15469696931541">
        <ele>77.519999999999996</ele>
        <time>2023-08-30T07:09:21Z</time>
      </trkpt>
      <trkpt lat="56.592524964362383" lon="-6.154884975403547">
        <ele>78</ele>
        <time>2023-08-30T07:09:22Z</time>
      </trkpt>
      <trkpt lat="56.592686986550689" lon="-6.155430972576141">
        <ele>78</ele>
        <time>2023-08-30T07:09:25Z</time>
      </trkpt>
      <trkpt lat="56.592896031215787" lon="-6.155952997505665">
        <ele>78.969999999999999</ele>
        <time>2023-08-30T07:09:29Z</time>
      </trkpt>
      <trkpt lat="56.592920003458858" lon="-6.156105967238545">
        <ele>79.450000000000003</ele>
        <time>2023-08-30T07:09:30Z</time>
      </trkpt>
      <trkpt lat="56.592900976538658" lon="-6.156165981665254">
        <ele>79.930000000000007</ele>
        <time>2023-08-30T07:09:31Z</time>
      </trkpt>
      <trkpt lat="56.592831993475556" lon="-6.1562430113554">
        <ele>80.409999999999997</ele>
        <time>2023-08-30T07:09:32Z</time>
      </trkpt>
      <trkpt lat="56.592771979048848" lon="-6.156233958899975">
        <ele>80.890000000000001</ele>
        <time>2023-08-30T07:09:33Z</time>
      </trkpt>
      <trkpt lat="56.592693021520972" lon="-6.15622197277844">
        <ele>81.370000000000005</ele>
        <time>2023-08-30T07:09:34Z</time>
      </trkpt>
      <trkpt lat="56.592252971604466" lon="-6.156117031350732">
        <ele>84.730000000000004</ele>
        <time>2023-08-30T07:09:38Z</time>
      </trkpt>
      <trkpt lat="56.592139983549714" lon="-6.156032960861921">
        <ele>85.209999999999994</ele>
        <time>2023-08-30T07:09:39Z</time>
      </trkpt>
      <trkpt lat="56.591287041082978" lon="-6.155457040295005">
        <ele>90.019999999999996</ele>
        <time>2023-08-30T07:09:46Z</time>
      </trkpt>
      <trkpt lat="56.590847996994853" lon="-6.155006010085344">
        <ele>93.390000000000001</ele>
        <time>2023-08-30T07:09:50Z</time>
      </trkpt>
      <trkpt lat="56.590037969872355" lon="-6.154222972691059">
        <ele>97.709999999999994</ele>
        <time>2023-08-30T07:09:57Z</time>
      </trkpt>
      <trkpt lat="56.589628010988235" lon="-6.153899012133479">
        <ele>99.629999999999995</ele>
        <time>2023-08-30T07:10:01Z</time>
      </trkpt>
      <trkpt lat="56.589534971863031" lon="-6.153898006305099">
        <ele>100.11</ele>
        <time>2023-08-30T07:10:02Z</time>
      </trkpt>
      <trkpt lat="56.589454002678394" lon="-6.153907980769873">
        <ele>100.59999999999999</ele>
        <time>2023-08-30T07:10:03Z</time>
      </trkpt>
      <trkpt lat="56.589391976594925" lon="-6.153949974104762">
        <ele>101.56</ele>
        <time>2023-08-30T07:10:04Z</time>
      </trkpt>
      <trkpt lat="56.589340008795261" lon="-6.153992973268032">
        <ele>102.04000000000001</ele>
        <time>2023-08-30T07:10:05Z</time>
      </trkpt>
      <trkpt lat="56.589306984096766" lon="-6.154064973816276">
        <ele>102.52</ele>
        <time>2023-08-30T07:10:06Z</time>
      </trkpt>
      <trkpt lat="56.589297009631991" lon="-6.154171004891396">
        <ele>103.48</ele>
        <time>2023-08-30T07:10:07Z</time>
      </trkpt>
      <trkpt lat="56.589329028502107" lon="-6.154329003766179">
        <ele>103.95999999999999</ele>
        <time>2023-08-30T07:10:08Z</time>
      </trkpt>
      <trkpt lat="56.589395999908447" lon="-6.154456995427609">
        <ele>103.95999999999999</ele>
        <time>2023-08-30T07:10:09Z</time>
      </trkpt>
      <trkpt lat="56.589480992406607" lon="-6.154620023444295">
        <ele>104.44</ele>
        <time>2023-08-30T07:10:10Z</time>
      </trkpt>
      <trkpt lat="56.590147018432617" lon="-6.155750993639231">
        <ele>110.69</ele>
        <time>2023-08-30T07:10:18Z</time>
      </trkpt>
      <trkpt lat="56.590187000110745" lon="-6.155854007229209">
        <ele>111.17</ele>
        <time>2023-08-30T07:10:19Z</time>
      </trkpt>
      <trkpt lat="56.590165039524436" lon="-6.155978981405497">
        <ele>112.61</ele>
        <time>2023-08-30T07:10:20Z</time>
      </trkpt>
      <trkpt lat="56.590148024260998" lon="-6.156056011095643">
        <ele>113.56999999999999</ele>
        <time>2023-08-30T07:10:21Z</time>
      </trkpt>
      <trkpt lat="56.590117011219263" lon="-6.156047964468598">
        <ele>114.53</ele>
        <time>2023-08-30T07:10:22Z</time>
      </trkpt>
      <trkpt lat="56.590056996792555" lon="-6.156030027195811">
        <ele>115.98</ele>
        <time>2023-08-30T07:10:23Z</time>
      </trkpt>
      <trkpt lat="56.589969992637634" lon="-6.156004965305328">
        <ele>116.94</ele>
        <time>2023-08-30T07:10:24Z</time>
      </trkpt>
      <trkpt lat="56.589871002361178" lon="-6.155976969748735">
        <ele>118.38</ele>
        <time>2023-08-30T07:10:25Z</time>
      </trkpt>
      <trkpt lat="56.589778969064355" lon="-6.155950985848904">
        <ele>119.34</ele>
        <time>2023-08-30T07:10:26Z</time>
      </trkpt>
      <trkpt lat="56.589696994051337" lon="-6.155927013605833">
        <ele>120.3</ele>
        <time>2023-08-30T07:10:27Z</time>
      </trkpt>
      <trkpt lat="56.58961895853281" lon="-6.155952997505665">
        <ele>121.26000000000001</ele>
        <time>2023-08-30T07:10:28Z</time>
      </trkpt>
      <trkpt lat="56.589567996561527" lon="-6.155970012769103">
        <ele>121.73999999999999</ele>
        <time>2023-08-30T07:10:29Z</time>
      </trkpt>
      <trkpt lat="56.589520974084735" lon="-6.156055005267263">
        <ele>122.70999999999999</ele>
        <time>2023-08-30T07:10:30Z</time>
      </trkpt>
      <trkpt lat="56.58948602154851" lon="-6.156118959188461">
        <ele>123.67</ele>
        <time>2023-08-30T07:10:31Z</time>
      </trkpt>
      <trkpt lat="56.589463977143168" lon="-6.156190959736705">
        <ele>124.15000000000001</ele>
        <time>2023-08-30T07:10:32Z</time>
      </trkpt>
      <trkpt lat="56.589474035426974" lon="-6.156301014125347">
        <ele>125.11</ele>
        <time>2023-08-30T07:10:33Z</time>
      </trkpt>
      <trkpt lat="56.589495996013284" lon="-6.156425988301635">
        <ele>125.59</ele>
        <time>2023-08-30T07:10:34Z</time>
      </trkpt>
      <trkpt lat="56.58955299295485" lon="-6.156540988013148">
        <ele>126.06999999999999</ele>
        <time>2023-08-30T07:10:35Z</time>
      </trkpt>
      <trkpt lat="56.589623987674713" lon="-6.156681971624494">
        <ele>127.03</ele>
        <time>2023-08-30T07:10:36Z</time>
      </trkpt>
      <trkpt lat="56.589697999879718" lon="-6.156831001862884">
        <ele>127.98999999999999</ele>
        <time>2023-08-30T07:10:37Z</time>
      </trkpt>
      <trkpt lat="56.589782992377877" lon="-6.156999981030822">
        <ele>128.94999999999999</ele>
        <time>2023-08-30T07:10:38Z</time>
      </trkpt>
      <trkpt lat="56.589822974056005" lon="-6.157179018482566">
        <ele>129.91999999999999</ele>
        <time>2023-08-30T07:10:39Z</time>
      </trkpt>
      <trkpt lat="56.590340975672007" lon="-6.1590819619596">
        <ele>137.61000000000001</ele>
        <time>2023-08-30T07:10:49Z</time>
      </trkpt>
      <trkpt lat="56.590483970940113" lon="-6.159341968595982">
        <ele>138.56999999999999</ele>
        <time>2023-08-30T07:10:51Z</time>
      </trkpt>
      <trkpt lat="56.590577010065317" lon="-6.159511031582952">
        <ele>139.05000000000001</ele>
        <time>2023-08-30T07:10:52Z</time>
      </trkpt>
      <trkpt lat="56.591066010296345" lon="-6.160056022927165">
        <ele>141.93000000000001</ele>
        <time>2023-08-30T07:10:58Z</time>
      </trkpt>
      <trkpt lat="56.591119989752769" lon="-6.160116037353873">
        <ele>142.41</ele>
        <time>2023-08-30T07:10:59Z</time>
      </trkpt>
      <trkpt lat="56.591134993359447" lon="-6.160220978781581">
        <ele>142.88999999999999</ele>
        <time>2023-08-30T07:11:00Z</time>
      </trkpt>
      <trkpt lat="56.591123007237911" lon="-6.160286022350192">
        <ele>143.84999999999999</ele>
        <time>2023-08-30T07:11:01Z</time>
      </trkpt>
      <trkpt lat="56.591097023338079" lon="-6.160336984321475">
        <ele>144.34</ele>
        <time>2023-08-30T07:11:02Z</time>
      </trkpt>
      <trkpt lat="56.591058969497681" lon="-6.160350982099772">
        <ele>145.30000000000001</ele>
        <time>2023-08-30T07:11:03Z</time>
      </trkpt>
      <trkpt lat="56.590993003919721" lon="-6.160358022898436">
        <ele>146.25999999999999</ele>
        <time>2023-08-30T07:11:04Z</time>
      </trkpt>
      <trkpt lat="56.590907005593181" lon="-6.160366991534829">
        <ele>146.74000000000001</ele>
        <time>2023-08-30T07:11:05Z</time>
      </trkpt>
      <trkpt lat="56.590607017278671" lon="-6.160442009568214">
        <ele>149.13999999999999</ele>
        <time>2023-08-30T07:11:08Z</time>
      </trkpt>
      <trkpt lat="56.590509032830596" lon="-6.160506969317794">
        <ele>149.62</ele>
        <time>2023-08-30T07:11:09Z</time>
      </trkpt>
      <trkpt lat="56.590426973998547" lon="-6.160640995949507">
        <ele>150.09999999999999</ele>
        <time>2023-08-30T07:11:10Z</time>
      </trkpt>
      <trkpt lat="56.590356985107064" lon="-6.16077502258122">
        <ele>151.06</ele>
        <time>2023-08-30T07:11:11Z</time>
      </trkpt>
      <trkpt lat="56.590276015922427" lon="-6.16092698648572">
        <ele>151.53999999999999</ele>
        <time>2023-08-30T07:11:12Z</time>
      </trkpt>
      <trkpt lat="56.590256989002228" lon="-6.16103301756084">
        <ele>152.03</ele>
        <time>2023-08-30T07:11:13Z</time>
      </trkpt>
      <trkpt lat="56.590237962082028" lon="-6.161194033920765">
        <ele>152.50999999999999</ele>
        <time>2023-08-30T07:11:14Z</time>
      </trkpt>
      <trkpt lat="56.590259000658989" lon="-6.161350021138787">
        <ele>152.50999999999999</ele>
        <time>2023-08-30T07:11:15Z</time>
      </trkpt>
      <trkpt lat="56.59028297290206" lon="-6.161521011963487">
        <ele>152.50999999999999</ele>
        <time>2023-08-30T07:11:16Z</time>
      </trkpt>
      <trkpt lat="56.590654961764812" lon="-6.163293030112982">
        <ele>151.06</ele>
        <time>2023-08-30T07:11:24Z</time>
      </trkpt>
      <trkpt lat="56.59084196202457" lon="-6.164131974801421">
        <ele>152.03</ele>
        <time>2023-08-30T07:11:29Z</time>
      </trkpt>
      <trkpt lat="56.590853026136756" lon="-6.164227025583386">
        <ele>152.50999999999999</ele>
        <time>2023-08-30T07:11:30Z</time>
      </trkpt>
      <trkpt lat="56.590839028358459" lon="-6.164314029738307">
        <ele>152.99000000000001</ele>
        <time>2023-08-30T07:11:31Z</time>
      </trkpt>
      <trkpt lat="56.590804997831583" lon="-6.164360968396068">
        <ele>152.99000000000001</ele>
        <time>2023-08-30T07:11:32Z</time>
      </trkpt>
      <trkpt lat="56.590753030031919" lon="-6.164400028064847">
        <ele>153.47</ele>
        <time>2023-08-30T07:11:33Z</time>
      </trkpt>
      <trkpt lat="56.590701984241605" lon="-6.16438795812428">
        <ele>153.94999999999999</ele>
        <time>2023-08-30T07:11:34Z</time>
      </trkpt>
      <trkpt lat="56.590637024492025" lon="-6.164365997537971">
        <ele>154.43000000000001</ele>
        <time>2023-08-30T07:11:35Z</time>
      </trkpt>
      <trkpt lat="56.59056200645864" lon="-6.164335990324616">
        <ele>154.91</ele>
        <time>2023-08-30T07:11:36Z</time>
      </trkpt>
      <trkpt lat="56.590483970940113" lon="-6.164303971454501">
        <ele>155.87</ele>
        <time>2023-08-30T07:11:37Z</time>
      </trkpt>
      <trkpt lat="56.590408030897379" lon="-6.164272036403418">
        <ele>156.34999999999999</ele>
        <time>2023-08-30T07:11:38Z</time>
      </trkpt>
      <trkpt lat="56.590335024520755" lon="-6.164250997826457">
        <ele>156.83000000000001</ele>
        <time>2023-08-30T07:11:39Z</time>
      </trkpt>
      <trkpt lat="56.590263023972511" lon="-6.164244962856174">
        <ele>157.31</ele>
        <time>2023-08-30T07:11:40Z</time>
      </trkpt>
      <trkpt lat="56.59019697457552" lon="-6.164240017533302">
        <ele>157.78999999999999</ele>
        <time>2023-08-30T07:11:41Z</time>
      </trkpt>
      <trkpt lat="56.590133020654321" lon="-6.164234988391399">
        <ele>157.78999999999999</ele>
        <time>2023-08-30T07:11:42Z</time>
      </trkpt>
      <trkpt lat="56.590069988742471" lon="-6.164229959249497">
        <ele>157.78999999999999</ele>
        <time>2023-08-30T07:11:43Z</time>
      </trkpt>
      <trkpt lat="56.589812999591231" lon="-6.1642159614712">
        <ele>158.27000000000001</ele>
        <time>2023-08-30T07:11:47Z</time>
      </trkpt>
      <trkpt lat="56.589748039841652" lon="-6.164248986169696">
        <ele>158.27000000000001</ele>
        <time>2023-08-30T07:11:48Z</time>
      </trkpt>
      <trkpt lat="56.589678972959518" lon="-6.164283016696572">
        <ele>157.78999999999999</ele>
        <time>2023-08-30T07:11:49Z</time>
      </trkpt>
      <trkpt lat="56.5896160248667" lon="-6.164356023073196">
        <ele>157.78999999999999</ele>
        <time>2023-08-30T07:11:50Z</time>
      </trkpt>
      <trkpt lat="56.589560033753514" lon="-6.164443027228117">
        <ele>157.31</ele>
        <time>2023-08-30T07:11:51Z</time>
      </trkpt>
      <trkpt lat="56.589498007670045" lon="-6.164568001404405">
        <ele>156.34999999999999</ele>
        <time>2023-08-30T07:11:52Z</time>
      </trkpt>
      <trkpt lat="56.589475963264704" lon="-6.164702028036118">
        <ele>155.38999999999999</ele>
        <time>2023-08-30T07:11:53Z</time>
      </trkpt>
      <trkpt lat="56.589462971314788" lon="-6.164854997768998">
        <ele>154.43000000000001</ele>
        <time>2023-08-30T07:11:54Z</time>
      </trkpt>
      <trkpt lat="56.589468000456691" lon="-6.164994975551963">
        <ele>153.47</ele>
        <time>2023-08-30T07:11:55Z</time>
      </trkpt>
      <trkpt lat="56.589473029598594" lon="-6.165135959163308">
        <ele>152.50999999999999</ele>
        <time>2023-08-30T07:11:56Z</time>
      </trkpt>
      <trkpt lat="56.589477974921465" lon="-6.165279960259795">
        <ele>151.53999999999999</ele>
        <time>2023-08-30T07:11:57Z</time>
      </trkpt>
      <trkpt lat="56.589481998234987" lon="-6.165411975234747">
        <ele>150.09999999999999</ele>
        <time>2023-08-30T07:11:58Z</time>
      </trkpt>
      <trkpt lat="56.589427012950182" lon="-6.16550400853157">
        <ele>149.13999999999999</ele>
        <time>2023-08-30T07:11:59Z</time>
      </trkpt>
      <trkpt lat="56.589354006573558" lon="-6.165625965222716">
        <ele>148.18000000000001</ele>
        <time>2023-08-30T07:12:00Z</time>
      </trkpt>
      <trkpt lat="56.589303966611624" lon="-6.165651027113199">
        <ele>147.69999999999999</ele>
        <time>2023-08-30T07:12:01Z</time>
      </trkpt>
      <trkpt lat="56.589226014912128" lon="-6.165690002962947">
        <ele>147.22</ele>
        <time>2023-08-30T07:12:02Z</time>
      </trkpt>
      <trkpt lat="56.58914496190846" lon="-6.165729984641075">
        <ele>146.25999999999999</ele>
        <time>2023-08-30T07:12:03Z</time>
      </trkpt>
      <trkpt lat="56.589053012430668" lon="-6.165776001289487">
        <ele>145.78</ele>
        <time>2023-08-30T07:12:04Z</time>
      </trkpt>
      <trkpt lat="56.588969025760889" lon="-6.165869040414691">
        <ele>144.81999999999999</ele>
        <time>2023-08-30T07:12:05Z</time>
      </trkpt>
      <trkpt lat="56.588876992464066" lon="-6.165969958528876">
        <ele>144.34</ele>
        <time>2023-08-30T07:12:06Z</time>
      </trkpt>
      <trkpt lat="56.588789988309145" lon="-6.166089987382293">
        <ele>143.37</ele>
        <time>2023-08-30T07:12:07Z</time>
      </trkpt>
      <trkpt lat="56.588567029684782" lon="-6.166455019265413">
        <ele>140.97</ele>
        <time>2023-08-30T07:12:10Z</time>
      </trkpt>
      <trkpt lat="56.588519001379609" lon="-6.166574964299798">
        <ele>140.49000000000001</ele>
        <time>2023-08-30T07:12:11Z</time>
      </trkpt>
      <trkpt lat="56.588497962802649" lon="-6.166686024516821">
        <ele>140.00999999999999</ele>
        <time>2023-08-30T07:12:12Z</time>
      </trkpt>
      <trkpt lat="56.588503997772932" lon="-6.166830025613308">
        <ele>139.53</ele>
        <time>2023-08-30T07:12:13Z</time>
      </trkpt>
      <trkpt lat="56.588510032743216" lon="-6.166968997567892">
        <ele>139.05000000000001</ele>
        <time>2023-08-30T07:12:14Z</time>
      </trkpt>
      <trkpt lat="56.588514978066087" lon="-6.167088020592928">
        <ele>138.09</ele>
        <time>2023-08-30T07:12:15Z</time>
      </trkpt>
      <trkpt lat="56.588545991107821" lon="-6.167163038626313">
        <ele>138.09</ele>
        <time>2023-08-30T07:12:16Z</time>
      </trkpt>
      <trkpt lat="56.588602988049388" lon="-6.167231015861034">
        <ele>137.13</ele>
        <time>2023-08-30T07:12:17Z</time>
      </trkpt>
      <trkpt lat="56.588669959455729" lon="-6.167310979217291">
        <ele>136.63999999999999</ele>
        <time>2023-08-30T07:12:18Z</time>
      </trkpt>
      <trkpt lat="56.588744977489114" lon="-6.167399995028973">
        <ele>136.16</ele>
        <time>2023-08-30T07:12:19Z</time>
      </trkpt>
      <trkpt lat="56.588898031041026" lon="-6.167580960318446">
        <ele>134.72</ele>
        <time>2023-08-30T07:12:21Z</time>
      </trkpt>
      <trkpt lat="56.588967014104128" lon="-6.167664024978876">
        <ele>133.75999999999999</ele>
        <time>2023-08-30T07:12:22Z</time>
      </trkpt>
      <trkpt lat="56.589000038802624" lon="-6.167784975841641">
        <ele>132.80000000000001</ele>
        <time>2023-08-30T07:12:23Z</time>
      </trkpt>
      <trkpt lat="56.589027028530836" lon="-6.167882038280368">
        <ele>132.31999999999999</ele>
        <time>2023-08-30T07:12:24Z</time>
      </trkpt>
      <trkpt lat="56.589004984125495" lon="-6.167968036606908">
        <ele>131.84</ele>
        <time>2023-08-30T07:12:25Z</time>
      </trkpt>
      <trkpt lat="56.588968019932508" lon="-6.168000977486372">
        <ele>130.88</ele>
        <time>2023-08-30T07:12:26Z</time>
      </trkpt>
      <trkpt lat="56.5889080055058" lon="-6.167981028556824">
        <ele>130.40000000000001</ele>
        <time>2023-08-30T07:12:27Z</time>
      </trkpt>
      <trkpt lat="56.588834999129176" lon="-6.167956972494721">
        <ele>129.43000000000001</ele>
        <time>2023-08-30T07:12:28Z</time>
      </trkpt>
      <trkpt lat="56.588747994974256" lon="-6.167927971109748">
        <ele>128.47</ele>
        <time>2023-08-30T07:12:29Z</time>
      </trkpt>
      <trkpt lat="56.588647998869419" lon="-6.167942974716425">
        <ele>127.51000000000001</ele>
        <time>2023-08-30T07:12:30Z</time>
      </trkpt>
      <trkpt lat="56.588559988886118" lon="-6.167965019121766">
        <ele>126.55</ele>
        <time>2023-08-30T07:12:31Z</time>
      </trkpt>
      <trkpt lat="56.588484970852733" lon="-6.168082030490041">
        <ele>125.59</ele>
        <time>2023-08-30T07:12:32Z</time>
      </trkpt>
      <trkpt lat="56.588419005274773" lon="-6.168186971917749">
        <ele>125.11</ele>
        <time>2023-08-30T07:12:33Z</time>
      </trkpt>
      <trkpt lat="56.588393021374941" lon="-6.168328961357474">
        <ele>124.15000000000001</ele>
        <time>2023-08-30T07:12:34Z</time>
      </trkpt>
      <trkpt lat="56.588372988626361" lon="-6.16849098354578">
        <ele>123.67</ele>
        <time>2023-08-30T07:12:35Z</time>
      </trkpt>
      <trkpt lat="56.588351028040051" lon="-6.16865904070437">
        <ele>123.67</ele>
        <time>2023-08-30T07:12:36Z</time>
      </trkpt>
      <trkpt lat="56.58832898363471" lon="-6.168836988508701">
        <ele>123.67</ele>
        <time>2023-08-30T07:12:37Z</time>
      </trkpt>
      <trkpt lat="56.588261006399989" lon="-6.169410981237888">
        <ele>121.73999999999999</ele>
        <time>2023-08-30T07:12:40Z</time>
      </trkpt>
      <trkpt lat="56.588272992521524" lon="-6.169593036174774">
        <ele>120.78</ele>
        <time>2023-08-30T07:12:41Z</time>
      </trkpt>
      <trkpt lat="56.588287996128201" lon="-6.169765032827854">
        <ele>120.78</ele>
        <time>2023-08-30T07:12:42Z</time>
      </trkpt>
      <trkpt lat="56.588316997513175" lon="-6.169926971197128">
        <ele>120.78</ele>
        <time>2023-08-30T07:12:43Z</time>
      </trkpt>
      <trkpt lat="56.588345998898149" lon="-6.170089999213815">
        <ele>120.78</ele>
        <time>2023-08-30T07:12:44Z</time>
      </trkpt>
      <trkpt lat="56.58839100971818" lon="-6.170407002791762">
        <ele>121.26000000000001</ele>
        <time>2023-08-30T07:12:46Z</time>
      </trkpt>
      <trkpt lat="56.588396960869431" lon="-6.170562990009785">
        <ele>121.26000000000001</ele>
        <time>2023-08-30T07:12:47Z</time>
      </trkpt>
      <trkpt lat="56.588402995839715" lon="-6.170707996934652">
        <ele>121.26000000000001</ele>
        <time>2023-08-30T07:12:48Z</time>
      </trkpt>
      <trkpt lat="56.588408024981618" lon="-6.170841017737985">
        <ele>120.78</ele>
        <time>2023-08-30T07:12:49Z</time>
      </trkpt>
      <trkpt lat="56.588367037475109" lon="-6.170974960550666">
        <ele>120.78</ele>
        <time>2023-08-30T07:12:50Z</time>
      </trkpt>
      <trkpt lat="56.588319009169936" lon="-6.171080991625786">
        <ele>120.78</ele>
        <time>2023-08-30T07:12:51Z</time>
      </trkpt>
      <trkpt lat="56.588261006399989" lon="-6.171177970245481">
        <ele>120.78</ele>
        <time>2023-08-30T07:12:52Z</time>
      </trkpt>
      <trkpt lat="56.588194034993649" lon="-6.171231027692556">
        <ele>120.78</ele>
        <time>2023-08-30T07:12:53Z</time>
      </trkpt>
      <trkpt lat="56.588131003081799" lon="-6.17123999632895">
        <ele>120.3</ele>
        <time>2023-08-30T07:12:54Z</time>
      </trkpt>
      <trkpt lat="56.588073000311852" lon="-6.171230021864176">
        <ele>120.3</ele>
        <time>2023-08-30T07:12:55Z</time>
      </trkpt>
      <trkpt lat="56.588021032512188" lon="-6.17121996358037">
        <ele>120.3</ele>
        <time>2023-08-30T07:12:56Z</time>
      </trkpt>
      <trkpt lat="56.587978033348918" lon="-6.171212000772357">
        <ele>119.81999999999999</ele>
        <time>2023-08-30T07:12:57Z</time>
      </trkpt>
      <trkpt lat="56.587892035022378" lon="-6.171195991337299">
        <ele>118.86</ele>
        <time>2023-08-30T07:13:05Z</time>
      </trkpt>
      <trkpt lat="56.587892035022378" lon="-6.171195991337299">
        <ele>118.86</ele>
        <time>2023-08-30T07:13:35Z</time>
      </trkpt>
      <trkpt lat="56.587864039465785" lon="-6.171190962195396">
        <ele>117.42</ele>
        <time>2023-08-30T07:13:43Z</time>
      </trkpt>
      <trkpt lat="56.587763959541917" lon="-6.171172019094229">
        <ele>117.42</ele>
        <time>2023-08-30T07:13:44Z</time>
      </trkpt>
      <trkpt lat="56.587044959887862" lon="-6.171038998290896">
        <ele>112.61</ele>
        <time>2023-08-30T07:13:52Z</time>
      </trkpt>
      <trkpt lat="56.58658898435533" lon="-6.170989964157343">
        <ele>107.81</ele>
        <time>2023-08-30T07:13:58Z</time>
      </trkpt>
      <trkpt lat="56.586572974920273" lon="-6.171016031876206">
        <ele>106.84</ele>
        <time>2023-08-30T07:13:59Z</time>
      </trkpt>
      <trkpt lat="56.586549002677202" lon="-6.171063976362348">
        <ele>105.88</ele>
        <time>2023-08-30T07:14:00Z</time>
      </trkpt>
      <trkpt lat="56.586542967706919" lon="-6.171075962483883">
        <ele>105.40000000000001</ele>
        <time>2023-08-30T07:14:01Z</time>
      </trkpt>
      <trkpt lat="56.586556965485215" lon="-6.171108987182379">
        <ele>104.44</ele>
        <time>2023-08-30T07:14:02Z</time>
      </trkpt>
      <trkpt lat="56.586584961041808" lon="-6.171171013265848">
        <ele>103.48</ele>
        <time>2023-08-30T07:14:03Z</time>
      </trkpt>
      <trkpt lat="56.586628966033459" lon="-6.171268997713924">
        <ele>103</ele>
        <time>2023-08-30T07:14:04Z</time>
      </trkpt>
      <trkpt lat="56.586684035137296" lon="-6.171301016584039">
        <ele>102.04000000000001</ele>
        <time>2023-08-30T07:14:05Z</time>
      </trkpt>
      <trkpt lat="56.586750000715256" lon="-6.171338986605406">
        <ele>101.56</ele>
        <time>2023-08-30T07:14:06Z</time>
      </trkpt>
      <trkpt lat="56.587163982912898" lon="-6.171633023768663">
        <ele>98.670000000000002</ele>
        <time>2023-08-30T07:14:12Z</time>
      </trkpt>
      <trkpt lat="56.587231960147619" lon="-6.171719022095203">
        <ele>97.709999999999994</ele>
        <time>2023-08-30T07:14:13Z</time>
      </trkpt>
      <trkpt lat="56.587870996445417" lon="-6.172780003398657">
        <ele>90.980000000000004</ele>
        <time>2023-08-30T07:14:22Z</time>
      </trkpt>
      <trkpt lat="56.588086998090148" lon="-6.173142017796636">
        <ele>87.140000000000001</ele>
        <time>2023-08-30T07:14:26Z</time>
      </trkpt>
      <trkpt lat="56.588115999475121" lon="-6.173254000023007">
        <ele>86.659999999999997</ele>
        <time>2023-08-30T07:14:27Z</time>
      </trkpt>
      <trkpt lat="56.588126979768276" lon="-6.173378974199295">
        <ele>85.689999999999998</ele>
        <time>2023-08-30T07:14:28Z</time>
      </trkpt>
      <trkpt lat="56.588117005303502" lon="-6.173518029972911">
        <ele>84.730000000000004</ele>
        <time>2023-08-30T07:14:29Z</time>
      </trkpt>
      <trkpt lat="56.588096972554922" lon="-6.173674017190933">
        <ele>83.769999999999996</ele>
        <time>2023-08-30T07:14:30Z</time>
      </trkpt>
      <trkpt lat="56.588076017796993" lon="-6.17384098470211">
        <ele>82.810000000000002</ele>
        <time>2023-08-30T07:14:31Z</time>
      </trkpt>
      <trkpt lat="56.587964035570621" lon="-6.174707002937794">
        <ele>75.599999999999994</ele>
        <time>2023-08-30T07:14:36Z</time>
      </trkpt>
      <trkpt lat="56.587970992550254" lon="-6.17487003095448">
        <ele>74.640000000000001</ele>
        <time>2023-08-30T07:14:37Z</time>
      </trkpt>
      <trkpt lat="56.587987001985312" lon="-6.175028029829264">
        <ele>73.200000000000003</ele>
        <time>2023-08-30T07:14:38Z</time>
      </trkpt>
      <trkpt lat="56.588055985048413" lon="-6.175714004784823">
        <ele>68.390000000000001</ele>
        <time>2023-08-30T07:14:43Z</time>
      </trkpt>
      <trkpt lat="56.588065959513187" lon="-6.175811989232898">
        <ele>67.909999999999997</ele>
        <time>2023-08-30T07:14:44Z</time>
      </trkpt>
      <trkpt lat="56.588024972006679" lon="-6.17590100504458">
        <ele>67.430000000000007</ele>
        <time>2023-08-30T07:14:45Z</time>
      </trkpt>
      <trkpt lat="56.58798499032855" lon="-6.175979962572455">
        <ele>66.469999999999999</ele>
        <time>2023-08-30T07:14:46Z</time>
      </trkpt>
      <trkpt lat="56.587926987558603" lon="-6.176007958129048">
        <ele>65.989999999999995</ele>
        <time>2023-08-30T07:14:47Z</time>
      </trkpt>
      <trkpt lat="56.587859010323882" lon="-6.17603100836277">
        <ele>65.510000000000005</ele>
        <time>2023-08-30T07:14:48Z</time>
      </trkpt>
      <trkpt lat="56.587794972583652" lon="-6.176083981990814">
        <ele>65.030000000000001</ele>
        <time>2023-08-30T07:14:49Z</time>
      </trkpt>
      <trkpt lat="56.587737975642085" lon="-6.176135027781129">
        <ele>64.069999999999993</ele>
        <time>2023-08-30T07:14:50Z</time>
      </trkpt>
      <trkpt lat="56.587686007842422" lon="-6.17618196643889">
        <ele>63.579999999999998</ele>
        <time>2023-08-30T07:14:51Z</time>
      </trkpt>
      <trkpt lat="56.587636973708868" lon="-6.176250027492642">
        <ele>63.100000000000001</ele>
        <time>2023-08-30T07:14:52Z</time>
      </trkpt>
      <trkpt lat="56.587636973708868" lon="-6.176365027204156">
        <ele>62.619999999999997</ele>
        <time>2023-08-30T07:14:53Z</time>
      </trkpt>
      <trkpt lat="56.587636973708868" lon="-6.176480026915669">
        <ele>61.659999999999997</ele>
        <time>2023-08-30T07:14:54Z</time>
      </trkpt>
      <trkpt lat="56.587644014507532" lon="-6.176583962514997">
        <ele>61.18</ele>
        <time>2023-08-30T07:14:55Z</time>
      </trkpt>
      <trkpt lat="56.587688019499183" lon="-6.17667599581182">
        <ele>60.700000000000003</ele>
        <time>2023-08-30T07:14:56Z</time>
      </trkpt>
      <trkpt lat="56.587732024490833" lon="-6.176770962774754">
        <ele>60.219999999999999</ele>
        <time>2023-08-30T07:14:57Z</time>
      </trkpt>
      <trkpt lat="56.587780974805355" lon="-6.176872970536351">
        <ele>59.740000000000002</ele>
        <time>2023-08-30T07:14:58Z</time>
      </trkpt>
      <trkpt lat="56.58783202059567" lon="-6.176983024924994">
        <ele>59.740000000000002</ele>
        <time>2023-08-30T07:14:59Z</time>
      </trkpt>
      <trkpt lat="56.587886000052094" lon="-6.177097018808126">
        <ele>59.259999999999998</ele>
        <time>2023-08-30T07:15:00Z</time>
      </trkpt>
      <trkpt lat="56.588428979739547" lon="-6.178248021751642">
        <ele>56.369999999999997</ele>
        <time>2023-08-30T07:15:08Z</time>
      </trkpt>
      <trkpt lat="56.588548002764583" lon="-6.17852495983243">
        <ele>55.409999999999997</ele>
        <time>2023-08-30T07:15:10Z</time>
      </trkpt>
      <trkpt lat="56.588581027463078" lon="-6.178670972585678">
        <ele>54.93</ele>
        <time>2023-08-30T07:15:11Z</time>
      </trkpt>
      <trkpt lat="56.588574992492795" lon="-6.178834000602365">
        <ele>54.450000000000003</ele>
        <time>2023-08-30T07:15:12Z</time>
      </trkpt>
      <trkpt lat="56.588562000542879" lon="-6.17914698086679">
        <ele>52.530000000000001</ele>
        <time>2023-08-30T07:15:14Z</time>
      </trkpt>
      <trkpt lat="56.588577004149556" lon="-6.179301040247083">
        <ele>52.049999999999997</ele>
        <time>2023-08-30T07:15:15Z</time>
      </trkpt>
      <trkpt lat="56.588613968342543" lon="-6.179459961131215">
        <ele>51.090000000000003</ele>
        <time>2023-08-30T07:15:16Z</time>
      </trkpt>
      <trkpt lat="56.588677000254393" lon="-6.179546965286136">
        <ele>50.130000000000003</ele>
        <time>2023-08-30T07:15:17Z</time>
      </trkpt>
      <trkpt lat="56.588741960003972" lon="-6.179637992754579">
        <ele>49.649999999999999</ele>
        <time>2023-08-30T07:15:18Z</time>
      </trkpt>
      <trkpt lat="56.588809015229344" lon="-6.179731031879783">
        <ele>49.159999999999997</ele>
        <time>2023-08-30T07:15:19Z</time>
      </trkpt>
      <trkpt lat="56.588875986635685" lon="-6.179824993014336">
        <ele>48.68</ele>
        <time>2023-08-30T07:15:20Z</time>
      </trkpt>
      <trkpt lat="56.588945975527167" lon="-6.17992197163403">
        <ele>48.68</ele>
        <time>2023-08-30T07:15:21Z</time>
      </trkpt>
      <trkpt lat="56.58901596441865" lon="-6.180049041286111">
        <ele>48.68</ele>
        <time>2023-08-30T07:15:22Z</time>
      </trkpt>
      <trkpt lat="56.589588029310107" lon="-6.181469019502401">
        <ele>46.280000000000001</ele>
        <time>2023-08-30T07:15:31Z</time>
      </trkpt>
      <trkpt lat="56.589605966582894" lon="-6.181579995900393">
        <ele>45.799999999999997</ele>
        <time>2023-08-30T07:15:32Z</time>
      </trkpt>
      <trkpt lat="56.58959599211812" lon="-6.181699018925428">
        <ele>45.32</ele>
        <time>2023-08-30T07:15:33Z</time>
      </trkpt>
      <trkpt lat="56.589580988511443" lon="-6.181777976453304">
        <ele>44.359999999999999</ele>
        <time>2023-08-30T07:15:34Z</time>
      </trkpt>
      <trkpt lat="56.589536983519793" lon="-6.181861963123083">
        <ele>43.399999999999999</ele>
        <time>2023-08-30T07:15:35Z</time>
      </trkpt>
      <trkpt lat="56.58948702737689" lon="-6.181957013905048">
        <ele>42.439999999999998</ele>
        <time>2023-08-30T07:15:36Z</time>
      </trkpt>
      <trkpt lat="56.589433969929814" lon="-6.182056004181504">
        <ele>41.469999999999999</ele>
        <time>2023-08-30T07:15:37Z</time>
      </trkpt>
      <trkpt lat="56.589397005736828" lon="-6.182126998901367">
        <ele>40.509999999999998</ele>
        <time>2023-08-30T07:15:38Z</time>
      </trkpt>
      <trkpt lat="56.589388037100434" lon="-6.182268988341093">
        <ele>39.549999999999997</ele>
        <time>2023-08-30T07:15:39Z</time>
      </trkpt>
      <trkpt lat="56.58938099630177" lon="-6.182370996102691">
        <ele>39.07</ele>
        <time>2023-08-30T07:15:40Z</time>
      </trkpt>
      <trkpt lat="56.589385019615293" lon="-6.182504016906023">
        <ele>38.109999999999999</ele>
        <time>2023-08-30T07:15:41Z</time>
      </trkpt>
      <trkpt lat="56.589419972151518" lon="-6.18262697942555">
        <ele>37.630000000000003</ele>
        <time>2023-08-30T07:15:42Z</time>
      </trkpt>
      <trkpt lat="56.589459031820297" lon="-6.182764023542404">
        <ele>36.670000000000002</ele>
        <time>2023-08-30T07:15:43Z</time>
      </trkpt>
      <trkpt lat="56.589512005448341" lon="-6.182899978011847">
        <ele>36.189999999999998</ele>
        <time>2023-08-30T07:15:44Z</time>
      </trkpt>
      <trkpt lat="56.589562967419624" lon="-6.183029981330037">
        <ele>35.710000000000001</ele>
        <time>2023-08-30T07:15:45Z</time>
      </trkpt>
      <trkpt lat="56.589610995724797" lon="-6.183152021840215">
        <ele>34.740000000000002</ele>
        <time>2023-08-30T07:15:46Z</time>
      </trkpt>
      <trkpt lat="56.58965801820159" lon="-6.183270961046219">
        <ele>34.259999999999998</ele>
        <time>2023-08-30T07:15:47Z</time>
      </trkpt>
      <trkpt lat="56.589697999879718" lon="-6.1833790037781">
        <ele>33.299999999999997</ele>
        <time>2023-08-30T07:15:48Z</time>
      </trkpt>
      <trkpt lat="56.589718032628298" lon="-6.183514958247542">
        <ele>32.340000000000003</ele>
        <time>2023-08-30T07:15:49Z</time>
      </trkpt>
      <trkpt lat="56.589736975729465" lon="-6.183649990707636">
        <ele>31.379999999999999</ele>
        <time>2023-08-30T07:15:50Z</time>
      </trkpt>
      <trkpt lat="56.589728007093072" lon="-6.183788040652871">
        <ele>30.420000000000002</ele>
        <time>2023-08-30T07:15:51Z</time>
      </trkpt>
      <trkpt lat="56.589714009314775" lon="-6.183935981243849">
        <ele>29.940000000000001</ele>
        <time>2023-08-30T07:15:52Z</time>
      </trkpt>
      <trkpt lat="56.589697999879718" lon="-6.184090962633491">
        <ele>28.98</ele>
        <time>2023-08-30T07:15:53Z</time>
      </trkpt>
      <trkpt lat="56.589647959917784" lon="-6.184208979830146">
        <ele>28.5</ele>
        <time>2023-08-30T07:15:54Z</time>
      </trkpt>
      <trkpt lat="56.58959599211812" lon="-6.184322973713279">
        <ele>28.02</ele>
        <time>2023-08-30T07:15:55Z</time>
      </trkpt>
      <trkpt lat="56.589545030146837" lon="-6.184436967596412">
        <ele>27.050000000000001</ele>
        <time>2023-08-30T07:15:56Z</time>
      </trkpt>
      <trkpt lat="56.589481998234987" lon="-6.184573005884886">
        <ele>26.57</ele>
        <time>2023-08-30T07:15:57Z</time>
      </trkpt>
      <trkpt lat="56.589428018778563" lon="-6.184644000604749">
        <ele>25.609999999999999</ele>
        <time>2023-08-30T07:15:58Z</time>
      </trkpt>
      <trkpt lat="56.589170023798943" lon="-6.184954969212413">
        <ele>22.73</ele>
        <time>2023-08-30T07:16:02Z</time>
      </trkpt>
      <trkpt lat="56.58910296857357" lon="-6.184987993910909">
        <ele>22.25</ele>
        <time>2023-08-30T07:16:03Z</time>
      </trkpt>
      <trkpt lat="56.589034991338849" lon="-6.185022024437785">
        <ele>21.289999999999999</ele>
        <time>2023-08-30T07:16:04Z</time>
      </trkpt>
      <trkpt lat="56.588959973305464" lon="-6.185024036094546">
        <ele>20.32</ele>
        <time>2023-08-30T07:16:05Z</time>
      </trkpt>
      <trkpt lat="56.58888797275722" lon="-6.185024036094546">
        <ele>19.84</ele>
        <time>2023-08-30T07:16:06Z</time>
      </trkpt>
      <trkpt lat="56.588816978037357" lon="-6.185024036094546">
        <ele>18.879999999999999</ele>
        <time>2023-08-30T07:16:07Z</time>
      </trkpt>
      <trkpt lat="56.588630983605981" lon="-6.185082960873842">
        <ele>17.440000000000001</ele>
        <time>2023-08-30T07:16:10Z</time>
      </trkpt>
      <trkpt lat="56.588577004149556" lon="-6.185106011107564">
        <ele>16.960000000000001</ele>
        <time>2023-08-30T07:16:11Z</time>
      </trkpt>
      <trkpt lat="56.588512966409326" lon="-6.185138029977679">
        <ele>16</ele>
        <time>2023-08-30T07:16:12Z</time>
      </trkpt>
      <trkpt lat="56.588463010266423" lon="-6.185231991112232">
        <ele>15.52</ele>
        <time>2023-08-30T07:16:13Z</time>
      </trkpt>
      <trkpt lat="56.588401990011334" lon="-6.185346990823746">
        <ele>14.56</ele>
        <time>2023-08-30T07:16:14Z</time>
      </trkpt>
      <trkpt lat="56.587958000600338" lon="-6.186175961047411">
        <ele>10.710000000000001</ele>
        <time>2023-08-30T07:16:21Z</time>
      </trkpt>
      <trkpt lat="56.587910978123546" lon="-6.186264976859093">
        <ele>10.710000000000001</ele>
        <time>2023-08-30T07:16:22Z</time>
      </trkpt>
      <trkpt lat="56.587851969525218" lon="-6.186376037076116">
        <ele>10.23</ele>
        <time>2023-08-30T07:16:23Z</time>
      </trkpt>
      <trkpt lat="56.587781980633736" lon="-6.186438985168934">
        <ele>9.75</ele>
        <time>2023-08-30T07:16:24Z</time>
      </trkpt>
      <trkpt lat="56.587700005620718" lon="-6.186514003202319">
        <ele>8.789999999999999</ele>
        <time>2023-08-30T07:16:25Z</time>
      </trkpt>
      <trkpt lat="56.586962984874845" lon="-6.187062012031674">
        <ele>7.83</ele>
        <time>2023-08-30T07:16:34Z</time>
      </trkpt>
      <trkpt lat="56.58673801459372" lon="-6.187194027006626">
        <ele>7.83</ele>
        <time>2023-08-30T07:16:37Z</time>
      </trkpt>
      <trkpt lat="56.586658973246813" lon="-6.187229985371232">
        <ele>7.35</ele>
        <time>2023-08-30T07:16:38Z</time>
      </trkpt>
      <trkpt lat="56.586576998233795" lon="-6.18720299564302">
        <ele>7.35</ele>
        <time>2023-08-30T07:16:39Z</time>
      </trkpt>
      <trkpt lat="56.586494017392397" lon="-6.187175000086427">
        <ele>7.83</ele>
        <time>2023-08-30T07:16:40Z</time>
      </trkpt>
      <trkpt lat="56.586411036550999" lon="-6.187147004529834">
        <ele>7.83</ele>
        <time>2023-08-30T07:16:41Z</time>
      </trkpt>
      <trkpt lat="56.58635001629591" lon="-6.187126971781254">
        <ele>8.310000000000001</ele>
        <time>2023-08-30T07:16:42Z</time>
      </trkpt>
      <trkpt lat="56.586280027404428" lon="-6.187007026746869">
        <ele>8.310000000000001</ele>
        <time>2023-08-30T07:16:43Z</time>
      </trkpt>
      <trkpt lat="56.58622202463448" lon="-6.186908036470413">
        <ele>8.789999999999999</ele>
        <time>2023-08-30T07:16:44Z</time>
      </trkpt>
      <trkpt lat="56.58617801964283" lon="-6.18679597042501">
        <ele>8.789999999999999</ele>
        <time>2023-08-30T07:16:45Z</time>
      </trkpt>
      <trkpt lat="56.586140971630812" lon="-6.18666797876358">
        <ele>8.789999999999999</ele>
        <time>2023-08-30T07:16:46Z</time>
      </trkpt>
      <trkpt lat="56.586101995781064" lon="-6.186536969617009">
        <ele>9.27</ele>
        <time>2023-08-30T07:16:47Z</time>
      </trkpt>
      <trkpt lat="56.585950031876564" lon="-6.186017040163279">
        <ele>9.75</ele>
        <time>2023-08-30T07:16:51Z</time>
      </trkpt>
      <trkpt lat="56.585918013006449" lon="-6.185977980494499">
        <ele>9.75</ele>
        <time>2023-08-30T07:16:52Z</time>
      </trkpt>
      <trkpt lat="56.585854981094599" lon="-6.185947973281145">
        <ele>9.75</ele>
        <time>2023-08-30T07:16:53Z</time>
      </trkpt>
      <trkpt lat="56.5857910271734" lon="-6.18591696023941">
        <ele>10.23</ele>
        <time>2023-08-30T07:16:54Z</time>
      </trkpt>
      <trkpt lat="56.585721038281918" lon="-6.185884019359946">
        <ele>10.23</ele>
        <time>2023-08-30T07:16:55Z</time>
      </trkpt>
      <trkpt lat="56.585644008591771" lon="-6.185846971347928">
        <ele>10.23</ele>
        <time>2023-08-30T07:16:56Z</time>
      </trkpt>
      <trkpt lat="56.585500007495284" lon="-6.185777988284826">
        <ele>10.23</ele>
        <time>2023-08-30T07:16:58Z</time>
      </trkpt>
      <trkpt lat="56.585445022210479" lon="-6.185756027698517">
        <ele>10.23</ele>
        <time>2023-08-30T07:16:59Z</time>
      </trkpt>
      <trkpt lat="56.585387019440532" lon="-6.185801960527897">
        <ele>9.75</ele>
        <time>2023-08-30T07:17:00Z</time>
      </trkpt>
      <trkpt lat="56.585333039984107" lon="-6.185857029631734">
        <ele>9.75</ele>
        <time>2023-08-30T07:17:01Z</time>
      </trkpt>
      <trkpt lat="56.585285011678934" lon="-6.18595601990819">
        <ele>9.27</ele>
        <time>2023-08-30T07:17:02Z</time>
      </trkpt>
      <trkpt lat="56.585230026394129" lon="-6.186072025448084">
        <ele>9.27</ele>
        <time>2023-08-30T07:17:03Z</time>
      </trkpt>
      <trkpt lat="56.585170011967421" lon="-6.186195993795991">
        <ele>8.789999999999999</ele>
        <time>2023-08-30T07:17:04Z</time>
      </trkpt>
      <trkpt lat="56.585107985883951" lon="-6.186324991285801">
        <ele>8.310000000000001</ele>
        <time>2023-08-30T07:17:05Z</time>
      </trkpt>
      <trkpt lat="56.585035985335708" lon="-6.186431022360921">
        <ele>8.310000000000001</ele>
        <time>2023-08-30T07:17:06Z</time>
      </trkpt>
      <trkpt lat="56.584960967302322" lon="-6.186519032344222">
        <ele>8.310000000000001</ele>
        <time>2023-08-30T07:17:07Z</time>
      </trkpt>
      <trkpt lat="56.584873963147402" lon="-6.186572005972266">
        <ele>8.310000000000001</ele>
        <time>2023-08-30T07:17:08Z</time>
      </trkpt>
      <trkpt lat="56.584786036983132" lon="-6.186621962115169">
        <ele>8.310000000000001</ele>
        <time>2023-08-30T07:17:09Z</time>
      </trkpt>
      <trkpt lat="56.583983972668648" lon="-6.187125965952873">
        <ele>7.35</ele>
        <time>2023-08-30T07:17:17Z</time>
      </trkpt>
      <trkpt lat="56.583914989605546" lon="-6.187210036441684">
        <ele>7.35</ele>
        <time>2023-08-30T07:17:18Z</time>
      </trkpt>
      <trkpt lat="56.58349396660924" lon="-6.187652014195919">
        <ele>6.87</ele>
        <time>2023-08-30T07:17:24Z</time>
      </trkpt>
      <trkpt lat="56.583419032394886" lon="-6.187664000317454">
        <ele>6.39</ele>
        <time>2023-08-30T07:17:25Z</time>
      </trkpt>
      <trkpt lat="56.583335967734456" lon="-6.18767699226737">
        <ele>6.39</ele>
        <time>2023-08-30T07:17:26Z</time>
      </trkpt>
      <trkpt lat="56.583250975236297" lon="-6.187690990045667">
        <ele>6.39</ele>
        <time>2023-08-30T07:17:27Z</time>
      </trkpt>
      <trkpt lat="56.583169000223279" lon="-6.187703981995583">
        <ele>6.39</ele>
        <time>2023-08-30T07:17:28Z</time>
      </trkpt>
      <trkpt lat="56.583091970533133" lon="-6.187716973945499">
        <ele>6.39</ele>
        <time>2023-08-30T07:17:29Z</time>
      </trkpt>
      <trkpt lat="56.583027010783553" lon="-6.187727032229304">
        <ele>6.39</ele>
        <time>2023-08-30T07:17:30Z</time>
      </trkpt>
      <trkpt lat="56.582972025498748" lon="-6.187751004472375">
        <ele>6.39</ele>
        <time>2023-08-30T07:17:31Z</time>
      </trkpt>
      <trkpt lat="56.582856019958854" lon="-6.187803978100419">
        <ele>6.39</ele>
        <time>2023-08-30T07:17:33Z</time>
      </trkpt>
      <trkpt lat="56.582470033317804" lon="-6.187936998903751">
        <ele>5.91</ele>
        <time>2023-08-30T07:17:38Z</time>
      </trkpt>
      <trkpt lat="56.582278003916144" lon="-6.187926018610597">
        <ele>5.42</ele>
        <time>2023-08-30T07:17:40Z</time>
      </trkpt>
      <trkpt lat="56.581762013956904" lon="-6.187931969761848">
        <ele>5.42</ele>
        <time>2023-08-30T07:17:45Z</time>
      </trkpt>
      <trkpt lat="56.58166796900332" lon="-6.187985027208924">
        <ele>4.94</ele>
        <time>2023-08-30T07:17:46Z</time>
      </trkpt>
      <trkpt lat="56.581594040617347" lon="-6.188057027757168">
        <ele>4.94</ele>
        <time>2023-08-30T07:17:47Z</time>
      </trkpt>
      <trkpt lat="56.581525979563594" lon="-6.188156018033624">
        <ele>4.94</ele>
        <time>2023-08-30T07:17:48Z</time>
      </trkpt>
      <trkpt lat="56.581458002328873" lon="-6.188252996653318">
        <ele>4.94</ele>
        <time>2023-08-30T07:17:49Z</time>
      </trkpt>
      <trkpt lat="56.581408968195319" lon="-6.188365984708071">
        <ele>4.94</ele>
        <time>2023-08-30T07:17:50Z</time>
      </trkpt>
      <trkpt lat="56.581364963203669" lon="-6.188496993854642">
        <ele>4.94</ele>
        <time>2023-08-30T07:17:51Z</time>
      </trkpt>
      <trkpt lat="56.581049971282482" lon="-6.189632993191481">
        <ele>7.83</ele>
        <time>2023-08-30T07:17:59Z</time>
      </trkpt>
      <trkpt lat="56.581024993211031" lon="-6.189793003723025">
        <ele>8.310000000000001</ele>
        <time>2023-08-30T07:18:00Z</time>
      </trkpt>
      <trkpt lat="56.581018036231399" lon="-6.189973969012499">
        <ele>8.789999999999999</ele>
        <time>2023-08-30T07:18:01Z</time>
      </trkpt>
      <trkpt lat="56.581008983775973" lon="-6.190173961222172">
        <ele>8.789999999999999</ele>
        <time>2023-08-30T07:18:02Z</time>
      </trkpt>
      <trkpt lat="56.581027004867792" lon="-6.190402032807469">
        <ele>9.27</ele>
        <time>2023-08-30T07:18:03Z</time>
      </trkpt>
      <trkpt lat="56.581064974889159" lon="-6.190638989210129">
        <ele>10.23</ele>
        <time>2023-08-30T07:18:04Z</time>
      </trkpt>
      <trkpt lat="56.581125995144248" lon="-6.190869994461536">
        <ele>10.710000000000001</ele>
        <time>2023-08-30T07:18:05Z</time>
      </trkpt>
      <trkpt lat="56.581192966550589" lon="-6.191124971956015">
        <ele>11.67</ele>
        <time>2023-08-30T07:18:06Z</time>
      </trkpt>
      <trkpt lat="56.581719014793634" lon="-6.192886009812355">
        <ele>18.399999999999999</ele>
        <time>2023-08-30T07:18:14Z</time>
      </trkpt>
      <trkpt lat="56.581806018948555" lon="-6.193059012293816">
        <ele>18.879999999999999</ele>
        <time>2023-08-30T07:18:15Z</time>
      </trkpt>
      <trkpt lat="56.582041969522834" lon="-6.193533008918166">
        <ele>20.809999999999999</ele>
        <time>2023-08-30T07:18:18Z</time>
      </trkpt>
      <trkpt lat="56.58209796063602" lon="-6.19371498003602">
        <ele>20.809999999999999</ele>
        <time>2023-08-30T07:18:19Z</time>
      </trkpt>
      <trkpt lat="56.582143977284431" lon="-6.19388597086072">
        <ele>20.809999999999999</ele>
        <time>2023-08-30T07:18:20Z</time>
      </trkpt>
      <trkpt lat="56.58216199837625" lon="-6.19410096667707">
        <ele>20.32</ele>
        <time>2023-08-30T07:18:21Z</time>
      </trkpt>
      <trkpt lat="56.582179013639688" lon="-6.194312022998929">
        <ele>20.32</ele>
        <time>2023-08-30T07:18:22Z</time>
      </trkpt>
      <trkpt lat="56.582198040559888" lon="-6.19452903047204">
        <ele>19.84</ele>
        <time>2023-08-30T07:18:23Z</time>
      </trkpt>
      <trkpt lat="56.582215977832675" lon="-6.194751989096403">
        <ele>19.84</ele>
        <time>2023-08-30T07:18:24Z</time>
      </trkpt>
      <trkpt lat="56.582235004752874" lon="-6.194974025711417">
        <ele>19.84</ele>
        <time>2023-08-30T07:18:25Z</time>
      </trkpt>
      <trkpt lat="56.582269035279751" lon="-6.195380967110395">
        <ele>20.32</ele>
        <time>2023-08-30T07:18:27Z</time>
      </trkpt>
      <trkpt lat="56.582272974774241" lon="-6.195565033704042">
        <ele>20.809999999999999</ele>
        <time>2023-08-30T07:18:28Z</time>
      </trkpt>
      <trkpt lat="56.582272974774241" lon="-6.195753961801529">
        <ele>21.289999999999999</ele>
        <time>2023-08-30T07:18:29Z</time>
      </trkpt>
      <trkpt lat="56.582533987239003" lon="-6.196542028337717">
        <ele>20.32</ele>
        <time>2023-08-30T07:18:34Z</time>
      </trkpt>
      <trkpt lat="56.582578998059034" lon="-6.196719976142049">
        <ele>20.32</ele>
        <time>2023-08-30T07:18:35Z</time>
      </trkpt>
      <trkpt lat="56.582624008879066" lon="-6.196900019422174">
        <ele>19.84</ele>
        <time>2023-08-30T07:18:36Z</time>
      </trkpt>
      <trkpt lat="56.582739008590579" lon="-6.197718009352684">
        <ele>19.359999999999999</ele>
        <time>2023-08-30T07:18:40Z</time>
      </trkpt>
      <trkpt lat="56.582882003858685" lon="-6.199586000293493">
        <ele>12.630000000000001</ele>
        <time>2023-08-30T07:18:50Z</time>
      </trkpt>
      <trkpt lat="56.583118038251996" lon="-6.200734991580248">
        <ele>9.75</ele>
        <time>2023-08-30T07:18:56Z</time>
      </trkpt>
      <trkpt lat="56.583164976909757" lon="-6.200912017375231">
        <ele>9.27</ele>
        <time>2023-08-30T07:18:57Z</time>
      </trkpt>
      <trkpt lat="56.583311995491385" lon="-6.20147000066936">
        <ele>8.310000000000001</ele>
        <time>2023-08-30T07:19:00Z</time>
      </trkpt>
      <trkpt lat="56.583358012139797" lon="-6.20164199732244">
        <ele>8.789999999999999</ele>
        <time>2023-08-30T07:19:01Z</time>
      </trkpt>
      <trkpt lat="56.583909038454294" lon="-6.204117005690932">
        <ele>10.710000000000001</ele>
        <time>2023-08-30T07:19:14Z</time>
      </trkpt>
      <trkpt lat="56.584250014275312" lon="-6.205498008057475">
        <ele>13.119999999999999</ele>
        <time>2023-08-30T07:19:21Z</time>
      </trkpt>
      <trkpt lat="56.584414970129728" lon="-6.205850970000029">
        <ele>14.08</ele>
        <time>2023-08-30T07:19:23Z</time>
      </trkpt>
      <trkpt lat="56.584505997598171" lon="-6.20600201189518">
        <ele>15.039999999999999</ele>
        <time>2023-08-30T07:19:24Z</time>
      </trkpt>
      <trkpt lat="56.584599036723375" lon="-6.20615397579968">
        <ele>15.039999999999999</ele>
        <time>2023-08-30T07:19:25Z</time>
      </trkpt>
      <trkpt lat="56.584925008937716" lon="-6.206576004624367">
        <ele>16.48</ele>
        <time>2023-08-30T07:19:28Z</time>
      </trkpt>
      <trkpt lat="56.585031962022185" lon="-6.206706007942557">
        <ele>17.440000000000001</ele>
        <time>2023-08-30T07:19:29Z</time>
      </trkpt>
      <trkpt lat="56.585143022239208" lon="-6.206841040402651">
        <ele>17.920000000000002</ele>
        <time>2023-08-30T07:19:30Z</time>
      </trkpt>
      <trkpt lat="56.585726989433169" lon="-6.207554005086422">
        <ele>23.690000000000001</ele>
        <time>2023-08-30T07:19:36Z</time>
      </trkpt>
      <trkpt lat="56.586590996012092" lon="-6.209177998825908">
        <ele>31.379999999999999</ele>
        <time>2023-08-30T07:19:46Z</time>
      </trkpt>
      <trkpt lat="56.587461037561297" lon="-6.210589008405805">
        <ele>41.950000000000003</ele>
        <time>2023-08-30T07:19:56Z</time>
      </trkpt>
      <trkpt lat="56.587698999792337" lon="-6.210972983390093">
        <ele>44.359999999999999</ele>
        <time>2023-08-30T07:19:59Z</time>
      </trkpt>
      <trkpt lat="56.587781980633736" lon="-6.211098963394761">
        <ele>44.840000000000003</ele>
        <time>2023-08-30T07:20:00Z</time>
      </trkpt>
      <trkpt lat="56.587952971458435" lon="-6.211357964202762">
        <ele>45.799999999999997</ele>
        <time>2023-08-30T07:20:02Z</time>
      </trkpt>
      <trkpt lat="56.588040981441736" lon="-6.211491990834475">
        <ele>46.280000000000001</ele>
        <time>2023-08-30T07:20:03Z</time>
      </trkpt>
      <trkpt lat="56.58912300132215" lon="-6.213128976523876">
        <ele>46.280000000000001</ele>
        <time>2023-08-30T07:20:14Z</time>
      </trkpt>
      <trkpt lat="56.590027995407581" lon="-6.21483201161027">
        <ele>44.840000000000003</ele>
        <time>2023-08-30T07:20:23Z</time>
      </trkpt>
      <trkpt lat="56.591025022789836" lon="-6.216732021421194">
        <ele>44.840000000000003</ele>
        <time>2023-08-30T07:20:33Z</time>
      </trkpt>
      <trkpt lat="56.591752991080284" lon="-6.218363977968693">
        <ele>41.469999999999999</ele>
        <time>2023-08-30T07:20:42Z</time>
      </trkpt>
      <trkpt lat="56.592552037909627" lon="-6.219819998368621">
        <ele>38.109999999999999</ele>
        <time>2023-08-30T07:20:51Z</time>
      </trkpt>
      <trkpt lat="56.59348402172327" lon="-6.221381966024637">
        <ele>35.710000000000001</ele>
        <time>2023-08-30T07:21:02Z</time>
      </trkpt>
      <trkpt lat="56.5936120133847" lon="-6.221756972372532">
        <ele>36.189999999999998</ele>
        <time>2023-08-30T07:21:05Z</time>
      </trkpt>
      <trkpt lat="56.593621987849474" lon="-6.221900973469019">
        <ele>36.189999999999998</ele>
        <time>2023-08-30T07:21:06Z</time>
      </trkpt>
      <trkpt lat="56.593615030869842" lon="-6.2220090162009">
        <ele>36.189999999999998</ele>
        <time>2023-08-30T07:21:07Z</time>
      </trkpt>
      <trkpt lat="56.593596003949642" lon="-6.222177995368838">
        <ele>36.189999999999998</ele>
        <time>2023-08-30T07:21:08Z</time>
      </trkpt>
      <trkpt lat="56.593581000342965" lon="-6.222316967323422">
        <ele>36.670000000000002</ele>
        <time>2023-08-30T07:21:09Z</time>
      </trkpt>
      <trkpt lat="56.593528026714921" lon="-6.222448982298374">
        <ele>36.670000000000002</ele>
        <time>2023-08-30T07:21:10Z</time>
      </trkpt>
      <trkpt lat="56.593473041430116" lon="-6.22258803807199">
        <ele>37.149999999999999</ele>
        <time>2023-08-30T07:21:11Z</time>
      </trkpt>
      <trkpt lat="56.593415038660169" lon="-6.222712006419897">
        <ele>37.630000000000003</ele>
        <time>2023-08-30T07:21:12Z</time>
      </trkpt>
      <trkpt lat="56.593351000919938" lon="-6.222839998081327">
        <ele>37.630000000000003</ele>
        <time>2023-08-30T07:21:13Z</time>
      </trkpt>
      <trkpt lat="56.593292998149991" lon="-6.222957009449601">
        <ele>37.630000000000003</ele>
        <time>2023-08-30T07:21:14Z</time>
      </trkpt>
      <trkpt lat="56.593246981501579" lon="-6.223034039139748">
        <ele>37.630000000000003</ele>
        <time>2023-08-30T07:21:15Z</time>
      </trkpt>
      <trkpt lat="56.593160983175039" lon="-6.223098998889327">
        <ele>37.630000000000003</ele>
        <time>2023-08-30T07:21:16Z</time>
      </trkpt>
      <trkpt lat="56.593061992898583" lon="-6.223173011094332">
        <ele>37.149999999999999</ele>
        <time>2023-08-30T07:21:17Z</time>
      </trkpt>
      <trkpt lat="56.592504009604454" lon="-6.223592022433877">
        <ele>35.710000000000001</ele>
        <time>2023-08-30T07:21:22Z</time>
      </trkpt>
      <trkpt lat="56.592314997687936" lon="-6.223733006045222">
        <ele>33.299999999999997</ele>
        <time>2023-08-30T07:21:25Z</time>
      </trkpt>
      <trkpt lat="56.592244002968073" lon="-6.223881030455232">
        <ele>32.340000000000003</ele>
        <time>2023-08-30T07:21:26Z</time>
      </trkpt>
      <trkpt lat="56.592196980491281" lon="-6.223979014903307">
        <ele>31.859999999999999</ele>
        <time>2023-08-30T07:21:27Z</time>
      </trkpt>
      <trkpt lat="56.592097990214825" lon="-6.224184958264232">
        <ele>30.420000000000002</ele>
        <time>2023-08-30T07:21:29Z</time>
      </trkpt>
      <trkpt lat="56.592041999101639" lon="-6.224283026531339">
        <ele>29.940000000000001</ele>
        <time>2023-08-30T07:21:30Z</time>
      </trkpt>
      <trkpt lat="56.591962035745382" lon="-6.224353015422821">
        <ele>29.460000000000001</ele>
        <time>2023-08-30T07:21:31Z</time>
      </trkpt>
      <trkpt lat="56.591870002448559" lon="-6.224432978779078">
        <ele>28.98</ele>
        <time>2023-08-30T07:21:32Z</time>
      </trkpt>
      <trkpt lat="56.591774029657245" lon="-6.224515959620476">
        <ele>28.98</ele>
        <time>2023-08-30T07:21:33Z</time>
      </trkpt>
      <trkpt lat="56.591597003862262" lon="-6.224670019000769">
        <ele>28.98</ele>
        <time>2023-08-30T07:21:35Z</time>
      </trkpt>
      <trkpt lat="56.591233983635902" lon="-6.225058017298579">
        <ele>29.940000000000001</ele>
        <time>2023-08-30T07:21:40Z</time>
      </trkpt>
      <trkpt lat="56.591170029714704" lon="-6.225127000361681">
        <ele>30.420000000000002</ele>
        <time>2023-08-30T07:21:41Z</time>
      </trkpt>
      <trkpt lat="56.59097095951438" lon="-6.225306037813425">
        <ele>31.379999999999999</ele>
        <time>2023-08-30T07:21:44Z</time>
      </trkpt>
      <trkpt lat="56.590919997543097" lon="-6.225343002006412">
        <ele>31.859999999999999</ele>
        <time>2023-08-30T07:21:45Z</time>
      </trkpt>
      <trkpt lat="56.59084003418684" lon="-6.225303020328283">
        <ele>32.340000000000003</ele>
        <time>2023-08-30T07:21:46Z</time>
      </trkpt>
      <trkpt lat="56.59077700227499" lon="-6.225271001458168">
        <ele>32.82</ele>
        <time>2023-08-30T07:21:47Z</time>
      </trkpt>
      <trkpt lat="56.590728973969817" lon="-6.225247029215097">
        <ele>33.780000000000001</ele>
        <time>2023-08-30T07:21:48Z</time>
      </trkpt>
      <trkpt lat="56.590676000341773" lon="-6.225220961496234">
        <ele>34.740000000000002</ele>
        <time>2023-08-30T07:21:49Z</time>
      </trkpt>
      <trkpt lat="56.590663008391857" lon="-6.225214004516602">
        <ele>35.710000000000001</ele>
        <time>2023-08-30T07:21:50Z</time>
      </trkpt>
      <trkpt lat="56.590577010065317" lon="-6.225214004516602">
        <ele>36.189999999999998</ele>
        <time>2023-08-30T07:21:51Z</time>
      </trkpt>
      <trkpt lat="56.590521018952131" lon="-6.225214004516602">
        <ele>37.149999999999999</ele>
        <time>2023-08-30T07:21:52Z</time>
      </trkpt>
      <trkpt lat="56.590469973161817" lon="-6.225214004516602">
        <ele>38.109999999999999</ele>
        <time>2023-08-30T07:21:53Z</time>
      </trkpt>
      <trkpt lat="56.590415993705392" lon="-6.225263038650155">
        <ele>38.590000000000003</ele>
        <time>2023-08-30T07:21:54Z</time>
      </trkpt>
      <trkpt lat="56.590342987328768" lon="-6.225327998399735">
        <ele>39.549999999999997</ele>
        <time>2023-08-30T07:21:55Z</time>
      </trkpt>
      <trkpt lat="56.590254977345467" lon="-6.225407039746642">
        <ele>40.030000000000001</ele>
        <time>2023-08-30T07:21:56Z</time>
      </trkpt>
      <trkpt lat="56.590160010382533" lon="-6.225568978115916">
        <ele>40.030000000000001</ele>
        <time>2023-08-30T07:21:57Z</time>
      </trkpt>
      <trkpt lat="56.590050039812922" lon="-6.225753966718912">
        <ele>40.030000000000001</ele>
        <time>2023-08-30T07:21:58Z</time>
      </trkpt>
      <trkpt lat="56.58996001817286" lon="-6.225908026099205">
        <ele>40.030000000000001</ele>
        <time>2023-08-30T07:21:59Z</time>
      </trkpt>
      <trkpt lat="56.589877959340811" lon="-6.226046998053789">
        <ele>40.030000000000001</ele>
        <time>2023-08-30T07:22:00Z</time>
      </trkpt>
      <trkpt lat="56.58981098793447" lon="-6.226159986108542">
        <ele>40.030000000000001</ele>
        <time>2023-08-30T07:22:01Z</time>
      </trkpt>
      <trkpt lat="56.589751979336143" lon="-6.226273979991674">
        <ele>40.509999999999998</ele>
        <time>2023-08-30T07:22:02Z</time>
      </trkpt>
      <trkpt lat="56.589704034850001" lon="-6.226416975259781">
        <ele>40.509999999999998</ele>
        <time>2023-08-30T07:22:03Z</time>
      </trkpt>
      <trkpt lat="56.589649971574545" lon="-6.226577991619706">
        <ele>40.509999999999998</ele>
        <time>2023-08-30T07:22:04Z</time>
      </trkpt>
      <trkpt lat="56.589593980461359" lon="-6.226744959130883">
        <ele>40.509999999999998</ele>
        <time>2023-08-30T07:22:05Z</time>
      </trkpt>
      <trkpt lat="56.589540001004934" lon="-6.22690899297595">
        <ele>40.509999999999998</ele>
        <time>2023-08-30T07:22:06Z</time>
      </trkpt>
      <trkpt lat="56.589481998234987" lon="-6.22708098962903">
        <ele>40.990000000000002</ele>
        <time>2023-08-30T07:22:07Z</time>
      </trkpt>
      <trkpt lat="56.589399017393589" lon="-6.227170005440712">
        <ele>41.469999999999999</ele>
        <time>2023-08-30T07:22:08Z</time>
      </trkpt>
      <trkpt lat="56.58931796438992" lon="-6.227257009595633">
        <ele>41.950000000000003</ele>
        <time>2023-08-30T07:22:09Z</time>
      </trkpt>
      <trkpt lat="56.589254010468721" lon="-6.227324986830354">
        <ele>42.439999999999998</ele>
        <time>2023-08-30T07:22:10Z</time>
      </trkpt>
      <trkpt lat="56.589197013527155" lon="-6.227386007085443">
        <ele>42.439999999999998</ele>
        <time>2023-08-30T07:22:11Z</time>
      </trkpt>
      <trkpt lat="56.589150996878743" lon="-6.227435963228345">
        <ele>42.920000000000002</ele>
        <time>2023-08-30T07:22:12Z</time>
      </trkpt>
      <trkpt lat="56.589109003543854" lon="-6.227479968219996">
        <ele>43.399999999999999</ele>
        <time>2023-08-30T07:22:13Z</time>
      </trkpt>
      <trkpt lat="56.589081007987261" lon="-6.22750997543335">
        <ele>43.399999999999999</ele>
        <time>2023-08-30T07:22:14Z</time>
      </trkpt>
      <trkpt lat="56.589047983288765" lon="-6.227545011788607">
        <ele>43.399999999999999</ele>
        <time>2023-08-30T07:22:16Z</time>
      </trkpt>
      <trkpt lat="56.589030968025327" lon="-6.227563032880426">
        <ele>43.880000000000003</ele>
        <time>2023-08-30T07:22:17Z</time>
      </trkpt>
      <trkpt lat="56.589011019095778" lon="-6.227584993466735">
        <ele>44.359999999999999</ele>
        <time>2023-08-30T07:22:18Z</time>
      </trkpt>
      <trkpt lat="56.588699966669083" lon="-6.228074999526143">
        <ele>45.799999999999997</ele>
        <time>2023-08-30T07:22:24Z</time>
      </trkpt>
      <trkpt lat="56.588455969467759" lon="-6.228576991707087">
        <ele>46.280000000000001</ele>
        <time>2023-08-30T07:22:27Z</time>
      </trkpt>
      <trkpt lat="56.587689025327563" lon="-6.229982972145081">
        <ele>46.759999999999998</ele>
        <time>2023-08-30T07:22:35Z</time>
      </trkpt>
      <trkpt lat="56.58748802728951" lon="-6.230306010693312">
        <ele>49.649999999999999</ele>
        <time>2023-08-30T07:22:41Z</time>
      </trkpt>
      <trkpt lat="56.587459025904536" lon="-6.230365019291639">
        <ele>50.130000000000003</ele>
        <time>2023-08-30T07:22:43Z</time>
      </trkpt>
      <trkpt lat="56.587443016469479" lon="-6.230418998748064">
        <ele>50.130000000000003</ele>
        <time>2023-08-30T07:22:44Z</time>
      </trkpt>
      <trkpt lat="56.587420972064137" lon="-6.230496028438211">
        <ele>50.609999999999999</ele>
        <time>2023-08-30T07:22:45Z</time>
      </trkpt>
      <trkpt lat="56.587389959022403" lon="-6.230601975694299">
        <ele>50.609999999999999</ele>
        <time>2023-08-30T07:22:46Z</time>
      </trkpt>
      <trkpt lat="56.587351989001036" lon="-6.23073298484087">
        <ele>51.090000000000003</ele>
        <time>2023-08-30T07:22:47Z</time>
      </trkpt>
      <trkpt lat="56.587306978181005" lon="-6.230886038392782">
        <ele>51.57</ele>
        <time>2023-08-30T07:22:48Z</time>
      </trkpt>
      <trkpt lat="56.587173035368323" lon="-6.231348970904946">
        <ele>52.530000000000001</ele>
        <time>2023-08-30T07:22:51Z</time>
      </trkpt>
      <trkpt lat="56.587130036205053" lon="-6.231494983658195">
        <ele>53.009999999999998</ele>
        <time>2023-08-30T07:22:52Z</time>
      </trkpt>
      <trkpt lat="56.587127018719912" lon="-6.231675026938319">
        <ele>53.009999999999998</ele>
        <time>2023-08-30T07:22:53Z</time>
      </trkpt>
      <trkpt lat="56.587133975699544" lon="-6.231876024976373">
        <ele>53.490000000000002</ele>
        <time>2023-08-30T07:22:54Z</time>
      </trkpt>
      <trkpt lat="56.587142022326589" lon="-6.2320869974792">
        <ele>53.490000000000002</ele>
        <time>2023-08-30T07:22:55Z</time>
      </trkpt>
      <trkpt lat="56.587149985134602" lon="-6.232305010780692">
        <ele>53.490000000000002</ele>
        <time>2023-08-30T07:22:56Z</time>
      </trkpt>
      <trkpt lat="56.587163982912898" lon="-6.232715975493193">
        <ele>53.490000000000002</ele>
        <time>2023-08-30T07:22:58Z</time>
      </trkpt>
      <trkpt lat="56.587139004841447" lon="-6.232912028208375">
        <ele>53.490000000000002</ele>
        <time>2023-08-30T07:22:59Z</time>
      </trkpt>
      <trkpt lat="56.587110003456473" lon="-6.233099028468132">
        <ele>53.009999999999998</ele>
        <time>2023-08-30T07:23:00Z</time>
      </trkpt>
      <trkpt lat="56.58708200789988" lon="-6.233278987929225">
        <ele>53.009999999999998</ele>
        <time>2023-08-30T07:23:01Z</time>
      </trkpt>
      <trkpt lat="56.587055018171668" lon="-6.233454002067447">
        <ele>53.009999999999998</ele>
        <time>2023-08-30T07:23:02Z</time>
      </trkpt>
      <trkpt lat="56.587030040100217" lon="-6.233613006770611">
        <ele>52.530000000000001</ele>
        <time>2023-08-30T07:23:03Z</time>
      </trkpt>
      <trkpt lat="56.58701503649354" lon="-6.233710991218686">
        <ele>52.530000000000001</ele>
        <time>2023-08-30T07:23:04Z</time>
      </trkpt>
      <trkpt lat="56.587032973766327" lon="-6.233867984265089">
        <ele>52.049999999999997</ele>
        <time>2023-08-30T07:23:05Z</time>
      </trkpt>
      <trkpt lat="56.587049989029765" lon="-6.234015002846718">
        <ele>52.530000000000001</ele>
        <time>2023-08-30T07:23:06Z</time>
      </trkpt>
      <trkpt lat="56.587079996243119" lon="-6.234136959537864">
        <ele>52.530000000000001</ele>
        <time>2023-08-30T07:23:07Z</time>
      </trkpt>
      <trkpt lat="56.587134981527925" lon="-6.234285989776254">
        <ele>53.009999999999998</ele>
        <time>2023-08-30T07:23:08Z</time>
      </trkpt>
      <trkpt lat="56.587248975411057" lon="-6.234593018889427">
        <ele>54.450000000000003</ele>
        <time>2023-08-30T07:23:10Z</time>
      </trkpt>
      <trkpt lat="56.587290968745947" lon="-6.234765015542507">
        <ele>54.93</ele>
        <time>2023-08-30T07:23:11Z</time>
      </trkpt>
      <trkpt lat="56.587300021201372" lon="-6.234980011358857">
        <ele>55.890000000000001</ele>
        <time>2023-08-30T07:23:12Z</time>
      </trkpt>
      <trkpt lat="56.587266996502876" lon="-6.235123006626964">
        <ele>56.859999999999999</ele>
        <time>2023-08-30T07:23:13Z</time>
      </trkpt>
      <trkpt lat="56.587220979854465" lon="-6.235275976359844">
        <ele>57.82</ele>
        <time>2023-08-30T07:23:14Z</time>
      </trkpt>
      <trkpt lat="56.587165994569659" lon="-6.235431041568518">
        <ele>58.780000000000001</ele>
        <time>2023-08-30T07:23:15Z</time>
      </trkpt>
      <trkpt lat="56.587108997628093" lon="-6.235591974109411">
        <ele>59.259999999999998</ele>
        <time>2023-08-30T07:23:16Z</time>
      </trkpt>
      <trkpt lat="56.586976982653141" lon="-6.236097989603877">
        <ele>62.140000000000001</ele>
        <time>2023-08-30T07:23:19Z</time>
      </trkpt>
      <trkpt lat="56.586948987096548" lon="-6.236284989863634">
        <ele>63.100000000000001</ele>
        <time>2023-08-30T07:23:20Z</time>
      </trkpt>
      <trkpt lat="56.586929960176349" lon="-6.236495962366462">
        <ele>64.069999999999993</ele>
        <time>2023-08-30T07:23:21Z</time>
      </trkpt>
      <trkpt lat="56.586740026250482" lon="-6.23859797604382">
        <ele>69.349999999999994</ele>
        <time>2023-08-30T07:23:30Z</time>
      </trkpt>
      <trkpt lat="56.586693003773689" lon="-6.239118995144963">
        <ele>71.760000000000005</ele>
        <time>2023-08-30T07:23:33Z</time>
      </trkpt>
      <trkpt lat="56.586719993501902" lon="-6.239301972091198">
        <ele>72.239999999999995</ele>
        <time>2023-08-30T07:23:34Z</time>
      </trkpt>
      <trkpt lat="56.586745977401733" lon="-6.239485032856464">
        <ele>72.719999999999999</ele>
        <time>2023-08-30T07:23:35Z</time>
      </trkpt>
      <trkpt lat="56.586773972958326" lon="-6.239678990095854">
        <ele>73.200000000000003</ele>
        <time>2023-08-30T07:23:36Z</time>
      </trkpt>
      <trkpt lat="56.586801968514919" lon="-6.239869007840753">
        <ele>73.680000000000007</ele>
        <time>2023-08-30T07:23:37Z</time>
      </trkpt>
      <trkpt lat="56.586855025961995" lon="-6.240232028067112">
        <ele>74.640000000000001</ele>
        <time>2023-08-30T07:23:39Z</time>
      </trkpt>
      <trkpt lat="56.586880004033446" lon="-6.240405030548573">
        <ele>75.599999999999994</ele>
        <time>2023-08-30T07:23:40Z</time>
      </trkpt>
      <trkpt lat="56.586872963234782" lon="-6.240587001666427">
        <ele>76.079999999999998</ele>
        <time>2023-08-30T07:23:41Z</time>
      </trkpt>
      <trkpt lat="56.586838010698557" lon="-6.240945998579264">
        <ele>76.560000000000002</ele>
        <time>2023-08-30T07:23:43Z</time>
      </trkpt>
      <trkpt lat="56.586819989606738" lon="-6.24113199301064">
        <ele>76.560000000000002</ele>
        <time>2023-08-30T07:23:44Z</time>
      </trkpt>
      <trkpt lat="56.586683029308915" lon="-6.243284968659282">
        <ele>75.599999999999994</ele>
        <time>2023-08-30T07:23:54Z</time>
      </trkpt>
      <trkpt lat="56.586728040128946" lon="-6.244528004899621">
        <ele>68.390000000000001</ele>
        <time>2023-08-30T07:24:00Z</time>
      </trkpt>
      <trkpt lat="56.586734997108579" lon="-6.244720034301281">
        <ele>67.430000000000007</ele>
        <time>2023-08-30T07:24:01Z</time>
      </trkpt>
      <trkpt lat="56.586700966581702" lon="-6.24485095962882">
        <ele>66.469999999999999</ele>
        <time>2023-08-30T07:24:02Z</time>
      </trkpt>
      <trkpt lat="56.586657967418432" lon="-6.244985992088914">
        <ele>65.510000000000005</ele>
        <time>2023-08-30T07:24:03Z</time>
      </trkpt>
      <trkpt lat="56.586617985740304" lon="-6.245113983750343">
        <ele>65.510000000000005</ele>
        <time>2023-08-30T07:24:04Z</time>
      </trkpt>
      <trkpt lat="56.586563000455499" lon="-6.245178021490574">
        <ele>65.510000000000005</ele>
        <time>2023-08-30T07:24:05Z</time>
      </trkpt>
      <trkpt lat="56.586481025442481" lon="-6.245232000946999">
        <ele>65.989999999999995</ele>
        <time>2023-08-30T07:24:06Z</time>
      </trkpt>
      <trkpt lat="56.586392009630799" lon="-6.245292015373707">
        <ele>66.469999999999999</ele>
        <time>2023-08-30T07:24:07Z</time>
      </trkpt>
      <trkpt lat="56.586306011304259" lon="-6.245349012315273">
        <ele>67.430000000000007</ele>
        <time>2023-08-30T07:24:08Z</time>
      </trkpt>
      <trkpt lat="56.586231999099255" lon="-6.245451020076871">
        <ele>68.390000000000001</ele>
        <time>2023-08-30T07:24:09Z</time>
      </trkpt>
      <trkpt lat="56.586166033521295" lon="-6.245561996474862">
        <ele>68.870000000000005</ele>
        <time>2023-08-30T07:24:10Z</time>
      </trkpt>
      <trkpt lat="56.586090009659529" lon="-6.245690993964672">
        <ele>69.349999999999994</ele>
        <time>2023-08-30T07:24:11Z</time>
      </trkpt>
      <trkpt lat="56.586048016324639" lon="-6.245852010324597">
        <ele>70.310000000000002</ele>
        <time>2023-08-30T07:24:12Z</time>
      </trkpt>
      <trkpt lat="56.58600602298975" lon="-6.246014032512903">
        <ele>70.790000000000006</ele>
        <time>2023-08-30T07:24:13Z</time>
      </trkpt>
      <trkpt lat="56.585798989981413" lon="-6.246679974719882">
        <ele>71.269999999999996</ele>
        <time>2023-08-30T07:24:17Z</time>
      </trkpt>
      <trkpt lat="56.585733024403453" lon="-6.246827999129891">
        <ele>70.790000000000006</ele>
        <time>2023-08-30T07:24:18Z</time>
      </trkpt>
      <trkpt lat="56.585670998319983" lon="-6.246968982741237">
        <ele>69.829999999999998</ele>
        <time>2023-08-30T07:24:19Z</time>
      </trkpt>
      <trkpt lat="56.585625987499952" lon="-6.247133016586304">
        <ele>68.870000000000005</ele>
        <time>2023-08-30T07:24:20Z</time>
      </trkpt>
      <trkpt lat="56.585601009428501" lon="-6.2472989782691">
        <ele>68.390000000000001</ele>
        <time>2023-08-30T07:24:21Z</time>
      </trkpt>
      <trkpt lat="56.585573013871908" lon="-6.247473992407322">
        <ele>67.909999999999997</ele>
        <time>2023-08-30T07:24:22Z</time>
      </trkpt>
      <trkpt lat="56.58542700111866" lon="-6.248409999534488">
        <ele>65.510000000000005</ele>
        <time>2023-08-30T07:24:27Z</time>
      </trkpt>
      <trkpt lat="56.585437981411815" lon="-6.248626001179218">
        <ele>65.510000000000005</ele>
        <time>2023-08-30T07:24:28Z</time>
      </trkpt>
      <trkpt lat="56.585448039695621" lon="-6.248816018924117">
        <ele>65.030000000000001</ele>
        <time>2023-08-30T07:24:29Z</time>
      </trkpt>
      <trkpt lat="56.585467988625169" lon="-6.249018022790551">
        <ele>65.030000000000001</ele>
        <time>2023-08-30T07:24:30Z</time>
      </trkpt>
      <trkpt lat="56.585488021373749" lon="-6.24923100695014">
        <ele>65.030000000000001</ele>
        <time>2023-08-30T07:24:31Z</time>
      </trkpt>
      <trkpt lat="56.585683990269899" lon="-6.251264037564397">
        <ele>67.430000000000007</ele>
        <time>2023-08-30T07:24:40Z</time>
      </trkpt>
      <trkpt lat="56.586061008274555" lon="-6.253190031275153">
        <ele>72.239999999999995</ele>
        <time>2023-08-30T07:24:49Z</time>
      </trkpt>
      <trkpt lat="56.586112976074219" lon="-6.253363033756614">
        <ele>72.239999999999995</ele>
        <time>2023-08-30T07:24:50Z</time>
      </trkpt>
      <trkpt lat="56.586170978844166" lon="-6.253553973510861">
        <ele>71.760000000000005</ele>
        <time>2023-08-30T07:24:51Z</time>
      </trkpt>
      <trkpt lat="56.58635102212429" lon="-6.254152022302151">
        <ele>69.829999999999998</ele>
        <time>2023-08-30T07:24:54Z</time>
      </trkpt>
      <trkpt lat="56.586389997974038" lon="-6.25434497371316">
        <ele>69.349999999999994</ele>
        <time>2023-08-30T07:24:55Z</time>
      </trkpt>
      <trkpt lat="56.586381029337645" lon="-6.254578996449709">
        <ele>68.870000000000005</ele>
        <time>2023-08-30T07:24:56Z</time>
      </trkpt>
      <trkpt lat="56.586371976882219" lon="-6.254827016964555">
        <ele>67.909999999999997</ele>
        <time>2023-08-30T07:24:57Z</time>
      </trkpt>
      <trkpt lat="56.586362002417445" lon="-6.255081994459033">
        <ele>67.430000000000007</ele>
        <time>2023-08-30T07:24:58Z</time>
      </trkpt>
      <trkpt lat="56.586309028789401" lon="-6.256039962172508">
        <ele>66.950000000000003</ele>
        <time>2023-08-30T07:25:02Z</time>
      </trkpt>
      <trkpt lat="56.586256977170706" lon="-6.256249006837606">
        <ele>66.950000000000003</ele>
        <time>2023-08-30T07:25:03Z</time>
      </trkpt>
      <trkpt lat="56.585595980286598" lon="-6.258676992729306">
        <ele>62.140000000000001</ele>
        <time>2023-08-30T07:25:14Z</time>
      </trkpt>
      <trkpt lat="56.585486009716988" lon="-6.258979998528957">
        <ele>61.659999999999997</ele>
        <time>2023-08-30T07:25:16Z</time>
      </trkpt>
      <trkpt lat="56.585405962541699" lon="-6.259083012118936">
        <ele>61.18</ele>
        <time>2023-08-30T07:25:17Z</time>
      </trkpt>
      <trkpt lat="56.585315018892288" lon="-6.25917898491025">
        <ele>60.700000000000003</ele>
        <time>2023-08-30T07:25:18Z</time>
      </trkpt>
      <trkpt lat="56.585208987817168" lon="-6.259266994893551">
        <ele>59.740000000000002</ele>
        <time>2023-08-30T07:25:19Z</time>
      </trkpt>
      <trkpt lat="56.585097005590796" lon="-6.259361039847136">
        <ele>59.259999999999998</ele>
        <time>2023-08-30T07:25:20Z</time>
      </trkpt>
      <trkpt lat="56.584519995376468" lon="-6.25984400510788">
        <ele>58.299999999999997</ele>
        <time>2023-08-30T07:25:25Z</time>
      </trkpt>
      <trkpt lat="56.583817005157471" lon="-6.260534003376961">
        <ele>60.700000000000003</ele>
        <time>2023-08-30T07:25:32Z</time>
      </trkpt>
      <trkpt lat="56.583747016265988" lon="-6.2606390286237">
        <ele>61.18</ele>
        <time>2023-08-30T07:25:33Z</time>
      </trkpt>
      <trkpt lat="56.583684990182519" lon="-6.26074698753655">
        <ele>61.659999999999997</ele>
        <time>2023-08-30T07:25:34Z</time>
      </trkpt>
      <trkpt lat="56.583655988797545" lon="-6.260888976976275">
        <ele>62.619999999999997</ele>
        <time>2023-08-30T07:25:35Z</time>
      </trkpt>
      <trkpt lat="56.583630004897714" lon="-6.261024009436369">
        <ele>63.100000000000001</ele>
        <time>2023-08-30T07:25:36Z</time>
      </trkpt>
      <trkpt lat="56.583619024604559" lon="-6.26117697916925">
        <ele>63.100000000000001</ele>
        <time>2023-08-30T07:25:37Z</time>
      </trkpt>
      <trkpt lat="56.583611983805895" lon="-6.26134998165071">
        <ele>63.579999999999998</ele>
        <time>2023-08-30T07:25:38Z</time>
      </trkpt>
      <trkpt lat="56.583605026826262" lon="-6.261530024930835">
        <ele>63.579999999999998</ele>
        <time>2023-08-30T07:25:39Z</time>
      </trkpt>
      <trkpt lat="56.583597986027598" lon="-6.261708978563547">
        <ele>64.069999999999993</ele>
        <time>2023-08-30T07:25:40Z</time>
      </trkpt>
      <trkpt lat="56.583582982420921" lon="-6.262065963819623">
        <ele>64.069999999999993</ele>
        <time>2023-08-30T07:25:42Z</time>
      </trkpt>
      <trkpt lat="56.58353696577251" lon="-6.262234020978212">
        <ele>64.069999999999993</ele>
        <time>2023-08-30T07:25:43Z</time>
      </trkpt>
      <trkpt lat="56.583487009629607" lon="-6.262384979054332">
        <ele>64.549999999999997</ele>
        <time>2023-08-30T07:25:44Z</time>
      </trkpt>
      <trkpt lat="56.583436969667673" lon="-6.262533003464341">
        <ele>64.549999999999997</ele>
        <time>2023-08-30T07:25:45Z</time>
      </trkpt>
      <trkpt lat="56.583387013524771" lon="-6.262683961540461">
        <ele>65.030000000000001</ele>
        <time>2023-08-30T07:25:46Z</time>
      </trkpt>
      <trkpt lat="56.583202024921775" lon="-6.263281004503369">
        <ele>65.989999999999995</ele>
        <time>2023-08-30T07:25:50Z</time>
      </trkpt>
      <trkpt lat="56.583173023536801" lon="-6.263444032520056">
        <ele>65.510000000000005</ele>
        <time>2023-08-30T07:25:51Z</time>
      </trkpt>
      <trkpt lat="56.583151984959841" lon="-6.263559032231569">
        <ele>65.989999999999995</ele>
        <time>2023-08-30T07:25:52Z</time>
      </trkpt>
      <trkpt lat="56.58319003880024" lon="-6.263753995299339">
        <ele>65.989999999999995</ele>
        <time>2023-08-30T07:25:53Z</time>
      </trkpt>
      <trkpt lat="56.583220968022943" lon="-6.263920962810516">
        <ele>65.989999999999995</ele>
        <time>2023-08-30T07:25:54Z</time>
      </trkpt>
      <trkpt lat="56.583266984671354" lon="-6.26407703384757">
        <ele>65.989999999999995</ele>
        <time>2023-08-30T07:25:55Z</time>
      </trkpt>
      <trkpt lat="56.583334039896727" lon="-6.264234026893973">
        <ele>65.989999999999995</ele>
        <time>2023-08-30T07:25:56Z</time>
      </trkpt>
      <trkpt lat="56.583638973534107" lon="-6.264879014343023">
        <ele>65.030000000000001</ele>
        <time>2023-08-30T07:26:00Z</time>
      </trkpt>
      <trkpt lat="56.583734024316072" lon="-6.26502200961113">
        <ele>64.549999999999997</ele>
        <time>2023-08-30T07:26:01Z</time>
      </trkpt>
      <trkpt lat="56.584431985393167" lon="-6.266250964254141">
        <ele>57.82</ele>
        <time>2023-08-30T07:26:09Z</time>
      </trkpt>
      <trkpt lat="56.585154002532363" lon="-6.267400039359927">
        <ele>51.57</ele>
        <time>2023-08-30T07:26:17Z</time>
      </trkpt>
      <trkpt lat="56.585538983345032" lon="-6.268355995416641">
        <ele>49.159999999999997</ele>
        <time>2023-08-30T07:26:23Z</time>
      </trkpt>
      <trkpt lat="56.585580976679921" lon="-6.268512988463044">
        <ele>49.159999999999997</ele>
        <time>2023-08-30T07:26:24Z</time>
      </trkpt>
      <trkpt lat="56.585603021085262" lon="-6.268670987337828">
        <ele>49.159999999999997</ele>
        <time>2023-08-30T07:26:25Z</time>
      </trkpt>
      <trkpt lat="56.585610983893275" lon="-6.268820017576218">
        <ele>49.159999999999997</ele>
        <time>2023-08-30T07:26:26Z</time>
      </trkpt>
      <trkpt lat="56.585620036348701" lon="-6.268987990915775">
        <ele>48.68</ele>
        <time>2023-08-30T07:26:27Z</time>
      </trkpt>
      <trkpt lat="56.585590029135346" lon="-6.269115982577205">
        <ele>48.68</ele>
        <time>2023-08-30T07:26:28Z</time>
      </trkpt>
      <trkpt lat="56.585557004436851" lon="-6.269252020865679">
        <ele>49.159999999999997</ele>
        <time>2023-08-30T07:26:29Z</time>
      </trkpt>
      <trkpt lat="56.58504000864923" lon="-6.270323982462287">
        <ele>48.200000000000003</ele>
        <time>2023-08-30T07:26:37Z</time>
      </trkpt>
      <trkpt lat="56.584784025326371" lon="-6.270601004362106">
        <ele>46.280000000000001</ele>
        <time>2023-08-30T07:26:40Z</time>
      </trkpt>
      <trkpt lat="56.584685035049915" lon="-6.270692031830549">
        <ele>45.799999999999997</ele>
        <time>2023-08-30T07:26:41Z</time>
      </trkpt>
      <trkpt lat="56.584583027288318" lon="-6.270783981308341">
        <ele>45.32</ele>
        <time>2023-08-30T07:26:42Z</time>
      </trkpt>
      <trkpt lat="56.58375196158886" lon="-6.27146702259779">
        <ele>41.469999999999999</ele>
        <time>2023-08-30T07:26:50Z</time>
      </trkpt>
      <trkpt lat="56.583675015717745" lon="-6.271529970690608">
        <ele>40.509999999999998</ele>
        <time>2023-08-30T07:26:51Z</time>
      </trkpt>
      <trkpt lat="56.583507964387536" lon="-6.271663997322321">
        <ele>39.549999999999997</ele>
        <time>2023-08-30T07:26:53Z</time>
      </trkpt>
      <trkpt lat="56.583425989374518" lon="-6.271702973172069">
        <ele>38.590000000000003</ele>
        <time>2023-08-30T07:26:54Z</time>
      </trkpt>
      <trkpt lat="56.583340996876359" lon="-6.27172501757741">
        <ele>37.630000000000003</ele>
        <time>2023-08-30T07:26:55Z</time>
      </trkpt>
      <trkpt lat="56.583249969407916" lon="-6.271746978163719">
        <ele>36.670000000000002</ele>
        <time>2023-08-30T07:26:56Z</time>
      </trkpt>
      <trkpt lat="56.583161959424615" lon="-6.271751001477242">
        <ele>36.189999999999998</ele>
        <time>2023-08-30T07:26:57Z</time>
      </trkpt>
      <trkpt lat="56.5823960211128" lon="-6.271732980385423">
        <ele>28.98</ele>
        <time>2023-08-30T07:27:06Z</time>
      </trkpt>
      <trkpt lat="56.582358973100781" lon="-6.271756030619144">
        <ele>28.98</ele>
        <time>2023-08-30T07:27:07Z</time>
      </trkpt>
      <trkpt lat="56.582358973100781" lon="-6.271756030619144">
        <ele>28.5</ele>
        <time>2023-08-30T07:27:08Z</time>
      </trkpt>
      <trkpt lat="56.582358973100781" lon="-6.271756030619144">
        <ele>28.02</ele>
        <time>2023-08-30T07:27:09Z</time>
      </trkpt>
      <trkpt lat="56.582328965887427" lon="-6.271850997582078">
        <ele>26.57</ele>
        <time>2023-08-30T07:27:12Z</time>
      </trkpt>
      <trkpt lat="56.582318991422653" lon="-6.271883016452193">
        <ele>26.09</ele>
        <time>2023-08-30T07:27:13Z</time>
      </trkpt>
      <trkpt lat="56.582239028066397" lon="-6.272388026118279">
        <ele>23.210000000000001</ele>
        <time>2023-08-30T07:27:18Z</time>
      </trkpt>
      <trkpt lat="56.5822250302881" lon="-6.27254200167954">
        <ele>22.25</ele>
        <time>2023-08-30T07:27:19Z</time>
      </trkpt>
      <trkpt lat="56.582194017246366" lon="-6.272871997207403">
        <ele>20.32</ele>
        <time>2023-08-30T07:27:21Z</time>
      </trkpt>
      <trkpt lat="56.582168033346534" lon="-6.27314398996532">
        <ele>19.84</ele>
        <time>2023-08-30T07:27:23Z</time>
      </trkpt>
      <trkpt lat="56.582120005041361" lon="-6.273219007998705">
        <ele>19.359999999999999</ele>
        <time>2023-08-30T07:27:24Z</time>
      </trkpt>
      <trkpt lat="56.582062002271414" lon="-6.273278016597033">
        <ele>19.359999999999999</ele>
        <time>2023-08-30T07:27:25Z</time>
      </trkpt>
      <trkpt lat="56.581937028095126" lon="-6.273408019915223">
        <ele>18.399999999999999</ele>
        <time>2023-08-30T07:27:27Z</time>
      </trkpt>
      <trkpt lat="56.581672998145223" lon="-6.27368101850152">
        <ele>16.48</ele>
        <time>2023-08-30T07:27:30Z</time>
      </trkpt>
      <trkpt lat="56.58110998570919" lon="-6.274528009817004">
        <ele>12.15</ele>
        <time>2023-08-30T07:27:37Z</time>
      </trkpt>
      <trkpt lat="56.581076039001346" lon="-6.274652983993292">
        <ele>12.15</ele>
        <time>2023-08-30T07:27:38Z</time>
      </trkpt>
      <trkpt lat="56.581039996817708" lon="-6.274781981483102">
        <ele>11.67</ele>
        <time>2023-08-30T07:27:39Z</time>
      </trkpt>
      <trkpt lat="56.580857019871473" lon="-6.275703990831971">
        <ele>10.710000000000001</ele>
        <time>2023-08-30T07:27:44Z</time>
      </trkpt>
      <trkpt lat="56.580791976302862" lon="-6.275836005806923">
        <ele>10.710000000000001</ele>
        <time>2023-08-30T07:27:45Z</time>
      </trkpt>
      <trkpt lat="56.580309011042118" lon="-6.276820041239262">
        <ele>9.75</ele>
        <time>2023-08-30T07:27:54Z</time>
      </trkpt>
      <trkpt lat="56.580299036577344" lon="-6.276840995997191">
        <ele>9.75</ele>
        <time>2023-08-30T07:27:55Z</time>
      </trkpt>
      <trkpt lat="56.580299036577344" lon="-6.276840995997191">
        <ele>9.75</ele>
        <time>2023-08-30T07:27:56Z</time>
      </trkpt>
      <trkpt lat="56.580299036577344" lon="-6.276840995997191">
        <ele>9.27</ele>
        <time>2023-08-30T07:27:58Z</time>
      </trkpt>
      <trkpt lat="56.580299036577344" lon="-6.276840995997191">
        <ele>9.27</ele>
        <time>2023-08-30T07:27:59Z</time>
      </trkpt>
      <trkpt lat="56.580316973850131" lon="-6.277645993977785">
        <ele>8.789999999999999</ele>
        <time>2023-08-30T07:28:04Z</time>
      </trkpt>
      <trkpt lat="56.580372964963317" lon="-6.278113033622503">
        <ele>9.75</ele>
        <time>2023-08-30T07:28:14Z</time>
      </trkpt>
      <trkpt lat="56.580400038510561" lon="-6.278252005577087">
        <ele>9.27</ele>
        <time>2023-08-30T07:28:27Z</time>
      </trkpt>
      <trkpt lat="56.580406995490193" lon="-6.278267009183765">
        <ele>9.27</ele>
        <time>2023-08-30T07:28:44Z</time>
      </trkpt>
      <trkpt lat="56.580405989661813" lon="-6.278233984485269">
        <ele>9.75</ele>
        <time>2023-08-30T07:28:59Z</time>
      </trkpt>
      <trkpt lat="56.580394003540277" lon="-6.278061987832189">
        <ele>36.189999999999998</ele>
        <time>2023-08-30T07:41:32Z</time>
      </trkpt>
      <trkpt lat="56.580366007983685" lon="-6.278147986158729">
        <ele>22.25</ele>
        <time>2023-08-30T07:42:06Z</time>
      </trkpt>
      <trkpt lat="56.580371959134936" lon="-6.278154021129012">
        <ele>21.77</ele>
        <time>2023-08-30T07:42:08Z</time>
      </trkpt>
      <trkpt lat="56.580370031297207" lon="-6.277897031977773">
        <ele>21.289999999999999</ele>
        <time>2023-08-30T07:42:13Z</time>
      </trkpt>
      <trkpt lat="56.580299036577344" lon="-6.276840995997191">
        <ele>16</ele>
        <time>2023-08-30T07:42:29Z</time>
      </trkpt>
      <trkpt lat="56.580299036577344" lon="-6.276840995997191">
        <ele>15.52</ele>
        <time>2023-08-30T07:42:30Z</time>
      </trkpt>
      <trkpt lat="56.58012100495398" lon="-6.276934035122395">
        <ele>13.6</ele>
        <time>2023-08-30T07:42:35Z</time>
      </trkpt>
      <trkpt lat="56.579436035826802" lon="-6.277063032612205">
        <ele>9.27</ele>
        <time>2023-08-30T07:42:44Z</time>
      </trkpt>
      <trkpt lat="56.579350959509611" lon="-6.277116006240249">
        <ele>8.789999999999999</ele>
        <time>2023-08-30T07:42:45Z</time>
      </trkpt>
      <trkpt lat="56.578996991738677" lon="-6.277332007884979">
        <ele>6.39</ele>
        <time>2023-08-30T07:42:49Z</time>
      </trkpt>
      <trkpt lat="56.578910993412137" lon="-6.277384981513023">
        <ele>5.91</ele>
        <time>2023-08-30T07:42:50Z</time>
      </trkpt>
      <trkpt lat="56.578818038105965" lon="-6.27744197845459">
        <ele>5.42</ele>
        <time>2023-08-30T07:42:51Z</time>
      </trkpt>
      <trkpt lat="56.578736985102296" lon="-6.277438038960099">
        <ele>4.46</ele>
        <time>2023-08-30T07:42:52Z</time>
      </trkpt>
      <trkpt lat="56.578645035624504" lon="-6.277433009818196">
        <ele>4.46</ele>
        <time>2023-08-30T07:42:53Z</time>
      </trkpt>
      <trkpt lat="56.577291022986174" lon="-6.277357991784811">
        <ele>0.14</ele>
        <time>2023-08-30T07:43:08Z</time>
      </trkpt>
      <trkpt lat="56.576847033575177" lon="-6.277344999834895">
        <ele>-1.3</ele>
        <time>2023-08-30T07:43:14Z</time>
      </trkpt>
      <trkpt lat="56.576641006395221" lon="-6.277461005374789">
        <ele>-2.75</ele>
        <time>2023-08-30T07:43:17Z</time>
      </trkpt>
      <trkpt lat="56.576572023332119" lon="-6.277498975396156">
        <ele>-3.23</ele>
        <time>2023-08-30T07:43:18Z</time>
      </trkpt>
      <trkpt lat="56.576006999239326" lon="-6.277913963422179">
        <ele>-9</ele>
        <time>2023-08-30T07:43:26Z</time>
      </trkpt>
      <trkpt lat="56.575950002297759" lon="-6.278013959527016">
        <ele>-9.960000000000001</ele>
        <time>2023-08-30T07:43:27Z</time>
      </trkpt>
      <trkpt lat="56.575891999527812" lon="-6.278115967288613">
        <ele>-10.44</ele>
        <time>2023-08-30T07:43:28Z</time>
      </trkpt>
      <trkpt lat="56.575835002586246" lon="-6.278215041384101">
        <ele>-11.4</ele>
        <time>2023-08-30T07:43:29Z</time>
      </trkpt>
      <trkpt lat="56.575814969837666" lon="-6.278307996690273">
        <ele>-11.880000000000001</ele>
        <time>2023-08-30T07:43:30Z</time>
      </trkpt>
      <trkpt lat="56.575785968452692" lon="-6.278438000008464">
        <ele>-12.359999999999999</ele>
        <time>2023-08-30T07:43:31Z</time>
      </trkpt>
      <trkpt lat="56.575755961239338" lon="-6.278571020811796">
        <ele>-13.32</ele>
        <time>2023-08-30T07:43:32Z</time>
      </trkpt>
      <trkpt lat="56.575754033401608" lon="-6.27866598777473">
        <ele>-13.800000000000001</ele>
        <time>2023-08-30T07:43:33Z</time>
      </trkpt>
      <trkpt lat="56.575764007866383" lon="-6.278807977214456">
        <ele>-13.800000000000001</ele>
        <time>2023-08-30T07:43:34Z</time>
      </trkpt>
      <trkpt lat="56.575774988159537" lon="-6.278954995796084">
        <ele>-14.279999999999999</ele>
        <time>2023-08-30T07:43:35Z</time>
      </trkpt>
      <trkpt lat="56.575792003422976" lon="-6.27920201048255">
        <ele>-14.279999999999999</ele>
        <time>2023-08-30T07:43:36Z</time>
      </trkpt>
      <trkpt lat="56.575804995372891" lon="-6.279262024909258">
        <ele>-14.76</ele>
        <time>2023-08-30T07:43:37Z</time>
      </trkpt>
      <trkpt lat="56.575832990929484" lon="-6.2793979793787">
        <ele>-15.24</ele>
        <time>2023-08-30T07:43:38Z</time>
      </trkpt>
      <trkpt lat="56.575885964557528" lon="-6.279656980186701">
        <ele>-16.210000000000001</ele>
        <time>2023-08-30T07:43:40Z</time>
      </trkpt>
      <trkpt lat="56.575911026448011" lon="-6.279779020696878">
        <ele>-16.690000000000001</ele>
        <time>2023-08-30T07:43:41Z</time>
      </trkpt>
      <trkpt lat="56.575998030602932" lon="-6.280267015099526">
        <ele>-18.609999999999999</ele>
        <time>2023-08-30T07:43:45Z</time>
      </trkpt>
      <trkpt lat="56.576011022552848" lon="-6.280388971790671">
        <ele>-19.09</ele>
        <time>2023-08-30T07:43:46Z</time>
      </trkpt>
      <trkpt lat="56.576028959825635" lon="-6.280553005635738">
        <ele>-19.57</ele>
        <time>2023-08-30T07:43:47Z</time>
      </trkpt>
      <trkpt lat="56.576018985360861" lon="-6.280668005347252">
        <ele>-19.57</ele>
        <time>2023-08-30T07:43:48Z</time>
      </trkpt>
      <trkpt lat="56.576006999239326" lon="-6.280806977301836">
        <ele>-19.57</ele>
        <time>2023-08-30T07:43:49Z</time>
      </trkpt>
      <trkpt lat="56.575825028121471" lon="-6.282904967665672">
        <ele>-7.55</ele>
        <time>2023-08-30T07:44:02Z</time>
      </trkpt>
      <trkpt lat="56.575486985966563" lon="-6.284632980823517">
        <ele>3.5</ele>
        <time>2023-08-30T07:44:13Z</time>
      </trkpt>
      <trkpt lat="56.575255980715156" lon="-6.285563036799431">
        <ele>5.91</ele>
        <time>2023-08-30T07:44:19Z</time>
      </trkpt>
      <trkpt lat="56.575196972116828" lon="-6.285694967955351">
        <ele>5.91</ele>
        <time>2023-08-30T07:44:20Z</time>
      </trkpt>
      <trkpt lat="56.5751379635185" lon="-6.285826982930303">
        <ele>6.39</ele>
        <time>2023-08-30T07:44:21Z</time>
      </trkpt>
      <trkpt lat="56.574990022927523" lon="-6.286217998713255">
        <ele>7.83</ele>
        <time>2023-08-30T07:44:24Z</time>
      </trkpt>
      <trkpt lat="56.574961021542549" lon="-6.286343978717923">
        <ele>8.310000000000001</ele>
        <time>2023-08-30T07:44:25Z</time>
      </trkpt>
      <trkpt lat="56.574853984639049" lon="-6.286772964522243">
        <ele>10.23</ele>
        <time>2023-08-30T07:44:29Z</time>
      </trkpt>
      <trkpt lat="56.574818026274443" lon="-6.286864997819066">
        <ele>10.710000000000001</ele>
        <time>2023-08-30T07:44:30Z</time>
      </trkpt>
      <trkpt lat="56.574740996584296" lon="-6.287059038877487">
        <ele>11.67</ele>
        <time>2023-08-30T07:44:32Z</time>
      </trkpt>
      <trkpt lat="56.57442701049149" lon="-6.287665972486138">
        <ele>13.6</ele>
        <time>2023-08-30T07:44:38Z</time>
      </trkpt>
      <trkpt lat="56.574357021600008" lon="-6.287761023268104">
        <ele>13.6</ele>
        <time>2023-08-30T07:44:39Z</time>
      </trkpt>
      <trkpt lat="56.574282003566623" lon="-6.287864036858082">
        <ele>13.6</ele>
        <time>2023-08-30T07:44:40Z</time>
      </trkpt>
      <trkpt lat="56.573401987552643" lon="-6.288751009851694">
        <ele>16.48</ele>
        <time>2023-08-30T07:44:48Z</time>
      </trkpt>
      <trkpt lat="56.572604030370712" lon="-6.289519965648651">
        <ele>17.440000000000001</ele>
        <time>2023-08-30T07:44:56Z</time>
      </trkpt>
      <trkpt lat="56.571711022406816" lon="-6.290035033598542">
        <ele>15.52</ele>
        <time>2023-08-30T07:45:05Z</time>
      </trkpt>
      <trkpt lat="56.571287987753749" lon="-6.290186997503042">
        <ele>15.039999999999999</ele>
        <time>2023-08-30T07:45:09Z</time>
      </trkpt>
      <trkpt lat="56.571216993033886" lon="-6.290262015536428">
        <ele>15.039999999999999</ele>
        <time>2023-08-30T07:45:10Z</time>
      </trkpt>
      <trkpt lat="56.571147004142404" lon="-6.290338039398193">
        <ele>15.52</ele>
        <time>2023-08-30T07:45:11Z</time>
      </trkpt>
      <trkpt lat="56.570996968075633" lon="-6.290497966110706">
        <ele>16.960000000000001</ele>
        <time>2023-08-30T07:45:13Z</time>
      </trkpt>
      <trkpt lat="56.570896971970797" lon="-6.290539959445596">
        <ele>17.440000000000001</ele>
        <time>2023-08-30T07:45:14Z</time>
      </trkpt>
      <trkpt lat="56.570798987522721" lon="-6.290571978315711">
        <ele>17.920000000000002</ele>
        <time>2023-08-30T07:45:15Z</time>
      </trkpt>
      <trkpt lat="56.570613998919725" lon="-6.290692007169128">
        <ele>18.879999999999999</ele>
        <time>2023-08-30T07:45:17Z</time>
      </trkpt>
      <trkpt lat="56.570528000593185" lon="-6.290764007717371">
        <ele>19.359999999999999</ele>
        <time>2023-08-30T07:45:18Z</time>
      </trkpt>
      <trkpt lat="56.570443008095026" lon="-6.290836008265615">
        <ele>20.32</ele>
        <time>2023-08-30T07:45:19Z</time>
      </trkpt>
      <trkpt lat="56.570274028927088" lon="-6.290967017412186">
        <ele>21.289999999999999</ele>
        <time>2023-08-30T07:45:21Z</time>
      </trkpt>
      <trkpt lat="56.570178978145123" lon="-6.291025020182133">
        <ele>21.77</ele>
        <time>2023-08-30T07:45:22Z</time>
      </trkpt>
      <trkpt lat="56.569128977134824" lon="-6.291725998744369">
        <ele>25.609999999999999</ele>
        <time>2023-08-30T07:45:31Z</time>
      </trkpt>
      <trkpt lat="56.569027975201607" lon="-6.291853990405798">
        <ele>26.09</ele>
        <time>2023-08-30T07:45:32Z</time>
      </trkpt>
      <trkpt lat="56.56892697326839" lon="-6.291979970410466">
        <ele>26.57</ele>
        <time>2023-08-30T07:45:33Z</time>
      </trkpt>
      <trkpt lat="56.568304030224681" lon="-6.292763007804751">
        <ele>29.940000000000001</ele>
        <time>2023-08-30T07:45:40Z</time>
      </trkpt>
      <trkpt lat="56.568290032446384" lon="-6.292842971161008">
        <ele>30.420000000000002</ele>
        <time>2023-08-30T07:45:41Z</time>
      </trkpt>
      <trkpt lat="56.568276034668088" lon="-6.292923018336296">
        <ele>30.899999999999999</ele>
        <time>2023-08-30T07:45:42Z</time>
      </trkpt>
      <trkpt lat="56.56826295889914" lon="-6.292999964207411">
        <ele>31.379999999999999</ele>
        <time>2023-08-30T07:45:43Z</time>
      </trkpt>
      <trkpt lat="56.568248039111495" lon="-6.293086968362331">
        <ele>31.859999999999999</ele>
        <time>2023-08-30T07:45:44Z</time>
      </trkpt>
      <trkpt lat="56.568231023848057" lon="-6.293188976123929">
        <ele>31.859999999999999</ele>
        <time>2023-08-30T07:45:45Z</time>
      </trkpt>
      <trkpt lat="56.568211996927857" lon="-6.293300036340952">
        <ele>32.340000000000003</ele>
        <time>2023-08-30T07:45:46Z</time>
      </trkpt>
      <trkpt lat="56.568192970007658" lon="-6.293411012738943">
        <ele>32.340000000000003</ele>
        <time>2023-08-30T07:45:47Z</time>
      </trkpt>
      <trkpt lat="56.568175032734871" lon="-6.293514026328921">
        <ele>32.340000000000003</ele>
        <time>2023-08-30T07:45:48Z</time>
      </trkpt>
      <trkpt lat="56.568119041621685" lon="-6.293604969978333">
        <ele>32.340000000000003</ele>
        <time>2023-08-30T07:45:49Z</time>
      </trkpt>
      <trkpt lat="56.568061960861087" lon="-6.293697003275156">
        <ele>32.82</ele>
        <time>2023-08-30T07:45:50Z</time>
      </trkpt>
      <trkpt lat="56.567999012768269" lon="-6.293800016865134">
        <ele>32.82</ele>
        <time>2023-08-30T07:45:51Z</time>
      </trkpt>
      <trkpt lat="56.567928018048406" lon="-6.293915016576648">
        <ele>32.340000000000003</ele>
        <time>2023-08-30T07:45:52Z</time>
      </trkpt>
      <trkpt lat="56.56785300001502" lon="-6.294037979096174">
        <ele>32.340000000000003</ele>
        <time>2023-08-30T07:45:53Z</time>
      </trkpt>
      <trkpt lat="56.567231984809041" lon="-6.294883964583278">
        <ele>31.379999999999999</ele>
        <time>2023-08-30T07:46:01Z</time>
      </trkpt>
      <trkpt lat="56.566650029271841" lon="-6.29557597450912">
        <ele>30.899999999999999</ele>
        <time>2023-08-30T07:46:08Z</time>
      </trkpt>
      <trkpt lat="56.566570987924933" lon="-6.295617967844009">
        <ele>30.420000000000002</ele>
        <time>2023-08-30T07:46:09Z</time>
      </trkpt>
      <trkpt lat="56.566492030397058" lon="-6.29566197283566">
        <ele>30.420000000000002</ele>
        <time>2023-08-30T07:46:10Z</time>
      </trkpt>
      <trkpt lat="56.566343000158668" lon="-6.295762974768877">
        <ele>29.460000000000001</ele>
        <time>2023-08-30T07:46:12Z</time>
      </trkpt>
      <trkpt lat="56.566287009045482" lon="-6.295809997245669">
        <ele>29.460000000000001</ele>
        <time>2023-08-30T07:46:13Z</time>
      </trkpt>
      <trkpt lat="56.566233029589057" lon="-6.295929020270705">
        <ele>28.98</ele>
        <time>2023-08-30T07:46:14Z</time>
      </trkpt>
      <trkpt lat="56.566188018769026" lon="-6.296030022203922">
        <ele>28.98</ele>
        <time>2023-08-30T07:46:15Z</time>
      </trkpt>
      <trkpt lat="56.566142002120614" lon="-6.29613202996552">
        <ele>28.98</ele>
        <time>2023-08-30T07:46:16Z</time>
      </trkpt>
      <trkpt lat="56.566092967987061" lon="-6.296239988878369">
        <ele>28.98</ele>
        <time>2023-08-30T07:46:17Z</time>
      </trkpt>
      <trkpt lat="56.566028008237481" lon="-6.296319030225277">
        <ele>28.98</ele>
        <time>2023-08-30T07:46:18Z</time>
      </trkpt>
      <trkpt lat="56.565965982154012" lon="-6.296396981924772">
        <ele>28.98</ele>
        <time>2023-08-30T07:46:19Z</time>
      </trkpt>
      <trkpt lat="56.565908985212445" lon="-6.296465964987874">
        <ele>28.5</ele>
        <time>2023-08-30T07:46:20Z</time>
      </trkpt>
      <trkpt lat="56.565851988270879" lon="-6.296536037698388">
        <ele>28.5</ele>
        <time>2023-08-30T07:46:21Z</time>
      </trkpt>
      <trkpt lat="56.565812006592751" lon="-6.296599991619587">
        <ele>28.02</ele>
        <time>2023-08-30T07:46:22Z</time>
      </trkpt>
      <trkpt lat="56.565797002986073" lon="-6.296707028523088">
        <ele>28.02</ele>
        <time>2023-08-30T07:46:23Z</time>
      </trkpt>
      <trkpt lat="56.565801026299596" lon="-6.296795960515738">
        <ele>27.530000000000001</ele>
        <time>2023-08-30T07:46:24Z</time>
      </trkpt>
      <trkpt lat="56.565814018249512" lon="-6.296908026561141">
        <ele>27.530000000000001</ele>
        <time>2023-08-30T07:46:25Z</time>
      </trkpt>
      <trkpt lat="56.565826004371047" lon="-6.297011962160468">
        <ele>27.050000000000001</ele>
        <time>2023-08-30T07:46:26Z</time>
      </trkpt>
      <trkpt lat="56.565835978835821" lon="-6.297097038477659">
        <ele>26.57</ele>
        <time>2023-08-30T07:46:27Z</time>
      </trkpt>
      <trkpt lat="56.565808989107609" lon="-6.297213966026902">
        <ele>26.57</ele>
        <time>2023-08-30T07:46:28Z</time>
      </trkpt>
      <trkpt lat="56.56578803434968" lon="-6.297305999323726">
        <ele>26.57</ele>
        <time>2023-08-30T07:46:29Z</time>
      </trkpt>
      <trkpt lat="56.565758027136326" lon="-6.297394009307027">
        <ele>26.09</ele>
        <time>2023-08-30T07:46:30Z</time>
      </trkpt>
      <trkpt lat="56.565706981346011" lon="-6.297457041218877">
        <ele>26.09</ele>
        <time>2023-08-30T07:46:31Z</time>
      </trkpt>
      <trkpt lat="56.565649984404445" lon="-6.29752904176712">
        <ele>26.09</ele>
        <time>2023-08-30T07:46:32Z</time>
      </trkpt>
      <trkpt lat="56.565030980855227" lon="-6.298223985359073">
        <ele>27.530000000000001</ele>
        <time>2023-08-30T07:46:40Z</time>
      </trkpt>
      <trkpt lat="56.564941965043545" lon="-6.298286011442542">
        <ele>28.02</ele>
        <time>2023-08-30T07:46:41Z</time>
      </trkpt>
      <trkpt lat="56.564856972545385" lon="-6.29834502004087">
        <ele>28.02</ele>
        <time>2023-08-30T07:46:42Z</time>
      </trkpt>
      <trkpt lat="56.56469302251935" lon="-6.298458008095622">
        <ele>28.98</ele>
        <time>2023-08-30T07:46:44Z</time>
      </trkpt>
      <trkpt lat="56.564612975344062" lon="-6.298512993380427">
        <ele>29.460000000000001</ele>
        <time>2023-08-30T07:46:45Z</time>
      </trkpt>
      <trkpt lat="56.564529994502664" lon="-6.298621958121657">
        <ele>29.940000000000001</ele>
        <time>2023-08-30T07:46:46Z</time>
      </trkpt>
      <trkpt lat="56.564449025318027" lon="-6.298726983368397">
        <ele>30.420000000000002</ele>
        <time>2023-08-30T07:46:47Z</time>
      </trkpt>
      <trkpt lat="56.564368978142738" lon="-6.298832008615136">
        <ele>30.899999999999999</ele>
        <time>2023-08-30T07:46:48Z</time>
      </trkpt>
      <trkpt lat="56.564058009535074" lon="-6.299238028004766">
        <ele>31.859999999999999</ele>
        <time>2023-08-30T07:46:52Z</time>
      </trkpt>
      <trkpt lat="56.563992965966463" lon="-6.299324026331306">
        <ele>31.859999999999999</ele>
        <time>2023-08-30T07:46:53Z</time>
      </trkpt>
      <trkpt lat="56.563724996522069" lon="-6.299672964960337">
        <ele>31.859999999999999</ele>
        <time>2023-08-30T07:46:57Z</time>
      </trkpt>
      <trkpt lat="56.563655007630587" lon="-6.29976499825716">
        <ele>32.340000000000003</ele>
        <time>2023-08-30T07:46:58Z</time>
      </trkpt>
      <trkpt lat="56.563585018739104" lon="-6.299857031553984">
        <ele>32.82</ele>
        <time>2023-08-30T07:46:59Z</time>
      </trkpt>
      <trkpt lat="56.563510000705719" lon="-6.299905981868506">
        <ele>32.82</ele>
        <time>2023-08-30T07:47:00Z</time>
      </trkpt>
      <trkpt lat="56.563434982672334" lon="-6.299932971596718">
        <ele>33.299999999999997</ele>
        <time>2023-08-30T07:47:01Z</time>
      </trkpt>
      <trkpt lat="56.563357030972838" lon="-6.299961972981691">
        <ele>33.299999999999997</ele>
        <time>2023-08-30T07:47:02Z</time>
      </trkpt>
      <trkpt lat="56.563280001282692" lon="-6.299989968538284">
        <ele>33.780000000000001</ele>
        <time>2023-08-30T07:47:03Z</time>
      </trkpt>
      <trkpt lat="56.563128037378192" lon="-6.300059035420418">
        <ele>33.299999999999997</ele>
        <time>2023-08-30T07:47:05Z</time>
      </trkpt>
      <trkpt lat="56.563052013516426" lon="-6.300127012655139">
        <ele>32.82</ele>
        <time>2023-08-30T07:47:06Z</time>
      </trkpt>
      <trkpt lat="56.562524959445" lon="-6.300593968480825">
        <ele>28.98</ele>
        <time>2023-08-30T07:47:13Z</time>
      </trkpt>
      <trkpt lat="56.561405975371599" lon="-6.301055978983641">
        <ele>27.050000000000001</ele>
        <time>2023-08-30T07:47:25Z</time>
      </trkpt>
      <trkpt lat="56.560704996809363" lon="-6.30092597566545">
        <ele>34.259999999999998</ele>
        <time>2023-08-30T07:47:33Z</time>
      </trkpt>
      <trkpt lat="56.560629978775978" lon="-6.300868978723884">
        <ele>35.710000000000001</ele>
        <time>2023-08-30T07:47:34Z</time>
      </trkpt>
      <trkpt lat="56.560324039310217" lon="-6.300639985129237">
        <ele>39.549999999999997</ele>
        <time>2023-08-30T07:47:38Z</time>
      </trkpt>
      <trkpt lat="56.560250027105212" lon="-6.300609977915883">
        <ele>40.990000000000002</ele>
        <time>2023-08-30T07:47:39Z</time>
      </trkpt>
      <trkpt lat="56.560007035732269" lon="-6.30051601678133">
        <ele>43.880000000000003</ele>
        <time>2023-08-30T07:47:42Z</time>
      </trkpt>
      <trkpt lat="56.559922965243459" lon="-6.300474023446441">
        <ele>44.359999999999999</ele>
        <time>2023-08-30T07:47:43Z</time>
      </trkpt>
      <trkpt lat="56.559845013543963" lon="-6.300379978492856">
        <ele>44.840000000000003</ele>
        <time>2023-08-30T07:47:44Z</time>
      </trkpt>
      <trkpt lat="56.558946976438165" lon="-6.299304999411106">
        <ele>48.200000000000003</ele>
        <time>2023-08-30T07:47:52Z</time>
      </trkpt>
      <trkpt lat="56.557789016515017" lon="-6.298020975664258">
        <ele>56.859999999999999</ele>
        <time>2023-08-30T07:48:03Z</time>
      </trkpt>
      <trkpt lat="56.557562034577131" lon="-6.297843027859926">
        <ele>59.259999999999998</ele>
        <time>2023-08-30T07:48:06Z</time>
      </trkpt>
      <trkpt lat="56.557479975745082" lon="-6.297791982069612">
        <ele>60.219999999999999</ele>
        <time>2023-08-30T07:48:07Z</time>
      </trkpt>
      <trkpt lat="56.556331990286708" lon="-6.297302981838584">
        <ele>65.989999999999995</ele>
        <time>2023-08-30T07:48:18Z</time>
      </trkpt>
      <trkpt lat="56.555322976782918" lon="-6.296719014644623">
        <ele>74.640000000000001</ele>
        <time>2023-08-30T07:48:28Z</time>
      </trkpt>
      <trkpt lat="56.553503014147282" lon="-6.295486958697438">
        <ele>79.450000000000003</ele>
        <time>2023-08-30T07:48:43Z</time>
      </trkpt>
      <trkpt lat="56.552536999806762" lon="-6.295073982328177">
        <ele>78.480000000000004</ele>
        <time>2023-08-30T07:48:52Z</time>
      </trkpt>
      <trkpt lat="56.552443038672209" lon="-6.295042969286442">
        <ele>78.480000000000004</ele>
        <time>2023-08-30T07:48:53Z</time>
      </trkpt>
      <trkpt lat="56.552360979840159" lon="-6.294963005930185">
        <ele>78.480000000000004</ele>
        <time>2023-08-30T07:48:54Z</time>
      </trkpt>
      <trkpt lat="56.552273975685239" lon="-6.294862003996968">
        <ele>78.480000000000004</ele>
        <time>2023-08-30T07:48:55Z</time>
      </trkpt>
      <trkpt lat="56.551925959065557" lon="-6.2944579962641">
        <ele>79.450000000000003</ele>
        <time>2023-08-30T07:48:59Z</time>
      </trkpt>
      <trkpt lat="56.551855970174074" lon="-6.294332016259432">
        <ele>79.450000000000003</ele>
        <time>2023-08-30T07:49:00Z</time>
      </trkpt>
      <trkpt lat="56.551795033738017" lon="-6.29417703486979">
        <ele>79.450000000000003</ele>
        <time>2023-08-30T07:49:01Z</time>
      </trkpt>
      <trkpt lat="56.551736025139689" lon="-6.294025992974639">
        <ele>79.930000000000007</ele>
        <time>2023-08-30T07:49:02Z</time>
      </trkpt>
      <trkpt lat="56.551691014319658" lon="-6.293882997706533">
        <ele>79.930000000000007</ele>
        <time>2023-08-30T07:49:03Z</time>
      </trkpt>
      <trkpt lat="56.551671987399459" lon="-6.293718963861466">
        <ele>80.409999999999997</ele>
        <time>2023-08-30T07:49:04Z</time>
      </trkpt>
      <trkpt lat="56.551652960479259" lon="-6.29355501383543">
        <ele>80.409999999999997</ele>
        <time>2023-08-30T07:49:05Z</time>
      </trkpt>
      <trkpt lat="56.551647009328008" lon="-6.293238010257483">
        <ele>80.409999999999997</ele>
        <time>2023-08-30T07:49:07Z</time>
      </trkpt>
      <trkpt lat="56.551666036248207" lon="-6.293088980019093">
        <ele>80.409999999999997</ele>
        <time>2023-08-30T07:49:08Z</time>
      </trkpt>
      <trkpt lat="56.55167399905622" lon="-6.293019996955991">
        <ele>79.930000000000007</ele>
        <time>2023-08-30T07:49:09Z</time>
      </trkpt>
      <trkpt lat="56.551738036796451" lon="-6.292949002236128">
        <ele>79.930000000000007</ele>
        <time>2023-08-30T07:49:10Z</time>
      </trkpt>
      <trkpt lat="56.551794027909636" lon="-6.292886976152659">
        <ele>79.930000000000007</ele>
        <time>2023-08-30T07:49:11Z</time>
      </trkpt>
      <trkpt lat="56.551867034286261" lon="-6.292806006968021">
        <ele>79.930000000000007</ele>
        <time>2023-08-30T07:49:12Z</time>
      </trkpt>
      <trkpt lat="56.551932999864221" lon="-6.292754961177707">
        <ele>79.930000000000007</ele>
        <time>2023-08-30T07:49:13Z</time>
      </trkpt>
      <trkpt lat="56.552698016166687" lon="-6.292120032012463">
        <ele>83.769999999999996</ele>
        <time>2023-08-30T07:49:21Z</time>
      </trkpt>
      <trkpt lat="56.552759036421776" lon="-6.292011989280582">
        <ele>84.25</ele>
        <time>2023-08-30T07:49:22Z</time>
      </trkpt>
      <trkpt lat="56.552816033363342" lon="-6.291911993175745">
        <ele>84.730000000000004</ele>
        <time>2023-08-30T07:49:23Z</time>
      </trkpt>
      <trkpt lat="56.552854003384709" lon="-6.291778972372413">
        <ele>85.209999999999994</ele>
        <time>2023-08-30T07:49:24Z</time>
      </trkpt>
      <trkpt lat="56.55287797562778" lon="-6.291656009852886">
        <ele>85.689999999999998</ele>
        <time>2023-08-30T07:49:25Z</time>
      </trkpt>
      <trkpt lat="56.552900020033121" lon="-6.291546039283276">
        <ele>86.180000000000007</ele>
        <time>2023-08-30T07:49:26Z</time>
      </trkpt>
      <trkpt lat="56.552918963134289" lon="-6.291454005986452">
        <ele>86.180000000000007</ele>
        <time>2023-08-30T07:49:27Z</time>
      </trkpt>
      <trkpt lat="56.552872024476528" lon="-6.291339006274939">
        <ele>86.659999999999997</ele>
        <time>2023-08-30T07:49:28Z</time>
      </trkpt>
      <trkpt lat="56.552835982292891" lon="-6.291247978806496">
        <ele>87.140000000000001</ele>
        <time>2023-08-30T07:49:29Z</time>
      </trkpt>
      <trkpt lat="56.552779991179705" lon="-6.291197016835213">
        <ele>87.620000000000005</ele>
        <time>2023-08-30T07:49:30Z</time>
      </trkpt>
      <trkpt lat="56.552707990631461" lon="-6.291156029328704">
        <ele>88.099999999999994</ele>
        <time>2023-08-30T07:49:31Z</time>
      </trkpt>
      <trkpt lat="56.552614029496908" lon="-6.291167009621859">
        <ele>88.099999999999994</ele>
        <time>2023-08-30T07:49:32Z</time>
      </trkpt>
      <trkpt lat="56.552506992593408" lon="-6.291202967986465">
        <ele>89.060000000000002</ele>
        <time>2023-08-30T07:49:33Z</time>
      </trkpt>
      <trkpt lat="56.552402973175049" lon="-6.291267005726695">
        <ele>89.540000000000006</ele>
        <time>2023-08-30T07:49:34Z</time>
      </trkpt>
      <trkpt lat="56.552305994555354" lon="-6.291326014325023">
        <ele>90.5</ele>
        <time>2023-08-30T07:49:35Z</time>
      </trkpt>
      <trkpt lat="56.552219996228814" lon="-6.291378987953067">
        <ele>90.980000000000004</ele>
        <time>2023-08-30T07:49:36Z</time>
      </trkpt>
      <trkpt lat="56.552156964316964" lon="-6.291403966024518">
        <ele>91.459999999999994</ele>
        <time>2023-08-30T07:49:37Z</time>
      </trkpt>
      <trkpt lat="56.552097033709288" lon="-6.29136398434639">
        <ele>91.939999999999998</ele>
        <time>2023-08-30T07:49:38Z</time>
      </trkpt>
      <trkpt lat="56.552043976262212" lon="-6.291329031810165">
        <ele>92.900000000000006</ele>
        <time>2023-08-30T07:49:39Z</time>
      </trkpt>
      <trkpt lat="56.552025033161044" lon="-6.29125602543354">
        <ele>93.390000000000001</ele>
        <time>2023-08-30T07:49:40Z</time>
      </trkpt>
      <trkpt lat="56.552002988755703" lon="-6.291143959388137">
        <ele>94.349999999999994</ele>
        <time>2023-08-30T07:49:41Z</time>
      </trkpt>
      <trkpt lat="56.552002988755703" lon="-6.291018985211849">
        <ele>94.829999999999998</ele>
        <time>2023-08-30T07:49:42Z</time>
      </trkpt>
      <trkpt lat="56.552015980705619" lon="-6.290853023529053">
        <ele>94.829999999999998</ele>
        <time>2023-08-30T07:49:43Z</time>
      </trkpt>
      <trkpt lat="56.552028972655535" lon="-6.290683960542083">
        <ele>94.829999999999998</ele>
        <time>2023-08-30T07:49:44Z</time>
      </trkpt>
      <trkpt lat="56.552039030939341" lon="-6.290553035214543">
        <ele>94.349999999999994</ele>
        <time>2023-08-30T07:49:45Z</time>
      </trkpt>
      <trkpt lat="56.552012963220477" lon="-6.290373997762799">
        <ele>93.870000000000005</ele>
        <time>2023-08-30T07:49:46Z</time>
      </trkpt>
      <trkpt lat="56.551986979320645" lon="-6.290236031636596">
        <ele>93.390000000000001</ele>
        <time>2023-08-30T07:49:47Z</time>
      </trkpt>
      <trkpt lat="56.551924031227827" lon="-6.290119020268321">
        <ele>93.390000000000001</ele>
        <time>2023-08-30T07:49:48Z</time>
      </trkpt>
      <trkpt lat="56.5518459957093" lon="-6.289973007515073">
        <ele>93.390000000000001</ele>
        <time>2023-08-30T07:49:49Z</time>
      </trkpt>
      <trkpt lat="56.551773995161057" lon="-6.289892960339785">
        <ele>93.390000000000001</ele>
        <time>2023-08-30T07:49:50Z</time>
      </trkpt>
      <trkpt lat="56.551255993545055" lon="-6.289395997300744">
        <ele>92.420000000000002</ele>
        <time>2023-08-30T07:49:55Z</time>
      </trkpt>
      <trkpt lat="56.551132025197148" lon="-6.289304969832301">
        <ele>92.420000000000002</ele>
        <time>2023-08-30T07:49:56Z</time>
      </trkpt>
      <trkpt lat="56.550027038902044" lon="-6.288498966023326">
        <ele>93.870000000000005</ele>
        <time>2023-08-30T07:50:05Z</time>
      </trkpt>
      <trkpt lat="56.549773989245296" lon="-6.288314983248711">
        <ele>94.349999999999994</ele>
        <time>2023-08-30T07:50:07Z</time>
      </trkpt>
      <trkpt lat="56.549636023119092" lon="-6.288213981315494">
        <ele>93.870000000000005</ele>
        <time>2023-08-30T07:50:08Z</time>
      </trkpt>
      <trkpt lat="56.549498979002237" lon="-6.288208030164242">
        <ele>93.870000000000005</ele>
        <time>2023-08-30T07:50:09Z</time>
      </trkpt>
      <trkpt lat="56.548160975798965" lon="-6.288144998252392">
        <ele>97.230000000000004</ele>
        <time>2023-08-30T07:50:19Z</time>
      </trkpt>
      <trkpt lat="56.546848034486175" lon="-6.288070986047387">
        <ele>105.40000000000001</ele>
        <time>2023-08-30T07:50:30Z</time>
      </trkpt>
      <trkpt lat="56.546743009239435" lon="-6.287994962185621">
        <ele>105.88</ele>
        <time>2023-08-30T07:50:31Z</time>
      </trkpt>
      <trkpt lat="56.546633960679173" lon="-6.287917010486126">
        <ele>106.36</ele>
        <time>2023-08-30T07:50:32Z</time>
      </trkpt>
      <trkpt lat="56.546526001766324" lon="-6.287838974967599">
        <ele>106.84</ele>
        <time>2023-08-30T07:50:33Z</time>
      </trkpt>
      <trkpt lat="56.546417959034443" lon="-6.287729004397988">
        <ele>106.84</ele>
        <time>2023-08-30T07:50:34Z</time>
      </trkpt>
      <trkpt lat="56.545569961890578" lon="-6.286671962589026">
        <ele>111.17</ele>
        <time>2023-08-30T07:50:41Z</time>
      </trkpt>
      <trkpt lat="56.545105017721653" lon="-6.286039967089891">
        <ele>117.42</ele>
        <time>2023-08-30T07:50:47Z</time>
      </trkpt>
      <trkpt lat="56.544256014749408" lon="-6.284757032990456">
        <ele>122.22</ele>
        <time>2023-08-30T07:50:55Z</time>
      </trkpt>
      <trkpt lat="56.543197967112064" lon="-6.283157011494041">
        <ele>134.72</ele>
        <time>2023-08-30T07:51:08Z</time>
      </trkpt>
      <trkpt lat="56.54269203543663" lon="-6.282390989363194">
        <ele>144.34</ele>
        <time>2023-08-30T07:51:16Z</time>
      </trkpt>
      <trkpt lat="56.542098009958863" lon="-6.28133000805974">
        <ele>151.53999999999999</ele>
        <time>2023-08-30T07:51:25Z</time>
      </trkpt>
      <trkpt lat="56.541590988636017" lon="-6.280398024246097">
        <ele>155.87</ele>
        <time>2023-08-30T07:51:34Z</time>
      </trkpt>
      <trkpt lat="56.540754977613688" lon="-6.279126992449164">
        <ele>157.78999999999999</ele>
        <time>2023-08-30T07:51:45Z</time>
      </trkpt>
      <trkpt lat="56.539995996281505" lon="-6.278240019455552">
        <ele>164.52000000000001</ele>
        <time>2023-08-30T07:51:55Z</time>
      </trkpt>
      <trkpt lat="56.539457961916924" lon="-6.277409959584475">
        <ele>170.28999999999999</ele>
        <time>2023-08-30T07:52:04Z</time>
      </trkpt>
      <trkpt lat="56.539409011602402" lon="-6.277305018156767">
        <ele>171.25</ele>
        <time>2023-08-30T07:52:05Z</time>
      </trkpt>
      <trkpt lat="56.538881035521626" lon="-6.276184022426605">
        <ele>175.58000000000001</ele>
        <time>2023-08-30T07:52:13Z</time>
      </trkpt>
      <trkpt lat="56.538282986730337" lon="-6.274716015905142">
        <ele>182.78999999999999</ele>
        <time>2023-08-30T07:52:26Z</time>
      </trkpt>
      <trkpt lat="56.538244010880589" lon="-6.274616019800305">
        <ele>183.27000000000001</ele>
        <time>2023-08-30T07:52:27Z</time>
      </trkpt>
      <trkpt lat="56.538139991462231" lon="-6.274202037602663">
        <ele>184.22999999999999</ele>
        <time>2023-08-30T07:52:31Z</time>
      </trkpt>
      <trkpt lat="56.538110990077257" lon="-6.274055019021034">
        <ele>184.71000000000001</ele>
        <time>2023-08-30T07:52:33Z</time>
      </trkpt>
      <trkpt lat="56.538107972592115" lon="-6.273967009037733">
        <ele>185.19</ele>
        <time>2023-08-30T07:52:34Z</time>
      </trkpt>
      <trkpt lat="56.538104033097625" lon="-6.273865001276135">
        <ele>185.66999999999999</ele>
        <time>2023-08-30T07:52:35Z</time>
      </trkpt>
      <trkpt lat="56.538071008399129" lon="-6.273393016308546">
        <ele>185.66999999999999</ele>
        <time>2023-08-30T07:52:39Z</time>
      </trkpt>
      <trkpt lat="56.53805198147893" lon="-6.273279022425413">
        <ele>184.71000000000001</ele>
        <time>2023-08-30T07:52:40Z</time>
      </trkpt>
      <trkpt lat="56.537992972880602" lon="-6.273201992735267">
        <ele>183.75</ele>
        <time>2023-08-30T07:52:41Z</time>
      </trkpt>
      <trkpt lat="56.537929018959403" lon="-6.273151030763984">
        <ele>183.27000000000001</ele>
        <time>2023-08-30T07:52:42Z</time>
      </trkpt>
      <trkpt lat="56.537849977612495" lon="-6.273151030763984">
        <ele>182.31</ele>
        <time>2023-08-30T07:52:43Z</time>
      </trkpt>
      <trkpt lat="56.537765990942717" lon="-6.273151030763984">
        <ele>181.34999999999999</ele>
        <time>2023-08-30T07:52:44Z</time>
      </trkpt>
      <trkpt lat="56.537687033414841" lon="-6.273151030763984">
        <ele>180.38</ele>
        <time>2023-08-30T07:52:45Z</time>
      </trkpt>
      <trkpt lat="56.537614027038217" lon="-6.273151030763984">
        <ele>179.41999999999999</ele>
        <time>2023-08-30T07:52:46Z</time>
      </trkpt>
      <trkpt lat="56.537540014833212" lon="-6.273138038814068">
        <ele>178.46000000000001</ele>
        <time>2023-08-30T07:52:47Z</time>
      </trkpt>
      <trkpt lat="56.537468014284968" lon="-6.273076012730598">
        <ele>177.5</ele>
        <time>2023-08-30T07:52:48Z</time>
      </trkpt>
      <trkpt lat="56.537388972938061" lon="-6.273029996082187">
        <ele>176.06</ele>
        <time>2023-08-30T07:52:49Z</time>
      </trkpt>
      <trkpt lat="56.53732099570334" lon="-6.273067966103554">
        <ele>175.09999999999999</ele>
        <time>2023-08-30T07:52:50Z</time>
      </trkpt>
      <trkpt lat="56.53725603595376" lon="-6.273105014115572">
        <ele>173.66</ele>
        <time>2023-08-30T07:52:51Z</time>
      </trkpt>
      <trkpt lat="56.537194009870291" lon="-6.273135021328926">
        <ele>172.69</ele>
        <time>2023-08-30T07:52:52Z</time>
      </trkpt>
      <trkpt lat="56.53712997213006" lon="-6.273155976086855">
        <ele>171.72999999999999</ele>
        <time>2023-08-30T07:52:53Z</time>
      </trkpt>
      <trkpt lat="56.5370830334723" lon="-6.273171985521913">
        <ele>170.28999999999999</ele>
        <time>2023-08-30T07:52:54Z</time>
      </trkpt>
      <trkpt lat="56.537074986845255" lon="-6.273094033822417">
        <ele>169.33000000000001</ele>
        <time>2023-08-30T07:52:55Z</time>
      </trkpt>
      <trkpt lat="56.5370640065521" lon="-6.272982973605394">
        <ele>168.37</ele>
        <time>2023-08-30T07:52:56Z</time>
      </trkpt>
      <trkpt lat="56.537066018208861" lon="-6.272874008864164">
        <ele>167.41</ele>
        <time>2023-08-30T07:52:57Z</time>
      </trkpt>
      <trkpt lat="56.537074986845255" lon="-6.272719027474523">
        <ele>166.44999999999999</ele>
        <time>2023-08-30T07:52:58Z</time>
      </trkpt>
      <trkpt lat="56.537084961310029" lon="-6.272540995851159">
        <ele>165.96000000000001</ele>
        <time>2023-08-30T07:52:59Z</time>
      </trkpt>
      <trkpt lat="56.537125026807189" lon="-6.27183398231864">
        <ele>163.56</ele>
        <time>2023-08-30T07:53:03Z</time>
      </trkpt>
      <trkpt lat="56.537158973515034" lon="-6.271718982607126">
        <ele>163.56</ele>
        <time>2023-08-30T07:53:04Z</time>
      </trkpt>
      <trkpt lat="56.537195015698671" lon="-6.271612029522657">
        <ele>163.56</ele>
        <time>2023-08-30T07:53:05Z</time>
      </trkpt>
      <trkpt lat="56.537274979054928" lon="-6.271370965987444">
        <ele>162.59999999999999</ele>
        <time>2023-08-30T07:53:07Z</time>
      </trkpt>
      <trkpt lat="56.537317978218198" lon="-6.271242974326015">
        <ele>161.63999999999999</ele>
        <time>2023-08-30T07:53:08Z</time>
      </trkpt>
      <trkpt lat="56.537325019016862" lon="-6.271119005978108">
        <ele>160.68000000000001</ele>
        <time>2023-08-30T07:53:09Z</time>
      </trkpt>
      <trkpt lat="56.53729802928865" lon="-6.271014986559749">
        <ele>159.72</ele>
        <time>2023-08-30T07:53:10Z</time>
      </trkpt>
      <trkpt lat="56.537269027903676" lon="-6.270905015990138">
        <ele>158.75</ele>
        <time>2023-08-30T07:53:11Z</time>
      </trkpt>
      <trkpt lat="56.537232985720038" lon="-6.270768977701664">
        <ele>157.78999999999999</ele>
        <time>2023-08-30T07:53:12Z</time>
      </trkpt>
      <trkpt lat="56.53717003762722" lon="-6.270682979375124">
        <ele>156.83000000000001</ele>
        <time>2023-08-30T07:53:13Z</time>
      </trkpt>
      <trkpt lat="56.536928974092007" lon="-6.270358012989163">
        <ele>153.94999999999999</ele>
        <time>2023-08-30T07:53:16Z</time>
      </trkpt>
      <trkpt lat="56.536850016564131" lon="-6.270263968035579">
        <ele>152.99000000000001</ele>
        <time>2023-08-30T07:53:17Z</time>
      </trkpt>
      <trkpt lat="56.536752032116055" lon="-6.27020001411438">
        <ele>151.53999999999999</ele>
        <time>2023-08-30T07:53:18Z</time>
      </trkpt>
      <trkpt lat="56.536445003002882" lon="-6.269999016076326">
        <ele>148.18000000000001</ele>
        <time>2023-08-30T07:53:21Z</time>
      </trkpt>
      <trkpt lat="56.536345006898046" lon="-6.269908994436264">
        <ele>147.69999999999999</ele>
        <time>2023-08-30T07:53:22Z</time>
      </trkpt>
      <trkpt lat="56.536262026056647" lon="-6.269784020259976">
        <ele>147.22</ele>
        <time>2023-08-30T07:53:23Z</time>
      </trkpt>
      <trkpt lat="56.536181978881359" lon="-6.26966399140656">
        <ele>147.22</ele>
        <time>2023-08-30T07:53:24Z</time>
      </trkpt>
      <trkpt lat="56.536103021353483" lon="-6.269545974209905">
        <ele>146.74000000000001</ele>
        <time>2023-08-30T07:53:25Z</time>
      </trkpt>
      <trkpt lat="56.536022974178195" lon="-6.269425023347139">
        <ele>146.74000000000001</ele>
        <time>2023-08-30T07:53:26Z</time>
      </trkpt>
      <trkpt lat="56.535938987508416" lon="-6.269301977008581">
        <ele>145.78</ele>
        <time>2023-08-30T07:53:27Z</time>
      </trkpt>
      <trkpt lat="56.535189980641007" lon="-6.268357001245022">
        <ele>141.93000000000001</ele>
        <time>2023-08-30T07:53:35Z</time>
      </trkpt>
      <trkpt lat="56.534390011802316" lon="-6.26676200889051">
        <ele>135.68000000000001</ele>
        <time>2023-08-30T07:53:46Z</time>
      </trkpt>
      <trkpt lat="56.534306025132537" lon="-6.266640974208713">
        <ele>134.72</ele>
        <time>2023-08-30T07:53:47Z</time>
      </trkpt>
      <trkpt lat="56.533894976601005" lon="-6.26598902978003">
        <ele>131.36000000000001</ele>
        <time>2023-08-30T07:53:53Z</time>
      </trkpt>
      <trkpt lat="56.533655002713203" lon="-6.265471028164029">
        <ele>127.51000000000001</ele>
        <time>2023-08-30T07:53:57Z</time>
      </trkpt>
      <trkpt lat="56.533594988286495" lon="-6.265340019017458">
        <ele>126.55</ele>
        <time>2023-08-30T07:53:58Z</time>
      </trkpt>
      <trkpt lat="56.533515024930239" lon="-6.265271035954356">
        <ele>125.59</ele>
        <time>2023-08-30T07:53:59Z</time>
      </trkpt>
      <trkpt lat="56.53343103826046" lon="-6.265215966850519">
        <ele>125.11</ele>
        <time>2023-08-30T07:54:00Z</time>
      </trkpt>
      <trkpt lat="56.53334503993392" lon="-6.265157964080572">
        <ele>124.15000000000001</ele>
        <time>2023-08-30T07:54:01Z</time>
      </trkpt>
      <trkpt lat="56.532545993104577" lon="-6.264625964686275">
        <ele>119.34</ele>
        <time>2023-08-30T07:54:10Z</time>
      </trkpt>
      <trkpt lat="56.532477010041475" lon="-6.264564022421837">
        <ele>118.86</ele>
        <time>2023-08-30T07:54:11Z</time>
      </trkpt>
      <trkpt lat="56.532424036413431" lon="-6.264465032145381">
        <ele>118.86</ele>
        <time>2023-08-30T07:54:12Z</time>
      </trkpt>
      <trkpt lat="56.532368967309594" lon="-6.264362018555403">
        <ele>118.38</ele>
        <time>2023-08-30T07:54:13Z</time>
      </trkpt>
      <trkpt lat="56.532309958711267" lon="-6.26425196416676">
        <ele>117.90000000000001</ele>
        <time>2023-08-30T07:54:14Z</time>
      </trkpt>
      <trkpt lat="56.531644016504288" lon="-6.263041030615568">
        <ele>111.65000000000001</ele>
        <time>2023-08-30T07:54:23Z</time>
      </trkpt>
      <trkpt lat="56.531083015725017" lon="-6.262148022651672">
        <ele>108.29000000000001</ele>
        <time>2023-08-30T07:54:31Z</time>
      </trkpt>
      <trkpt lat="56.530330991372466" lon="-6.260828962549567">
        <ele>99.629999999999995</ele>
        <time>2023-08-30T07:54:41Z</time>
      </trkpt>
      <trkpt lat="56.529721040278673" lon="-6.259336983785033">
        <ele>94.829999999999998</ele>
        <time>2023-08-30T07:54:52Z</time>
      </trkpt>
      <trkpt lat="56.52930898591876" lon="-6.258049020543695">
        <ele>85.209999999999994</ele>
        <time>2023-08-30T07:55:02Z</time>
      </trkpt>
      <trkpt lat="56.529091978445649" lon="-6.256223022937775">
        <ele>80.409999999999997</ele>
        <time>2023-08-30T07:55:12Z</time>
      </trkpt>
      <trkpt lat="56.529058031737804" lon="-6.255898978561163">
        <ele>79.450000000000003</ele>
        <time>2023-08-30T07:55:19Z</time>
      </trkpt>
      <trkpt lat="56.529047973453999" lon="-6.255843993276358">
        <ele>79.450000000000003</ele>
        <time>2023-08-30T07:55:37Z</time>
      </trkpt>
      <trkpt lat="56.52898502536118" lon="-6.255473010241985">
        <ele>78</ele>
        <time>2023-08-30T07:55:58Z</time>
      </trkpt>
      <trkpt lat="56.528776986524463" lon="-6.254261992871761">
        <ele>73.680000000000007</ele>
        <time>2023-08-30T07:56:05Z</time>
      </trkpt>
      <trkpt lat="56.52864002622664" lon="-6.253151977434754">
        <ele>73.200000000000003</ele>
        <time>2023-08-30T07:56:12Z</time>
      </trkpt>
      <trkpt lat="56.528629967942834" lon="-6.253009987995029">
        <ele>72.719999999999999</ele>
        <time>2023-08-30T07:56:13Z</time>
      </trkpt>
      <trkpt lat="56.528633991256356" lon="-6.25271201133728">
        <ele>72.239999999999995</ele>
        <time>2023-08-30T07:56:15Z</time>
      </trkpt>
      <trkpt lat="56.528637008741498" lon="-6.252553006634116">
        <ele>71.760000000000005</ele>
        <time>2023-08-30T07:56:16Z</time>
      </trkpt>
      <trkpt lat="56.52864002622664" lon="-6.252385033294559">
        <ele>72.239999999999995</ele>
        <time>2023-08-30T07:56:17Z</time>
      </trkpt>
      <trkpt lat="56.52864396572113" lon="-6.252214964479208">
        <ele>72.239999999999995</ele>
        <time>2023-08-30T07:56:18Z</time>
      </trkpt>
      <trkpt lat="56.528646983206272" lon="-6.252043973654509">
        <ele>72.719999999999999</ele>
        <time>2023-08-30T07:56:19Z</time>
      </trkpt>
      <trkpt lat="56.528653018176556" lon="-6.251865020021796">
        <ele>73.200000000000003</ele>
        <time>2023-08-30T07:56:20Z</time>
      </trkpt>
      <trkpt lat="56.528823003172874" lon="-6.250688033178449">
        <ele>78.480000000000004</ele>
        <time>2023-08-30T07:56:27Z</time>
      </trkpt>
      <trkpt lat="56.528849992901087" lon="-6.250505978241563">
        <ele>78.969999999999999</ele>
        <time>2023-08-30T07:56:28Z</time>
      </trkpt>
      <trkpt lat="56.528945965692401" lon="-6.250064000487328">
        <ele>80.409999999999997</ele>
        <time>2023-08-30T07:56:31Z</time>
      </trkpt>
      <trkpt lat="56.52898795902729" lon="-6.249930979683995">
        <ele>81.370000000000005</ele>
        <time>2023-08-30T07:56:32Z</time>
      </trkpt>
      <trkpt lat="56.529031964018941" lon="-6.249791001901031">
        <ele>82.329999999999998</ele>
        <time>2023-08-30T07:56:33Z</time>
      </trkpt>
      <trkpt lat="56.529120979830623" lon="-6.249507023021579">
        <ele>83.290000000000006</ele>
        <time>2023-08-30T07:56:35Z</time>
      </trkpt>
      <trkpt lat="56.529144030064344" lon="-6.249328991398215">
        <ele>83.290000000000006</ele>
        <time>2023-08-30T07:56:36Z</time>
      </trkpt>
      <trkpt lat="56.529165990650654" lon="-6.249147020280361">
        <ele>83.290000000000006</ele>
        <time>2023-08-30T07:56:37Z</time>
      </trkpt>
      <trkpt lat="56.529188035055995" lon="-6.248968988656998">
        <ele>83.290000000000006</ele>
        <time>2023-08-30T07:56:38Z</time>
      </trkpt>
      <trkpt lat="56.529207983985543" lon="-6.248800009489059">
        <ele>83.290000000000006</ele>
        <time>2023-08-30T07:56:39Z</time>
      </trkpt>
      <trkpt lat="56.529229022562504" lon="-6.248634969815612">
        <ele>83.290000000000006</ele>
        <time>2023-08-30T07:56:40Z</time>
      </trkpt>
      <trkpt lat="56.529248971492052" lon="-6.248465990647674">
        <ele>83.290000000000006</ele>
        <time>2023-08-30T07:56:41Z</time>
      </trkpt>
      <trkpt lat="56.529300017282367" lon="-6.248316960409284">
        <ele>82.329999999999998</ele>
        <time>2023-08-30T07:56:42Z</time>
      </trkpt>
      <trkpt lat="56.52935198508203" lon="-6.248172959312797">
        <ele>81.849999999999994</ele>
        <time>2023-08-30T07:56:43Z</time>
      </trkpt>
      <trkpt lat="56.529404036700726" lon="-6.248028036206961">
        <ele>80.890000000000001</ele>
        <time>2023-08-30T07:56:44Z</time>
      </trkpt>
      <trkpt lat="56.529456004500389" lon="-6.247884035110474">
        <ele>80.890000000000001</ele>
        <time>2023-08-30T07:56:45Z</time>
      </trkpt>
      <trkpt lat="56.529508978128433" lon="-6.247733999043703">
        <ele>80.409999999999997</ele>
        <time>2023-08-30T07:56:46Z</time>
      </trkpt>
      <trkpt lat="56.529824975878" lon="-6.246865969151259">
        <ele>77.519999999999996</ele>
        <time>2023-08-30T07:56:53Z</time>
      </trkpt>
      <trkpt lat="56.52986504137516" lon="-6.246793968603015">
        <ele>77.519999999999996</ele>
        <time>2023-08-30T07:56:54Z</time>
      </trkpt>
      <trkpt lat="56.529897982254624" lon="-6.246733032166958">
        <ele>77.519999999999996</ele>
        <time>2023-08-30T07:56:55Z</time>
      </trkpt>
      <trkpt lat="56.529937963932753" lon="-6.246662037447095">
        <ele>77.040000000000006</ele>
        <time>2023-08-30T07:56:56Z</time>
      </trkpt>
      <trkpt lat="56.529980041086674" lon="-6.246586013585329">
        <ele>76.560000000000002</ele>
        <time>2023-08-30T07:56:57Z</time>
      </trkpt>
      <trkpt lat="56.529980041086674" lon="-6.246479982510209">
        <ele>76.079999999999998</ele>
        <time>2023-08-30T07:56:58Z</time>
      </trkpt>
      <trkpt lat="56.529980041086674" lon="-6.246371017768979">
        <ele>75.599999999999994</ele>
        <time>2023-08-30T07:56:59Z</time>
      </trkpt>
      <trkpt lat="56.529957996681333" lon="-6.246315026655793">
        <ele>75.120000000000005</ele>
        <time>2023-08-30T07:57:00Z</time>
      </trkpt>
      <trkpt lat="56.529926983639598" lon="-6.246237996965647">
        <ele>74.640000000000001</ele>
        <time>2023-08-30T07:57:01Z</time>
      </trkpt>
      <trkpt lat="56.529896976426244" lon="-6.246162978932262">
        <ele>73.680000000000007</ele>
        <time>2023-08-30T07:57:02Z</time>
      </trkpt>
      <trkpt lat="56.529851965606213" lon="-6.246048985049129">
        <ele>73.200000000000003</ele>
        <time>2023-08-30T07:57:03Z</time>
      </trkpt>
      <trkpt lat="56.529851965606213" lon="-6.245952006429434">
        <ele>72.239999999999995</ele>
        <time>2023-08-30T07:57:04Z</time>
      </trkpt>
      <trkpt lat="56.529851965606213" lon="-6.245822003111243">
        <ele>71.760000000000005</ele>
        <time>2023-08-30T07:57:05Z</time>
      </trkpt>
      <trkpt lat="56.529874010011554" lon="-6.245698034763336">
        <ele>71.269999999999996</ele>
        <time>2023-08-30T07:57:06Z</time>
      </trkpt>
      <trkpt lat="56.529902005568147" lon="-6.245583035051823">
        <ele>71.269999999999996</ele>
        <time>2023-08-30T07:57:07Z</time>
      </trkpt>
      <trkpt lat="56.530191013589501" lon="-6.24420496635139">
        <ele>64.069999999999993</ele>
        <time>2023-08-30T07:57:16Z</time>
      </trkpt>
      <trkpt lat="56.530237030237913" lon="-6.243912018835545">
        <ele>62.140000000000001</ele>
        <time>2023-08-30T07:57:18Z</time>
      </trkpt>
      <trkpt lat="56.530258990824223" lon="-6.243773968890309">
        <ele>61.659999999999997</ele>
        <time>2023-08-30T07:57:19Z</time>
      </trkpt>
      <trkpt lat="56.530323028564453" lon="-6.243369039148092">
        <ele>58.780000000000001</ele>
        <time>2023-08-30T07:57:22Z</time>
      </trkpt>
      <trkpt lat="56.530373990535736" lon="-6.243297038599849">
        <ele>57.82</ele>
        <time>2023-08-30T07:57:23Z</time>
      </trkpt>
      <trkpt lat="56.530416989699006" lon="-6.243237024173141">
        <ele>56.859999999999999</ele>
        <time>2023-08-30T07:57:24Z</time>
      </trkpt>
      <trkpt lat="56.530457977205515" lon="-6.243179021403194">
        <ele>56.369999999999997</ele>
        <time>2023-08-30T07:57:25Z</time>
      </trkpt>
      <trkpt lat="56.530495025217533" lon="-6.243126969784498">
        <ele>55.409999999999997</ele>
        <time>2023-08-30T07:57:26Z</time>
      </trkpt>
      <trkpt lat="56.530529977753758" lon="-6.243078019469976">
        <ele>54.93</ele>
        <time>2023-08-30T07:57:27Z</time>
      </trkpt>
      <trkpt lat="56.530568031594157" lon="-6.243008030578494">
        <ele>54.450000000000003</ele>
        <time>2023-08-30T07:57:28Z</time>
      </trkpt>
      <trkpt lat="56.530601978302002" lon="-6.242938963696361">
        <ele>53.490000000000002</ele>
        <time>2023-08-30T07:57:29Z</time>
      </trkpt>
      <trkpt lat="56.530614970251918" lon="-6.242829998955131">
        <ele>52.530000000000001</ele>
        <time>2023-08-30T07:57:30Z</time>
      </trkpt>
      <trkpt lat="56.530624022707343" lon="-6.242745006456971">
        <ele>51.57</ele>
        <time>2023-08-30T07:57:31Z</time>
      </trkpt>
      <trkpt lat="56.530577000230551" lon="-6.242658002302051">
        <ele>50.609999999999999</ele>
        <time>2023-08-30T07:57:32Z</time>
      </trkpt>
      <trkpt lat="56.530541041865945" lon="-6.242592036724091">
        <ele>49.159999999999997</ele>
        <time>2023-08-30T07:57:33Z</time>
      </trkpt>
      <trkpt lat="56.530495025217533" lon="-6.242508972063661">
        <ele>48.200000000000003</ele>
        <time>2023-08-30T07:57:34Z</time>
      </trkpt>
      <trkpt lat="56.53044599108398" lon="-6.242450969293714">
        <ele>47.240000000000002</ele>
        <time>2023-08-30T07:57:35Z</time>
      </trkpt>
      <trkpt lat="56.530385976657271" lon="-6.242379974573851">
        <ele>45.799999999999997</ele>
        <time>2023-08-30T07:57:36Z</time>
      </trkpt>
      <trkpt lat="56.530330991372466" lon="-6.242315014824271">
        <ele>44.840000000000003</ele>
        <time>2023-08-30T07:57:37Z</time>
      </trkpt>
      <trkpt lat="56.530286986380816" lon="-6.242262963205576">
        <ele>43.399999999999999</ele>
        <time>2023-08-30T07:57:38Z</time>
      </trkpt>
      <trkpt lat="56.530259996652603" lon="-6.242189034819603">
        <ele>41.950000000000003</ele>
        <time>2023-08-30T07:57:39Z</time>
      </trkpt>
      <trkpt lat="56.530262008309364" lon="-6.24209800735116">
        <ele>40.509999999999998</ele>
        <time>2023-08-30T07:57:40Z</time>
      </trkpt>
      <trkpt lat="56.530264019966125" lon="-6.241998011246324">
        <ele>39.07</ele>
        <time>2023-08-30T07:57:41Z</time>
      </trkpt>
      <trkpt lat="56.530267037451267" lon="-6.241885023191571">
        <ele>37.630000000000003</ele>
        <time>2023-08-30T07:57:42Z</time>
      </trkpt>
      <trkpt lat="56.530269971117377" lon="-6.241762982681394">
        <ele>36.670000000000002</ele>
        <time>2023-08-30T07:57:43Z</time>
      </trkpt>
      <trkpt lat="56.530271982774138" lon="-6.241639014333487">
        <ele>35.710000000000001</ele>
        <time>2023-08-30T07:57:44Z</time>
      </trkpt>
      <trkpt lat="56.53027500025928" lon="-6.241520997136831">
        <ele>34.740000000000002</ele>
        <time>2023-08-30T07:57:45Z</time>
      </trkpt>
      <trkpt lat="56.530280029401183" lon="-6.241298960521817">
        <ele>33.299999999999997</ele>
        <time>2023-08-30T07:57:47Z</time>
      </trkpt>
      <trkpt lat="56.530281035229564" lon="-6.241264007985592">
        <ele>32.340000000000003</ele>
        <time>2023-08-30T07:57:48Z</time>
      </trkpt>
      <trkpt lat="56.530250022187829" lon="-6.241117995232344">
        <ele>31.379999999999999</ele>
        <time>2023-08-30T07:57:49Z</time>
      </trkpt>
      <trkpt lat="56.53023200109601" lon="-6.241030991077423">
        <ele>30.420000000000002</ele>
        <time>2023-08-30T07:57:50Z</time>
      </trkpt>
      <trkpt lat="56.530212974175811" lon="-6.240940969437361">
        <ele>29.940000000000001</ele>
        <time>2023-08-30T07:57:51Z</time>
      </trkpt>
      <trkpt lat="56.530177015811205" lon="-6.240838039666414">
        <ele>28.98</ele>
        <time>2023-08-30T07:57:52Z</time>
      </trkpt>
      <trkpt lat="56.530108032748103" lon="-6.24076402746141">
        <ele>28.5</ele>
        <time>2023-08-30T07:57:53Z</time>
      </trkpt>
      <trkpt lat="56.530032008886337" lon="-6.240682974457741">
        <ele>28.02</ele>
        <time>2023-08-30T07:57:54Z</time>
      </trkpt>
      <trkpt lat="56.529266992583871" lon="-6.239866996183991">
        <ele>21.77</ele>
        <time>2023-08-30T07:58:04Z</time>
      </trkpt>
      <trkpt lat="56.529232040047646" lon="-6.239808993414044">
        <ele>20.809999999999999</ele>
        <time>2023-08-30T07:58:05Z</time>
      </trkpt>
      <trkpt lat="56.529246037825942" lon="-6.239726012572646">
        <ele>20.32</ele>
        <time>2023-08-30T07:58:06Z</time>
      </trkpt>
      <trkpt lat="56.529272021725774" lon="-6.239569019526243">
        <ele>19.359999999999999</ele>
        <time>2023-08-30T07:58:07Z</time>
      </trkpt>
      <trkpt lat="56.529304040595889" lon="-6.239529037848115">
        <ele>18.879999999999999</ele>
        <time>2023-08-30T07:58:08Z</time>
      </trkpt>
      <trkpt lat="56.529355002567172" lon="-6.239463994279504">
        <ele>18.879999999999999</ele>
        <time>2023-08-30T07:58:09Z</time>
      </trkpt>
      <trkpt lat="56.529404036700726" lon="-6.239401968196034">
        <ele>18.399999999999999</ele>
        <time>2023-08-30T07:58:10Z</time>
      </trkpt>
      <trkpt lat="56.529447035863996" lon="-6.239346982911229">
        <ele>17.920000000000002</ele>
        <time>2023-08-30T07:58:11Z</time>
      </trkpt>
      <trkpt lat="56.529485005885363" lon="-6.239298032596707">
        <ele>17.440000000000001</ele>
        <time>2023-08-30T07:58:12Z</time>
      </trkpt>
      <trkpt lat="56.529507972300053" lon="-6.239269031211734">
        <ele>16.960000000000001</ele>
        <time>2023-08-30T07:58:13Z</time>
      </trkpt>
      <trkpt lat="56.529550971463323" lon="-6.239183032885194">
        <ele>16.48</ele>
        <time>2023-08-30T07:58:14Z</time>
      </trkpt>
      <trkpt lat="56.529573015868664" lon="-6.239140033721924">
        <ele>15.52</ele>
        <time>2023-08-30T07:58:15Z</time>
      </trkpt>
      <trkpt lat="56.529564969241619" lon="-6.239093011245132">
        <ele>15.039999999999999</ele>
        <time>2023-08-30T07:58:16Z</time>
      </trkpt>
      <trkpt lat="56.529548959806561" lon="-6.239010030403733">
        <ele>14.08</ele>
        <time>2023-08-30T07:58:17Z</time>
      </trkpt>
      <trkpt lat="56.529499003663659" lon="-6.238967031240463">
        <ele>13.119999999999999</ele>
        <time>2023-08-30T07:58:18Z</time>
      </trkpt>
      <trkpt lat="56.529441000893712" lon="-6.238915985450149">
        <ele>12.15</ele>
        <time>2023-08-30T07:58:19Z</time>
      </trkpt>
      <trkpt lat="56.529378974810243" lon="-6.238863011822105">
        <ele>11.67</ele>
        <time>2023-08-30T07:58:20Z</time>
      </trkpt>
      <trkpt lat="56.529314015060663" lon="-6.238807020708919">
        <ele>11.67</ele>
        <time>2023-08-30T07:58:21Z</time>
      </trkpt>
      <trkpt lat="56.529111005365849" lon="-6.238631000742316">
        <ele>11.19</ele>
        <time>2023-08-30T07:58:24Z</time>
      </trkpt>
      <trkpt lat="56.529056020081043" lon="-6.238570986315608">
        <ele>10.710000000000001</ele>
        <time>2023-08-30T07:58:25Z</time>
      </trkpt>
      <trkpt lat="56.52900799177587" lon="-6.238505020737648">
        <ele>10.710000000000001</ele>
        <time>2023-08-30T07:58:26Z</time>
      </trkpt>
      <trkpt lat="56.528967004269361" lon="-6.238395972177386">
        <ele>10.710000000000001</ele>
        <time>2023-08-30T07:58:27Z</time>
      </trkpt>
      <trkpt lat="56.528955018147826" lon="-6.238264963030815">
        <ele>11.67</ele>
        <time>2023-08-30T07:58:28Z</time>
      </trkpt>
      <trkpt lat="56.528949989005923" lon="-6.238118028268218">
        <ele>12.15</ele>
        <time>2023-08-30T07:58:29Z</time>
      </trkpt>
      <trkpt lat="56.528949989005923" lon="-6.23795298859477">
        <ele>13.119999999999999</ele>
        <time>2023-08-30T07:58:30Z</time>
      </trkpt>
      <trkpt lat="56.5289649926126" lon="-6.237762970849872">
        <ele>14.08</ele>
        <time>2023-08-30T07:58:31Z</time>
      </trkpt>
      <trkpt lat="56.528994999825954" lon="-6.237576976418495">
        <ele>15.52</ele>
        <time>2023-08-30T07:58:32Z</time>
      </trkpt>
      <trkpt lat="56.529026012867689" lon="-6.237388970330358">
        <ele>16.48</ele>
        <time>2023-08-30T07:58:33Z</time>
      </trkpt>
      <trkpt lat="56.52922298759222" lon="-6.236177030950785">
        <ele>22.25</ele>
        <time>2023-08-30T07:58:40Z</time>
      </trkpt>
      <trkpt lat="56.529272021725774" lon="-6.236063037067652">
        <ele>23.210000000000001</ele>
        <time>2023-08-30T07:58:41Z</time>
      </trkpt>
      <trkpt lat="56.529324995353818" lon="-6.235972009599209">
        <ele>24.649999999999999</ele>
        <time>2023-08-30T07:58:42Z</time>
      </trkpt>
      <trkpt lat="56.529388027265668" lon="-6.235874025151134">
        <ele>26.09</ele>
        <time>2023-08-30T07:58:43Z</time>
      </trkpt>
      <trkpt lat="56.529470002278686" lon="-6.235825996845961">
        <ele>27.530000000000001</ele>
        <time>2023-08-30T07:58:44Z</time>
      </trkpt>
      <trkpt lat="56.529562035575509" lon="-6.235772017389536">
        <ele>28.98</ele>
        <time>2023-08-30T07:58:45Z</time>
      </trkpt>
      <trkpt lat="56.530374996364117" lon="-6.235189978033304">
        <ele>40.030000000000001</ele>
        <time>2023-08-30T07:58:54Z</time>
      </trkpt>
      <trkpt lat="56.530513968318701" lon="-6.235002977773547">
        <ele>40.509999999999998</ele>
        <time>2023-08-30T07:58:56Z</time>
      </trkpt>
      <trkpt lat="56.531104976311326" lon="-6.233432963490486">
        <ele>40.509999999999998</ele>
        <time>2023-08-30T07:59:07Z</time>
      </trkpt>
      <trkpt lat="56.531320977956057" lon="-6.232612039893866">
        <ele>43.880000000000003</ele>
        <time>2023-08-30T07:59:13Z</time>
      </trkpt>
      <trkpt lat="56.531347967684269" lon="-6.232511959969997">
        <ele>44.359999999999999</ele>
        <time>2023-08-30T07:59:14Z</time>
      </trkpt>
      <trkpt lat="56.531334975734353" lon="-6.232421016320586">
        <ele>45.32</ele>
        <time>2023-08-30T07:59:15Z</time>
      </trkpt>
      <trkpt lat="56.531312009319663" lon="-6.232335017994046">
        <ele>45.799999999999997</ele>
        <time>2023-08-30T07:59:16Z</time>
      </trkpt>
      <trkpt lat="56.531276972964406" lon="-6.23223502188921">
        <ele>46.280000000000001</ele>
        <time>2023-08-30T07:59:17Z</time>
      </trkpt>
      <trkpt lat="56.531205978244543" lon="-6.232141982764006">
        <ele>46.280000000000001</ele>
        <time>2023-08-30T07:59:18Z</time>
      </trkpt>
      <trkpt lat="56.531127020716667" lon="-6.232035029679537">
        <ele>46.280000000000001</ele>
        <time>2023-08-30T07:59:19Z</time>
      </trkpt>
      <trkpt lat="56.531001040711999" lon="-6.231834031641483">
        <ele>45.799999999999997</ele>
        <time>2023-08-30T07:59:21Z</time>
      </trkpt>
      <trkpt lat="56.5309629868716" lon="-6.231744010001421">
        <ele>45.799999999999997</ele>
        <time>2023-08-30T07:59:22Z</time>
      </trkpt>
      <trkpt lat="56.530927028506994" lon="-6.231624986976385">
        <ele>45.32</ele>
        <time>2023-08-30T07:59:23Z</time>
      </trkpt>
      <trkpt lat="56.53093901462853" lon="-6.231493977829814">
        <ele>44.840000000000003</ele>
        <time>2023-08-30T07:59:24Z</time>
      </trkpt>
      <trkpt lat="56.530952006578445" lon="-6.231348970904946">
        <ele>44.840000000000003</ele>
        <time>2023-08-30T07:59:25Z</time>
      </trkpt>
      <trkpt lat="56.530967010185122" lon="-6.231185020878911">
        <ele>44.359999999999999</ele>
        <time>2023-08-30T07:59:26Z</time>
      </trkpt>
      <trkpt lat="56.531099025160074" lon="-6.229533031582832">
        <ele>46.759999999999998</ele>
        <time>2023-08-30T07:59:36Z</time>
      </trkpt>
      <trkpt lat="56.531140012666583" lon="-6.228763991966844">
        <ele>45.799999999999997</ele>
        <time>2023-08-30T07:59:40Z</time>
      </trkpt>
      <trkpt lat="56.53132701292634" lon="-6.227162964642048">
        <ele>45.32</ele>
        <time>2023-08-30T07:59:49Z</time>
      </trkpt>
      <trkpt lat="56.531483000144362" lon="-6.226303987205029">
        <ele>43.880000000000003</ele>
        <time>2023-08-30T07:59:54Z</time>
      </trkpt>
      <trkpt lat="56.531509989872575" lon="-6.226158980280161">
        <ele>43.880000000000003</ele>
        <time>2023-08-30T07:59:55Z</time>
      </trkpt>
      <trkpt lat="56.531579978764057" lon="-6.225923029705882">
        <ele>44.359999999999999</ele>
        <time>2023-08-30T07:59:57Z</time>
      </trkpt>
      <trkpt lat="56.531619960442185" lon="-6.22581398114562">
        <ele>43.880000000000003</ele>
        <time>2023-08-30T07:59:58Z</time>
      </trkpt>
      <trkpt lat="56.531701013445854" lon="-6.225631004199386">
        <ele>43.399999999999999</ele>
        <time>2023-08-30T08:00:00Z</time>
      </trkpt>
      <trkpt lat="56.531758010387421" lon="-6.225555986166">
        <ele>43.399999999999999</ele>
        <time>2023-08-30T08:00:01Z</time>
      </trkpt>
      <trkpt lat="56.531816013157368" lon="-6.225479962304235">
        <ele>42.920000000000002</ele>
        <time>2023-08-30T08:00:02Z</time>
      </trkpt>
      <trkpt lat="56.532106027007103" lon="-6.225096993148327">
        <ele>41.469999999999999</ele>
        <time>2023-08-30T08:00:07Z</time>
      </trkpt>
      <trkpt lat="56.532148020341992" lon="-6.225042007863522">
        <ele>40.509999999999998</ele>
        <time>2023-08-30T08:00:08Z</time>
      </trkpt>
      <trkpt lat="56.532168975099921" lon="-6.224918039515615">
        <ele>40.030000000000001</ele>
        <time>2023-08-30T08:00:09Z</time>
      </trkpt>
      <trkpt lat="56.532188002020121" lon="-6.224811002612114">
        <ele>39.07</ele>
        <time>2023-08-30T08:00:10Z</time>
      </trkpt>
      <trkpt lat="56.532211974263191" lon="-6.224677981808782">
        <ele>38.590000000000003</ele>
        <time>2023-08-30T08:00:11Z</time>
      </trkpt>
      <trkpt lat="56.532195964828134" lon="-6.224558036774397">
        <ele>38.109999999999999</ele>
        <time>2023-08-30T08:00:12Z</time>
      </trkpt>
      <trkpt lat="56.532176015898585" lon="-6.224402971565723">
        <ele>37.630000000000003</ele>
        <time>2023-08-30T08:00:13Z</time>
      </trkpt>
      <trkpt lat="56.532154977321625" lon="-6.224243966862559">
        <ele>37.149999999999999</ele>
        <time>2023-08-30T08:00:14Z</time>
      </trkpt>
      <trkpt lat="56.532136034220457" lon="-6.224101977422833">
        <ele>37.149999999999999</ele>
        <time>2023-08-30T08:00:15Z</time>
      </trkpt>
      <trkpt lat="56.532118013128638" lon="-6.223967028781772">
        <ele>37.149999999999999</ele>
        <time>2023-08-30T08:00:16Z</time>
      </trkpt>
      <trkpt lat="56.5321009978652" lon="-6.223838031291962">
        <ele>37.149999999999999</ele>
        <time>2023-08-30T08:00:17Z</time>
      </trkpt>
      <trkpt lat="56.532083982601762" lon="-6.223711967468262">
        <ele>37.149999999999999</ele>
        <time>2023-08-30T08:00:18Z</time>
      </trkpt>
      <trkpt lat="56.532062022015452" lon="-6.223539970815182">
        <ele>38.109999999999999</ele>
        <time>2023-08-30T08:00:19Z</time>
      </trkpt>
      <trkpt lat="56.53201499953866" lon="-6.223465958610177">
        <ele>38.590000000000003</ele>
        <time>2023-08-30T08:00:20Z</time>
      </trkpt>
      <trkpt lat="56.531950039789081" lon="-6.223361017182469">
        <ele>39.549999999999997</ele>
        <time>2023-08-30T08:00:21Z</time>
      </trkpt>
      <trkpt lat="56.531873010098934" lon="-6.223237970843911">
        <ele>40.509999999999998</ele>
        <time>2023-08-30T08:00:22Z</time>
      </trkpt>
      <trkpt lat="56.531789023429155" lon="-6.223102016374469">
        <ele>40.990000000000002</ele>
        <time>2023-08-30T08:00:23Z</time>
      </trkpt>
      <trkpt lat="56.531403958797455" lon="-6.222422998398542">
        <ele>43.880000000000003</ele>
        <time>2023-08-30T08:00:29Z</time>
      </trkpt>
      <trkpt lat="56.531360959634185" lon="-6.22230900451541">
        <ele>43.880000000000003</ele>
        <time>2023-08-30T08:00:30Z</time>
      </trkpt>
      <trkpt lat="56.531331036239862" lon="-6.222183024510741">
        <ele>43.399999999999999</ele>
        <time>2023-08-30T08:00:31Z</time>
      </trkpt>
      <trkpt lat="56.53132701292634" lon="-6.222040029242635">
        <ele>43.399999999999999</ele>
        <time>2023-08-30T08:00:32Z</time>
      </trkpt>
      <trkpt lat="56.531323995441198" lon="-6.221886975690723">
        <ele>42.920000000000002</ele>
        <time>2023-08-30T08:00:33Z</time>
      </trkpt>
      <trkpt lat="56.531319972127676" lon="-6.221734005957842">
        <ele>43.399999999999999</ele>
        <time>2023-08-30T08:00:34Z</time>
      </trkpt>
      <trkpt lat="56.531316032633185" lon="-6.22157801873982">
        <ele>43.399999999999999</ele>
        <time>2023-08-30T08:00:35Z</time>
      </trkpt>
      <trkpt lat="56.531312009319663" lon="-6.221431000158191">
        <ele>43.399999999999999</ele>
        <time>2023-08-30T08:00:36Z</time>
      </trkpt>
      <trkpt lat="56.531298011541367" lon="-6.221308959648013">
        <ele>43.880000000000003</ele>
        <time>2023-08-30T08:00:37Z</time>
      </trkpt>
      <trkpt lat="56.531274961307645" lon="-6.221184991300106">
        <ele>44.359999999999999</ele>
        <time>2023-08-30T08:00:38Z</time>
      </trkpt>
      <trkpt lat="56.531253000721335" lon="-6.221075020730496">
        <ele>44.840000000000003</ele>
        <time>2023-08-30T08:00:39Z</time>
      </trkpt>
      <trkpt lat="56.531232967972755" lon="-6.220967983826995">
        <ele>45.32</ele>
        <time>2023-08-30T08:00:40Z</time>
      </trkpt>
      <trkpt lat="56.531202960759401" lon="-6.220815014094114">
        <ele>46.280000000000001</ele>
        <time>2023-08-30T08:00:41Z</time>
      </trkpt>
      <trkpt lat="56.531205978244543" lon="-6.220689034089446">
        <ele>46.759999999999998</ele>
        <time>2023-08-30T08:00:42Z</time>
      </trkpt>
      <trkpt lat="56.531221987679601" lon="-6.220014961436391">
        <ele>46.280000000000001</ele>
        <time>2023-08-30T08:00:46Z</time>
      </trkpt>
      <trkpt lat="56.531178988516331" lon="-6.219683960080147">
        <ele>46.759999999999998</ele>
        <time>2023-08-30T08:00:48Z</time>
      </trkpt>
      <trkpt lat="56.531136995181441" lon="-6.219511041417718">
        <ele>46.759999999999998</ele>
        <time>2023-08-30T08:00:49Z</time>
      </trkpt>
      <trkpt lat="56.530717983841896" lon="-6.217808006331325">
        <ele>51.090000000000003</ele>
        <time>2023-08-30T08:00:59Z</time>
      </trkpt>
      <trkpt lat="56.530662998557091" lon="-6.21758203022182">
        <ele>52.049999999999997</ele>
        <time>2023-08-30T08:01:01Z</time>
      </trkpt>
      <trkpt lat="56.530652018263936" lon="-6.217481028288603">
        <ele>52.530000000000001</ele>
        <time>2023-08-30T08:01:02Z</time>
      </trkpt>
      <trkpt lat="56.530673978850245" lon="-6.217384971678257">
        <ele>53.009999999999998</ele>
        <time>2023-08-30T08:01:03Z</time>
      </trkpt>
      <trkpt lat="56.530695017427206" lon="-6.217287993058562">
        <ele>53.969999999999999</ele>
        <time>2023-08-30T08:01:04Z</time>
      </trkpt>
      <trkpt lat="56.530718989670277" lon="-6.217181961983442">
        <ele>54.450000000000003</ele>
        <time>2023-08-30T08:01:05Z</time>
      </trkpt>
      <trkpt lat="56.530744973570108" lon="-6.217091018334031">
        <ele>54.93</ele>
        <time>2023-08-30T08:01:06Z</time>
      </trkpt>
      <trkpt lat="56.530774980783463" lon="-6.217019017785788">
        <ele>55.409999999999997</ele>
        <time>2023-08-30T08:01:07Z</time>
      </trkpt>
      <trkpt lat="56.530799958854914" lon="-6.216957997530699">
        <ele>55.890000000000001</ele>
        <time>2023-08-30T08:01:08Z</time>
      </trkpt>
      <trkpt lat="56.530826026573777" lon="-6.216893959790468">
        <ele>56.369999999999997</ele>
        <time>2023-08-30T08:01:09Z</time>
      </trkpt>
      <trkpt lat="56.530857961624861" lon="-6.216817013919354">
        <ele>57.340000000000003</ele>
        <time>2023-08-30T08:01:10Z</time>
      </trkpt>
      <trkpt lat="56.530977990478277" lon="-6.216524988412857">
        <ele>58.780000000000001</ele>
        <time>2023-08-30T08:01:13Z</time>
      </trkpt>
      <trkpt lat="56.531013026833534" lon="-6.216441001743078">
        <ele>59.259999999999998</ele>
        <time>2023-08-30T08:01:14Z</time>
      </trkpt>
      <trkpt lat="56.531029036268592" lon="-6.216332959011197">
        <ele>59.740000000000002</ele>
        <time>2023-08-30T08:01:15Z</time>
      </trkpt>
      <trkpt lat="56.531023001298308" lon="-6.216223994269967">
        <ele>60.219999999999999</ele>
        <time>2023-08-30T08:01:16Z</time>
      </trkpt>
      <trkpt lat="56.531016966328025" lon="-6.216098014265299">
        <ele>60.219999999999999</ele>
        <time>2023-08-30T08:01:17Z</time>
      </trkpt>
      <trkpt lat="56.531010009348392" lon="-6.215959964320064">
        <ele>60.700000000000003</ele>
        <time>2023-08-30T08:01:18Z</time>
      </trkpt>
      <trkpt lat="56.530986037105322" lon="-6.2154970318079">
        <ele>61.18</ele>
        <time>2023-08-30T08:01:21Z</time>
      </trkpt>
      <trkpt lat="56.530970027670264" lon="-6.21517701074481">
        <ele>60.700000000000003</ele>
        <time>2023-08-30T08:01:23Z</time>
      </trkpt>
      <trkpt lat="56.530903978273273" lon="-6.214908035472035">
        <ele>60.700000000000003</ele>
        <time>2023-08-30T08:01:25Z</time>
      </trkpt>
      <trkpt lat="56.530862990766764" lon="-6.214788006618619">
        <ele>60.700000000000003</ele>
        <time>2023-08-30T08:01:26Z</time>
      </trkpt>
      <trkpt lat="56.5308110229671" lon="-6.214677030220628">
        <ele>60.700000000000003</ele>
        <time>2023-08-30T08:01:27Z</time>
      </trkpt>
      <trkpt lat="56.530758971348405" lon="-6.214564964175224">
        <ele>60.700000000000003</ele>
        <time>2023-08-30T08:01:28Z</time>
      </trkpt>
      <trkpt lat="56.5307039860636" lon="-6.21444501914084">
        <ele>60.219999999999999</ele>
        <time>2023-08-30T08:01:29Z</time>
      </trkpt>
      <trkpt lat="56.53051296249032" lon="-6.213959958404303">
        <ele>60.219999999999999</ele>
        <time>2023-08-30T08:01:33Z</time>
      </trkpt>
      <trkpt lat="56.530474992468953" lon="-6.21384403668344">
        <ele>60.219999999999999</ele>
        <time>2023-08-30T08:01:34Z</time>
      </trkpt>
      <trkpt lat="56.530449008569121" lon="-6.213733982294798">
        <ele>60.219999999999999</ele>
        <time>2023-08-30T08:01:35Z</time>
      </trkpt>
      <trkpt lat="56.530438028275967" lon="-6.213616970926523">
        <ele>60.219999999999999</ele>
        <time>2023-08-30T08:01:36Z</time>
      </trkpt>
      <trkpt lat="56.5304259583354" lon="-6.213490990921855">
        <ele>59.740000000000002</ele>
        <time>2023-08-30T08:01:37Z</time>
      </trkpt>
      <trkpt lat="56.530414978042245" lon="-6.213362999260426">
        <ele>59.740000000000002</ele>
        <time>2023-08-30T08:01:38Z</time>
      </trkpt>
      <trkpt lat="56.53040399774909" lon="-6.213240036740899">
        <ele>59.740000000000002</ele>
        <time>2023-08-30T08:01:39Z</time>
      </trkpt>
      <trkpt lat="56.530392011627555" lon="-6.21311497874558">
        <ele>59.259999999999998</ele>
        <time>2023-08-30T08:01:40Z</time>
      </trkpt>
      <trkpt lat="56.53038002550602" lon="-6.212983969599009">
        <ele>59.259999999999998</ele>
        <time>2023-08-30T08:01:41Z</time>
      </trkpt>
      <trkpt lat="56.530367033556104" lon="-6.212833011522889">
        <ele>58.780000000000001</ele>
        <time>2023-08-30T08:01:42Z</time>
      </trkpt>
      <trkpt lat="56.5302549675107" lon="-6.212608963251114">
        <ele>57.82</ele>
        <time>2023-08-30T08:01:44Z</time>
      </trkpt>
      <trkpt lat="56.530199982225895" lon="-6.212501004338265">
        <ele>57.82</ele>
        <time>2023-08-30T08:01:45Z</time>
      </trkpt>
      <trkpt lat="56.530147008597851" lon="-6.212387010455132">
        <ele>57.340000000000003</ele>
        <time>2023-08-30T08:01:46Z</time>
      </trkpt>
      <trkpt lat="56.530114989727736" lon="-6.212264969944954">
        <ele>57.340000000000003</ele>
        <time>2023-08-30T08:01:47Z</time>
      </trkpt>
      <trkpt lat="56.530066039413214" lon="-6.212081992998719">
        <ele>57.340000000000003</ele>
        <time>2023-08-30T08:01:48Z</time>
      </trkpt>
      <trkpt lat="56.530062016099691" lon="-6.21197696775198">
        <ele>57.340000000000003</ele>
        <time>2023-08-30T08:01:49Z</time>
      </trkpt>
      <trkpt lat="56.530054975301027" lon="-6.21182600967586">
        <ele>57.340000000000003</ele>
        <time>2023-08-30T08:01:50Z</time>
      </trkpt>
      <trkpt lat="56.530026979744434" lon="-6.211168030276895">
        <ele>56.369999999999997</ele>
        <time>2023-08-30T08:01:54Z</time>
      </trkpt>
      <trkpt lat="56.529991021379828" lon="-6.210911041125655">
        <ele>55.409999999999997</ele>
        <time>2023-08-30T08:01:56Z</time>
      </trkpt>
      <trkpt lat="56.529959002509713" lon="-6.210752036422491">
        <ele>55.409999999999997</ele>
        <time>2023-08-30T08:01:57Z</time>
      </trkpt>
      <trkpt lat="56.529920026659966" lon="-6.210682969540358">
        <ele>55.409999999999997</ele>
        <time>2023-08-30T08:01:58Z</time>
      </trkpt>
      <trkpt lat="56.529790023341775" lon="-6.210456993430853">
        <ele>55.409999999999997</ele>
        <time>2023-08-30T08:02:00Z</time>
      </trkpt>
      <trkpt lat="56.529405964538455" lon="-6.20978401042521">
        <ele>56.859999999999999</ele>
        <time>2023-08-30T08:02:06Z</time>
      </trkpt>
      <trkpt lat="56.529164984822273" lon="-6.209407998248935">
        <ele>57.340000000000003</ele>
        <time>2023-08-30T08:02:10Z</time>
      </trkpt>
      <trkpt lat="56.529097007587552" lon="-6.209316970780492">
        <ele>57.82</ele>
        <time>2023-08-30T08:02:11Z</time>
      </trkpt>
      <trkpt lat="56.529015032574534" lon="-6.209207000210881">
        <ele>57.82</ele>
        <time>2023-08-30T08:02:12Z</time>
      </trkpt>
      <trkpt lat="56.528955018147826" lon="-6.209176992997527">
        <ele>58.299999999999997</ele>
        <time>2023-08-30T08:02:13Z</time>
      </trkpt>
      <trkpt lat="56.528843035921454" lon="-6.209121001884341">
        <ele>58.780000000000001</ele>
        <time>2023-08-30T08:02:14Z</time>
      </trkpt>
      <trkpt lat="56.528758965432644" lon="-6.209136005491018">
        <ele>58.780000000000001</ele>
        <time>2023-08-30T08:02:15Z</time>
      </trkpt>
      <trkpt lat="56.528660980984569" lon="-6.209153020754457">
        <ele>58.780000000000001</ele>
        <time>2023-08-30T08:02:16Z</time>
      </trkpt>
      <trkpt lat="56.528566014021635" lon="-6.209170036017895">
        <ele>58.780000000000001</ele>
        <time>2023-08-30T08:02:17Z</time>
      </trkpt>
      <trkpt lat="56.528381025418639" lon="-6.209201971068978">
        <ele>58.780000000000001</ele>
        <time>2023-08-30T08:02:19Z</time>
      </trkpt>
      <trkpt lat="56.528285974636674" lon="-6.209218986332417">
        <ele>58.780000000000001</ele>
        <time>2023-08-30T08:02:20Z</time>
      </trkpt>
      <trkpt lat="56.528193019330502" lon="-6.209236001595855">
        <ele>58.780000000000001</ele>
        <time>2023-08-30T08:02:21Z</time>
      </trkpt>
      <trkpt lat="56.528100986033678" lon="-6.209242036566138">
        <ele>59.259999999999998</ele>
        <time>2023-08-30T08:02:22Z</time>
      </trkpt>
      <trkpt lat="56.528011970221996" lon="-6.209188979119062">
        <ele>59.740000000000002</ele>
        <time>2023-08-30T08:02:23Z</time>
      </trkpt>
      <trkpt lat="56.527923038229346" lon="-6.209134999662638">
        <ele>60.219999999999999</ele>
        <time>2023-08-30T08:02:24Z</time>
      </trkpt>
      <trkpt lat="56.527077974751592" lon="-6.208696039393544">
        <ele>63.100000000000001</ele>
        <time>2023-08-30T08:02:33Z</time>
      </trkpt>
      <trkpt lat="56.526983007788658" lon="-6.20873099192977">
        <ele>62.619999999999997</ele>
        <time>2023-08-30T08:02:34Z</time>
      </trkpt>
      <trkpt lat="56.526886029168963" lon="-6.208766028285027">
        <ele>62.140000000000001</ele>
        <time>2023-08-30T08:02:35Z</time>
      </trkpt>
      <trkpt lat="56.526514962315559" lon="-6.20890298858285">
        <ele>60.700000000000003</ele>
        <time>2023-08-30T08:02:39Z</time>
      </trkpt>
      <trkpt lat="56.526433993130922" lon="-6.208931989967823">
        <ele>60.700000000000003</ele>
        <time>2023-08-30T08:02:40Z</time>
      </trkpt>
      <trkpt lat="56.526200976222754" lon="-6.209017988294363">
        <ele>60.219999999999999</ele>
        <time>2023-08-30T08:02:43Z</time>
      </trkpt>
      <trkpt lat="56.526097040623426" lon="-6.20905595831573">
        <ele>60.219999999999999</ele>
        <time>2023-08-30T08:02:44Z</time>
      </trkpt>
      <trkpt lat="56.525445012375712" lon="-6.20892302133143">
        <ele>60.219999999999999</ele>
        <time>2023-08-30T08:02:52Z</time>
      </trkpt>
      <trkpt lat="56.525346022099257" lon="-6.208906006067991">
        <ele>60.219999999999999</ele>
        <time>2023-08-30T08:02:53Z</time>
      </trkpt>
      <trkpt lat="56.525301011279225" lon="-6.208912041038275">
        <ele>59.740000000000002</ele>
        <time>2023-08-30T08:02:54Z</time>
      </trkpt>
      <trkpt lat="56.52522599324584" lon="-6.208921009674668">
        <ele>59.740000000000002</ele>
        <time>2023-08-30T08:02:55Z</time>
      </trkpt>
      <trkpt lat="56.525065982714295" lon="-6.208940958604217">
        <ele>58.780000000000001</ele>
        <time>2023-08-30T08:02:57Z</time>
      </trkpt>
      <trkpt lat="56.524989036843181" lon="-6.20894598774612">
        <ele>58.299999999999997</ele>
        <time>2023-08-30T08:02:58Z</time>
      </trkpt>
      <trkpt lat="56.524184038862586" lon="-6.208672989159823">
        <ele>53.490000000000002</ele>
        <time>2023-08-30T08:03:06Z</time>
      </trkpt>
      <trkpt lat="56.523755975067616" lon="-6.208432009443641">
        <ele>48.68</ele>
        <time>2023-08-30T08:03:10Z</time>
      </trkpt>
      <trkpt lat="56.523655978962779" lon="-6.208333019167185">
        <ele>47.719999999999999</ele>
        <time>2023-08-30T08:03:11Z</time>
      </trkpt>
      <trkpt lat="56.523341992869973" lon="-6.208019033074379">
        <ele>44.359999999999999</ele>
        <time>2023-08-30T08:03:14Z</time>
      </trkpt>
      <trkpt lat="56.523049967363477" lon="-6.207726001739502">
        <ele>42.439999999999998</ele>
        <time>2023-08-30T08:03:17Z</time>
      </trkpt>
      <trkpt lat="56.522987019270658" lon="-6.207643020898104">
        <ele>41.469999999999999</ele>
        <time>2023-08-30T08:03:18Z</time>
      </trkpt>
      <trkpt lat="56.522919964045286" lon="-6.207554005086422">
        <ele>41.469999999999999</ele>
        <time>2023-08-30T08:03:19Z</time>
      </trkpt>
      <trkpt lat="56.522850980982184" lon="-6.207448979839683">
        <ele>40.990000000000002</ele>
        <time>2023-08-30T08:03:20Z</time>
      </trkpt>
      <trkpt lat="56.522809993475676" lon="-6.207314031198621">
        <ele>40.990000000000002</ele>
        <time>2023-08-30T08:03:21Z</time>
      </trkpt>
      <trkpt lat="56.522764982655644" lon="-6.207161983475089">
        <ele>40.509999999999998</ele>
        <time>2023-08-30T08:03:22Z</time>
      </trkpt>
      <trkpt lat="56.522716032341123" lon="-6.206995015963912">
        <ele>40.990000000000002</ele>
        <time>2023-08-30T08:03:23Z</time>
      </trkpt>
      <trkpt lat="56.522401040419936" lon="-6.205934034660459">
        <ele>41.469999999999999</ele>
        <time>2023-08-30T08:03:30Z</time>
      </trkpt>
      <trkpt lat="56.521922014653683" lon="-6.203999994322658">
        <ele>41.469999999999999</ele>
        <time>2023-08-30T08:03:40Z</time>
      </trkpt>
      <trkpt lat="56.52142102830112" lon="-6.201123995706439">
        <ele>43.880000000000003</ele>
        <time>2023-08-30T08:03:53Z</time>
      </trkpt>
      <trkpt lat="56.521374005824327" lon="-6.200964991003275">
        <ele>43.880000000000003</ele>
        <time>2023-08-30T08:03:54Z</time>
      </trkpt>
      <trkpt lat="56.521327989175916" lon="-6.200810009613633">
        <ele>43.880000000000003</ele>
        <time>2023-08-30T08:03:55Z</time>
      </trkpt>
      <trkpt lat="56.521279038861394" lon="-6.200644969940186">
        <ele>43.880000000000003</ele>
        <time>2023-08-30T08:03:56Z</time>
      </trkpt>
      <trkpt lat="56.52120703831315" lon="-6.200475990772247">
        <ele>44.359999999999999</ele>
        <time>2023-08-30T08:03:57Z</time>
      </trkpt>
      <trkpt lat="56.521115005016327" lon="-6.200337018817663">
        <ele>44.359999999999999</ele>
        <time>2023-08-30T08:03:58Z</time>
      </trkpt>
      <trkpt lat="56.520114960148931" lon="-6.198714030906558">
        <ele>45.799999999999997</ele>
        <time>2023-08-30T08:04:09Z</time>
      </trkpt>
      <trkpt lat="56.520005995407701" lon="-6.198434997349978">
        <ele>46.280000000000001</ele>
        <time>2023-08-30T08:04:11Z</time>
      </trkpt>
      <trkpt lat="56.519960984587669" lon="-6.198296025395393">
        <ele>46.280000000000001</ele>
        <time>2023-08-30T08:04:12Z</time>
      </trkpt>
      <trkpt lat="56.519916979596019" lon="-6.198155041784048">
        <ele>46.759999999999998</ele>
        <time>2023-08-30T08:04:13Z</time>
      </trkpt>
      <trkpt lat="56.519908010959625" lon="-6.198003999888897">
        <ele>46.759999999999998</ele>
        <time>2023-08-30T08:04:14Z</time>
      </trkpt>
      <trkpt lat="56.519899964332581" lon="-6.197851030156016">
        <ele>47.240000000000002</ele>
        <time>2023-08-30T08:04:15Z</time>
      </trkpt>
      <trkpt lat="56.519898036494851" lon="-6.197692025452852">
        <ele>46.759999999999998</ele>
        <time>2023-08-30T08:04:16Z</time>
      </trkpt>
      <trkpt lat="56.519903987646103" lon="-6.197524974122644">
        <ele>46.759999999999998</ele>
        <time>2023-08-30T08:04:17Z</time>
      </trkpt>
      <trkpt lat="56.519909016788006" lon="-6.197374016046524">
        <ele>46.280000000000001</ele>
        <time>2023-08-30T08:04:18Z</time>
      </trkpt>
      <trkpt lat="56.519913040101528" lon="-6.197242001071572">
        <ele>45.799999999999997</ele>
        <time>2023-08-30T08:04:19Z</time>
      </trkpt>
      <trkpt lat="56.519909016788006" lon="-6.197122978046536">
        <ele>45.32</ele>
        <time>2023-08-30T08:04:20Z</time>
      </trkpt>
      <trkpt lat="56.519870962947607" lon="-6.197004038840532">
        <ele>44.359999999999999</ele>
        <time>2023-08-30T08:04:21Z</time>
      </trkpt>
      <trkpt lat="56.519829975441098" lon="-6.196875041350722">
        <ele>43.880000000000003</ele>
        <time>2023-08-30T08:04:22Z</time>
      </trkpt>
      <trkpt lat="56.519786976277828" lon="-6.196741014719009">
        <ele>43.399999999999999</ele>
        <time>2023-08-30T08:04:23Z</time>
      </trkpt>
      <trkpt lat="56.519751017913222" lon="-6.196597013622522">
        <ele>42.920000000000002</ele>
        <time>2023-08-30T08:04:24Z</time>
      </trkpt>
      <trkpt lat="56.519720004871488" lon="-6.196437003090978">
        <ele>42.439999999999998</ele>
        <time>2023-08-30T08:04:25Z</time>
      </trkpt>
      <trkpt lat="56.519685974344611" lon="-6.196259977295995">
        <ele>41.950000000000003</ele>
        <time>2023-08-30T08:04:26Z</time>
      </trkpt>
      <trkpt lat="56.519651021808386" lon="-6.196080017834902">
        <ele>41.469999999999999</ele>
        <time>2023-08-30T08:04:27Z</time>
      </trkpt>
      <trkpt lat="56.5195950306952" lon="-6.195906009525061">
        <ele>40.990000000000002</ele>
        <time>2023-08-30T08:04:28Z</time>
      </trkpt>
      <trkpt lat="56.519525041803718" lon="-6.195738958194852">
        <ele>40.509999999999998</ele>
        <time>2023-08-30T08:04:29Z</time>
      </trkpt>
      <trkpt lat="56.519455974921584" lon="-6.195571990683675">
        <ele>40.030000000000001</ele>
        <time>2023-08-30T08:04:30Z</time>
      </trkpt>
      <trkpt lat="56.519093960523605" lon="-6.194625003263354">
        <ele>41.469999999999999</ele>
        <time>2023-08-30T08:04:36Z</time>
      </trkpt>
      <trkpt lat="56.519050039350986" lon="-6.194472033530474">
        <ele>41.950000000000003</ele>
        <time>2023-08-30T08:04:37Z</time>
      </trkpt>
      <trkpt lat="56.519005028530955" lon="-6.194317974150181">
        <ele>41.950000000000003</ele>
        <time>2023-08-30T08:04:38Z</time>
      </trkpt>
      <trkpt lat="56.518962029367685" lon="-6.194169027730823">
        <ele>41.469999999999999</ele>
        <time>2023-08-30T08:04:39Z</time>
      </trkpt>
      <trkpt lat="56.518925987184048" lon="-6.194042041897774">
        <ele>41.469999999999999</ele>
        <time>2023-08-30T08:04:40Z</time>
      </trkpt>
      <trkpt lat="56.5188870113343" lon="-6.19390700943768">
        <ele>41.469999999999999</ele>
        <time>2023-08-30T08:04:41Z</time>
      </trkpt>
      <trkpt lat="56.518822973594069" lon="-6.193848000839353">
        <ele>40.990000000000002</ele>
        <time>2023-08-30T08:04:42Z</time>
      </trkpt>
      <trkpt lat="56.518753990530968" lon="-6.193782035261393">
        <ele>40.030000000000001</ele>
        <time>2023-08-30T08:04:43Z</time>
      </trkpt>
      <trkpt lat="56.51867201551795" lon="-6.193706011399627">
        <ele>39.07</ele>
        <time>2023-08-30T08:04:44Z</time>
      </trkpt>
      <trkpt lat="56.51858601719141" lon="-6.193624036386609">
        <ele>38.109999999999999</ele>
        <time>2023-08-30T08:04:45Z</time>
      </trkpt>
      <trkpt lat="56.518510999158025" lon="-6.193543989211321">
        <ele>37.630000000000003</ele>
        <time>2023-08-30T08:04:46Z</time>
      </trkpt>
      <trkpt lat="56.518447967246175" lon="-6.193428989499807">
        <ele>37.149999999999999</ele>
        <time>2023-08-30T08:04:47Z</time>
      </trkpt>
      <trkpt lat="56.518387030810118" lon="-6.193316001445055">
        <ele>36.670000000000002</ele>
        <time>2023-08-30T08:04:48Z</time>
      </trkpt>
      <trkpt lat="56.51832802221179" lon="-6.193208964541555">
        <ele>36.670000000000002</ele>
        <time>2023-08-30T08:04:49Z</time>
      </trkpt>
      <trkpt lat="56.518238000571728" lon="-6.192951975390315">
        <ele>36.189999999999998</ele>
        <time>2023-08-30T08:04:51Z</time>
      </trkpt>
      <trkpt lat="56.518207993358374" lon="-6.192795988172293">
        <ele>35.710000000000001</ele>
        <time>2023-08-30T08:04:52Z</time>
      </trkpt>
      <trkpt lat="56.518175974488258" lon="-6.192628014832735">
        <ele>35.229999999999997</ele>
        <time>2023-08-30T08:04:53Z</time>
      </trkpt>
      <trkpt lat="56.518144039437175" lon="-6.192459035664797">
        <ele>34.740000000000002</ele>
        <time>2023-08-30T08:04:54Z</time>
      </trkpt>
      <trkpt lat="56.51811202056706" lon="-6.192290978506208">
        <ele>34.740000000000002</ele>
        <time>2023-08-30T08:04:55Z</time>
      </trkpt>
      <trkpt lat="56.518081007525325" lon="-6.192125016823411">
        <ele>34.259999999999998</ele>
        <time>2023-08-30T08:04:56Z</time>
      </trkpt>
      <trkpt lat="56.517868023365736" lon="-6.19100502692163">
        <ele>35.229999999999997</ele>
        <time>2023-08-30T08:05:03Z</time>
      </trkpt>
      <trkpt lat="56.517831981182098" lon="-6.190904024988413">
        <ele>35.710000000000001</ele>
        <time>2023-08-30T08:05:04Z</time>
      </trkpt>
      <trkpt lat="56.517779007554054" lon="-6.19081299751997">
        <ele>35.710000000000001</ele>
        <time>2023-08-30T08:05:05Z</time>
      </trkpt>
      <trkpt lat="56.517707007005811" lon="-6.190689029172063">
        <ele>36.189999999999998</ele>
        <time>2023-08-30T08:05:06Z</time>
      </trkpt>
      <trkpt lat="56.517643975093961" lon="-6.190643012523651">
        <ele>36.189999999999998</ele>
        <time>2023-08-30T08:05:07Z</time>
      </trkpt>
      <trkpt lat="56.517566023394465" lon="-6.190587021410465">
        <ele>36.670000000000002</ele>
        <time>2023-08-30T08:05:08Z</time>
      </trkpt>
      <trkpt lat="56.517486982047558" lon="-6.190529018640518">
        <ele>36.670000000000002</ele>
        <time>2023-08-30T08:05:09Z</time>
      </trkpt>
      <trkpt lat="56.516671003773808" lon="-6.189604997634888">
        <ele>35.710000000000001</ele>
        <time>2023-08-30T08:05:19Z</time>
      </trkpt>
      <trkpt lat="56.516595985740423" lon="-6.189478011801839">
        <ele>35.229999999999997</ele>
        <time>2023-08-30T08:05:20Z</time>
      </trkpt>
      <trkpt lat="56.516442010179162" lon="-6.189206019043922">
        <ele>34.740000000000002</ele>
        <time>2023-08-30T08:05:22Z</time>
      </trkpt>
      <trkpt lat="56.515892995521426" lon="-6.18795501999557">
        <ele>34.259999999999998</ele>
        <time>2023-08-30T08:05:31Z</time>
      </trkpt>
      <trkpt lat="56.51583599857986" lon="-6.187815964221954">
        <ele>34.259999999999998</ele>
        <time>2023-08-30T08:05:32Z</time>
      </trkpt>
      <trkpt lat="56.515806997194886" lon="-6.187651008367539">
        <ele>34.740000000000002</ele>
        <time>2023-08-30T08:05:33Z</time>
      </trkpt>
      <trkpt lat="56.515776989981532" lon="-6.187479011714459">
        <ele>35.229999999999997</ele>
        <time>2023-08-30T08:05:34Z</time>
      </trkpt>
      <trkpt lat="56.515745976939797" lon="-6.187303997576237">
        <ele>35.710000000000001</ele>
        <time>2023-08-30T08:05:35Z</time>
      </trkpt>
      <trkpt lat="56.51568403467536" lon="-6.186952963471413">
        <ele>37.149999999999999</ele>
        <time>2023-08-30T08:05:37Z</time>
      </trkpt>
      <trkpt lat="56.515646986663342" lon="-6.186739979311824">
        <ele>37.630000000000003</ele>
        <time>2023-08-30T08:05:38Z</time>
      </trkpt>
      <trkpt lat="56.515588983893394" lon="-6.186611987650394">
        <ele>38.109999999999999</ele>
        <time>2023-08-30T08:05:39Z</time>
      </trkpt>
      <trkpt lat="56.514968974515796" lon="-6.184831000864506">
        <ele>35.710000000000001</ele>
        <time>2023-08-30T08:05:49Z</time>
      </trkpt>
      <trkpt lat="56.514122989028692" lon="-6.182578029111028">
        <ele>24.170000000000002</ele>
        <time>2023-08-30T08:06:01Z</time>
      </trkpt>
      <trkpt lat="56.513998014852405" lon="-6.182075031101704">
        <ele>23.210000000000001</ele>
        <time>2023-08-30T08:06:04Z</time>
      </trkpt>
      <trkpt lat="56.513971025124192" lon="-6.181921977549791">
        <ele>22.73</ele>
        <time>2023-08-30T08:06:05Z</time>
      </trkpt>
      <trkpt lat="56.513963984325528" lon="-6.181760961189866">
        <ele>22.73</ele>
        <time>2023-08-30T08:06:06Z</time>
      </trkpt>
      <trkpt lat="56.513958033174276" lon="-6.181587958708406">
        <ele>22.73</ele>
        <time>2023-08-30T08:06:07Z</time>
      </trkpt>
      <trkpt lat="56.513949986547232" lon="-6.1814000364393">
        <ele>22.73</ele>
        <time>2023-08-30T08:06:08Z</time>
      </trkpt>
      <trkpt lat="56.51388200931251" lon="-6.180170997977257">
        <ele>20.809999999999999</ele>
        <time>2023-08-30T08:06:14Z</time>
      </trkpt>
      <trkpt lat="56.513852002099156" lon="-6.179978968575597">
        <ele>19.84</ele>
        <time>2023-08-30T08:06:15Z</time>
      </trkpt>
      <trkpt lat="56.513823000714183" lon="-6.179788028821349">
        <ele>19.359999999999999</ele>
        <time>2023-08-30T08:06:16Z</time>
      </trkpt>
      <trkpt lat="56.513567017391324" lon="-6.178927039727569">
        <ele>17.920000000000002</ele>
        <time>2023-08-30T08:06:21Z</time>
      </trkpt>
      <trkpt lat="56.513480013236403" lon="-6.178635014221072">
        <ele>18.399999999999999</ele>
        <time>2023-08-30T08:06:23Z</time>
      </trkpt>
      <trkpt lat="56.513433996587992" lon="-6.17848003283143">
        <ele>18.399999999999999</ele>
        <time>2023-08-30T08:06:24Z</time>
      </trkpt>
      <trkpt lat="56.513018002733588" lon="-6.176836006343365">
        <ele>16.960000000000001</ele>
        <time>2023-08-30T08:06:32Z</time>
      </trkpt>
      <trkpt lat="56.512620029971004" lon="-6.175254005938768">
        <ele>16</ele>
        <time>2023-08-30T08:06:40Z</time>
      </trkpt>
      <trkpt lat="56.512567978352308" lon="-6.175045967102051">
        <ele>16</ele>
        <time>2023-08-30T08:06:41Z</time>
      </trkpt>
      <trkpt lat="56.511846967041492" lon="-6.172968009486795">
        <ele>14.08</ele>
        <time>2023-08-30T08:06:52Z</time>
      </trkpt>
      <trkpt lat="56.51160498149693" lon="-6.172441961243749">
        <ele>14.08</ele>
        <time>2023-08-30T08:06:55Z</time>
      </trkpt>
      <trkpt lat="56.510982038453221" lon="-6.170892985537648">
        <ele>16</ele>
        <time>2023-08-30T08:07:04Z</time>
      </trkpt>
      <trkpt lat="56.510650031268597" lon="-6.169973993673921">
        <ele>18.879999999999999</ele>
        <time>2023-08-30T08:07:10Z</time>
      </trkpt>
      <trkpt lat="56.510589011013508" lon="-6.169804008677602">
        <ele>19.84</ele>
        <time>2023-08-30T08:07:11Z</time>
      </trkpt>
      <trkpt lat="56.510349037125707" lon="-6.169164972379804">
        <ele>21.77</ele>
        <time>2023-08-30T08:07:15Z</time>
      </trkpt>
      <trkpt lat="56.509595001116395" lon="-6.167537039145827">
        <ele>25.609999999999999</ele>
        <time>2023-08-30T08:07:25Z</time>
      </trkpt>
      <trkpt lat="56.508758990094066" lon="-6.165733002126217">
        <ele>33.780000000000001</ele>
        <time>2023-08-30T08:07:36Z</time>
      </trkpt>
      <trkpt lat="56.508737029507756" lon="-6.165562011301518">
        <ele>34.259999999999998</ele>
        <time>2023-08-30T08:07:37Z</time>
      </trkpt>
      <trkpt lat="56.508715990930796" lon="-6.165390014648438">
        <ele>34.740000000000002</ele>
        <time>2023-08-30T08:07:38Z</time>
      </trkpt>
      <trkpt lat="56.508653964847326" lon="-6.163740959018469">
        <ele>37.630000000000003</ele>
        <time>2023-08-30T08:07:46Z</time>
      </trkpt>
      <trkpt lat="56.508503006771207" lon="-6.163001004606485">
        <ele>40.030000000000001</ele>
        <time>2023-08-30T08:07:50Z</time>
      </trkpt>
      <trkpt lat="56.50844500400126" lon="-6.162857003509998">
        <ele>40.509999999999998</ele>
        <time>2023-08-30T08:07:51Z</time>
      </trkpt>
      <trkpt lat="56.508389012888074" lon="-6.162716019898653">
        <ele>40.509999999999998</ele>
        <time>2023-08-30T08:07:52Z</time>
      </trkpt>
      <trkpt lat="56.508333021774888" lon="-6.162575958296657">
        <ele>40.990000000000002</ele>
        <time>2023-08-30T08:07:53Z</time>
      </trkpt>
      <trkpt lat="56.508251968771219" lon="-6.162460958585143">
        <ele>41.469999999999999</ele>
        <time>2023-08-30T08:07:54Z</time>
      </trkpt>
      <trkpt lat="56.508164964616299" lon="-6.162378983572125">
        <ele>41.469999999999999</ele>
        <time>2023-08-30T08:07:55Z</time>
      </trkpt>
      <trkpt lat="56.508074020966887" lon="-6.162291979417205">
        <ele>41.950000000000003</ele>
        <time>2023-08-30T08:07:56Z</time>
      </trkpt>
      <trkpt lat="56.506944978609681" lon="-6.16161203943193">
        <ele>44.359999999999999</ele>
        <time>2023-08-30T08:08:06Z</time>
      </trkpt>
      <trkpt lat="56.506061023101211" lon="-6.161105018109083">
        <ele>46.280000000000001</ele>
        <time>2023-08-30T08:08:14Z</time>
      </trkpt>
      <trkpt lat="56.505421986803412" lon="-6.160579975694418">
        <ele>50.609999999999999</ele>
        <time>2023-08-30T08:08:20Z</time>
      </trkpt>
      <trkpt lat="56.504584969952703" lon="-6.159523017704487">
        <ele>52.049999999999997</ele>
        <time>2023-08-30T08:08:29Z</time>
      </trkpt>
      <trkpt lat="56.504443986341357" lon="-6.159332999959588">
        <ele>50.609999999999999</ele>
        <time>2023-08-30T08:08:31Z</time>
      </trkpt>
      <trkpt lat="56.504402998834848" lon="-6.159199979156256">
        <ele>50.130000000000003</ele>
        <time>2023-08-30T08:08:32Z</time>
      </trkpt>
      <trkpt lat="56.504361005499959" lon="-6.159064024686813">
        <ele>49.649999999999999</ele>
        <time>2023-08-30T08:08:33Z</time>
      </trkpt>
      <trkpt lat="56.503908969461918" lon="-6.157279014587402">
        <ele>42.920000000000002</ele>
        <time>2023-08-30T08:08:43Z</time>
      </trkpt>
      <trkpt lat="56.503659021109343" lon="-6.155106006190181">
        <ele>41.469999999999999</ele>
        <time>2023-08-30T08:08:54Z</time>
      </trkpt>
      <trkpt lat="56.503645023331046" lon="-6.15491196513176">
        <ele>41.469999999999999</ele>
        <time>2023-08-30T08:08:55Z</time>
      </trkpt>
      <trkpt lat="56.503592971712351" lon="-6.154167987406254">
        <ele>40.990000000000002</ele>
        <time>2023-08-30T08:09:01Z</time>
      </trkpt>
      <trkpt lat="56.503592971712351" lon="-6.154167987406254">
        <ele>41.469999999999999</ele>
        <time>2023-08-30T08:09:16Z</time>
      </trkpt>
      <trkpt lat="56.503592971712351" lon="-6.154167987406254">
        <ele>46.759999999999998</ele>
        <time>2023-08-30T08:09:35Z</time>
      </trkpt>
      <trkpt lat="56.503592971712351" lon="-6.154167987406254">
        <ele>46.759999999999998</ele>
        <time>2023-08-30T08:10:16Z</time>
      </trkpt>
      <trkpt lat="56.503609986975789" lon="-6.154076959937811">
        <ele>53.490000000000002</ele>
        <time>2023-08-30T08:16:23Z</time>
      </trkpt>
      <trkpt lat="56.503571011126041" lon="-6.154017029330134">
        <ele>55.409999999999997</ele>
        <time>2023-08-30T08:16:55Z</time>
      </trkpt>
      <trkpt lat="56.503560030832887" lon="-6.153975035995245">
        <ele>55.409999999999997</ele>
        <time>2023-08-30T08:16:56Z</time>
      </trkpt>
      <trkpt lat="56.50354502722621" lon="-6.153917033225298">
        <ele>54.93</ele>
        <time>2023-08-30T08:16:57Z</time>
      </trkpt>
      <trkpt lat="56.50324403308332" lon="-6.153010027483106">
        <ele>52.530000000000001</ele>
        <time>2023-08-30T08:17:06Z</time>
      </trkpt>
      <trkpt lat="56.502435011789203" lon="-6.151315961033106">
        <ele>52.049999999999997</ele>
        <time>2023-08-30T08:17:18Z</time>
      </trkpt>
      <trkpt lat="56.502267960458994" lon="-6.151072969660163">
        <ele>51.57</ele>
        <time>2023-08-30T08:17:20Z</time>
      </trkpt>
      <trkpt lat="56.50165599770844" lon="-6.150283981114626">
        <ele>48.200000000000003</ele>
        <time>2023-08-30T08:17:28Z</time>
      </trkpt>
      <trkpt lat="56.501600006595254" lon="-6.150178033858538">
        <ele>48.200000000000003</ele>
        <time>2023-08-30T08:17:29Z</time>
      </trkpt>
      <trkpt lat="56.501536974683404" lon="-6.150058005005121">
        <ele>48.200000000000003</ele>
        <time>2023-08-30T08:17:30Z</time>
      </trkpt>
      <trkpt lat="56.501470003277063" lon="-6.149932025000453">
        <ele>48.200000000000003</ele>
        <time>2023-08-30T08:17:31Z</time>
      </trkpt>
      <trkpt lat="56.501401020213962" lon="-6.149802021682262">
        <ele>47.719999999999999</ele>
        <time>2023-08-30T08:17:32Z</time>
      </trkpt>
      <trkpt lat="56.500618988648057" lon="-6.148040983825922">
        <ele>45.32</ele>
        <time>2023-08-30T08:17:45Z</time>
      </trkpt>
      <trkpt lat="56.500308020040393" lon="-6.147092990577221">
        <ele>43.399999999999999</ele>
        <time>2023-08-30T08:17:51Z</time>
      </trkpt>
      <trkpt lat="56.50025999173522" lon="-6.14691998809576">
        <ele>42.920000000000002</ele>
        <time>2023-08-30T08:17:52Z</time>
      </trkpt>
      <trkpt lat="56.499817008152604" lon="-6.145297000184655">
        <ele>36.670000000000002</ele>
        <time>2023-08-30T08:17:59Z</time>
      </trkpt>
      <trkpt lat="56.499446025118232" lon="-6.14352397620678">
        <ele>35.710000000000001</ele>
        <time>2023-08-30T08:18:07Z</time>
      </trkpt>
      <trkpt lat="56.499360026791692" lon="-6.143117034807801">
        <ele>36.670000000000002</ele>
        <time>2023-08-30T08:18:09Z</time>
      </trkpt>
      <trkpt lat="56.499107982963324" lon="-6.142350006848574">
        <ele>37.149999999999999</ele>
        <time>2023-08-30T08:18:13Z</time>
      </trkpt>
      <trkpt lat="56.499044029042125" lon="-6.142153032124043">
        <ele>37.149999999999999</ele>
        <time>2023-08-30T08:18:14Z</time>
      </trkpt>
      <trkpt lat="56.498774969950318" lon="-6.141475019976497">
        <ele>39.549999999999997</ele>
        <time>2023-08-30T08:18:18Z</time>
      </trkpt>
      <trkpt lat="56.498718978837132" lon="-6.141362031921744">
        <ele>40.030000000000001</ele>
        <time>2023-08-30T08:18:19Z</time>
      </trkpt>
      <trkpt lat="56.498649995774031" lon="-6.141274021938443">
        <ele>40.509999999999998</ele>
        <time>2023-08-30T08:18:20Z</time>
      </trkpt>
      <trkpt lat="56.498571038246155" lon="-6.1412020213902">
        <ele>40.990000000000002</ele>
        <time>2023-08-30T08:18:21Z</time>
      </trkpt>
      <trkpt lat="56.498483028262854" lon="-6.141120968386531">
        <ele>40.990000000000002</ele>
        <time>2023-08-30T08:18:22Z</time>
      </trkpt>
      <trkpt lat="56.497582979500294" lon="-6.140683013945818">
        <ele>39.549999999999997</ele>
        <time>2023-08-30T08:18:29Z</time>
      </trkpt>
      <trkpt lat="56.496480004861951" lon="-6.139691015705466">
        <ele>37.149999999999999</ele>
        <time>2023-08-30T08:18:38Z</time>
      </trkpt>
      <trkpt lat="56.495406031608582" lon="-6.138530960306525">
        <ele>32.82</ele>
        <time>2023-08-30T08:18:47Z</time>
      </trkpt>
      <trkpt lat="56.494360975921154" lon="-6.137707019224763">
        <ele>27.050000000000001</ele>
        <time>2023-08-30T08:18:56Z</time>
      </trkpt>
      <trkpt lat="56.494251005351543" lon="-6.137690003961325">
        <ele>26.09</ele>
        <time>2023-08-30T08:18:57Z</time>
      </trkpt>
      <trkpt lat="56.494146985933185" lon="-6.137673994526267">
        <ele>25.129999999999999</ele>
        <time>2023-08-30T08:18:58Z</time>
      </trkpt>
      <trkpt lat="56.493238974362612" lon="-6.137875998392701">
        <ele>20.32</ele>
        <time>2023-08-30T08:19:06Z</time>
      </trkpt>
      <trkpt lat="56.492055030539632" lon="-6.1377879884094">
        <ele>15.52</ele>
        <time>2023-08-30T08:19:15Z</time>
      </trkpt>
      <trkpt lat="56.490855999290943" lon="-6.137915980070829">
        <ele>15.039999999999999</ele>
        <time>2023-08-30T08:19:25Z</time>
      </trkpt>
      <trkpt lat="56.489911023527384" lon="-6.138800019398332">
        <ele>12.630000000000001</ele>
        <time>2023-08-30T08:19:34Z</time>
      </trkpt>
      <trkpt lat="56.488461960107088" lon="-6.14051696844399">
        <ele>8.789999999999999</ele>
        <time>2023-08-30T08:19:48Z</time>
      </trkpt>
      <trkpt lat="56.487335013225675" lon="-6.141433026641607">
        <ele>10.710000000000001</ele>
        <time>2023-08-30T08:19:57Z</time>
      </trkpt>
      <trkpt lat="56.485557965934277" lon="-6.142460983246565">
        <ele>13.119999999999999</ele>
        <time>2023-08-30T08:20:09Z</time>
      </trkpt>
      <trkpt lat="56.485011968761683" lon="-6.142739010974765">
        <ele>13.6</ele>
        <time>2023-08-30T08:20:14Z</time>
      </trkpt>
      <trkpt lat="56.484920019283891" lon="-6.14274999126792">
        <ele>13.6</ele>
        <time>2023-08-30T08:20:15Z</time>
      </trkpt>
      <trkpt lat="56.484820023179054" lon="-6.142681008204818">
        <ele>14.08</ele>
        <time>2023-08-30T08:20:16Z</time>
      </trkpt>
      <trkpt lat="56.484732013195753" lon="-6.142600039020181">
        <ele>14.08</ele>
        <time>2023-08-30T08:20:17Z</time>
      </trkpt>
      <trkpt lat="56.484645009040833" lon="-6.142520997673273">
        <ele>14.56</ele>
        <time>2023-08-30T08:20:18Z</time>
      </trkpt>
      <trkpt lat="56.48457502014935" lon="-6.142380014061928">
        <ele>14.56</ele>
        <time>2023-08-30T08:20:19Z</time>
      </trkpt>
      <trkpt lat="56.484520034864545" lon="-6.142266020178795">
        <ele>15.039999999999999</ele>
        <time>2023-08-30T08:20:20Z</time>
      </trkpt>
      <trkpt lat="56.484475024044514" lon="-6.14217096939683">
        <ele>15.52</ele>
        <time>2023-08-30T08:20:21Z</time>
      </trkpt>
      <trkpt lat="56.484434958547354" lon="-6.142090000212193">
        <ele>16</ele>
        <time>2023-08-30T08:20:22Z</time>
      </trkpt>
      <trkpt lat="56.48431702516973" lon="-6.141650034114718">
        <ele>16.960000000000001</ele>
        <time>2023-08-30T08:20:27Z</time>
      </trkpt>
      <trkpt lat="56.48429699242115" lon="-6.141549032181501">
        <ele>16.960000000000001</ele>
        <time>2023-08-30T08:20:28Z</time>
      </trkpt>
      <trkpt lat="56.48427302017808" lon="-6.141433026641607">
        <ele>16.960000000000001</ele>
        <time>2023-08-30T08:20:29Z</time>
      </trkpt>
      <trkpt lat="56.484146034345031" lon="-6.140657030045986">
        <ele>17.920000000000002</ele>
        <time>2023-08-30T08:20:34Z</time>
      </trkpt>
      <trkpt lat="56.483945958316326" lon="-6.138156959787011">
        <ele>21.77</ele>
        <time>2023-08-30T08:20:45Z</time>
      </trkpt>
      <trkpt lat="56.48380002938211" lon="-6.13533996976912">
        <ele>24.649999999999999</ele>
        <time>2023-08-30T08:20:55Z</time>
      </trkpt>
      <trkpt lat="56.483592996373773" lon="-6.133420011028647">
        <ele>31.859999999999999</ele>
        <time>2023-08-30T08:21:03Z</time>
      </trkpt>
      <trkpt lat="56.483197035267949" lon="-6.13054602406919">
        <ele>36.189999999999998</ele>
        <time>2023-08-30T08:21:14Z</time>
      </trkpt>
      <trkpt lat="56.482502007856965" lon="-6.128402017056942">
        <ele>42.439999999999998</ele>
        <time>2023-08-30T08:21:24Z</time>
      </trkpt>
      <trkpt lat="56.482430007308722" lon="-6.128216022625566">
        <ele>43.399999999999999</ele>
        <time>2023-08-30T08:21:25Z</time>
      </trkpt>
      <trkpt lat="56.481883004307747" lon="-6.1268500238657">
        <ele>47.719999999999999</ele>
        <time>2023-08-30T08:21:32Z</time>
      </trkpt>
      <trkpt lat="56.481789965182543" lon="-6.126694036647677">
        <ele>47.719999999999999</ele>
        <time>2023-08-30T08:21:33Z</time>
      </trkpt>
      <trkpt lat="56.481621991842985" lon="-6.126413997262716">
        <ele>49.159999999999997</ele>
        <time>2023-08-30T08:21:35Z</time>
      </trkpt>
      <trkpt lat="56.481544962152839" lon="-6.126275025308132">
        <ele>50.130000000000003</ele>
        <time>2023-08-30T08:21:36Z</time>
      </trkpt>
      <trkpt lat="56.481500035151839" lon="-6.126116020604968">
        <ele>50.609999999999999</ele>
        <time>2023-08-30T08:21:37Z</time>
      </trkpt>
      <trkpt lat="56.481336001306772" lon="-6.125400038436055">
        <ele>53.969999999999999</ele>
        <time>2023-08-30T08:21:42Z</time>
      </trkpt>
      <trkpt lat="56.481336001306772" lon="-6.12526198849082">
        <ele>53.969999999999999</ele>
        <time>2023-08-30T08:21:43Z</time>
      </trkpt>
      <trkpt lat="56.481336001306772" lon="-6.125050010159612">
        <ele>54.450000000000003</ele>
        <time>2023-08-30T08:21:44Z</time>
      </trkpt>
      <trkpt lat="56.481357039883733" lon="-6.124954959377646">
        <ele>54.450000000000003</ele>
        <time>2023-08-30T08:21:45Z</time>
      </trkpt>
      <trkpt lat="56.481394004076719" lon="-6.124786986038089">
        <ele>54.93</ele>
        <time>2023-08-30T08:21:46Z</time>
      </trkpt>
      <trkpt lat="56.481758030131459" lon="-6.122917989268899">
        <ele>54.450000000000003</ele>
        <time>2023-08-30T08:21:55Z</time>
      </trkpt>
      <trkpt lat="56.481780996546149" lon="-6.1227469984442">
        <ele>54.450000000000003</ele>
        <time>2023-08-30T08:21:56Z</time>
      </trkpt>
      <trkpt lat="56.481778984889388" lon="-6.12259897403419">
        <ele>54.450000000000003</ele>
        <time>2023-08-30T08:21:57Z</time>
      </trkpt>
      <trkpt lat="56.481768004596233" lon="-6.122439969331026">
        <ele>54.450000000000003</ele>
        <time>2023-08-30T08:21:58Z</time>
      </trkpt>
      <trkpt lat="56.481731040403247" lon="-6.122293034568429">
        <ele>53.969999999999999</ele>
        <time>2023-08-30T08:21:59Z</time>
      </trkpt>
      <trkpt lat="56.481674965471029" lon="-6.122131012380123">
        <ele>54.450000000000003</ele>
        <time>2023-08-30T08:22:00Z</time>
      </trkpt>
      <trkpt lat="56.481616040691733" lon="-6.121961027383804">
        <ele>54.450000000000003</ele>
        <time>2023-08-30T08:22:01Z</time>
      </trkpt>
      <trkpt lat="56.481554014608264" lon="-6.121785007417202">
        <ele>54.93</ele>
        <time>2023-08-30T08:22:02Z</time>
      </trkpt>
      <trkpt lat="56.481491988524795" lon="-6.121605969965458">
        <ele>55.409999999999997</ele>
        <time>2023-08-30T08:22:03Z</time>
      </trkpt>
      <trkpt lat="56.481437003239989" lon="-6.121412012726069">
        <ele>56.369999999999997</ele>
        <time>2023-08-30T08:22:04Z</time>
      </trkpt>
      <trkpt lat="56.481416970491409" lon="-6.121215960010886">
        <ele>56.859999999999999</ele>
        <time>2023-08-30T08:22:05Z</time>
      </trkpt>
      <trkpt lat="56.481398027390242" lon="-6.121028959751129">
        <ele>57.82</ele>
        <time>2023-08-30T08:22:06Z</time>
      </trkpt>
      <trkpt lat="56.481381012126803" lon="-6.120860986411572">
        <ele>58.299999999999997</ele>
        <time>2023-08-30T08:22:07Z</time>
      </trkpt>
      <trkpt lat="56.481366008520126" lon="-6.120711034163833">
        <ele>59.259999999999998</ele>
        <time>2023-08-30T08:22:08Z</time>
      </trkpt>
      <trkpt lat="56.48133197799325" lon="-6.120585976168513">
        <ele>60.219999999999999</ele>
        <time>2023-08-30T08:22:09Z</time>
      </trkpt>
      <trkpt lat="56.481261989101768" lon="-6.120467036962509">
        <ele>61.18</ele>
        <time>2023-08-30T08:22:10Z</time>
      </trkpt>
      <trkpt lat="56.481187976896763" lon="-6.120339967310429">
        <ele>62.140000000000001</ele>
        <time>2023-08-30T08:22:11Z</time>
      </trkpt>
      <trkpt lat="56.480579031631351" lon="-6.119102966040373">
        <ele>69.349999999999994</ele>
        <time>2023-08-30T08:22:18Z</time>
      </trkpt>
      <trkpt lat="56.480524968355894" lon="-6.118930969387293">
        <ele>70.790000000000006</ele>
        <time>2023-08-30T08:22:19Z</time>
      </trkpt>
      <trkpt lat="56.480498984456062" lon="-6.118777999654412">
        <ele>71.760000000000005</ele>
        <time>2023-08-30T08:22:20Z</time>
      </trkpt>
      <trkpt lat="56.480498984456062" lon="-6.118621006608009">
        <ele>73.200000000000003</ele>
        <time>2023-08-30T08:22:21Z</time>
      </trkpt>
      <trkpt lat="56.480506025254726" lon="-6.118484968319535">
        <ele>74.640000000000001</ele>
        <time>2023-08-30T08:22:22Z</time>
      </trkpt>
      <trkpt lat="56.480547012761235" lon="-6.118362005800009">
        <ele>76.079999999999998</ele>
        <time>2023-08-30T08:22:23Z</time>
      </trkpt>
      <trkpt lat="56.480588000267744" lon="-6.118238959461451">
        <ele>77.519999999999996</ele>
        <time>2023-08-30T08:22:24Z</time>
      </trkpt>
      <trkpt lat="56.480627981945872" lon="-6.118118008598685">
        <ele>78.969999999999999</ele>
        <time>2023-08-30T08:22:25Z</time>
      </trkpt>
      <trkpt lat="56.480654971674085" lon="-6.117994962260127">
        <ele>80.409999999999997</ele>
        <time>2023-08-30T08:22:26Z</time>
      </trkpt>
      <trkpt lat="56.480667963624001" lon="-6.117847021669149">
        <ele>81.370000000000005</ele>
        <time>2023-08-30T08:22:27Z</time>
      </trkpt>
      <trkpt lat="56.480639968067408" lon="-6.117668990045786">
        <ele>82.810000000000002</ele>
        <time>2023-08-30T08:22:28Z</time>
      </trkpt>
      <trkpt lat="56.480597974732518" lon="-6.11746396869421">
        <ele>83.290000000000006</ele>
        <time>2023-08-30T08:22:29Z</time>
      </trkpt>
      <trkpt lat="56.480552041903138" lon="-6.117241010069847">
        <ele>84.25</ele>
        <time>2023-08-30T08:22:30Z</time>
      </trkpt>
      <trkpt lat="56.480495966970921" lon="-6.117004975676537">
        <ele>85.209999999999994</ele>
        <time>2023-08-30T08:22:31Z</time>
      </trkpt>
      <trkpt lat="56.479792976751924" lon="-6.114470958709717">
        <ele>94.349999999999994</ele>
        <time>2023-08-30T08:22:42Z</time>
      </trkpt>
      <trkpt lat="56.479703960940242" lon="-6.113860001787543">
        <ele>96.75</ele>
        <time>2023-08-30T08:22:45Z</time>
      </trkpt>
      <trkpt lat="56.479691974818707" lon="-6.113665960729122">
        <ele>97.709999999999994</ele>
        <time>2023-08-30T08:22:46Z</time>
      </trkpt>
      <trkpt lat="56.479719970375299" lon="-6.113476026803255">
        <ele>98.189999999999998</ele>
        <time>2023-08-30T08:22:47Z</time>
      </trkpt>
      <trkpt lat="56.479750983417034" lon="-6.113279974088073">
        <ele>98.670000000000002</ele>
        <time>2023-08-30T08:22:48Z</time>
      </trkpt>
      <trkpt lat="56.479802029207349" lon="-6.113087022677064">
        <ele>99.629999999999995</ele>
        <time>2023-08-30T08:22:49Z</time>
      </trkpt>
      <trkpt lat="56.479853997007012" lon="-6.112889964133501">
        <ele>100.11</ele>
        <time>2023-08-30T08:22:50Z</time>
      </trkpt>
      <trkpt lat="56.479907976463437" lon="-6.112686032429338">
        <ele>101.08</ele>
        <time>2023-08-30T08:22:51Z</time>
      </trkpt>
      <trkpt lat="56.480169994756579" lon="-6.111646005883813">
        <ele>107.31999999999999</ele>
        <time>2023-08-30T08:22:56Z</time>
      </trkpt>
      <trkpt lat="56.480206958949566" lon="-6.111451964825392">
        <ele>108.29000000000001</ele>
        <time>2023-08-30T08:22:57Z</time>
      </trkpt>
      <trkpt lat="56.480241995304823" lon="-6.111263036727905">
        <ele>109.25</ele>
        <time>2023-08-30T08:22:58Z</time>
      </trkpt>
      <trkpt lat="56.480249958112836" lon="-6.111050974577665">
        <ele>110.20999999999999</ele>
        <time>2023-08-30T08:22:59Z</time>
      </trkpt>
      <trkpt lat="56.480259010568261" lon="-6.11082399263978">
        <ele>110.69</ele>
        <time>2023-08-30T08:23:00Z</time>
      </trkpt>
      <trkpt lat="56.480217017233372" lon="-6.10908298753202">
        <ele>112.61</ele>
        <time>2023-08-30T08:23:08Z</time>
      </trkpt>
      <trkpt lat="56.480206036940217" lon="-6.108901016414166">
        <ele>112.13</ele>
        <time>2023-08-30T08:23:09Z</time>
      </trkpt>
      <trkpt lat="56.480205031111836" lon="-6.108720973134041">
        <ele>111.65000000000001</ele>
        <time>2023-08-30T08:23:10Z</time>
      </trkpt>
      <trkpt lat="56.480225985869765" lon="-6.108526010066271">
        <ele>111.17</ele>
        <time>2023-08-30T08:23:11Z</time>
      </trkpt>
      <trkpt lat="56.480356995016336" lon="-6.106691965833306">
        <ele>104.44</ele>
        <time>2023-08-30T08:23:19Z</time>
      </trkpt>
      <trkpt lat="56.480350960046053" lon="-6.106488034129143">
        <ele>103.95999999999999</ele>
        <time>2023-08-30T08:23:20Z</time>
      </trkpt>
      <trkpt lat="56.480331011116505" lon="-6.105790995061398">
        <ele>101.56</ele>
        <time>2023-08-30T08:23:26Z</time>
      </trkpt>
      <trkpt lat="56.480336040258408" lon="-6.105562001466751">
        <ele>99.150000000000006</ele>
        <time>2023-08-30T08:23:36Z</time>
      </trkpt>
      <trkpt lat="56.480346014723182" lon="-6.105463011190295">
        <ele>99.150000000000006</ele>
        <time>2023-08-30T08:24:14Z</time>
      </trkpt>
      <trkpt lat="56.480441987514496" lon="-6.104823974892497">
        <ele>98.670000000000002</ele>
        <time>2023-08-30T08:24:18Z</time>
      </trkpt>
      <trkpt lat="56.480500996112823" lon="-6.104665976017714">
        <ele>98.670000000000002</ele>
        <time>2023-08-30T08:24:19Z</time>
      </trkpt>
      <trkpt lat="56.480569979175925" lon="-6.104542007669807">
        <ele>98.670000000000002</ele>
        <time>2023-08-30T08:24:20Z</time>
      </trkpt>
      <trkpt lat="56.480660000815988" lon="-6.104466989636421">
        <ele>98.670000000000002</ele>
        <time>2023-08-30T08:24:21Z</time>
      </trkpt>
      <trkpt lat="56.480767037719488" lon="-6.104400018230081">
        <ele>98.670000000000002</ele>
        <time>2023-08-30T08:24:22Z</time>
      </trkpt>
      <trkpt lat="56.480888994410634" lon="-6.104322988539934">
        <ele>98.189999999999998</ele>
        <time>2023-08-30T08:24:23Z</time>
      </trkpt>
      <trkpt lat="56.481302976608276" lon="-6.104060970246792">
        <ele>97.709999999999994</ele>
        <time>2023-08-30T08:24:26Z</time>
      </trkpt>
      <trkpt lat="56.481703966856003" lon="-6.103578004986048">
        <ele>98.189999999999998</ele>
        <time>2023-08-30T08:24:30Z</time>
      </trkpt>
      <trkpt lat="56.481786025688052" lon="-6.103463005274534">
        <ele>99.150000000000006</ele>
        <time>2023-08-30T08:24:31Z</time>
      </trkpt>
      <trkpt lat="56.481817038729787" lon="-6.10332696698606">
        <ele>100.11</ele>
        <time>2023-08-30T08:24:32Z</time>
      </trkpt>
      <trkpt lat="56.482218028977513" lon="-6.101548997685313">
        <ele>98.189999999999998</ele>
        <time>2023-08-30T08:24:40Z</time>
      </trkpt>
      <trkpt lat="56.482498990371823" lon="-6.100023994222283">
        <ele>92.420000000000002</ele>
        <time>2023-08-30T08:24:46Z</time>
      </trkpt>
      <trkpt lat="56.482682973146439" lon="-6.098398994654417">
        <ele>86.180000000000007</ele>
        <time>2023-08-30T08:24:54Z</time>
      </trkpt>
      <trkpt lat="56.482816999778152" lon="-6.097303982824087">
        <ele>82.329999999999998</ele>
        <time>2023-08-30T08:25:00Z</time>
      </trkpt>
      <trkpt lat="56.482804007828236" lon="-6.097160987555981">
        <ele>82.329999999999998</ele>
        <time>2023-08-30T08:25:01Z</time>
      </trkpt>
      <trkpt lat="56.482785986736417" lon="-6.097044982016087">
        <ele>82.810000000000002</ele>
        <time>2023-08-30T08:25:02Z</time>
      </trkpt>
      <trkpt lat="56.482733013108373" lon="-6.096909027546644">
        <ele>82.329999999999998</ele>
        <time>2023-08-30T08:25:03Z</time>
      </trkpt>
      <trkpt lat="56.482677021995187" lon="-6.096764020621777">
        <ele>82.329999999999998</ele>
        <time>2023-08-30T08:25:04Z</time>
      </trkpt>
      <trkpt lat="56.482093976810575" lon="-6.095185037702322">
        <ele>81.370000000000005</ele>
        <time>2023-08-30T08:25:13Z</time>
      </trkpt>
      <trkpt lat="56.48204100318253" lon="-6.094997031614184">
        <ele>80.890000000000001</ele>
        <time>2023-08-30T08:25:14Z</time>
      </trkpt>
      <trkpt lat="56.481758030131459" lon="-6.092974981293082">
        <ele>73.680000000000007</ele>
        <time>2023-08-30T08:25:23Z</time>
      </trkpt>
      <trkpt lat="56.481702961027622" lon="-6.092307027429342">
        <ele>70.790000000000006</ele>
        <time>2023-08-30T08:25:26Z</time>
      </trkpt>
      <trkpt lat="56.481711007654667" lon="-6.092071998864412">
        <ele>69.829999999999998</ele>
        <time>2023-08-30T08:25:27Z</time>
      </trkpt>
      <trkpt lat="56.48171997629106" lon="-6.091825990006328">
        <ele>68.390000000000001</ele>
        <time>2023-08-30T08:25:28Z</time>
      </trkpt>
      <trkpt lat="56.481938995420933" lon="-6.089116036891937">
        <ele>61.659999999999997</ele>
        <time>2023-08-30T08:25:39Z</time>
      </trkpt>
      <trkpt lat="56.48197503760457" lon="-6.08888796530664">
        <ele>61.659999999999997</ele>
        <time>2023-08-30T08:25:40Z</time>
      </trkpt>
      <trkpt lat="56.482079979032278" lon="-6.088228980079293">
        <ele>61.18</ele>
        <time>2023-08-30T08:25:43Z</time>
      </trkpt>
      <trkpt lat="56.482197996228933" lon="-6.086769020184875">
        <ele>60.219999999999999</ele>
        <time>2023-08-30T08:25:49Z</time>
      </trkpt>
      <trkpt lat="56.482257004827261" lon="-6.086128978058696">
        <ele>59.740000000000002</ele>
        <time>2023-08-30T08:25:52Z</time>
      </trkpt>
      <trkpt lat="56.482290029525757" lon="-6.085939966142178">
        <ele>59.740000000000002</ele>
        <time>2023-08-30T08:25:53Z</time>
      </trkpt>
      <trkpt lat="56.482494967058301" lon="-6.085110995918512">
        <ele>60.219999999999999</ele>
        <time>2023-08-30T08:25:57Z</time>
      </trkpt>
      <trkpt lat="56.482494967058301" lon="-6.084933970123529">
        <ele>60.700000000000003</ele>
        <time>2023-08-30T08:25:58Z</time>
      </trkpt>
      <trkpt lat="56.482494967058301" lon="-6.084708999842405">
        <ele>60.700000000000003</ele>
        <time>2023-08-30T08:25:59Z</time>
      </trkpt>
      <trkpt lat="56.48247099481523" lon="-6.084573967382312">
        <ele>60.700000000000003</ele>
        <time>2023-08-30T08:26:00Z</time>
      </trkpt>
      <trkpt lat="56.482436964288354" lon="-6.084370035678148">
        <ele>60.700000000000003</ele>
        <time>2023-08-30T08:26:01Z</time>
      </trkpt>
      <trkpt lat="56.482051983475685" lon="-6.082126032561064">
        <ele>56.369999999999997</ele>
        <time>2023-08-30T08:26:10Z</time>
      </trkpt>
      <trkpt lat="56.481970008462667" lon="-6.081652035936713">
        <ele>53.009999999999998</ele>
        <time>2023-08-30T08:26:14Z</time>
      </trkpt>
      <trkpt lat="56.481956010684371" lon="-6.081574000418186">
        <ele>49.649999999999999</ele>
        <time>2023-08-30T08:26:24Z</time>
      </trkpt>
      <trkpt lat="56.481932960450649" lon="-6.081439973786473">
        <ele>48.200000000000003</ele>
        <time>2023-08-30T08:26:26Z</time>
      </trkpt>
      <trkpt lat="56.481915023177862" lon="-6.081333020702004">
        <ele>47.719999999999999</ele>
        <time>2023-08-30T08:26:27Z</time>
      </trkpt>
      <trkpt lat="56.481687035411596" lon="-6.079974984750152">
        <ele>42.920000000000002</ele>
        <time>2023-08-30T08:26:34Z</time>
      </trkpt>
      <trkpt lat="56.481603970751166" lon="-6.079245004802942">
        <ele>40.509999999999998</ele>
        <time>2023-08-30T08:26:37Z</time>
      </trkpt>
      <trkpt lat="56.481603970751166" lon="-6.079022968187928">
        <ele>39.549999999999997</ele>
        <time>2023-08-30T08:26:38Z</time>
      </trkpt>
      <trkpt lat="56.481621991842985" lon="-6.078792968764901">
        <ele>38.590000000000003</ele>
        <time>2023-08-30T08:26:39Z</time>
      </trkpt>
      <trkpt lat="56.481768004596233" lon="-6.076996978372335">
        <ele>35.229999999999997</ele>
        <time>2023-08-30T08:26:47Z</time>
      </trkpt>
      <trkpt lat="56.482057012617588" lon="-6.074793040752411">
        <ele>30.420000000000002</ele>
        <time>2023-08-30T08:26:57Z</time>
      </trkpt>
      <trkpt lat="56.482101017609239" lon="-6.07457896694541">
        <ele>29.940000000000001</ele>
        <time>2023-08-30T08:26:58Z</time>
      </trkpt>
      <trkpt lat="56.482494967058301" lon="-6.07283603399992">
        <ele>24.649999999999999</ele>
        <time>2023-08-30T08:27:05Z</time>
      </trkpt>
      <trkpt lat="56.483051022514701" lon="-6.070705018937588">
        <ele>20.809999999999999</ele>
        <time>2023-08-30T08:27:14Z</time>
      </trkpt>
      <trkpt lat="56.483069965615869" lon="-6.070480970665813">
        <ele>20.809999999999999</ele>
        <time>2023-08-30T08:27:15Z</time>
      </trkpt>
      <trkpt lat="56.483088992536068" lon="-6.070261029526591">
        <ele>20.809999999999999</ele>
        <time>2023-08-30T08:27:16Z</time>
      </trkpt>
      <trkpt lat="56.483087986707687" lon="-6.070033041760325">
        <ele>21.289999999999999</ele>
        <time>2023-08-30T08:27:17Z</time>
      </trkpt>
      <trkpt lat="56.483077006414533" lon="-6.069791978225112">
        <ele>21.289999999999999</ele>
        <time>2023-08-30T08:27:18Z</time>
      </trkpt>
      <trkpt lat="56.483065020292997" lon="-6.069546975195408">
        <ele>21.289999999999999</ele>
        <time>2023-08-30T08:27:19Z</time>
      </trkpt>
      <trkpt lat="56.483043981716037" lon="-6.069094017148018">
        <ele>21.77</ele>
        <time>2023-08-30T08:27:21Z</time>
      </trkpt>
      <trkpt lat="56.483034007251263" lon="-6.068898970261216">
        <ele>22.25</ele>
        <time>2023-08-30T08:27:22Z</time>
      </trkpt>
      <trkpt lat="56.483054962009192" lon="-6.068711970001459">
        <ele>22.25</ele>
        <time>2023-08-30T08:27:23Z</time>
      </trkpt>
      <trkpt lat="56.483095027506351" lon="-6.068517006933689">
        <ele>22.25</ele>
        <time>2023-08-30T08:27:24Z</time>
      </trkpt>
      <trkpt lat="56.483139032498002" lon="-6.068302011117339">
        <ele>22.25</ele>
        <time>2023-08-30T08:27:25Z</time>
      </trkpt>
      <trkpt lat="56.483526024967432" lon="-6.066194968298078">
        <ele>22.25</ele>
        <time>2023-08-30T08:27:33Z</time>
      </trkpt>
      <trkpt lat="56.483942018821836" lon="-6.064124973490834">
        <ele>22.73</ele>
        <time>2023-08-30T08:27:42Z</time>
      </trkpt>
      <trkpt lat="56.48399499244988" lon="-6.06396303512156">
        <ele>22.73</ele>
        <time>2023-08-30T08:27:43Z</time>
      </trkpt>
      <trkpt lat="56.484073027968407" lon="-6.063887011259794">
        <ele>22.73</ele>
        <time>2023-08-30T08:27:44Z</time>
      </trkpt>
      <trkpt lat="56.484156008809805" lon="-6.063808975741267">
        <ele>22.25</ele>
        <time>2023-08-30T08:27:45Z</time>
      </trkpt>
      <trkpt lat="56.484246030449867" lon="-6.063724989071488">
        <ele>22.25</ele>
        <time>2023-08-30T08:27:46Z</time>
      </trkpt>
      <trkpt lat="56.484346026554704" lon="-6.063630022108555">
        <ele>21.77</ele>
        <time>2023-08-30T08:27:47Z</time>
      </trkpt>
      <trkpt lat="56.484450967982411" lon="-6.063476968556643">
        <ele>20.809999999999999</ele>
        <time>2023-08-30T08:27:48Z</time>
      </trkpt>
      <trkpt lat="56.484552975744009" lon="-6.063302960246801">
        <ele>19.84</ele>
        <time>2023-08-30T08:27:49Z</time>
      </trkpt>
      <trkpt lat="56.485192012041807" lon="-6.061698999255896">
        <ele>13.6</ele>
        <time>2023-08-30T08:27:56Z</time>
      </trkpt>
      <trkpt lat="56.485831970348954" lon="-6.059219967573881">
        <ele>10.23</ele>
        <time>2023-08-30T08:28:06Z</time>
      </trkpt>
      <trkpt lat="56.485955016687512" lon="-6.058667013421655">
        <ele>10.23</ele>
        <time>2023-08-30T08:28:09Z</time>
      </trkpt>
      <trkpt lat="56.486013019457459" lon="-6.058504991233349">
        <ele>10.23</ele>
        <time>2023-08-30T08:28:10Z</time>
      </trkpt>
      <trkpt lat="56.486536972224712" lon="-6.057248963043094">
        <ele>9.27</ele>
        <time>2023-08-30T08:28:16Z</time>
      </trkpt>
      <trkpt lat="56.48724096827209" lon="-6.055491026490927">
        <ele>10.23</ele>
        <time>2023-08-30T08:28:24Z</time>
      </trkpt>
      <trkpt lat="56.487372983247042" lon="-6.05509296990931">
        <ele>11.19</ele>
        <time>2023-08-30T08:28:26Z</time>
      </trkpt>
      <trkpt lat="56.487675989046693" lon="-6.053980020806193">
        <ele>14.56</ele>
        <time>2023-08-30T08:28:32Z</time>
      </trkpt>
      <trkpt lat="56.487678000703454" lon="-6.053816992789507">
        <ele>15.039999999999999</ele>
        <time>2023-08-30T08:28:33Z</time>
      </trkpt>
      <trkpt lat="56.487664002925158" lon="-6.05365002527833">
        <ele>15.039999999999999</ele>
        <time>2023-08-30T08:28:34Z</time>
      </trkpt>
      <trkpt lat="56.48764899931848" lon="-6.053464030846953">
        <ele>14.56</ele>
        <time>2023-08-30T08:28:35Z</time>
      </trkpt>
      <trkpt lat="56.487632989883423" lon="-6.053259009495378">
        <ele>14.08</ele>
        <time>2023-08-30T08:28:36Z</time>
      </trkpt>
      <trkpt lat="56.487615974619985" lon="-6.053044013679028">
        <ele>14.08</ele>
        <time>2023-08-30T08:28:37Z</time>
      </trkpt>
      <trkpt lat="56.487595019862056" lon="-6.052585020661354">
        <ele>13.119999999999999</ele>
        <time>2023-08-30T08:28:39Z</time>
      </trkpt>
      <trkpt lat="56.487510027363896" lon="-6.050614016130567">
        <ele>11.19</ele>
        <time>2023-08-30T08:28:47Z</time>
      </trkpt>
      <trkpt lat="56.487348005175591" lon="-6.049141986295581">
        <ele>7.83</ele>
        <time>2023-08-30T08:28:53Z</time>
      </trkpt>
      <trkpt lat="56.487358985468745" lon="-6.04890201240778">
        <ele>7.83</ele>
        <time>2023-08-30T08:28:54Z</time>
      </trkpt>
      <trkpt lat="56.487479014322162" lon="-6.046694973483682">
        <ele>8.310000000000001</ele>
        <time>2023-08-30T08:29:03Z</time>
      </trkpt>
      <trkpt lat="56.487741032615304" lon="-6.045248005539179">
        <ele>10.23</ele>
        <time>2023-08-30T08:29:09Z</time>
      </trkpt>
      <trkpt lat="56.487785959616303" lon="-6.045050024986267">
        <ele>10.710000000000001</ele>
        <time>2023-08-30T08:29:10Z</time>
      </trkpt>
      <trkpt lat="56.487802974879742" lon="-6.044857995584607">
        <ele>11.19</ele>
        <time>2023-08-30T08:29:11Z</time>
      </trkpt>
      <trkpt lat="56.487814038991928" lon="-6.044661020860076">
        <ele>12.15</ele>
        <time>2023-08-30T08:29:12Z</time>
      </trkpt>
      <trkpt lat="56.487823007628322" lon="-6.04447896592319">
        <ele>13.6</ele>
        <time>2023-08-30T08:29:13Z</time>
      </trkpt>
      <trkpt lat="56.487832982093096" lon="-6.044293977320194">
        <ele>14.56</ele>
        <time>2023-08-30T08:29:14Z</time>
      </trkpt>
      <trkpt lat="56.487867012619972" lon="-6.044099014252424">
        <ele>15.52</ele>
        <time>2023-08-30T08:29:15Z</time>
      </trkpt>
      <trkpt lat="56.487913029268384" lon="-6.043911008164287">
        <ele>16.48</ele>
        <time>2023-08-30T08:29:16Z</time>
      </trkpt>
      <trkpt lat="56.487960973754525" lon="-6.043714033439755">
        <ele>17.440000000000001</ele>
        <time>2023-08-30T08:29:17Z</time>
      </trkpt>
      <trkpt lat="56.488473024219275" lon="-6.041613025590777">
        <ele>18.879999999999999</ele>
        <time>2023-08-30T08:29:26Z</time>
      </trkpt>
      <trkpt lat="56.488489033654332" lon="-6.041352013126016">
        <ele>19.359999999999999</ele>
        <time>2023-08-30T08:29:27Z</time>
      </trkpt>
      <trkpt lat="56.488496996462345" lon="-6.041101980954409">
        <ele>19.84</ele>
        <time>2023-08-30T08:29:28Z</time>
      </trkpt>
      <trkpt lat="56.488504959270358" lon="-6.040855972096324">
        <ele>20.32</ele>
        <time>2023-08-30T08:29:29Z</time>
      </trkpt>
      <trkpt lat="56.488512000069022" lon="-6.040624966844916">
        <ele>20.809999999999999</ele>
        <time>2023-08-30T08:29:30Z</time>
      </trkpt>
      <trkpt lat="56.48852901533246" lon="-6.040221964940429">
        <ele>21.77</ele>
        <time>2023-08-30T08:29:32Z</time>
      </trkpt>
      <trkpt lat="56.488908967003226" lon="-6.038220031186938">
        <ele>23.690000000000001</ele>
        <time>2023-08-30T08:29:41Z</time>
      </trkpt>
      <trkpt lat="56.489508021622896" lon="-6.03560496121645">
        <ele>16.960000000000001</ele>
        <time>2023-08-30T08:29:52Z</time>
      </trkpt>
      <trkpt lat="56.489597959443927" lon="-6.035465989261866">
        <ele>16</ele>
        <time>2023-08-30T08:29:53Z</time>
      </trkpt>
      <trkpt lat="56.489874981343746" lon="-6.035005990415812">
        <ele>13.119999999999999</ele>
        <time>2023-08-30T08:29:56Z</time>
      </trkpt>
      <trkpt lat="56.489969026297331" lon="-6.034811027348042">
        <ele>12.630000000000001</ele>
        <time>2023-08-30T08:29:57Z</time>
      </trkpt>
      <trkpt lat="56.491181971505284" lon="-6.031875014305115">
        <ele>8.310000000000001</ele>
        <time>2023-08-30T08:30:10Z</time>
      </trkpt>
      <trkpt lat="56.492474963888526" lon="-6.028430974110961">
        <ele>7.35</ele>
        <time>2023-08-30T08:30:25Z</time>
      </trkpt>
      <trkpt lat="56.493082987144589" lon="-6.026225024834275">
        <ele>6.87</ele>
        <time>2023-08-30T08:30:34Z</time>
      </trkpt>
      <trkpt lat="56.493116011843085" lon="-6.025965018197894">
        <ele>6.87</ele>
        <time>2023-08-30T08:30:35Z</time>
      </trkpt>
      <trkpt lat="56.493302006274462" lon="-6.024712007492781">
        <ele>8.310000000000001</ele>
        <time>2023-08-30T08:30:40Z</time>
      </trkpt>
      <trkpt lat="56.493380963802338" lon="-6.02451897226274">
        <ele>8.310000000000001</ele>
        <time>2023-08-30T08:30:41Z</time>
      </trkpt>
      <trkpt lat="56.493461010977626" lon="-6.02432300336659">
        <ele>8.789999999999999</ele>
        <time>2023-08-30T08:30:42Z</time>
      </trkpt>
      <trkpt lat="56.493552960455418" lon="-6.024137008935213">
        <ele>8.789999999999999</ele>
        <time>2023-08-30T08:30:43Z</time>
      </trkpt>
      <trkpt lat="56.493657985702157" lon="-6.023966018110514">
        <ele>8.789999999999999</ele>
        <time>2023-08-30T08:30:44Z</time>
      </trkpt>
      <trkpt lat="56.493768962100148" lon="-6.023797038942576">
        <ele>8.789999999999999</ele>
        <time>2023-08-30T08:30:45Z</time>
      </trkpt>
      <trkpt lat="56.494498020038009" lon="-6.02292699739337">
        <ele>7.35</ele>
        <time>2023-08-30T08:30:51Z</time>
      </trkpt>
      <trkpt lat="56.49458703584969" lon="-6.022748965770006">
        <ele>7.35</ele>
        <time>2023-08-30T08:30:52Z</time>
      </trkpt>
      <trkpt lat="56.495009986683726" lon="-6.021850006654859">
        <ele>7.83</ele>
        <time>2023-08-30T08:30:57Z</time>
      </trkpt>
      <trkpt lat="56.495109982788563" lon="-6.021739030256867">
        <ele>7.83</ele>
        <time>2023-08-30T08:30:58Z</time>
      </trkpt>
      <trkpt lat="56.495217019692063" lon="-6.021640039980412">
        <ele>8.310000000000001</ele>
        <time>2023-08-30T08:30:59Z</time>
      </trkpt>
      <trkpt lat="56.495329001918435" lon="-6.021536020562053">
        <ele>7.83</ele>
        <time>2023-08-30T08:31:00Z</time>
      </trkpt>
      <trkpt lat="56.495445007458329" lon="-6.021427977830172">
        <ele>8.310000000000001</ele>
        <time>2023-08-30T08:31:01Z</time>
      </trkpt>
      <trkpt lat="56.495675006881356" lon="-6.021194038912654">
        <ele>8.310000000000001</ele>
        <time>2023-08-30T08:31:03Z</time>
      </trkpt>
      <trkpt lat="56.495781037956476" lon="-6.021053977310658">
        <ele>8.789999999999999</ele>
        <time>2023-08-30T08:31:04Z</time>
      </trkpt>
      <trkpt lat="56.495872987434268" lon="-6.020872006192803">
        <ele>8.789999999999999</ele>
        <time>2023-08-30T08:31:05Z</time>
      </trkpt>
      <trkpt lat="56.495954962447286" lon="-6.020676037296653">
        <ele>8.789999999999999</ele>
        <time>2023-08-30T08:31:06Z</time>
      </trkpt>
      <trkpt lat="56.496039032936096" lon="-6.020473027601838">
        <ele>9.27</ele>
        <time>2023-08-30T08:31:07Z</time>
      </trkpt>
      <trkpt lat="56.497002029791474" lon="-6.017893999814987">
        <ele>9.75</ele>
        <time>2023-08-30T08:31:19Z</time>
      </trkpt>
      <trkpt lat="56.497061960399151" lon="-6.017723008990288">
        <ele>9.75</ele>
        <time>2023-08-30T08:31:20Z</time>
      </trkpt>
      <trkpt lat="56.497131027281284" lon="-6.017599040642381">
        <ele>9.27</ele>
        <time>2023-08-30T08:31:21Z</time>
      </trkpt>
      <trkpt lat="56.497216019779444" lon="-6.017498038709164">
        <ele>9.27</ele>
        <time>2023-08-30T08:31:22Z</time>
      </trkpt>
      <trkpt lat="56.497307969257236" lon="-6.017387984320521">
        <ele>9.27</ele>
        <time>2023-08-30T08:31:23Z</time>
      </trkpt>
      <trkpt lat="56.497405031695962" lon="-6.017270972952247">
        <ele>9.27</ele>
        <time>2023-08-30T08:31:24Z</time>
      </trkpt>
      <trkpt lat="56.497515002265573" lon="-6.017139041796327">
        <ele>9.27</ele>
        <time>2023-08-30T08:31:25Z</time>
      </trkpt>
      <trkpt lat="56.497599994763732" lon="-6.016968972980976">
        <ele>9.27</ele>
        <time>2023-08-30T08:31:26Z</time>
      </trkpt>
      <trkpt lat="56.497691022232175" lon="-6.016785996034741">
        <ele>9.75</ele>
        <time>2023-08-30T08:31:27Z</time>
      </trkpt>
      <trkpt lat="56.498051024973392" lon="-6.016065990552306">
        <ele>10.23</ele>
        <time>2023-08-30T08:31:31Z</time>
      </trkpt>
      <trkpt lat="56.49811296723783" lon="-6.015984015539289">
        <ele>10.710000000000001</ele>
        <time>2023-08-30T08:31:32Z</time>
      </trkpt>
      <trkpt lat="56.498185973614454" lon="-6.015893993899226">
        <ele>10.710000000000001</ele>
        <time>2023-08-30T08:31:33Z</time>
      </trkpt>
      <trkpt lat="56.498278006911278" lon="-6.015887958928943">
        <ele>11.19</ele>
        <time>2023-08-30T08:31:34Z</time>
      </trkpt>
      <trkpt lat="56.498380014672875" lon="-6.01588100194931">
        <ele>11.19</ele>
        <time>2023-08-30T08:31:35Z</time>
      </trkpt>
      <trkpt lat="56.498501971364021" lon="-6.015873039141297">
        <ele>11.19</ele>
        <time>2023-08-30T08:31:36Z</time>
      </trkpt>
      <trkpt lat="56.498589981347322" lon="-6.015785029157996">
        <ele>11.19</ele>
        <time>2023-08-30T08:31:37Z</time>
      </trkpt>
      <trkpt lat="56.498699029907584" lon="-6.015672963112593">
        <ele>11.19</ele>
        <time>2023-08-30T08:31:38Z</time>
      </trkpt>
      <trkpt lat="56.498785028234124" lon="-6.015511024743319">
        <ele>11.19</ele>
        <time>2023-08-30T08:31:39Z</time>
      </trkpt>
      <trkpt lat="56.498875971883535" lon="-6.015339028090239">
        <ele>11.19</ele>
        <time>2023-08-30T08:31:40Z</time>
      </trkpt>
      <trkpt lat="56.499482989311218" lon="-6.014381982386112">
        <ele>11.19</ele>
        <time>2023-08-30T08:31:47Z</time>
      </trkpt>
      <trkpt lat="56.499592959880829" lon="-6.014263965189457">
        <ele>11.19</ele>
        <time>2023-08-30T08:31:48Z</time>
      </trkpt>
      <trkpt lat="56.499796975404024" lon="-6.014046035706997">
        <ele>11.19</ele>
        <time>2023-08-30T08:31:50Z</time>
      </trkpt>
      <trkpt lat="56.499884985387325" lon="-6.013897005468607">
        <ele>11.19</ele>
        <time>2023-08-30T08:31:51Z</time>
      </trkpt>
      <trkpt lat="56.499940976500511" lon="-6.013739006593823">
        <ele>11.19</ele>
        <time>2023-08-30T08:31:52Z</time>
      </trkpt>
      <trkpt lat="56.499972995370626" lon="-6.01353800855577">
        <ele>11.19</ele>
        <time>2023-08-30T08:31:53Z</time>
      </trkpt>
      <trkpt lat="56.499990010634065" lon="-6.013330975547433">
        <ele>11.67</ele>
        <time>2023-08-30T08:31:54Z</time>
      </trkpt>
      <trkpt lat="56.500009037554264" lon="-6.013109022751451">
        <ele>11.67</ele>
        <time>2023-08-30T08:31:55Z</time>
      </trkpt>
      <trkpt lat="56.500079026445746" lon="-6.012254990637302">
        <ele>12.15</ele>
        <time>2023-08-30T08:32:01Z</time>
      </trkpt>
      <trkpt lat="56.500086989253759" lon="-6.012157006189227">
        <ele>12.15</ele>
        <time>2023-08-30T08:32:04Z</time>
      </trkpt>
      <trkpt lat="56.500097969546914" lon="-6.012029014527798">
        <ele>12.630000000000001</ele>
        <time>2023-08-30T08:32:07Z</time>
      </trkpt>
      <trkpt lat="56.500106016173959" lon="-6.011935975402594">
        <ele>12.630000000000001</ele>
        <time>2023-08-30T08:32:08Z</time>
      </trkpt>
      <trkpt lat="56.500140968710184" lon="-6.011512018740177">
        <ele>12.15</ele>
        <time>2023-08-30T08:32:11Z</time>
      </trkpt>
      <trkpt lat="56.500154966488481" lon="-6.011339016258717">
        <ele>11.67</ele>
        <time>2023-08-30T08:32:12Z</time>
      </trkpt>
      <trkpt lat="56.50025999173522" lon="-6.009105993434787">
        <ele>11.19</ele>
        <time>2023-08-30T08:32:25Z</time>
      </trkpt>
      <trkpt lat="56.500344984233379" lon="-6.0071159619838">
        <ele>10.710000000000001</ele>
        <time>2023-08-30T08:32:34Z</time>
      </trkpt>
      <trkpt lat="56.500325035303831" lon="-6.006907001137734">
        <ele>10.23</ele>
        <time>2023-08-30T08:32:35Z</time>
      </trkpt>
      <trkpt lat="56.500294022262096" lon="-6.006710026413202">
        <ele>9.75</ele>
        <time>2023-08-30T08:32:36Z</time>
      </trkpt>
      <trkpt lat="56.500260997563601" lon="-6.006496036425233">
        <ele>9.75</ele>
        <time>2023-08-30T08:32:37Z</time>
      </trkpt>
      <trkpt lat="56.500200983136892" lon="-6.006299983710051">
        <ele>9.27</ele>
        <time>2023-08-30T08:32:38Z</time>
      </trkpt>
      <trkpt lat="56.499805022031069" lon="-6.005005985498428">
        <ele>8.789999999999999</ele>
        <time>2023-08-30T08:32:44Z</time>
      </trkpt>
      <trkpt lat="56.499728998169303" lon="-6.0048140399158">
        <ele>8.789999999999999</ele>
        <time>2023-08-30T08:32:45Z</time>
      </trkpt>
      <trkpt lat="56.499642999842763" lon="-6.004651011899114">
        <ele>8.789999999999999</ele>
        <time>2023-08-30T08:32:46Z</time>
      </trkpt>
      <trkpt lat="56.498893992975354" lon="-6.003491040319204">
        <ele>9.27</ele>
        <time>2023-08-30T08:32:54Z</time>
      </trkpt>
      <trkpt lat="56.498817969113588" lon="-6.00337696261704">
        <ele>9.27</ele>
        <time>2023-08-30T08:32:55Z</time>
      </trkpt>
      <trkpt lat="56.498771030455828" lon="-6.003208989277482">
        <ele>9.27</ele>
        <time>2023-08-30T08:32:56Z</time>
      </trkpt>
      <trkpt lat="56.498738005757332" lon="-6.002829959616065">
        <ele>9.27</ele>
        <time>2023-08-30T08:32:58Z</time>
      </trkpt>
      <trkpt lat="56.498716967180371" lon="-6.001157015562058">
        <ele>9.75</ele>
        <time>2023-08-30T08:33:05Z</time>
      </trkpt>
      <trkpt lat="56.498727025464177" lon="-6.000266019254923">
        <ele>9.75</ele>
        <time>2023-08-30T08:33:09Z</time>
      </trkpt>
      <trkpt lat="56.498732976615429" lon="-6.00006602704525">
        <ele>9.27</ele>
        <time>2023-08-30T08:33:10Z</time>
      </trkpt>
      <trkpt lat="56.498738005757332" lon="-5.99985396489501">
        <ele>8.789999999999999</ele>
        <time>2023-08-30T08:33:11Z</time>
      </trkpt>
      <trkpt lat="56.498705986887217" lon="-5.998569019138813">
        <ele>7.35</ele>
        <time>2023-08-30T08:33:17Z</time>
      </trkpt>
      <trkpt lat="56.498553017154336" lon="-5.997557993978262">
        <ele>6.87</ele>
        <time>2023-08-30T08:33:22Z</time>
      </trkpt>
      <trkpt lat="56.498527033254504" lon="-5.997385997325182">
        <ele>6.87</ele>
        <time>2023-08-30T08:33:23Z</time>
      </trkpt>
      <trkpt lat="56.498508006334305" lon="-5.997196985408664">
        <ele>6.87</ele>
        <time>2023-08-30T08:33:24Z</time>
      </trkpt>
      <trkpt lat="56.49854295887053" lon="-5.997044015675783">
        <ele>6.39</ele>
        <time>2023-08-30T08:33:25Z</time>
      </trkpt>
      <trkpt lat="56.498579001054168" lon="-5.996881993487477">
        <ele>5.91</ele>
        <time>2023-08-30T08:33:26Z</time>
      </trkpt>
      <trkpt lat="56.498615965247154" lon="-5.996717037633061">
        <ele>5.42</ele>
        <time>2023-08-30T08:33:27Z</time>
      </trkpt>
      <trkpt lat="56.498925006017089" lon="-5.995246013626456">
        <ele>2.54</ele>
        <time>2023-08-30T08:33:35Z</time>
      </trkpt>
      <trkpt lat="56.498931040987372" lon="-5.995122967287898">
        <ele>2.06</ele>
        <time>2023-08-30T08:33:36Z</time>
      </trkpt>
      <trkpt lat="56.498931040987372" lon="-5.994971003383398">
        <ele>2.06</ele>
        <time>2023-08-30T08:33:37Z</time>
      </trkpt>
      <trkpt lat="56.498914025723934" lon="-5.994822978973389">
        <ele>1.58</ele>
        <time>2023-08-30T08:33:38Z</time>
      </trkpt>
      <trkpt lat="56.498877983540297" lon="-5.994643019512296">
        <ele>1.58</ele>
        <time>2023-08-30T08:33:39Z</time>
      </trkpt>
      <trkpt lat="56.498840013518929" lon="-5.994451995939016">
        <ele>1.58</ele>
        <time>2023-08-30T08:33:40Z</time>
      </trkpt>
      <trkpt lat="56.498797014355659" lon="-5.994249992072582">
        <ele>1.58</ele>
        <time>2023-08-30T08:33:41Z</time>
      </trkpt>
      <trkpt lat="56.49873398244381" lon="-5.994059974327683">
        <ele>2.06</ele>
        <time>2023-08-30T08:33:42Z</time>
      </trkpt>
      <trkpt lat="56.49866902269423" lon="-5.993865011259913">
        <ele>2.54</ele>
        <time>2023-08-30T08:33:43Z</time>
      </trkpt>
      <trkpt lat="56.498566009104252" lon="-5.993683040142059">
        <ele>2.54</ele>
        <time>2023-08-30T08:33:44Z</time>
      </trkpt>
      <trkpt lat="56.497367983683944" lon="-5.991869028657675">
        <ele>6.39</ele>
        <time>2023-08-30T08:33:54Z</time>
      </trkpt>
      <trkpt lat="56.49617800489068" lon="-5.990065997466445">
        <ele>5.42</ele>
        <time>2023-08-30T08:34:04Z</time>
      </trkpt>
      <trkpt lat="56.495247026905417" lon="-5.988654987886548">
        <ele>7.83</ele>
        <time>2023-08-30T08:34:13Z</time>
      </trkpt>
      <trkpt lat="56.494430964812636" lon="-5.987418992444873">
        <ele>9.75</ele>
        <time>2023-08-30T08:34:23Z</time>
      </trkpt>
      <trkpt lat="56.494357958436012" lon="-5.987312961369753">
        <ele>9.75</ele>
        <time>2023-08-30T08:34:24Z</time>
      </trkpt>
      <trkpt lat="56.4942860417068" lon="-5.987322013825178">
        <ele>9.75</ele>
        <time>2023-08-30T08:34:25Z</time>
      </trkpt>
      <trkpt lat="56.494208006188273" lon="-5.987331988289952">
        <ele>9.75</ele>
        <time>2023-08-30T08:34:26Z</time>
      </trkpt>
      <trkpt lat="56.494118990376592" lon="-5.987342968583107">
        <ele>10.23</ele>
        <time>2023-08-30T08:34:27Z</time>
      </trkpt>
      <trkpt lat="56.494004996493459" lon="-5.987366018816829">
        <ele>10.23</ele>
        <time>2023-08-30T08:34:28Z</time>
      </trkpt>
      <trkpt lat="56.493907012045383" lon="-5.987450005486608">
        <ele>10.23</ele>
        <time>2023-08-30T08:34:29Z</time>
      </trkpt>
      <trkpt lat="56.492905039340258" lon="-5.988194989040494">
        <ele>9.27</ele>
        <time>2023-08-30T08:34:37Z</time>
      </trkpt>
      <trkpt lat="56.491946987807751" lon="-5.988751966506243">
        <ele>7.35</ele>
        <time>2023-08-30T08:34:44Z</time>
      </trkpt>
      <trkpt lat="56.491667032241821" lon="-5.988879958167672">
        <ele>6.39</ele>
        <time>2023-08-30T08:34:46Z</time>
      </trkpt>
      <trkpt lat="56.491544991731644" lon="-5.98893603309989">
        <ele>5.91</ele>
        <time>2023-08-30T08:34:47Z</time>
      </trkpt>
      <trkpt lat="56.490576965734363" lon="-5.989354038611054">
        <ele>2.54</ele>
        <time>2023-08-30T08:34:54Z</time>
      </trkpt>
      <trkpt lat="56.489821001887321" lon="-5.989605998620391">
        <ele>0.14</ele>
        <time>2023-08-30T08:34:59Z</time>
      </trkpt>
      <trkpt lat="56.488603027537465" lon="-5.989999026060104">
        <ele>-1.79</ele>
        <time>2023-08-30T08:35:07Z</time>
      </trkpt>
      <trkpt lat="56.487363008782268" lon="-5.990262972190976">
        <ele>-0.82</ele>
        <time>2023-08-30T08:35:15Z</time>
      </trkpt>
      <trkpt lat="56.485924003645778" lon="-5.990423988550901">
        <ele>0.62</ele>
        <time>2023-08-30T08:35:24Z</time>
      </trkpt>
      <trkpt lat="56.484626987949014" lon="-5.990234976634383">
        <ele>-0.34</ele>
        <time>2023-08-30T08:35:32Z</time>
      </trkpt>
      <trkpt lat="56.483263000845909" lon="-5.989697026088834">
        <ele>1.1</ele>
        <time>2023-08-30T08:35:41Z</time>
      </trkpt>
      <trkpt lat="56.48167597129941" lon="-5.989070981740952">
        <ele>2.06</ele>
        <time>2023-08-30T08:35:52Z</time>
      </trkpt>
      <trkpt lat="56.480500996112823" lon="-5.988833019509912">
        <ele>0.14</ele>
        <time>2023-08-30T08:36:01Z</time>
      </trkpt>
      <trkpt lat="56.480116015300155" lon="-5.988805023953319">
        <ele>-0.82</ele>
        <time>2023-08-30T08:36:04Z</time>
      </trkpt>
      <trkpt lat="56.479769004508853" lon="-5.988667979836464">
        <ele>-1.79</ele>
        <time>2023-08-30T08:36:07Z</time>
      </trkpt>
      <trkpt lat="56.479658028110862" lon="-5.988596985116601">
        <ele>-2.27</ele>
        <time>2023-08-30T08:36:08Z</time>
      </trkpt>
      <trkpt lat="56.479536993429065" lon="-5.988480979576707">
        <ele>-2.27</ele>
        <time>2023-08-30T08:36:09Z</time>
      </trkpt>
      <trkpt lat="56.479245973750949" lon="-5.988117959350348">
        <ele>-3.23</ele>
        <time>2023-08-30T08:36:12Z</time>
      </trkpt>
      <trkpt lat="56.479144971817732" lon="-5.987947974354029">
        <ele>-3.23</ele>
        <time>2023-08-30T08:36:13Z</time>
      </trkpt>
      <trkpt lat="56.47898898459971" lon="-5.987458974123001">
        <ele>-3.71</ele>
        <time>2023-08-30T08:36:16Z</time>
      </trkpt>
      <trkpt lat="56.478768959641457" lon="-5.986881963908672">
        <ele>-5.15</ele>
        <time>2023-08-30T08:36:20Z</time>
      </trkpt>
      <trkpt lat="56.478695031255484" lon="-5.986794959753752">
        <ele>-5.15</ele>
        <time>2023-08-30T08:36:21Z</time>
      </trkpt>
      <trkpt lat="56.478589000180364" lon="-5.986668979749084">
        <ele>-5.63</ele>
        <time>2023-08-30T08:36:22Z</time>
      </trkpt>
      <trkpt lat="56.478534014895558" lon="-5.986654981970787">
        <ele>-5.15</ele>
        <time>2023-08-30T08:36:23Z</time>
      </trkpt>
      <trkpt lat="56.47845002822578" lon="-5.986634027212858">
        <ele>-4.19</ele>
        <time>2023-08-30T08:36:24Z</time>
      </trkpt>
      <trkpt lat="56.478332011029124" lon="-5.986605025827885">
        <ele>-2.27</ele>
        <time>2023-08-30T08:36:26Z</time>
      </trkpt>
      <trkpt lat="56.478222040459514" lon="-5.986636038869619">
        <ele>-1.3</ele>
        <time>2023-08-30T08:36:27Z</time>
      </trkpt>
      <trkpt lat="56.478150961920619" lon="-5.986680965870619">
        <ele>-0.82</ele>
        <time>2023-08-30T08:36:28Z</time>
      </trkpt>
      <trkpt lat="56.477856002748013" lon="-5.986968968063593">
        <ele>2.06</ele>
        <time>2023-08-30T08:36:32Z</time>
      </trkpt>
      <trkpt lat="56.47776598110795" lon="-5.987009033560753">
        <ele>2.54</ele>
        <time>2023-08-30T08:36:33Z</time>
      </trkpt>
      <trkpt lat="56.477676965296268" lon="-5.987036023288965">
        <ele>2.54</ele>
        <time>2023-08-30T08:36:34Z</time>
      </trkpt>
      <trkpt lat="56.477580992504954" lon="-5.987041974440217">
        <ele>3.5</ele>
        <time>2023-08-30T08:36:35Z</time>
      </trkpt>
      <trkpt lat="56.477493988350034" lon="-5.98704700358212">
        <ele>3.5</ele>
        <time>2023-08-30T08:36:36Z</time>
      </trkpt>
      <trkpt lat="56.477413019165397" lon="-5.987052032724023">
        <ele>4.46</ele>
        <time>2023-08-30T08:36:37Z</time>
      </trkpt>
      <trkpt lat="56.477365996688604" lon="-5.987054966390133">
        <ele>5.42</ele>
        <time>2023-08-30T08:36:38Z</time>
      </trkpt>
      <trkpt lat="56.477305982261896" lon="-5.987174995243549">
        <ele>5.91</ele>
        <time>2023-08-30T08:36:39Z</time>
      </trkpt>
      <trkpt lat="56.477279998362064" lon="-5.987226963043213">
        <ele>6.39</ele>
        <time>2023-08-30T08:36:40Z</time>
      </trkpt>
      <trkpt lat="56.477285027503967" lon="-5.987279014661908">
        <ele>6.87</ele>
        <time>2023-08-30T08:36:41Z</time>
      </trkpt>
      <trkpt lat="56.477296007797122" lon="-5.987403988838196">
        <ele>7.83</ele>
        <time>2023-08-30T08:36:42Z</time>
      </trkpt>
      <trkpt lat="56.477301958948374" lon="-5.987462997436523">
        <ele>8.789999999999999</ele>
        <time>2023-08-30T08:36:43Z</time>
      </trkpt>
      <trkpt lat="56.477341018617153" lon="-5.987617978826165">
        <ele>9.27</ele>
        <time>2023-08-30T08:36:44Z</time>
      </trkpt>
      <trkpt lat="56.47737798281014" lon="-5.987761979922652">
        <ele>9.75</ele>
        <time>2023-08-30T08:36:45Z</time>
      </trkpt>
      <trkpt lat="56.477779978886247" lon="-5.98936703056097">
        <ele>13.119999999999999</ele>
        <time>2023-08-30T08:36:55Z</time>
      </trkpt>
      <trkpt lat="56.477859020233154" lon="-5.989683028310537">
        <ele>13.6</ele>
        <time>2023-08-30T08:36:57Z</time>
      </trkpt>
      <trkpt lat="56.47789397276938" lon="-5.989826023578644">
        <ele>13.119999999999999</ele>
        <time>2023-08-30T08:36:58Z</time>
      </trkpt>
      <trkpt lat="56.477930014953017" lon="-5.989973964169622">
        <ele>12.630000000000001</ele>
        <time>2023-08-30T08:36:59Z</time>
      </trkpt>
      <trkpt lat="56.477969996631145" lon="-5.990134980529547">
        <ele>12.15</ele>
        <time>2023-08-30T08:37:00Z</time>
      </trkpt>
      <trkpt lat="56.478014001622796" lon="-5.990303959697485">
        <ele>12.15</ele>
        <time>2023-08-30T08:37:01Z</time>
      </trkpt>
      <trkpt lat="56.478074016049504" lon="-5.990438992157579">
        <ele>11.67</ele>
        <time>2023-08-30T08:37:02Z</time>
      </trkpt>
      <trkpt lat="56.478145010769367" lon="-5.990596991032362">
        <ele>11.19</ele>
        <time>2023-08-30T08:37:03Z</time>
      </trkpt>
      <trkpt lat="56.478222040459514" lon="-5.990769993513823">
        <ele>11.19</ele>
        <time>2023-08-30T08:37:04Z</time>
      </trkpt>
      <trkpt lat="56.478456985205412" lon="-5.991296963766217">
        <ele>10.710000000000001</ele>
        <time>2023-08-30T08:37:07Z</time>
      </trkpt>
      <trkpt lat="56.478578019887209" lon="-5.991631988435984">
        <ele>9.75</ele>
        <time>2023-08-30T08:37:09Z</time>
      </trkpt>
      <trkpt lat="56.478634011000395" lon="-5.991789987310767">
        <ele>9.27</ele>
        <time>2023-08-30T08:37:10Z</time>
      </trkpt>
      <trkpt lat="56.478684972971678" lon="-5.991984028369188">
        <ele>8.310000000000001</ele>
        <time>2023-08-30T08:37:11Z</time>
      </trkpt>
      <trkpt lat="56.478711040690541" lon="-5.992188965901732">
        <ele>7.83</ele>
        <time>2023-08-30T08:37:12Z</time>
      </trkpt>
      <trkpt lat="56.478737024590373" lon="-5.992398010566831">
        <ele>7.35</ele>
        <time>2023-08-30T08:37:13Z</time>
      </trkpt>
      <trkpt lat="56.478763008490205" lon="-5.992606971412897">
        <ele>7.35</ele>
        <time>2023-08-30T08:37:14Z</time>
      </trkpt>
      <trkpt lat="56.478842971846461" lon="-5.994464987888932">
        <ele>3.5</ele>
        <time>2023-08-30T08:37:22Z</time>
      </trkpt>
      <trkpt lat="56.478639962151647" lon="-5.997557993978262">
        <ele>-0.82</ele>
        <time>2023-08-30T08:37:34Z</time>
      </trkpt>
      <trkpt lat="56.478524040430784" lon="-5.998252015560865">
        <ele>0.14</ele>
        <time>2023-08-30T08:37:37Z</time>
      </trkpt>
      <trkpt lat="56.478460002690554" lon="-5.998471034690738">
        <ele>0.14</ele>
        <time>2023-08-30T08:37:38Z</time>
      </trkpt>
      <trkpt lat="56.477921968325973" lon="-5.99987399764359">
        <ele>0.14</ele>
        <time>2023-08-30T08:37:44Z</time>
      </trkpt>
      <trkpt lat="56.477859020233154" lon="-6.000126963481307">
        <ele>0.14</ele>
        <time>2023-08-30T08:37:45Z</time>
      </trkpt>
      <trkpt lat="56.477795988321304" lon="-6.000375989824534">
        <ele>-0.34</ele>
        <time>2023-08-30T08:37:46Z</time>
      </trkpt>
      <trkpt lat="56.477757012471557" lon="-6.000657035037875">
        <ele>-0.34</ele>
        <time>2023-08-30T08:37:47Z</time>
      </trkpt>
      <trkpt lat="56.477733040228486" lon="-6.000919975340366">
        <ele>-0.82</ele>
        <time>2023-08-30T08:37:48Z</time>
      </trkpt>
      <trkpt lat="56.477708984166384" lon="-6.001175036653876">
        <ele>-1.3</ele>
        <time>2023-08-30T08:37:49Z</time>
      </trkpt>
      <trkpt lat="56.477676965296268" lon="-6.002633990719914">
        <ele>-3.71</ele>
        <time>2023-08-30T08:37:55Z</time>
      </trkpt>
      <trkpt lat="56.477456018328667" lon="-6.004672972485423">
        <ele>-5.15</ele>
        <time>2023-08-30T08:38:03Z</time>
      </trkpt>
      <trkpt lat="56.477230964228511" lon="-6.006766017526388">
        <ele>-6.11</ele>
        <time>2023-08-30T08:38:11Z</time>
      </trkpt>
      <trkpt lat="56.477172961458564" lon="-6.007141023874283">
        <ele>-5.63</ele>
        <time>2023-08-30T08:38:13Z</time>
      </trkpt>
      <trkpt lat="56.477139014750719" lon="-6.00730799138546">
        <ele>-5.15</ele>
        <time>2023-08-30T08:38:14Z</time>
      </trkpt>
      <trkpt lat="56.477106995880604" lon="-6.007470013573766">
        <ele>-4.67</ele>
        <time>2023-08-30T08:38:15Z</time>
      </trkpt>
      <trkpt lat="56.477075982838869" lon="-6.007623989135027">
        <ele>-4.19</ele>
        <time>2023-08-30T08:38:16Z</time>
      </trkpt>
      <trkpt lat="56.477045975625515" lon="-6.007775031030178">
        <ele>-3.23</ele>
        <time>2023-08-30T08:38:17Z</time>
      </trkpt>
      <trkpt lat="56.476911026984453" lon="-6.008228994905949">
        <ele>-2.75</ele>
        <time>2023-08-30T08:38:20Z</time>
      </trkpt>
      <trkpt lat="56.476851012557745" lon="-6.00838397629559">
        <ele>-2.27</ele>
        <time>2023-08-30T08:38:21Z</time>
      </trkpt>
      <trkpt lat="56.476774988695979" lon="-6.008480032905936">
        <ele>-1.79</ele>
        <time>2023-08-30T08:38:22Z</time>
      </trkpt>
      <trkpt lat="56.476680021733046" lon="-6.00859897211194">
        <ele>-1.79</ele>
        <time>2023-08-30T08:38:23Z</time>
      </trkpt>
      <trkpt lat="56.47658497095108" lon="-6.00864096544683">
        <ele>-1.3</ele>
        <time>2023-08-30T08:38:24Z</time>
      </trkpt>
      <trkpt lat="56.47647500038147" lon="-6.008691005408764">
        <ele>-1.3</ele>
        <time>2023-08-30T08:38:25Z</time>
      </trkpt>
      <trkpt lat="56.475068014115095" lon="-6.009328030049801">
        <ele>1.58</ele>
        <time>2023-08-30T08:38:36Z</time>
      </trkpt>
      <trkpt lat="56.473968978971243" lon="-6.010154988616705">
        <ele>4.46</ele>
        <time>2023-08-30T08:38:45Z</time>
      </trkpt>
      <trkpt lat="56.473884992301464" lon="-6.010274011641741">
        <ele>4.46</ele>
        <time>2023-08-30T08:38:46Z</time>
      </trkpt>
      <trkpt lat="56.473797988146544" lon="-6.01044399663806">
        <ele>4.46</ele>
        <time>2023-08-30T08:38:47Z</time>
      </trkpt>
      <trkpt lat="56.473733028396964" lon="-6.010642983019352">
        <ele>4.46</ele>
        <time>2023-08-30T08:38:48Z</time>
      </trkpt>
      <trkpt lat="56.473664967343211" lon="-6.010850016027689">
        <ele>4.46</ele>
        <time>2023-08-30T08:38:49Z</time>
      </trkpt>
      <trkpt lat="56.473460029810667" lon="-6.011423002928495">
        <ele>4.94</ele>
        <time>2023-08-30T08:38:52Z</time>
      </trkpt>
      <trkpt lat="56.473375959321856" lon="-6.011573961004615">
        <ele>4.94</ele>
        <time>2023-08-30T08:38:53Z</time>
      </trkpt>
      <trkpt lat="56.473285015672445" lon="-6.011717962101102">
        <ele>4.94</ele>
        <time>2023-08-30T08:38:54Z</time>
      </trkpt>
      <trkpt lat="56.473177978768945" lon="-6.011837990954518">
        <ele>5.42</ele>
        <time>2023-08-30T08:38:55Z</time>
      </trkpt>
      <trkpt lat="56.473069014027715" lon="-6.011961037293077">
        <ele>5.42</ele>
        <time>2023-08-30T08:38:56Z</time>
      </trkpt>
      <trkpt lat="56.472967006266117" lon="-6.012075031176209">
        <ele>5.42</ele>
        <time>2023-08-30T08:38:57Z</time>
      </trkpt>
      <trkpt lat="56.47198498249054" lon="-6.01285002194345">
        <ele>7.35</ele>
        <time>2023-08-30T08:39:05Z</time>
      </trkpt>
      <trkpt lat="56.471880963072181" lon="-6.012931996956468">
        <ele>6.87</ele>
        <time>2023-08-30T08:39:06Z</time>
      </trkpt>
      <trkpt lat="56.471788007766008" lon="-6.013054037466645">
        <ele>6.87</ele>
        <time>2023-08-30T08:39:07Z</time>
      </trkpt>
      <trkpt lat="56.471701003611088" lon="-6.013190997764468">
        <ele>6.87</ele>
        <time>2023-08-30T08:39:08Z</time>
      </trkpt>
      <trkpt lat="56.471650963649154" lon="-6.013338016346097">
        <ele>6.87</ele>
        <time>2023-08-30T08:39:09Z</time>
      </trkpt>
      <trkpt lat="56.471600001677871" lon="-6.013485034927726">
        <ele>6.87</ele>
        <time>2023-08-30T08:39:10Z</time>
      </trkpt>
      <trkpt lat="56.471553985029459" lon="-6.013620989397168">
        <ele>7.35</ele>
        <time>2023-08-30T08:39:11Z</time>
      </trkpt>
      <trkpt lat="56.471509980037808" lon="-6.013747975230217">
        <ele>7.35</ele>
        <time>2023-08-30T08:39:12Z</time>
      </trkpt>
      <trkpt lat="56.471467986702919" lon="-6.013872027397156">
        <ele>7.35</ele>
        <time>2023-08-30T08:39:13Z</time>
      </trkpt>
      <trkpt lat="56.471413001418114" lon="-6.013965988531709">
        <ele>7.35</ele>
        <time>2023-08-30T08:39:14Z</time>
      </trkpt>
      <trkpt lat="56.471329014748335" lon="-6.014032959938049">
        <ele>7.35</ele>
        <time>2023-08-30T08:39:15Z</time>
      </trkpt>
      <trkpt lat="56.47123203612864" lon="-6.014110995456576">
        <ele>7.35</ele>
        <time>2023-08-30T08:39:16Z</time>
      </trkpt>
      <trkpt lat="56.470472970977426" lon="-6.015008026733995">
        <ele>6.87</ele>
        <time>2023-08-30T08:39:23Z</time>
      </trkpt>
      <trkpt lat="56.469840975478292" lon="-6.015990972518921">
        <ele>8.310000000000001</ele>
        <time>2023-08-30T08:39:31Z</time>
      </trkpt>
      <trkpt lat="56.469736034050584" lon="-6.016086023300886">
        <ele>8.789999999999999</ele>
        <time>2023-08-30T08:39:33Z</time>
      </trkpt>
      <trkpt lat="56.469403021037579" lon="-6.016370002180338">
        <ele>9.75</ele>
        <time>2023-08-30T08:39:40Z</time>
      </trkpt>
      <trkpt lat="56.468480005860329" lon="-6.016903007403016">
        <ele>11.19</ele>
        <time>2023-08-30T08:39:48Z</time>
      </trkpt>
      <trkpt lat="56.467883968725801" lon="-6.017286982387304">
        <ele>12.15</ele>
        <time>2023-08-30T08:39:53Z</time>
      </trkpt>
      <trkpt lat="56.467789001762867" lon="-6.017391001805663">
        <ele>11.67</ele>
        <time>2023-08-30T08:39:54Z</time>
      </trkpt>
      <trkpt lat="56.467722030356526" lon="-6.017530979588628">
        <ele>11.67</ele>
        <time>2023-08-30T08:39:55Z</time>
      </trkpt>
      <trkpt lat="56.467650029808283" lon="-6.017685038968921">
        <ele>11.67</ele>
        <time>2023-08-30T08:39:56Z</time>
      </trkpt>
      <trkpt lat="56.467593032866716" lon="-6.017870027571917">
        <ele>11.19</ele>
        <time>2023-08-30T08:39:57Z</time>
      </trkpt>
      <trkpt lat="56.467542992904782" lon="-6.01807395927608">
        <ele>10.710000000000001</ele>
        <time>2023-08-30T08:39:58Z</time>
      </trkpt>
      <trkpt lat="56.467071007937193" lon="-6.019581025466323">
        <ele>9.75</ele>
        <time>2023-08-30T08:40:06Z</time>
      </trkpt>
      <trkpt lat="56.466746041551232" lon="-6.020501023158431">
        <ele>9.27</ele>
        <time>2023-08-30T08:40:11Z</time>
      </trkpt>
      <trkpt lat="56.46669901907444" lon="-6.020691962912679">
        <ele>9.27</ele>
        <time>2023-08-30T08:40:12Z</time>
      </trkpt>
      <trkpt lat="56.466675968840718" lon="-6.020893966779113">
        <ele>9.27</ele>
        <time>2023-08-30T08:40:13Z</time>
      </trkpt>
      <trkpt lat="56.466669011861086" lon="-6.021103011444211">
        <ele>8.789999999999999</ele>
        <time>2023-08-30T08:40:14Z</time>
      </trkpt>
      <trkpt lat="56.466661971062422" lon="-6.021311972290278">
        <ele>8.789999999999999</ele>
        <time>2023-08-30T08:40:15Z</time>
      </trkpt>
      <trkpt lat="56.466499026864767" lon="-6.023780023679137">
        <ele>3.98</ele>
        <time>2023-08-30T08:40:26Z</time>
      </trkpt>
      <trkpt lat="56.466347984969616" lon="-6.026012962684035">
        <ele>2.54</ele>
        <time>2023-08-30T08:40:35Z</time>
      </trkpt>
      <trkpt lat="56.466279001906514" lon="-6.027386002242565">
        <ele>3.02</ele>
        <time>2023-08-30T08:40:42Z</time>
      </trkpt>
      <trkpt lat="56.466257963329554" lon="-6.027571996673942">
        <ele>2.54</ele>
        <time>2023-08-30T08:40:43Z</time>
      </trkpt>
      <trkpt lat="56.466213958337903" lon="-6.027715997770429">
        <ele>2.54</ele>
        <time>2023-08-30T08:40:44Z</time>
      </trkpt>
      <trkpt lat="56.466175988316536" lon="-6.027839966118336">
        <ele>2.54</ele>
        <time>2023-08-30T08:40:45Z</time>
      </trkpt>
      <trkpt lat="56.466145981103182" lon="-6.027939040213823">
        <ele>2.54</ele>
        <time>2023-08-30T08:40:46Z</time>
      </trkpt>
      <trkpt lat="56.466060988605022" lon="-6.028216984122992">
        <ele>3.02</ele>
        <time>2023-08-30T08:40:53Z</time>
      </trkpt>
      <trkpt lat="56.465887986123562" lon="-6.028785025700927">
        <ele>3.98</ele>
        <time>2023-08-30T08:41:01Z</time>
      </trkpt>
      <trkpt lat="56.465593026950955" lon="-6.029841983690858">
        <ele>4.46</ele>
        <time>2023-08-30T08:41:08Z</time>
      </trkpt>
      <trkpt lat="56.465479033067822" lon="-6.030399966984987">
        <ele>4.94</ele>
        <time>2023-08-30T08:41:11Z</time>
      </trkpt>
      <trkpt lat="56.465408960357308" lon="-6.030555032193661">
        <ele>4.94</ele>
        <time>2023-08-30T08:41:12Z</time>
      </trkpt>
      <trkpt lat="56.465342994779348" lon="-6.030700961127877">
        <ele>4.94</ele>
        <time>2023-08-30T08:41:13Z</time>
      </trkpt>
      <trkpt lat="56.464968994259834" lon="-6.031348966062069">
        <ele>6.39</ele>
        <time>2023-08-30T08:41:18Z</time>
      </trkpt>
      <trkpt lat="56.464885007590055" lon="-6.03143303655088">
        <ele>6.87</ele>
        <time>2023-08-30T08:41:19Z</time>
      </trkpt>
      <trkpt lat="56.464789034798741" lon="-6.031509982421994">
        <ele>7.35</ele>
        <time>2023-08-30T08:41:20Z</time>
      </trkpt>
      <trkpt lat="56.463927961885929" lon="-6.032201992347837">
        <ele>8.310000000000001</ele>
        <time>2023-08-30T08:41:28Z</time>
      </trkpt>
      <trkpt lat="56.463827965781093" lon="-6.032304000109434">
        <ele>7.83</ele>
        <time>2023-08-30T08:41:29Z</time>
      </trkpt>
      <trkpt lat="56.463740961626172" lon="-6.032465016469359">
        <ele>7.35</ele>
        <time>2023-08-30T08:41:30Z</time>
      </trkpt>
      <trkpt lat="56.463029002770782" lon="-6.034223036840558">
        <ele>6.39</ele>
        <time>2023-08-30T08:41:39Z</time>
      </trkpt>
      <trkpt lat="56.462991032749414" lon="-6.034427974373102">
        <ele>6.39</ele>
        <time>2023-08-30T08:41:40Z</time>
      </trkpt>
      <trkpt lat="56.462736977264285" lon="-6.036194041371346">
        <ele>7.83</ele>
        <time>2023-08-30T08:41:48Z</time>
      </trkpt>
      <trkpt lat="56.462228028103709" lon="-6.038428992033005">
        <ele>9.27</ele>
        <time>2023-08-30T08:41:57Z</time>
      </trkpt>
      <trkpt lat="56.461383970454335" lon="-6.041152020916343">
        <ele>11.67</ele>
        <time>2023-08-30T08:42:08Z</time>
      </trkpt>
      <trkpt lat="56.460493979975581" lon="-6.043064016848803">
        <ele>9.27</ele>
        <time>2023-08-30T08:42:18Z</time>
      </trkpt>
      <trkpt lat="56.459339037537575" lon="-6.045169970020652">
        <ele>10.710000000000001</ele>
        <time>2023-08-30T08:42:30Z</time>
      </trkpt>
      <trkpt lat="56.458315020427108" lon="-6.046463968232274">
        <ele>10.23</ele>
        <time>2023-08-30T08:42:40Z</time>
      </trkpt>
      <trkpt lat="56.458216030150652" lon="-6.046591037884355">
        <ele>10.710000000000001</ele>
        <time>2023-08-30T08:42:41Z</time>
      </trkpt>
      <trkpt lat="56.457145996391773" lon="-6.047933986410499">
        <ele>9.75</ele>
        <time>2023-08-30T08:42:51Z</time>
      </trkpt>
      <trkpt lat="56.455869013443589" lon="-6.049073003232479">
        <ele>10.710000000000001</ele>
        <time>2023-08-30T08:43:02Z</time>
      </trkpt>
      <trkpt lat="56.454703006893396" lon="-6.049530990421772">
        <ele>12.630000000000001</ele>
        <time>2023-08-30T08:43:11Z</time>
      </trkpt>
      <trkpt lat="56.45458297803998" lon="-6.049596033990383">
        <ele>13.119999999999999</ele>
        <time>2023-08-30T08:43:12Z</time>
      </trkpt>
      <trkpt lat="56.454477030783892" lon="-6.049691000953317">
        <ele>13.119999999999999</ele>
        <time>2023-08-30T08:43:13Z</time>
      </trkpt>
      <trkpt lat="56.454380974173546" lon="-6.049798959866166">
        <ele>13.119999999999999</ele>
        <time>2023-08-30T08:43:14Z</time>
      </trkpt>
      <trkpt lat="56.454301010817289" lon="-6.049940027296543">
        <ele>13.6</ele>
        <time>2023-08-30T08:43:15Z</time>
      </trkpt>
      <trkpt lat="56.454221969470382" lon="-6.050094002857804">
        <ele>13.6</ele>
        <time>2023-08-30T08:43:16Z</time>
      </trkpt>
      <trkpt lat="56.454157009720802" lon="-6.050288965925574">
        <ele>13.119999999999999</ele>
        <time>2023-08-30T08:43:17Z</time>
      </trkpt>
      <trkpt lat="56.45408702082932" lon="-6.050498010590673">
        <ele>13.119999999999999</ele>
        <time>2023-08-30T08:43:18Z</time>
      </trkpt>
      <trkpt lat="56.45367999561131" lon="-6.051601991057396">
        <ele>11.67</ele>
        <time>2023-08-30T08:43:24Z</time>
      </trkpt>
      <trkpt lat="56.453606989234686" lon="-6.051703998818994">
        <ele>11.19</ele>
        <time>2023-08-30T08:43:25Z</time>
      </trkpt>
      <trkpt lat="56.453517973423004" lon="-6.051778011023998">
        <ele>11.19</ele>
        <time>2023-08-30T08:43:26Z</time>
      </trkpt>
      <trkpt lat="56.453415965661407" lon="-6.051861997693777">
        <ele>10.710000000000001</ele>
        <time>2023-08-30T08:43:27Z</time>
      </trkpt>
      <trkpt lat="56.453307000920177" lon="-6.051952019333839">
        <ele>10.710000000000001</ele>
        <time>2023-08-30T08:43:28Z</time>
      </trkpt>
      <trkpt lat="56.452675005421042" lon="-6.052473960444331">
        <ele>9.75</ele>
        <time>2023-08-30T08:43:33Z</time>
      </trkpt>
      <trkpt lat="56.452560005709529" lon="-6.052631037309766">
        <ele>9.75</ele>
        <time>2023-08-30T08:43:34Z</time>
      </trkpt>
      <trkpt lat="56.452073017135262" lon="-6.053307959809899">
        <ele>9.75</ele>
        <time>2023-08-30T08:43:40Z</time>
      </trkpt>
      <trkpt lat="56.45146599970758" lon="-6.054151011630893">
        <ele>9.27</ele>
        <time>2023-08-30T08:43:51Z</time>
      </trkpt>
      <trkpt lat="56.451304983347654" lon="-6.054493999108672">
        <ele>8.789999999999999</ele>
        <time>2023-08-30T08:43:55Z</time>
      </trkpt>
      <trkpt lat="56.451269024983048" lon="-6.054589971899986">
        <ele>8.310000000000001</ele>
        <time>2023-08-30T08:43:56Z</time>
      </trkpt>
      <trkpt lat="56.45123097114265" lon="-6.054689968004823">
        <ele>8.310000000000001</ele>
        <time>2023-08-30T08:43:57Z</time>
      </trkpt>
      <trkpt lat="56.451219990849495" lon="-6.054793987423182">
        <ele>8.310000000000001</ele>
        <time>2023-08-30T08:43:58Z</time>
      </trkpt>
      <trkpt lat="56.451204987242818" lon="-6.054927008226514">
        <ele>7.83</ele>
        <time>2023-08-30T08:43:59Z</time>
      </trkpt>
      <trkpt lat="56.451190989464521" lon="-6.055062962695956">
        <ele>7.35</ele>
        <time>2023-08-30T08:44:00Z</time>
      </trkpt>
      <trkpt lat="56.451074983924627" lon="-6.056149005889893">
        <ele>6.39</ele>
        <time>2023-08-30T08:44:09Z</time>
      </trkpt>
      <trkpt lat="56.451008012518287" lon="-6.057398999109864">
        <ele>5.42</ele>
        <time>2023-08-30T08:44:17Z</time>
      </trkpt>
      <trkpt lat="56.450869040563703" lon="-6.058221012353897">
        <ele>4.46</ele>
        <time>2023-08-30T08:44:24Z</time>
      </trkpt>
      <trkpt lat="56.450702995061874" lon="-6.059304960072041">
        <ele>3.98</ele>
        <time>2023-08-30T08:44:31Z</time>
      </trkpt>
      <trkpt lat="56.450319020077586" lon="-6.061589028686285">
        <ele>4.46</ele>
        <time>2023-08-30T08:44:42Z</time>
      </trkpt>
      <trkpt lat="56.450264034792781" lon="-6.061796983703971">
        <ele>4.94</ele>
        <time>2023-08-30T08:44:43Z</time>
      </trkpt>
      <trkpt lat="56.450190022587776" lon="-6.061956994235516">
        <ele>5.42</ele>
        <time>2023-08-30T08:44:44Z</time>
      </trkpt>
      <trkpt lat="56.450119027867913" lon="-6.062109963968396">
        <ele>5.91</ele>
        <time>2023-08-30T08:44:45Z</time>
      </trkpt>
      <trkpt lat="56.44944503903389" lon="-6.06370696797967">
        <ele>4.94</ele>
        <time>2023-08-30T08:44:54Z</time>
      </trkpt>
      <trkpt lat="56.449399022385478" lon="-6.06387997046113">
        <ele>4.46</ele>
        <time>2023-08-30T08:44:55Z</time>
      </trkpt>
      <trkpt lat="56.449375972151756" lon="-6.064078034833074">
        <ele>4.46</ele>
        <time>2023-08-30T08:44:56Z</time>
      </trkpt>
      <trkpt lat="56.449351999908686" lon="-6.06428699567914">
        <ele>4.46</ele>
        <time>2023-08-30T08:44:57Z</time>
      </trkpt>
      <trkpt lat="56.449327021837234" lon="-6.064506014809012">
        <ele>3.98</ele>
        <time>2023-08-30T08:44:58Z</time>
      </trkpt>
      <trkpt lat="56.449300032109022" lon="-6.064735008403659">
        <ele>3.5</ele>
        <time>2023-08-30T08:44:59Z</time>
      </trkpt>
      <trkpt lat="56.449246974661946" lon="-6.065202970057726">
        <ele>3.5</ele>
        <time>2023-08-30T08:45:01Z</time>
      </trkpt>
      <trkpt lat="56.449028961360455" lon="-6.067389976233244">
        <ele>2.06</ele>
        <time>2023-08-30T08:45:11Z</time>
      </trkpt>
      <trkpt lat="56.449013035744429" lon="-6.06757303699851">
        <ele>2.06</ele>
        <time>2023-08-30T08:45:12Z</time>
      </trkpt>
      <trkpt lat="56.448989985510707" lon="-6.067761965095997">
        <ele>2.06</ele>
        <time>2023-08-30T08:45:13Z</time>
      </trkpt>
      <trkpt lat="56.448935000225902" lon="-6.067924993112683">
        <ele>2.54</ele>
        <time>2023-08-30T08:45:14Z</time>
      </trkpt>
      <trkpt lat="56.448875991627574" lon="-6.068099001422525">
        <ele>2.54</ele>
        <time>2023-08-30T08:45:15Z</time>
      </trkpt>
      <trkpt lat="56.448815977200866" lon="-6.068274015560746">
        <ele>2.54</ele>
        <time>2023-08-30T08:45:16Z</time>
      </trkpt>
      <trkpt lat="56.447820961475372" lon="-6.071258978918195">
        <ele>1.1</ele>
        <time>2023-08-30T08:45:32Z</time>
      </trkpt>
      <trkpt lat="56.447777962312102" lon="-6.071425024420023">
        <ele>1.1</ele>
        <time>2023-08-30T08:45:33Z</time>
      </trkpt>
      <trkpt lat="56.447759019210935" lon="-6.071600960567594">
        <ele>1.1</ele>
        <time>2023-08-30T08:45:34Z</time>
      </trkpt>
      <trkpt lat="56.447766982018948" lon="-6.071793995797634">
        <ele>0.62</ele>
        <time>2023-08-30T08:45:35Z</time>
      </trkpt>
      <trkpt lat="56.447776034474373" lon="-6.071985019370914">
        <ele>1.1</ele>
        <time>2023-08-30T08:45:36Z</time>
      </trkpt>
      <trkpt lat="56.447822973132133" lon="-6.072162967175245">
        <ele>1.58</ele>
        <time>2023-08-30T08:45:37Z</time>
      </trkpt>
      <trkpt lat="56.447872007265687" lon="-6.072351979091764">
        <ele>2.06</ele>
        <time>2023-08-30T08:45:38Z</time>
      </trkpt>
      <trkpt lat="56.448042998090386" lon="-6.073080031201243">
        <ele>4.46</ele>
        <time>2023-08-30T08:45:42Z</time>
      </trkpt>
      <trkpt lat="56.448075016960502" lon="-6.073280023410916">
        <ele>3.98</ele>
        <time>2023-08-30T08:45:43Z</time>
      </trkpt>
      <trkpt lat="56.448088008910418" lon="-6.073499964550138">
        <ele>3.98</ele>
        <time>2023-08-30T08:45:44Z</time>
      </trkpt>
      <trkpt lat="56.448061019182205" lon="-6.07371998950839">
        <ele>3.5</ele>
        <time>2023-08-30T08:45:45Z</time>
      </trkpt>
      <trkpt lat="56.448032017797232" lon="-6.07395401224494">
        <ele>3.5</ele>
        <time>2023-08-30T08:45:46Z</time>
      </trkpt>
      <trkpt lat="56.448002010583878" lon="-6.074198009446263">
        <ele>3.5</ele>
        <time>2023-08-30T08:45:47Z</time>
      </trkpt>
      <trkpt lat="56.447687018662691" lon="-6.076868986710906">
        <ele>2.54</ele>
        <time>2023-08-30T08:45:57Z</time>
      </trkpt>
      <trkpt lat="56.447507981210947" lon="-6.078792968764901">
        <ele>2.54</ele>
        <time>2023-08-30T08:46:05Z</time>
      </trkpt>
      <trkpt lat="56.447530025616288" lon="-6.079006958752871">
        <ele>3.02</ele>
        <time>2023-08-30T08:46:06Z</time>
      </trkpt>
      <trkpt lat="56.447551986202598" lon="-6.079230001196265">
        <ele>3.02</ele>
        <time>2023-08-30T08:46:07Z</time>
      </trkpt>
      <trkpt lat="56.447994969785213" lon="-6.081574000418186">
        <ele>3.98</ele>
        <time>2023-08-30T08:46:17Z</time>
      </trkpt>
      <trkpt lat="56.448005028069019" lon="-6.081793019548059">
        <ele>3.98</ele>
        <time>2023-08-30T08:46:18Z</time>
      </trkpt>
      <trkpt lat="56.447992036119103" lon="-6.082015978172422">
        <ele>3.5</ele>
        <time>2023-08-30T08:46:19Z</time>
      </trkpt>
      <trkpt lat="56.447978038340807" lon="-6.082251006737351">
        <ele>3.02</ele>
        <time>2023-08-30T08:46:20Z</time>
      </trkpt>
      <trkpt lat="56.447964962571859" lon="-6.082495003938675">
        <ele>2.54</ele>
        <time>2023-08-30T08:46:21Z</time>
      </trkpt>
      <trkpt lat="56.447851974517107" lon="-6.084462990984321">
        <ele>0.14</ele>
        <time>2023-08-30T08:46:29Z</time>
      </trkpt>
      <trkpt lat="56.447840994223952" lon="-6.084669018164277">
        <ele>0.14</ele>
        <time>2023-08-30T08:46:30Z</time>
      </trkpt>
      <trkpt lat="56.447889022529125" lon="-6.084849983453751">
        <ele>0.14</ele>
        <time>2023-08-30T08:46:31Z</time>
      </trkpt>
      <trkpt lat="56.447935039177537" lon="-6.085023991763592">
        <ele>0.14</ele>
        <time>2023-08-30T08:46:32Z</time>
      </trkpt>
      <trkpt lat="56.447976026684046" lon="-6.085179978981614">
        <ele>0.14</ele>
        <time>2023-08-30T08:46:33Z</time>
      </trkpt>
      <trkpt lat="56.44832999445498" lon="-6.086777988821268">
        <ele>0.62</ele>
        <time>2023-08-30T08:46:43Z</time>
      </trkpt>
      <trkpt lat="56.448599975556135" lon="-6.089193988591433">
        <ele>0.14</ele>
        <time>2023-08-30T08:46:54Z</time>
      </trkpt>
      <trkpt lat="56.448680022731423" lon="-6.090180035680533">
        <ele>0.62</ele>
        <time>2023-08-30T08:46:58Z</time>
      </trkpt>
      <trkpt lat="56.448698965832591" lon="-6.090416992083192">
        <ele>0.14</ele>
        <time>2023-08-30T08:46:59Z</time>
      </trkpt>
      <trkpt lat="56.44876099191606" lon="-6.090620001778007">
        <ele>0.14</ele>
        <time>2023-08-30T08:47:00Z</time>
      </trkpt>
      <trkpt lat="56.448815977200866" lon="-6.090801972895861">
        <ele>-0.34</ele>
        <time>2023-08-30T08:47:01Z</time>
      </trkpt>
      <trkpt lat="56.448862999677658" lon="-6.090955026447773">
        <ele>-0.34</ele>
        <time>2023-08-30T08:47:02Z</time>
      </trkpt>
      <trkpt lat="56.449171034619212" lon="-6.091962028294802">
        <ele>0.14</ele>
        <time>2023-08-30T08:47:11Z</time>
      </trkpt>
      <trkpt lat="56.449354011565447" lon="-6.093455012887716">
        <ele>2.54</ele>
        <time>2023-08-30T08:47:21Z</time>
      </trkpt>
      <trkpt lat="56.449527014046907" lon="-6.095715025439858">
        <ele>5.42</ele>
        <time>2023-08-30T08:47:32Z</time>
      </trkpt>
      <trkpt lat="56.449592979624867" lon="-6.096071004867554">
        <ele>6.39</ele>
        <time>2023-08-30T08:47:34Z</time>
      </trkpt>
      <trkpt lat="56.449658023193479" lon="-6.096243001520634">
        <ele>6.39</ele>
        <time>2023-08-30T08:47:35Z</time>
      </trkpt>
      <trkpt lat="56.450279960408807" lon="-6.097907982766628">
        <ele>3.98</ele>
        <time>2023-08-30T08:47:43Z</time>
      </trkpt>
      <trkpt lat="56.450581038370728" lon="-6.098710969090462">
        <ele>3.98</ele>
        <time>2023-08-30T08:47:48Z</time>
      </trkpt>
      <trkpt lat="56.450608028098941" lon="-6.098822029307485">
        <ele>3.98</ele>
        <time>2023-08-30T08:47:49Z</time>
      </trkpt>
      <trkpt lat="56.450608028098941" lon="-6.098944991827011">
        <ele>3.98</ele>
        <time>2023-08-30T08:47:50Z</time>
      </trkpt>
      <trkpt lat="56.450608028098941" lon="-6.099087987095118">
        <ele>3.98</ele>
        <time>2023-08-30T08:47:51Z</time>
      </trkpt>
      <trkpt lat="56.450604004785419" lon="-6.099246991798282">
        <ele>3.98</ele>
        <time>2023-08-30T08:47:52Z</time>
      </trkpt>
      <trkpt lat="56.450558993965387" lon="-6.099620992317796">
        <ele>3.98</ele>
        <time>2023-08-30T08:47:56Z</time>
      </trkpt>
      <trkpt lat="56.450558993965387" lon="-6.099620992317796">
        <ele>3.98</ele>
        <time>2023-08-30T08:48:10Z</time>
      </trkpt>
      <trkpt lat="56.450554970651865" lon="-6.099654017016292">
        <ele>3.5</ele>
        <time>2023-08-30T08:48:31Z</time>
      </trkpt>
      <trkpt lat="56.450546002015471" lon="-6.099726017564535">
        <ele>3.5</ele>
        <time>2023-08-30T08:48:32Z</time>
      </trkpt>
      <trkpt lat="56.450535021722317" lon="-6.099815033376217">
        <ele>3.02</ele>
        <time>2023-08-30T08:48:33Z</time>
      </trkpt>
      <trkpt lat="56.45052001811564" lon="-6.099934978410602">
        <ele>3.02</ele>
        <time>2023-08-30T08:48:34Z</time>
      </trkpt>
      <trkpt lat="56.450503002852201" lon="-6.100078979507089">
        <ele>3.02</ele>
        <time>2023-08-30T08:48:35Z</time>
      </trkpt>
      <trkpt lat="56.450480036437511" lon="-6.100265979766846">
        <ele>3.5</ele>
        <time>2023-08-30T08:48:36Z</time>
      </trkpt>
      <trkpt lat="56.450483975932002" lon="-6.100433031097055">
        <ele>3.5</ele>
        <time>2023-08-30T08:48:37Z</time>
      </trkpt>
      <trkpt lat="56.45050099119544" lon="-6.101188994944096">
        <ele>2.54</ele>
        <time>2023-08-30T08:48:41Z</time>
      </trkpt>
      <trkpt lat="56.450480036437511" lon="-6.101337019354105">
        <ele>2.54</ele>
        <time>2023-08-30T08:48:42Z</time>
      </trkpt>
      <trkpt lat="56.450429996475577" lon="-6.101687969639897">
        <ele>2.06</ele>
        <time>2023-08-30T08:48:44Z</time>
      </trkpt>
      <trkpt lat="56.450419016182423" lon="-6.101861977949739">
        <ele>2.06</ele>
        <time>2023-08-30T08:48:45Z</time>
      </trkpt>
      <trkpt lat="56.450429996475577" lon="-6.102058030664921">
        <ele>2.06</ele>
        <time>2023-08-30T08:48:46Z</time>
      </trkpt>
      <trkpt lat="56.450562011450529" lon="-6.104450980201364">
        <ele>2.06</ele>
        <time>2023-08-30T08:48:56Z</time>
      </trkpt>
      <trkpt lat="56.45062998868525" lon="-6.106488034129143">
        <ele>2.06</ele>
        <time>2023-08-30T08:49:05Z</time>
      </trkpt>
      <trkpt lat="56.450619008392096" lon="-6.106719961389899">
        <ele>2.06</ele>
        <time>2023-08-30T08:49:06Z</time>
      </trkpt>
      <trkpt lat="56.450609033927321" lon="-6.108764978125691">
        <ele>4.46</ele>
        <time>2023-08-30T08:49:14Z</time>
      </trkpt>
      <trkpt lat="56.450797040015459" lon="-6.111083999276161">
        <ele>10.23</ele>
        <time>2023-08-30T08:49:24Z</time>
      </trkpt>
      <trkpt lat="56.4508449845016" lon="-6.111392034217715">
        <ele>11.19</ele>
        <time>2023-08-30T08:49:26Z</time>
      </trkpt>
      <trkpt lat="56.450945986434817" lon="-6.11323001794517">
        <ele>10.710000000000001</ele>
        <time>2023-08-30T08:49:35Z</time>
      </trkpt>
      <trkpt lat="56.450981022790074" lon="-6.115748025476933">
        <ele>5.91</ele>
        <time>2023-08-30T08:49:46Z</time>
      </trkpt>
      <trkpt lat="56.45120901055634" lon="-6.117861019447446">
        <ele>1.1</ele>
        <time>2023-08-30T08:49:56Z</time>
      </trkpt>
      <trkpt lat="56.45120901055634" lon="-6.118016000837088">
        <ele>1.1</ele>
        <time>2023-08-30T08:49:57Z</time>
      </trkpt>
      <trkpt lat="56.45120901055634" lon="-6.118210963904858">
        <ele>1.1</ele>
        <time>2023-08-30T08:49:58Z</time>
      </trkpt>
      <trkpt lat="56.45120901055634" lon="-6.118411039933562">
        <ele>1.1</ele>
        <time>2023-08-30T08:49:59Z</time>
      </trkpt>
      <trkpt lat="56.451195012778044" lon="-6.118620000779629">
        <ele>1.58</ele>
        <time>2023-08-30T08:50:00Z</time>
      </trkpt>
      <trkpt lat="56.45116500556469" lon="-6.118815969675779">
        <ele>1.58</ele>
        <time>2023-08-30T08:50:01Z</time>
      </trkpt>
      <trkpt lat="56.451134998351336" lon="-6.119015039876103">
        <ele>1.58</ele>
        <time>2023-08-30T08:50:02Z</time>
      </trkpt>
      <trkpt lat="56.45110197365284" lon="-6.119234981015325">
        <ele>2.06</ele>
        <time>2023-08-30T08:50:03Z</time>
      </trkpt>
      <trkpt lat="56.451051011681557" lon="-6.119403038173914">
        <ele>2.06</ele>
        <time>2023-08-30T08:50:04Z</time>
      </trkpt>
      <trkpt lat="56.45099300891161" lon="-6.119591966271401">
        <ele>2.54</ele>
        <time>2023-08-30T08:50:05Z</time>
      </trkpt>
      <trkpt lat="56.450581038370728" lon="-6.121360966935754">
        <ele>5.91</ele>
        <time>2023-08-30T08:50:14Z</time>
      </trkpt>
      <trkpt lat="56.450316002592444" lon="-6.123311016708612">
        <ele>8.789999999999999</ele>
        <time>2023-08-30T08:50:24Z</time>
      </trkpt>
      <trkpt lat="56.449902020394802" lon="-6.125116981565952">
        <ele>9.75</ele>
        <time>2023-08-30T08:50:34Z</time>
      </trkpt>
      <trkpt lat="56.449248986318707" lon="-6.126419026404619">
        <ele>11.67</ele>
        <time>2023-08-30T08:50:43Z</time>
      </trkpt>
      <trkpt lat="56.448504002764821" lon="-6.127418987452984">
        <ele>9.75</ele>
        <time>2023-08-30T08:50:52Z</time>
      </trkpt>
      <trkpt lat="56.448397971689701" lon="-6.127543961629272">
        <ele>8.310000000000001</ele>
        <time>2023-08-30T08:51:00Z</time>
      </trkpt>
      <trkpt lat="56.448397971689701" lon="-6.127543961629272">
        <ele>8.310000000000001</ele>
        <time>2023-08-30T08:51:44Z</time>
      </trkpt>
      <trkpt lat="56.448389003053308" lon="-6.127553014084697">
        <ele>8.310000000000001</ele>
        <time>2023-08-30T08:52:34Z</time>
      </trkpt>
      <trkpt lat="56.448363019153476" lon="-6.12758100964129">
        <ele>8.789999999999999</ele>
        <time>2023-08-30T08:52:35Z</time>
      </trkpt>
      <trkpt lat="56.447947025299072" lon="-6.127906981855631">
        <ele>7.83</ele>
        <time>2023-08-30T08:52:41Z</time>
      </trkpt>
      <trkpt lat="56.446880009025335" lon="-6.128396987915039">
        <ele>7.35</ele>
        <time>2023-08-30T08:52:53Z</time>
      </trkpt>
      <trkpt lat="56.445721965283155" lon="-6.128632016479969">
        <ele>6.39</ele>
        <time>2023-08-30T08:53:04Z</time>
      </trkpt>
      <trkpt lat="56.44439603202045" lon="-6.128839971497655">
        <ele>4.94</ele>
        <time>2023-08-30T08:53:15Z</time>
      </trkpt>
      <trkpt lat="56.443091975525022" lon="-6.129768015816808">
        <ele>5.42</ele>
        <time>2023-08-30T08:53:26Z</time>
      </trkpt>
      <trkpt lat="56.441587004810572" lon="-6.130951037630439">
        <ele>8.310000000000001</ele>
        <time>2023-08-30T08:53:39Z</time>
      </trkpt>
      <trkpt lat="56.440532980486751" lon="-6.131604993715882">
        <ele>8.789999999999999</ele>
        <time>2023-08-30T08:53:49Z</time>
      </trkpt>
      <trkpt lat="56.438942011445761" lon="-6.132409991696477">
        <ele>6.87</ele>
        <time>2023-08-30T08:54:03Z</time>
      </trkpt>
      <trkpt lat="56.437469981610775" lon="-6.133079035207629">
        <ele>9.75</ele>
        <time>2023-08-30T08:54:16Z</time>
      </trkpt>
      <trkpt lat="56.43569796346128" lon="-6.133859977126122">
        <ele>16.960000000000001</ele>
        <time>2023-08-30T08:54:30Z</time>
      </trkpt>
      <trkpt lat="56.434404971078038" lon="-6.134208999574184">
        <ele>23.690000000000001</ele>
        <time>2023-08-30T08:54:40Z</time>
      </trkpt>
      <trkpt lat="56.43427899107337" lon="-6.134243030101061">
        <ele>23.690000000000001</ele>
        <time>2023-08-30T08:54:41Z</time>
      </trkpt>
      <trkpt lat="56.433138968423009" lon="-6.134302960708737">
        <ele>29.460000000000001</ele>
        <time>2023-08-30T08:54:50Z</time>
      </trkpt>
      <trkpt lat="56.431756038218737" lon="-6.133923009037972">
        <ele>41.469999999999999</ele>
        <time>2023-08-30T08:55:01Z</time>
      </trkpt>
      <trkpt lat="56.430721040815115" lon="-6.133225969970226">
        <ele>41.950000000000003</ele>
        <time>2023-08-30T08:55:09Z</time>
      </trkpt>
      <trkpt lat="56.43051995895803" lon="-6.133121028542519">
        <ele>40.509999999999998</ele>
        <time>2023-08-30T08:55:12Z</time>
      </trkpt>
      <trkpt lat="56.430363971740007" lon="-6.13303997553885">
        <ele>40.030000000000001</ele>
        <time>2023-08-30T08:55:15Z</time>
      </trkpt>
      <trkpt lat="56.43030303530395" lon="-6.133008040487766">
        <ele>40.030000000000001</ele>
        <time>2023-08-30T08:55:16Z</time>
      </trkpt>
      <trkpt lat="56.430266993120313" lon="-6.132989013567567">
        <ele>40.030000000000001</ele>
        <time>2023-08-30T08:55:17Z</time>
      </trkpt>
      <trkpt lat="56.430148975923657" lon="-6.132983984425664">
        <ele>40.030000000000001</ele>
        <time>2023-08-30T08:55:18Z</time>
      </trkpt>
      <trkpt lat="56.430035987868905" lon="-6.132979961112142">
        <ele>40.509999999999998</ele>
        <time>2023-08-30T08:55:19Z</time>
      </trkpt>
      <trkpt lat="56.42991797067225" lon="-6.13297501578927">
        <ele>41.469999999999999</ele>
        <time>2023-08-30T08:55:20Z</time>
      </trkpt>
      <trkpt lat="56.429792996495962" lon="-6.132968980818987">
        <ele>41.950000000000003</ele>
        <time>2023-08-30T08:55:21Z</time>
      </trkpt>
      <trkpt lat="56.428639981895685" lon="-6.133296964690089">
        <ele>45.799999999999997</ele>
        <time>2023-08-30T08:55:30Z</time>
      </trkpt>
      <trkpt lat="56.428271010518074" lon="-6.133515983819962">
        <ele>45.799999999999997</ele>
        <time>2023-08-30T08:55:33Z</time>
      </trkpt>
      <trkpt lat="56.428142013028264" lon="-6.133632995188236">
        <ele>45.799999999999997</ele>
        <time>2023-08-30T08:55:34Z</time>
      </trkpt>
      <trkpt lat="56.428062971681356" lon="-6.133765010163188">
        <ele>45.799999999999997</ele>
        <time>2023-08-30T08:55:35Z</time>
      </trkpt>
      <trkpt lat="56.427554022520781" lon="-6.134517034515739">
        <ele>47.240000000000002</ele>
        <time>2023-08-30T08:55:41Z</time>
      </trkpt>
      <trkpt lat="56.427482021972537" lon="-6.134677967056632">
        <ele>47.719999999999999</ele>
        <time>2023-08-30T08:55:42Z</time>
      </trkpt>
      <trkpt lat="56.427413038909435" lon="-6.13484401255846">
        <ele>48.200000000000003</ele>
        <time>2023-08-30T08:55:43Z</time>
      </trkpt>
      <trkpt lat="56.426753969863057" lon="-6.136200036853552">
        <ele>51.090000000000003</ele>
        <time>2023-08-30T08:55:52Z</time>
      </trkpt>
      <trkpt lat="56.426494969055057" lon="-6.136482004076242">
        <ele>53.009999999999998</ele>
        <time>2023-08-30T08:55:55Z</time>
      </trkpt>
      <trkpt lat="56.426421962678432" lon="-6.136533971875906">
        <ele>53.490000000000002</ele>
        <time>2023-08-30T08:55:56Z</time>
      </trkpt>
      <trkpt lat="56.426337976008654" lon="-6.136550987139344">
        <ele>53.490000000000002</ele>
        <time>2023-08-30T08:55:57Z</time>
      </trkpt>
      <trkpt lat="56.426250971853733" lon="-6.136569008231163">
        <ele>53.969999999999999</ele>
        <time>2023-08-30T08:55:58Z</time>
      </trkpt>
      <trkpt lat="56.426163967698812" lon="-6.1365170404315">
        <ele>54.450000000000003</ele>
        <time>2023-08-30T08:55:59Z</time>
      </trkpt>
      <trkpt lat="56.426077969372272" lon="-6.136448979377747">
        <ele>55.409999999999997</ele>
        <time>2023-08-30T08:56:00Z</time>
      </trkpt>
      <trkpt lat="56.4260040409863" lon="-6.136370021849871">
        <ele>55.890000000000001</ele>
        <time>2023-08-30T08:56:01Z</time>
      </trkpt>
      <trkpt lat="56.425956012681127" lon="-6.13626197911799">
        <ele>56.369999999999997</ele>
        <time>2023-08-30T08:56:02Z</time>
      </trkpt>
      <trkpt lat="56.425929022952914" lon="-6.136137004941702">
        <ele>56.859999999999999</ele>
        <time>2023-08-30T08:56:03Z</time>
      </trkpt>
      <trkpt lat="56.42592198215425" lon="-6.135980011895299">
        <ele>57.340000000000003</ele>
        <time>2023-08-30T08:56:04Z</time>
      </trkpt>
      <trkpt lat="56.425914019346237" lon="-6.135800974443555">
        <ele>57.82</ele>
        <time>2023-08-30T08:56:05Z</time>
      </trkpt>
      <trkpt lat="56.425905972719193" lon="-6.135606011375785">
        <ele>58.299999999999997</ele>
        <time>2023-08-30T08:56:06Z</time>
      </trkpt>
      <trkpt lat="56.425868002697825" lon="-6.134727001190186">
        <ele>60.700000000000003</ele>
        <time>2023-08-30T08:56:11Z</time>
      </trkpt>
      <trkpt lat="56.425831960514188" lon="-6.134583000093699">
        <ele>61.18</ele>
        <time>2023-08-30T08:56:12Z</time>
      </trkpt>
      <trkpt lat="56.425802959129214" lon="-6.134470012038946">
        <ele>61.18</ele>
        <time>2023-08-30T08:56:13Z</time>
      </trkpt>
      <trkpt lat="56.425742022693157" lon="-6.134394994005561">
        <ele>61.659999999999997</ele>
        <time>2023-08-30T08:56:14Z</time>
      </trkpt>
      <trkpt lat="56.425673961639404" lon="-6.134339002892375">
        <ele>61.659999999999997</ele>
        <time>2023-08-30T08:56:15Z</time>
      </trkpt>
      <trkpt lat="56.425586035475135" lon="-6.134329028427601">
        <ele>61.659999999999997</ele>
        <time>2023-08-30T08:56:16Z</time>
      </trkpt>
      <trkpt lat="56.425486961379647" lon="-6.134326010942459">
        <ele>62.140000000000001</ele>
        <time>2023-08-30T08:56:17Z</time>
      </trkpt>
      <trkpt lat="56.425379002466798" lon="-6.134369010105729">
        <ele>62.140000000000001</ele>
        <time>2023-08-30T08:56:18Z</time>
      </trkpt>
      <trkpt lat="56.424131020903587" lon="-6.134872008115053">
        <ele>65.510000000000005</ele>
        <time>2023-08-30T08:56:29Z</time>
      </trkpt>
      <trkpt lat="56.424037981778383" lon="-6.13488600589335">
        <ele>65.989999999999995</ele>
        <time>2023-08-30T08:56:30Z</time>
      </trkpt>
      <trkpt lat="56.42394301481545" lon="-6.13484401255846">
        <ele>66.469999999999999</ele>
        <time>2023-08-30T08:56:31Z</time>
      </trkpt>
      <trkpt lat="56.423843018710613" lon="-6.134799001738429">
        <ele>66.469999999999999</ele>
        <time>2023-08-30T08:56:32Z</time>
      </trkpt>
      <trkpt lat="56.423737993463874" lon="-6.134751979261637">
        <ele>66.469999999999999</ele>
        <time>2023-08-30T08:56:33Z</time>
      </trkpt>
      <trkpt lat="56.42334203235805" lon="-6.134544024243951">
        <ele>68.390000000000001</ele>
        <time>2023-08-30T08:56:37Z</time>
      </trkpt>
      <trkpt lat="56.423271037638187" lon="-6.134490966796875">
        <ele>69.349999999999994</ele>
        <time>2023-08-30T08:56:38Z</time>
      </trkpt>
      <trkpt lat="56.423231977969408" lon="-6.134315030649304">
        <ele>70.310000000000002</ele>
        <time>2023-08-30T08:56:39Z</time>
      </trkpt>
      <trkpt lat="56.423197025433183" lon="-6.13415602594614">
        <ele>71.269999999999996</ele>
        <time>2023-08-30T08:56:40Z</time>
      </trkpt>
      <trkpt lat="56.42317003570497" lon="-6.133974976837635">
        <ele>72.239999999999995</ele>
        <time>2023-08-30T08:56:41Z</time>
      </trkpt>
      <trkpt lat="56.423146985471249" lon="-6.133779007941485">
        <ele>73.200000000000003</ele>
        <time>2023-08-30T08:56:42Z</time>
      </trkpt>
      <trkpt lat="56.42310599796474" lon="-6.131904982030392">
        <ele>77.519999999999996</ele>
        <time>2023-08-30T08:56:52Z</time>
      </trkpt>
      <trkpt lat="56.423102980479598" lon="-6.131715970113874">
        <ele>77.519999999999996</ele>
        <time>2023-08-30T08:56:53Z</time>
      </trkpt>
      <trkpt lat="56.423089988529682" lon="-6.131529975682497">
        <ele>77.040000000000006</ele>
        <time>2023-08-30T08:56:54Z</time>
      </trkpt>
      <trkpt lat="56.423049001023173" lon="-6.131353033706546">
        <ele>77.519999999999996</ele>
        <time>2023-08-30T08:56:55Z</time>
      </trkpt>
      <trkpt lat="56.423008013516665" lon="-6.131173996254802">
        <ele>77.519999999999996</ele>
        <time>2023-08-30T08:56:56Z</time>
      </trkpt>
      <trkpt lat="56.422970965504646" lon="-6.131014991551638">
        <ele>78</ele>
        <time>2023-08-30T08:56:57Z</time>
      </trkpt>
      <trkpt lat="56.422901982441545" lon="-6.130853975191712">
        <ele>78.480000000000004</ele>
        <time>2023-08-30T08:56:58Z</time>
      </trkpt>
      <trkpt lat="56.422840962186456" lon="-6.130711985751987">
        <ele>78.969999999999999</ele>
        <time>2023-08-30T08:56:59Z</time>
      </trkpt>
      <trkpt lat="56.422780025750399" lon="-6.13056899048388">
        <ele>79.930000000000007</ele>
        <time>2023-08-30T08:57:00Z</time>
      </trkpt>
      <trkpt lat="56.422690004110336" lon="-6.130505036562681">
        <ele>80.409999999999997</ele>
        <time>2023-08-30T08:57:01Z</time>
      </trkpt>
      <trkpt lat="56.422592019662261" lon="-6.130436975508928">
        <ele>80.890000000000001</ele>
        <time>2023-08-30T08:57:02Z</time>
      </trkpt>
      <trkpt lat="56.422490011900663" lon="-6.130367992445827">
        <ele>81.370000000000005</ele>
        <time>2023-08-30T08:57:03Z</time>
      </trkpt>
      <trkpt lat="56.422386998310685" lon="-6.130298003554344">
        <ele>81.849999999999994</ele>
        <time>2023-08-30T08:57:04Z</time>
      </trkpt>
      <trkpt lat="56.421110015362501" lon="-6.129834987223148">
        <ele>92.900000000000006</ele>
        <time>2023-08-30T08:57:15Z</time>
      </trkpt>
      <trkpt lat="56.420179037377238" lon="-6.129416981711984">
        <ele>103.48</ele>
        <time>2023-08-30T08:57:24Z</time>
      </trkpt>
      <trkpt lat="56.420068982988596" lon="-6.129368031397462">
        <ele>104.92</ele>
        <time>2023-08-30T08:57:25Z</time>
      </trkpt>
      <trkpt lat="56.419037003070116" lon="-6.128242006525397">
        <ele>114.53</ele>
        <time>2023-08-30T08:57:34Z</time>
      </trkpt>
      <trkpt lat="56.417938973754644" lon="-6.126785986125469">
        <ele>122.22</ele>
        <time>2023-08-30T08:57:43Z</time>
      </trkpt>
      <trkpt lat="56.416382035240531" lon="-6.124461013823748">
        <ele>130.88</ele>
        <time>2023-08-30T08:57:55Z</time>
      </trkpt>
      <trkpt lat="56.414922997355461" lon="-6.122184991836548">
        <ele>139.05000000000001</ele>
        <time>2023-08-30T08:58:07Z</time>
      </trkpt>
      <trkpt lat="56.414042981341481" lon="-6.120175011456013">
        <ele>142.41</ele>
        <time>2023-08-30T08:58:16Z</time>
      </trkpt>
      <trkpt lat="56.413253992795944" lon="-6.117546027526259">
        <ele>144.34</ele>
        <time>2023-08-30T08:58:26Z</time>
      </trkpt>
      <trkpt lat="56.41260196454823" lon="-6.114571038633585">
        <ele>144.81999999999999</ele>
        <time>2023-08-30T08:58:35Z</time>
      </trkpt>
      <trkpt lat="56.411864021793008" lon="-6.111205033957958">
        <ele>146.74000000000001</ele>
        <time>2023-08-30T08:58:45Z</time>
      </trkpt>
      <trkpt lat="56.411135969683528" lon="-6.108290981501341">
        <ele>146.74000000000001</ele>
        <time>2023-08-30T08:58:56Z</time>
      </trkpt>
      <trkpt lat="56.410176996141672" lon="-6.105940025299788">
        <ele>143.37</ele>
        <time>2023-08-30T08:59:05Z</time>
      </trkpt>
      <trkpt lat="56.409919001162052" lon="-6.105534005910158">
        <ele>142.88999999999999</ele>
        <time>2023-08-30T08:59:07Z</time>
      </trkpt>
      <trkpt lat="56.409073015674949" lon="-6.104537984356284">
        <ele>145.30000000000001</ele>
        <time>2023-08-30T08:59:15Z</time>
      </trkpt>
      <trkpt lat="56.407985966652632" lon="-6.103319004178047">
        <ele>143.37</ele>
        <time>2023-08-30T08:59:25Z</time>
      </trkpt>
      <trkpt lat="56.406722981482744" lon="-6.101818978786469">
        <ele>140.97</ele>
        <time>2023-08-30T08:59:35Z</time>
      </trkpt>
      <trkpt lat="56.405712040141225" lon="-6.099688969552517">
        <ele>136.63999999999999</ele>
        <time>2023-08-30T08:59:45Z</time>
      </trkpt>
      <trkpt lat="56.404397003352642" lon="-6.096393037587404">
        <ele>123.19</ele>
        <time>2023-08-30T08:59:59Z</time>
      </trkpt>
      <trkpt lat="56.403385978192091" lon="-6.094374004751444">
        <ele>115.98</ele>
        <time>2023-08-30T09:00:09Z</time>
      </trkpt>
      <trkpt lat="56.401523016393185" lon="-6.092011984437704">
        <ele>106.84</ele>
        <time>2023-08-30T09:00:23Z</time>
      </trkpt>
      <trkpt lat="56.400400009006262" lon="-6.09056199900806">
        <ele>100.11</ele>
        <time>2023-08-30T09:00:32Z</time>
      </trkpt>
      <trkpt lat="56.399915032088757" lon="-6.08981098048389">
        <ele>95.310000000000002</ele>
        <time>2023-08-30T09:00:40Z</time>
      </trkpt>
      <trkpt lat="56.399882007390261" lon="-6.089760018512607">
        <ele>94.349999999999994</ele>
        <time>2023-08-30T09:00:41Z</time>
      </trkpt>
      <trkpt lat="56.39977203682065" lon="-6.089589027687907">
        <ele>92.420000000000002</ele>
        <time>2023-08-30T09:00:45Z</time>
      </trkpt>
      <trkpt lat="56.39938403852284" lon="-6.08884597197175">
        <ele>89.060000000000002</ele>
        <time>2023-08-30T09:00:51Z</time>
      </trkpt>
      <trkpt lat="56.398478038609028" lon="-6.087045958265662">
        <ele>80.409999999999997</ele>
        <time>2023-08-30T09:00:59Z</time>
      </trkpt>
      <trkpt lat="56.397365005686879" lon="-6.084835985675454">
        <ele>72.719999999999999</ele>
        <time>2023-08-30T09:01:09Z</time>
      </trkpt>
      <trkpt lat="56.396147031337023" lon="-6.082415962591767">
        <ele>65.510000000000005</ele>
        <time>2023-08-30T09:01:20Z</time>
      </trkpt>
      <trkpt lat="56.394283985719085" lon="-6.078859018161893">
        <ele>53.490000000000002</ele>
        <time>2023-08-30T09:01:35Z</time>
      </trkpt>
      <trkpt lat="56.392563013359904" lon="-6.076154010370374">
        <ele>44.359999999999999</ele>
        <time>2023-08-30T09:01:48Z</time>
      </trkpt>
      <trkpt lat="56.390946982428432" lon="-6.074015032500029">
        <ele>44.840000000000003</ele>
        <time>2023-08-30T09:02:00Z</time>
      </trkpt>
      <trkpt lat="56.390036037191749" lon="-6.072809966281056">
        <ele>46.280000000000001</ele>
        <time>2023-08-30T09:02:09Z</time>
      </trkpt>
      <trkpt lat="56.389198014512658" lon="-6.071700034663081">
        <ele>45.799999999999997</ele>
        <time>2023-08-30T09:02:18Z</time>
      </trkpt>
      <trkpt lat="56.387717016041279" lon="-6.070354990661144">
        <ele>45.32</ele>
        <time>2023-08-30T09:02:29Z</time>
      </trkpt>
      <trkpt lat="56.386749995872378" lon="-6.069298032671213">
        <ele>44.840000000000003</ele>
        <time>2023-08-30T09:02:38Z</time>
      </trkpt>
      <trkpt lat="56.386009035632014" lon="-6.06834601610899">
        <ele>42.920000000000002</ele>
        <time>2023-08-30T09:02:45Z</time>
      </trkpt>
      <trkpt lat="56.385907027870417" lon="-6.068292036652565">
        <ele>42.439999999999998</ele>
        <time>2023-08-30T09:02:46Z</time>
      </trkpt>
      <trkpt lat="56.38580703176558" lon="-6.068259011954069">
        <ele>41.950000000000003</ele>
        <time>2023-08-30T09:02:47Z</time>
      </trkpt>
      <trkpt lat="56.385708041489124" lon="-6.068230010569096">
        <ele>40.990000000000002</ele>
        <time>2023-08-30T09:02:48Z</time>
      </trkpt>
      <trkpt lat="56.385598992928863" lon="-6.068230010569096">
        <ele>40.030000000000001</ele>
        <time>2023-08-30T09:02:49Z</time>
      </trkpt>
      <trkpt lat="56.385274026542902" lon="-6.068230010569096">
        <ele>38.590000000000003</ele>
        <time>2023-08-30T09:02:52Z</time>
      </trkpt>
      <trkpt lat="56.385167995467782" lon="-6.068230010569096">
        <ele>37.630000000000003</ele>
        <time>2023-08-30T09:02:53Z</time>
      </trkpt>
      <trkpt lat="56.385061964392662" lon="-6.068148035556078">
        <ele>37.149999999999999</ele>
        <time>2023-08-30T09:02:54Z</time>
      </trkpt>
      <trkpt lat="56.384962974116206" lon="-6.06806798838079">
        <ele>36.670000000000002</ele>
        <time>2023-08-30T09:02:55Z</time>
      </trkpt>
      <trkpt lat="56.384869012981653" lon="-6.067992970347405">
        <ele>36.189999999999998</ele>
        <time>2023-08-30T09:02:56Z</time>
      </trkpt>
      <trkpt lat="56.384779997169971" lon="-6.06791996397078">
        <ele>35.229999999999997</ele>
        <time>2023-08-30T09:02:57Z</time>
      </trkpt>
      <trkpt lat="56.384693998843431" lon="-6.067869001999497">
        <ele>34.740000000000002</ele>
        <time>2023-08-30T09:02:58Z</time>
      </trkpt>
      <trkpt lat="56.384602971374989" lon="-6.067888028919697">
        <ele>34.259999999999998</ele>
        <time>2023-08-30T09:02:59Z</time>
      </trkpt>
      <trkpt lat="56.384424017742276" lon="-6.067927004769445">
        <ele>32.82</ele>
        <time>2023-08-30T09:03:01Z</time>
      </trkpt>
      <trkpt lat="56.384335001930594" lon="-6.067887023091316">
        <ele>31.859999999999999</ele>
        <time>2023-08-30T09:03:02Z</time>
      </trkpt>
      <trkpt lat="56.38424196280539" lon="-6.067834971472621">
        <ele>30.899999999999999</ele>
        <time>2023-08-30T09:03:03Z</time>
      </trkpt>
      <trkpt lat="56.384169040247798" lon="-6.067713014781475">
        <ele>30.420000000000002</ele>
        <time>2023-08-30T09:03:04Z</time>
      </trkpt>
      <trkpt lat="56.384100979194045" lon="-6.067563984543085">
        <ele>29.460000000000001</ele>
        <time>2023-08-30T09:03:05Z</time>
      </trkpt>
      <trkpt lat="56.384028978645802" lon="-6.067405985668302">
        <ele>28.5</ele>
        <time>2023-08-30T09:03:06Z</time>
      </trkpt>
      <trkpt lat="56.383247030898929" lon="-6.065315958112478">
        <ele>21.77</ele>
        <time>2023-08-30T09:03:17Z</time>
      </trkpt>
      <trkpt lat="56.382635990157723" lon="-6.063139010220766">
        <ele>16.960000000000001</ele>
        <time>2023-08-30T09:03:27Z</time>
      </trkpt>
      <trkpt lat="56.38258402235806" lon="-6.062955027446151">
        <ele>17.440000000000001</ele>
        <time>2023-08-30T09:03:28Z</time>
      </trkpt>
      <trkpt lat="56.382531970739365" lon="-6.062770960852504">
        <ele>17.920000000000002</ele>
        <time>2023-08-30T09:03:29Z</time>
      </trkpt>
      <trkpt lat="56.382482014596462" lon="-6.062594018876553">
        <ele>18.399999999999999</ele>
        <time>2023-08-30T09:03:30Z</time>
      </trkpt>
      <trkpt lat="56.382437003776431" lon="-6.062436020001769">
        <ele>18.879999999999999</ele>
        <time>2023-08-30T09:03:31Z</time>
      </trkpt>
      <trkpt lat="56.382381012663245" lon="-6.06190200895071">
        <ele>20.32</ele>
        <time>2023-08-30T09:03:34Z</time>
      </trkpt>
      <trkpt lat="56.382360979914665" lon="-6.061715008690953">
        <ele>20.32</ele>
        <time>2023-08-30T09:03:35Z</time>
      </trkpt>
      <trkpt lat="56.382338013499975" lon="-6.061503030359745">
        <ele>20.809999999999999</ele>
        <time>2023-08-30T09:03:36Z</time>
      </trkpt>
      <trkpt lat="56.382138021290302" lon="-6.060524024069309">
        <ele>20.809999999999999</ele>
        <time>2023-08-30T09:03:40Z</time>
      </trkpt>
      <trkpt lat="56.382051017135382" lon="-6.060119010508061">
        <ele>21.289999999999999</ele>
        <time>2023-08-30T09:03:42Z</time>
      </trkpt>
      <trkpt lat="56.381968958303332" lon="-6.059941984713078">
        <ele>21.77</ele>
        <time>2023-08-30T09:03:43Z</time>
      </trkpt>
      <trkpt lat="56.381906010210514" lon="-6.059807036072016">
        <ele>22.25</ele>
        <time>2023-08-30T09:03:44Z</time>
      </trkpt>
      <trkpt lat="56.381666958332062" lon="-6.059166993945837">
        <ele>24.170000000000002</ele>
        <time>2023-08-30T09:03:48Z</time>
      </trkpt>
      <trkpt lat="56.381622031331062" lon="-6.05900296010077">
        <ele>24.170000000000002</ele>
        <time>2023-08-30T09:03:49Z</time>
      </trkpt>
      <trkpt lat="56.381607027724385" lon="-6.058789975941181">
        <ele>24.170000000000002</ele>
        <time>2023-08-30T09:03:50Z</time>
      </trkpt>
      <trkpt lat="56.381514994427562" lon="-6.057478962466121">
        <ele>21.289999999999999</ele>
        <time>2023-08-30T09:03:56Z</time>
      </trkpt>
      <trkpt lat="56.381475012749434" lon="-6.057286011055112">
        <ele>20.809999999999999</ele>
        <time>2023-08-30T09:03:57Z</time>
      </trkpt>
      <trkpt lat="56.381434025242925" lon="-6.05708702467382">
        <ele>20.32</ele>
        <time>2023-08-30T09:03:58Z</time>
      </trkpt>
      <trkpt lat="56.381393959745765" lon="-6.056888960301876">
        <ele>19.359999999999999</ele>
        <time>2023-08-30T09:03:59Z</time>
      </trkpt>
      <trkpt lat="56.381351966410875" lon="-6.056685028597713">
        <ele>18.399999999999999</ele>
        <time>2023-08-30T09:04:00Z</time>
      </trkpt>
      <trkpt lat="56.381308967247605" lon="-6.056476989760995">
        <ele>18.399999999999999</ele>
        <time>2023-08-30T09:04:01Z</time>
      </trkpt>
      <trkpt lat="56.381046026945114" lon="-6.055192966014147">
        <ele>14.56</ele>
        <time>2023-08-30T09:04:08Z</time>
      </trkpt>
      <trkpt lat="56.381017025560141" lon="-6.055052988231182">
        <ele>14.56</ele>
        <time>2023-08-30T09:04:09Z</time>
      </trkpt>
      <trkpt lat="56.381002021953464" lon="-6.054921979084611">
        <ele>14.08</ele>
        <time>2023-08-30T09:04:10Z</time>
      </trkpt>
      <trkpt lat="56.381008978933096" lon="-6.054775966331363">
        <ele>14.08</ele>
        <time>2023-08-30T09:04:11Z</time>
      </trkpt>
      <trkpt lat="56.381017025560141" lon="-6.054627019912005">
        <ele>14.08</ele>
        <time>2023-08-30T09:04:12Z</time>
      </trkpt>
      <trkpt lat="56.38103898614645" lon="-6.05448997579515">
        <ele>13.6</ele>
        <time>2023-08-30T09:04:13Z</time>
      </trkpt>
      <trkpt lat="56.381082991138101" lon="-6.054368019104004">
        <ele>13.6</ele>
        <time>2023-08-30T09:04:14Z</time>
      </trkpt>
      <trkpt lat="56.381128001958132" lon="-6.054243966937065">
        <ele>14.08</ele>
        <time>2023-08-30T09:04:15Z</time>
      </trkpt>
      <trkpt lat="56.381685985252261" lon="-6.052699014544487">
        <ele>12.630000000000001</ele>
        <time>2023-08-30T09:04:24Z</time>
      </trkpt>
      <trkpt lat="56.382037019357085" lon="-6.051845988258719">
        <ele>10.710000000000001</ele>
        <time>2023-08-30T09:04:29Z</time>
      </trkpt>
      <trkpt lat="56.382115976884961" lon="-6.051728976890445">
        <ele>10.23</ele>
        <time>2023-08-30T09:04:30Z</time>
      </trkpt>
      <trkpt lat="56.382218990474939" lon="-6.051668040454388">
        <ele>9.75</ele>
        <time>2023-08-30T09:04:31Z</time>
      </trkpt>
      <trkpt lat="56.38288501650095" lon="-6.05115900747478">
        <ele>6.39</ele>
        <time>2023-08-30T09:04:37Z</time>
      </trkpt>
      <trkpt lat="56.38295198790729" lon="-6.051064040511847">
        <ele>5.91</ele>
        <time>2023-08-30T09:04:38Z</time>
      </trkpt>
      <trkpt lat="56.383006973192096" lon="-6.050845021381974">
        <ele>5.42</ele>
        <time>2023-08-30T09:04:39Z</time>
      </trkpt>
      <trkpt lat="56.38305701315403" lon="-6.050647040829063">
        <ele>4.94</ele>
        <time>2023-08-30T09:04:40Z</time>
      </trkpt>
      <trkpt lat="56.383106969296932" lon="-6.050446964800358">
        <ele>4.94</ele>
        <time>2023-08-30T09:04:41Z</time>
      </trkpt>
      <trkpt lat="56.383228003978729" lon="-6.049961987882853">
        <ele>5.91</ele>
        <time>2023-08-30T09:04:44Z</time>
      </trkpt>
      <trkpt lat="56.383291035890579" lon="-6.049827039241791">
        <ele>5.91</ele>
        <time>2023-08-30T09:04:45Z</time>
      </trkpt>
      <trkpt lat="56.383357001468539" lon="-6.049693012610078">
        <ele>5.91</ele>
        <time>2023-08-30T09:04:46Z</time>
      </trkpt>
      <trkpt lat="56.384166022762656" lon="-6.048124004155397">
        <ele>5.91</ele>
        <time>2023-08-30T09:04:56Z</time>
      </trkpt>
      <trkpt lat="56.384268030524254" lon="-6.047988971695304">
        <ele>5.91</ele>
        <time>2023-08-30T09:04:57Z</time>
      </trkpt>
      <trkpt lat="56.384977977722883" lon="-6.046959003433585">
        <ele>4.46</ele>
        <time>2023-08-30T09:05:04Z</time>
      </trkpt>
      <trkpt lat="56.38606402091682" lon="-6.045490996912122">
        <ele>2.06</ele>
        <time>2023-08-30T09:05:14Z</time>
      </trkpt>
      <trkpt lat="56.386743960902095" lon="-6.044573010876775">
        <ele>4.46</ele>
        <time>2023-08-30T09:05:21Z</time>
      </trkpt>
      <trkpt lat="56.387409986928105" lon="-6.043642032891512">
        <ele>10.710000000000001</ele>
        <time>2023-08-30T09:05:30Z</time>
      </trkpt>
      <trkpt lat="56.388050029054284" lon="-6.042545009404421">
        <ele>13.6</ele>
        <time>2023-08-30T09:05:38Z</time>
      </trkpt>
      <trkpt lat="56.389056025072932" lon="-6.040861001238227">
        <ele>6.39</ele>
        <time>2023-08-30T09:05:48Z</time>
      </trkpt>
      <trkpt lat="56.390175009146333" lon="-6.038809027522802">
        <ele>3.02</ele>
        <time>2023-08-30T09:05:58Z</time>
      </trkpt>
      <trkpt lat="56.390591003000736" lon="-6.037430036813021">
        <ele>3.02</ele>
        <time>2023-08-30T09:06:05Z</time>
      </trkpt>
      <trkpt lat="56.390641964972019" lon="-6.037250999361277">
        <ele>3.5</ele>
        <time>2023-08-30T09:06:06Z</time>
      </trkpt>
      <trkpt lat="56.390698961913586" lon="-6.037052012979984">
        <ele>3.5</ele>
        <time>2023-08-30T09:06:07Z</time>
      </trkpt>
      <trkpt lat="56.39077297411859" lon="-6.036913963034749">
        <ele>3.98</ele>
        <time>2023-08-30T09:06:08Z</time>
      </trkpt>
      <trkpt lat="56.39085897244513" lon="-6.036754036322236">
        <ele>3.98</ele>
        <time>2023-08-30T09:06:09Z</time>
      </trkpt>
      <trkpt lat="56.391728008165956" lon="-6.03532399982214">
        <ele>2.54</ele>
        <time>2023-08-30T09:06:18Z</time>
      </trkpt>
      <trkpt lat="56.391811994835734" lon="-6.035147979855537">
        <ele>2.54</ele>
        <time>2023-08-30T09:06:19Z</time>
      </trkpt>
      <trkpt lat="56.391892964020371" lon="-6.034961985424161">
        <ele>2.06</ele>
        <time>2023-08-30T09:06:20Z</time>
      </trkpt>
      <trkpt lat="56.391972005367279" lon="-6.034780014306307">
        <ele>2.06</ele>
        <time>2023-08-30T09:06:21Z</time>
      </trkpt>
      <trkpt lat="56.392584973946214" lon="-6.032772967591882">
        <ele>4.46</ele>
        <time>2023-08-30T09:06:30Z</time>
      </trkpt>
      <trkpt lat="56.393196014687419" lon="-6.030714036896825">
        <ele>3.98</ele>
        <time>2023-08-30T09:06:39Z</time>
      </trkpt>
      <trkpt lat="56.39324395917356" lon="-6.030552014708519">
        <ele>3.98</ele>
        <time>2023-08-30T09:06:47Z</time>
      </trkpt>
      <trkpt lat="56.39324395917356" lon="-6.030552014708519">
        <ele>4.46</ele>
        <time>2023-08-30T09:07:36Z</time>
      </trkpt>
      <trkpt lat="56.393252005800605" lon="-6.030524019151926">
        <ele>4.46</ele>
        <time>2023-08-30T09:07:38Z</time>
      </trkpt>
      <trkpt lat="56.393467001616955" lon="-6.029798984527588">
        <ele>4.46</ele>
        <time>2023-08-30T09:07:39Z</time>
      </trkpt>
      <trkpt lat="56.393316965550184" lon="-6.030302988365293">
        <ele>5.91</ele>
        <time>2023-08-30T09:16:33Z</time>
      </trkpt>
      <trkpt lat="56.393427019938827" lon="-6.029933011159301">
        <ele>12.15</ele>
        <time>2023-08-30T09:16:37Z</time>
      </trkpt>
      <trkpt lat="56.393467001616955" lon="-6.029798984527588">
        <ele>12.15</ele>
        <time>2023-08-30T09:16:38Z</time>
      </trkpt>
      <trkpt lat="56.393546964973211" lon="-6.029318030923605">
        <ele>4.94</ele>
        <time>2023-08-30T09:16:40Z</time>
      </trkpt>
      <trkpt lat="56.393593987450004" lon="-6.028817966580391">
        <ele>6.87</ele>
        <time>2023-08-30T09:16:42Z</time>
      </trkpt>
      <trkpt lat="56.393687026575208" lon="-6.027867961674929">
        <ele>8.310000000000001</ele>
        <time>2023-08-30T09:16:46Z</time>
      </trkpt>
      <trkpt lat="56.393735976889729" lon="-6.02765497751534">
        <ele>7.83</ele>
        <time>2023-08-30T09:16:47Z</time>
      </trkpt>
      <trkpt lat="56.394165968522429" lon="-6.025400999933481">
        <ele>5.42</ele>
        <time>2023-08-30T09:16:57Z</time>
      </trkpt>
      <trkpt lat="56.394731998443604" lon="-6.022924985736609">
        <ele>5.42</ele>
        <time>2023-08-30T09:17:08Z</time>
      </trkpt>
      <trkpt lat="56.394754964858294" lon="-6.022683000192046">
        <ele>5.91</ele>
        <time>2023-08-30T09:17:09Z</time>
      </trkpt>
      <trkpt lat="56.394778015092015" lon="-6.022445959970355">
        <ele>5.91</ele>
        <time>2023-08-30T09:17:10Z</time>
      </trkpt>
      <trkpt lat="56.394721018150449" lon="-6.021126983687282">
        <ele>6.87</ele>
        <time>2023-08-30T09:17:16Z</time>
      </trkpt>
      <trkpt lat="56.394679024815559" lon="-6.020935960114002">
        <ele>6.87</ele>
        <time>2023-08-30T09:17:17Z</time>
      </trkpt>
      <trkpt lat="56.394638037309051" lon="-6.020749965682626">
        <ele>7.35</ele>
        <time>2023-08-30T09:17:18Z</time>
      </trkpt>
      <trkpt lat="56.394595960155129" lon="-6.020574029535055">
        <ele>7.35</ele>
        <time>2023-08-30T09:17:19Z</time>
      </trkpt>
      <trkpt lat="56.394527982920408" lon="-6.020390968769789">
        <ele>7.35</ele>
        <time>2023-08-30T09:17:20Z</time>
      </trkpt>
      <trkpt lat="56.394075024873018" lon="-6.019293023273349">
        <ele>8.789999999999999</ele>
        <time>2023-08-30T09:17:26Z</time>
      </trkpt>
      <trkpt lat="56.393983997404575" lon="-6.019178023561835">
        <ele>8.789999999999999</ele>
        <time>2023-08-30T09:17:27Z</time>
      </trkpt>
      <trkpt lat="56.393889030441642" lon="-6.019057994708419">
        <ele>8.789999999999999</ele>
        <time>2023-08-30T09:17:28Z</time>
      </trkpt>
      <trkpt lat="56.393344961106777" lon="-6.018571006134152">
        <ele>8.310000000000001</ele>
        <time>2023-08-30T09:17:33Z</time>
      </trkpt>
      <trkpt lat="56.393245970830321" lon="-6.01847997866571">
        <ele>7.83</ele>
        <time>2023-08-30T09:17:34Z</time>
      </trkpt>
      <trkpt lat="56.393158966675401" lon="-6.018340000882745">
        <ele>7.83</ele>
        <time>2023-08-30T09:17:35Z</time>
      </trkpt>
      <trkpt lat="56.39272796921432" lon="-6.017631981521845">
        <ele>7.83</ele>
        <time>2023-08-30T09:17:40Z</time>
      </trkpt>
      <trkpt lat="56.392654040828347" lon="-6.017451016232371">
        <ele>7.83</ele>
        <time>2023-08-30T09:17:41Z</time>
      </trkpt>
      <trkpt lat="56.391921965405345" lon="-6.015657959505916">
        <ele>9.27</ele>
        <time>2023-08-30T09:17:51Z</time>
      </trkpt>
      <trkpt lat="56.391886007040739" lon="-6.01542703807354">
        <ele>9.27</ele>
        <time>2023-08-30T09:17:52Z</time>
      </trkpt>
      <trkpt lat="56.391852982342243" lon="-6.015220005065203">
        <ele>9.75</ele>
        <time>2023-08-30T09:17:53Z</time>
      </trkpt>
      <trkpt lat="56.391820963472128" lon="-6.015010960400105">
        <ele>9.75</ele>
        <time>2023-08-30T09:17:54Z</time>
      </trkpt>
      <trkpt lat="56.39180202037096" lon="-6.014792025089264">
        <ele>9.75</ele>
        <time>2023-08-30T09:17:55Z</time>
      </trkpt>
      <trkpt lat="56.391722979024053" lon="-6.013370035216212">
        <ele>9.75</ele>
        <time>2023-08-30T09:18:01Z</time>
      </trkpt>
      <trkpt lat="56.391718033701181" lon="-6.012149965390563">
        <ele>10.23</ele>
        <time>2023-08-30T09:18:06Z</time>
      </trkpt>
      <trkpt lat="56.391725996509194" lon="-6.01192600093782">
        <ele>10.23</ele>
        <time>2023-08-30T09:18:07Z</time>
      </trkpt>
      <trkpt lat="56.391747035086155" lon="-6.011703964322805">
        <ele>10.23</ele>
        <time>2023-08-30T09:18:08Z</time>
      </trkpt>
      <trkpt lat="56.392018022015691" lon="-6.010321034118533">
        <ele>9.75</ele>
        <time>2023-08-30T09:18:15Z</time>
      </trkpt>
      <trkpt lat="56.392068983986974" lon="-6.01016404107213">
        <ele>9.75</ele>
        <time>2023-08-30T09:18:16Z</time>
      </trkpt>
      <trkpt lat="56.39289602637291" lon="-6.008207034319639">
        <ele>9.27</ele>
        <time>2023-08-30T09:18:27Z</time>
      </trkpt>
      <trkpt lat="56.393703036010265" lon="-6.005788017064333">
        <ele>6.39</ele>
        <time>2023-08-30T09:18:40Z</time>
      </trkpt>
      <trkpt lat="56.393880983814597" lon="-6.004756959155202">
        <ele>4.46</ele>
        <time>2023-08-30T09:18:45Z</time>
      </trkpt>
      <trkpt lat="56.393899004906416" lon="-6.004531988874078">
        <ele>4.46</ele>
        <time>2023-08-30T09:18:46Z</time>
      </trkpt>
      <trkpt lat="56.393910991027951" lon="-6.003709975630045">
        <ele>3.98</ele>
        <time>2023-08-30T09:18:50Z</time>
      </trkpt>
      <trkpt lat="56.393900010734797" lon="-6.003520963713527">
        <ele>4.46</ele>
        <time>2023-08-30T09:18:51Z</time>
      </trkpt>
      <trkpt lat="56.393860029056668" lon="-6.003343015909195">
        <ele>4.46</ele>
        <time>2023-08-30T09:18:52Z</time>
      </trkpt>
      <trkpt lat="56.393804037943482" lon="-6.003172025084496">
        <ele>4.94</ele>
        <time>2023-08-30T09:18:53Z</time>
      </trkpt>
      <trkpt lat="56.393746035173535" lon="-6.002999022603035">
        <ele>4.94</ele>
        <time>2023-08-30T09:18:54Z</time>
      </trkpt>
      <trkpt lat="56.393681997433305" lon="-6.002834988757968">
        <ele>5.42</ele>
        <time>2023-08-30T09:18:55Z</time>
      </trkpt>
      <trkpt lat="56.393597004935145" lon="-6.002695010975003">
        <ele>5.42</ele>
        <time>2023-08-30T09:18:56Z</time>
      </trkpt>
      <trkpt lat="56.393511006608605" lon="-6.002554027363658">
        <ele>5.42</ele>
        <time>2023-08-30T09:18:57Z</time>
      </trkpt>
      <trkpt lat="56.393022006377578" lon="-6.001923959702253">
        <ele>6.39</ele>
        <time>2023-08-30T09:19:02Z</time>
      </trkpt>
      <trkpt lat="56.392470980063081" lon="-6.001515006646514">
        <ele>8.310000000000001</ele>
        <time>2023-08-30T09:19:07Z</time>
      </trkpt>
      <trkpt lat="56.390991993248463" lon="-6.000097962096334">
        <ele>13.119999999999999</ele>
        <time>2023-08-30T09:19:20Z</time>
      </trkpt>
      <trkpt lat="56.38993201777339" lon="-5.998911000788212">
        <ele>14.56</ele>
        <time>2023-08-30T09:19:30Z</time>
      </trkpt>
      <trkpt lat="56.389766978099942" lon="-5.998588968068361">
        <ele>14.08</ele>
        <time>2023-08-30T09:19:32Z</time>
      </trkpt>
      <trkpt lat="56.389167001470923" lon="-5.99716798402369">
        <ele>10.710000000000001</ele>
        <time>2023-08-30T09:19:40Z</time>
      </trkpt>
      <trkpt lat="56.389122996479273" lon="-5.997062958776951">
        <ele>10.23</ele>
        <time>2023-08-30T09:19:41Z</time>
      </trkpt>
      <trkpt lat="56.389128025621176" lon="-5.996917029842734">
        <ele>10.23</ele>
        <time>2023-08-30T09:19:42Z</time>
      </trkpt>
      <trkpt lat="56.389145040884614" lon="-5.996798006817699">
        <ele>9.75</ele>
        <time>2023-08-30T09:19:43Z</time>
      </trkpt>
      <trkpt lat="56.389163983985782" lon="-5.996666997671127">
        <ele>9.75</ele>
        <time>2023-08-30T09:19:44Z</time>
      </trkpt>
      <trkpt lat="56.389186028391123" lon="-5.99652299657464">
        <ele>9.27</ele>
        <time>2023-08-30T09:19:45Z</time>
      </trkpt>
      <trkpt lat="56.389208994805813" lon="-5.996363991871476">
        <ele>9.27</ele>
        <time>2023-08-30T09:19:46Z</time>
      </trkpt>
      <trkpt lat="56.38920396566391" lon="-5.996183026582003">
        <ele>9.27</ele>
        <time>2023-08-30T09:19:47Z</time>
      </trkpt>
      <trkpt lat="56.3891820050776" lon="-5.995998037979007">
        <ele>8.789999999999999</ele>
        <time>2023-08-30T09:19:48Z</time>
      </trkpt>
      <trkpt lat="56.38916096650064" lon="-5.995823023840785">
        <ele>8.310000000000001</ele>
        <time>2023-08-30T09:19:49Z</time>
      </trkpt>
      <trkpt lat="56.3890749681741" lon="-5.994749972596765">
        <ele>8.789999999999999</ele>
        <time>2023-08-30T09:19:56Z</time>
      </trkpt>
      <trkpt lat="56.389045966789126" lon="-5.994221996515989">
        <ele>7.83</ele>
        <time>2023-08-30T09:19:59Z</time>
      </trkpt>
      <trkpt lat="56.389065999537706" lon="-5.994061985984445">
        <ele>7.35</ele>
        <time>2023-08-30T09:20:00Z</time>
      </trkpt>
      <trkpt lat="56.389084020629525" lon="-5.99392200820148">
        <ele>6.87</ele>
        <time>2023-08-30T09:20:01Z</time>
      </trkpt>
      <trkpt lat="56.389127019792795" lon="-5.993811031803489">
        <ele>6.87</ele>
        <time>2023-08-30T09:20:02Z</time>
      </trkpt>
      <trkpt lat="56.389190973713994" lon="-5.993692008778453">
        <ele>6.39</ele>
        <time>2023-08-30T09:20:03Z</time>
      </trkpt>
      <trkpt lat="56.389338998124003" lon="-5.993421021848917">
        <ele>5.91</ele>
        <time>2023-08-30T09:20:05Z</time>
      </trkpt>
      <trkpt lat="56.389400018379092" lon="-5.993246007710695">
        <ele>5.91</ele>
        <time>2023-08-30T09:20:06Z</time>
      </trkpt>
      <trkpt lat="56.389515018090606" lon="-5.992845017462969">
        <ele>5.91</ele>
        <time>2023-08-30T09:20:08Z</time>
      </trkpt>
      <trkpt lat="56.390037965029478" lon="-5.991052966564894">
        <ele>9.27</ele>
        <time>2023-08-30T09:20:17Z</time>
      </trkpt>
      <trkpt lat="56.390117006376386" lon="-5.990936039015651">
        <ele>9.27</ele>
        <time>2023-08-30T09:20:18Z</time>
      </trkpt>
      <trkpt lat="56.390209961682558" lon="-5.990825984627008">
        <ele>9.75</ele>
        <time>2023-08-30T09:20:19Z</time>
      </trkpt>
      <trkpt lat="56.391078997403383" lon="-5.989514971151948">
        <ele>6.87</ele>
        <time>2023-08-30T09:20:28Z</time>
      </trkpt>
      <trkpt lat="56.391226015985012" lon="-5.98913099616766">
        <ele>6.39</ele>
        <time>2023-08-30T09:20:30Z</time>
      </trkpt>
      <trkpt lat="56.391279995441437" lon="-5.988922035321593">
        <ele>6.39</ele>
        <time>2023-08-30T09:20:31Z</time>
      </trkpt>
      <trkpt lat="56.391320982947946" lon="-5.988704022020102">
        <ele>6.39</ele>
        <time>2023-08-30T09:20:32Z</time>
      </trkpt>
      <trkpt lat="56.391363982111216" lon="-5.988472010940313">
        <ele>6.39</ele>
        <time>2023-08-30T09:20:33Z</time>
      </trkpt>
      <trkpt lat="56.39137202873826" lon="-5.98825098015368">
        <ele>6.39</ele>
        <time>2023-08-30T09:20:34Z</time>
      </trkpt>
      <trkpt lat="56.391379991546273" lon="-5.988017041236162">
        <ele>6.87</ele>
        <time>2023-08-30T09:20:35Z</time>
      </trkpt>
      <trkpt lat="56.391391977667809" lon="-5.985601041465998">
        <ele>5.91</ele>
        <time>2023-08-30T09:20:45Z</time>
      </trkpt>
      <trkpt lat="56.391368005424738" lon="-5.982998041436076">
        <ele>4.46</ele>
        <time>2023-08-30T09:20:56Z</time>
      </trkpt>
      <trkpt lat="56.391225010156631" lon="-5.981148993596435">
        <ele>3.5</ele>
        <time>2023-08-30T09:21:04Z</time>
      </trkpt>
      <trkpt lat="56.391128031536937" lon="-5.980496965348721">
        <ele>3.98</ele>
        <time>2023-08-30T09:21:08Z</time>
      </trkpt>
      <trkpt lat="56.39109400101006" lon="-5.980056999251247">
        <ele>4.46</ele>
        <time>2023-08-30T09:21:09Z</time>
      </trkpt>
      <trkpt lat="56.391107998788357" lon="-5.979843009263277">
        <ele>4.94</ele>
        <time>2023-08-30T09:21:10Z</time>
      </trkpt>
      <trkpt lat="56.391120990738273" lon="-5.979622984305024">
        <ele>4.94</ele>
        <time>2023-08-30T09:21:11Z</time>
      </trkpt>
      <trkpt lat="56.391146974638104" lon="-5.979402037337422">
        <ele>5.42</ele>
        <time>2023-08-30T09:21:12Z</time>
      </trkpt>
      <trkpt lat="56.39117899350822" lon="-5.979191986843944">
        <ele>5.42</ele>
        <time>2023-08-30T09:21:13Z</time>
      </trkpt>
      <trkpt lat="56.391320982947946" lon="-5.97752801142633">
        <ele>7.35</ele>
        <time>2023-08-30T09:21:22Z</time>
      </trkpt>
      <trkpt lat="56.391303967684507" lon="-5.977388033643365">
        <ele>7.35</ele>
        <time>2023-08-30T09:21:23Z</time>
      </trkpt>
      <trkpt lat="56.391279995441437" lon="-5.977188041433692">
        <ele>7.35</ele>
        <time>2023-08-30T09:21:25Z</time>
      </trkpt>
      <trkpt lat="56.391270020976663" lon="-5.977104976773262">
        <ele>7.35</ele>
        <time>2023-08-30T09:21:26Z</time>
      </trkpt>
      <trkpt lat="56.39122199267149" lon="-5.977004980668426">
        <ele>7.35</ele>
        <time>2023-08-30T09:21:27Z</time>
      </trkpt>
      <trkpt lat="56.39115896075964" lon="-5.977028030902147">
        <ele>7.35</ele>
        <time>2023-08-30T09:21:28Z</time>
      </trkpt>
      <trkpt lat="56.39107002876699" lon="-5.977060971781611">
        <ele>7.35</ele>
        <time>2023-08-30T09:21:29Z</time>
      </trkpt>
      <trkpt lat="56.39096399769187" lon="-5.977101037278771">
        <ele>7.83</ele>
        <time>2023-08-30T09:21:30Z</time>
      </trkpt>
      <trkpt lat="56.389721967279911" lon="-5.9775519836694">
        <ele>7.35</ele>
        <time>2023-08-30T09:21:39Z</time>
      </trkpt>
      <trkpt lat="56.387422978878021" lon="-5.978352036327124">
        <ele>10.710000000000001</ele>
        <time>2023-08-30T09:21:53Z</time>
      </trkpt>
      <trkpt lat="56.386010041460395" lon="-5.978585975244641">
        <ele>10.23</ele>
        <time>2023-08-30T09:22:01Z</time>
      </trkpt>
      <trkpt lat="56.385839972645044" lon="-5.978652024641633">
        <ele>9.75</ele>
        <time>2023-08-30T09:22:02Z</time>
      </trkpt>
      <trkpt lat="56.385676022619009" lon="-5.978784039616585">
        <ele>9.27</ele>
        <time>2023-08-30T09:22:03Z</time>
      </trkpt>
      <trkpt lat="56.385521041229367" lon="-5.978944972157478">
        <ele>9.27</ele>
        <time>2023-08-30T09:22:04Z</time>
      </trkpt>
      <trkpt lat="56.38537704013288" lon="-5.979137001559138">
        <ele>9.27</ele>
        <time>2023-08-30T09:22:05Z</time>
      </trkpt>
      <trkpt lat="56.385241001844406" lon="-5.979346968233585">
        <ele>9.27</ele>
        <time>2023-08-30T09:22:06Z</time>
      </trkpt>
      <trkpt lat="56.385110998526216" lon="-5.979571016505361">
        <ele>8.789999999999999</ele>
        <time>2023-08-30T09:22:07Z</time>
      </trkpt>
      <trkpt lat="56.384572964161634" lon="-5.980500988662243">
        <ele>8.789999999999999</ele>
        <time>2023-08-30T09:22:13Z</time>
      </trkpt>
      <trkpt lat="56.383892018347979" lon="-5.981732038781047">
        <ele>9.27</ele>
        <time>2023-08-30T09:22:20Z</time>
      </trkpt>
      <trkpt lat="56.383403018116951" lon="-5.983236003667116">
        <ele>8.310000000000001</ele>
        <time>2023-08-30T09:22:26Z</time>
      </trkpt>
      <trkpt lat="56.383383991196752" lon="-5.983518976718187">
        <ele>8.310000000000001</ele>
        <time>2023-08-30T09:22:27Z</time>
      </trkpt>
      <trkpt lat="56.383363958448172" lon="-5.98380102775991">
        <ele>8.310000000000001</ele>
        <time>2023-08-30T09:22:28Z</time>
      </trkpt>
      <trkpt lat="56.383361024782062" lon="-5.984072014689446">
        <ele>8.789999999999999</ele>
        <time>2023-08-30T09:22:29Z</time>
      </trkpt>
      <trkpt lat="56.383363036438823" lon="-5.984356999397278">
        <ele>8.789999999999999</ele>
        <time>2023-08-30T09:22:30Z</time>
      </trkpt>
      <trkpt lat="56.383361024782062" lon="-5.988117959350348">
        <ele>10.710000000000001</ele>
        <time>2023-08-30T09:22:43Z</time>
      </trkpt>
      <trkpt lat="56.383038992062211" lon="-5.98999097943306">
        <ele>10.23</ele>
        <time>2023-08-30T09:22:50Z</time>
      </trkpt>
      <trkpt lat="56.382660968229175" lon="-5.991982016712427">
        <ele>11.19</ele>
        <time>2023-08-30T09:22:58Z</time>
      </trkpt>
      <trkpt lat="56.382651999592781" lon="-5.992245962843299">
        <ele>11.19</ele>
        <time>2023-08-30T09:22:59Z</time>
      </trkpt>
      <trkpt lat="56.382651999592781" lon="-5.992528013885021">
        <ele>11.19</ele>
        <time>2023-08-30T09:23:00Z</time>
      </trkpt>
      <trkpt lat="56.382657028734684" lon="-5.992801012471318">
        <ele>10.710000000000001</ele>
        <time>2023-08-30T09:23:01Z</time>
      </trkpt>
      <trkpt lat="56.38269298709929" lon="-5.993081973865628">
        <ele>10.710000000000001</ele>
        <time>2023-08-30T09:23:02Z</time>
      </trkpt>
      <trkpt lat="56.382730035111308" lon="-5.99336301907897">
        <ele>10.710000000000001</ele>
        <time>2023-08-30T09:23:03Z</time>
      </trkpt>
      <trkpt lat="56.382818967103958" lon="-5.995907010510564">
        <ele>12.15</ele>
        <time>2023-08-30T09:23:12Z</time>
      </trkpt>
      <trkpt lat="56.382764987647533" lon="-5.996723994612694">
        <ele>12.630000000000001</ele>
        <time>2023-08-30T09:23:17Z</time>
      </trkpt>
      <trkpt lat="56.382706984877586" lon="-5.997354984283447">
        <ele>12.15</ele>
        <time>2023-08-30T09:23:23Z</time>
      </trkpt>
      <trkpt lat="56.38247899711132" lon="-5.998506993055344">
        <ele>12.15</ele>
        <time>2023-08-30T09:23:28Z</time>
      </trkpt>
      <trkpt lat="56.382387969642878" lon="-5.998733974993229">
        <ele>11.67</ele>
        <time>2023-08-30T09:23:29Z</time>
      </trkpt>
      <trkpt lat="56.381497979164124" lon="-6.000565001741052">
        <ele>11.67</ele>
        <time>2023-08-30T09:23:37Z</time>
      </trkpt>
      <trkpt lat="56.381177036091685" lon="-6.00107504054904">
        <ele>11.19</ele>
        <time>2023-08-30T09:23:40Z</time>
      </trkpt>
      <trkpt lat="56.381053989753127" lon="-6.001179981976748">
        <ele>11.19</ele>
        <time>2023-08-30T09:23:41Z</time>
      </trkpt>
      <trkpt lat="56.380927003920078" lon="-6.001286013051868">
        <ele>11.19</ele>
        <time>2023-08-30T09:23:42Z</time>
      </trkpt>
      <trkpt lat="56.380359968170524" lon="-6.001534033566713">
        <ele>11.19</ele>
        <time>2023-08-30T09:23:46Z</time>
      </trkpt>
      <trkpt lat="56.379508031532168" lon="-6.001922031864524">
        <ele>12.630000000000001</ele>
        <time>2023-08-30T09:23:52Z</time>
      </trkpt>
      <trkpt lat="56.379379034042358" lon="-6.002018004655838">
        <ele>13.119999999999999</ele>
        <time>2023-08-30T09:23:53Z</time>
      </trkpt>
      <trkpt lat="56.378225013613701" lon="-6.002810010686517">
        <ele>14.08</ele>
        <time>2023-08-30T09:24:01Z</time>
      </trkpt>
      <trkpt lat="56.376824984326959" lon="-6.00391298532486">
        <ele>12.630000000000001</ele>
        <time>2023-08-30T09:24:11Z</time>
      </trkpt>
      <trkpt lat="56.375981010496616" lon="-6.00477003492415">
        <ele>13.119999999999999</ele>
        <time>2023-08-30T09:24:16Z</time>
      </trkpt>
      <trkpt lat="56.37568898499012" lon="-6.004982013255358">
        <ele>13.6</ele>
        <time>2023-08-30T09:24:18Z</time>
      </trkpt>
      <trkpt lat="56.375554036349058" lon="-6.005125008523464">
        <ele>13.6</ele>
        <time>2023-08-30T09:24:19Z</time>
      </trkpt>
      <trkpt lat="56.3754309900105" lon="-6.005304967984557">
        <ele>13.6</ele>
        <time>2023-08-30T09:24:20Z</time>
      </trkpt>
      <trkpt lat="56.375306015834212" lon="-6.005489034578204">
        <ele>14.08</ele>
        <time>2023-08-30T09:24:21Z</time>
      </trkpt>
      <trkpt lat="56.375207025557756" lon="-6.005734037607908">
        <ele>14.08</ele>
        <time>2023-08-30T09:24:22Z</time>
      </trkpt>
      <trkpt lat="56.375112980604172" lon="-6.005982980132103">
        <ele>14.08</ele>
        <time>2023-08-30T09:24:23Z</time>
      </trkpt>
      <trkpt lat="56.375022036954761" lon="-6.006222032010555">
        <ele>14.08</ele>
        <time>2023-08-30T09:24:24Z</time>
      </trkpt>
      <trkpt lat="56.374180996790528" lon="-6.008206028491259">
        <ele>12.630000000000001</ele>
        <time>2023-08-30T09:24:33Z</time>
      </trkpt>
      <trkpt lat="56.374065997079015" lon="-6.008381964638829">
        <ele>12.630000000000001</ele>
        <time>2023-08-30T09:24:34Z</time>
      </trkpt>
      <trkpt lat="56.373835997655988" lon="-6.008688993752003">
        <ele>11.67</ele>
        <time>2023-08-30T09:24:36Z</time>
      </trkpt>
      <trkpt lat="56.373758967965841" lon="-6.008880017325282">
        <ele>11.67</ele>
        <time>2023-08-30T09:24:37Z</time>
      </trkpt>
      <trkpt lat="56.373614966869354" lon="-6.00924102589488">
        <ele>11.67</ele>
        <time>2023-08-30T09:24:39Z</time>
      </trkpt>
      <trkpt lat="56.373521005734801" lon="-6.009384021162987">
        <ele>11.67</ele>
        <time>2023-08-30T09:24:40Z</time>
      </trkpt>
      <trkpt lat="56.373413968831301" lon="-6.009522993117571">
        <ele>11.67</ele>
        <time>2023-08-30T09:24:41Z</time>
      </trkpt>
      <trkpt lat="56.372390035539865" lon="-6.010619010776281">
        <ele>12.630000000000001</ele>
        <time>2023-08-30T09:24:49Z</time>
      </trkpt>
      <trkpt lat="56.371834985911846" lon="-6.01145301014185">
        <ele>12.630000000000001</ele>
        <time>2023-08-30T09:24:55Z</time>
      </trkpt>
      <trkpt lat="56.371780000627041" lon="-6.011565998196602">
        <ele>12.630000000000001</ele>
        <time>2023-08-30T09:24:56Z</time>
      </trkpt>
      <trkpt lat="56.371737001463771" lon="-6.01171201094985">
        <ele>13.119999999999999</ele>
        <time>2023-08-30T09:24:57Z</time>
      </trkpt>
      <trkpt lat="56.37169199064374" lon="-6.011865986511111">
        <ele>13.119999999999999</ele>
        <time>2023-08-30T09:24:58Z</time>
      </trkpt>
      <trkpt lat="56.371645973995328" lon="-6.012020967900753">
        <ele>12.630000000000001</ele>
        <time>2023-08-30T09:24:59Z</time>
      </trkpt>
      <trkpt lat="56.37154103256762" lon="-6.012322967872024">
        <ele>12.15</ele>
        <time>2023-08-30T09:25:01Z</time>
      </trkpt>
      <trkpt lat="56.371465008705854" lon="-6.012476021423936">
        <ele>12.15</ele>
        <time>2023-08-30T09:25:02Z</time>
      </trkpt>
      <trkpt lat="56.371373981237411" lon="-6.012618010863662">
        <ele>12.15</ele>
        <time>2023-08-30T09:25:03Z</time>
      </trkpt>
      <trkpt lat="56.371259987354279" lon="-6.012710966169834">
        <ele>12.630000000000001</ele>
        <time>2023-08-30T09:25:04Z</time>
      </trkpt>
      <trkpt lat="56.371140964329243" lon="-6.012809034436941">
        <ele>12.630000000000001</ele>
        <time>2023-08-30T09:25:05Z</time>
      </trkpt>
      <trkpt lat="56.370034972205758" lon="-6.013716962188482">
        <ele>10.710000000000001</ele>
        <time>2023-08-30T09:25:13Z</time>
      </trkpt>
      <trkpt lat="56.368416007608175" lon="-6.015076003968716">
        <ele>11.67</ele>
        <time>2023-08-30T09:25:24Z</time>
      </trkpt>
      <trkpt lat="56.3675029668957" lon="-6.015914026647806">
        <ele>13.6</ele>
        <time>2023-08-30T09:25:31Z</time>
      </trkpt>
      <trkpt lat="56.3659349642694" lon="-6.017827028408647">
        <ele>14.56</ele>
        <time>2023-08-30T09:25:44Z</time>
      </trkpt>
      <trkpt lat="56.365196015685797" lon="-6.018466986715794">
        <ele>14.08</ele>
        <time>2023-08-30T09:25:50Z</time>
      </trkpt>
      <trkpt lat="56.364892004057765" lon="-6.018606964498758">
        <ele>14.56</ele>
        <time>2023-08-30T09:25:53Z</time>
      </trkpt>
      <trkpt lat="56.364822015166283" lon="-6.018702015280724">
        <ele>14.56</ele>
        <time>2023-08-30T09:25:54Z</time>
      </trkpt>
      <trkpt lat="56.364769041538239" lon="-6.018808968365192">
        <ele>14.56</ele>
        <time>2023-08-30T09:25:55Z</time>
      </trkpt>
      <trkpt lat="56.364716989919543" lon="-6.018913993611932">
        <ele>15.039999999999999</ele>
        <time>2023-08-30T09:25:56Z</time>
      </trkpt>
      <trkpt lat="56.364670973271132" lon="-6.019052965566516">
        <ele>15.039999999999999</ele>
        <time>2023-08-30T09:25:57Z</time>
      </trkpt>
      <trkpt lat="56.364634009078145" lon="-6.019209958612919">
        <ele>15.039999999999999</ele>
        <time>2023-08-30T09:25:58Z</time>
      </trkpt>
      <trkpt lat="56.364600984379649" lon="-6.019386984407902">
        <ele>15.039999999999999</ele>
        <time>2023-08-30T09:25:59Z</time>
      </trkpt>
      <trkpt lat="56.364585980772972" lon="-6.01957599632442">
        <ele>14.56</ele>
        <time>2023-08-30T09:26:00Z</time>
      </trkpt>
      <trkpt lat="56.364569971337914" lon="-6.019772971048951">
        <ele>15.039999999999999</ele>
        <time>2023-08-30T09:26:01Z</time>
      </trkpt>
      <trkpt lat="56.364418007433414" lon="-6.02138296701014">
        <ele>13.6</ele>
        <time>2023-08-30T09:26:09Z</time>
      </trkpt>
      <trkpt lat="56.364331003278494" lon="-6.022445959970355">
        <ele>12.630000000000001</ele>
        <time>2023-08-30T09:26:14Z</time>
      </trkpt>
      <trkpt lat="56.364335026592016" lon="-6.022665984928608">
        <ele>12.630000000000001</ele>
        <time>2023-08-30T09:26:15Z</time>
      </trkpt>
      <trkpt lat="56.364347012713552" lon="-6.02333502843976">
        <ele>13.119999999999999</ele>
        <time>2023-08-30T09:26:18Z</time>
      </trkpt>
      <trkpt lat="56.36432102881372" lon="-6.023583970963955">
        <ele>13.119999999999999</ele>
        <time>2023-08-30T09:26:19Z</time>
      </trkpt>
      <trkpt lat="56.364271994680166" lon="-6.023828973993659">
        <ele>13.119999999999999</ele>
        <time>2023-08-30T09:26:20Z</time>
      </trkpt>
      <trkpt lat="56.364221032708883" lon="-6.024085963144898">
        <ele>13.119999999999999</ele>
        <time>2023-08-30T09:26:21Z</time>
      </trkpt>
      <trkpt lat="56.364168981090188" lon="-6.024343958124518">
        <ele>13.119999999999999</ele>
        <time>2023-08-30T09:26:22Z</time>
      </trkpt>
      <trkpt lat="56.364040989428759" lon="-6.025148034095764">
        <ele>13.6</ele>
        <time>2023-08-30T09:26:26Z</time>
      </trkpt>
      <trkpt lat="56.364021962508559" lon="-6.025302009657025">
        <ele>13.6</ele>
        <time>2023-08-30T09:26:27Z</time>
      </trkpt>
      <trkpt lat="56.364005031064153" lon="-6.026786025613546">
        <ele>14.56</ele>
        <time>2023-08-30T09:26:34Z</time>
      </trkpt>
      <trkpt lat="56.363947028294206" lon="-6.027425983920693">
        <ele>16</ele>
        <time>2023-08-30T09:26:37Z</time>
      </trkpt>
      <trkpt lat="56.363904029130936" lon="-6.027641985565424">
        <ele>16.48</ele>
        <time>2023-08-30T09:26:38Z</time>
      </trkpt>
      <trkpt lat="56.363845020532608" lon="-6.02784801274538">
        <ele>16.960000000000001</ele>
        <time>2023-08-30T09:26:39Z</time>
      </trkpt>
      <trkpt lat="56.363452998921275" lon="-6.029517017304897">
        <ele>20.32</ele>
        <time>2023-08-30T09:26:46Z</time>
      </trkpt>
      <trkpt lat="56.363415028899908" lon="-6.029765959829092">
        <ele>21.289999999999999</ele>
        <time>2023-08-30T09:26:47Z</time>
      </trkpt>
      <trkpt lat="56.363053014501929" lon="-6.032139966264367">
        <ele>25.129999999999999</ele>
        <time>2023-08-30T09:26:56Z</time>
      </trkpt>
      <trkpt lat="56.362795019522309" lon="-6.033834032714367">
        <ele>23.690000000000001</ele>
        <time>2023-08-30T09:27:03Z</time>
      </trkpt>
      <trkpt lat="56.362759983167052" lon="-6.034084986895323">
        <ele>23.690000000000001</ele>
        <time>2023-08-30T09:27:04Z</time>
      </trkpt>
      <trkpt lat="56.362697035074234" lon="-6.034569041803479">
        <ele>23.210000000000001</ele>
        <time>2023-08-30T09:27:06Z</time>
      </trkpt>
      <trkpt lat="56.362660992890596" lon="-6.034837011247873">
        <ele>23.210000000000001</ele>
        <time>2023-08-30T09:27:07Z</time>
      </trkpt>
      <trkpt lat="56.362315993756056" lon="-6.037454009056091">
        <ele>20.809999999999999</ele>
        <time>2023-08-30T09:27:16Z</time>
      </trkpt>
      <trkpt lat="56.362074008211493" lon="-6.038625966757536">
        <ele>19.84</ele>
        <time>2023-08-30T09:27:21Z</time>
      </trkpt>
      <trkpt lat="56.361537985503674" lon="-6.040433021262288">
        <ele>20.809999999999999</ele>
        <time>2023-08-30T09:27:28Z</time>
      </trkpt>
      <trkpt lat="56.36118502356112" lon="-6.041626017540693">
        <ele>19.84</ele>
        <time>2023-08-30T09:27:33Z</time>
      </trkpt>
      <trkpt lat="56.361103970557451" lon="-6.041754009202123">
        <ele>19.84</ele>
        <time>2023-08-30T09:27:34Z</time>
      </trkpt>
      <trkpt lat="56.361017972230911" lon="-6.041864985600114">
        <ele>19.84</ele>
        <time>2023-08-30T09:27:35Z</time>
      </trkpt>
      <trkpt lat="56.360943038016558" lon="-6.041960958391428">
        <ele>19.84</ele>
        <time>2023-08-30T09:27:36Z</time>
      </trkpt>
      <trkpt lat="56.360882017761469" lon="-6.042038993909955">
        <ele>19.359999999999999</ele>
        <time>2023-08-30T09:27:37Z</time>
      </trkpt>
      <trkpt lat="56.360771963372827" lon="-6.0421799775213">
        <ele>18.399999999999999</ele>
        <time>2023-08-30T09:27:43Z</time>
      </trkpt>
      <trkpt lat="56.360554033890367" lon="-6.042461022734642">
        <ele>17.920000000000002</ele>
        <time>2023-08-30T09:27:48Z</time>
      </trkpt>
      <trkpt lat="56.360482033342123" lon="-6.042552972212434">
        <ele>17.440000000000001</ele>
        <time>2023-08-30T09:27:49Z</time>
      </trkpt>
      <trkpt lat="56.360057992860675" lon="-6.043282030150294">
        <ele>16.960000000000001</ele>
        <time>2023-08-30T09:27:54Z</time>
      </trkpt>
      <trkpt lat="56.359981968998909" lon="-6.043472969904542">
        <ele>16.960000000000001</ele>
        <time>2023-08-30T09:27:55Z</time>
      </trkpt>
      <trkpt lat="56.359926983714104" lon="-6.043691989034414">
        <ele>16.960000000000001</ele>
        <time>2023-08-30T09:27:56Z</time>
      </trkpt>
      <trkpt lat="56.359890019521117" lon="-6.043924000114203">
        <ele>16.960000000000001</ele>
        <time>2023-08-30T09:27:57Z</time>
      </trkpt>
      <trkpt lat="56.359851965680718" lon="-6.044156011193991">
        <ele>16.960000000000001</ele>
        <time>2023-08-30T09:27:58Z</time>
      </trkpt>
      <trkpt lat="56.359818018972874" lon="-6.044383998960257">
        <ele>16.960000000000001</ele>
        <time>2023-08-30T09:27:59Z</time>
      </trkpt>
      <trkpt lat="56.359646022319794" lon="-6.046792035922408">
        <ele>18.879999999999999</ele>
        <time>2023-08-30T09:28:08Z</time>
      </trkpt>
      <trkpt lat="56.359564969316125" lon="-6.047781016677618">
        <ele>19.359999999999999</ele>
        <time>2023-08-30T09:28:12Z</time>
      </trkpt>
      <trkpt lat="56.359539991244674" lon="-6.048040017485619">
        <ele>19.359999999999999</ele>
        <time>2023-08-30T09:28:13Z</time>
      </trkpt>
      <trkpt lat="56.35929599404335" lon="-6.050028037279844">
        <ele>14.08</ele>
        <time>2023-08-30T09:28:21Z</time>
      </trkpt>
      <trkpt lat="56.358554027974606" lon="-6.052737990394235">
        <ele>14.08</ele>
        <time>2023-08-30T09:28:32Z</time>
      </trkpt>
      <trkpt lat="56.35798498056829" lon="-6.055336967110634">
        <ele>14.56</ele>
        <time>2023-08-30T09:28:42Z</time>
      </trkpt>
      <trkpt lat="56.357227005064487" lon="-6.058533992618322">
        <ele>16.48</ele>
        <time>2023-08-30T09:28:54Z</time>
      </trkpt>
      <trkpt lat="56.35676197707653" lon="-6.061255009844899">
        <ele>22.25</ele>
        <time>2023-08-30T09:29:04Z</time>
      </trkpt>
      <trkpt lat="56.356735993176699" lon="-6.061502024531364">
        <ele>22.73</ele>
        <time>2023-08-30T09:29:05Z</time>
      </trkpt>
      <trkpt lat="56.356206005439162" lon="-6.06400796212256">
        <ele>20.32</ele>
        <time>2023-08-30T09:29:14Z</time>
      </trkpt>
      <trkpt lat="56.355305034667253" lon="-6.068047033622861">
        <ele>22.25</ele>
        <time>2023-08-30T09:29:28Z</time>
      </trkpt>
      <trkpt lat="56.354682007804513" lon="-6.07083703391254">
        <ele>25.609999999999999</ele>
        <time>2023-08-30T09:29:38Z</time>
      </trkpt>
      <trkpt lat="56.354071972891688" lon="-6.073198970407248">
        <ele>27.050000000000001</ele>
        <time>2023-08-30T09:29:48Z</time>
      </trkpt>
      <trkpt lat="56.353549025952816" lon="-6.074529010802507">
        <ele>22.25</ele>
        <time>2023-08-30T09:29:54Z</time>
      </trkpt>
      <trkpt lat="56.353455986827612" lon="-6.074659014120698">
        <ele>21.77</ele>
        <time>2023-08-30T09:29:55Z</time>
      </trkpt>
      <trkpt lat="56.353364959359169" lon="-6.074750041589141">
        <ele>21.289999999999999</ele>
        <time>2023-08-30T09:29:56Z</time>
      </trkpt>
      <trkpt lat="56.353282984346151" lon="-6.074832016602159">
        <ele>20.809999999999999</ele>
        <time>2023-08-30T09:29:57Z</time>
      </trkpt>
      <trkpt lat="56.353212995454669" lon="-6.074902005493641">
        <ele>20.32</ele>
        <time>2023-08-30T09:29:58Z</time>
      </trkpt>
      <trkpt lat="56.353168990463018" lon="-6.074946010485292">
        <ele>19.84</ele>
        <time>2023-08-30T09:29:59Z</time>
      </trkpt>
      <trkpt lat="56.35314904153347" lon="-6.075104009360075">
        <ele>19.359999999999999</ele>
        <time>2023-08-30T09:30:00Z</time>
      </trkpt>
      <trkpt lat="56.35312900878489" lon="-6.075257984921336">
        <ele>19.359999999999999</ele>
        <time>2023-08-30T09:30:01Z</time>
      </trkpt>
      <trkpt lat="56.353105958551168" lon="-6.075443979352713">
        <ele>19.359999999999999</ele>
        <time>2023-08-30T09:30:02Z</time>
      </trkpt>
      <trkpt lat="56.352888029068708" lon="-6.077227983623743">
        <ele>19.84</ele>
        <time>2023-08-30T09:30:09Z</time>
      </trkpt>
      <trkpt lat="56.352673033252358" lon="-6.079812962561846">
        <ele>24.170000000000002</ele>
        <time>2023-08-30T09:30:19Z</time>
      </trkpt>
      <trkpt lat="56.352571025490761" lon="-6.081038983538747">
        <ele>26.57</ele>
        <time>2023-08-30T09:30:24Z</time>
      </trkpt>
      <trkpt lat="56.352499024942517" lon="-6.081259008497">
        <ele>26.57</ele>
        <time>2023-08-30T09:30:25Z</time>
      </trkpt>
      <trkpt lat="56.351785976439714" lon="-6.083297990262508">
        <ele>24.649999999999999</ele>
        <time>2023-08-30T09:30:33Z</time>
      </trkpt>
      <trkpt lat="56.350934961810708" lon="-6.08536496758461">
        <ele>25.609999999999999</ele>
        <time>2023-08-30T09:30:42Z</time>
      </trkpt>
      <trkpt lat="56.350461971014738" lon="-6.086284965276718">
        <ele>28.02</ele>
        <time>2023-08-30T09:30:48Z</time>
      </trkpt>
      <trkpt lat="56.350358035415411" lon="-6.086446987465024">
        <ele>28.02</ele>
        <time>2023-08-30T09:30:49Z</time>
      </trkpt>
      <trkpt lat="56.350269019603729" lon="-6.086522005498409">
        <ele>28.02</ele>
        <time>2023-08-30T09:30:50Z</time>
      </trkpt>
      <trkpt lat="56.35014203377068" lon="-6.08656701631844">
        <ele>28.02</ele>
        <time>2023-08-30T09:30:51Z</time>
      </trkpt>
      <trkpt lat="56.349698966369033" lon="-6.086629964411259">
        <ele>24.649999999999999</ele>
        <time>2023-08-30T09:30:54Z</time>
      </trkpt>
      <trkpt lat="56.349549014121294" lon="-6.086692996323109">
        <ele>23.690000000000001</ele>
        <time>2023-08-30T09:30:55Z</time>
      </trkpt>
      <trkpt lat="56.349414987489581" lon="-6.086783017963171">
        <ele>22.73</ele>
        <time>2023-08-30T09:30:56Z</time>
      </trkpt>
      <trkpt lat="56.349295964464545" lon="-6.08693397603929">
        <ele>22.25</ele>
        <time>2023-08-30T09:30:57Z</time>
      </trkpt>
      <trkpt lat="56.349185993894935" lon="-6.087112007662654">
        <ele>21.289999999999999</ele>
        <time>2023-08-30T09:30:58Z</time>
      </trkpt>
      <trkpt lat="56.349073005840182" lon="-6.08729699626565">
        <ele>20.809999999999999</ele>
        <time>2023-08-30T09:30:59Z</time>
      </trkpt>
      <trkpt lat="56.348558021709323" lon="-6.088133007287979">
        <ele>18.879999999999999</ele>
        <time>2023-08-30T09:31:04Z</time>
      </trkpt>
      <trkpt lat="56.348446039482951" lon="-6.088239960372448">
        <ele>18.399999999999999</ele>
        <time>2023-08-30T09:31:05Z</time>
      </trkpt>
      <trkpt lat="56.348329028114676" lon="-6.088298968970776">
        <ele>18.399999999999999</ele>
        <time>2023-08-30T09:31:06Z</time>
      </trkpt>
      <trkpt lat="56.3471760135144" lon="-6.088515976443887">
        <ele>14.56</ele>
        <time>2023-08-30T09:31:14Z</time>
      </trkpt>
      <trkpt lat="56.347037963569164" lon="-6.088597029447556">
        <ele>14.56</ele>
        <time>2023-08-30T09:31:15Z</time>
      </trkpt>
      <trkpt lat="56.346917012706399" lon="-6.088746981695294">
        <ele>14.56</ele>
        <time>2023-08-30T09:31:16Z</time>
      </trkpt>
      <trkpt lat="56.346791032701731" lon="-6.088904980570078">
        <ele>15.039999999999999</ele>
        <time>2023-08-30T09:31:17Z</time>
      </trkpt>
      <trkpt lat="56.346791032701731" lon="-6.088904980570078">
        <ele>15.039999999999999</ele>
        <time>2023-08-30T09:31:18Z</time>
      </trkpt>
      <trkpt lat="56.346542006358504" lon="-6.089308988302946">
        <ele>15.039999999999999</ele>
        <time>2023-08-30T09:31:19Z</time>
      </trkpt>
      <trkpt lat="56.346415020525455" lon="-6.089529013261199">
        <ele>14.56</ele>
        <time>2023-08-30T09:31:20Z</time>
      </trkpt>
      <trkpt lat="56.3462970033288" lon="-6.089775022119284">
        <ele>14.56</ele>
        <time>2023-08-30T09:31:21Z</time>
      </trkpt>
      <trkpt lat="56.346213016659021" lon="-6.090051038190723">
        <ele>14.08</ele>
        <time>2023-08-30T09:31:22Z</time>
      </trkpt>
      <trkpt lat="56.346128024160862" lon="-6.090328982099891">
        <ele>14.08</ele>
        <time>2023-08-30T09:31:23Z</time>
      </trkpt>
      <trkpt lat="56.345672970637679" lon="-6.092329993844032">
        <ele>11.67</ele>
        <time>2023-08-30T09:31:30Z</time>
      </trkpt>
      <trkpt lat="56.345182964578271" lon="-6.095137009397149">
        <ele>11.19</ele>
        <time>2023-08-30T09:31:40Z</time>
      </trkpt>
      <trkpt lat="56.344993030652404" lon="-6.097799018025398">
        <ele>10.710000000000001</ele>
        <time>2023-08-30T09:31:49Z</time>
      </trkpt>
      <trkpt lat="56.344926981255412" lon="-6.098345015197992">
        <ele>10.710000000000001</ele>
        <time>2023-08-30T09:31:51Z</time>
      </trkpt>
      <trkpt lat="56.344869984313846" lon="-6.098600998520851">
        <ele>10.710000000000001</ele>
        <time>2023-08-30T09:31:52Z</time>
      </trkpt>
      <trkpt lat="56.344781974330544" lon="-6.098839966580272">
        <ele>10.710000000000001</ele>
        <time>2023-08-30T09:31:53Z</time>
      </trkpt>
      <trkpt lat="56.344675021246076" lon="-6.099046999588609">
        <ele>10.710000000000001</ele>
        <time>2023-08-30T09:31:54Z</time>
      </trkpt>
      <trkpt lat="56.344565972685814" lon="-6.099258977919817">
        <ele>10.710000000000001</ele>
        <time>2023-08-30T09:31:55Z</time>
      </trkpt>
      <trkpt lat="56.344445021823049" lon="-6.099456958472729">
        <ele>10.710000000000001</ele>
        <time>2023-08-30T09:31:56Z</time>
      </trkpt>
      <trkpt lat="56.34431904181838" lon="-6.099645970389247">
        <ele>10.710000000000001</ele>
        <time>2023-08-30T09:31:57Z</time>
      </trkpt>
      <trkpt lat="56.34238600730896" lon="-6.10259204171598">
        <ele>13.119999999999999</ele>
        <time>2023-08-30T09:32:12Z</time>
      </trkpt>
      <trkpt lat="56.342282993718982" lon="-6.102803014218807">
        <ele>13.6</ele>
        <time>2023-08-30T09:32:13Z</time>
      </trkpt>
      <trkpt lat="56.342184003442526" lon="-6.103007029742003">
        <ele>13.6</ele>
        <time>2023-08-30T09:32:14Z</time>
      </trkpt>
      <trkpt lat="56.342115020379424" lon="-6.10323803499341">
        <ele>14.08</ele>
        <time>2023-08-30T09:32:15Z</time>
      </trkpt>
      <trkpt lat="56.342071015387774" lon="-6.103487983345985">
        <ele>14.08</ele>
        <time>2023-08-30T09:32:16Z</time>
      </trkpt>
      <trkpt lat="56.342027010396123" lon="-6.103734998032451">
        <ele>14.56</ele>
        <time>2023-08-30T09:32:17Z</time>
      </trkpt>
      <trkpt lat="56.341968001797795" lon="-6.104063987731934">
        <ele>14.56</ele>
        <time>2023-08-30T09:32:18Z</time>
      </trkpt>
      <trkpt lat="56.341993985697627" lon="-6.104529015719891">
        <ele>15.52</ele>
        <time>2023-08-30T09:32:20Z</time>
      </trkpt>
      <trkpt lat="56.342035979032516" lon="-6.104795979335904">
        <ele>16</ele>
        <time>2023-08-30T09:32:21Z</time>
      </trkpt>
      <trkpt lat="56.342075960710645" lon="-6.105051040649414">
        <ele>16.960000000000001</ele>
        <time>2023-08-30T09:32:22Z</time>
      </trkpt>
      <trkpt lat="56.342173023149371" lon="-6.10532202757895">
        <ele>17.920000000000002</ele>
        <time>2023-08-30T09:32:23Z</time>
      </trkpt>
      <trkpt lat="56.342266984283924" lon="-6.105581028386951">
        <ele>18.879999999999999</ele>
        <time>2023-08-30T09:32:24Z</time>
      </trkpt>
      <trkpt lat="56.34236304089427" lon="-6.105842962861061">
        <ele>19.359999999999999</ele>
        <time>2023-08-30T09:32:25Z</time>
      </trkpt>
      <trkpt lat="56.343392003327608" lon="-6.108250999823213">
        <ele>23.690000000000001</ele>
        <time>2023-08-30T09:32:35Z</time>
      </trkpt>
      <trkpt lat="56.343638012185693" lon="-6.108905039727688">
        <ele>24.170000000000002</ele>
        <time>2023-08-30T09:32:38Z</time>
      </trkpt>
      <trkpt lat="56.343701966106892" lon="-6.10914601944387">
        <ele>24.170000000000002</ele>
        <time>2023-08-30T09:32:39Z</time>
      </trkpt>
      <trkpt lat="56.343758963048458" lon="-6.109394039958715">
        <ele>24.170000000000002</ele>
        <time>2023-08-30T09:32:40Z</time>
      </trkpt>
      <trkpt lat="56.343791987746954" lon="-6.109667960554361">
        <ele>24.170000000000002</ele>
        <time>2023-08-30T09:32:41Z</time>
      </trkpt>
      <trkpt lat="56.343791987746954" lon="-6.10994297079742">
        <ele>24.170000000000002</ele>
        <time>2023-08-30T09:32:42Z</time>
      </trkpt>
      <trkpt lat="56.343791987746954" lon="-6.110224016010761">
        <ele>23.690000000000001</ele>
        <time>2023-08-30T09:32:43Z</time>
      </trkpt>
      <trkpt lat="56.343780001625419" lon="-6.110513024032116">
        <ele>23.210000000000001</ele>
        <time>2023-08-30T09:32:44Z</time>
      </trkpt>
      <trkpt lat="56.343732979148626" lon="-6.110798008739948">
        <ele>22.25</ele>
        <time>2023-08-30T09:32:45Z</time>
      </trkpt>
      <trkpt lat="56.343685034662485" lon="-6.111089028418064">
        <ele>21.77</ele>
        <time>2023-08-30T09:32:46Z</time>
      </trkpt>
      <trkpt lat="56.343412036076188" lon="-6.113478038460016">
        <ele>16.48</ele>
        <time>2023-08-30T09:32:54Z</time>
      </trkpt>
      <trkpt lat="56.343398038297892" lon="-6.113740978762507">
        <ele>16.960000000000001</ele>
        <time>2023-08-30T09:32:56Z</time>
      </trkpt>
      <trkpt lat="56.343394014984369" lon="-6.113823959603906">
        <ele>17.920000000000002</ele>
        <time>2023-08-30T09:32:57Z</time>
      </trkpt>
      <trkpt lat="56.343389991670847" lon="-6.113901995122433">
        <ele>18.879999999999999</ele>
        <time>2023-08-30T09:32:58Z</time>
      </trkpt>
      <trkpt lat="56.343451011925936" lon="-6.11482098698616">
        <ele>22.73</ele>
        <time>2023-08-30T09:33:05Z</time>
      </trkpt>
      <trkpt lat="56.343604987487197" lon="-6.116941021755338">
        <ele>20.809999999999999</ele>
        <time>2023-08-30T09:33:12Z</time>
      </trkpt>
      <trkpt lat="56.343657961115241" lon="-6.120092030614615">
        <ele>18.399999999999999</ele>
        <time>2023-08-30T09:33:21Z</time>
      </trkpt>
      <trkpt lat="56.343614039942622" lon="-6.121191987767816">
        <ele>21.289999999999999</ele>
        <time>2023-08-30T09:33:25Z</time>
      </trkpt>
      <trkpt lat="56.343557965010405" lon="-6.121454006060958">
        <ele>22.25</ele>
        <time>2023-08-30T09:33:26Z</time>
      </trkpt>
      <trkpt lat="56.343501973897219" lon="-6.121719041839242">
        <ele>23.690000000000001</ele>
        <time>2023-08-30T09:33:27Z</time>
      </trkpt>
      <trkpt lat="56.34339896030724" lon="-6.121959015727043">
        <ele>24.649999999999999</ele>
        <time>2023-08-30T09:33:28Z</time>
      </trkpt>
      <trkpt lat="56.343283960595727" lon="-6.122196977958083">
        <ele>26.09</ele>
        <time>2023-08-30T09:33:29Z</time>
      </trkpt>
      <trkpt lat="56.343157980591059" lon="-6.122438963502646">
        <ele>27.530000000000001</ele>
        <time>2023-08-30T09:33:30Z</time>
      </trkpt>
      <trkpt lat="56.343012973666191" lon="-6.122655970975757">
        <ele>28.98</ele>
        <time>2023-08-30T09:33:31Z</time>
      </trkpt>
      <trkpt lat="56.341670025140047" lon="-6.124661006033421">
        <ele>40.030000000000001</ele>
        <time>2023-08-30T09:33:41Z</time>
      </trkpt>
      <trkpt lat="56.34036798030138" lon="-6.127050016075373">
        <ele>36.670000000000002</ele>
        <time>2023-08-30T09:33:52Z</time>
      </trkpt>
      <trkpt lat="56.339858025312424" lon="-6.128251980990171">
        <ele>33.780000000000001</ele>
        <time>2023-08-30T09:33:57Z</time>
      </trkpt>
      <trkpt lat="56.339814020320773" lon="-6.128520034253597">
        <ele>33.780000000000001</ele>
        <time>2023-08-30T09:33:58Z</time>
      </trkpt>
      <trkpt lat="56.339771021157503" lon="-6.128791021183133">
        <ele>33.780000000000001</ele>
        <time>2023-08-30T09:33:59Z</time>
      </trkpt>
      <trkpt lat="56.339758029207587" lon="-6.129079023376107">
        <ele>33.780000000000001</ele>
        <time>2023-08-30T09:34:00Z</time>
      </trkpt>
      <trkpt lat="56.339758029207587" lon="-6.129380017518997">
        <ele>34.259999999999998</ele>
        <time>2023-08-30T09:34:01Z</time>
      </trkpt>
      <trkpt lat="56.339760040864348" lon="-6.12968503497541">
        <ele>34.259999999999998</ele>
        <time>2023-08-30T09:34:02Z</time>
      </trkpt>
      <trkpt lat="56.339818965643644" lon="-6.132015958428383">
        <ele>29.460000000000001</ele>
        <time>2023-08-30T09:34:11Z</time>
      </trkpt>
      <trkpt lat="56.339823994785547" lon="-6.132237995043397">
        <ele>28.5</ele>
        <time>2023-08-30T09:34:12Z</time>
      </trkpt>
      <trkpt lat="56.339874034747481" lon="-6.134253004565835">
        <ele>21.289999999999999</ele>
        <time>2023-08-30T09:34:19Z</time>
      </trkpt>
      <trkpt lat="56.339899012818933" lon="-6.13522999919951">
        <ele>18.399999999999999</ele>
        <time>2023-08-30T09:34:22Z</time>
      </trkpt>
      <trkpt lat="56.339906975626945" lon="-6.135542979463935">
        <ele>18.399999999999999</ele>
        <time>2023-08-30T09:34:23Z</time>
      </trkpt>
      <trkpt lat="56.339874034747481" lon="-6.13585595972836">
        <ele>17.920000000000002</ele>
        <time>2023-08-30T09:34:24Z</time>
      </trkpt>
      <trkpt lat="56.339830029755831" lon="-6.136170029640198">
        <ele>17.920000000000002</ele>
        <time>2023-08-30T09:34:25Z</time>
      </trkpt>
      <trkpt lat="56.339773032814264" lon="-6.136474963277578">
        <ele>17.920000000000002</ele>
        <time>2023-08-30T09:34:26Z</time>
      </trkpt>
      <trkpt lat="56.339689968153834" lon="-6.136759025976062">
        <ele>18.399999999999999</ele>
        <time>2023-08-30T09:34:27Z</time>
      </trkpt>
      <trkpt lat="56.339606987312436" lon="-6.137047028169036">
        <ele>18.879999999999999</ele>
        <time>2023-08-30T09:34:28Z</time>
      </trkpt>
      <trkpt lat="56.338826967403293" lon="-6.139103025197983">
        <ele>25.609999999999999</ele>
        <time>2023-08-30T09:34:36Z</time>
      </trkpt>
      <trkpt lat="56.338709034025669" lon="-6.139293964952231">
        <ele>26.57</ele>
        <time>2023-08-30T09:34:37Z</time>
      </trkpt>
      <trkpt lat="56.338556986302137" lon="-6.13937602378428">
        <ele>27.050000000000001</ele>
        <time>2023-08-30T09:34:38Z</time>
      </trkpt>
      <trkpt lat="56.338399993255734" lon="-6.139456992968917">
        <ele>28.02</ele>
        <time>2023-08-30T09:34:39Z</time>
      </trkpt>
      <trkpt lat="56.338234031572938" lon="-6.139543997123838">
        <ele>28.5</ele>
        <time>2023-08-30T09:34:40Z</time>
      </trkpt>
      <trkpt lat="56.338062034919858" lon="-6.139554977416992">
        <ele>28.98</ele>
        <time>2023-08-30T09:34:41Z</time>
      </trkpt>
      <trkpt lat="56.337882997468114" lon="-6.139554977416992">
        <ele>28.98</ele>
        <time>2023-08-30T09:34:42Z</time>
      </trkpt>
      <trkpt lat="56.337161986157298" lon="-6.139619015157223">
        <ele>28.02</ele>
        <time>2023-08-30T09:34:46Z</time>
      </trkpt>
      <trkpt lat="56.337021002545953" lon="-6.13970099017024">
        <ele>27.530000000000001</ele>
        <time>2023-08-30T09:34:47Z</time>
      </trkpt>
      <trkpt lat="56.336877001449466" lon="-6.139804003760219">
        <ele>27.530000000000001</ele>
        <time>2023-08-30T09:34:48Z</time>
      </trkpt>
      <trkpt lat="56.33675797842443" lon="-6.13995898514986">
        <ele>28.02</ele>
        <time>2023-08-30T09:34:49Z</time>
      </trkpt>
      <trkpt lat="56.336638033390045" lon="-6.140113966539502">
        <ele>28.5</ele>
        <time>2023-08-30T09:34:50Z</time>
      </trkpt>
      <trkpt lat="56.336522027850151" lon="-6.140288980677724">
        <ele>28.98</ele>
        <time>2023-08-30T09:34:51Z</time>
      </trkpt>
      <trkpt lat="56.336438041180372" lon="-6.140513028949499">
        <ele>29.460000000000001</ele>
        <time>2023-08-30T09:34:52Z</time>
      </trkpt>
      <trkpt lat="56.336351037025452" lon="-6.140745040029287">
        <ele>30.420000000000002</ele>
        <time>2023-08-30T09:34:53Z</time>
      </trkpt>
      <trkpt lat="56.336267972365022" lon="-6.140983002260327">
        <ele>30.899999999999999</ele>
        <time>2023-08-30T09:34:54Z</time>
      </trkpt>
      <trkpt lat="56.33619898930192" lon="-6.14124602638185">
        <ele>31.859999999999999</ele>
        <time>2023-08-30T09:34:55Z</time>
      </trkpt>
      <trkpt lat="56.33587502874434" lon="-6.142831966280937">
        <ele>36.189999999999998</ele>
        <time>2023-08-30T09:35:01Z</time>
      </trkpt>
      <trkpt lat="56.335860025137663" lon="-6.14309499040246">
        <ele>36.670000000000002</ele>
        <time>2023-08-30T09:35:02Z</time>
      </trkpt>
      <trkpt lat="56.335865976288915" lon="-6.143348962068558">
        <ele>37.149999999999999</ele>
        <time>2023-08-30T09:35:03Z</time>
      </trkpt>
      <trkpt lat="56.335892966017127" lon="-6.143598994240165">
        <ele>37.630000000000003</ele>
        <time>2023-08-30T09:35:04Z</time>
      </trkpt>
      <trkpt lat="56.335919033735991" lon="-6.143840979784727">
        <ele>37.630000000000003</ele>
        <time>2023-08-30T09:35:05Z</time>
      </trkpt>
      <trkpt lat="56.335955997928977" lon="-6.144073996692896">
        <ele>37.630000000000003</ele>
        <time>2023-08-30T09:35:06Z</time>
      </trkpt>
      <trkpt lat="56.336024980992079" lon="-6.144287986680865">
        <ele>38.109999999999999</ele>
        <time>2023-08-30T09:35:07Z</time>
      </trkpt>
      <trkpt lat="56.336092036217451" lon="-6.144498037174344">
        <ele>38.109999999999999</ele>
        <time>2023-08-30T09:35:08Z</time>
      </trkpt>
      <trkpt lat="56.336626969277859" lon="-6.146301990374923">
        <ele>40.990000000000002</ele>
        <time>2023-08-30T09:35:16Z</time>
      </trkpt>
      <trkpt lat="56.336655970662832" lon="-6.146558979526162">
        <ele>40.990000000000002</ele>
        <time>2023-08-30T09:35:17Z</time>
      </trkpt>
      <trkpt lat="56.336684972047806" lon="-6.146809011697769">
        <ele>40.990000000000002</ele>
        <time>2023-08-30T09:35:18Z</time>
      </trkpt>
      <trkpt lat="56.336673991754651" lon="-6.147061977535486">
        <ele>40.990000000000002</ele>
        <time>2023-08-30T09:35:19Z</time>
      </trkpt>
      <trkpt lat="56.336654964834452" lon="-6.147319972515106">
        <ele>40.509999999999998</ele>
        <time>2023-08-30T09:35:20Z</time>
      </trkpt>
      <trkpt lat="56.336634010076523" lon="-6.147588025778532">
        <ele>40.030000000000001</ele>
        <time>2023-08-30T09:35:21Z</time>
      </trkpt>
      <trkpt lat="56.336242994293571" lon="-6.150610959157348">
        <ele>39.07</ele>
        <time>2023-08-30T09:35:31Z</time>
      </trkpt>
      <trkpt lat="56.336249029263854" lon="-6.150926034897566">
        <ele>39.07</ele>
        <time>2023-08-30T09:35:32Z</time>
      </trkpt>
      <trkpt lat="56.336254980415106" lon="-6.15121403709054">
        <ele>39.549999999999997</ele>
        <time>2023-08-30T09:35:33Z</time>
      </trkpt>
      <trkpt lat="56.336331004276872" lon="-6.152230007573962">
        <ele>40.509999999999998</ele>
        <time>2023-08-30T09:35:38Z</time>
      </trkpt>
      <trkpt lat="56.336455978453159" lon="-6.15351696498692">
        <ele>40.509999999999998</ele>
        <time>2023-08-30T09:35:43Z</time>
      </trkpt>
      <trkpt lat="56.336548011749983" lon="-6.155257970094681">
        <ele>38.590000000000003</ele>
        <time>2023-08-30T09:35:49Z</time>
      </trkpt>
      <trkpt lat="56.336524039506912" lon="-6.155540021136403">
        <ele>37.630000000000003</ele>
        <time>2023-08-30T09:35:50Z</time>
      </trkpt>
      <trkpt lat="56.336498977616429" lon="-6.155827017500997">
        <ele>37.149999999999999</ele>
        <time>2023-08-30T09:35:51Z</time>
      </trkpt>
      <trkpt lat="56.336334021762013" lon="-6.158144026994705">
        <ele>34.259999999999998</ele>
        <time>2023-08-30T09:35:59Z</time>
      </trkpt>
      <trkpt lat="56.336338967084885" lon="-6.160707967355847">
        <ele>35.710000000000001</ele>
        <time>2023-08-30T09:36:08Z</time>
      </trkpt>
      <trkpt lat="56.336066974326968" lon="-6.163988979533315">
        <ele>39.549999999999997</ele>
        <time>2023-08-30T09:36:20Z</time>
      </trkpt>
      <trkpt lat="56.336023975163698" lon="-6.164210010319948">
        <ele>39.07</ele>
        <time>2023-08-30T09:36:21Z</time>
      </trkpt>
      <trkpt lat="56.335931019857526" lon="-6.164431963115931">
        <ele>39.07</ele>
        <time>2023-08-30T09:36:22Z</time>
      </trkpt>
      <trkpt lat="56.335931019857526" lon="-6.164431963115931">
        <ele>38.590000000000003</ele>
        <time>2023-08-30T09:36:23Z</time>
      </trkpt>
      <trkpt lat="56.335747037082911" lon="-6.164873018860817">
        <ele>38.109999999999999</ele>
        <time>2023-08-30T09:36:24Z</time>
      </trkpt>
      <trkpt lat="56.334738023579121" lon="-6.167341992259026">
        <ele>32.340000000000003</ele>
        <time>2023-08-30T09:36:34Z</time>
      </trkpt>
      <trkpt lat="56.334652025252581" lon="-6.167636029422283">
        <ele>31.379999999999999</ele>
        <time>2023-08-30T09:36:35Z</time>
      </trkpt>
      <trkpt lat="56.334453960880637" lon="-6.16840397939086">
        <ele>28.98</ele>
        <time>2023-08-30T09:36:39Z</time>
      </trkpt>
      <trkpt lat="56.334429988637567" lon="-6.16857597604394">
        <ele>28.5</ele>
        <time>2023-08-30T09:36:41Z</time>
      </trkpt>
      <trkpt lat="56.33441599085927" lon="-6.168669015169144">
        <ele>28.02</ele>
        <time>2023-08-30T09:36:42Z</time>
      </trkpt>
      <trkpt lat="56.334378020837903" lon="-6.168938996270299">
        <ele>27.050000000000001</ele>
        <time>2023-08-30T09:36:44Z</time>
      </trkpt>
      <trkpt lat="56.334123965352774" lon="-6.170483026653528">
        <ele>24.649999999999999</ele>
        <time>2023-08-30T09:36:51Z</time>
      </trkpt>
      <trkpt lat="56.33353496901691" lon="-6.173080997541547">
        <ele>22.25</ele>
        <time>2023-08-30T09:37:01Z</time>
      </trkpt>
      <trkpt lat="56.332903979346156" lon="-6.175850965082645">
        <ele>22.25</ele>
        <time>2023-08-30T09:37:11Z</time>
      </trkpt>
      <trkpt lat="56.332126976922154" lon="-6.179407993331552">
        <ele>30.420000000000002</ele>
        <time>2023-08-30T09:37:23Z</time>
      </trkpt>
      <trkpt lat="56.331360032781959" lon="-6.183199966326356">
        <ele>41.469999999999999</ele>
        <time>2023-08-30T09:37:36Z</time>
      </trkpt>
      <trkpt lat="56.33078302256763" lon="-6.187004009261727">
        <ele>41.469999999999999</ele>
        <time>2023-08-30T09:37:48Z</time>
      </trkpt>
      <trkpt lat="56.330734994262457" lon="-6.189035028219223">
        <ele>42.439999999999998</ele>
        <time>2023-08-30T09:37:55Z</time>
      </trkpt>
      <trkpt lat="56.330853011459112" lon="-6.190716018900275">
        <ele>44.359999999999999</ele>
        <time>2023-08-30T09:38:01Z</time>
      </trkpt>
      <trkpt lat="56.330642038956285" lon="-6.192685011774302">
        <ele>48.68</ele>
        <time>2023-08-30T09:38:08Z</time>
      </trkpt>
      <trkpt lat="56.33009796962142" lon="-6.195508036762476">
        <ele>53.969999999999999</ele>
        <time>2023-08-30T09:38:18Z</time>
      </trkpt>
      <trkpt lat="56.329830000177026" lon="-6.19646399281919">
        <ele>53.009999999999998</ele>
        <time>2023-08-30T09:38:24Z</time>
      </trkpt>
      <trkpt lat="56.329649034887552" lon="-6.196910999715328">
        <ele>52.049999999999997</ele>
        <time>2023-08-30T09:38:31Z</time>
      </trkpt>
      <trkpt lat="56.329595977440476" lon="-6.197008984163404">
        <ele>51.57</ele>
        <time>2023-08-30T09:38:32Z</time>
      </trkpt>
      <trkpt lat="56.329534035176039" lon="-6.197124989703298">
        <ele>51.57</ele>
        <time>2023-08-30T09:38:33Z</time>
      </trkpt>
      <trkpt lat="56.328861974179745" lon="-6.198381017893553">
        <ele>47.240000000000002</ele>
        <time>2023-08-30T09:38:40Z</time>
      </trkpt>
      <trkpt lat="56.327764028683305" lon="-6.2004370149225">
        <ele>42.920000000000002</ele>
        <time>2023-08-30T09:38:49Z</time>
      </trkpt>
      <trkpt lat="56.32676700130105" lon="-6.202582027763128">
        <ele>44.840000000000003</ele>
        <time>2023-08-30T09:38:58Z</time>
      </trkpt>
      <trkpt lat="56.325360015034676" lon="-6.205149991437793">
        <ele>37.149999999999999</ele>
        <time>2023-08-30T09:39:09Z</time>
      </trkpt>
      <trkpt lat="56.324476981535554" lon="-6.206743977963924">
        <ele>34.259999999999998</ele>
        <time>2023-08-30T09:39:17Z</time>
      </trkpt>
      <trkpt lat="56.324051013216376" lon="-6.207563979551196">
        <ele>36.670000000000002</ele>
        <time>2023-08-30T09:39:24Z</time>
      </trkpt>
      <trkpt lat="56.323935007676482" lon="-6.2078280095011">
        <ele>38.109999999999999</ele>
        <time>2023-08-30T09:39:27Z</time>
      </trkpt>
      <trkpt lat="56.323554972186685" lon="-6.208696039393544">
        <ele>38.590000000000003</ele>
        <time>2023-08-30T09:39:33Z</time>
      </trkpt>
      <trkpt lat="56.323019033297896" lon="-6.209922982379794">
        <ele>37.630000000000003</ele>
        <time>2023-08-30T09:39:40Z</time>
      </trkpt>
      <trkpt lat="56.322404975071549" lon="-6.212000017985702">
        <ele>42.439999999999998</ele>
        <time>2023-08-30T09:39:49Z</time>
      </trkpt>
      <trkpt lat="56.321986969560385" lon="-6.213690983131528">
        <ele>43.399999999999999</ele>
        <time>2023-08-30T09:39:56Z</time>
      </trkpt>
      <trkpt lat="56.321852020919323" lon="-6.214239997789264">
        <ele>42.920000000000002</ele>
        <time>2023-08-30T09:40:02Z</time>
      </trkpt>
      <trkpt lat="56.321385987102985" lon="-6.2156299687922">
        <ele>38.590000000000003</ele>
        <time>2023-08-30T09:40:08Z</time>
      </trkpt>
      <trkpt lat="56.320417961105704" lon="-6.217152960598469">
        <ele>33.780000000000001</ele>
        <time>2023-08-30T09:40:15Z</time>
      </trkpt>
      <trkpt lat="56.319237034767866" lon="-6.218734961003065">
        <ele>37.630000000000003</ele>
        <time>2023-08-30T09:40:25Z</time>
      </trkpt>
      <trkpt lat="56.317993998527527" lon="-6.220351997762919">
        <ele>40.509999999999998</ele>
        <time>2023-08-30T09:40:37Z</time>
      </trkpt>
      <trkpt lat="56.316694971174002" lon="-6.222214959561825">
        <ele>33.299999999999997</ele>
        <time>2023-08-30T09:40:48Z</time>
      </trkpt>
      <trkpt lat="56.315918974578381" lon="-6.223926963284612">
        <ele>33.780000000000001</ele>
        <time>2023-08-30T09:40:55Z</time>
      </trkpt>
      <trkpt lat="56.315835993736982" lon="-6.224185964092612">
        <ele>33.780000000000001</ele>
        <time>2023-08-30T09:40:56Z</time>
      </trkpt>
      <trkpt lat="56.315744966268539" lon="-6.224478995427489">
        <ele>33.780000000000001</ele>
        <time>2023-08-30T09:40:57Z</time>
      </trkpt>
      <trkpt lat="56.315697021782398" lon="-6.224793987348676">
        <ele>33.299999999999997</ele>
        <time>2023-08-30T09:40:58Z</time>
      </trkpt>
      <trkpt lat="56.315649999305606" lon="-6.225108979269862">
        <ele>32.82</ele>
        <time>2023-08-30T09:40:59Z</time>
      </trkpt>
      <trkpt lat="56.315622003749013" lon="-6.225435035303235">
        <ele>32.340000000000003</ele>
        <time>2023-08-30T09:41:00Z</time>
      </trkpt>
      <trkpt lat="56.315631978213787" lon="-6.225757990032435">
        <ele>31.379999999999999</ele>
        <time>2023-08-30T09:41:01Z</time>
      </trkpt>
      <trkpt lat="56.315642036497593" lon="-6.226083962246776">
        <ele>30.899999999999999</ele>
        <time>2023-08-30T09:41:02Z</time>
      </trkpt>
      <trkpt lat="56.315652010962367" lon="-6.22641202993691">
        <ele>29.940000000000001</ele>
        <time>2023-08-30T09:41:03Z</time>
      </trkpt>
      <trkpt lat="56.315668020397425" lon="-6.226733978837729">
        <ele>28.98</ele>
        <time>2023-08-30T09:41:04Z</time>
      </trkpt>
      <trkpt lat="56.315719988197088" lon="-6.227048970758915">
        <ele>28.02</ele>
        <time>2023-08-30T09:41:05Z</time>
      </trkpt>
      <trkpt lat="56.315772961825132" lon="-6.227365974336863">
        <ele>26.57</ele>
        <time>2023-08-30T09:41:06Z</time>
      </trkpt>
      <trkpt lat="56.315826019272208" lon="-6.227685995399952">
        <ele>25.609999999999999</ele>
        <time>2023-08-30T09:41:07Z</time>
      </trkpt>
      <trkpt lat="56.315879998728633" lon="-6.228008028119803">
        <ele>24.649999999999999</ele>
        <time>2023-08-30T09:41:08Z</time>
      </trkpt>
      <trkpt lat="56.316450973972678" lon="-6.230098977684975">
        <ele>15.52</ele>
        <time>2023-08-30T09:41:16Z</time>
      </trkpt>
      <trkpt lat="56.317023960873485" lon="-6.231681983917952">
        <ele>10.710000000000001</ele>
        <time>2023-08-30T09:41:25Z</time>
      </trkpt>
      <trkpt lat="56.317064026370645" lon="-6.231875019147992">
        <ele>10.710000000000001</ele>
        <time>2023-08-30T09:41:26Z</time>
      </trkpt>
      <trkpt lat="56.3171630166471" lon="-6.233530025929213">
        <ele>9.75</ele>
        <time>2023-08-30T09:41:34Z</time>
      </trkpt>
      <trkpt lat="56.317136026918888" lon="-6.233724988996983">
        <ele>10.23</ele>
        <time>2023-08-30T09:41:35Z</time>
      </trkpt>
      <trkpt lat="56.317050028592348" lon="-6.233887011185288">
        <ele>10.23</ele>
        <time>2023-08-30T09:41:36Z</time>
      </trkpt>
      <trkpt lat="56.316983979195356" lon="-6.233931016176939">
        <ele>10.710000000000001</ele>
        <time>2023-08-30T09:41:37Z</time>
      </trkpt>
      <trkpt lat="56.31692698225379" lon="-6.233968986198306">
        <ele>11.19</ele>
        <time>2023-08-30T09:41:38Z</time>
      </trkpt>
      <trkpt lat="56.316870991140604" lon="-6.233962029218674">
        <ele>11.67</ele>
        <time>2023-08-30T09:41:39Z</time>
      </trkpt>
      <trkpt lat="56.316812988370657" lon="-6.23395498842001">
        <ele>11.67</ele>
        <time>2023-08-30T09:41:40Z</time>
      </trkpt>
      <trkpt lat="56.316750962287188" lon="-6.233947025611997">
        <ele>12.15</ele>
        <time>2023-08-30T09:41:41Z</time>
      </trkpt>
      <trkpt lat="56.316684996709228" lon="-6.233938978984952">
        <ele>12.15</ele>
        <time>2023-08-30T09:41:42Z</time>
      </trkpt>
      <trkpt lat="56.316617019474506" lon="-6.233930010348558">
        <ele>12.630000000000001</ele>
        <time>2023-08-30T09:41:43Z</time>
      </trkpt>
      <trkpt lat="56.316553987562656" lon="-6.233934033662081">
        <ele>12.630000000000001</ele>
        <time>2023-08-30T09:41:44Z</time>
      </trkpt>
      <trkpt lat="56.316477041691542" lon="-6.23395599424839">
        <ele>12.630000000000001</ele>
        <time>2023-08-30T09:41:45Z</time>
      </trkpt>
      <trkpt lat="56.316405963152647" lon="-6.234021037817001">
        <ele>12.630000000000001</ele>
        <time>2023-08-30T09:41:46Z</time>
      </trkpt>
      <trkpt lat="56.316349972039461" lon="-6.23412698507309">
        <ele>12.630000000000001</ele>
        <time>2023-08-30T09:41:47Z</time>
      </trkpt>
      <trkpt lat="56.316296998411417" lon="-6.234226981177926">
        <ele>13.119999999999999</ele>
        <time>2023-08-30T09:41:48Z</time>
      </trkpt>
      <trkpt lat="56.316240001469851" lon="-6.234334018081427">
        <ele>13.119999999999999</ele>
        <time>2023-08-30T09:41:49Z</time>
      </trkpt>
      <trkpt lat="56.316205970942974" lon="-6.234451029449701">
        <ele>13.119999999999999</ele>
        <time>2023-08-30T09:41:50Z</time>
      </trkpt>
      <trkpt lat="56.316165989264846" lon="-6.234588995575905">
        <ele>13.6</ele>
        <time>2023-08-30T09:41:51Z</time>
      </trkpt>
      <trkpt lat="56.316122990101576" lon="-6.234734002500773">
        <ele>13.119999999999999</ele>
        <time>2023-08-30T09:41:52Z</time>
      </trkpt>
      <trkpt lat="56.316078985109925" lon="-6.234884960576892">
        <ele>12.630000000000001</ele>
        <time>2023-08-30T09:41:53Z</time>
      </trkpt>
      <trkpt lat="56.315682018175721" lon="-6.236435025930405">
        <ele>12.15</ele>
        <time>2023-08-30T09:42:02Z</time>
      </trkpt>
      <trkpt lat="56.31565997377038" lon="-6.236600987613201">
        <ele>12.15</ele>
        <time>2023-08-30T09:42:03Z</time>
      </trkpt>
      <trkpt lat="56.315640024840832" lon="-6.236757980659604">
        <ele>12.630000000000001</ele>
        <time>2023-08-30T09:42:04Z</time>
      </trkpt>
      <trkpt lat="56.315662991255522" lon="-6.23694003559649">
        <ele>12.630000000000001</ele>
        <time>2023-08-30T09:42:05Z</time>
      </trkpt>
      <trkpt lat="56.315686041489244" lon="-6.237115971744061">
        <ele>12.630000000000001</ele>
        <time>2023-08-30T09:42:06Z</time>
      </trkpt>
      <trkpt lat="56.315709007903934" lon="-6.237298026680946">
        <ele>13.119999999999999</ele>
        <time>2023-08-30T09:42:07Z</time>
      </trkpt>
      <trkpt lat="56.315757958218455" lon="-6.237485026940703">
        <ele>13.119999999999999</ele>
        <time>2023-08-30T09:42:08Z</time>
      </trkpt>
      <trkpt lat="56.315840017050505" lon="-6.237642019987106">
        <ele>13.119999999999999</ele>
        <time>2023-08-30T09:42:09Z</time>
      </trkpt>
      <trkpt lat="56.315930038690567" lon="-6.237814016640186">
        <ele>13.119999999999999</ele>
        <time>2023-08-30T09:42:10Z</time>
      </trkpt>
      <trkpt lat="56.316030034795403" lon="-6.237984001636505">
        <ele>13.6</ele>
        <time>2023-08-30T09:42:11Z</time>
      </trkpt>
      <trkpt lat="56.316135982051492" lon="-6.238152980804443">
        <ele>13.6</ele>
        <time>2023-08-30T09:42:12Z</time>
      </trkpt>
      <trkpt lat="56.317469039931893" lon="-6.240147035568953">
        <ele>15.039999999999999</ele>
        <time>2023-08-30T09:42:24Z</time>
      </trkpt>
      <trkpt lat="56.318369004875422" lon="-6.242149975150824">
        <ele>15.039999999999999</ele>
        <time>2023-08-30T09:42:33Z</time>
      </trkpt>
      <trkpt lat="56.318928999826312" lon="-6.243681013584137">
        <ele>16</ele>
        <time>2023-08-30T09:42:39Z</time>
      </trkpt>
      <trkpt lat="56.318997982889414" lon="-6.243935991078615">
        <ele>15.52</ele>
        <time>2023-08-30T09:42:40Z</time>
      </trkpt>
      <trkpt lat="56.319026984274387" lon="-6.24420203268528">
        <ele>15.52</ele>
        <time>2023-08-30T09:42:41Z</time>
      </trkpt>
      <trkpt lat="56.319056991487741" lon="-6.244470002129674">
        <ele>15.52</ele>
        <time>2023-08-30T09:42:42Z</time>
      </trkpt>
      <trkpt lat="56.319085992872715" lon="-6.244727997109294">
        <ele>15.039999999999999</ele>
        <time>2023-08-30T09:42:43Z</time>
      </trkpt>
      <trkpt lat="56.31907400675118" lon="-6.244995966553688">
        <ele>15.039999999999999</ele>
        <time>2023-08-30T09:42:44Z</time>
      </trkpt>
      <trkpt lat="56.31905104033649" lon="-6.245212974026799">
        <ele>15.039999999999999</ele>
        <time>2023-08-30T09:42:45Z</time>
      </trkpt>
      <trkpt lat="56.318977028131485" lon="-6.245438028126955">
        <ele>14.56</ele>
        <time>2023-08-30T09:42:46Z</time>
      </trkpt>
      <trkpt lat="56.318905027583241" lon="-6.245651012286544">
        <ele>14.56</ele>
        <time>2023-08-30T09:42:47Z</time>
      </trkpt>
      <trkpt lat="56.318830009549856" lon="-6.245876988396049">
        <ele>14.08</ele>
        <time>2023-08-30T09:42:48Z</time>
      </trkpt>
      <trkpt lat="56.318754991516471" lon="-6.246101958677173">
        <ele>13.6</ele>
        <time>2023-08-30T09:42:49Z</time>
      </trkpt>
      <trkpt lat="56.318702017888427" lon="-6.246313014999032">
        <ele>13.6</ele>
        <time>2023-08-30T09:42:50Z</time>
      </trkpt>
      <trkpt lat="56.318658012896776" lon="-6.246530022472143">
        <ele>13.6</ele>
        <time>2023-08-30T09:42:51Z</time>
      </trkpt>
      <trkpt lat="56.318407980725169" lon="-6.247766017913818">
        <ele>15.52</ele>
        <time>2023-08-30T09:42:58Z</time>
      </trkpt>
      <trkpt lat="56.318330029025674" lon="-6.24792099930346">
        <ele>16</ele>
        <time>2023-08-30T09:42:59Z</time>
      </trkpt>
      <trkpt lat="56.318259034305811" lon="-6.248062988743186">
        <ele>16.48</ele>
        <time>2023-08-30T09:43:00Z</time>
      </trkpt>
      <trkpt lat="56.318189967423677" lon="-6.24820196069777">
        <ele>17.440000000000001</ele>
        <time>2023-08-30T09:43:01Z</time>
      </trkpt>
      <trkpt lat="56.318110004067421" lon="-6.248337998986244">
        <ele>17.920000000000002</ele>
        <time>2023-08-30T09:43:02Z</time>
      </trkpt>
      <trkpt lat="56.318013025447726" lon="-6.248411005362868">
        <ele>18.879999999999999</ele>
        <time>2023-08-30T09:43:03Z</time>
      </trkpt>
      <trkpt lat="56.317915963009" lon="-6.248483005911112">
        <ele>19.84</ele>
        <time>2023-08-30T09:43:04Z</time>
      </trkpt>
      <trkpt lat="56.317815966904163" lon="-6.248558023944497">
        <ele>21.289999999999999</ele>
        <time>2023-08-30T09:43:05Z</time>
      </trkpt>
      <trkpt lat="56.317699961364269" lon="-6.248646033927798">
        <ele>22.25</ele>
        <time>2023-08-30T09:43:06Z</time>
      </trkpt>
      <trkpt lat="56.317597031593323" lon="-6.248636981472373">
        <ele>23.210000000000001</ele>
        <time>2023-08-30T09:43:07Z</time>
      </trkpt>
      <trkpt lat="56.317480020225048" lon="-6.24862801283598">
        <ele>24.170000000000002</ele>
        <time>2023-08-30T09:43:08Z</time>
      </trkpt>
      <trkpt lat="56.317367032170296" lon="-6.248618038371205">
        <ele>25.129999999999999</ele>
        <time>2023-08-30T09:43:09Z</time>
      </trkpt>
      <trkpt lat="56.317155975848436" lon="-6.248616026714444">
        <ele>27.050000000000001</ele>
        <time>2023-08-30T09:43:11Z</time>
      </trkpt>
      <trkpt lat="56.317047011107206" lon="-6.248665982857347">
        <ele>28.02</ele>
        <time>2023-08-30T09:43:12Z</time>
      </trkpt>
      <trkpt lat="56.316934023052454" lon="-6.248719040304422">
        <ele>28.98</ele>
        <time>2023-08-30T09:43:13Z</time>
      </trkpt>
      <trkpt lat="56.316828997805715" lon="-6.248834962025285">
        <ele>29.940000000000001</ele>
        <time>2023-08-30T09:43:14Z</time>
      </trkpt>
      <trkpt lat="56.316724978387356" lon="-6.248975023627281">
        <ele>30.899999999999999</ele>
        <time>2023-08-30T09:43:15Z</time>
      </trkpt>
      <trkpt lat="56.316614001989365" lon="-6.24912497587502">
        <ele>32.340000000000003</ele>
        <time>2023-08-30T09:43:16Z</time>
      </trkpt>
      <trkpt lat="56.316031040623784" lon="-6.249912036582828">
        <ele>37.630000000000003</ele>
        <time>2023-08-30T09:43:21Z</time>
      </trkpt>
      <trkpt lat="56.315903970971704" lon="-6.250046985223889">
        <ele>38.590000000000003</ele>
        <time>2023-08-30T09:43:22Z</time>
      </trkpt>
      <trkpt lat="56.314687002450228" lon="-6.251135040074587">
        <ele>45.799999999999997</ele>
        <time>2023-08-30T09:43:32Z</time>
      </trkpt>
      <trkpt lat="56.314507964998484" lon="-6.2512949667871">
        <ele>46.759999999999998</ele>
        <time>2023-08-30T09:43:34Z</time>
      </trkpt>
      <trkpt lat="56.314106974750757" lon="-6.251710960641503">
        <ele>47.719999999999999</ele>
        <time>2023-08-30T09:43:38Z</time>
      </trkpt>
      <trkpt lat="56.31402600556612" lon="-6.251872982829809">
        <ele>47.719999999999999</ele>
        <time>2023-08-30T09:43:39Z</time>
      </trkpt>
      <trkpt lat="56.313951993361115" lon="-6.252053026109934">
        <ele>47.719999999999999</ele>
        <time>2023-08-30T09:43:40Z</time>
      </trkpt>
      <trkpt lat="56.313905976712704" lon="-6.252254024147987">
        <ele>47.719999999999999</ele>
        <time>2023-08-30T09:43:41Z</time>
      </trkpt>
      <trkpt lat="56.313902037218213" lon="-6.252477988600731">
        <ele>48.200000000000003</ele>
        <time>2023-08-30T09:43:42Z</time>
      </trkpt>
      <trkpt lat="56.313902037218213" lon="-6.252702036872506">
        <ele>48.200000000000003</ele>
        <time>2023-08-30T09:43:43Z</time>
      </trkpt>
      <trkpt lat="56.313902037218213" lon="-6.252932036295533">
        <ele>48.200000000000003</ele>
        <time>2023-08-30T09:43:44Z</time>
      </trkpt>
      <trkpt lat="56.313922991976142" lon="-6.253166981041431">
        <ele>48.200000000000003</ele>
        <time>2023-08-30T09:43:45Z</time>
      </trkpt>
      <trkpt lat="56.313958028331399" lon="-6.253407960757613">
        <ele>48.68</ele>
        <time>2023-08-30T09:43:46Z</time>
      </trkpt>
      <trkpt lat="56.314075961709023" lon="-6.254135007038713">
        <ele>49.159999999999997</ele>
        <time>2023-08-30T09:43:49Z</time>
      </trkpt>
      <trkpt lat="56.314139999449253" lon="-6.254350002855063">
        <ele>49.159999999999997</ele>
        <time>2023-08-30T09:43:50Z</time>
      </trkpt>
      <trkpt lat="56.314205965027213" lon="-6.254572961479425">
        <ele>49.649999999999999</ele>
        <time>2023-08-30T09:43:51Z</time>
      </trkpt>
      <trkpt lat="56.314305039122701" lon="-6.254776977002621">
        <ele>50.130000000000003</ele>
        <time>2023-08-30T09:43:52Z</time>
      </trkpt>
      <trkpt lat="56.31441299803555" lon="-6.2549680005759">
        <ele>50.609999999999999</ele>
        <time>2023-08-30T09:43:53Z</time>
      </trkpt>
      <trkpt lat="56.315380018204451" lon="-6.25604297965765">
        <ele>55.890000000000001</ele>
        <time>2023-08-30T09:44:00Z</time>
      </trkpt>
      <trkpt lat="56.315773967653513" lon="-6.256528962403536">
        <ele>55.890000000000001</ele>
        <time>2023-08-30T09:44:03Z</time>
      </trkpt>
      <trkpt lat="56.315875975415111" lon="-6.256726020947099">
        <ele>55.409999999999997</ele>
        <time>2023-08-30T09:44:04Z</time>
      </trkpt>
      <trkpt lat="56.315973959863186" lon="-6.256939005106688">
        <ele>54.93</ele>
        <time>2023-08-30T09:44:05Z</time>
      </trkpt>
      <trkpt lat="56.316064987331629" lon="-6.257159030064941">
        <ele>54.450000000000003</ele>
        <time>2023-08-30T09:44:06Z</time>
      </trkpt>
      <trkpt lat="56.316136987879872" lon="-6.257407972589135">
        <ele>53.490000000000002</ele>
        <time>2023-08-30T09:44:07Z</time>
      </trkpt>
      <trkpt lat="56.316212005913258" lon="-6.257663033902645">
        <ele>53.009999999999998</ele>
        <time>2023-08-30T09:44:08Z</time>
      </trkpt>
      <trkpt lat="56.316750962287188" lon="-6.260142987594008">
        <ele>43.880000000000003</ele>
        <time>2023-08-30T09:44:16Z</time>
      </trkpt>
      <trkpt lat="56.317343981936574" lon="-6.263600019738078">
        <ele>29.940000000000001</ele>
        <time>2023-08-30T09:44:27Z</time>
      </trkpt>
      <trkpt lat="56.317354962229729" lon="-6.263911994174123">
        <ele>28.5</ele>
        <time>2023-08-30T09:44:28Z</time>
      </trkpt>
      <trkpt lat="56.317229988053441" lon="-6.266045020893216">
        <ele>21.77</ele>
        <time>2023-08-30T09:44:36Z</time>
      </trkpt>
      <trkpt lat="56.317042987793684" lon="-6.269241040572524">
        <ele>15.52</ele>
        <time>2023-08-30T09:44:48Z</time>
      </trkpt>
      <trkpt lat="56.317218001931906" lon="-6.27116996794939">
        <ele>13.119999999999999</ele>
        <time>2023-08-30T09:44:56Z</time>
      </trkpt>
      <trkpt lat="56.317637013271451" lon="-6.27279999665916">
        <ele>17.920000000000002</ele>
        <time>2023-08-30T09:45:03Z</time>
      </trkpt>
      <trkpt lat="56.31843002513051" lon="-6.275468040257692">
        <ele>24.649999999999999</ele>
        <time>2023-08-30T09:45:13Z</time>
      </trkpt>
      <trkpt lat="56.319083981215954" lon="-6.278726002201438">
        <ele>27.050000000000001</ele>
        <time>2023-08-30T09:45:24Z</time>
      </trkpt>
      <trkpt lat="56.31971899420023" lon="-6.28173703327775">
        <ele>32.82</ele>
        <time>2023-08-30T09:45:35Z</time>
      </trkpt>
      <trkpt lat="56.320417961105704" lon="-6.284911008551717">
        <ele>32.340000000000003</ele>
        <time>2023-08-30T09:45:45Z</time>
      </trkpt>
      <trkpt lat="56.321058003231883" lon="-6.287423986941576">
        <ele>27.050000000000001</ele>
        <time>2023-08-30T09:45:53Z</time>
      </trkpt>
      <trkpt lat="56.322054024785757" lon="-6.290018018335104">
        <ele>23.690000000000001</ele>
        <time>2023-08-30T09:46:02Z</time>
      </trkpt>
      <trkpt lat="56.322795990854502" lon="-6.292260009795427">
        <ele>22.73</ele>
        <time>2023-08-30T09:46:10Z</time>
      </trkpt>
      <trkpt lat="56.32313696667552" lon="-6.293452000245452">
        <ele>22.73</ele>
        <time>2023-08-30T09:46:15Z</time>
      </trkpt>
      <trkpt lat="56.323421029374003" lon="-6.294442992657423">
        <ele>21.77</ele>
        <time>2023-08-30T09:46:22Z</time>
      </trkpt>
      <trkpt lat="56.323821013793349" lon="-6.296062963083386">
        <ele>19.359999999999999</ele>
        <time>2023-08-30T09:46:28Z</time>
      </trkpt>
      <trkpt lat="56.323869964107871" lon="-6.296354988589883">
        <ele>17.920000000000002</ele>
        <time>2023-08-30T09:46:31Z</time>
      </trkpt>
      <trkpt lat="56.323958979919553" lon="-6.297028977423906">
        <ele>15.039999999999999</ele>
        <time>2023-08-30T09:46:41Z</time>
      </trkpt>
      <trkpt lat="56.32414598017931" lon="-6.298610977828503">
        <ele>13.119999999999999</ele>
        <time>2023-08-30T09:46:47Z</time>
      </trkpt>
      <trkpt lat="56.324555017054081" lon="-6.302129030227661">
        <ele>19.359999999999999</ele>
        <time>2023-08-30T09:46:59Z</time>
      </trkpt>
      <trkpt lat="56.32474503479898" lon="-6.304210005328059">
        <ele>20.32</ele>
        <time>2023-08-30T09:47:07Z</time>
      </trkpt>
      <trkpt lat="56.324759032577276" lon="-6.306212022900581">
        <ele>21.77</ele>
        <time>2023-08-30T09:47:15Z</time>
      </trkpt>
      <trkpt lat="56.32468200288713" lon="-6.307662008330226">
        <ele>22.73</ele>
        <time>2023-08-30T09:47:22Z</time>
      </trkpt>
      <trkpt lat="56.324577983468771" lon="-6.310940003022552">
        <ele>25.609999999999999</ele>
        <time>2023-08-30T09:47:33Z</time>
      </trkpt>
      <trkpt lat="56.324673034250736" lon="-6.315701007843018">
        <ele>27.530000000000001</ele>
        <time>2023-08-30T09:47:48Z</time>
      </trkpt>
      <trkpt lat="56.32474503479898" lon="-6.319940993562341">
        <ele>32.82</ele>
        <time>2023-08-30T09:48:01Z</time>
      </trkpt>
      <trkpt lat="56.324772024527192" lon="-6.323888031765819">
        <ele>36.189999999999998</ele>
        <time>2023-08-30T09:48:13Z</time>
      </trkpt>
      <trkpt lat="56.324746962636709" lon="-6.324175028130412">
        <ele>36.189999999999998</ele>
        <time>2023-08-30T09:48:14Z</time>
      </trkpt>
      <trkpt lat="56.324689965695143" lon="-6.324459007009864">
        <ele>35.710000000000001</ele>
        <time>2023-08-30T09:48:15Z</time>
      </trkpt>
      <trkpt lat="56.324630035087466" lon="-6.324755977839232">
        <ele>35.710000000000001</ele>
        <time>2023-08-30T09:48:16Z</time>
      </trkpt>
      <trkpt lat="56.324109015986323" lon="-6.326797977089882">
        <ele>32.340000000000003</ele>
        <time>2023-08-30T09:48:23Z</time>
      </trkpt>
      <trkpt lat="56.324085965752602" lon="-6.327085979282856">
        <ele>31.859999999999999</ele>
        <time>2023-08-30T09:48:24Z</time>
      </trkpt>
      <trkpt lat="56.324064005166292" lon="-6.327376998960972">
        <ele>31.379999999999999</ele>
        <time>2023-08-30T09:48:25Z</time>
      </trkpt>
      <trkpt lat="56.324064005166292" lon="-6.327659972012043">
        <ele>31.379999999999999</ele>
        <time>2023-08-30T09:48:26Z</time>
      </trkpt>
      <trkpt lat="56.324097029864788" lon="-6.327947974205017">
        <ele>31.379999999999999</ele>
        <time>2023-08-30T09:48:27Z</time>
      </trkpt>
      <trkpt lat="56.324130976572633" lon="-6.328243017196655">
        <ele>31.379999999999999</ele>
        <time>2023-08-30T09:48:28Z</time>
      </trkpt>
      <trkpt lat="56.324164001271129" lon="-6.328533031046391">
        <ele>31.379999999999999</ele>
        <time>2023-08-30T09:48:29Z</time>
      </trkpt>
      <trkpt lat="56.324592987075448" lon="-6.332269012928009">
        <ele>34.259999999999998</ele>
        <time>2023-08-30T09:48:42Z</time>
      </trkpt>
      <trkpt lat="56.324846958741546" lon="-6.335295969620347">
        <ele>32.340000000000003</ele>
        <time>2023-08-30T09:48:52Z</time>
      </trkpt>
      <trkpt lat="56.325051980093122" lon="-6.338372966274619">
        <ele>28.5</ele>
        <time>2023-08-30T09:49:03Z</time>
      </trkpt>
      <trkpt lat="56.325080981478095" lon="-6.341651966795325">
        <ele>25.609999999999999</ele>
        <time>2023-08-30T09:49:14Z</time>
      </trkpt>
      <trkpt lat="56.325080981478095" lon="-6.344809010624886">
        <ele>26.57</ele>
        <time>2023-08-30T09:49:25Z</time>
      </trkpt>
      <trkpt lat="56.325109982863069" lon="-6.346577005460858">
        <ele>25.609999999999999</ele>
        <time>2023-08-30T09:49:32Z</time>
      </trkpt>
      <trkpt lat="56.325075030326843" lon="-6.348159005865455">
        <ele>24.170000000000002</ele>
        <time>2023-08-30T09:49:37Z</time>
      </trkpt>
      <trkpt lat="56.324672028422356" lon="-6.351046990603209">
        <ele>28.02</ele>
        <time>2023-08-30T09:49:47Z</time>
      </trkpt>
      <trkpt lat="56.324348989874125" lon="-6.352765029296279">
        <ele>30.899999999999999</ele>
        <time>2023-08-30T09:49:55Z</time>
      </trkpt>
      <trkpt lat="56.323985969647765" lon="-6.354895960539579">
        <ele>32.82</ele>
        <time>2023-08-30T09:50:06Z</time>
      </trkpt>
      <trkpt lat="56.323863007128239" lon="-6.357523016631603">
        <ele>29.940000000000001</ele>
        <time>2023-08-30T09:50:15Z</time>
      </trkpt>
      <trkpt lat="56.324249999597669" lon="-6.360027026385069">
        <ele>28.02</ele>
        <time>2023-08-30T09:50:24Z</time>
      </trkpt>
      <trkpt lat="56.324615031480789" lon="-6.361597962677479">
        <ele>28.98</ele>
        <time>2023-08-30T09:50:33Z</time>
      </trkpt>
      <trkpt lat="56.324845030903816" lon="-6.363325975835323">
        <ele>27.530000000000001</ele>
        <time>2023-08-30T09:50:43Z</time>
      </trkpt>
      <trkpt lat="56.324942009523511" lon="-6.364847039803863">
        <ele>24.649999999999999</ele>
        <time>2023-08-30T09:50:54Z</time>
      </trkpt>
      <trkpt lat="56.325019039213657" lon="-6.365431006997824">
        <ele>23.210000000000001</ele>
        <time>2023-08-30T09:51:03Z</time>
      </trkpt>
      <trkpt lat="56.325032031163573" lon="-6.36550803668797">
        <ele>22.73</ele>
        <time>2023-08-30T09:51:04Z</time>
      </trkpt>
      <trkpt lat="56.325045023113489" lon="-6.365585988387466">
        <ele>22.73</ele>
        <time>2023-08-30T09:51:05Z</time>
      </trkpt>
      <trkpt lat="56.325103025883436" lon="-6.365932999178767">
        <ele>22.25</ele>
        <time>2023-08-30T09:51:09Z</time>
      </trkpt>
      <trkpt lat="56.325150970369577" lon="-6.366274980828166">
        <ele>21.77</ele>
        <time>2023-08-30T09:51:13Z</time>
      </trkpt>
      <trkpt lat="56.325163040310144" lon="-6.366357961669564">
        <ele>21.289999999999999</ele>
        <time>2023-08-30T09:51:14Z</time>
      </trkpt>
      <trkpt lat="56.325177038088441" lon="-6.366457035765052">
        <ele>20.809999999999999</ele>
        <time>2023-08-30T09:51:15Z</time>
      </trkpt>
      <trkpt lat="56.325193969532847" lon="-6.366573041304946">
        <ele>20.32</ele>
        <time>2023-08-30T09:51:16Z</time>
      </trkpt>
      <trkpt lat="56.325209978967905" lon="-6.366687035188079">
        <ele>20.32</ele>
        <time>2023-08-30T09:51:17Z</time>
      </trkpt>
      <trkpt lat="56.325274016708136" lon="-6.367134964093566">
        <ele>19.359999999999999</ele>
        <time>2023-08-30T09:51:21Z</time>
      </trkpt>
      <trkpt lat="56.325275022536516" lon="-6.367181986570358">
        <ele>18.879999999999999</ele>
        <time>2023-08-30T09:51:22Z</time>
      </trkpt>
      <trkpt lat="56.325277034193277" lon="-6.367253987118602">
        <ele>18.399999999999999</ele>
        <time>2023-08-30T09:51:23Z</time>
      </trkpt>
      <trkpt lat="56.32528399117291" lon="-6.367589011788368">
        <ele>15.039999999999999</ele>
        <time>2023-08-30T09:51:31Z</time>
      </trkpt>
      <trkpt lat="56.325286002829671" lon="-6.367728989571333">
        <ele>14.56</ele>
        <time>2023-08-30T09:51:42Z</time>
      </trkpt>
      <trkpt lat="56.325294971466064" lon="-6.368131991475821">
        <ele>13.6</ele>
        <time>2023-08-30T09:51:53Z</time>
      </trkpt>
      <trkpt lat="56.32530502974987" lon="-6.368596013635397">
        <ele>12.15</ele>
        <time>2023-08-30T09:51:58Z</time>
      </trkpt>
      <trkpt lat="56.325306035578251" lon="-6.368673965334892">
        <ele>11.67</ele>
        <time>2023-08-30T09:51:59Z</time>
      </trkpt>
      <trkpt lat="56.32530796341598" lon="-6.368744960054755">
        <ele>11.67</ele>
        <time>2023-08-30T09:52:00Z</time>
      </trkpt>
      <trkpt lat="56.325308969244361" lon="-6.368802040815353">
        <ele>11.19</ele>
        <time>2023-08-30T09:52:01Z</time>
      </trkpt>
      <trkpt lat="56.325309975072742" lon="-6.368847973644733">
        <ele>10.710000000000001</ele>
        <time>2023-08-30T09:52:02Z</time>
      </trkpt>
      <trkpt lat="56.325309975072742" lon="-6.368847973644733">
        <ele>11.19</ele>
        <time>2023-08-30T09:52:14Z</time>
      </trkpt>
      <trkpt lat="56.325309975072742" lon="-6.368847973644733">
        <ele>11.19</ele>
        <time>2023-08-30T09:52:34Z</time>
      </trkpt>
      <trkpt lat="56.325309975072742" lon="-6.368847973644733">
        <ele>13.119999999999999</ele>
        <time>2023-08-30T09:52:55Z</time>
      </trkpt>
      <trkpt lat="56.325288014486432" lon="-6.368876975029707">
        <ele>16</ele>
        <time>2023-08-30T12:42:54Z</time>
      </trkpt>
      <trkpt lat="56.32522196508944" lon="-6.36896800249815">
        <ele>16</ele>
        <time>2023-08-30T12:43:24Z</time>
      </trkpt>
      <trkpt lat="56.325317015871406" lon="-6.369194984436035">
        <ele>12.630000000000001</ele>
        <time>2023-08-30T12:43:27Z</time>
      </trkpt>
      <trkpt lat="56.325309975072742" lon="-6.368855014443398">
        <ele>10.710000000000001</ele>
        <time>2023-08-30T12:43:29Z</time>
      </trkpt>
      <trkpt lat="56.325308969244361" lon="-6.368805980309844">
        <ele>10.710000000000001</ele>
        <time>2023-08-30T12:43:30Z</time>
      </trkpt>
      <trkpt lat="56.32530796341598" lon="-6.368764992803335">
        <ele>10.23</ele>
        <time>2023-08-30T12:43:31Z</time>
      </trkpt>
      <trkpt lat="56.325294971466064" lon="-6.368129979819059">
        <ele>6.87</ele>
        <time>2023-08-30T12:43:41Z</time>
      </trkpt>
      <trkpt lat="56.325288014486432" lon="-6.367793027311564">
        <ele>6.87</ele>
        <time>2023-08-30T12:43:44Z</time>
      </trkpt>
      <trkpt lat="56.325286002829671" lon="-6.367680039256811">
        <ele>6.87</ele>
        <time>2023-08-30T12:43:45Z</time>
      </trkpt>
      <trkpt lat="56.325223976746202" lon="-6.366787031292915">
        <ele>8.310000000000001</ele>
        <time>2023-08-30T12:43:52Z</time>
      </trkpt>
      <trkpt lat="56.325022978708148" lon="-6.365457996726036">
        <ele>13.119999999999999</ele>
        <time>2023-08-30T12:44:03Z</time>
      </trkpt>
      <trkpt lat="56.324900016188622" lon="-6.364143965765834">
        <ele>16</ele>
        <time>2023-08-30T12:44:15Z</time>
      </trkpt>
      <trkpt lat="56.324754003435373" lon="-6.362470015883446">
        <ele>17.920000000000002</ele>
        <time>2023-08-30T12:44:28Z</time>
      </trkpt>
      <trkpt lat="56.324717961251736" lon="-6.362186037003994">
        <ele>18.399999999999999</ele>
        <time>2023-08-30T12:44:30Z</time>
      </trkpt>
      <trkpt lat="56.324387965723872" lon="-6.360645024105907">
        <ele>18.879999999999999</ele>
        <time>2023-08-30T12:44:40Z</time>
      </trkpt>
      <trkpt lat="56.32395202293992" lon="-6.358457012102008">
        <ele>16</ele>
        <time>2023-08-30T12:44:50Z</time>
      </trkpt>
      <trkpt lat="56.323883039876819" lon="-6.355875972658396">
        <ele>17.920000000000002</ele>
        <time>2023-08-30T12:45:01Z</time>
      </trkpt>
      <trkpt lat="56.324150003492832" lon="-6.353825004771352">
        <ele>18.879999999999999</ele>
        <time>2023-08-30T12:45:10Z</time>
      </trkpt>
      <trkpt lat="56.324749980121851" lon="-6.350634014233947">
        <ele>16.960000000000001</ele>
        <time>2023-08-30T12:45:21Z</time>
      </trkpt>
      <trkpt lat="56.325118029490113" lon="-6.346991993486881">
        <ele>15.039999999999999</ele>
        <time>2023-08-30T12:45:33Z</time>
      </trkpt>
      <trkpt lat="56.325080981478095" lon="-6.344169974327087">
        <ele>16.960000000000001</ele>
        <time>2023-08-30T12:45:43Z</time>
      </trkpt>
      <trkpt lat="56.32507000118494" lon="-6.338837994262576">
        <ele>16.960000000000001</ele>
        <time>2023-08-30T12:46:02Z</time>
      </trkpt>
      <trkpt lat="56.32492097094655" lon="-6.336409002542496">
        <ele>20.32</ele>
        <time>2023-08-30T12:46:11Z</time>
      </trkpt>
      <trkpt lat="56.324720978736877" lon="-6.333407023921609">
        <ele>25.129999999999999</ele>
        <time>2023-08-30T12:46:22Z</time>
      </trkpt>
      <trkpt lat="56.324326023459435" lon="-6.329943034797907">
        <ele>26.57</ele>
        <time>2023-08-30T12:46:35Z</time>
      </trkpt>
      <trkpt lat="56.324072973802686" lon="-6.327261999249458">
        <ele>22.25</ele>
        <time>2023-08-30T12:46:45Z</time>
      </trkpt>
      <trkpt lat="56.324094012379646" lon="-6.326992018148303">
        <ele>21.77</ele>
        <time>2023-08-30T12:46:46Z</time>
      </trkpt>
      <trkpt lat="56.324114967137575" lon="-6.3267089612782">
        <ele>21.289999999999999</ele>
        <time>2023-08-30T12:46:47Z</time>
      </trkpt>
      <trkpt lat="56.324173975735903" lon="-6.326487008482218">
        <ele>20.32</ele>
        <time>2023-08-30T12:46:48Z</time>
      </trkpt>
      <trkpt lat="56.324234995990992" lon="-6.326253991574049">
        <ele>19.84</ele>
        <time>2023-08-30T12:46:49Z</time>
      </trkpt>
      <trkpt lat="56.32429601624608" lon="-6.326023992151022">
        <ele>19.84</ele>
        <time>2023-08-30T12:46:50Z</time>
      </trkpt>
      <trkpt lat="56.324734976515174" lon="-6.32423403672874">
        <ele>21.77</ele>
        <time>2023-08-30T12:46:58Z</time>
      </trkpt>
      <trkpt lat="56.324792979285121" lon="-6.323499027639628">
        <ele>22.73</ele>
        <time>2023-08-30T12:47:01Z</time>
      </trkpt>
      <trkpt lat="56.324763977900147" lon="-6.321101970970631">
        <ele>24.170000000000002</ele>
        <time>2023-08-30T12:47:09Z</time>
      </trkpt>
      <trkpt lat="56.324688959866762" lon="-6.316616982221603">
        <ele>20.809999999999999</ele>
        <time>2023-08-30T12:47:22Z</time>
      </trkpt>
      <trkpt lat="56.324648978188634" lon="-6.314229983836412">
        <ele>18.879999999999999</ele>
        <time>2023-08-30T12:47:30Z</time>
      </trkpt>
      <trkpt lat="56.324631962925196" lon="-6.313208984211087">
        <ele>18.399999999999999</ele>
        <time>2023-08-30T12:47:36Z</time>
      </trkpt>
      <trkpt lat="56.324599022045732" lon="-6.311599994078279">
        <ele>17.920000000000002</ele>
        <time>2023-08-30T12:47:44Z</time>
      </trkpt>
      <trkpt lat="56.324584018439054" lon="-6.309250965714455">
        <ele>16.960000000000001</ele>
        <time>2023-08-30T12:47:54Z</time>
      </trkpt>
      <trkpt lat="56.324776969850063" lon="-6.305743977427483">
        <ele>15.039999999999999</ele>
        <time>2023-08-30T12:48:08Z</time>
      </trkpt>
      <trkpt lat="56.324693989008665" lon="-6.303544985130429">
        <ele>14.08</ele>
        <time>2023-08-30T12:48:15Z</time>
      </trkpt>
      <trkpt lat="56.324286041781306" lon="-6.299826018512249">
        <ele>11.67</ele>
        <time>2023-08-30T12:48:27Z</time>
      </trkpt>
      <trkpt lat="56.323753958567977" lon="-6.295773033052683">
        <ele>6.87</ele>
        <time>2023-08-30T12:48:40Z</time>
      </trkpt>
      <trkpt lat="56.323057003319263" lon="-6.293172966688871">
        <ele>9.27</ele>
        <time>2023-08-30T12:48:49Z</time>
      </trkpt>
      <trkpt lat="56.322200959548354" lon="-6.290399981662631">
        <ele>13.6</ele>
        <time>2023-08-30T12:49:00Z</time>
      </trkpt>
      <trkpt lat="56.321561001241207" lon="-6.28874103538692">
        <ele>16</ele>
        <time>2023-08-30T12:49:09Z</time>
      </trkpt>
      <trkpt lat="56.320929005742073" lon="-6.287075970321894">
        <ele>15.039999999999999</ele>
        <time>2023-08-30T12:49:18Z</time>
      </trkpt>
      <trkpt lat="56.320476969704032" lon="-6.285245027393103">
        <ele>18.399999999999999</ele>
        <time>2023-08-30T12:49:25Z</time>
      </trkpt>
      <trkpt lat="56.319813961163163" lon="-6.282123019918799">
        <ele>28.5</ele>
        <time>2023-08-30T12:49:36Z</time>
      </trkpt>
      <trkpt lat="56.319152964279056" lon="-6.279078964143992">
        <ele>28.02</ele>
        <time>2023-08-30T12:49:46Z</time>
      </trkpt>
      <trkpt lat="56.318294992670417" lon="-6.27501399256289">
        <ele>32.340000000000003</ele>
        <time>2023-08-30T12:50:00Z</time>
      </trkpt>
      <trkpt lat="56.317454958334565" lon="-6.272186022251844">
        <ele>27.530000000000001</ele>
        <time>2023-08-30T12:50:11Z</time>
      </trkpt>
      <trkpt lat="56.317082969471812" lon="-6.270094988867641">
        <ele>18.879999999999999</ele>
        <time>2023-08-30T12:50:18Z</time>
      </trkpt>
      <trkpt lat="56.317063020542264" lon="-6.269799023866653">
        <ele>17.920000000000002</ele>
        <time>2023-08-30T12:50:19Z</time>
      </trkpt>
      <trkpt lat="56.317041981965303" lon="-6.269508004188538">
        <ele>16.960000000000001</ele>
        <time>2023-08-30T12:50:20Z</time>
      </trkpt>
      <trkpt lat="56.317044999450445" lon="-6.269215978682041">
        <ele>16.48</ele>
        <time>2023-08-30T12:50:21Z</time>
      </trkpt>
      <trkpt lat="56.317063020542264" lon="-6.26891297288239">
        <ele>15.52</ele>
        <time>2023-08-30T12:50:22Z</time>
      </trkpt>
      <trkpt lat="56.317307017743587" lon="-6.264723027125001">
        <ele>18.399999999999999</ele>
        <time>2023-08-30T12:50:35Z</time>
      </trkpt>
      <trkpt lat="56.317339958623052" lon="-6.263504968956113">
        <ele>17.920000000000002</ele>
        <time>2023-08-30T12:50:39Z</time>
      </trkpt>
      <trkpt lat="56.317316992208362" lon="-6.263288967311382">
        <ele>17.920000000000002</ele>
        <time>2023-08-30T12:50:40Z</time>
      </trkpt>
      <trkpt lat="56.317287990823388" lon="-6.263127028942108">
        <ele>18.399999999999999</ele>
        <time>2023-08-30T12:50:41Z</time>
      </trkpt>
      <trkpt lat="56.317230993881822" lon="-6.262812037020922">
        <ele>18.879999999999999</ele>
        <time>2023-08-30T12:50:46Z</time>
      </trkpt>
      <trkpt lat="56.317225964739919" lon="-6.262783035635948">
        <ele>18.879999999999999</ele>
        <time>2023-08-30T12:50:47Z</time>
      </trkpt>
      <trkpt lat="56.317215990275145" lon="-6.262726960703731">
        <ele>19.359999999999999</ele>
        <time>2023-08-30T12:50:48Z</time>
      </trkpt>
      <trkpt lat="56.317199980840087" lon="-6.262638028711081">
        <ele>19.359999999999999</ele>
        <time>2023-08-30T12:50:49Z</time>
      </trkpt>
      <trkpt lat="56.317178020253778" lon="-6.262515988200903">
        <ele>19.84</ele>
        <time>2023-08-30T12:50:50Z</time>
      </trkpt>
      <trkpt lat="56.316934023052454" lon="-6.261161975562573">
        <ele>22.73</ele>
        <time>2023-08-30T12:50:57Z</time>
      </trkpt>
      <trkpt lat="56.316462960094213" lon="-6.258693002164364">
        <ele>30.420000000000002</ele>
        <time>2023-08-30T12:51:07Z</time>
      </trkpt>
      <trkpt lat="56.315856026485562" lon="-6.256683021783829">
        <ele>38.590000000000003</ele>
        <time>2023-08-30T12:51:15Z</time>
      </trkpt>
      <trkpt lat="56.315742032602429" lon="-6.256481017917395">
        <ele>39.549999999999997</ele>
        <time>2023-08-30T12:51:16Z</time>
      </trkpt>
      <trkpt lat="56.315620997920632" lon="-6.256299968808889">
        <ele>40.509999999999998</ele>
        <time>2023-08-30T12:51:17Z</time>
      </trkpt>
      <trkpt lat="56.315488982945681" lon="-6.256140964105725">
        <ele>41.469999999999999</ele>
        <time>2023-08-30T12:51:18Z</time>
      </trkpt>
      <trkpt lat="56.315342970192432" lon="-6.256010038778186">
        <ele>42.439999999999998</ele>
        <time>2023-08-30T12:51:19Z</time>
      </trkpt>
      <trkpt lat="56.315194023773074" lon="-6.255876012146473">
        <ele>43.399999999999999</ele>
        <time>2023-08-30T12:51:20Z</time>
      </trkpt>
      <trkpt lat="56.314222980290651" lon="-6.254632975906134">
        <ele>42.439999999999998</ele>
        <time>2023-08-30T12:51:27Z</time>
      </trkpt>
      <trkpt lat="56.314152991399169" lon="-6.254396019503474">
        <ele>41.950000000000003</ele>
        <time>2023-08-30T12:51:28Z</time>
      </trkpt>
      <trkpt lat="56.314086019992828" lon="-6.254167025908828">
        <ele>40.990000000000002</ele>
        <time>2023-08-30T12:51:29Z</time>
      </trkpt>
      <trkpt lat="56.314036985859275" lon="-6.253953035920858">
        <ele>40.509999999999998</ele>
        <time>2023-08-30T12:51:30Z</time>
      </trkpt>
      <trkpt lat="56.31400303915143" lon="-6.253715995699167">
        <ele>40.030000000000001</ele>
        <time>2023-08-30T12:51:31Z</time>
      </trkpt>
      <trkpt lat="56.313968002796173" lon="-6.253476021811366">
        <ele>40.030000000000001</ele>
        <time>2023-08-30T12:51:32Z</time>
      </trkpt>
      <trkpt lat="56.313902037218213" lon="-6.25277797691524">
        <ele>39.07</ele>
        <time>2023-08-30T12:51:35Z</time>
      </trkpt>
      <trkpt lat="56.313902037218213" lon="-6.252549989148974">
        <ele>39.07</ele>
        <time>2023-08-30T12:51:36Z</time>
      </trkpt>
      <trkpt lat="56.313902037218213" lon="-6.252271961420775">
        <ele>38.590000000000003</ele>
        <time>2023-08-30T12:51:37Z</time>
      </trkpt>
      <trkpt lat="56.313932966440916" lon="-6.252138018608093">
        <ele>38.109999999999999</ele>
        <time>2023-08-30T12:51:38Z</time>
      </trkpt>
      <trkpt lat="56.313980994746089" lon="-6.251963004469872">
        <ele>38.109999999999999</ele>
        <time>2023-08-30T12:51:39Z</time>
      </trkpt>
      <trkpt lat="56.314055006951094" lon="-6.251814980059862">
        <ele>37.630000000000003</ele>
        <time>2023-08-30T12:51:40Z</time>
      </trkpt>
      <trkpt lat="56.31413203664124" lon="-6.251662010326982">
        <ele>37.630000000000003</ele>
        <time>2023-08-30T12:51:41Z</time>
      </trkpt>
      <trkpt lat="56.314229015260935" lon="-6.251544998958707">
        <ele>37.149999999999999</ele>
        <time>2023-08-30T12:51:42Z</time>
      </trkpt>
      <trkpt lat="56.314345020800829" lon="-6.251440979540348">
        <ele>36.670000000000002</ele>
        <time>2023-08-30T12:51:43Z</time>
      </trkpt>
      <trkpt lat="56.314467983320355" lon="-6.251331008970738">
        <ele>36.189999999999998</ele>
        <time>2023-08-30T12:51:44Z</time>
      </trkpt>
      <trkpt lat="56.315983012318611" lon="-6.249975990504026">
        <ele>29.940000000000001</ele>
        <time>2023-08-30T12:51:56Z</time>
      </trkpt>
      <trkpt lat="56.316850958392024" lon="-6.248805038630962">
        <ele>23.210000000000001</ele>
        <time>2023-08-30T12:52:04Z</time>
      </trkpt>
      <trkpt lat="56.31696998141706" lon="-6.248702025040984">
        <ele>22.25</ele>
        <time>2023-08-30T12:52:05Z</time>
      </trkpt>
      <trkpt lat="56.317090010270476" lon="-6.248647039756179">
        <ele>21.77</ele>
        <time>2023-08-30T12:52:06Z</time>
      </trkpt>
      <trkpt lat="56.317218001931906" lon="-6.248605968430638">
        <ele>20.809999999999999</ele>
        <time>2023-08-30T12:52:07Z</time>
      </trkpt>
      <trkpt lat="56.317339036613703" lon="-6.248616026714444">
        <ele>19.84</ele>
        <time>2023-08-30T12:52:08Z</time>
      </trkpt>
      <trkpt lat="56.317454036325216" lon="-6.248624995350838">
        <ele>18.879999999999999</ele>
        <time>2023-08-30T12:52:09Z</time>
      </trkpt>
      <trkpt lat="56.317685963585973" lon="-6.248645028099418">
        <ele>17.440000000000001</ele>
        <time>2023-08-30T12:52:11Z</time>
      </trkpt>
      <trkpt lat="56.317794006317854" lon="-6.248575039207935">
        <ele>16.48</ele>
        <time>2023-08-30T12:52:12Z</time>
      </trkpt>
      <trkpt lat="56.317904982715845" lon="-6.248491974547505">
        <ele>15.52</ele>
        <time>2023-08-30T12:52:13Z</time>
      </trkpt>
      <trkpt lat="56.318017970770597" lon="-6.248407987877727">
        <ele>14.56</ele>
        <time>2023-08-30T12:52:14Z</time>
      </trkpt>
      <trkpt lat="56.31812903098762" lon="-6.248324001207948">
        <ele>13.6</ele>
        <time>2023-08-30T12:52:15Z</time>
      </trkpt>
      <trkpt lat="56.318211006000638" lon="-6.2481589615345">
        <ele>12.630000000000001</ele>
        <time>2023-08-30T12:52:16Z</time>
      </trkpt>
      <trkpt lat="56.318289963528514" lon="-6.248000962659717">
        <ele>11.19</ele>
        <time>2023-08-30T12:52:17Z</time>
      </trkpt>
      <trkpt lat="56.318373028188944" lon="-6.24783500097692">
        <ele>10.23</ele>
        <time>2023-08-30T12:52:18Z</time>
      </trkpt>
      <trkpt lat="56.318431030958891" lon="-6.247650012373924">
        <ele>9.27</ele>
        <time>2023-08-30T12:52:19Z</time>
      </trkpt>
      <trkpt lat="56.318476963788271" lon="-6.247424958273768">
        <ele>8.310000000000001</ele>
        <time>2023-08-30T12:52:20Z</time>
      </trkpt>
      <trkpt lat="56.318522980436683" lon="-6.247198982164264">
        <ele>7.35</ele>
        <time>2023-08-30T12:52:21Z</time>
      </trkpt>
      <trkpt lat="56.318810982629657" lon="-6.245932979509234">
        <ele>4.46</ele>
        <time>2023-08-30T12:52:27Z</time>
      </trkpt>
      <trkpt lat="56.318873008713126" lon="-6.245747990906239">
        <ele>3.98</ele>
        <time>2023-08-30T12:52:28Z</time>
      </trkpt>
      <trkpt lat="56.318931011483073" lon="-6.245573982596397">
        <ele>3.5</ele>
        <time>2023-08-30T12:52:29Z</time>
      </trkpt>
      <trkpt lat="56.318985996767879" lon="-6.245410032570362">
        <ele>3.5</ele>
        <time>2023-08-30T12:52:30Z</time>
      </trkpt>
      <trkpt lat="56.319036958739161" lon="-6.245254967361689">
        <ele>3.5</ele>
        <time>2023-08-30T12:52:31Z</time>
      </trkpt>
      <trkpt lat="56.319066965952516" lon="-6.245067967101932">
        <ele>3.5</ele>
        <time>2023-08-30T12:52:32Z</time>
      </trkpt>
      <trkpt lat="56.319086998701096" lon="-6.244877027347684">
        <ele>3.98</ele>
        <time>2023-08-30T12:52:33Z</time>
      </trkpt>
      <trkpt lat="56.319077024236321" lon="-6.244648033753038">
        <ele>3.5</ele>
        <time>2023-08-30T12:52:34Z</time>
      </trkpt>
      <trkpt lat="56.319052968174219" lon="-6.244436977431178">
        <ele>3.5</ele>
        <time>2023-08-30T12:52:35Z</time>
      </trkpt>
      <trkpt lat="56.319005023688078" lon="-6.244001034647226">
        <ele>3.02</ele>
        <time>2023-08-30T12:52:37Z</time>
      </trkpt>
      <trkpt lat="56.318964958190918" lon="-6.243777992203832">
        <ele>2.54</ele>
        <time>2023-08-30T12:52:38Z</time>
      </trkpt>
      <trkpt lat="56.318896980956197" lon="-6.243591997772455">
        <ele>2.54</ele>
        <time>2023-08-30T12:52:39Z</time>
      </trkpt>
      <trkpt lat="56.318824980407953" lon="-6.243397034704685">
        <ele>2.06</ele>
        <time>2023-08-30T12:52:40Z</time>
      </trkpt>
      <trkpt lat="56.318751974031329" lon="-6.243197964504361">
        <ele>1.58</ele>
        <time>2023-08-30T12:52:41Z</time>
      </trkpt>
      <trkpt lat="56.317796017974615" lon="-6.240720022469759">
        <ele>-1.3</ele>
        <time>2023-08-30T12:52:53Z</time>
      </trkpt>
      <trkpt lat="56.31656002253294" lon="-6.238796040415764">
        <ele>-0.82</ele>
        <time>2023-08-30T12:53:04Z</time>
      </trkpt>
      <trkpt lat="56.315835993736982" lon="-6.237633973360062">
        <ele>2.06</ele>
        <time>2023-08-30T12:53:12Z</time>
      </trkpt>
      <trkpt lat="56.315758964046836" lon="-6.237487960606813">
        <ele>1.58</ele>
        <time>2023-08-30T12:53:13Z</time>
      </trkpt>
      <trkpt lat="56.315712025389075" lon="-6.237315963953733">
        <ele>1.58</ele>
        <time>2023-08-30T12:53:14Z</time>
      </trkpt>
      <trkpt lat="56.315686041489244" lon="-6.237119995057583">
        <ele>2.06</ele>
        <time>2023-08-30T12:53:15Z</time>
      </trkpt>
      <trkpt lat="56.315660979598761" lon="-6.236922014504671">
        <ele>2.06</ele>
        <time>2023-08-30T12:53:16Z</time>
      </trkpt>
      <trkpt lat="56.315642958506942" lon="-6.236729985103011">
        <ele>2.54</ele>
        <time>2023-08-30T12:53:17Z</time>
      </trkpt>
      <trkpt lat="56.315668020397425" lon="-6.236542984843254">
        <ele>2.54</ele>
        <time>2023-08-30T12:53:18Z</time>
      </trkpt>
      <trkpt lat="56.315691992640495" lon="-6.236360007897019">
        <ele>2.54</ele>
        <time>2023-08-30T12:53:19Z</time>
      </trkpt>
      <trkpt lat="56.31572300568223" lon="-6.236193040385842">
        <ele>2.54</ele>
        <time>2023-08-30T12:53:20Z</time>
      </trkpt>
      <trkpt lat="56.3157660048455" lon="-6.236031018197537">
        <ele>3.02</ele>
        <time>2023-08-30T12:53:21Z</time>
      </trkpt>
      <trkpt lat="56.315807998180389" lon="-6.235872013494372">
        <ele>3.02</ele>
        <time>2023-08-30T12:53:22Z</time>
      </trkpt>
      <trkpt lat="56.31615299731493" lon="-6.234634006395936">
        <ele>2.54</ele>
        <time>2023-08-30T12:53:32Z</time>
      </trkpt>
      <trkpt lat="56.316200019791722" lon="-6.234472990036011">
        <ele>2.54</ele>
        <time>2023-08-30T12:53:34Z</time>
      </trkpt>
      <trkpt lat="56.316218040883541" lon="-6.234411969780922">
        <ele>2.06</ele>
        <time>2023-08-30T12:53:35Z</time>
      </trkpt>
      <trkpt lat="56.316232960671186" lon="-6.234358996152878">
        <ele>2.06</ele>
        <time>2023-08-30T12:53:36Z</time>
      </trkpt>
      <trkpt lat="56.316240001469851" lon="-6.234334018081427">
        <ele>2.06</ele>
        <time>2023-08-30T12:53:37Z</time>
      </trkpt>
      <trkpt lat="56.316258022561669" lon="-6.234301999211311">
        <ele>1.58</ele>
        <time>2023-08-30T12:53:38Z</time>
      </trkpt>
      <trkpt lat="56.316269002854824" lon="-6.234280038625002">
        <ele>1.1</ele>
        <time>2023-08-30T12:53:48Z</time>
      </trkpt>
      <trkpt lat="56.316291969269514" lon="-6.234237039461732">
        <ele>1.1</ele>
        <time>2023-08-30T12:54:21Z</time>
      </trkpt>
      <trkpt lat="56.316309990361333" lon="-6.234203008934856">
        <ele>0.62</ele>
        <time>2023-08-30T12:54:22Z</time>
      </trkpt>
      <trkpt lat="56.31643395870924" lon="-6.233968986198306">
        <ele>2.54</ele>
        <time>2023-08-30T12:54:34Z</time>
      </trkpt>
      <trkpt lat="56.31643395870924" lon="-6.233968986198306">
        <ele>2.54</ele>
        <time>2023-08-30T12:55:22Z</time>
      </trkpt>
      <trkpt lat="56.31643395870924" lon="-6.233968986198306">
        <ele>2.06</ele>
        <time>2023-08-30T12:56:19Z</time>
      </trkpt>
      <trkpt lat="56.31643395870924" lon="-6.233968986198306">
        <ele>2.06</ele>
        <time>2023-08-30T12:57:09Z</time>
      </trkpt>
      <trkpt lat="56.31643395870924" lon="-6.233968986198306">
        <ele>2.54</ele>
        <time>2023-08-30T12:58:06Z</time>
      </trkpt>
      <trkpt lat="56.31643395870924" lon="-6.233968986198306">
        <ele>2.54</ele>
        <time>2023-08-30T12:59:00Z</time>
      </trkpt>
      <trkpt lat="56.31643395870924" lon="-6.233968986198306">
        <ele>3.02</ele>
        <time>2023-08-30T12:59:51Z</time>
      </trkpt>
      <trkpt lat="56.31643395870924" lon="-6.233968986198306">
        <ele>3.98</ele>
        <time>2023-08-30T13:00:45Z</time>
      </trkpt>
      <trkpt lat="56.31643395870924" lon="-6.233968986198306">
        <ele>3.98</ele>
        <time>2023-08-30T13:01:18Z</time>
      </trkpt>
      <trkpt lat="56.31643395870924" lon="-6.233968986198306">
        <ele>4.46</ele>
        <time>2023-08-30T13:01:59Z</time>
      </trkpt>
      <trkpt lat="56.316507970914245" lon="-6.233948031440377">
        <ele>4.94</ele>
        <time>2023-08-30T13:02:10Z</time>
      </trkpt>
      <trkpt lat="56.316618025302887" lon="-6.233930010348558">
        <ele>4.94</ele>
        <time>2023-08-30T13:02:12Z</time>
      </trkpt>
      <trkpt lat="56.316683990880847" lon="-6.233937973156571">
        <ele>4.94</ele>
        <time>2023-08-30T13:02:13Z</time>
      </trkpt>
      <trkpt lat="56.316983979195356" lon="-6.233931016176939">
        <ele>4.94</ele>
        <time>2023-08-30T13:02:17Z</time>
      </trkpt>
      <trkpt lat="56.317052962258458" lon="-6.233884999528527">
        <ele>5.42</ele>
        <time>2023-08-30T13:02:18Z</time>
      </trkpt>
      <trkpt lat="56.317116999998689" lon="-6.233842000365257">
        <ele>5.42</ele>
        <time>2023-08-30T13:02:19Z</time>
      </trkpt>
      <trkpt lat="56.317132003605366" lon="-6.233754996210337">
        <ele>5.42</ele>
        <time>2023-08-30T13:02:20Z</time>
      </trkpt>
      <trkpt lat="56.317148013040423" lon="-6.233635973185301">
        <ele>5.42</ele>
        <time>2023-08-30T13:02:21Z</time>
      </trkpt>
      <trkpt lat="56.317166034132242" lon="-6.23350203037262">
        <ele>5.91</ele>
        <time>2023-08-30T13:02:22Z</time>
      </trkpt>
      <trkpt lat="56.31718497723341" lon="-6.233368003740907">
        <ele>5.91</ele>
        <time>2023-08-30T13:02:23Z</time>
      </trkpt>
      <trkpt lat="56.317179026082158" lon="-6.233250992372632">
        <ele>5.91</ele>
        <time>2023-08-30T13:02:24Z</time>
      </trkpt>
      <trkpt lat="56.317169973626733" lon="-6.233097016811371">
        <ele>6.39</ele>
        <time>2023-08-30T13:02:25Z</time>
      </trkpt>
      <trkpt lat="56.317109037190676" lon="-6.232090014964342">
        <ele>6.39</ele>
        <time>2023-08-30T13:02:31Z</time>
      </trkpt>
      <trkpt lat="56.316684996709228" lon="-6.230699960142374">
        <ele>7.83</ele>
        <time>2023-08-30T13:02:39Z</time>
      </trkpt>
      <trkpt lat="56.316017964854836" lon="-6.228593001142144">
        <ele>12.630000000000001</ele>
        <time>2023-08-30T13:02:50Z</time>
      </trkpt>
      <trkpt lat="56.315639019012451" lon="-6.225968962535262">
        <ele>21.289999999999999</ele>
        <time>2023-08-30T13:03:01Z</time>
      </trkpt>
      <trkpt lat="56.315853009000421" lon="-6.224132990464568">
        <ele>28.5</ele>
        <time>2023-08-30T13:03:09Z</time>
      </trkpt>
      <trkpt lat="56.316497996449471" lon="-6.222607987001538">
        <ele>33.780000000000001</ele>
        <time>2023-08-30T13:03:17Z</time>
      </trkpt>
      <trkpt lat="56.317266030237079" lon="-6.221351036801934">
        <ele>33.780000000000001</ele>
        <time>2023-08-30T13:03:25Z</time>
      </trkpt>
      <trkpt lat="56.317917974665761" lon="-6.220456017181277">
        <ele>36.189999999999998</ele>
        <time>2023-08-30T13:03:34Z</time>
      </trkpt>
      <trkpt lat="56.318921037018299" lon="-6.219145003706217">
        <ele>37.149999999999999</ele>
        <time>2023-08-30T13:03:47Z</time>
      </trkpt>
      <trkpt lat="56.320026023313403" lon="-6.217678003013134">
        <ele>32.340000000000003</ele>
        <time>2023-08-30T13:03:57Z</time>
      </trkpt>
      <trkpt lat="56.320380996912718" lon="-6.217201994732022">
        <ele>29.940000000000001</ele>
        <time>2023-08-30T13:04:02Z</time>
      </trkpt>
      <trkpt lat="56.320555005222559" lon="-6.216967971995473">
        <ele>25.609999999999999</ele>
        <time>2023-08-30T13:04:11Z</time>
      </trkpt>
      <trkpt lat="56.321065966039896" lon="-6.216285014525056">
        <ele>23.690000000000001</ele>
        <time>2023-08-30T13:04:18Z</time>
      </trkpt>
      <trkpt lat="56.321275010704994" lon="-6.215871032327414">
        <ele>24.170000000000002</ele>
        <time>2023-08-30T13:04:22Z</time>
      </trkpt>
      <trkpt lat="56.321383975446224" lon="-6.215633992105722">
        <ele>25.609999999999999</ele>
        <time>2023-08-30T13:04:29Z</time>
      </trkpt>
      <trkpt lat="56.321405014023185" lon="-6.215589987114072">
        <ele>26.09</ele>
        <time>2023-08-30T13:04:30Z</time>
      </trkpt>
      <trkpt lat="56.321703996509314" lon="-6.214836034923792">
        <ele>28.5</ele>
        <time>2023-08-30T13:04:36Z</time>
      </trkpt>
      <trkpt lat="56.322299027815461" lon="-6.212430009618402">
        <ele>36.189999999999998</ele>
        <time>2023-08-30T13:04:47Z</time>
      </trkpt>
      <trkpt lat="56.323180971667171" lon="-6.209551999345422">
        <ele>33.299999999999997</ele>
        <time>2023-08-30T13:04:59Z</time>
      </trkpt>
      <trkpt lat="56.3244469743222" lon="-6.206798041239381">
        <ele>30.420000000000002</ele>
        <time>2023-08-30T13:05:12Z</time>
      </trkpt>
      <trkpt lat="56.325793024152517" lon="-6.204367037862539">
        <ele>28.98</ele>
        <time>2023-08-30T13:05:24Z</time>
      </trkpt>
      <trkpt lat="56.327129015699029" lon="-6.201803013682365">
        <ele>38.590000000000003</ele>
        <time>2023-08-30T13:05:36Z</time>
      </trkpt>
      <trkpt lat="56.328278006985784" lon="-6.199486004188657">
        <ele>41.469999999999999</ele>
        <time>2023-08-30T13:05:46Z</time>
      </trkpt>
      <trkpt lat="56.329756993800402" lon="-6.196659039705992">
        <ele>49.649999999999999</ele>
        <time>2023-08-30T13:05:59Z</time>
      </trkpt>
      <trkpt lat="56.329846009612083" lon="-6.196419987827539">
        <ele>50.609999999999999</ele>
        <time>2023-08-30T13:06:00Z</time>
      </trkpt>
      <trkpt lat="56.329938964918256" lon="-6.196173978969455">
        <ele>51.090000000000003</ele>
        <time>2023-08-30T13:06:01Z</time>
      </trkpt>
      <trkpt lat="56.33000903762877" lon="-6.195892011746764">
        <ele>51.57</ele>
        <time>2023-08-30T13:06:02Z</time>
      </trkpt>
      <trkpt lat="56.330079026520252" lon="-6.195586994290352">
        <ele>52.049999999999997</ele>
        <time>2023-08-30T13:06:03Z</time>
      </trkpt>
      <trkpt lat="56.330144992098212" lon="-6.19530200958252">
        <ele>52.530000000000001</ele>
        <time>2023-08-30T13:06:04Z</time>
      </trkpt>
      <trkpt lat="56.330496026203036" lon="-6.193452961742878">
        <ele>53.490000000000002</ele>
        <time>2023-08-30T13:06:11Z</time>
      </trkpt>
      <trkpt lat="56.330653019249439" lon="-6.192628014832735">
        <ele>51.57</ele>
        <time>2023-08-30T13:06:15Z</time>
      </trkpt>
      <trkpt lat="56.330853011459112" lon="-6.190889021381736">
        <ele>47.240000000000002</ele>
        <time>2023-08-30T13:06:22Z</time>
      </trkpt>
      <trkpt lat="56.330853011459112" lon="-6.190610993653536">
        <ele>46.759999999999998</ele>
        <time>2023-08-30T13:06:23Z</time>
      </trkpt>
      <trkpt lat="56.330837002024055" lon="-6.190053010359407">
        <ele>44.359999999999999</ele>
        <time>2023-08-30T13:06:25Z</time>
      </trkpt>
      <trkpt lat="56.330809006467462" lon="-6.189780011773109">
        <ele>43.399999999999999</ele>
        <time>2023-08-30T13:06:26Z</time>
      </trkpt>
      <trkpt lat="56.330696018412709" lon="-6.187835996970534">
        <ele>37.630000000000003</ele>
        <time>2023-08-30T13:06:34Z</time>
      </trkpt>
      <trkpt lat="56.330985026434064" lon="-6.185675980523229">
        <ele>34.259999999999998</ele>
        <time>2023-08-30T13:06:43Z</time>
      </trkpt>
      <trkpt lat="56.331448964774609" lon="-6.182611975818873">
        <ele>36.670000000000002</ele>
        <time>2023-08-30T13:06:55Z</time>
      </trkpt>
      <trkpt lat="56.332168970257044" lon="-6.179214958101511">
        <ele>28.98</ele>
        <time>2023-08-30T13:07:07Z</time>
      </trkpt>
      <trkpt lat="56.333015039563179" lon="-6.17536498233676">
        <ele>17.440000000000001</ele>
        <time>2023-08-30T13:07:20Z</time>
      </trkpt>
      <trkpt lat="56.333557013422251" lon="-6.172977983951569">
        <ele>12.630000000000001</ele>
        <time>2023-08-30T13:07:29Z</time>
      </trkpt>
      <trkpt lat="56.334215998649597" lon="-6.170089999213815">
        <ele>11.19</ele>
        <time>2023-08-30T13:07:40Z</time>
      </trkpt>
      <trkpt lat="56.334535013884306" lon="-6.168032996356487">
        <ele>13.119999999999999</ele>
        <time>2023-08-30T13:07:48Z</time>
      </trkpt>
      <trkpt lat="56.334605002775788" lon="-6.167796961963177">
        <ele>13.6</ele>
        <time>2023-08-30T13:07:49Z</time>
      </trkpt>
      <trkpt lat="56.335528017953038" lon="-6.16539403796196">
        <ele>19.359999999999999</ele>
        <time>2023-08-30T13:08:00Z</time>
      </trkpt>
      <trkpt lat="56.33598399348557" lon="-6.164305983111262">
        <ele>23.210000000000001</ele>
        <time>2023-08-30T13:08:05Z</time>
      </trkpt>
      <trkpt lat="56.336053982377052" lon="-6.164054023101926">
        <ele>23.690000000000001</ele>
        <time>2023-08-30T13:08:06Z</time>
      </trkpt>
      <trkpt lat="56.336106033995748" lon="-6.163783958181739">
        <ele>24.649999999999999</ele>
        <time>2023-08-30T13:08:07Z</time>
      </trkpt>
      <trkpt lat="56.336332010105252" lon="-6.160815004259348">
        <ele>26.57</ele>
        <time>2023-08-30T13:08:17Z</time>
      </trkpt>
      <trkpt lat="56.336368974298239" lon="-6.160234976559877">
        <ele>25.609999999999999</ele>
        <time>2023-08-30T13:08:21Z</time>
      </trkpt>
      <trkpt lat="56.336385989561677" lon="-6.159971030429006">
        <ele>24.170000000000002</ele>
        <time>2023-08-30T13:08:29Z</time>
      </trkpt>
      <trkpt lat="56.336362017318606" lon="-6.159019013866782">
        <ele>22.73</ele>
        <time>2023-08-30T13:08:35Z</time>
      </trkpt>
      <trkpt lat="56.336334021762013" lon="-6.158129023388028">
        <ele>21.77</ele>
        <time>2023-08-30T13:08:39Z</time>
      </trkpt>
      <trkpt lat="56.336357994005084" lon="-6.157448999583721">
        <ele>21.77</ele>
        <time>2023-08-30T13:08:43Z</time>
      </trkpt>
      <trkpt lat="56.336366040632129" lon="-6.157366018742323">
        <ele>21.77</ele>
        <time>2023-08-30T13:08:44Z</time>
      </trkpt>
      <trkpt lat="56.336371991783381" lon="-6.157289994880557">
        <ele>21.77</ele>
        <time>2023-08-30T13:08:45Z</time>
      </trkpt>
      <trkpt lat="56.336380038410425" lon="-6.157206008210778">
        <ele>21.77</ele>
        <time>2023-08-30T13:08:46Z</time>
      </trkpt>
      <trkpt lat="56.336388001218438" lon="-6.1571029946208">
        <ele>21.77</ele>
        <time>2023-08-30T13:08:47Z</time>
      </trkpt>
      <trkpt lat="56.336398981511593" lon="-6.156984977424145">
        <ele>21.77</ele>
        <time>2023-08-30T13:08:48Z</time>
      </trkpt>
      <trkpt lat="56.336515992879868" lon="-6.155629958957434">
        <ele>22.25</ele>
        <time>2023-08-30T13:08:55Z</time>
      </trkpt>
      <trkpt lat="56.336537031456828" lon="-6.155385039746761">
        <ele>22.25</ele>
        <time>2023-08-30T13:08:56Z</time>
      </trkpt>
      <trkpt lat="56.336399987339973" lon="-6.152928974479437">
        <ele>25.129999999999999</ele>
        <time>2023-08-30T13:09:05Z</time>
      </trkpt>
      <trkpt lat="56.33624198846519" lon="-6.150539964437485">
        <ele>26.57</ele>
        <time>2023-08-30T13:09:14Z</time>
      </trkpt>
      <trkpt lat="56.336255986243486" lon="-6.150275012478232">
        <ele>26.09</ele>
        <time>2023-08-30T13:09:15Z</time>
      </trkpt>
      <trkpt lat="56.336294040083885" lon="-6.150009976699948">
        <ele>26.09</ele>
        <time>2023-08-30T13:09:16Z</time>
      </trkpt>
      <trkpt lat="56.336333015933633" lon="-6.149742007255554">
        <ele>26.09</ele>
        <time>2023-08-30T13:09:17Z</time>
      </trkpt>
      <trkpt lat="56.336371991783381" lon="-6.149470014497638">
        <ele>26.57</ele>
        <time>2023-08-30T13:09:18Z</time>
      </trkpt>
      <trkpt lat="56.336683966219425" lon="-6.146799037232995">
        <ele>28.02</ele>
        <time>2023-08-30T13:09:28Z</time>
      </trkpt>
      <trkpt lat="56.336655970662832" lon="-6.146555040031672">
        <ele>28.5</ele>
        <time>2023-08-30T13:09:29Z</time>
      </trkpt>
      <trkpt lat="56.336627975106239" lon="-6.146310037001967">
        <ele>28.98</ele>
        <time>2023-08-30T13:09:30Z</time>
      </trkpt>
      <trkpt lat="56.336590005084872" lon="-6.146055981516838">
        <ele>29.460000000000001</ele>
        <time>2023-08-30T13:09:31Z</time>
      </trkpt>
      <trkpt lat="56.336515992879868" lon="-6.145825982093811">
        <ele>29.460000000000001</ele>
        <time>2023-08-30T13:09:32Z</time>
      </trkpt>
      <trkpt lat="56.336439969018102" lon="-6.14558600820601">
        <ele>29.940000000000001</ele>
        <time>2023-08-30T13:09:33Z</time>
      </trkpt>
      <trkpt lat="56.33592096157372" lon="-6.143856989219785">
        <ele>29.940000000000001</ele>
        <time>2023-08-30T13:09:40Z</time>
      </trkpt>
      <trkpt lat="56.335892966017127" lon="-6.143592037260532">
        <ele>29.460000000000001</ele>
        <time>2023-08-30T13:09:41Z</time>
      </trkpt>
      <trkpt lat="56.335863964632154" lon="-6.143332030624151">
        <ele>29.460000000000001</ele>
        <time>2023-08-30T13:09:42Z</time>
      </trkpt>
      <trkpt lat="56.335862036794424" lon="-6.143064983189106">
        <ele>28.98</ele>
        <time>2023-08-30T13:09:43Z</time>
      </trkpt>
      <trkpt lat="56.335879974067211" lon="-6.142801037058234">
        <ele>28.98</ele>
        <time>2023-08-30T13:09:44Z</time>
      </trkpt>
      <trkpt lat="56.335919033735991" lon="-6.142547987401485">
        <ele>28.5</ele>
        <time>2023-08-30T13:09:45Z</time>
      </trkpt>
      <trkpt lat="56.335958009585738" lon="-6.142296027392149">
        <ele>28.5</ele>
        <time>2023-08-30T13:09:46Z</time>
      </trkpt>
      <trkpt lat="56.335997991263866" lon="-6.142036020755768">
        <ele>28.02</ele>
        <time>2023-08-30T13:09:47Z</time>
      </trkpt>
      <trkpt lat="56.336408033967018" lon="-6.140590980648994">
        <ele>24.170000000000002</ele>
        <time>2023-08-30T13:09:53Z</time>
      </trkpt>
      <trkpt lat="56.336487997323275" lon="-6.140379002317786">
        <ele>23.210000000000001</ele>
        <time>2023-08-30T13:09:54Z</time>
      </trkpt>
      <trkpt lat="56.336580030620098" lon="-6.140188984572887">
        <ele>22.25</ele>
        <time>2023-08-30T13:09:55Z</time>
      </trkpt>
      <trkpt lat="56.336694024503231" lon="-6.140040960162878">
        <ele>21.289999999999999</ele>
        <time>2023-08-30T13:09:56Z</time>
      </trkpt>
      <trkpt lat="56.336811035871506" lon="-6.139890002086759">
        <ele>20.32</ele>
        <time>2023-08-30T13:09:57Z</time>
      </trkpt>
      <trkpt lat="56.336935004219413" lon="-6.139752035960555">
        <ele>19.359999999999999</ele>
        <time>2023-08-30T13:09:58Z</time>
      </trkpt>
      <trkpt lat="56.337070958688855" lon="-6.139672994613648">
        <ele>18.399999999999999</ele>
        <time>2023-08-30T13:09:59Z</time>
      </trkpt>
      <trkpt lat="56.337205991148949" lon="-6.139612980186939">
        <ele>17.920000000000002</ele>
        <time>2023-08-30T13:10:00Z</time>
      </trkpt>
      <trkpt lat="56.337340017780662" lon="-6.139593031257391">
        <ele>17.920000000000002</ele>
        <time>2023-08-30T13:10:01Z</time>
      </trkpt>
      <trkpt lat="56.337479995563626" lon="-6.13957199268043">
        <ele>17.440000000000001</ele>
        <time>2023-08-30T13:10:02Z</time>
      </trkpt>
      <trkpt lat="56.337622990831733" lon="-6.139554977416992">
        <ele>17.440000000000001</ele>
        <time>2023-08-30T13:10:03Z</time>
      </trkpt>
      <trkpt lat="56.338379960507154" lon="-6.139467973262072">
        <ele>18.879999999999999</ele>
        <time>2023-08-30T13:10:08Z</time>
      </trkpt>
      <trkpt lat="56.338537037372589" lon="-6.139385998249054">
        <ele>18.879999999999999</ele>
        <time>2023-08-30T13:10:09Z</time>
      </trkpt>
      <trkpt lat="56.338695958256721" lon="-6.139303017407656">
        <ele>18.879999999999999</ele>
        <time>2023-08-30T13:10:10Z</time>
      </trkpt>
      <trkpt lat="56.338822022080421" lon="-6.139109982177615">
        <ele>18.879999999999999</ele>
        <time>2023-08-30T13:10:11Z</time>
      </trkpt>
      <trkpt lat="56.338952025398612" lon="-6.138899009674788">
        <ele>18.879999999999999</ele>
        <time>2023-08-30T13:10:12Z</time>
      </trkpt>
      <trkpt lat="56.339073982089758" lon="-6.138675967231393">
        <ele>18.879999999999999</ele>
        <time>2023-08-30T13:10:13Z</time>
      </trkpt>
      <trkpt lat="56.339178001508117" lon="-6.13841000944376">
        <ele>18.399999999999999</ele>
        <time>2023-08-30T13:10:14Z</time>
      </trkpt>
      <trkpt lat="56.339283026754856" lon="-6.138137010857463">
        <ele>18.399999999999999</ele>
        <time>2023-08-30T13:10:15Z</time>
      </trkpt>
      <trkpt lat="56.339374976232648" lon="-6.137841967865825">
        <ele>17.920000000000002</ele>
        <time>2023-08-30T13:10:16Z</time>
      </trkpt>
      <trkpt lat="56.339843021705747" lon="-6.136077996343374">
        <ele>12.630000000000001</ele>
        <time>2023-08-30T13:10:22Z</time>
      </trkpt>
      <trkpt lat="56.339886020869017" lon="-6.13576702773571">
        <ele>12.15</ele>
        <time>2023-08-30T13:10:23Z</time>
      </trkpt>
      <trkpt lat="56.339903958141804" lon="-6.135439965873957">
        <ele>11.19</ele>
        <time>2023-08-30T13:10:24Z</time>
      </trkpt>
      <trkpt lat="56.339895995333791" lon="-6.1351010017097">
        <ele>10.710000000000001</ele>
        <time>2023-08-30T13:10:25Z</time>
      </trkpt>
      <trkpt lat="56.339887026697397" lon="-6.13475700840354">
        <ele>10.23</ele>
        <time>2023-08-30T13:10:26Z</time>
      </trkpt>
      <trkpt lat="56.339795999228954" lon="-6.131121022626758">
        <ele>15.52</ele>
        <time>2023-08-30T13:10:37Z</time>
      </trkpt>
      <trkpt lat="56.33978602476418" lon="-6.128697982057929">
        <ele>22.25</ele>
        <time>2023-08-30T13:10:46Z</time>
      </trkpt>
      <trkpt lat="56.339820977300406" lon="-6.128478962928057">
        <ele>22.73</ele>
        <time>2023-08-30T13:10:47Z</time>
      </trkpt>
      <trkpt lat="56.339855007827282" lon="-6.128267990425229">
        <ele>22.73</ele>
        <time>2023-08-30T13:10:48Z</time>
      </trkpt>
      <trkpt lat="56.339907981455326" lon="-6.128087025135756">
        <ele>23.210000000000001</ele>
        <time>2023-08-30T13:10:49Z</time>
      </trkpt>
      <trkpt lat="56.339973025023937" lon="-6.12790497019887">
        <ele>23.210000000000001</ele>
        <time>2023-08-30T13:10:50Z</time>
      </trkpt>
      <trkpt lat="56.340039996430278" lon="-6.127719981595874">
        <ele>23.690000000000001</ele>
        <time>2023-08-30T13:10:51Z</time>
      </trkpt>
      <trkpt lat="56.340111996978521" lon="-6.12756097689271">
        <ele>23.690000000000001</ele>
        <time>2023-08-30T13:10:52Z</time>
      </trkpt>
      <trkpt lat="56.340958988294005" lon="-6.125937988981605">
        <ele>28.98</ele>
        <time>2023-08-30T13:11:03Z</time>
      </trkpt>
      <trkpt lat="56.341977976262569" lon="-6.124201007187367">
        <ele>34.740000000000002</ele>
        <time>2023-08-30T13:11:16Z</time>
      </trkpt>
      <trkpt lat="56.342764031141996" lon="-6.12302795983851">
        <ele>31.859999999999999</ele>
        <time>2023-08-30T13:11:25Z</time>
      </trkpt>
      <trkpt lat="56.343425028026104" lon="-6.121905036270618">
        <ele>24.649999999999999</ele>
        <time>2023-08-30T13:11:34Z</time>
      </trkpt>
      <trkpt lat="56.343487976118922" lon="-6.121775032952428">
        <ele>23.690000000000001</ele>
        <time>2023-08-30T13:11:35Z</time>
      </trkpt>
      <trkpt lat="56.343521000817418" lon="-6.121627008542419">
        <ele>22.73</ele>
        <time>2023-08-30T13:11:36Z</time>
      </trkpt>
      <trkpt lat="56.343556037172675" lon="-6.121465992182493">
        <ele>21.77</ele>
        <time>2023-08-30T13:11:37Z</time>
      </trkpt>
      <trkpt lat="56.34358998388052" lon="-6.121301036328077">
        <ele>20.809999999999999</ele>
        <time>2023-08-30T13:11:38Z</time>
      </trkpt>
      <trkpt lat="56.343626026064157" lon="-6.121133984997869">
        <ele>19.359999999999999</ele>
        <time>2023-08-30T13:11:39Z</time>
      </trkpt>
      <trkpt lat="56.343643963336945" lon="-6.120950002223253">
        <ele>18.399999999999999</ele>
        <time>2023-08-30T13:11:40Z</time>
      </trkpt>
      <trkpt lat="56.343647986650467" lon="-6.12072603777051">
        <ele>17.440000000000001</ele>
        <time>2023-08-30T13:11:41Z</time>
      </trkpt>
      <trkpt lat="56.343636000528932" lon="-6.118446998298168">
        <ele>9.27</ele>
        <time>2023-08-30T13:11:49Z</time>
      </trkpt>
      <trkpt lat="56.343440031632781" lon="-6.114675980061293">
        <ele>10.23</ele>
        <time>2023-08-30T13:12:02Z</time>
      </trkpt>
      <trkpt lat="56.343410024419427" lon="-6.113521037623286">
        <ele>10.23</ele>
        <time>2023-08-30T13:12:06Z</time>
      </trkpt>
      <trkpt lat="56.343668019399047" lon="-6.111189024522901">
        <ele>10.23</ele>
        <time>2023-08-30T13:12:14Z</time>
      </trkpt>
      <trkpt lat="56.343791987746954" lon="-6.110380003228784">
        <ele>12.15</ele>
        <time>2023-08-30T13:12:17Z</time>
      </trkpt>
      <trkpt lat="56.343791987746954" lon="-6.11011303961277">
        <ele>13.119999999999999</ele>
        <time>2023-08-30T13:12:18Z</time>
      </trkpt>
      <trkpt lat="56.343791987746954" lon="-6.109843980520964">
        <ele>13.6</ele>
        <time>2023-08-30T13:12:19Z</time>
      </trkpt>
      <trkpt lat="56.343791987746954" lon="-6.109572993591428">
        <ele>14.08</ele>
        <time>2023-08-30T13:12:20Z</time>
      </trkpt>
      <trkpt lat="56.343741025775671" lon="-6.109313992783427">
        <ele>15.039999999999999</ele>
        <time>2023-08-30T13:12:21Z</time>
      </trkpt>
      <trkpt lat="56.343682017177343" lon="-6.109058009460568">
        <ele>15.52</ele>
        <time>2023-08-30T13:12:22Z</time>
      </trkpt>
      <trkpt lat="56.343605993315578" lon="-6.108813006430864">
        <ele>16</ele>
        <time>2023-08-30T13:12:23Z</time>
      </trkpt>
      <trkpt lat="56.343519994989038" lon="-6.108565991744399">
        <ele>16.48</ele>
        <time>2023-08-30T13:12:24Z</time>
      </trkpt>
      <trkpt lat="56.343423016369343" lon="-6.108324006199837">
        <ele>16.48</ele>
        <time>2023-08-30T13:12:25Z</time>
      </trkpt>
      <trkpt lat="56.342334039509296" lon="-6.105768028646708">
        <ele>16.960000000000001</ele>
        <time>2023-08-30T13:12:36Z</time>
      </trkpt>
      <trkpt lat="56.342038996517658" lon="-6.104818023741245">
        <ele>16.48</ele>
        <time>2023-08-30T13:12:40Z</time>
      </trkpt>
      <trkpt lat="56.34199901483953" lon="-6.104562962427735">
        <ele>16</ele>
        <time>2023-08-30T13:12:41Z</time>
      </trkpt>
      <trkpt lat="56.341968001797795" lon="-6.104307984933257">
        <ele>15.52</ele>
        <time>2023-08-30T13:12:42Z</time>
      </trkpt>
      <trkpt lat="56.341968001797795" lon="-6.104082008823752">
        <ele>15.039999999999999</ele>
        <time>2023-08-30T13:12:43Z</time>
      </trkpt>
      <trkpt lat="56.341997003182769" lon="-6.103900959715247">
        <ele>14.56</ele>
        <time>2023-08-30T13:12:44Z</time>
      </trkpt>
      <trkpt lat="56.342026004567742" lon="-6.103738015517592">
        <ele>14.08</ele>
        <time>2023-08-30T13:12:45Z</time>
      </trkpt>
      <trkpt lat="56.342048970982432" lon="-6.103607006371021">
        <ele>13.6</ele>
        <time>2023-08-30T13:12:46Z</time>
      </trkpt>
      <trkpt lat="56.342130023986101" lon="-6.10315497033298">
        <ele>11.67</ele>
        <time>2023-08-30T13:12:50Z</time>
      </trkpt>
      <trkpt lat="56.342175034806132" lon="-6.103026978671551">
        <ele>10.710000000000001</ele>
        <time>2023-08-30T13:12:51Z</time>
      </trkpt>
      <trkpt lat="56.342246029525995" lon="-6.102879960089922">
        <ele>10.23</ele>
        <time>2023-08-30T13:12:52Z</time>
      </trkpt>
      <trkpt lat="56.342325992882252" lon="-6.102716010063887">
        <ele>9.75</ele>
        <time>2023-08-30T13:12:53Z</time>
      </trkpt>
      <trkpt lat="56.342412997037172" lon="-6.102536972612143">
        <ele>9.75</ele>
        <time>2023-08-30T13:12:54Z</time>
      </trkpt>
      <trkpt lat="56.342505030333996" lon="-6.102347038686276">
        <ele>9.27</ele>
        <time>2023-08-30T13:12:55Z</time>
      </trkpt>
      <trkpt lat="56.342619024217129" lon="-6.102176969870925">
        <ele>8.789999999999999</ele>
        <time>2023-08-30T13:12:56Z</time>
      </trkpt>
      <trkpt lat="56.343899024650455" lon="-6.100271008908749">
        <ele>4.94</ele>
        <time>2023-08-30T13:13:06Z</time>
      </trkpt>
      <trkpt lat="56.344733024016023" lon="-6.098936023190618">
        <ele>4.94</ele>
        <time>2023-08-30T13:13:14Z</time>
      </trkpt>
      <trkpt lat="56.344775017350912" lon="-6.098854970186949">
        <ele>4.94</ele>
        <time>2023-08-30T13:13:15Z</time>
      </trkpt>
      <trkpt lat="56.344844000414014" lon="-6.098721027374268">
        <ele>4.94</ele>
        <time>2023-08-30T13:13:16Z</time>
      </trkpt>
      <trkpt lat="56.344974003732204" lon="-6.098106969147921">
        <ele>5.42</ele>
        <time>2023-08-30T13:13:20Z</time>
      </trkpt>
      <trkpt lat="56.344989007338881" lon="-6.097855009138584">
        <ele>5.42</ele>
        <time>2023-08-30T13:13:21Z</time>
      </trkpt>
      <trkpt lat="56.345183970406651" lon="-6.095125023275614">
        <ele>5.42</ele>
        <time>2023-08-30T13:13:30Z</time>
      </trkpt>
      <trkpt lat="56.345629971474409" lon="-6.092558987438679">
        <ele>5.91</ele>
        <time>2023-08-30T13:13:39Z</time>
      </trkpt>
      <trkpt lat="56.346270013600588" lon="-6.089864959940314">
        <ele>7.35</ele>
        <time>2023-08-30T13:13:49Z</time>
      </trkpt>
      <trkpt lat="56.347039975225925" lon="-6.088594011962414">
        <ele>9.75</ele>
        <time>2023-08-30T13:13:56Z</time>
      </trkpt>
      <trkpt lat="56.347180958837271" lon="-6.088514970615506">
        <ele>9.75</ele>
        <time>2023-08-30T13:13:57Z</time>
      </trkpt>
      <trkpt lat="56.34732898324728" lon="-6.088466020300984">
        <ele>9.75</ele>
        <time>2023-08-30T13:13:58Z</time>
      </trkpt>
      <trkpt lat="56.347483964636922" lon="-6.088438024744391">
        <ele>9.75</ele>
        <time>2023-08-30T13:13:59Z</time>
      </trkpt>
      <trkpt lat="56.347649004310369" lon="-6.088427966460586">
        <ele>9.75</ele>
        <time>2023-08-30T13:14:00Z</time>
      </trkpt>
      <trkpt lat="56.348328022286296" lon="-6.088299974799156">
        <ele>11.67</ele>
        <time>2023-08-30T13:14:05Z</time>
      </trkpt>
      <trkpt lat="56.348442016169429" lon="-6.088241972029209">
        <ele>12.15</ele>
        <time>2023-08-30T13:14:06Z</time>
      </trkpt>
      <trkpt lat="56.348544023931026" lon="-6.088155973702669">
        <ele>12.630000000000001</ele>
        <time>2023-08-30T13:14:07Z</time>
      </trkpt>
      <trkpt lat="56.348634967580438" lon="-6.088008033111692">
        <ele>12.630000000000001</ele>
        <time>2023-08-30T13:14:08Z</time>
      </trkpt>
      <trkpt lat="56.348730018362403" lon="-6.087853973731399">
        <ele>13.119999999999999</ele>
        <time>2023-08-30T13:14:09Z</time>
      </trkpt>
      <trkpt lat="56.348830014467239" lon="-6.087692035362124">
        <ele>13.119999999999999</ele>
        <time>2023-08-30T13:14:10Z</time>
      </trkpt>
      <trkpt lat="56.348935961723328" lon="-6.087519032880664">
        <ele>13.119999999999999</ele>
        <time>2023-08-30T13:14:11Z</time>
      </trkpt>
      <trkpt lat="56.349250031635165" lon="-6.087008994072676">
        <ele>14.08</ele>
        <time>2023-08-30T13:14:14Z</time>
      </trkpt>
      <trkpt lat="56.349343992769718" lon="-6.086857030168176">
        <ele>14.56</ele>
        <time>2023-08-30T13:14:15Z</time>
      </trkpt>
      <trkpt lat="56.349463015794754" lon="-6.086750999093056">
        <ele>14.56</ele>
        <time>2023-08-30T13:14:16Z</time>
      </trkpt>
      <trkpt lat="56.349586984142661" lon="-6.086668018251658">
        <ele>15.039999999999999</ele>
        <time>2023-08-30T13:14:17Z</time>
      </trkpt>
      <trkpt lat="56.349717993289232" lon="-6.086628036573529">
        <ele>16</ele>
        <time>2023-08-30T13:14:18Z</time>
      </trkpt>
      <trkpt lat="56.349855037406087" lon="-6.086608003824949">
        <ele>16.48</ele>
        <time>2023-08-30T13:14:19Z</time>
      </trkpt>
      <trkpt lat="56.349985040724277" lon="-6.086589982733131">
        <ele>17.440000000000001</ele>
        <time>2023-08-30T13:14:20Z</time>
      </trkpt>
      <trkpt lat="56.35010096244514" lon="-6.086572967469692">
        <ele>18.399999999999999</ele>
        <time>2023-08-30T13:14:21Z</time>
      </trkpt>
      <trkpt lat="56.35020799934864" lon="-6.086557963863015">
        <ele>19.359999999999999</ele>
        <time>2023-08-30T13:14:22Z</time>
      </trkpt>
      <trkpt lat="56.350301038473845" lon="-6.086495015770197">
        <ele>20.32</ele>
        <time>2023-08-30T13:14:23Z</time>
      </trkpt>
      <trkpt lat="56.350385025143623" lon="-6.086404994130135">
        <ele>21.289999999999999</ele>
        <time>2023-08-30T13:14:24Z</time>
      </trkpt>
      <trkpt lat="56.35046498849988" lon="-6.086279014125466">
        <ele>22.25</ele>
        <time>2023-08-30T13:14:25Z</time>
      </trkpt>
      <trkpt lat="56.350547969341278" lon="-6.086150016635656">
        <ele>23.210000000000001</ele>
        <time>2023-08-30T13:14:26Z</time>
      </trkpt>
      <trkpt lat="56.350632961839437" lon="-6.086015990003943">
        <ele>23.690000000000001</ele>
        <time>2023-08-30T13:14:27Z</time>
      </trkpt>
      <trkpt lat="56.351353973150253" lon="-6.084442036226392">
        <ele>21.77</ele>
        <time>2023-08-30T13:14:35Z</time>
      </trkpt>
      <trkpt lat="56.352340020239353" lon="-6.081715989857912">
        <ele>19.84</ele>
        <time>2023-08-30T13:14:46Z</time>
      </trkpt>
      <trkpt lat="56.35259198024869" lon="-6.08087201602757">
        <ele>21.77</ele>
        <time>2023-08-30T13:14:50Z</time>
      </trkpt>
      <trkpt lat="56.352620981633663" lon="-6.08063799329102">
        <ele>22.25</ele>
        <time>2023-08-30T13:14:51Z</time>
      </trkpt>
      <trkpt lat="56.352760959416628" lon="-6.078462973237038">
        <ele>19.84</ele>
        <time>2023-08-30T13:14:59Z</time>
      </trkpt>
      <trkpt lat="56.352818040177226" lon="-6.077913958579302">
        <ele>17.440000000000001</ele>
        <time>2023-08-30T13:15:03Z</time>
      </trkpt>
      <trkpt lat="56.352837989106774" lon="-6.077718995511532">
        <ele>13.6</ele>
        <time>2023-08-30T13:15:11Z</time>
      </trkpt>
      <trkpt lat="56.352910995483398" lon="-6.07700502499938">
        <ele>11.19</ele>
        <time>2023-08-30T13:15:17Z</time>
      </trkpt>
      <trkpt lat="56.35293597355485" lon="-6.07676999643445">
        <ele>10.710000000000001</ele>
        <time>2023-08-30T13:15:19Z</time>
      </trkpt>
      <trkpt lat="56.352965980768204" lon="-6.076530022546649">
        <ele>7.35</ele>
        <time>2023-08-30T13:15:26Z</time>
      </trkpt>
      <trkpt lat="56.353035969659686" lon="-6.075986959040165">
        <ele>4.94</ele>
        <time>2023-08-30T13:15:36Z</time>
      </trkpt>
      <trkpt lat="56.353163039311767" lon="-6.074993032962084">
        <ele>2.54</ele>
        <time>2023-08-30T13:15:43Z</time>
      </trkpt>
      <trkpt lat="56.35319497436285" lon="-6.07492002658546">
        <ele>2.54</ele>
        <time>2023-08-30T13:15:44Z</time>
      </trkpt>
      <trkpt lat="56.353251971304417" lon="-6.074863029643893">
        <ele>2.54</ele>
        <time>2023-08-30T13:15:45Z</time>
      </trkpt>
      <trkpt lat="56.35332397185266" lon="-6.07479203492403">
        <ele>2.54</ele>
        <time>2023-08-30T13:15:46Z</time>
      </trkpt>
      <trkpt lat="56.35340896435082" lon="-6.07470603659749">
        <ele>2.54</ele>
        <time>2023-08-30T13:15:47Z</time>
      </trkpt>
      <trkpt lat="56.353511977940798" lon="-6.074603023007512">
        <ele>3.02</ele>
        <time>2023-08-30T13:15:48Z</time>
      </trkpt>
      <trkpt lat="56.353594958782196" lon="-6.074436977505684">
        <ele>3.98</ele>
        <time>2023-08-30T13:15:49Z</time>
      </trkpt>
      <trkpt lat="56.353680035099387" lon="-6.074254000559449">
        <ele>4.94</ele>
        <time>2023-08-30T13:15:50Z</time>
      </trkpt>
      <trkpt lat="56.353767039254308" lon="-6.074051996693015">
        <ele>5.91</ele>
        <time>2023-08-30T13:15:51Z</time>
      </trkpt>
      <trkpt lat="56.354406997561455" lon="-6.072068000212312">
        <ele>14.08</ele>
        <time>2023-08-30T13:16:00Z</time>
      </trkpt>
      <trkpt lat="56.355088027194142" lon="-6.06901497580111">
        <ele>14.56</ele>
        <time>2023-08-30T13:16:12Z</time>
      </trkpt>
      <trkpt lat="56.355271004140377" lon="-6.0681969858706">
        <ele>14.08</ele>
        <time>2023-08-30T13:16:15Z</time>
      </trkpt>
      <trkpt lat="56.355331018567085" lon="-6.067930022254586">
        <ele>14.08</ele>
        <time>2023-08-30T13:16:16Z</time>
      </trkpt>
      <trkpt lat="56.355392038822174" lon="-6.067655012011528">
        <ele>14.08</ele>
        <time>2023-08-30T13:16:17Z</time>
      </trkpt>
      <trkpt lat="56.356069967150688" lon="-6.064616991207004">
        <ele>11.67</ele>
        <time>2023-08-30T13:16:28Z</time>
      </trkpt>
      <trkpt lat="56.35676097124815" lon="-6.061260960996151">
        <ele>14.08</ele>
        <time>2023-08-30T13:16:41Z</time>
      </trkpt>
      <trkpt lat="56.356788966804743" lon="-6.060996009036899">
        <ele>14.56</ele>
        <time>2023-08-30T13:16:42Z</time>
      </trkpt>
      <trkpt lat="56.357183000072837" lon="-6.058719987049699">
        <ele>12.15</ele>
        <time>2023-08-30T13:16:50Z</time>
      </trkpt>
      <trkpt lat="56.35776998475194" lon="-6.056243972852826">
        <ele>9.27</ele>
        <time>2023-08-30T13:16:59Z</time>
      </trkpt>
      <trkpt lat="56.358413966372609" lon="-6.053403010591865">
        <ele>6.87</ele>
        <time>2023-08-30T13:17:10Z</time>
      </trkpt>
      <trkpt lat="56.358999023213983" lon="-6.051069991663098">
        <ele>6.87</ele>
        <time>2023-08-30T13:17:19Z</time>
      </trkpt>
      <trkpt lat="56.359333964064717" lon="-6.049894010648131">
        <ele>6.39</ele>
        <time>2023-08-30T13:17:24Z</time>
      </trkpt>
      <trkpt lat="56.359371012076735" lon="-6.049649007618427">
        <ele>6.39</ele>
        <time>2023-08-30T13:17:25Z</time>
      </trkpt>
      <trkpt lat="56.359566980972886" lon="-6.047753021121025">
        <ele>8.789999999999999</ele>
        <time>2023-08-30T13:17:33Z</time>
      </trkpt>
      <trkpt lat="56.359738977625966" lon="-6.045498037710786">
        <ele>11.19</ele>
        <time>2023-08-30T13:17:42Z</time>
      </trkpt>
      <trkpt lat="56.359937964007258" lon="-6.043623005971313">
        <ele>9.27</ele>
        <time>2023-08-30T13:17:50Z</time>
      </trkpt>
      <trkpt lat="56.359984986484051" lon="-6.043464001268148">
        <ele>8.789999999999999</ele>
        <time>2023-08-30T13:17:51Z</time>
      </trkpt>
      <trkpt lat="56.360043995082378" lon="-6.0433179885149">
        <ele>8.310000000000001</ele>
        <time>2023-08-30T13:17:52Z</time>
      </trkpt>
      <trkpt lat="56.360101997852325" lon="-6.043172981590033">
        <ele>7.83</ele>
        <time>2023-08-30T13:17:53Z</time>
      </trkpt>
      <trkpt lat="56.360167041420937" lon="-6.043049013242126">
        <ele>7.35</ele>
        <time>2023-08-30T13:17:54Z</time>
      </trkpt>
      <trkpt lat="56.360239963978529" lon="-6.042928984388709">
        <ele>7.35</ele>
        <time>2023-08-30T13:17:55Z</time>
      </trkpt>
      <trkpt lat="56.360314982011914" lon="-6.042806021869183">
        <ele>7.35</ele>
        <time>2023-08-30T13:17:56Z</time>
      </trkpt>
      <trkpt lat="56.360471975058317" lon="-6.04256696999073">
        <ele>7.35</ele>
        <time>2023-08-30T13:17:58Z</time>
      </trkpt>
      <trkpt lat="56.361212013289332" lon="-6.041531972587109">
        <ele>4.94</ele>
        <time>2023-08-30T13:18:06Z</time>
      </trkpt>
      <trkpt lat="56.361264986917377" lon="-6.041355030611157">
        <ele>4.94</ele>
        <time>2023-08-30T13:18:07Z</time>
      </trkpt>
      <trkpt lat="56.361380992457271" lon="-6.040963008999825">
        <ele>4.46</ele>
        <time>2023-08-30T13:18:09Z</time>
      </trkpt>
      <trkpt lat="56.361939981579781" lon="-6.039074985310435">
        <ele>4.46</ele>
        <time>2023-08-30T13:18:17Z</time>
      </trkpt>
      <trkpt lat="56.362007036805153" lon="-6.038852026686072">
        <ele>3.98</ele>
        <time>2023-08-30T13:18:18Z</time>
      </trkpt>
      <trkpt lat="56.362070990726352" lon="-6.038636025041342">
        <ele>3.5</ele>
        <time>2023-08-30T13:18:19Z</time>
      </trkpt>
      <trkpt lat="56.3622170034796" lon="-6.037959018722177">
        <ele>2.06</ele>
        <time>2023-08-30T13:18:22Z</time>
      </trkpt>
      <trkpt lat="56.36228296905756" lon="-6.037636986002326">
        <ele>2.06</ele>
        <time>2023-08-30T13:18:24Z</time>
      </trkpt>
      <trkpt lat="56.362304007634521" lon="-6.037531960755587">
        <ele>2.54</ele>
        <time>2023-08-30T13:18:25Z</time>
      </trkpt>
      <trkpt lat="56.362315993756056" lon="-6.037456020712853">
        <ele>2.54</ele>
        <time>2023-08-30T13:18:26Z</time>
      </trkpt>
      <trkpt lat="56.362322028726339" lon="-6.037410004064441">
        <ele>2.06</ele>
        <time>2023-08-30T13:18:27Z</time>
      </trkpt>
      <trkpt lat="56.362326974049211" lon="-6.037377985194325">
        <ele>1.58</ele>
        <time>2023-08-30T13:18:35Z</time>
      </trkpt>
      <trkpt lat="56.362424958497286" lon="-6.036628978326917">
        <ele>2.54</ele>
        <time>2023-08-30T13:18:41Z</time>
      </trkpt>
      <trkpt lat="56.362511040642858" lon="-6.035976028069854">
        <ele>2.54</ele>
        <time>2023-08-30T13:18:44Z</time>
      </trkpt>
      <trkpt lat="56.362543981522322" lon="-6.035729013383389">
        <ele>2.54</ele>
        <time>2023-08-30T13:18:45Z</time>
      </trkpt>
      <trkpt lat="56.362790996208787" lon="-6.033859010785818">
        <ele>1.58</ele>
        <time>2023-08-30T13:18:53Z</time>
      </trkpt>
      <trkpt lat="56.362914964556694" lon="-6.033046972006559">
        <ele>2.06</ele>
        <time>2023-08-30T13:18:57Z</time>
      </trkpt>
      <trkpt lat="56.363199027255177" lon="-6.031181998550892">
        <ele>3.5</ele>
        <time>2023-08-30T13:19:05Z</time>
      </trkpt>
      <trkpt lat="56.363639999181032" lon="-6.0285550262779">
        <ele>5.42</ele>
        <time>2023-08-30T13:19:16Z</time>
      </trkpt>
      <trkpt lat="56.36369900777936" lon="-6.028352016583085">
        <ele>5.91</ele>
        <time>2023-08-30T13:19:17Z</time>
      </trkpt>
      <trkpt lat="56.363981980830431" lon="-6.027212999761105">
        <ele>4.94</ele>
        <time>2023-08-30T13:19:23Z</time>
      </trkpt>
      <trkpt lat="56.364005031064153" lon="-6.026996998116374">
        <ele>4.94</ele>
        <time>2023-08-30T13:19:24Z</time>
      </trkpt>
      <trkpt lat="56.364070996642113" lon="-6.024899007752538">
        <ele>4.94</ele>
        <time>2023-08-30T13:19:33Z</time>
      </trkpt>
      <trkpt lat="56.364102009683847" lon="-6.024682000279427">
        <ele>4.94</ele>
        <time>2023-08-30T13:19:34Z</time>
      </trkpt>
      <trkpt lat="56.36432396247983" lon="-6.02357198484242">
        <ele>5.42</ele>
        <time>2023-08-30T13:19:39Z</time>
      </trkpt>
      <trkpt lat="56.364347012713552" lon="-6.023332010954619">
        <ele>5.91</ele>
        <time>2023-08-30T13:19:40Z</time>
      </trkpt>
      <trkpt lat="56.364341983571649" lon="-6.023097988218069">
        <ele>6.39</ele>
        <time>2023-08-30T13:19:41Z</time>
      </trkpt>
      <trkpt lat="56.364337960258126" lon="-6.022868994623423">
        <ele>6.87</ele>
        <time>2023-08-30T13:19:42Z</time>
      </trkpt>
      <trkpt lat="56.364335026592016" lon="-6.022642012685537">
        <ele>6.87</ele>
        <time>2023-08-30T13:19:43Z</time>
      </trkpt>
      <trkpt lat="56.364329997450113" lon="-6.022416036576033">
        <ele>6.87</ele>
        <time>2023-08-30T13:19:44Z</time>
      </trkpt>
      <trkpt lat="56.364326979964972" lon="-6.022224007174373">
        <ele>6.87</ele>
        <time>2023-08-30T13:19:45Z</time>
      </trkpt>
      <trkpt lat="56.364351036027074" lon="-6.022006999701262">
        <ele>6.87</ele>
        <time>2023-08-30T13:19:46Z</time>
      </trkpt>
      <trkpt lat="56.364372996613383" lon="-6.021800972521305">
        <ele>6.87</ele>
        <time>2023-08-30T13:19:47Z</time>
      </trkpt>
      <trkpt lat="56.364395963028073" lon="-6.021591005846858">
        <ele>6.87</ele>
        <time>2023-08-30T13:19:48Z</time>
      </trkpt>
      <trkpt lat="56.36458296328783" lon="-6.019607009366155">
        <ele>7.35</ele>
        <time>2023-08-30T13:19:58Z</time>
      </trkpt>
      <trkpt lat="56.364625040441751" lon="-6.019246000796557">
        <ele>7.35</ele>
        <time>2023-08-30T13:20:00Z</time>
      </trkpt>
      <trkpt lat="56.364656975492835" lon="-6.019109962508082">
        <ele>7.35</ele>
        <time>2023-08-30T13:20:01Z</time>
      </trkpt>
      <trkpt lat="56.364692011848092" lon="-6.018963027745485">
        <ele>7.35</ele>
        <time>2023-08-30T13:20:02Z</time>
      </trkpt>
      <trkpt lat="56.364716989919543" lon="-6.018912987783551">
        <ele>7.83</ele>
        <time>2023-08-30T13:20:03Z</time>
      </trkpt>
      <trkpt lat="56.364764012396336" lon="-6.018818020820618">
        <ele>7.83</ele>
        <time>2023-08-30T13:20:04Z</time>
      </trkpt>
      <trkpt lat="56.364815980195999" lon="-6.01871601305902">
        <ele>7.83</ele>
        <time>2023-08-30T13:20:05Z</time>
      </trkpt>
      <trkpt lat="56.364888986572623" lon="-6.018607970327139">
        <ele>7.83</ele>
        <time>2023-08-30T13:20:06Z</time>
      </trkpt>
      <trkpt lat="56.364981019869447" lon="-6.01856597699225">
        <ele>7.83</ele>
        <time>2023-08-30T13:20:07Z</time>
      </trkpt>
      <trkpt lat="56.365082021802664" lon="-6.018519960343838">
        <ele>7.83</ele>
        <time>2023-08-30T13:20:08Z</time>
      </trkpt>
      <trkpt lat="56.365294000133872" lon="-6.018421975895762">
        <ele>7.83</ele>
        <time>2023-08-30T13:20:10Z</time>
      </trkpt>
      <trkpt lat="56.366297984495759" lon="-6.017403993755579">
        <ele>7.83</ele>
        <time>2023-08-30T13:20:19Z</time>
      </trkpt>
      <trkpt lat="56.367846038192511" lon="-6.015581013634801">
        <ele>10.23</ele>
        <time>2023-08-30T13:20:32Z</time>
      </trkpt>
      <trkpt lat="56.369175994768739" lon="-6.014421964064241">
        <ele>10.23</ele>
        <time>2023-08-30T13:20:42Z</time>
      </trkpt>
      <trkpt lat="56.370813986286521" lon="-6.013077003881335">
        <ele>8.789999999999999</ele>
        <time>2023-08-30T13:20:53Z</time>
      </trkpt>
      <trkpt lat="56.371273985132575" lon="-6.012699985876679">
        <ele>9.27</ele>
        <time>2023-08-30T13:20:57Z</time>
      </trkpt>
      <trkpt lat="56.371408011764288" lon="-6.012590015307069">
        <ele>9.27</ele>
        <time>2023-08-30T13:20:58Z</time>
      </trkpt>
      <trkpt lat="56.371475988999009" lon="-6.012453977018595">
        <ele>9.27</ele>
        <time>2023-08-30T13:20:59Z</time>
      </trkpt>
      <trkpt lat="56.371552012860775" lon="-6.012302013114095">
        <ele>9.27</ele>
        <time>2023-08-30T13:21:00Z</time>
      </trkpt>
      <trkpt lat="56.371616972610354" lon="-6.01211903616786">
        <ele>9.27</ele>
        <time>2023-08-30T13:21:01Z</time>
      </trkpt>
      <trkpt lat="56.371672041714191" lon="-6.011933041736484">
        <ele>9.27</ele>
        <time>2023-08-30T13:21:02Z</time>
      </trkpt>
      <trkpt lat="56.371725015342236" lon="-6.011752998456359">
        <ele>9.27</ele>
        <time>2023-08-30T13:21:03Z</time>
      </trkpt>
      <trkpt lat="56.371774971485138" lon="-6.01158200763166">
        <ele>9.27</ele>
        <time>2023-08-30T13:21:04Z</time>
      </trkpt>
      <trkpt lat="56.37184202671051" lon="-6.011443035677075">
        <ele>8.789999999999999</ele>
        <time>2023-08-30T13:21:05Z</time>
      </trkpt>
      <trkpt lat="56.371926013380289" lon="-6.011311020702124">
        <ele>8.789999999999999</ele>
        <time>2023-08-30T13:21:06Z</time>
      </trkpt>
      <trkpt lat="56.372017040848732" lon="-6.011169031262398">
        <ele>8.789999999999999</ele>
        <time>2023-08-30T13:21:07Z</time>
      </trkpt>
      <trkpt lat="56.372425993904471" lon="-6.010575005784631">
        <ele>8.789999999999999</ele>
        <time>2023-08-30T13:21:11Z</time>
      </trkpt>
      <trkpt lat="56.373527962714434" lon="-6.009374968707562">
        <ele>8.789999999999999</ele>
        <time>2023-08-30T13:21:20Z</time>
      </trkpt>
      <trkpt lat="56.373617984354496" lon="-6.009232979267836">
        <ele>8.789999999999999</ele>
        <time>2023-08-30T13:21:21Z</time>
      </trkpt>
      <trkpt lat="56.373687973245978" lon="-6.009056959301233">
        <ele>8.789999999999999</ele>
        <time>2023-08-30T13:21:22Z</time>
      </trkpt>
      <trkpt lat="56.373837003484368" lon="-6.008685976266861">
        <ele>8.789999999999999</ele>
        <time>2023-08-30T13:21:24Z</time>
      </trkpt>
      <trkpt lat="56.373931970447302" lon="-6.008545998483896">
        <ele>9.27</ele>
        <time>2023-08-30T13:21:25Z</time>
      </trkpt>
      <trkpt lat="56.37403498403728" lon="-6.008419012650847">
        <ele>8.789999999999999</ele>
        <time>2023-08-30T13:21:26Z</time>
      </trkpt>
      <trkpt lat="56.374132968485355" lon="-6.00829797796905">
        <ele>9.27</ele>
        <time>2023-08-30T13:21:27Z</time>
      </trkpt>
      <trkpt lat="56.374231958761811" lon="-6.008107960224152">
        <ele>9.75</ele>
        <time>2023-08-30T13:21:28Z</time>
      </trkpt>
      <trkpt lat="56.374328015372157" lon="-6.007920037955046">
        <ele>9.75</ele>
        <time>2023-08-30T13:21:29Z</time>
      </trkpt>
      <trkpt lat="56.374427005648613" lon="-6.007727002725005">
        <ele>10.23</ele>
        <time>2023-08-30T13:21:30Z</time>
      </trkpt>
      <trkpt lat="56.375295035541058" lon="-6.00550496019423">
        <ele>10.710000000000001</ele>
        <time>2023-08-30T13:21:40Z</time>
      </trkpt>
      <trkpt lat="56.375400982797146" lon="-6.005348972976208">
        <ele>10.710000000000001</ele>
        <time>2023-08-30T13:21:41Z</time>
      </trkpt>
      <trkpt lat="56.375510031357408" lon="-6.005188962444663">
        <ele>10.710000000000001</ele>
        <time>2023-08-30T13:21:42Z</time>
      </trkpt>
      <trkpt lat="56.375626036897302" lon="-6.00502802990377">
        <ele>10.710000000000001</ele>
        <time>2023-08-30T13:21:43Z</time>
      </trkpt>
      <trkpt lat="56.375757968053222" lon="-6.004931973293424">
        <ele>10.710000000000001</ele>
        <time>2023-08-30T13:21:44Z</time>
      </trkpt>
      <trkpt lat="56.375886965543032" lon="-6.004838012158871">
        <ele>10.710000000000001</ele>
        <time>2023-08-30T13:21:45Z</time>
      </trkpt>
      <trkpt lat="56.376016968861222" lon="-6.004743967205286">
        <ele>10.710000000000001</ele>
        <time>2023-08-30T13:21:46Z</time>
      </trkpt>
      <trkpt lat="56.376141021028161" lon="-6.004635002464056">
        <ele>10.23</ele>
        <time>2023-08-30T13:21:47Z</time>
      </trkpt>
      <trkpt lat="56.376264989376068" lon="-6.004503993317485">
        <ele>9.75</ele>
        <time>2023-08-30T13:21:48Z</time>
      </trkpt>
      <trkpt lat="56.377766020596027" lon="-6.00311703979969">
        <ele>8.789999999999999</ele>
        <time>2023-08-30T13:21:59Z</time>
      </trkpt>
      <trkpt lat="56.378928003832698" lon="-6.002351017668843">
        <ele>9.27</ele>
        <time>2023-08-30T13:22:07Z</time>
      </trkpt>
      <trkpt lat="56.379164960235357" lon="-6.002176003530622">
        <ele>9.27</ele>
        <time>2023-08-30T13:22:09Z</time>
      </trkpt>
      <trkpt lat="56.379474001005292" lon="-6.001948015764356">
        <ele>10.23</ele>
        <time>2023-08-30T13:22:12Z</time>
      </trkpt>
      <trkpt lat="56.379583971574903" lon="-6.00187299773097">
        <ele>10.710000000000001</ele>
        <time>2023-08-30T13:22:13Z</time>
      </trkpt>
      <trkpt lat="56.380531964823604" lon="-6.001459015533328">
        <ele>10.23</ele>
        <time>2023-08-30T13:22:20Z</time>
      </trkpt>
      <trkpt lat="56.381080979481339" lon="-6.001157015562058">
        <ele>9.75</ele>
        <time>2023-08-30T13:22:24Z</time>
      </trkpt>
      <trkpt lat="56.381198996677995" lon="-6.00105601362884">
        <ele>9.75</ele>
        <time>2023-08-30T13:22:25Z</time>
      </trkpt>
      <trkpt lat="56.381299998611212" lon="-6.000922992825508">
        <ele>9.75</ele>
        <time>2023-08-30T13:22:26Z</time>
      </trkpt>
      <trkpt lat="56.381401000544429" lon="-6.000758958980441">
        <ele>9.75</ele>
        <time>2023-08-30T13:22:27Z</time>
      </trkpt>
      <trkpt lat="56.381495967507362" lon="-6.000568019226193">
        <ele>9.75</ele>
        <time>2023-08-30T13:22:28Z</time>
      </trkpt>
      <trkpt lat="56.382558038458228" lon="-5.998224020004273">
        <ele>9.75</ele>
        <time>2023-08-30T13:22:39Z</time>
      </trkpt>
      <trkpt lat="56.382699022069573" lon="-5.997413992881775">
        <ele>9.75</ele>
        <time>2023-08-30T13:22:42Z</time>
      </trkpt>
      <trkpt lat="56.382841011509299" lon="-5.994955999776721">
        <ele>9.27</ele>
        <time>2023-08-30T13:22:51Z</time>
      </trkpt>
      <trkpt lat="56.382651999592781" lon="-5.992764970287681">
        <ele>8.310000000000001</ele>
        <time>2023-08-30T13:22:59Z</time>
      </trkpt>
      <trkpt lat="56.382651999592781" lon="-5.992489960044622">
        <ele>8.310000000000001</ele>
        <time>2023-08-30T13:23:00Z</time>
      </trkpt>
      <trkpt lat="56.382651999592781" lon="-5.99220396950841">
        <ele>8.310000000000001</ele>
        <time>2023-08-30T13:23:01Z</time>
      </trkpt>
      <trkpt lat="56.382667003199458" lon="-5.991934994235635">
        <ele>8.310000000000001</ele>
        <time>2023-08-30T13:23:02Z</time>
      </trkpt>
      <trkpt lat="56.382702039554715" lon="-5.991668030619621">
        <ele>8.310000000000001</ele>
        <time>2023-08-30T13:23:03Z</time>
      </trkpt>
      <trkpt lat="56.382737997919321" lon="-5.991390002891421">
        <ele>8.789999999999999</ele>
        <time>2023-08-30T13:23:04Z</time>
      </trkpt>
      <trkpt lat="56.382790971547365" lon="-5.991140976548195">
        <ele>9.27</ele>
        <time>2023-08-30T13:23:05Z</time>
      </trkpt>
      <trkpt lat="56.383370999246836" lon="-5.987903969362378">
        <ele>8.789999999999999</ele>
        <time>2023-08-30T13:23:17Z</time>
      </trkpt>
      <trkpt lat="56.38338097371161" lon="-5.987620996311307">
        <ele>8.789999999999999</ele>
        <time>2023-08-30T13:23:18Z</time>
      </trkpt>
      <trkpt lat="56.383361024782062" lon="-5.984063968062401">
        <ele>9.27</ele>
        <time>2023-08-30T13:23:30Z</time>
      </trkpt>
      <trkpt lat="56.38340201228857" lon="-5.98324597813189">
        <ele>8.789999999999999</ele>
        <time>2023-08-30T13:23:33Z</time>
      </trkpt>
      <trkpt lat="56.383463032543659" lon="-5.982997035607696">
        <ele>8.310000000000001</ele>
        <time>2023-08-30T13:23:34Z</time>
      </trkpt>
      <trkpt lat="56.383522041141987" lon="-5.982757983729243">
        <ele>8.310000000000001</ele>
        <time>2023-08-30T13:23:35Z</time>
      </trkpt>
      <trkpt lat="56.383582977578044" lon="-5.982515998184681">
        <ele>7.83</ele>
        <time>2023-08-30T13:23:36Z</time>
      </trkpt>
      <trkpt lat="56.383656989783049" lon="-5.982284992933273">
        <ele>7.83</ele>
        <time>2023-08-30T13:23:37Z</time>
      </trkpt>
      <trkpt lat="56.384485037997365" lon="-5.980651024729013">
        <ele>9.75</ele>
        <time>2023-08-30T13:23:45Z</time>
      </trkpt>
      <trkpt lat="56.385746011510491" lon="-5.978720001876354">
        <ele>8.789999999999999</ele>
        <time>2023-08-30T13:23:56Z</time>
      </trkpt>
      <trkpt lat="56.385878026485443" lon="-5.978637021034956">
        <ele>8.789999999999999</ele>
        <time>2023-08-30T13:23:57Z</time>
      </trkpt>
      <trkpt lat="56.386018004268408" lon="-5.978583041578531">
        <ele>8.789999999999999</ele>
        <time>2023-08-30T13:23:58Z</time>
      </trkpt>
      <trkpt lat="56.386158987879753" lon="-5.978526966646314">
        <ele>9.27</ele>
        <time>2023-08-30T13:23:59Z</time>
      </trkpt>
      <trkpt lat="56.386299971491098" lon="-5.978471981361508">
        <ele>9.27</ele>
        <time>2023-08-30T13:24:00Z</time>
      </trkpt>
      <trkpt lat="56.386441038921475" lon="-5.978456977754831">
        <ele>9.27</ele>
        <time>2023-08-30T13:24:01Z</time>
      </trkpt>
      <trkpt lat="56.388101996853948" lon="-5.978128993883729">
        <ele>10.710000000000001</ele>
        <time>2023-08-30T13:24:12Z</time>
      </trkpt>
      <trkpt lat="56.390382964164019" lon="-5.977316033095121">
        <ele>9.75</ele>
        <time>2023-08-30T13:24:26Z</time>
      </trkpt>
      <trkpt lat="56.392001006752253" lon="-5.976581024006009">
        <ele>11.67</ele>
        <time>2023-08-30T13:24:37Z</time>
      </trkpt>
      <trkpt lat="56.392262019217014" lon="-5.97628204151988">
        <ele>12.630000000000001</ele>
        <time>2023-08-30T13:24:42Z</time>
      </trkpt>
      <trkpt lat="56.392311975359917" lon="-5.976221021264792">
        <ele>12.630000000000001</ele>
        <time>2023-08-30T13:24:43Z</time>
      </trkpt>
      <trkpt lat="56.392863001674414" lon="-5.975374029949307">
        <ele>13.119999999999999</ele>
        <time>2023-08-30T13:24:50Z</time>
      </trkpt>
      <trkpt lat="56.393839996308088" lon="-5.974062010645866">
        <ele>13.119999999999999</ele>
        <time>2023-08-30T13:24:59Z</time>
      </trkpt>
      <trkpt lat="56.394926961511374" lon="-5.973719023168087">
        <ele>13.119999999999999</ele>
        <time>2023-08-30T13:25:07Z</time>
      </trkpt>
      <trkpt lat="56.3970029912889" lon="-5.973490029573441">
        <ele>16</ele>
        <time>2023-08-30T13:25:20Z</time>
      </trkpt>
      <trkpt lat="56.398544004186988" lon="-5.973047968000174">
        <ele>18.879999999999999</ele>
        <time>2023-08-30T13:25:30Z</time>
      </trkpt>
      <trkpt lat="56.399729959666729" lon="-5.971785988658667">
        <ele>20.809999999999999</ele>
        <time>2023-08-30T13:25:39Z</time>
      </trkpt>
      <trkpt lat="56.400713995099068" lon="-5.969908023253083">
        <ele>21.77</ele>
        <time>2023-08-30T13:25:48Z</time>
      </trkpt>
      <trkpt lat="56.402060966938734" lon="-5.967115005478263">
        <ele>24.649999999999999</ele>
        <time>2023-08-30T13:26:01Z</time>
      </trkpt>
      <trkpt lat="56.403453033417463" lon="-5.964155020192266">
        <ele>26.57</ele>
        <time>2023-08-30T13:26:13Z</time>
      </trkpt>
      <trkpt lat="56.404130039736629" lon="-5.962616018950939">
        <ele>28.02</ele>
        <time>2023-08-30T13:26:19Z</time>
      </trkpt>
      <trkpt lat="56.404561037197709" lon="-5.96062196418643">
        <ele>30.420000000000002</ele>
        <time>2023-08-30T13:26:26Z</time>
      </trkpt>
      <trkpt lat="56.404660027474165" lon="-5.957465004175901">
        <ele>34.259999999999998</ele>
        <time>2023-08-30T13:26:36Z</time>
      </trkpt>
      <trkpt lat="56.404723981395364" lon="-5.952763007953763">
        <ele>38.590000000000003</ele>
        <time>2023-08-30T13:26:51Z</time>
      </trkpt>
      <trkpt lat="56.404786007478833" lon="-5.948264021426439">
        <ele>39.549999999999997</ele>
        <time>2023-08-30T13:27:05Z</time>
      </trkpt>
      <trkpt lat="56.404824983328581" lon="-5.945378970354796">
        <ele>43.399999999999999</ele>
        <time>2023-08-30T13:27:15Z</time>
      </trkpt>
      <trkpt lat="56.404875023290515" lon="-5.941723035648465">
        <ele>50.130000000000003</ele>
        <time>2023-08-30T13:27:27Z</time>
      </trkpt>
      <trkpt lat="56.404763963073492" lon="-5.938773024827242">
        <ele>58.299999999999997</ele>
        <time>2023-08-30T13:27:37Z</time>
      </trkpt>
      <trkpt lat="56.404232969507575" lon="-5.935864001512528">
        <ele>65.989999999999995</ele>
        <time>2023-08-30T13:27:47Z</time>
      </trkpt>
      <trkpt lat="56.403323030099273" lon="-5.931802969425917">
        <ele>74.640000000000001</ele>
        <time>2023-08-30T13:28:00Z</time>
      </trkpt>
      <trkpt lat="56.402624985203147" lon="-5.929818972945213">
        <ele>80.890000000000001</ele>
        <time>2023-08-30T13:28:08Z</time>
      </trkpt>
      <trkpt lat="56.400876017287374" lon="-5.926785981282592">
        <ele>89.540000000000006</ele>
        <time>2023-08-30T13:28:23Z</time>
      </trkpt>
      <trkpt lat="56.399053037166595" lon="-5.923523996025324">
        <ele>98.670000000000002</ele>
        <time>2023-08-30T13:28:38Z</time>
      </trkpt>
      <trkpt lat="56.398402014747262" lon="-5.921293990686536">
        <ele>99.629999999999995</ele>
        <time>2023-08-30T13:28:46Z</time>
      </trkpt>
      <trkpt lat="56.397909997031093" lon="-5.918463002890348">
        <ele>99.629999999999995</ele>
        <time>2023-08-30T13:28:56Z</time>
      </trkpt>
      <trkpt lat="56.39747598208487" lon="-5.916223023086786">
        <ele>101.08</ele>
        <time>2023-08-30T13:29:06Z</time>
      </trkpt>
      <trkpt lat="56.396724041551352" lon="-5.914659965783358">
        <ele>103</ele>
        <time>2023-08-30T13:29:15Z</time>
      </trkpt>
      <trkpt lat="56.395572032779455" lon="-5.912287971004844">
        <ele>105.88</ele>
        <time>2023-08-30T13:29:27Z</time>
      </trkpt>
      <trkpt lat="56.394870970398188" lon="-5.910123009234667">
        <ele>106.36</ele>
        <time>2023-08-30T13:29:37Z</time>
      </trkpt>
      <trkpt lat="56.394293960183859" lon="-5.907257990911603">
        <ele>110.20999999999999</ele>
        <time>2023-08-30T13:29:49Z</time>
      </trkpt>
      <trkpt lat="56.393907973542809" lon="-5.904968976974487">
        <ele>117.90000000000001</ele>
        <time>2023-08-30T13:30:00Z</time>
      </trkpt>
      <trkpt lat="56.393625000491738" lon="-5.901801958680153">
        <ele>126.06999999999999</ele>
        <time>2023-08-30T13:30:13Z</time>
      </trkpt>
      <trkpt lat="56.393665987998247" lon="-5.90000999160111">
        <ele>132.80000000000001</ele>
        <time>2023-08-30T13:30:21Z</time>
      </trkpt>
      <trkpt lat="56.393859023228288" lon="-5.897916024550796">
        <ele>139.05000000000001</ele>
        <time>2023-08-30T13:30:31Z</time>
      </trkpt>
      <trkpt lat="56.394458999857306" lon="-5.895249992609024">
        <ele>136.63999999999999</ele>
        <time>2023-08-30T13:30:42Z</time>
      </trkpt>
      <trkpt lat="56.395391989499331" lon="-5.89281396009028">
        <ele>143.37</ele>
        <time>2023-08-30T13:30:54Z</time>
      </trkpt>
      <trkpt lat="56.396631002426147" lon="-5.890824012458324">
        <ele>149.13999999999999</ele>
        <time>2023-08-30T13:31:05Z</time>
      </trkpt>
      <trkpt lat="56.398005969822407" lon="-5.888931965455413">
        <ele>152.50999999999999</ele>
        <time>2023-08-30T13:31:16Z</time>
      </trkpt>
      <trkpt lat="56.398831000551581" lon="-5.887233959510922">
        <ele>155.38999999999999</ele>
        <time>2023-08-30T13:31:25Z</time>
      </trkpt>
      <trkpt lat="56.399168036878109" lon="-5.885945996269584">
        <ele>157.31</ele>
        <time>2023-08-30T13:31:32Z</time>
      </trkpt>
      <trkpt lat="56.399763990193605" lon="-5.882918033748865">
        <ele>159.24000000000001</ele>
        <time>2023-08-30T13:31:43Z</time>
      </trkpt>
      <trkpt lat="56.400712989270687" lon="-5.878644017502666">
        <ele>170.28999999999999</ele>
        <time>2023-08-30T13:31:57Z</time>
      </trkpt>
      <trkpt lat="56.401869021356106" lon="-5.874118041247129">
        <ele>191.91999999999999</ele>
        <time>2023-08-30T13:32:11Z</time>
      </trkpt>
      <trkpt lat="56.402807040140033" lon="-5.870864018797875">
        <ele>204.90000000000001</ele>
        <time>2023-08-30T13:32:22Z</time>
      </trkpt>
      <trkpt lat="56.403350019827485" lon="-5.868978006765246">
        <ele>208.74000000000001</ele>
        <time>2023-08-30T13:32:30Z</time>
      </trkpt>
      <trkpt lat="56.40406901948154" lon="-5.866481037810445">
        <ele>206.81999999999999</ele>
        <time>2023-08-30T13:32:38Z</time>
      </trkpt>
      <trkpt lat="56.404559025540948" lon="-5.863778963685036">
        <ele>208.25999999999999</ele>
        <time>2023-08-30T13:32:47Z</time>
      </trkpt>
      <trkpt lat="56.404541004449129" lon="-5.861980961635709">
        <ele>212.11000000000001</ele>
        <time>2023-08-30T13:32:54Z</time>
      </trkpt>
      <trkpt lat="56.404824983328581" lon="-5.859249969944358">
        <ele>210.19</ele>
        <time>2023-08-30T13:33:04Z</time>
      </trkpt>
      <trkpt lat="56.405459996312857" lon="-5.855494039133191">
        <ele>202.49000000000001</ele>
        <time>2023-08-30T13:33:16Z</time>
      </trkpt>
      <trkpt lat="56.406186958774924" lon="-5.85246498696506">
        <ele>193.84</ele>
        <time>2023-08-30T13:33:26Z</time>
      </trkpt>
      <trkpt lat="56.407366041094065" lon="-5.85003599524498">
        <ele>185.66999999999999</ele>
        <time>2023-08-30T13:33:36Z</time>
      </trkpt>
      <trkpt lat="56.408869000151753" lon="-5.847819987684488">
        <ele>178.46000000000001</ele>
        <time>2023-08-30T13:33:47Z</time>
      </trkpt>
      <trkpt lat="56.410439014434814" lon="-5.846609976142645">
        <ele>171.25</ele>
        <time>2023-08-30T13:33:57Z</time>
      </trkpt>
      <trkpt lat="56.412241961807013" lon="-5.845757033675909">
        <ele>165</ele>
        <time>2023-08-30T13:34:08Z</time>
      </trkpt>
      <trkpt lat="56.413949020206928" lon="-5.844611981883645">
        <ele>157.78999999999999</ele>
        <time>2023-08-30T13:34:18Z</time>
      </trkpt>
      <trkpt lat="56.415900997817516" lon="-5.842851027846336">
        <ele>149.62</ele>
        <time>2023-08-30T13:34:30Z</time>
      </trkpt>
      <trkpt lat="56.417404962703586" lon="-5.841188980266452">
        <ele>150.09999999999999</ele>
        <time>2023-08-30T13:34:40Z</time>
      </trkpt>
      <trkpt lat="56.418502992019057" lon="-5.839099958539009">
        <ele>154.91</ele>
        <time>2023-08-30T13:34:49Z</time>
      </trkpt>
      <trkpt lat="56.419721972197294" lon="-5.835965964943171">
        <ele>152.50999999999999</ele>
        <time>2023-08-30T13:35:00Z</time>
      </trkpt>
      <trkpt lat="56.420964002609253" lon="-5.832772040739656">
        <ele>148.18000000000001</ele>
        <time>2023-08-30T13:35:12Z</time>
      </trkpt>
      <trkpt lat="56.422356991097331" lon="-5.829774001613259">
        <ele>149.13999999999999</ele>
        <time>2023-08-30T13:35:25Z</time>
      </trkpt>
      <trkpt lat="56.423779986798763" lon="-5.828160988166928">
        <ele>147.69999999999999</ele>
        <time>2023-08-30T13:35:35Z</time>
      </trkpt>
      <trkpt lat="56.425271965563297" lon="-5.82738901488483">
        <ele>141.93000000000001</ele>
        <time>2023-08-30T13:35:44Z</time>
      </trkpt>
      <trkpt lat="56.427094023674726" lon="-5.827114004641771">
        <ele>130.40000000000001</ele>
        <time>2023-08-30T13:35:54Z</time>
      </trkpt>
      <trkpt lat="56.428201021626592" lon="-5.826420988887548">
        <ele>122.70999999999999</ele>
        <time>2023-08-30T13:36:01Z</time>
      </trkpt>
      <trkpt lat="56.429051030427217" lon="-5.825078962370753">
        <ele>115.5</ele>
        <time>2023-08-30T13:36:08Z</time>
      </trkpt>
      <trkpt lat="56.429511029273272" lon="-5.823516994714737">
        <ele>110.20999999999999</ele>
        <time>2023-08-30T13:36:14Z</time>
      </trkpt>
      <trkpt lat="56.429547993466258" lon="-5.823208037763834">
        <ele>109.25</ele>
        <time>2023-08-30T13:36:15Z</time>
      </trkpt>
      <trkpt lat="56.429585041478276" lon="-5.822897991165519">
        <ele>108.77</ele>
        <time>2023-08-30T13:36:16Z</time>
      </trkpt>
      <trkpt lat="56.429622005671263" lon="-5.822591967880726">
        <ele>107.81</ele>
        <time>2023-08-30T13:36:17Z</time>
      </trkpt>
      <trkpt lat="56.42963801510632" lon="-5.822290973737836">
        <ele>106.84</ele>
        <time>2023-08-30T13:36:18Z</time>
      </trkpt>
      <trkpt lat="56.429653018712997" lon="-5.821986040100455">
        <ele>106.36</ele>
        <time>2023-08-30T13:36:19Z</time>
      </trkpt>
      <trkpt lat="56.429661987349391" lon="-5.821687979623675">
        <ele>105.40000000000001</ele>
        <time>2023-08-30T13:36:20Z</time>
      </trkpt>
      <trkpt lat="56.429641032591462" lon="-5.821392014622688">
        <ele>105.40000000000001</ele>
        <time>2023-08-30T13:36:21Z</time>
      </trkpt>
      <trkpt lat="56.429262002930045" lon="-5.819201990962029">
        <ele>105.40000000000001</ele>
        <time>2023-08-30T13:36:29Z</time>
      </trkpt>
      <trkpt lat="56.428330019116402" lon="-5.81718597561121">
        <ele>105.40000000000001</ele>
        <time>2023-08-30T13:36:37Z</time>
      </trkpt>
      <trkpt lat="56.427063010632992" lon="-5.814388012513518">
        <ele>104.44</ele>
        <time>2023-08-30T13:36:48Z</time>
      </trkpt>
      <trkpt lat="56.426196992397308" lon="-5.811197021976113">
        <ele>101.56</ele>
        <time>2023-08-30T13:36:58Z</time>
      </trkpt>
      <trkpt lat="56.425160989165306" lon="-5.807399014011025">
        <ele>100.59999999999999</ele>
        <time>2023-08-30T13:37:10Z</time>
      </trkpt>
      <trkpt lat="56.424108976498246" lon="-5.805206978693605">
        <ele>97.230000000000004</ele>
        <time>2023-08-30T13:37:18Z</time>
      </trkpt>
      <trkpt lat="56.422712970525026" lon="-5.802509011700749">
        <ele>91.459999999999994</ele>
        <time>2023-08-30T13:37:29Z</time>
      </trkpt>
      <trkpt lat="56.421285029500723" lon="-5.798671022057533">
        <ele>78.480000000000004</ele>
        <time>2023-08-30T13:37:42Z</time>
      </trkpt>
      <trkpt lat="56.420032018795609" lon="-5.795303005725145">
        <ele>77.040000000000006</ele>
        <time>2023-08-30T13:37:54Z</time>
      </trkpt>
      <trkpt lat="56.418703990057111" lon="-5.791290001943708">
        <ele>84.25</ele>
        <time>2023-08-30T13:38:08Z</time>
      </trkpt>
      <trkpt lat="56.418149024248123" lon="-5.788679961115122">
        <ele>82.329999999999998</ele>
        <time>2023-08-30T13:38:16Z</time>
      </trkpt>
      <trkpt lat="56.417132969945669" lon="-5.785564994439483">
        <ele>74.159999999999997</ele>
        <time>2023-08-30T13:38:27Z</time>
      </trkpt>
      <trkpt lat="56.416559983044863" lon="-5.782534014433622">
        <ele>66.469999999999999</ele>
        <time>2023-08-30T13:38:37Z</time>
      </trkpt>
      <trkpt lat="56.416498040780425" lon="-5.779505968093872">
        <ele>58.299999999999997</ele>
        <time>2023-08-30T13:38:46Z</time>
      </trkpt>
      <trkpt lat="56.416567023843527" lon="-5.777104971930385">
        <ele>52.530000000000001</ele>
        <time>2023-08-30T13:38:53Z</time>
      </trkpt>
      <trkpt lat="56.4163179975003" lon="-5.774918971583247">
        <ele>47.719999999999999</ele>
        <time>2023-08-30T13:39:00Z</time>
      </trkpt>
      <trkpt lat="56.415507970377803" lon="-5.771255996078253">
        <ele>45.799999999999997</ele>
        <time>2023-08-30T13:39:12Z</time>
      </trkpt>
      <trkpt lat="56.414773967117071" lon="-5.76793902553618">
        <ele>47.240000000000002</ele>
        <time>2023-08-30T13:39:23Z</time>
      </trkpt>
      <trkpt lat="56.414567017927766" lon="-5.767002012580633">
        <ele>46.759999999999998</ele>
        <time>2023-08-30T13:39:28Z</time>
      </trkpt>
      <trkpt lat="56.414521001279354" lon="-5.766796991229057">
        <ele>45.32</ele>
        <time>2023-08-30T13:39:35Z</time>
      </trkpt>
      <trkpt lat="56.414510020986199" lon="-5.766746029257774">
        <ele>45.32</ele>
        <time>2023-08-30T13:39:36Z</time>
      </trkpt>
      <trkpt lat="56.414496023207903" lon="-5.766682997345924">
        <ele>45.32</ele>
        <time>2023-08-30T13:39:37Z</time>
      </trkpt>
      <trkpt lat="56.414472972974181" lon="-5.766579983755946">
        <ele>45.32</ele>
        <time>2023-08-30T13:39:38Z</time>
      </trkpt>
      <trkpt lat="56.414444977417588" lon="-5.766452997922897">
        <ele>44.840000000000003</ele>
        <time>2023-08-30T13:39:39Z</time>
      </trkpt>
      <trkpt lat="56.414411030709743" lon="-5.766298016533256">
        <ele>44.840000000000003</ele>
        <time>2023-08-30T13:39:40Z</time>
      </trkpt>
      <trkpt lat="56.414034012705088" lon="-5.764593975618482">
        <ele>41.950000000000003</ele>
        <time>2023-08-30T13:39:47Z</time>
      </trkpt>
      <trkpt lat="56.413316018879414" lon="-5.761844962835312">
        <ele>33.299999999999997</ele>
        <time>2023-08-30T13:39:56Z</time>
      </trkpt>
      <trkpt lat="56.412671031430364" lon="-5.759721994400024">
        <ele>24.649999999999999</ele>
        <time>2023-08-30T13:40:04Z</time>
      </trkpt>
      <trkpt lat="56.412615962326527" lon="-5.759428963065147">
        <ele>23.210000000000001</ele>
        <time>2023-08-30T13:40:05Z</time>
      </trkpt>
      <trkpt lat="56.412562988698483" lon="-5.759138027206063">
        <ele>21.77</ele>
        <time>2023-08-30T13:40:06Z</time>
      </trkpt>
      <trkpt lat="56.412396021187305" lon="-5.756636029109359">
        <ele>13.119999999999999</ele>
        <time>2023-08-30T13:40:15Z</time>
      </trkpt>
      <trkpt lat="56.412259982898831" lon="-5.754726966843009">
        <ele>7.83</ele>
        <time>2023-08-30T13:40:22Z</time>
      </trkpt>
      <trkpt lat="56.412221007049084" lon="-5.753195006400347">
        <ele>5.42</ele>
        <time>2023-08-30T13:40:27Z</time>
      </trkpt>
      <trkpt lat="56.412268029525876" lon="-5.752884959802032">
        <ele>5.42</ele>
        <time>2023-08-30T13:40:28Z</time>
      </trkpt>
      <trkpt lat="56.412316979840398" lon="-5.752591006457806">
        <ele>5.42</ele>
        <time>2023-08-30T13:40:29Z</time>
      </trkpt>
      <trkpt lat="56.41236400231719" lon="-5.752304010093212">
        <ele>5.42</ele>
        <time>2023-08-30T13:40:30Z</time>
      </trkpt>
      <trkpt lat="56.412432985380292" lon="-5.752025982365012">
        <ele>5.42</ele>
        <time>2023-08-30T13:40:31Z</time>
      </trkpt>
      <trkpt lat="56.412524012848735" lon="-5.751776034012437">
        <ele>4.94</ele>
        <time>2023-08-30T13:40:32Z</time>
      </trkpt>
      <trkpt lat="56.412615962326527" lon="-5.751522984355688">
        <ele>4.94</ele>
        <time>2023-08-30T13:40:33Z</time>
      </trkpt>
      <trkpt lat="56.412722999230027" lon="-5.751289967447519">
        <ele>4.94</ele>
        <time>2023-08-30T13:40:34Z</time>
      </trkpt>
      <trkpt lat="56.413660012185574" lon="-5.749391969293356">
        <ele>4.94</ele>
        <time>2023-08-30T13:40:42Z</time>
      </trkpt>
      <trkpt lat="56.414000988006592" lon="-5.74768097139895">
        <ele>6.39</ele>
        <time>2023-08-30T13:40:48Z</time>
      </trkpt>
      <trkpt lat="56.414024960249662" lon="-5.747376037761569">
        <ele>6.87</ele>
        <time>2023-08-30T13:40:49Z</time>
      </trkpt>
      <trkpt lat="56.414041975513101" lon="-5.747072026133537">
        <ele>6.87</ele>
        <time>2023-08-30T13:40:50Z</time>
      </trkpt>
      <trkpt lat="56.414024038240314" lon="-5.74675896205008">
        <ele>7.35</ele>
        <time>2023-08-30T13:40:51Z</time>
      </trkpt>
      <trkpt lat="56.414007022976875" lon="-5.746448999270797">
        <ele>7.35</ele>
        <time>2023-08-30T13:40:52Z</time>
      </trkpt>
      <trkpt lat="56.413967041298747" lon="-5.74615303426981">
        <ele>7.35</ele>
        <time>2023-08-30T13:40:53Z</time>
      </trkpt>
      <trkpt lat="56.413756990805268" lon="-5.745143014937639">
        <ele>7.83</ele>
        <time>2023-08-30T13:40:57Z</time>
      </trkpt>
      <trkpt lat="56.413419032469392" lon="-5.743897967040539">
        <ele>7.35</ele>
        <time>2023-08-30T13:41:04Z</time>
      </trkpt>
      <trkpt lat="56.41322398558259" lon="-5.743179973214865">
        <ele>6.39</ele>
        <time>2023-08-30T13:41:12Z</time>
      </trkpt>
      <trkpt lat="56.413205964490771" lon="-5.743115013465285">
        <ele>6.39</ele>
        <time>2023-08-30T13:41:13Z</time>
      </trkpt>
      <trkpt lat="56.413181992247701" lon="-5.743027003481984">
        <ele>6.39</ele>
        <time>2023-08-30T13:41:14Z</time>
      </trkpt>
      <trkpt lat="56.413151985034347" lon="-5.742916027083993">
        <ele>6.39</ele>
        <time>2023-08-30T13:41:15Z</time>
      </trkpt>
      <trkpt lat="56.41281302087009" lon="-5.741667039692402">
        <ele>5.91</ele>
        <time>2023-08-30T13:41:22Z</time>
      </trkpt>
      <trkpt lat="56.412221007049084" lon="-5.739406021311879">
        <ele>6.87</ele>
        <time>2023-08-30T13:41:31Z</time>
      </trkpt>
      <trkpt lat="56.412145989015698" lon="-5.737714972347021">
        <ele>6.87</ele>
        <time>2023-08-30T13:41:37Z</time>
      </trkpt>
      <trkpt lat="56.412174990400672" lon="-5.737440967932344">
        <ele>6.87</ele>
        <time>2023-08-30T13:41:38Z</time>
      </trkpt>
      <trkpt lat="56.412354027852416" lon="-5.736432038247585">
        <ele>6.87</ele>
        <time>2023-08-30T13:41:42Z</time>
      </trkpt>
      <trkpt lat="56.412424016743898" lon="-5.736192986369133">
        <ele>6.87</ele>
        <time>2023-08-30T13:41:43Z</time>
      </trkpt>
      <trkpt lat="56.413340996950865" lon="-5.73378000408411">
        <ele>4.94</ele>
        <time>2023-08-30T13:41:53Z</time>
      </trkpt>
      <trkpt lat="56.41466299071908" lon="-5.730391032993794">
        <ele>6.87</ele>
        <time>2023-08-30T13:42:07Z</time>
      </trkpt>
      <trkpt lat="56.415177974849939" lon="-5.727805970236659">
        <ele>9.75</ele>
        <time>2023-08-30T13:42:16Z</time>
      </trkpt>
      <trkpt lat="56.415296997874975" lon="-5.726729985326529">
        <ele>9.75</ele>
        <time>2023-08-30T13:42:21Z</time>
      </trkpt>
      <trkpt lat="56.415449967607856" lon="-5.725333979353309">
        <ele>10.23</ele>
        <time>2023-08-30T13:42:28Z</time>
      </trkpt>
      <trkpt lat="56.415860010311007" lon="-5.72256401181221">
        <ele>10.23</ele>
        <time>2023-08-30T13:42:38Z</time>
      </trkpt>
      <trkpt lat="56.416761986911297" lon="-5.719336979091167">
        <ele>9.75</ele>
        <time>2023-08-30T13:42:50Z</time>
      </trkpt>
      <trkpt lat="56.417700005695224" lon="-5.717574013397098">
        <ele>12.15</ele>
        <time>2023-08-30T13:42:58Z</time>
      </trkpt>
      <trkpt lat="56.41810099594295" lon="-5.716915028169751">
        <ele>11.67</ele>
        <time>2023-08-30T13:43:03Z</time>
      </trkpt>
      <trkpt lat="56.418119017034769" lon="-5.716878985986114">
        <ele>12.15</ele>
        <time>2023-08-30T13:43:10Z</time>
      </trkpt>
      <trkpt lat="56.418176013976336" lon="-5.716758035123348">
        <ele>12.15</ele>
        <time>2023-08-30T13:43:13Z</time>
      </trkpt>
      <trkpt lat="56.418630983680487" lon="-5.715755978599191">
        <ele>12.15</ele>
        <time>2023-08-30T13:43:20Z</time>
      </trkpt>
      <trkpt lat="56.419522985816002" lon="-5.713671986013651">
        <ele>14.08</ele>
        <time>2023-08-30T13:43:29Z</time>
      </trkpt>
      <trkpt lat="56.420797035098076" lon="-5.710379993543029">
        <ele>15.039999999999999</ele>
        <time>2023-08-30T13:43:43Z</time>
      </trkpt>
      <trkpt lat="56.421143040060997" lon="-5.70784698240459">
        <ele>16</ele>
        <time>2023-08-30T13:43:52Z</time>
      </trkpt>
      <trkpt lat="56.421427018940449" lon="-5.703500965610147">
        <ele>19.84</ele>
        <time>2023-08-30T13:44:07Z</time>
      </trkpt>
      <trkpt lat="56.421841001138091" lon="-5.701221004128456">
        <ele>21.289999999999999</ele>
        <time>2023-08-30T13:44:15Z</time>
      </trkpt>
      <trkpt lat="56.422648010775447" lon="-5.699601033702493">
        <ele>19.84</ele>
        <time>2023-08-30T13:44:22Z</time>
      </trkpt>
      <trkpt lat="56.422795029357076" lon="-5.699418978765607">
        <ele>19.84</ele>
        <time>2023-08-30T13:44:23Z</time>
      </trkpt>
      <trkpt lat="56.424104031175375" lon="-5.698571987450123">
        <ele>15.039999999999999</ele>
        <time>2023-08-30T13:44:31Z</time>
      </trkpt>
      <trkpt lat="56.426392961293459" lon="-5.697920965030789">
        <ele>9.75</ele>
        <time>2023-08-30T13:44:44Z</time>
      </trkpt>
      <trkpt lat="56.427929028868675" lon="-5.696982024237514">
        <ele>9.75</ele>
        <time>2023-08-30T13:44:53Z</time>
      </trkpt>
      <trkpt lat="56.430460028350353" lon="-5.695066004991531">
        <ele>12.630000000000001</ele>
        <time>2023-08-30T13:45:09Z</time>
      </trkpt>
      <trkpt lat="56.431161006912589" lon="-5.694217002019286">
        <ele>12.15</ele>
        <time>2023-08-30T13:45:14Z</time>
      </trkpt>
      <trkpt lat="56.431283969432116" lon="-5.69400804117322">
        <ele>12.15</ele>
        <time>2023-08-30T13:45:15Z</time>
      </trkpt>
      <trkpt lat="56.431371979415417" lon="-5.693747028708458">
        <ele>11.67</ele>
        <time>2023-08-30T13:45:16Z</time>
      </trkpt>
      <trkpt lat="56.431456971913576" lon="-5.693480987101793">
        <ele>11.67</ele>
        <time>2023-08-30T13:45:17Z</time>
      </trkpt>
      <trkpt lat="56.431541964411736" lon="-5.69321502931416">
        <ele>12.15</ele>
        <time>2023-08-30T13:45:18Z</time>
      </trkpt>
      <trkpt lat="56.431627040728927" lon="-5.692946976050735">
        <ele>12.15</ele>
        <time>2023-08-30T13:45:19Z</time>
      </trkpt>
      <trkpt lat="56.431711027398705" lon="-5.692681018263102">
        <ele>12.630000000000001</ele>
        <time>2023-08-30T13:45:20Z</time>
      </trkpt>
      <trkpt lat="56.431796019896865" lon="-5.692414976656437">
        <ele>13.119999999999999</ele>
        <time>2023-08-30T13:45:21Z</time>
      </trkpt>
      <trkpt lat="56.432462967932224" lon="-5.69104696623981">
        <ele>14.56</ele>
        <time>2023-08-30T13:45:27Z</time>
      </trkpt>
      <trkpt lat="56.432608980685472" lon="-5.690920986235142">
        <ele>14.56</ele>
        <time>2023-08-30T13:45:28Z</time>
      </trkpt>
      <trkpt lat="56.432762034237385" lon="-5.690800035372376">
        <ele>15.039999999999999</ele>
        <time>2023-08-30T13:45:29Z</time>
      </trkpt>
      <trkpt lat="56.432913998141885" lon="-5.690679000690579">
        <ele>15.039999999999999</ele>
        <time>2023-08-30T13:45:30Z</time>
      </trkpt>
      <trkpt lat="56.433036038652062" lon="-5.690599959343672">
        <ele>15.52</ele>
        <time>2023-08-30T13:45:31Z</time>
      </trkpt>
      <trkpt lat="56.433120025321841" lon="-5.690566012635827">
        <ele>15.52</ele>
        <time>2023-08-30T13:45:32Z</time>
      </trkpt>
      <trkpt lat="56.433166963979602" lon="-5.690546985715628">
        <ele>15.52</ele>
        <time>2023-08-30T13:45:33Z</time>
      </trkpt>
      <trkpt lat="56.433190014213324" lon="-5.690537011250854">
        <ele>15.52</ele>
        <time>2023-08-30T13:45:34Z</time>
      </trkpt>
      <trkpt lat="56.433207029476762" lon="-5.69053097628057">
        <ele>15.039999999999999</ele>
        <time>2023-08-30T13:45:43Z</time>
      </trkpt>
      <trkpt lat="56.433233013376594" lon="-5.690519995987415">
        <ele>15.52</ele>
        <time>2023-08-30T13:45:44Z</time>
      </trkpt>
      <trkpt lat="56.433276012539864" lon="-5.690502980723977">
        <ele>15.52</ele>
        <time>2023-08-30T13:45:45Z</time>
      </trkpt>
      <trkpt lat="56.433855034410954" lon="-5.690269041806459">
        <ele>14.56</ele>
        <time>2023-08-30T13:45:51Z</time>
      </trkpt>
      <trkpt lat="56.434787018224597" lon="-5.689702006056905">
        <ele>13.119999999999999</ele>
        <time>2023-08-30T13:45:59Z</time>
      </trkpt>
      <trkpt lat="56.434980975463986" lon="-5.689547024667263">
        <ele>12.630000000000001</ele>
        <time>2023-08-30T13:46:01Z</time>
      </trkpt>
      <trkpt lat="56.435070997104049" lon="-5.689449040219188">
        <ele>12.630000000000001</ele>
        <time>2023-08-30T13:46:02Z</time>
      </trkpt>
      <trkpt lat="56.435163030400872" lon="-5.68934896029532">
        <ele>12.15</ele>
        <time>2023-08-30T13:46:03Z</time>
      </trkpt>
      <trkpt lat="56.435254979878664" lon="-5.689247958362103">
        <ele>11.67</ele>
        <time>2023-08-30T13:46:04Z</time>
      </trkpt>
      <trkpt lat="56.435347013175488" lon="-5.689148968085647">
        <ele>11.19</ele>
        <time>2023-08-30T13:46:05Z</time>
      </trkpt>
      <trkpt lat="56.435444997623563" lon="-5.689042015001178">
        <ele>10.23</ele>
        <time>2023-08-30T13:46:06Z</time>
      </trkpt>
      <trkpt lat="56.436302969232202" lon="-5.687838960438967">
        <ele>5.91</ele>
        <time>2023-08-30T13:46:14Z</time>
      </trkpt>
      <trkpt lat="56.437346013262868" lon="-5.686140032485127">
        <ele>3.98</ele>
        <time>2023-08-30T13:46:24Z</time>
      </trkpt>
      <trkpt lat="56.437996029853821" lon="-5.685333022847772">
        <ele>5.42</ele>
        <time>2023-08-30T13:46:31Z</time>
      </trkpt>
      <trkpt lat="56.438813013955951" lon="-5.684697004035115">
        <ele>7.35</ele>
        <time>2023-08-30T13:46:39Z</time>
      </trkpt>
      <trkpt lat="56.439275024458766" lon="-5.684337001293898">
        <ele>8.789999999999999</ele>
        <time>2023-08-30T13:46:44Z</time>
      </trkpt>
      <trkpt lat="56.440213965252042" lon="-5.68361297249794">
        <ele>12.630000000000001</ele>
        <time>2023-08-30T13:46:53Z</time>
      </trkpt>
      <trkpt lat="56.441578958183527" lon="-5.682578980922699">
        <ele>17.920000000000002</ele>
        <time>2023-08-30T13:47:03Z</time>
      </trkpt>
      <trkpt lat="56.44298099912703" lon="-5.6818070076406">
        <ele>26.09</ele>
        <time>2023-08-30T13:47:12Z</time>
      </trkpt>
      <trkpt lat="56.444128984585404" lon="-5.682060979306698">
        <ele>30.899999999999999</ele>
        <time>2023-08-30T13:47:19Z</time>
      </trkpt>
      <trkpt lat="56.445093993097544" lon="-5.683109974488616">
        <ele>35.710000000000001</ele>
        <time>2023-08-30T13:47:26Z</time>
      </trkpt>
      <trkpt lat="56.445896979421377" lon="-5.684695998206735">
        <ele>37.630000000000003</ele>
        <time>2023-08-30T13:47:33Z</time>
      </trkpt>
      <trkpt lat="56.446770960465074" lon="-5.686482014134526">
        <ele>39.07</ele>
        <time>2023-08-30T13:47:42Z</time>
      </trkpt>
      <trkpt lat="56.446873974055052" lon="-5.686673959717155">
        <ele>39.07</ele>
        <time>2023-08-30T13:47:43Z</time>
      </trkpt>
      <trkpt lat="56.447777962312102" lon="-5.688149007037282">
        <ele>36.189999999999998</ele>
        <time>2023-08-30T13:47:51Z</time>
      </trkpt>
      <trkpt lat="56.44882301799953" lon="-5.689711980521679">
        <ele>26.57</ele>
        <time>2023-08-30T13:48:00Z</time>
      </trkpt>
      <trkpt lat="56.449091993272305" lon="-5.689981039613485">
        <ele>23.210000000000001</ele>
        <time>2023-08-30T13:48:02Z</time>
      </trkpt>
      <trkpt lat="56.450287001207471" lon="-5.690741026774049">
        <ele>16</ele>
        <time>2023-08-30T13:48:10Z</time>
      </trkpt>
      <trkpt lat="56.451695999130607" lon="-5.690670032054186">
        <ele>16.48</ele>
        <time>2023-08-30T13:48:19Z</time>
      </trkpt>
      <trkpt lat="56.452121967449784" lon="-5.690574981272221">
        <ele>16.960000000000001</ele>
        <time>2023-08-30T13:48:22Z</time>
      </trkpt>
      <trkpt lat="56.452269991859794" lon="-5.69055100902915">
        <ele>16.960000000000001</ele>
        <time>2023-08-30T13:48:23Z</time>
      </trkpt>
      <trkpt lat="56.452831998467445" lon="-5.690519995987415">
        <ele>17.440000000000001</ele>
        <time>2023-08-30T13:48:27Z</time>
      </trkpt>
      <trkpt lat="56.45352803170681" lon="-5.690695010125637">
        <ele>19.359999999999999</ele>
        <time>2023-08-30T13:48:32Z</time>
      </trkpt>
      <trkpt lat="56.454929988831282" lon="-5.691351983696222">
        <ele>20.809999999999999</ele>
        <time>2023-08-30T13:48:43Z</time>
      </trkpt>
      <trkpt lat="56.456145029515028" lon="-5.691977022215724">
        <ele>24.170000000000002</ele>
        <time>2023-08-30T13:48:52Z</time>
      </trkpt>
      <trkpt lat="56.457130992785096" lon="-5.692488988861442">
        <ele>28.02</ele>
        <time>2023-08-30T13:48:59Z</time>
      </trkpt>
      <trkpt lat="56.457274993881583" lon="-5.692564006894827">
        <ele>28.5</ele>
        <time>2023-08-30T13:49:00Z</time>
      </trkpt>
      <trkpt lat="56.458505960181355" lon="-5.693203965201974">
        <ele>30.899999999999999</ele>
        <time>2023-08-30T13:49:09Z</time>
      </trkpt>
      <trkpt lat="56.45997597835958" lon="-5.694069983437657">
        <ele>35.710000000000001</ele>
        <time>2023-08-30T13:49:20Z</time>
      </trkpt>
      <trkpt lat="56.460953978821635" lon="-5.694960979744792">
        <ele>36.189999999999998</ele>
        <time>2023-08-30T13:49:28Z</time>
      </trkpt>
      <trkpt lat="56.461037965491414" lon="-5.695042032748461">
        <ele>36.670000000000002</ele>
        <time>2023-08-30T13:49:29Z</time>
      </trkpt>
      <trkpt lat="56.461971960961819" lon="-5.695820963010192">
        <ele>41.469999999999999</ele>
        <time>2023-08-30T13:49:38Z</time>
      </trkpt>
      <trkpt lat="56.463205022737384" lon="-5.696461005136371">
        <ele>44.840000000000003</ele>
        <time>2023-08-30T13:49:46Z</time>
      </trkpt>
      <trkpt lat="56.46480998955667" lon="-5.697258040308952">
        <ele>42.920000000000002</ele>
        <time>2023-08-30T13:49:55Z</time>
      </trkpt>
      <trkpt lat="56.464978968724608" lon="-5.697343032807112">
        <ele>42.439999999999998</ele>
        <time>2023-08-30T13:49:56Z</time>
      </trkpt>
      <trkpt lat="56.465145014226437" lon="-5.697425007820129">
        <ele>42.439999999999998</ele>
        <time>2023-08-30T13:49:57Z</time>
      </trkpt>
      <trkpt lat="56.466158973053098" lon="-5.698073012754321">
        <ele>40.990000000000002</ele>
        <time>2023-08-30T13:50:04Z</time>
      </trkpt>
      <trkpt lat="56.466285958886147" lon="-5.698164962232113">
        <ele>40.509999999999998</ele>
        <time>2023-08-30T13:50:05Z</time>
      </trkpt>
      <trkpt lat="56.466406993567944" lon="-5.698252972215414">
        <ele>40.509999999999998</ele>
        <time>2023-08-30T13:50:06Z</time>
      </trkpt>
      <trkpt lat="56.466817958280444" lon="-5.69865102879703">
        <ele>38.109999999999999</ele>
        <time>2023-08-30T13:50:10Z</time>
      </trkpt>
      <trkpt lat="56.466910997405648" lon="-5.698750019073486">
        <ele>37.630000000000003</ele>
        <time>2023-08-30T13:50:11Z</time>
      </trkpt>
      <trkpt lat="56.467902995646" lon="-5.699973022565246">
        <ele>29.940000000000001</ele>
        <time>2023-08-30T13:50:22Z</time>
      </trkpt>
      <trkpt lat="56.46856801584363" lon="-5.701667005196214">
        <ele>20.32</ele>
        <time>2023-08-30T13:50:32Z</time>
      </trkpt>
      <trkpt lat="56.469419030472636" lon="-5.703941015526652">
        <ele>14.08</ele>
        <time>2023-08-30T13:50:45Z</time>
      </trkpt>
      <trkpt lat="56.470211958512664" lon="-5.705772964283824">
        <ele>10.710000000000001</ele>
        <time>2023-08-30T13:50:57Z</time>
      </trkpt>
      <trkpt lat="56.471290038898587" lon="-5.707751009613276">
        <ele>8.789999999999999</ele>
        <time>2023-08-30T13:51:12Z</time>
      </trkpt>
      <trkpt lat="56.472175000235438" lon="-5.709444992244244">
        <ele>7.35</ele>
        <time>2023-08-30T13:51:23Z</time>
      </trkpt>
      <trkpt lat="56.473086029291153" lon="-5.711178034543991">
        <ele>7.83</ele>
        <time>2023-08-30T13:51:31Z</time>
      </trkpt>
      <trkpt lat="56.474095964804292" lon="-5.713721020147204">
        <ele>11.67</ele>
        <time>2023-08-30T13:51:40Z</time>
      </trkpt>
      <trkpt lat="56.47501696832478" lon="-5.715910037979484">
        <ele>13.119999999999999</ele>
        <time>2023-08-30T13:51:48Z</time>
      </trkpt>
      <trkpt lat="56.476033022627234" lon="-5.717930998653173">
        <ele>14.56</ele>
        <time>2023-08-30T13:51:57Z</time>
      </trkpt>
      <trkpt lat="56.477579986676574" lon="-5.720986034721136">
        <ele>22.73</ele>
        <time>2023-08-30T13:52:09Z</time>
      </trkpt>
      <trkpt lat="56.479116976261139" lon="-5.724430996924639">
        <ele>25.609999999999999</ele>
        <time>2023-08-30T13:52:22Z</time>
      </trkpt>
      <trkpt lat="56.480317013338208" lon="-5.727631039917469">
        <ele>26.09</ele>
        <time>2023-08-30T13:52:33Z</time>
      </trkpt>
      <trkpt lat="56.48161000572145" lon="-5.731361992657185">
        <ele>21.289999999999999</ele>
        <time>2023-08-30T13:52:45Z</time>
      </trkpt>
      <trkpt lat="56.482044020667672" lon="-5.732965031638742">
        <ele>17.920000000000002</ele>
        <time>2023-08-30T13:52:50Z</time>
      </trkpt>
      <trkpt lat="56.482100011780858" lon="-5.733296032994986">
        <ele>17.440000000000001</ele>
        <time>2023-08-30T13:52:51Z</time>
      </trkpt>
      <trkpt lat="56.48218902759254" lon="-5.736053008586168">
        <ele>16</ele>
        <time>2023-08-30T13:52:59Z</time>
      </trkpt>
      <trkpt lat="56.481807986274362" lon="-5.7391959708184">
        <ele>15.039999999999999</ele>
        <time>2023-08-30T13:53:08Z</time>
      </trkpt>
      <trkpt lat="56.481843022629619" lon="-5.741713978350163">
        <ele>14.56</ele>
        <time>2023-08-30T13:53:15Z</time>
      </trkpt>
      <trkpt lat="56.481897002086043" lon="-5.742060989141464">
        <ele>14.56</ele>
        <time>2023-08-30T13:53:16Z</time>
      </trkpt>
      <trkpt lat="56.48197403177619" lon="-5.742391990497708">
        <ele>14.56</ele>
        <time>2023-08-30T13:53:17Z</time>
      </trkpt>
      <trkpt lat="56.482064975425601" lon="-5.742717040702701">
        <ele>14.56</ele>
        <time>2023-08-30T13:53:18Z</time>
      </trkpt>
      <trkpt lat="56.482156002894044" lon="-5.743041001260281">
        <ele>14.56</ele>
        <time>2023-08-30T13:53:19Z</time>
      </trkpt>
      <trkpt lat="56.482257004827261" lon="-5.743365967646241">
        <ele>14.56</ele>
        <time>2023-08-30T13:53:20Z</time>
      </trkpt>
      <trkpt lat="56.483184965327382" lon="-5.745906019583345">
        <ele>14.56</ele>
        <time>2023-08-30T13:53:28Z</time>
      </trkpt>
      <trkpt lat="56.48419096134603" lon="-5.748657966032624">
        <ele>12.630000000000001</ele>
        <time>2023-08-30T13:53:37Z</time>
      </trkpt>
      <trkpt lat="56.485340036451817" lon="-5.751940989866853">
        <ele>13.119999999999999</ele>
        <time>2023-08-30T13:53:48Z</time>
      </trkpt>
      <trkpt lat="56.485921991989017" lon="-5.755361979827285">
        <ele>11.67</ele>
        <time>2023-08-30T13:53:58Z</time>
      </trkpt>
      <trkpt lat="56.486399006098509" lon="-5.75848801061511">
        <ele>13.119999999999999</ele>
        <time>2023-08-30T13:54:07Z</time>
      </trkpt>
      <trkpt lat="56.487266030162573" lon="-5.761806992813945">
        <ele>12.15</ele>
        <time>2023-08-30T13:54:17Z</time>
      </trkpt>
      <trkpt lat="56.488340003415942" lon="-5.765204010531306">
        <ele>9.27</ele>
        <time>2023-08-30T13:54:28Z</time>
      </trkpt>
      <trkpt lat="56.489640036597848" lon="-5.767779015004635">
        <ele>0.14</ele>
        <time>2023-08-30T13:54:38Z</time>
      </trkpt>
      <trkpt lat="56.491252966225147" lon="-5.769716994836927">
        <ele>-0.34</ele>
        <time>2023-08-30T13:54:48Z</time>
      </trkpt>
      <trkpt lat="56.493363026529551" lon="-5.77223701402545">
        <ele>1.1</ele>
        <time>2023-08-30T13:55:00Z</time>
      </trkpt>
      <trkpt lat="56.495508961379528" lon="-5.775468992069364">
        <ele>4.46</ele>
        <time>2023-08-30T13:55:13Z</time>
      </trkpt>
      <trkpt lat="56.496619982644916" lon="-5.776941021904349">
        <ele>7.35</ele>
        <time>2023-08-30T13:55:20Z</time>
      </trkpt>
      <trkpt lat="56.497926972806454" lon="-5.777757000178099">
        <ele>6.87</ele>
        <time>2023-08-30T13:55:27Z</time>
      </trkpt>
      <trkpt lat="56.499812984839082" lon="-5.778434006497264">
        <ele>7.35</ele>
        <time>2023-08-30T13:55:37Z</time>
      </trkpt>
      <trkpt lat="56.500933980569243" lon="-5.779686011373997">
        <ele>10.710000000000001</ele>
        <time>2023-08-30T13:55:44Z</time>
      </trkpt>
      <trkpt lat="56.502185985445976" lon="-5.782007966190577">
        <ele>12.15</ele>
        <time>2023-08-30T13:55:53Z</time>
      </trkpt>
      <trkpt lat="56.503134984523058" lon="-5.784181980416179">
        <ele>15.52</ele>
        <time>2023-08-30T13:56:01Z</time>
      </trkpt>
      <trkpt lat="56.503757005557418" lon="-5.786973992362618">
        <ele>23.210000000000001</ele>
        <time>2023-08-30T13:56:10Z</time>
      </trkpt>
      <trkpt lat="56.504745986312628" lon="-5.790376039221883">
        <ele>28.02</ele>
        <time>2023-08-30T13:56:21Z</time>
      </trkpt>
      <trkpt lat="56.505383010953665" lon="-5.793133014813066">
        <ele>32.340000000000003</ele>
        <time>2023-08-30T13:56:30Z</time>
      </trkpt>
      <trkpt lat="56.505388040095568" lon="-5.795767027884722">
        <ele>37.630000000000003</ele>
        <time>2023-08-30T13:56:38Z</time>
      </trkpt>
      <trkpt lat="56.505391979590058" lon="-5.799739966169">
        <ele>39.549999999999997</ele>
        <time>2023-08-30T13:56:50Z</time>
      </trkpt>
      <trkpt lat="56.505560036748648" lon="-5.801881961524487">
        <ele>38.590000000000003</ele>
        <time>2023-08-30T13:56:58Z</time>
      </trkpt>
      <trkpt lat="56.505689034238458" lon="-5.803152993321419">
        <ele>37.630000000000003</ele>
        <time>2023-08-30T13:57:05Z</time>
      </trkpt>
      <trkpt lat="56.505698002874851" lon="-5.803243014961481">
        <ele>37.630000000000003</ele>
        <time>2023-08-30T13:57:06Z</time>
      </trkpt>
      <trkpt lat="56.505770003423095" lon="-5.80334996804595">
        <ele>37.630000000000003</ele>
        <time>2023-08-30T13:57:07Z</time>
      </trkpt>
      <trkpt lat="56.505819959565997" lon="-5.803325995802879">
        <ele>37.630000000000003</ele>
        <time>2023-08-30T13:57:08Z</time>
      </trkpt>
      <trkpt lat="56.505891038104892" lon="-5.803291965276003">
        <ele>37.149999999999999</ele>
        <time>2023-08-30T13:57:09Z</time>
      </trkpt>
      <trkpt lat="56.505977958440781" lon="-5.803250977769494">
        <ele>37.149999999999999</ele>
        <time>2023-08-30T13:57:10Z</time>
      </trkpt>
      <trkpt lat="56.506074015051126" lon="-5.803204961121082">
        <ele>37.149999999999999</ele>
        <time>2023-08-30T13:57:11Z</time>
      </trkpt>
      <trkpt lat="56.506179962307215" lon="-5.803153999149799">
        <ele>36.670000000000002</ele>
        <time>2023-08-30T13:57:12Z</time>
      </trkpt>
      <trkpt lat="56.506303008645773" lon="-5.803119968622923">
        <ele>36.189999999999998</ele>
        <time>2023-08-30T13:57:13Z</time>
      </trkpt>
      <trkpt lat="56.507615027949214" lon="-5.802743034437299">
        <ele>32.82</ele>
        <time>2023-08-30T13:57:22Z</time>
      </trkpt>
      <trkpt lat="56.508665028959513" lon="-5.802215980365872">
        <ele>31.859999999999999</ele>
        <time>2023-08-30T13:57:29Z</time>
      </trkpt>
      <trkpt lat="56.509675970301032" lon="-5.801795963197947">
        <ele>33.780000000000001</ele>
        <time>2023-08-30T13:57:37Z</time>
      </trkpt>
      <trkpt lat="56.510498989373446" lon="-5.801621032878757">
        <ele>34.259999999999998</ele>
        <time>2023-08-30T13:57:43Z</time>
      </trkpt>
      <trkpt lat="56.511826012283564" lon="-5.801755981519818">
        <ele>29.460000000000001</ele>
        <time>2023-08-30T13:57:52Z</time>
      </trkpt>
      <trkpt lat="56.511968001723289" lon="-5.801784982904792">
        <ele>28.02</ele>
        <time>2023-08-30T13:57:53Z</time>
      </trkpt>
      <trkpt lat="56.512116026133299" lon="-5.801815995946527">
        <ele>27.050000000000001</ele>
        <time>2023-08-30T13:57:54Z</time>
      </trkpt>
      <trkpt lat="56.512560015544295" lon="-5.802001990377903">
        <ele>22.73</ele>
        <time>2023-08-30T13:57:57Z</time>
      </trkpt>
      <trkpt lat="56.512692030519247" lon="-5.802111038938165">
        <ele>21.289999999999999</ele>
        <time>2023-08-30T13:57:58Z</time>
      </trkpt>
      <trkpt lat="56.512817004695535" lon="-5.802237018942833">
        <ele>20.32</ele>
        <time>2023-08-30T13:57:59Z</time>
      </trkpt>
      <trkpt lat="56.512929992750287" lon="-5.802387977018952">
        <ele>19.359999999999999</ele>
        <time>2023-08-30T13:58:00Z</time>
      </trkpt>
      <trkpt lat="56.513030994683504" lon="-5.802576988935471">
        <ele>17.920000000000002</ele>
        <time>2023-08-30T13:58:01Z</time>
      </trkpt>
      <trkpt lat="56.513124033808708" lon="-5.802792990580201">
        <ele>16.960000000000001</ele>
        <time>2023-08-30T13:58:02Z</time>
      </trkpt>
      <trkpt lat="56.513184970244765" lon="-5.803035981953144">
        <ele>15.52</ele>
        <time>2023-08-30T13:58:03Z</time>
      </trkpt>
      <trkpt lat="56.513248002156615" lon="-5.803286014124751">
        <ele>14.56</ele>
        <time>2023-08-30T13:58:04Z</time>
      </trkpt>
      <trkpt lat="56.513313967734575" lon="-5.803538979962468">
        <ele>13.119999999999999</ele>
        <time>2023-08-30T13:58:05Z</time>
      </trkpt>
      <trkpt lat="56.513514965772629" lon="-5.804310031235218">
        <ele>9.75</ele>
        <time>2023-08-30T13:58:08Z</time>
      </trkpt>
      <trkpt lat="56.513901958242059" lon="-5.805909968912602">
        <ele>4.46</ele>
        <time>2023-08-30T13:58:14Z</time>
      </trkpt>
      <trkpt lat="56.513926014304161" lon="-5.806172993034124">
        <ele>4.46</ele>
        <time>2023-08-30T13:58:15Z</time>
      </trkpt>
      <trkpt lat="56.513949986547232" lon="-5.806479016318917">
        <ele>3.98</ele>
        <time>2023-08-30T13:58:16Z</time>
      </trkpt>
      <trkpt lat="56.51392500847578" lon="-5.80674396827817">
        <ele>3.98</ele>
        <time>2023-08-30T13:58:17Z</time>
      </trkpt>
      <trkpt lat="56.513898018747568" lon="-5.807015961036086">
        <ele>3.98</ele>
        <time>2023-08-30T13:58:18Z</time>
      </trkpt>
      <trkpt lat="56.513872034847736" lon="-5.807286025956273">
        <ele>3.98</ele>
        <time>2023-08-30T13:58:19Z</time>
      </trkpt>
      <trkpt lat="56.513829035684466" lon="-5.807564975693822">
        <ele>4.94</ele>
        <time>2023-08-30T13:58:20Z</time>
      </trkpt>
      <trkpt lat="56.513710012659431" lon="-5.808299984782934">
        <ele>6.39</ele>
        <time>2023-08-30T13:58:23Z</time>
      </trkpt>
      <trkpt lat="56.513694003224373" lon="-5.808506011962891">
        <ele>7.83</ele>
        <time>2023-08-30T13:58:24Z</time>
      </trkpt>
      <trkpt lat="56.513720992952585" lon="-5.808687983080745">
        <ele>8.310000000000001</ele>
        <time>2023-08-30T13:58:25Z</time>
      </trkpt>
      <trkpt lat="56.513744965195656" lon="-5.808854028582573">
        <ele>8.789999999999999</ele>
        <time>2023-08-30T13:58:26Z</time>
      </trkpt>
      <trkpt lat="56.513780001550913" lon="-5.809085033833981">
        <ele>8.789999999999999</ele>
        <time>2023-08-30T13:58:27Z</time>
      </trkpt>
      <trkpt lat="56.51379500515759" lon="-5.809140019118786">
        <ele>8.789999999999999</ele>
        <time>2023-08-30T13:58:28Z</time>
      </trkpt>
      <trkpt lat="56.513823000714183" lon="-5.809244960546494">
        <ele>8.789999999999999</ele>
        <time>2023-08-30T13:58:29Z</time>
      </trkpt>
      <trkpt lat="56.513847978785634" lon="-5.809335988014936">
        <ele>8.310000000000001</ele>
        <time>2023-08-30T13:58:30Z</time>
      </trkpt>
      <trkpt lat="56.513869017362595" lon="-5.809413017705083">
        <ele>8.310000000000001</ele>
        <time>2023-08-30T13:58:31Z</time>
      </trkpt>
      <trkpt lat="56.513908999040723" lon="-5.809558024629951">
        <ele>7.83</ele>
        <time>2023-08-30T13:58:32Z</time>
      </trkpt>
      <trkpt lat="56.514048976823688" lon="-5.809816019609571">
        <ele>7.83</ele>
        <time>2023-08-30T13:58:43Z</time>
      </trkpt>
      <trkpt lat="56.514048976823688" lon="-5.809816019609571">
        <ele>7.83</ele>
        <time>2023-08-30T13:59:06Z</time>
      </trkpt>
      <trkpt lat="56.536729987710714" lon="-5.775077976286411">
        <ele>2.54</ele>
        <time>2023-08-30T14:57:32Z</time>
      </trkpt>
      <trkpt lat="56.536683971062303" lon="-5.775219965726137">
        <ele>14.56</ele>
        <time>2023-08-30T14:57:58Z</time>
      </trkpt>
      <trkpt lat="56.536697968840599" lon="-5.775243015959859">
        <ele>11.67</ele>
        <time>2023-08-30T14:58:33Z</time>
      </trkpt>
      <trkpt lat="56.53667701408267" lon="-5.775246033445001">
        <ele>12.630000000000001</ele>
        <time>2023-08-30T14:58:41Z</time>
      </trkpt>
      <trkpt lat="56.536422036588192" lon="-5.775593966245651">
        <ele>12.630000000000001</ele>
        <time>2023-08-30T14:58:51Z</time>
      </trkpt>
      <trkpt lat="56.536124981939793" lon="-5.775956986472011">
        <ele>13.119999999999999</ele>
        <time>2023-08-30T14:58:58Z</time>
      </trkpt>
      <trkpt lat="56.536068990826607" lon="-5.775994034484029">
        <ele>13.119999999999999</ele>
        <time>2023-08-30T14:58:59Z</time>
      </trkpt>
      <trkpt lat="56.536007970571518" lon="-5.776035021990538">
        <ele>12.630000000000001</ele>
        <time>2023-08-30T14:59:00Z</time>
      </trkpt>
      <trkpt lat="56.535786017775536" lon="-5.776122026145458">
        <ele>12.630000000000001</ele>
        <time>2023-08-30T14:59:03Z</time>
      </trkpt>
      <trkpt lat="56.535499021410942" lon="-5.776133006438613">
        <ele>13.6</ele>
        <time>2023-08-30T14:59:07Z</time>
      </trkpt>
      <trkpt lat="56.535438001155853" lon="-5.776096964254975">
        <ele>13.6</ele>
        <time>2023-08-30T14:59:08Z</time>
      </trkpt>
      <trkpt lat="56.535383015871048" lon="-5.776052037253976">
        <ele>14.08</ele>
        <time>2023-08-30T14:59:09Z</time>
      </trkpt>
      <trkpt lat="56.535332975909114" lon="-5.776011971756816">
        <ele>14.08</ele>
        <time>2023-08-30T14:59:10Z</time>
      </trkpt>
      <trkpt lat="56.535285031422973" lon="-5.775971990078688">
        <ele>14.56</ele>
        <time>2023-08-30T14:59:11Z</time>
      </trkpt>
      <trkpt lat="56.5352370031178" lon="-5.77593301422894">
        <ele>14.56</ele>
        <time>2023-08-30T14:59:12Z</time>
      </trkpt>
      <trkpt lat="56.535185035318136" lon="-5.775963021442294">
        <ele>14.56</ele>
        <time>2023-08-30T14:59:13Z</time>
      </trkpt>
      <trkpt lat="56.535136001184583" lon="-5.775991016998887">
        <ele>15.039999999999999</ele>
        <time>2023-08-30T14:59:14Z</time>
      </trkpt>
      <trkpt lat="56.53508897870779" lon="-5.776018006727099">
        <ele>15.039999999999999</ele>
        <time>2023-08-30T14:59:15Z</time>
      </trkpt>
      <trkpt lat="56.535083027556539" lon="-5.776050025597215">
        <ele>14.56</ele>
        <time>2023-08-30T14:59:16Z</time>
      </trkpt>
      <trkpt lat="56.535071963444352" lon="-5.776119008660317">
        <ele>14.56</ele>
        <time>2023-08-30T14:59:17Z</time>
      </trkpt>
      <trkpt lat="56.535062994807959" lon="-5.776180028915405">
        <ele>14.56</ele>
        <time>2023-08-30T14:59:18Z</time>
      </trkpt>
      <trkpt lat="56.535068023949862" lon="-5.776455961167812">
        <ele>14.56</ele>
        <time>2023-08-30T14:59:24Z</time>
      </trkpt>
      <trkpt lat="56.53510800562799" lon="-5.776463001966476">
        <ele>14.56</ele>
        <time>2023-08-30T14:59:25Z</time>
      </trkpt>
      <trkpt lat="56.535158967599273" lon="-5.776472976431251">
        <ele>14.56</ele>
        <time>2023-08-30T14:59:26Z</time>
      </trkpt>
      <trkpt lat="56.535214958712459" lon="-5.776483034715056">
        <ele>14.56</ele>
        <time>2023-08-30T14:59:27Z</time>
      </trkpt>
      <trkpt lat="56.535276984795928" lon="-5.776494015008211">
        <ele>14.56</ele>
        <time>2023-08-30T14:59:28Z</time>
      </trkpt>
      <trkpt lat="56.535339010879397" lon="-5.776504995301366">
        <ele>14.56</ele>
        <time>2023-08-30T14:59:29Z</time>
      </trkpt>
      <trkpt lat="56.535404976457357" lon="-5.776516981422901">
        <ele>14.56</ele>
        <time>2023-08-30T14:59:30Z</time>
      </trkpt>
      <trkpt lat="56.536244004964828" lon="-5.776723008602858">
        <ele>17.920000000000002</ele>
        <time>2023-08-30T14:59:39Z</time>
      </trkpt>
      <trkpt lat="56.536986976861954" lon="-5.777156017720699">
        <ele>22.73</ele>
        <time>2023-08-30T14:59:46Z</time>
      </trkpt>
      <trkpt lat="56.537948967888951" lon="-5.777563964948058">
        <ele>30.899999999999999</ele>
        <time>2023-08-30T14:59:58Z</time>
      </trkpt>
      <trkpt lat="56.538772992789745" lon="-5.778186991810799">
        <ele>39.07</ele>
        <time>2023-08-30T15:00:06Z</time>
      </trkpt>
      <trkpt lat="56.538986982777715" lon="-5.778353959321976">
        <ele>41.469999999999999</ele>
        <time>2023-08-30T15:00:08Z</time>
      </trkpt>
      <trkpt lat="56.539093013852835" lon="-5.778436018154025">
        <ele>42.439999999999998</ele>
        <time>2023-08-30T15:00:09Z</time>
      </trkpt>
      <trkpt lat="56.540213003754616" lon="-5.778951002284885">
        <ele>53.490000000000002</ele>
        <time>2023-08-30T15:00:20Z</time>
      </trkpt>
      <trkpt lat="56.540755983442068" lon="-5.778945973142982">
        <ele>57.340000000000003</ele>
        <time>2023-08-30T15:00:25Z</time>
      </trkpt>
      <trkpt lat="56.541980998590589" lon="-5.778443980962038">
        <ele>65.030000000000001</ele>
        <time>2023-08-30T15:00:35Z</time>
      </trkpt>
      <trkpt lat="56.543278014287353" lon="-5.777614004909992">
        <ele>72.239999999999995</ele>
        <time>2023-08-30T15:00:45Z</time>
      </trkpt>
      <trkpt lat="56.544242016971111" lon="-5.776107022538781">
        <ele>79.930000000000007</ele>
        <time>2023-08-30T15:00:53Z</time>
      </trkpt>
      <trkpt lat="56.545675992965698" lon="-5.774567015469074">
        <ele>88.099999999999994</ele>
        <time>2023-08-30T15:01:03Z</time>
      </trkpt>
      <trkpt lat="56.547919996082783" lon="-5.772957019507885">
        <ele>96.75</ele>
        <time>2023-08-30T15:01:17Z</time>
      </trkpt>
      <trkpt lat="56.549369981512427" lon="-5.772648984566331">
        <ele>98.189999999999998</ele>
        <time>2023-08-30T15:01:26Z</time>
      </trkpt>
      <trkpt lat="56.55135003849864" lon="-5.772257968783379">
        <ele>94.349999999999994</ele>
        <time>2023-08-30T15:01:38Z</time>
      </trkpt>
      <trkpt lat="56.552729029208422" lon="-5.771278962492943">
        <ele>91.459999999999994</ele>
        <time>2023-08-30T15:01:47Z</time>
      </trkpt>
      <trkpt lat="56.554407002404332" lon="-5.769864013418555">
        <ele>96.75</ele>
        <time>2023-08-30T15:01:58Z</time>
      </trkpt>
      <trkpt lat="56.555431019514799" lon="-5.768494997173548">
        <ele>99.150000000000006</ele>
        <time>2023-08-30T15:02:06Z</time>
      </trkpt>
      <trkpt lat="56.556794000789523" lon="-5.766256023198366">
        <ele>98.189999999999998</ele>
        <time>2023-08-30T15:02:18Z</time>
      </trkpt>
      <trkpt lat="56.558653023093939" lon="-5.764269009232521">
        <ele>93.390000000000001</ele>
        <time>2023-08-30T15:02:30Z</time>
      </trkpt>
      <trkpt lat="56.559533039107919" lon="-5.762759009376168">
        <ele>90.5</ele>
        <time>2023-08-30T15:02:37Z</time>
      </trkpt>
      <trkpt lat="56.560482038185" lon="-5.761015992611647">
        <ele>89.540000000000006</ele>
        <time>2023-08-30T15:02:45Z</time>
      </trkpt>
      <trkpt lat="56.560620004311204" lon="-5.760832009837031">
        <ele>90.5</ele>
        <time>2023-08-30T15:02:46Z</time>
      </trkpt>
      <trkpt lat="56.561758015304804" lon="-5.760115021839738">
        <ele>94.829999999999998</ele>
        <time>2023-08-30T15:02:53Z</time>
      </trkpt>
      <trkpt lat="56.563372034579515" lon="-5.759917963296175">
        <ele>92.420000000000002</ele>
        <time>2023-08-30T15:03:02Z</time>
      </trkpt>
      <trkpt lat="56.563720973208547" lon="-5.759801035746932">
        <ele>90.5</ele>
        <time>2023-08-30T15:03:04Z</time>
      </trkpt>
      <trkpt lat="56.563889030367136" lon="-5.759683018550277">
        <ele>89.540000000000006</ele>
        <time>2023-08-30T15:03:05Z</time>
      </trkpt>
      <trkpt lat="56.564052980393171" lon="-5.759549997746944">
        <ele>88.099999999999994</ele>
        <time>2023-08-30T15:03:06Z</time>
      </trkpt>
      <trkpt lat="56.564216008409858" lon="-5.759415971115232">
        <ele>87.140000000000001</ele>
        <time>2023-08-30T15:03:07Z</time>
      </trkpt>
      <trkpt lat="56.564361015334725" lon="-5.759223019704223">
        <ele>86.180000000000007</ele>
        <time>2023-08-30T15:03:08Z</time>
      </trkpt>
      <trkpt lat="56.56450099311769" lon="-5.759015986695886">
        <ele>85.209999999999994</ele>
        <time>2023-08-30T15:03:09Z</time>
      </trkpt>
      <trkpt lat="56.564640970900655" lon="-5.758809959515929">
        <ele>84.25</ele>
        <time>2023-08-30T15:03:10Z</time>
      </trkpt>
      <trkpt lat="56.564768962562084" lon="-5.758602004498243">
        <ele>83.290000000000006</ele>
        <time>2023-08-30T15:03:11Z</time>
      </trkpt>
      <trkpt lat="56.564870970323682" lon="-5.75838097371161">
        <ele>81.849999999999994</ele>
        <time>2023-08-30T15:03:12Z</time>
      </trkpt>
      <trkpt lat="56.565194008871913" lon="-5.757330972701311">
        <ele>77.040000000000006</ele>
        <time>2023-08-30T15:03:16Z</time>
      </trkpt>
      <trkpt lat="56.56565903685987" lon="-5.755702033638954">
        <ele>70.310000000000002</ele>
        <time>2023-08-30T15:03:22Z</time>
      </trkpt>
      <trkpt lat="56.565957013517618" lon="-5.754992002621293">
        <ele>67.430000000000007</ele>
        <time>2023-08-30T15:03:25Z</time>
      </trkpt>
      <trkpt lat="56.56609196215868" lon="-5.754803996533155">
        <ele>66.469999999999999</ele>
        <time>2023-08-30T15:03:26Z</time>
      </trkpt>
      <trkpt lat="56.566221965476871" lon="-5.75462001375854">
        <ele>65.510000000000005</ele>
        <time>2023-08-30T15:03:27Z</time>
      </trkpt>
      <trkpt lat="56.567210024222732" lon="-5.75373899191618">
        <ele>57.340000000000003</ele>
        <time>2023-08-30T15:03:34Z</time>
      </trkpt>
      <trkpt lat="56.568465968593955" lon="-5.7535479683429">
        <ele>51.090000000000003</ele>
        <time>2023-08-30T15:03:41Z</time>
      </trkpt>
      <trkpt lat="56.57079697586596" lon="-5.753477979451418">
        <ele>44.359999999999999</ele>
        <time>2023-08-30T15:03:54Z</time>
      </trkpt>
      <trkpt lat="56.573138041421771" lon="-5.753402961418033">
        <ele>42.920000000000002</ele>
        <time>2023-08-30T15:04:08Z</time>
      </trkpt>
      <trkpt lat="56.574584003537893" lon="-5.753442021086812">
        <ele>42.439999999999998</ele>
        <time>2023-08-30T15:04:17Z</time>
      </trkpt>
      <trkpt lat="56.576084028929472" lon="-5.754127996042371">
        <ele>37.149999999999999</ele>
        <time>2023-08-30T15:04:27Z</time>
      </trkpt>
      <trkpt lat="56.577203013002872" lon="-5.754124978557229">
        <ele>31.859999999999999</ele>
        <time>2023-08-30T15:04:34Z</time>
      </trkpt>
      <trkpt lat="56.578249996528029" lon="-5.753315035253763">
        <ele>25.129999999999999</ele>
        <time>2023-08-30T15:04:41Z</time>
      </trkpt>
      <trkpt lat="56.578513020649552" lon="-5.752927036955953">
        <ele>23.210000000000001</ele>
        <time>2023-08-30T15:04:43Z</time>
      </trkpt>
      <trkpt lat="56.578640006482601" lon="-5.752724027261138">
        <ele>22.25</ele>
        <time>2023-08-30T15:04:44Z</time>
      </trkpt>
      <trkpt lat="56.57962697558105" lon="-5.750929964706302">
        <ele>14.56</ele>
        <time>2023-08-30T15:04:52Z</time>
      </trkpt>
      <trkpt lat="56.580797005444765" lon="-5.750082973390818">
        <ele>15.52</ele>
        <time>2023-08-30T15:04:59Z</time>
      </trkpt>
      <trkpt lat="56.582601964473724" lon="-5.749039007350802">
        <ele>17.920000000000002</ele>
        <time>2023-08-30T15:05:09Z</time>
      </trkpt>
      <trkpt lat="56.582749988883734" lon="-5.748868016526103">
        <ele>18.399999999999999</ele>
        <time>2023-08-30T15:05:10Z</time>
      </trkpt>
      <trkpt lat="56.582887033000588" lon="-5.748664001002908">
        <ele>18.879999999999999</ele>
        <time>2023-08-30T15:05:11Z</time>
      </trkpt>
      <trkpt lat="56.583919012919068" lon="-5.747226001694799">
        <ele>21.289999999999999</ele>
        <time>2023-08-30T15:05:19Z</time>
      </trkpt>
      <trkpt lat="56.585471006110311" lon="-5.745759001001716">
        <ele>18.399999999999999</ele>
        <time>2023-08-30T15:05:29Z</time>
      </trkpt>
      <trkpt lat="56.586828958243132" lon="-5.745405033230782">
        <ele>17.920000000000002</ele>
        <time>2023-08-30T15:05:37Z</time>
      </trkpt>
      <trkpt lat="56.587896980345249" lon="-5.744819976389408">
        <ele>18.879999999999999</ele>
        <time>2023-08-30T15:05:44Z</time>
      </trkpt>
      <trkpt lat="56.588017009198666" lon="-5.7447150349617">
        <ele>19.359999999999999</ele>
        <time>2023-08-30T15:05:45Z</time>
      </trkpt>
      <trkpt lat="56.588300988078117" lon="-5.744371041655541">
        <ele>20.32</ele>
        <time>2023-08-30T15:05:50Z</time>
      </trkpt>
      <trkpt lat="56.588334012776613" lon="-5.744325025007129">
        <ele>20.809999999999999</ele>
        <time>2023-08-30T15:05:51Z</time>
      </trkpt>
      <trkpt lat="56.588382041081786" lon="-5.744255958124995">
        <ele>21.289999999999999</ele>
        <time>2023-08-30T15:05:52Z</time>
      </trkpt>
      <trkpt lat="56.588442977517843" lon="-5.744169959798455">
        <ele>21.289999999999999</ele>
        <time>2023-08-30T15:05:53Z</time>
      </trkpt>
      <trkpt lat="56.588511960580945" lon="-5.744072981178761">
        <ele>21.77</ele>
        <time>2023-08-30T15:05:54Z</time>
      </trkpt>
      <trkpt lat="56.588587984442711" lon="-5.743965022265911">
        <ele>21.77</ele>
        <time>2023-08-30T15:05:55Z</time>
      </trkpt>
      <trkpt lat="56.589331040158868" lon="-5.742913009598851">
        <ele>24.170000000000002</ele>
        <time>2023-08-30T15:06:02Z</time>
      </trkpt>
      <trkpt lat="56.590582961216569" lon="-5.740796998143196">
        <ele>31.379999999999999</ele>
        <time>2023-08-30T15:06:13Z</time>
      </trkpt>
      <trkpt lat="56.590899964794517" lon="-5.740128038451076">
        <ele>31.859999999999999</ele>
        <time>2023-08-30T15:06:16Z</time>
      </trkpt>
      <trkpt lat="56.590999038890004" lon="-5.73988102376461">
        <ele>31.859999999999999</ele>
        <time>2023-08-30T15:06:17Z</time>
      </trkpt>
      <trkpt lat="56.5910579636693" lon="-5.739592015743256">
        <ele>31.379999999999999</ele>
        <time>2023-08-30T15:06:18Z</time>
      </trkpt>
      <trkpt lat="56.591119989752769" lon="-5.739292027428746">
        <ele>31.379999999999999</ele>
        <time>2023-08-30T15:06:19Z</time>
      </trkpt>
      <trkpt lat="56.591184027493" lon="-5.738983992487192">
        <ele>30.899999999999999</ele>
        <time>2023-08-30T15:06:20Z</time>
      </trkpt>
      <trkpt lat="56.591243958100677" lon="-5.738677969202399">
        <ele>30.420000000000002</ele>
        <time>2023-08-30T15:06:21Z</time>
      </trkpt>
      <trkpt lat="56.591262985020876" lon="-5.738368006423116">
        <ele>29.940000000000001</ele>
        <time>2023-08-30T15:06:22Z</time>
      </trkpt>
      <trkpt lat="56.591282011941075" lon="-5.738053014501929">
        <ele>29.460000000000001</ele>
        <time>2023-08-30T15:06:23Z</time>
      </trkpt>
      <trkpt lat="56.591301038861275" lon="-5.737743973731995">
        <ele>28.98</ele>
        <time>2023-08-30T15:06:24Z</time>
      </trkpt>
      <trkpt lat="56.591283017769456" lon="-5.737435016781092">
        <ele>28.5</ele>
        <time>2023-08-30T15:06:25Z</time>
      </trkpt>
      <trkpt lat="56.591250998899341" lon="-5.737138967961073">
        <ele>28.5</ele>
        <time>2023-08-30T15:06:26Z</time>
      </trkpt>
      <trkpt lat="56.591220991685987" lon="-5.736859012395144">
        <ele>28.02</ele>
        <time>2023-08-30T15:06:27Z</time>
      </trkpt>
      <trkpt lat="56.591160977259278" lon="-5.736553994938731">
        <ele>27.530000000000001</ele>
        <time>2023-08-30T15:06:28Z</time>
      </trkpt>
      <trkpt lat="56.591104986146092" lon="-5.736269010230899">
        <ele>27.530000000000001</ele>
        <time>2023-08-30T15:06:29Z</time>
      </trkpt>
      <trkpt lat="56.590861994773149" lon="-5.733960969373584">
        <ele>27.050000000000001</ele>
        <time>2023-08-30T15:06:37Z</time>
      </trkpt>
      <trkpt lat="56.590824024751782" lon="-5.733683025464416">
        <ele>27.530000000000001</ele>
        <time>2023-08-30T15:06:38Z</time>
      </trkpt>
      <trkpt lat="56.590773984789848" lon="-5.73341203853488">
        <ele>27.530000000000001</ele>
        <time>2023-08-30T15:06:39Z</time>
      </trkpt>
      <trkpt lat="56.590723022818565" lon="-5.73313401080668">
        <ele>27.530000000000001</ele>
        <time>2023-08-30T15:06:40Z</time>
      </trkpt>
      <trkpt lat="56.590642975643277" lon="-5.732866041362286">
        <ele>27.530000000000001</ele>
        <time>2023-08-30T15:06:41Z</time>
      </trkpt>
      <trkpt lat="56.590552031993866" lon="-5.732610980048776">
        <ele>28.02</ele>
        <time>2023-08-30T15:06:42Z</time>
      </trkpt>
      <trkpt lat="56.590458992868662" lon="-5.732351979240775">
        <ele>27.530000000000001</ele>
        <time>2023-08-30T15:06:43Z</time>
      </trkpt>
      <trkpt lat="56.590050039812922" lon="-5.731034008786082">
        <ele>27.530000000000001</ele>
        <time>2023-08-30T15:06:48Z</time>
      </trkpt>
      <trkpt lat="56.59000301733613" lon="-5.730752041563392">
        <ele>27.530000000000001</ele>
        <time>2023-08-30T15:06:49Z</time>
      </trkpt>
      <trkpt lat="56.589957000687718" lon="-5.730478959158063">
        <ele>27.530000000000001</ele>
        <time>2023-08-30T15:06:50Z</time>
      </trkpt>
      <trkpt lat="56.589964041486382" lon="-5.730201015248895">
        <ele>27.050000000000001</ele>
        <time>2023-08-30T15:06:51Z</time>
      </trkpt>
      <trkpt lat="56.589974015951157" lon="-5.729907983914018">
        <ele>27.530000000000001</ele>
        <time>2023-08-30T15:06:52Z</time>
      </trkpt>
      <trkpt lat="56.590009974315763" lon="-5.729629034176469">
        <ele>27.530000000000001</ele>
        <time>2023-08-30T15:06:53Z</time>
      </trkpt>
      <trkpt lat="56.590059008449316" lon="-5.729330973699689">
        <ele>28.02</ele>
        <time>2023-08-30T15:06:54Z</time>
      </trkpt>
      <trkpt lat="56.590107958763838" lon="-5.729026962071657">
        <ele>28.02</ele>
        <time>2023-08-30T15:06:55Z</time>
      </trkpt>
      <trkpt lat="56.590550020337105" lon="-5.725791966542602">
        <ele>29.940000000000001</ele>
        <time>2023-08-30T15:07:05Z</time>
      </trkpt>
      <trkpt lat="56.590870963409543" lon="-5.722008040174842">
        <ele>30.899999999999999</ele>
        <time>2023-08-30T15:07:17Z</time>
      </trkpt>
      <trkpt lat="56.590785970911384" lon="-5.719497995451093">
        <ele>32.340000000000003</ele>
        <time>2023-08-30T15:07:25Z</time>
      </trkpt>
      <trkpt lat="56.591018987819552" lon="-5.717003038153052">
        <ele>36.189999999999998</ele>
        <time>2023-08-30T15:07:33Z</time>
      </trkpt>
      <trkpt lat="56.591199031099677" lon="-5.714556025341153">
        <ele>43.399999999999999</ele>
        <time>2023-08-30T15:07:42Z</time>
      </trkpt>
      <trkpt lat="56.591129964217544" lon="-5.712109012529254">
        <ele>44.840000000000003</ele>
        <time>2023-08-30T15:07:50Z</time>
      </trkpt>
      <trkpt lat="56.590843973681331" lon="-5.709554040804505">
        <ele>40.509999999999998</ele>
        <time>2023-08-30T15:07:58Z</time>
      </trkpt>
      <trkpt lat="56.5901979804039" lon="-5.705278012901545">
        <ele>41.950000000000003</ele>
        <time>2023-08-30T15:08:11Z</time>
      </trkpt>
      <trkpt lat="56.589566990733147" lon="-5.702636959031224">
        <ele>47.719999999999999</ele>
        <time>2023-08-30T15:08:20Z</time>
      </trkpt>
      <trkpt lat="56.58931402489543" lon="-5.701572960242629">
        <ele>53.009999999999998</ele>
        <time>2023-08-30T15:08:24Z</time>
      </trkpt>
      <trkpt lat="56.589277982711792" lon="-5.701281018555164">
        <ele>54.450000000000003</ele>
        <time>2023-08-30T15:08:25Z</time>
      </trkpt>
      <trkpt lat="56.589268008247018" lon="-5.700966026633978">
        <ele>55.890000000000001</ele>
        <time>2023-08-30T15:08:26Z</time>
      </trkpt>
      <trkpt lat="56.589281000196934" lon="-5.700638964772224">
        <ele>56.859999999999999</ele>
        <time>2023-08-30T15:08:27Z</time>
      </trkpt>
      <trkpt lat="56.589305978268385" lon="-5.70030402392149">
        <ele>57.82</ele>
        <time>2023-08-30T15:08:28Z</time>
      </trkpt>
      <trkpt lat="56.589331040158868" lon="-5.699964975938201">
        <ele>58.780000000000001</ele>
        <time>2023-08-30T15:08:29Z</time>
      </trkpt>
      <trkpt lat="56.589403040707111" lon="-5.699011031538248">
        <ele>61.18</ele>
        <time>2023-08-30T15:08:32Z</time>
      </trkpt>
      <trkpt lat="56.58940002322197" lon="-5.698684975504875">
        <ele>61.659999999999997</ele>
        <time>2023-08-30T15:08:33Z</time>
      </trkpt>
      <trkpt lat="56.589355012401938" lon="-5.698374006897211">
        <ele>61.659999999999997</ele>
        <time>2023-08-30T15:08:34Z</time>
      </trkpt>
      <trkpt lat="56.589311007410288" lon="-5.698063038289547">
        <ele>62.140000000000001</ele>
        <time>2023-08-30T15:08:35Z</time>
      </trkpt>
      <trkpt lat="56.589227020740509" lon="-5.697756009176374">
        <ele>62.619999999999997</ele>
        <time>2023-08-30T15:08:36Z</time>
      </trkpt>
      <trkpt lat="56.589144039899111" lon="-5.6974489800632">
        <ele>63.100000000000001</ele>
        <time>2023-08-30T15:08:37Z</time>
      </trkpt>
      <trkpt lat="56.589060975238681" lon="-5.697144968435168">
        <ele>63.579999999999998</ele>
        <time>2023-08-30T15:08:38Z</time>
      </trkpt>
      <trkpt lat="56.5887560416013" lon="-5.695745022967458">
        <ele>70.310000000000002</ele>
        <time>2023-08-30T15:08:43Z</time>
      </trkpt>
      <trkpt lat="56.588740032166243" lon="-5.6954509858042">
        <ele>72.239999999999995</ele>
        <time>2023-08-30T15:08:44Z</time>
      </trkpt>
      <trkpt lat="56.588743971660733" lon="-5.695155020803213">
        <ele>73.680000000000007</ele>
        <time>2023-08-30T15:08:45Z</time>
      </trkpt>
      <trkpt lat="56.588770961388946" lon="-5.694843968376517">
        <ele>75.599999999999994</ele>
        <time>2023-08-30T15:08:46Z</time>
      </trkpt>
      <trkpt lat="56.588802980259061" lon="-5.694528976455331">
        <ele>77.519999999999996</ele>
        <time>2023-08-30T15:08:47Z</time>
      </trkpt>
      <trkpt lat="56.588860983029008" lon="-5.694224964827299">
        <ele>79.450000000000003</ele>
        <time>2023-08-30T15:08:48Z</time>
      </trkpt>
      <trkpt lat="56.588941030204296" lon="-5.693936962634325">
        <ele>81.370000000000005</ele>
        <time>2023-08-30T15:08:49Z</time>
      </trkpt>
      <trkpt lat="56.589030968025327" lon="-5.693665975704789">
        <ele>82.810000000000002</ele>
        <time>2023-08-30T15:08:50Z</time>
      </trkpt>
      <trkpt lat="56.589502030983567" lon="-5.692081963643432">
        <ele>90.019999999999996</ele>
        <time>2023-08-30T15:08:56Z</time>
      </trkpt>
      <trkpt lat="56.589547041803598" lon="-5.691752973943949">
        <ele>90.5</ele>
        <time>2023-08-30T15:08:57Z</time>
      </trkpt>
      <trkpt lat="56.590008968487382" lon="-5.688625015318394">
        <ele>93.390000000000001</ele>
        <time>2023-08-30T15:09:07Z</time>
      </trkpt>
      <trkpt lat="56.590235028415918" lon="-5.68711400963366">
        <ele>93.870000000000005</ele>
        <time>2023-08-30T15:09:12Z</time>
      </trkpt>
      <trkpt lat="56.590241985395551" lon="-5.68679197691381">
        <ele>93.390000000000001</ele>
        <time>2023-08-30T15:09:13Z</time>
      </trkpt>
      <trkpt lat="56.5902170073241" lon="-5.686457036063075">
        <ele>92.420000000000002</ele>
        <time>2023-08-30T15:09:14Z</time>
      </trkpt>
      <trkpt lat="56.590112987905741" lon="-5.684425011277199">
        <ele>87.140000000000001</ele>
        <time>2023-08-30T15:09:20Z</time>
      </trkpt>
      <trkpt lat="56.590118017047644" lon="-5.684099039062858">
        <ele>86.659999999999997</ele>
        <time>2023-08-30T15:09:21Z</time>
      </trkpt>
      <trkpt lat="56.590226981788874" lon="-5.682522989809513">
        <ele>86.180000000000007</ele>
        <time>2023-08-30T15:09:26Z</time>
      </trkpt>
      <trkpt lat="56.590284984558821" lon="-5.682242028415203">
        <ele>86.180000000000007</ele>
        <time>2023-08-30T15:09:27Z</time>
      </trkpt>
      <trkpt lat="56.590356985107064" lon="-5.681983027607203">
        <ele>86.659999999999997</ele>
        <time>2023-08-30T15:09:28Z</time>
      </trkpt>
      <trkpt lat="56.59045203588903" lon="-5.681744981557131">
        <ele>86.659999999999997</ele>
        <time>2023-08-30T15:09:29Z</time>
      </trkpt>
      <trkpt lat="56.590549014508724" lon="-5.681504001840949">
        <ele>86.659999999999997</ele>
        <time>2023-08-30T15:09:30Z</time>
      </trkpt>
      <trkpt lat="56.590662002563477" lon="-5.681292023509741">
        <ele>86.659999999999997</ele>
        <time>2023-08-30T15:09:31Z</time>
      </trkpt>
      <trkpt lat="56.590782031416893" lon="-5.681091025471687">
        <ele>87.140000000000001</ele>
        <time>2023-08-30T15:09:32Z</time>
      </trkpt>
      <trkpt lat="56.591934962198138" lon="-5.679300986230373">
        <ele>88.579999999999998</ele>
        <time>2023-08-30T15:09:41Z</time>
      </trkpt>
      <trkpt lat="56.592086004093289" lon="-5.679167965427041">
        <ele>88.579999999999998</ele>
        <time>2023-08-30T15:09:42Z</time>
      </trkpt>
      <trkpt lat="56.592240985482931" lon="-5.679031005129218">
        <ele>89.060000000000002</ele>
        <time>2023-08-30T15:09:43Z</time>
      </trkpt>
      <trkpt lat="56.592716993764043" lon="-5.678601013496518">
        <ele>89.060000000000002</ele>
        <time>2023-08-30T15:09:46Z</time>
      </trkpt>
      <trkpt lat="56.592863006517291" lon="-5.678395992144942">
        <ele>89.060000000000002</ele>
        <time>2023-08-30T15:09:47Z</time>
      </trkpt>
      <trkpt lat="56.59301396459341" lon="-5.678184013813734">
        <ele>89.060000000000002</ele>
        <time>2023-08-30T15:09:48Z</time>
      </trkpt>
      <trkpt lat="56.593145979568362" lon="-5.677932975813747">
        <ele>89.060000000000002</ele>
        <time>2023-08-30T15:09:49Z</time>
      </trkpt>
      <trkpt lat="56.593276988714933" lon="-5.677675986662507">
        <ele>89.060000000000002</ele>
        <time>2023-08-30T15:09:50Z</time>
      </trkpt>
      <trkpt lat="56.594252977520227" lon="-5.675423014909029">
        <ele>88.099999999999994</ele>
        <time>2023-08-30T15:09:59Z</time>
      </trkpt>
      <trkpt lat="56.595344971865416" lon="-5.673453016206622">
        <ele>89.540000000000006</ele>
        <time>2023-08-30T15:10:08Z</time>
      </trkpt>
      <trkpt lat="56.595490984618664" lon="-5.673237014561892">
        <ele>90.019999999999996</ele>
        <time>2023-08-30T15:10:09Z</time>
      </trkpt>
      <trkpt lat="56.596905011683702" lon="-5.67194402217865">
        <ele>97.709999999999994</ele>
        <time>2023-08-30T15:10:18Z</time>
      </trkpt>
      <trkpt lat="56.597884017974138" lon="-5.671416968107224">
        <ele>103</ele>
        <time>2023-08-30T15:10:24Z</time>
      </trkpt>
      <trkpt lat="56.598877022042871" lon="-5.671054031699896">
        <ele>106.36</ele>
        <time>2023-08-30T15:10:31Z</time>
      </trkpt>
      <trkpt lat="56.599987959489226" lon="-5.670529995113611">
        <ele>106.36</ele>
        <time>2023-08-30T15:10:38Z</time>
      </trkpt>
      <trkpt lat="56.60207798704505" lon="-5.669263992458582">
        <ele>114.05</ele>
        <time>2023-08-30T15:10:50Z</time>
      </trkpt>
      <trkpt lat="56.603853022679687" lon="-5.668260008096695">
        <ele>118.86</ele>
        <time>2023-08-30T15:11:00Z</time>
      </trkpt>
      <trkpt lat="56.606425009667873" lon="-5.667053014039993">
        <ele>125.59</ele>
        <time>2023-08-30T15:11:14Z</time>
      </trkpt>
      <trkpt lat="56.607914976775646" lon="-5.666378019377589">
        <ele>132.80000000000001</ele>
        <time>2023-08-30T15:11:23Z</time>
      </trkpt>
      <trkpt lat="56.608539009466767" lon="-5.666179032996297">
        <ele>134.72</ele>
        <time>2023-08-30T15:11:29Z</time>
      </trkpt>
      <trkpt lat="56.609528996050358" lon="-5.665862029418349">
        <ele>136.16</ele>
        <time>2023-08-30T15:11:35Z</time>
      </trkpt>
      <trkpt lat="56.610430972650647" lon="-5.665573021396995">
        <ele>139.53</ele>
        <time>2023-08-30T15:11:41Z</time>
      </trkpt>
      <trkpt lat="56.611320041120052" lon="-5.664863996207714">
        <ele>143.37</ele>
        <time>2023-08-30T15:11:48Z</time>
      </trkpt>
      <trkpt lat="56.611592033877969" lon="-5.664584962651134">
        <ele>144.34</ele>
        <time>2023-08-30T15:11:50Z</time>
      </trkpt>
      <trkpt lat="56.611728994175792" lon="-5.66446702927351">
        <ele>144.81999999999999</ele>
        <time>2023-08-30T15:11:51Z</time>
      </trkpt>
      <trkpt lat="56.611884981393814" lon="-5.664400979876518">
        <ele>145.78</ele>
        <time>2023-08-30T15:11:52Z</time>
      </trkpt>
      <trkpt lat="56.6133570112288" lon="-5.663741994649172">
        <ele>151.53999999999999</ele>
        <time>2023-08-30T15:12:02Z</time>
      </trkpt>
      <trkpt lat="56.61340001039207" lon="-5.663712993264198">
        <ele>152.03</ele>
        <time>2023-08-30T15:12:06Z</time>
      </trkpt>
      <trkpt lat="56.613644007593393" lon="-5.663547031581402">
        <ele>152.50999999999999</ele>
        <time>2023-08-30T15:12:17Z</time>
      </trkpt>
      <trkpt lat="56.614575991407037" lon="-5.662914030253887">
        <ele>152.50999999999999</ele>
        <time>2023-08-30T15:12:25Z</time>
      </trkpt>
      <trkpt lat="56.615691035985947" lon="-5.661720028147101">
        <ele>153.47</ele>
        <time>2023-08-30T15:12:33Z</time>
      </trkpt>
      <trkpt lat="56.617561960592866" lon="-5.659151980653405">
        <ele>161.63999999999999</ele>
        <time>2023-08-30T15:12:47Z</time>
      </trkpt>
      <trkpt lat="56.617716019973159" lon="-5.659030023962259">
        <ele>162.59999999999999</ele>
        <time>2023-08-30T15:12:48Z</time>
      </trkpt>
      <trkpt lat="56.619666991755366" lon="-5.657649021595717">
        <ele>175.58000000000001</ele>
        <time>2023-08-30T15:12:59Z</time>
      </trkpt>
      <trkpt lat="56.621386958286166" lon="-5.656431969255209">
        <ele>183.75</ele>
        <time>2023-08-30T15:13:09Z</time>
      </trkpt>
      <trkpt lat="56.621534982696176" lon="-5.656246980652213">
        <ele>183.75</ele>
        <time>2023-08-30T15:13:10Z</time>
      </trkpt>
      <trkpt lat="56.621666997671127" lon="-5.656068027019501">
        <ele>183.75</ele>
        <time>2023-08-30T15:13:11Z</time>
      </trkpt>
      <trkpt lat="56.621790966019034" lon="-5.655889995396137">
        <ele>183.75</ele>
        <time>2023-08-30T15:13:12Z</time>
      </trkpt>
      <trkpt lat="56.621890040114522" lon="-5.655677011236548">
        <ele>184.22999999999999</ele>
        <time>2023-08-30T15:13:13Z</time>
      </trkpt>
      <trkpt lat="56.621976960450411" lon="-5.655435025691986">
        <ele>184.71000000000001</ele>
        <time>2023-08-30T15:13:14Z</time>
      </trkpt>
      <trkpt lat="56.622057007625699" lon="-5.655178958550096">
        <ele>185.19</ele>
        <time>2023-08-30T15:13:15Z</time>
      </trkpt>
      <trkpt lat="56.622678022831678" lon="-5.653462009504437">
        <ele>184.71000000000001</ele>
        <time>2023-08-30T15:13:22Z</time>
      </trkpt>
      <trkpt lat="56.622782964259386" lon="-5.653258999809623">
        <ele>184.22999999999999</ele>
        <time>2023-08-30T15:13:23Z</time>
      </trkpt>
      <trkpt lat="56.622915985062718" lon="-5.653105024248362">
        <ele>184.22999999999999</ele>
        <time>2023-08-30T15:13:24Z</time>
      </trkpt>
      <trkpt lat="56.623055040836334" lon="-5.652944007888436">
        <ele>183.75</ele>
        <time>2023-08-30T15:13:25Z</time>
      </trkpt>
      <trkpt lat="56.623202981427312" lon="-5.652786009013653">
        <ele>183.75</ele>
        <time>2023-08-30T15:13:26Z</time>
      </trkpt>
      <trkpt lat="56.62336902692914" lon="-5.652664974331856">
        <ele>183.75</ele>
        <time>2023-08-30T15:13:27Z</time>
      </trkpt>
      <trkpt lat="56.625483026728034" lon="-5.651174001395702">
        <ele>183.75</ele>
        <time>2023-08-30T15:13:39Z</time>
      </trkpt>
      <trkpt lat="56.62566801533103" lon="-5.651125973090529">
        <ele>183.27000000000001</ele>
        <time>2023-08-30T15:13:40Z</time>
      </trkpt>
      <trkpt lat="56.627378007397056" lon="-5.650737974792719">
        <ele>177.97999999999999</ele>
        <time>2023-08-30T15:13:48Z</time>
      </trkpt>
      <trkpt lat="56.630172031000257" lon="-5.65016096457839">
        <ele>185.19</ele>
        <time>2023-08-30T15:14:02Z</time>
      </trkpt>
      <trkpt lat="56.632578978314996" lon="-5.649549001827836">
        <ele>209.69999999999999</ele>
        <time>2023-08-30T15:14:15Z</time>
      </trkpt>
      <trkpt lat="56.63273898884654" lon="-5.649447999894619">
        <ele>210.66999999999999</ele>
        <time>2023-08-30T15:14:16Z</time>
      </trkpt>
      <trkpt lat="56.632879972457886" lon="-5.649290001019836">
        <ele>211.63</ele>
        <time>2023-08-30T15:14:17Z</time>
      </trkpt>
      <trkpt lat="56.63301701657474" lon="-5.64910501241684">
        <ele>212.59</ele>
        <time>2023-08-30T15:14:18Z</time>
      </trkpt>
      <trkpt lat="56.633156994357705" lon="-5.648916000500321">
        <ele>213.06999999999999</ele>
        <time>2023-08-30T15:14:19Z</time>
      </trkpt>
      <trkpt lat="56.633294960483909" lon="-5.648707961663604">
        <ele>213.55000000000001</ele>
        <time>2023-08-30T15:14:20Z</time>
      </trkpt>
      <trkpt lat="56.634577978402376" lon="-5.646561020985246">
        <ele>211.63</ele>
        <time>2023-08-30T15:14:30Z</time>
      </trkpt>
      <trkpt lat="56.635411977767944" lon="-5.644350964576006">
        <ele>207.30000000000001</ele>
        <time>2023-08-30T15:14:38Z</time>
      </trkpt>
      <trkpt lat="56.636887025088072" lon="-5.640284987166524">
        <ele>198.16999999999999</ele>
        <time>2023-08-30T15:14:51Z</time>
      </trkpt>
      <trkpt lat="56.6377869900316" lon="-5.637687016278505">
        <ele>198.65000000000001</ele>
        <time>2023-08-30T15:15:00Z</time>
      </trkpt>
      <trkpt lat="56.637855973094702" lon="-5.637427009642124">
        <ele>198.65000000000001</ele>
        <time>2023-08-30T15:15:01Z</time>
      </trkpt>
      <trkpt lat="56.637917999178171" lon="-5.637164991348982">
        <ele>198.65000000000001</ele>
        <time>2023-08-30T15:15:02Z</time>
      </trkpt>
      <trkpt lat="56.637954963371158" lon="-5.636870032176375">
        <ele>198.16999999999999</ele>
        <time>2023-08-30T15:15:03Z</time>
      </trkpt>
      <trkpt lat="56.637993017211556" lon="-5.636566020548344">
        <ele>198.16999999999999</ele>
        <time>2023-08-30T15:15:04Z</time>
      </trkpt>
      <trkpt lat="56.63802201859653" lon="-5.636250022798777">
        <ele>198.16999999999999</ele>
        <time>2023-08-30T15:15:05Z</time>
      </trkpt>
      <trkpt lat="56.638116985559464" lon="-5.632703974843025">
        <ele>196.72999999999999</ele>
        <time>2023-08-30T15:15:15Z</time>
      </trkpt>
      <trkpt lat="56.637992011383176" lon="-5.630087982863188">
        <ele>194.80000000000001</ele>
        <time>2023-08-30T15:15:23Z</time>
      </trkpt>
      <trkpt lat="56.637927973642945" lon="-5.626636985689402">
        <ele>190</ele>
        <time>2023-08-30T15:15:33Z</time>
      </trkpt>
      <trkpt lat="56.637859996408224" lon="-5.623447000980377">
        <ele>185.19</ele>
        <time>2023-08-30T15:15:43Z</time>
      </trkpt>
      <trkpt lat="56.637901989743114" lon="-5.620763031765819">
        <ele>173.16999999999999</ele>
        <time>2023-08-30T15:15:52Z</time>
      </trkpt>
      <trkpt lat="56.637944988906384" lon="-5.620517022907734">
        <ele>171.72999999999999</ele>
        <time>2023-08-30T15:15:53Z</time>
      </trkpt>
      <trkpt lat="56.638058982789516" lon="-5.620076972991228">
        <ele>169.81</ele>
        <time>2023-08-30T15:15:55Z</time>
      </trkpt>
      <trkpt lat="56.638124026358128" lon="-5.619897013530135">
        <ele>168.84999999999999</ele>
        <time>2023-08-30T15:15:56Z</time>
      </trkpt>
      <trkpt lat="56.638197032734752" lon="-5.619743959978223">
        <ele>168.37</ele>
        <time>2023-08-30T15:15:57Z</time>
      </trkpt>
      <trkpt lat="56.638312032446265" lon="-5.619504991918802">
        <ele>167.88999999999999</ele>
        <time>2023-08-30T15:15:59Z</time>
      </trkpt>
      <trkpt lat="56.638342039659619" lon="-5.619442965835333">
        <ele>167.41</ele>
        <time>2023-08-30T15:16:00Z</time>
      </trkpt>
      <trkpt lat="56.638310020789504" lon="-5.619337018579245">
        <ele>167.41</ele>
        <time>2023-08-30T15:16:01Z</time>
      </trkpt>
      <trkpt lat="56.638284958899021" lon="-5.619256971403956">
        <ele>166.93000000000001</ele>
        <time>2023-08-30T15:16:02Z</time>
      </trkpt>
      <trkpt lat="56.638254029676318" lon="-5.61915404163301">
        <ele>166.44999999999999</ele>
        <time>2023-08-30T15:16:03Z</time>
      </trkpt>
      <trkpt lat="56.638190997764468" lon="-5.618856986984611">
        <ele>165.96000000000001</ele>
        <time>2023-08-30T15:16:05Z</time>
      </trkpt>
      <trkpt lat="56.638190997764468" lon="-5.618712985888124">
        <ele>166.44999999999999</ele>
        <time>2023-08-30T15:16:06Z</time>
      </trkpt>
      <trkpt lat="56.638202983886003" lon="-5.618510982021689">
        <ele>166.44999999999999</ele>
        <time>2023-08-30T15:16:07Z</time>
      </trkpt>
      <trkpt lat="56.638221004977822" lon="-5.618303027004004">
        <ele>166.44999999999999</ele>
        <time>2023-08-30T15:16:08Z</time>
      </trkpt>
      <trkpt lat="56.638275990262628" lon="-5.618135975673795">
        <ele>167.41</ele>
        <time>2023-08-30T15:16:09Z</time>
      </trkpt>
      <trkpt lat="56.638334998860955" lon="-5.617960039526224">
        <ele>168.37</ele>
        <time>2023-08-30T15:16:10Z</time>
      </trkpt>
      <trkpt lat="56.638394007459283" lon="-5.617783013731241">
        <ele>168.37</ele>
        <time>2023-08-30T15:16:11Z</time>
      </trkpt>
      <trkpt lat="56.638494003564119" lon="-5.617473972961307">
        <ele>169.33000000000001</ele>
        <time>2023-08-30T15:16:13Z</time>
      </trkpt>
      <trkpt lat="56.638515964150429" lon="-5.617305999621749">
        <ele>170.28999999999999</ele>
        <time>2023-08-30T15:16:14Z</time>
      </trkpt>
      <trkpt lat="56.638563992455602" lon="-5.616951026022434">
        <ele>171.25</ele>
        <time>2023-08-30T15:16:16Z</time>
      </trkpt>
      <trkpt lat="56.638586958870292" lon="-5.61677198857069">
        <ele>171.72999999999999</ele>
        <time>2023-08-30T15:16:17Z</time>
      </trkpt>
      <trkpt lat="56.638748981058598" lon="-5.615131985396147">
        <ele>177.02000000000001</ele>
        <time>2023-08-30T15:16:26Z</time>
      </trkpt>
      <trkpt lat="56.638748981058598" lon="-5.612070998176932">
        <ele>178.46000000000001</ele>
        <time>2023-08-30T15:16:39Z</time>
      </trkpt>
      <trkpt lat="56.638909997418523" lon="-5.60914495959878">
        <ele>178.46000000000001</ele>
        <time>2023-08-30T15:16:51Z</time>
      </trkpt>
      <trkpt lat="56.639181990176439" lon="-5.607107989490032">
        <ele>178.46000000000001</ele>
        <time>2023-08-30T15:17:00Z</time>
      </trkpt>
      <trkpt lat="56.639240998774767" lon="-5.606471970677376">
        <ele>178.46000000000001</ele>
        <time>2023-08-30T15:17:03Z</time>
      </trkpt>
      <trkpt lat="56.639272011816502" lon="-5.606263009831309">
        <ele>178.46000000000001</ele>
        <time>2023-08-30T15:17:04Z</time>
      </trkpt>
      <trkpt lat="56.639305036514997" lon="-5.606034016236663">
        <ele>178.46000000000001</ele>
        <time>2023-08-30T15:17:05Z</time>
      </trkpt>
      <trkpt lat="56.639423975721002" lon="-5.605074036866427">
        <ele>177.5</ele>
        <time>2023-08-30T15:17:09Z</time>
      </trkpt>
      <trkpt lat="56.639434034004807" lon="-5.604843031615019">
        <ele>177.02000000000001</ele>
        <time>2023-08-30T15:17:10Z</time>
      </trkpt>
      <trkpt lat="56.63942095823586" lon="-5.604613032191992">
        <ele>177.02000000000001</ele>
        <time>2023-08-30T15:17:11Z</time>
      </trkpt>
      <trkpt lat="56.639404026791453" lon="-5.604381021112204">
        <ele>177.02000000000001</ele>
        <time>2023-08-30T15:17:12Z</time>
      </trkpt>
      <trkpt lat="56.639387011528015" lon="-5.604156972840428">
        <ele>177.02000000000001</ele>
        <time>2023-08-30T15:17:13Z</time>
      </trkpt>
      <trkpt lat="56.639372007921338" lon="-5.603755982592702">
        <ele>176.53999999999999</ele>
        <time>2023-08-30T15:17:15Z</time>
      </trkpt>
      <trkpt lat="56.639372007921338" lon="-5.603567976504564">
        <ele>176.53999999999999</ele>
        <time>2023-08-30T15:17:16Z</time>
      </trkpt>
      <trkpt lat="56.639377037063241" lon="-5.603387011215091">
        <ele>176.53999999999999</ele>
        <time>2023-08-30T15:17:17Z</time>
      </trkpt>
      <trkpt lat="56.639410983771086" lon="-5.603219959884882">
        <ele>177.02000000000001</ele>
        <time>2023-08-30T15:17:18Z</time>
      </trkpt>
      <trkpt lat="56.639447025954723" lon="-5.603048969060183">
        <ele>177.02000000000001</ele>
        <time>2023-08-30T15:17:19Z</time>
      </trkpt>
      <trkpt lat="56.639740979298949" lon="-5.601621028035879">
        <ele>176.06</ele>
        <time>2023-08-30T15:17:27Z</time>
      </trkpt>
      <trkpt lat="56.639768974855542" lon="-5.601483983919025">
        <ele>175.58000000000001</ele>
        <time>2023-08-30T15:17:28Z</time>
      </trkpt>
      <trkpt lat="56.639794958755374" lon="-5.601356998085976">
        <ele>175.09999999999999</ele>
        <time>2023-08-30T15:17:29Z</time>
      </trkpt>
      <trkpt lat="56.639822032302618" lon="-5.601224983111024">
        <ele>174.62</ele>
        <time>2023-08-30T15:17:30Z</time>
      </trkpt>
      <trkpt lat="56.639811974018812" lon="-5.601085005328059">
        <ele>174.13999999999999</ele>
        <time>2023-08-30T15:17:31Z</time>
      </trkpt>
      <trkpt lat="56.639798982068896" lon="-5.600916026160121">
        <ele>173.66</ele>
        <time>2023-08-30T15:17:32Z</time>
      </trkpt>
      <trkpt lat="56.63978599011898" lon="-5.600735982879996">
        <ele>172.69</ele>
        <time>2023-08-30T15:17:33Z</time>
      </trkpt>
      <trkpt lat="56.63976201787591" lon="-5.600416967645288">
        <ele>171.25</ele>
        <time>2023-08-30T15:17:35Z</time>
      </trkpt>
      <trkpt lat="56.639753971248865" lon="-5.600303979590535">
        <ele>171.25</ele>
        <time>2023-08-30T15:17:36Z</time>
      </trkpt>
      <trkpt lat="56.639748020097613" lon="-5.600224016234279">
        <ele>170.77000000000001</ele>
        <time>2023-08-30T15:17:37Z</time>
      </trkpt>
      <trkpt lat="56.63974299095571" lon="-5.600161990150809">
        <ele>170.28999999999999</ele>
        <time>2023-08-30T15:17:38Z</time>
      </trkpt>
      <trkpt lat="56.639739973470569" lon="-5.600117985159159">
        <ele>169.81</ele>
        <time>2023-08-30T15:17:39Z</time>
      </trkpt>
      <trkpt lat="56.639737961813807" lon="-5.600087977945805">
        <ele>169.33000000000001</ele>
        <time>2023-08-30T15:17:40Z</time>
      </trkpt>
      <trkpt lat="56.639737961813807" lon="-5.600087977945805">
        <ele>168.37</ele>
        <time>2023-08-30T15:17:53Z</time>
      </trkpt>
      <trkpt lat="56.639724969863892" lon="-5.599916987121105">
        <ele>167.88999999999999</ele>
        <time>2023-08-30T15:18:36Z</time>
      </trkpt>
      <trkpt lat="56.639651041477919" lon="-5.598907973617315">
        <ele>165.47999999999999</ele>
        <time>2023-08-30T15:18:42Z</time>
      </trkpt>
      <trkpt lat="56.639750031754375" lon="-5.596770001575351">
        <ele>160.19999999999999</ele>
        <time>2023-08-30T15:18:50Z</time>
      </trkpt>
      <trkpt lat="56.640126965939999" lon="-5.593469962477684">
        <ele>161.16</ele>
        <time>2023-08-30T15:19:01Z</time>
      </trkpt>
      <trkpt lat="56.640398958697915" lon="-5.591020015999675">
        <ele>165</ele>
        <time>2023-08-30T15:19:09Z</time>
      </trkpt>
      <trkpt lat="56.64038403891027" lon="-5.590746011584997">
        <ele>165.47999999999999</ele>
        <time>2023-08-30T15:19:10Z</time>
      </trkpt>
      <trkpt lat="56.640369035303593" lon="-5.5904730129987">
        <ele>165.96000000000001</ele>
        <time>2023-08-30T15:19:11Z</time>
      </trkpt>
      <trkpt lat="56.640336010605097" lon="-5.59019397944212">
        <ele>166.44999999999999</ele>
        <time>2023-08-30T15:19:12Z</time>
      </trkpt>
      <trkpt lat="56.640269961208105" lon="-5.589940007776022">
        <ele>166.93000000000001</ele>
        <time>2023-08-30T15:19:13Z</time>
      </trkpt>
      <trkpt lat="56.640200978145003" lon="-5.589673966169357">
        <ele>166.93000000000001</ele>
        <time>2023-08-30T15:19:14Z</time>
      </trkpt>
      <trkpt lat="56.64012897759676" lon="-5.58939803391695">
        <ele>166.93000000000001</ele>
        <time>2023-08-30T15:19:15Z</time>
      </trkpt>
      <trkpt lat="56.639551967382431" lon="-5.586874997243285">
        <ele>164.03999999999999</ele>
        <time>2023-08-30T15:19:23Z</time>
      </trkpt>
      <trkpt lat="56.63939799182117" lon="-5.584029005840421">
        <ele>165.96000000000001</ele>
        <time>2023-08-30T15:19:31Z</time>
      </trkpt>
      <trkpt lat="56.638971017673612" lon="-5.58147001080215">
        <ele>167.41</ele>
        <time>2023-08-30T15:19:39Z</time>
      </trkpt>
      <trkpt lat="56.638394007459283" lon="-5.57942901737988">
        <ele>166.44999999999999</ele>
        <time>2023-08-30T15:19:46Z</time>
      </trkpt>
      <trkpt lat="56.63830297999084" lon="-5.579198012128472">
        <ele>166.44999999999999</ele>
        <time>2023-08-30T15:19:47Z</time>
      </trkpt>
      <trkpt lat="56.638193009421229" lon="-5.579025009647012">
        <ele>165.96000000000001</ele>
        <time>2023-08-30T15:19:48Z</time>
      </trkpt>
      <trkpt lat="56.638081027194858" lon="-5.578851001337171">
        <ele>165.96000000000001</ele>
        <time>2023-08-30T15:19:49Z</time>
      </trkpt>
      <trkpt lat="56.637953035533428" lon="-5.578718986362219">
        <ele>165.96000000000001</ele>
        <time>2023-08-30T15:19:50Z</time>
      </trkpt>
      <trkpt lat="56.637819008901715" lon="-5.578589988872409">
        <ele>165.96000000000001</ele>
        <time>2023-08-30T15:19:51Z</time>
      </trkpt>
      <trkpt lat="56.63768095895648" lon="-5.578457973897457">
        <ele>165.96000000000001</ele>
        <time>2023-08-30T15:19:52Z</time>
      </trkpt>
      <trkpt lat="56.63699297234416" lon="-5.577760012820363">
        <ele>165.96000000000001</ele>
        <time>2023-08-30T15:19:57Z</time>
      </trkpt>
      <trkpt lat="56.636880990117788" lon="-5.577580975368619">
        <ele>166.44999999999999</ele>
        <time>2023-08-30T15:19:58Z</time>
      </trkpt>
      <trkpt lat="56.636781999841332" lon="-5.577376959845424">
        <ele>166.44999999999999</ele>
        <time>2023-08-30T15:19:59Z</time>
      </trkpt>
      <trkpt lat="56.63669197820127" lon="-5.577163975685835">
        <ele>166.44999999999999</ele>
        <time>2023-08-30T15:20:00Z</time>
      </trkpt>
      <trkpt lat="56.636640010401607" lon="-5.576928025111556">
        <ele>166.44999999999999</ele>
        <time>2023-08-30T15:20:01Z</time>
      </trkpt>
      <trkpt lat="56.636602040380239" lon="-5.576677992939949">
        <ele>166.93000000000001</ele>
        <time>2023-08-30T15:20:02Z</time>
      </trkpt>
      <trkpt lat="56.63656197488308" lon="-5.57642100378871">
        <ele>166.93000000000001</ele>
        <time>2023-08-30T15:20:03Z</time>
      </trkpt>
      <trkpt lat="56.63653900846839" lon="-5.576166026294231">
        <ele>166.93000000000001</ele>
        <time>2023-08-30T15:20:04Z</time>
      </trkpt>
      <trkpt lat="56.63653900846839" lon="-5.575898978859186">
        <ele>166.93000000000001</ele>
        <time>2023-08-30T15:20:05Z</time>
      </trkpt>
      <trkpt lat="56.63653900846839" lon="-5.57562698610127">
        <ele>166.93000000000001</ele>
        <time>2023-08-30T15:20:06Z</time>
      </trkpt>
      <trkpt lat="56.636488968506455" lon="-5.574319995939732">
        <ele>166.44999999999999</ele>
        <time>2023-08-30T15:20:11Z</time>
      </trkpt>
      <trkpt lat="56.636456027626991" lon="-5.574158979579806">
        <ele>166.44999999999999</ele>
        <time>2023-08-30T15:20:12Z</time>
      </trkpt>
      <trkpt lat="56.636403976008296" lon="-5.574020007625222">
        <ele>166.44999999999999</ele>
        <time>2023-08-30T15:20:13Z</time>
      </trkpt>
      <trkpt lat="56.636348990723491" lon="-5.573876006528735">
        <ele>166.44999999999999</ele>
        <time>2023-08-30T15:20:14Z</time>
      </trkpt>
      <trkpt lat="56.636294005438685" lon="-5.573728987947106">
        <ele>165.96000000000001</ele>
        <time>2023-08-30T15:20:15Z</time>
      </trkpt>
      <trkpt lat="56.63623902015388" lon="-5.573581969365478">
        <ele>165.96000000000001</ele>
        <time>2023-08-30T15:20:16Z</time>
      </trkpt>
      <trkpt lat="56.636210018768907" lon="-5.573435034602881">
        <ele>165.96000000000001</ele>
        <time>2023-08-30T15:20:17Z</time>
      </trkpt>
      <trkpt lat="56.636197026818991" lon="-5.573278041556478">
        <ele>165.47999999999999</ele>
        <time>2023-08-30T15:20:18Z</time>
      </trkpt>
      <trkpt lat="56.636183029040694" lon="-5.573120964691043">
        <ele>165.47999999999999</ele>
        <time>2023-08-30T15:20:19Z</time>
      </trkpt>
      <trkpt lat="56.636169031262398" lon="-5.572957014665008">
        <ele>165</ele>
        <time>2023-08-30T15:20:20Z</time>
      </trkpt>
      <trkpt lat="56.636155033484101" lon="-5.572788035497069">
        <ele>165</ele>
        <time>2023-08-30T15:20:21Z</time>
      </trkpt>
      <trkpt lat="56.636141035705805" lon="-5.572620984166861">
        <ele>164.52000000000001</ele>
        <time>2023-08-30T15:20:22Z</time>
      </trkpt>
      <trkpt lat="56.636117985472083" lon="-5.572448987513781">
        <ele>164.03999999999999</ele>
        <time>2023-08-30T15:20:23Z</time>
      </trkpt>
      <trkpt lat="56.635878011584282" lon="-5.57143502868712">
        <ele>161.63999999999999</ele>
        <time>2023-08-30T15:20:29Z</time>
      </trkpt>
      <trkpt lat="56.635825959965587" lon="-5.571317011490464">
        <ele>161.63999999999999</ele>
        <time>2023-08-30T15:20:30Z</time>
      </trkpt>
      <trkpt lat="56.635778015479445" lon="-5.571208968758583">
        <ele>161.16</ele>
        <time>2023-08-30T15:20:31Z</time>
      </trkpt>
      <trkpt lat="56.635650023818016" lon="-5.570838991552591">
        <ele>159.72</ele>
        <time>2023-08-30T15:20:34Z</time>
      </trkpt>
      <trkpt lat="56.635618004947901" lon="-5.570678981021047">
        <ele>158.75</ele>
        <time>2023-08-30T15:20:35Z</time>
      </trkpt>
      <trkpt lat="56.635581040754914" lon="-5.570493992418051">
        <ele>158.27000000000001</ele>
        <time>2023-08-30T15:20:36Z</time>
      </trkpt>
      <trkpt lat="56.635543992742896" lon="-5.570306992158294">
        <ele>157.31</ele>
        <time>2023-08-30T15:20:37Z</time>
      </trkpt>
      <trkpt lat="56.63548699580133" lon="-5.570146981626749">
        <ele>156.83000000000001</ele>
        <time>2023-08-30T15:20:38Z</time>
      </trkpt>
      <trkpt lat="56.635427987203002" lon="-5.57001898996532">
        <ele>156.34999999999999</ele>
        <time>2023-08-30T15:20:39Z</time>
      </trkpt>
      <trkpt lat="56.635371996089816" lon="-5.569898039102554">
        <ele>155.87</ele>
        <time>2023-08-30T15:20:40Z</time>
      </trkpt>
      <trkpt lat="56.635309970006347" lon="-5.569765018299222">
        <ele>155.38999999999999</ele>
        <time>2023-08-30T15:20:41Z</time>
      </trkpt>
      <trkpt lat="56.635245010256767" lon="-5.569619005545974">
        <ele>154.91</ele>
        <time>2023-08-30T15:20:42Z</time>
      </trkpt>
      <trkpt lat="56.635188013315201" lon="-5.569451032206416">
        <ele>154.43000000000001</ele>
        <time>2023-08-30T15:20:43Z</time>
      </trkpt>
      <trkpt lat="56.634813006967306" lon="-5.568345040082932">
        <ele>151.53999999999999</ele>
        <time>2023-08-30T15:20:49Z</time>
      </trkpt>
      <trkpt lat="56.634041033685207" lon="-5.566317038610578">
        <ele>143.37</ele>
        <time>2023-08-30T15:21:00Z</time>
      </trkpt>
      <trkpt lat="56.633521020412445" lon="-5.564853977411985">
        <ele>138.56999999999999</ele>
        <time>2023-08-30T15:21:08Z</time>
      </trkpt>
      <trkpt lat="56.633417000994086" lon="-5.56449699215591">
        <ele>137.13</ele>
        <time>2023-08-30T15:21:10Z</time>
      </trkpt>
      <trkpt lat="56.633363021537662" lon="-5.564310997724533">
        <ele>136.63999999999999</ele>
        <time>2023-08-30T15:21:11Z</time>
      </trkpt>
      <trkpt lat="56.633069990202785" lon="-5.563123030588031">
        <ele>131.84</ele>
        <time>2023-08-30T15:21:17Z</time>
      </trkpt>
      <trkpt lat="56.632919032126665" lon="-5.561806987971067">
        <ele>127.51000000000001</ele>
        <time>2023-08-30T15:21:23Z</time>
      </trkpt>
      <trkpt lat="56.632877038791776" lon="-5.561614036560059">
        <ele>127.03</ele>
        <time>2023-08-30T15:21:24Z</time>
      </trkpt>
      <trkpt lat="56.632828004658222" lon="-5.561433993279934">
        <ele>126.55</ele>
        <time>2023-08-30T15:21:25Z</time>
      </trkpt>
      <trkpt lat="56.632739994674921" lon="-5.561113972216845">
        <ele>125.59</ele>
        <time>2023-08-30T15:21:27Z</time>
      </trkpt>
      <trkpt lat="56.632700012996793" lon="-5.560968965291977">
        <ele>125.59</ele>
        <time>2023-08-30T15:21:28Z</time>
      </trkpt>
      <trkpt lat="56.632675034925342" lon="-5.560809038579464">
        <ele>125.59</ele>
        <time>2023-08-30T15:21:29Z</time>
      </trkpt>
      <trkpt lat="56.632668999955058" lon="-5.560631006956101">
        <ele>125.59</ele>
        <time>2023-08-30T15:21:30Z</time>
      </trkpt>
      <trkpt lat="56.632663970813155" lon="-5.560444006696343">
        <ele>125.11</ele>
        <time>2023-08-30T15:21:31Z</time>
      </trkpt>
      <trkpt lat="56.632658019661903" lon="-5.560256000608206">
        <ele>125.11</ele>
        <time>2023-08-30T15:21:32Z</time>
      </trkpt>
      <trkpt lat="56.632636981084943" lon="-5.560073023661971">
        <ele>125.11</ele>
        <time>2023-08-30T15:21:33Z</time>
      </trkpt>
      <trkpt lat="56.632598005235195" lon="-5.559903960675001">
        <ele>125.11</ele>
        <time>2023-08-30T15:21:34Z</time>
      </trkpt>
      <trkpt lat="56.632558023557067" lon="-5.559728024527431">
        <ele>125.11</ele>
        <time>2023-08-30T15:21:35Z</time>
      </trkpt>
      <trkpt lat="56.632518041878939" lon="-5.559554016217589">
        <ele>125.11</ele>
        <time>2023-08-30T15:21:36Z</time>
      </trkpt>
      <trkpt lat="56.632115039974451" lon="-5.558255994692445">
        <ele>120.78</ele>
        <time>2023-08-30T15:21:46Z</time>
      </trkpt>
      <trkpt lat="56.632073968648911" lon="-5.558097995817661">
        <ele>119.81999999999999</ele>
        <time>2023-08-30T15:21:48Z</time>
      </trkpt>
      <trkpt lat="56.632058965042233" lon="-5.558031024411321">
        <ele>119.34</ele>
        <time>2023-08-30T15:21:49Z</time>
      </trkpt>
      <trkpt lat="56.632045973092318" lon="-5.557968998327851">
        <ele>118.38</ele>
        <time>2023-08-30T15:21:50Z</time>
      </trkpt>
      <trkpt lat="56.632037004455924" lon="-5.557933039963245">
        <ele>117.90000000000001</ele>
        <time>2023-08-30T15:21:51Z</time>
      </trkpt>
      <trkpt lat="56.632037004455924" lon="-5.557933039963245">
        <ele>117.42</ele>
        <time>2023-08-30T15:22:06Z</time>
      </trkpt>
      <trkpt lat="56.63194103166461" lon="-5.557479998096824">
        <ele>112.61</ele>
        <time>2023-08-30T15:22:29Z</time>
      </trkpt>
      <trkpt lat="56.631840029731393" lon="-5.556917991489172">
        <ele>110.20999999999999</ele>
        <time>2023-08-30T15:22:32Z</time>
      </trkpt>
      <trkpt lat="56.631840029731393" lon="-5.556726967915893">
        <ele>109.73</ele>
        <time>2023-08-30T15:22:33Z</time>
      </trkpt>
      <trkpt lat="56.631840029731393" lon="-5.556538039818406">
        <ele>108.77</ele>
        <time>2023-08-30T15:22:34Z</time>
      </trkpt>
      <trkpt lat="56.631840029731393" lon="-5.556365037336946">
        <ele>107.81</ele>
        <time>2023-08-30T15:22:35Z</time>
      </trkpt>
      <trkpt lat="56.631819996982813" lon="-5.556222964078188">
        <ele>106.84</ele>
        <time>2023-08-30T15:22:36Z</time>
      </trkpt>
      <trkpt lat="56.631795018911362" lon="-5.556080974638462">
        <ele>106.36</ele>
        <time>2023-08-30T15:22:37Z</time>
      </trkpt>
      <trkpt lat="56.631756965070963" lon="-5.555923981592059">
        <ele>105.40000000000001</ele>
        <time>2023-08-30T15:22:38Z</time>
      </trkpt>
      <trkpt lat="56.631380030885339" lon="-5.554969031363726">
        <ele>100.11</ele>
        <time>2023-08-30T15:22:43Z</time>
      </trkpt>
      <trkpt lat="56.630775025114417" lon="-5.553334979340434">
        <ele>89.540000000000006</ele>
        <time>2023-08-30T15:22:51Z</time>
      </trkpt>
      <trkpt lat="56.630432037636638" lon="-5.55180000141263">
        <ele>82.329999999999998</ele>
        <time>2023-08-30T15:22:57Z</time>
      </trkpt>
      <trkpt lat="56.630374034866691" lon="-5.551529014483094">
        <ele>80.890000000000001</ele>
        <time>2023-08-30T15:22:58Z</time>
      </trkpt>
      <trkpt lat="56.629482032731175" lon="-5.548651004210115">
        <ele>71.269999999999996</ele>
        <time>2023-08-30T15:23:09Z</time>
      </trkpt>
      <trkpt lat="56.629414977505803" lon="-5.548460986465216">
        <ele>70.790000000000006</ele>
        <time>2023-08-30T15:23:10Z</time>
      </trkpt>
      <trkpt lat="56.629322022199631" lon="-5.548289995640516">
        <ele>70.310000000000002</ele>
        <time>2023-08-30T15:23:11Z</time>
      </trkpt>
      <trkpt lat="56.629233006387949" lon="-5.54812797345221">
        <ele>69.829999999999998</ele>
        <time>2023-08-30T15:23:12Z</time>
      </trkpt>
      <trkpt lat="56.62906201556325" lon="-5.547815999016166">
        <ele>69.349999999999994</ele>
        <time>2023-08-30T15:23:14Z</time>
      </trkpt>
      <trkpt lat="56.628981968387961" lon="-5.547669986262918">
        <ele>69.349999999999994</ele>
        <time>2023-08-30T15:23:15Z</time>
      </trkpt>
      <trkpt lat="56.628908040001988" lon="-5.547506036236882">
        <ele>68.870000000000005</ele>
        <time>2023-08-30T15:23:16Z</time>
      </trkpt>
      <trkpt lat="56.628770995885134" lon="-5.546979987993836">
        <ele>68.390000000000001</ele>
        <time>2023-08-30T15:23:19Z</time>
      </trkpt>
      <trkpt lat="56.628746017813683" lon="-5.546735990792513">
        <ele>68.870000000000005</ele>
        <time>2023-08-30T15:23:20Z</time>
      </trkpt>
      <trkpt lat="56.628723973408341" lon="-5.546518983319402">
        <ele>68.870000000000005</ele>
        <time>2023-08-30T15:23:21Z</time>
      </trkpt>
      <trkpt lat="56.628532027825713" lon="-5.544653004035354">
        <ele>72.719999999999999</ele>
        <time>2023-08-30T15:23:29Z</time>
      </trkpt>
      <trkpt lat="56.628524987027049" lon="-5.542764980345964">
        <ele>78</ele>
        <time>2023-08-30T15:23:37Z</time>
      </trkpt>
      <trkpt lat="56.628528004512191" lon="-5.542214037850499">
        <ele>80.890000000000001</ele>
        <time>2023-08-30T15:23:40Z</time>
      </trkpt>
      <trkpt lat="56.628519035875797" lon="-5.541855962947011">
        <ele>81.849999999999994</ele>
        <time>2023-08-30T15:23:42Z</time>
      </trkpt>
      <trkpt lat="56.628514006733894" lon="-5.541668040677905">
        <ele>81.849999999999994</ele>
        <time>2023-08-30T15:23:43Z</time>
      </trkpt>
      <trkpt lat="56.628495985642076" lon="-5.540940994396806">
        <ele>81.370000000000005</ele>
        <time>2023-08-30T15:23:47Z</time>
      </trkpt>
      <trkpt lat="56.628479976207018" lon="-5.540770003572106">
        <ele>80.890000000000001</ele>
        <time>2023-08-30T15:23:48Z</time>
      </trkpt>
      <trkpt lat="56.628429014235735" lon="-5.540621979162097">
        <ele>80.890000000000001</ele>
        <time>2023-08-30T15:23:49Z</time>
      </trkpt>
      <trkpt lat="56.628363970667124" lon="-5.540532963350415">
        <ele>79.930000000000007</ele>
        <time>2023-08-30T15:23:50Z</time>
      </trkpt>
      <trkpt lat="56.628294987604022" lon="-5.540440008044243">
        <ele>79.450000000000003</ele>
        <time>2023-08-30T15:23:51Z</time>
      </trkpt>
      <trkpt lat="56.628221981227398" lon="-5.540340011939406">
        <ele>78.969999999999999</ele>
        <time>2023-08-30T15:23:52Z</time>
      </trkpt>
      <trkpt lat="56.628146963194013" lon="-5.540238004177809">
        <ele>78.480000000000004</ele>
        <time>2023-08-30T15:23:53Z</time>
      </trkpt>
      <trkpt lat="56.628079991787672" lon="-5.540098026394844">
        <ele>78</ele>
        <time>2023-08-30T15:23:54Z</time>
      </trkpt>
      <trkpt lat="56.62801000289619" lon="-5.539953019469976">
        <ele>77.519999999999996</ele>
        <time>2023-08-30T15:23:55Z</time>
      </trkpt>
      <trkpt lat="56.627575987949967" lon="-5.539052970707417">
        <ele>75.120000000000005</ele>
        <time>2023-08-30T15:24:01Z</time>
      </trkpt>
      <trkpt lat="56.627542963251472" lon="-5.538894971832633">
        <ele>74.640000000000001</ele>
        <time>2023-08-30T15:24:02Z</time>
      </trkpt>
      <trkpt lat="56.627512034028769" lon="-5.538730015978217">
        <ele>74.159999999999997</ele>
        <time>2023-08-30T15:24:03Z</time>
      </trkpt>
      <trkpt lat="56.627444978803396" lon="-5.538374036550522">
        <ele>72.719999999999999</ele>
        <time>2023-08-30T15:24:05Z</time>
      </trkpt>
      <trkpt lat="56.627389993518591" lon="-5.538202039897442">
        <ele>72.239999999999995</ele>
        <time>2023-08-30T15:24:06Z</time>
      </trkpt>
      <trkpt lat="56.627331990748644" lon="-5.53802702575922">
        <ele>71.760000000000005</ele>
        <time>2023-08-30T15:24:07Z</time>
      </trkpt>
      <trkpt lat="56.627076007425785" lon="-5.537259997799993">
        <ele>69.829999999999998</ele>
        <time>2023-08-30T15:24:11Z</time>
      </trkpt>
      <trkpt lat="56.627040971070528" lon="-5.53701700642705">
        <ele>69.349999999999994</ele>
        <time>2023-08-30T15:24:12Z</time>
      </trkpt>
      <trkpt lat="56.627008030191064" lon="-5.536788012832403">
        <ele>68.390000000000001</ele>
        <time>2023-08-30T15:24:13Z</time>
      </trkpt>
      <trkpt lat="56.626925971359015" lon="-5.536230029538274">
        <ele>67.430000000000007</ele>
        <time>2023-08-30T15:24:16Z</time>
      </trkpt>
      <trkpt lat="56.626942986622453" lon="-5.536067001521587">
        <ele>66.950000000000003</ele>
        <time>2023-08-30T15:24:17Z</time>
      </trkpt>
      <trkpt lat="56.626960001885891" lon="-5.53590196184814">
        <ele>65.989999999999995</ele>
        <time>2023-08-30T15:24:18Z</time>
      </trkpt>
      <trkpt lat="56.627011969685555" lon="-5.535393012687564">
        <ele>64.069999999999993</ele>
        <time>2023-08-30T15:24:21Z</time>
      </trkpt>
      <trkpt lat="56.626999983564019" lon="-5.53521104156971">
        <ele>63.579999999999998</ele>
        <time>2023-08-30T15:24:22Z</time>
      </trkpt>
      <trkpt lat="56.626981040462852" lon="-5.535052036866546">
        <ele>63.100000000000001</ele>
        <time>2023-08-30T15:24:23Z</time>
      </trkpt>
      <trkpt lat="56.62691499106586" lon="-5.53491398692131">
        <ele>62.619999999999997</ele>
        <time>2023-08-30T15:24:24Z</time>
      </trkpt>
      <trkpt lat="56.626839973032475" lon="-5.534759005531669">
        <ele>61.659999999999997</ele>
        <time>2023-08-30T15:24:25Z</time>
      </trkpt>
      <trkpt lat="56.62676302716136" lon="-5.534598995000124">
        <ele>61.18</ele>
        <time>2023-08-30T15:24:26Z</time>
      </trkpt>
      <trkpt lat="56.626683985814452" lon="-5.534428004175425">
        <ele>61.18</ele>
        <time>2023-08-30T15:24:27Z</time>
      </trkpt>
      <trkpt lat="56.626629000529647" lon="-5.534234968945384">
        <ele>61.18</ele>
        <time>2023-08-30T15:24:28Z</time>
      </trkpt>
      <trkpt lat="56.626391960307956" lon="-5.533475987613201">
        <ele>60.219999999999999</ele>
        <time>2023-08-30T15:24:32Z</time>
      </trkpt>
      <trkpt lat="56.625760970637202" lon="-5.532411988824606">
        <ele>57.340000000000003</ele>
        <time>2023-08-30T15:24:40Z</time>
      </trkpt>
      <trkpt lat="56.625689975917339" lon="-5.532416012138128">
        <ele>56.369999999999997</ele>
        <time>2023-08-30T15:24:41Z</time>
      </trkpt>
      <trkpt lat="56.625613030046225" lon="-5.532421041280031">
        <ele>56.369999999999997</ele>
        <time>2023-08-30T15:24:42Z</time>
      </trkpt>
      <trkpt lat="56.625530971214175" lon="-5.532424980774522">
        <ele>55.890000000000001</ele>
        <time>2023-08-30T15:24:43Z</time>
      </trkpt>
      <trkpt lat="56.625456036999822" lon="-5.532430009916425">
        <ele>55.409999999999997</ele>
        <time>2023-08-30T15:24:44Z</time>
      </trkpt>
      <trkpt lat="56.625383030623198" lon="-5.532386004924774">
        <ele>55.409999999999997</ele>
        <time>2023-08-30T15:24:45Z</time>
      </trkpt>
      <trkpt lat="56.625316981226206" lon="-5.53231299854815">
        <ele>54.93</ele>
        <time>2023-08-30T15:24:46Z</time>
      </trkpt>
      <trkpt lat="56.62523802369833" lon="-5.532224988564849">
        <ele>54.93</ele>
        <time>2023-08-30T15:24:47Z</time>
      </trkpt>
      <trkpt lat="56.624672999605536" lon="-5.531599028035998">
        <ele>53.009999999999998</ele>
        <time>2023-08-30T15:24:53Z</time>
      </trkpt>
      <trkpt lat="56.624608961865306" lon="-5.531485034152865">
        <ele>53.009999999999998</ele>
        <time>2023-08-30T15:24:54Z</time>
      </trkpt>
      <trkpt lat="56.624565962702036" lon="-5.531352013349533">
        <ele>53.009999999999998</ele>
        <time>2023-08-30T15:24:55Z</time>
      </trkpt>
      <trkpt lat="56.62446403875947" lon="-5.531031992286444">
        <ele>52.530000000000001</ele>
        <time>2023-08-30T15:24:57Z</time>
      </trkpt>
      <trkpt lat="56.624243007972836" lon="-5.530340988188982">
        <ele>51.090000000000003</ele>
        <time>2023-08-30T15:25:01Z</time>
      </trkpt>
      <trkpt lat="56.624065982177854" lon="-5.529787028208375">
        <ele>50.609999999999999</ele>
        <time>2023-08-30T15:25:04Z</time>
      </trkpt>
      <trkpt lat="56.623530965298414" lon="-5.528005035594106">
        <ele>51.57</ele>
        <time>2023-08-30T15:25:13Z</time>
      </trkpt>
      <trkpt lat="56.623333990573883" lon="-5.527093000710011">
        <ele>52.049999999999997</ele>
        <time>2023-08-30T15:25:18Z</time>
      </trkpt>
      <trkpt lat="56.623313035815954" lon="-5.526931984350085">
        <ele>52.049999999999997</ele>
        <time>2023-08-30T15:25:19Z</time>
      </trkpt>
      <trkpt lat="56.623272970318794" lon="-5.526634007692337">
        <ele>51.57</ele>
        <time>2023-08-30T15:25:21Z</time>
      </trkpt>
      <trkpt lat="56.623250003904104" lon="-5.526499981060624">
        <ele>51.57</ele>
        <time>2023-08-30T15:25:22Z</time>
      </trkpt>
      <trkpt lat="56.62319996394217" lon="-5.526429992169142">
        <ele>51.090000000000003</ele>
        <time>2023-08-30T15:25:23Z</time>
      </trkpt>
      <trkpt lat="56.623142967000604" lon="-5.526355979964137">
        <ele>51.090000000000003</ele>
        <time>2023-08-30T15:25:24Z</time>
      </trkpt>
      <trkpt lat="56.623066021129489" lon="-5.526314992457628">
        <ele>51.090000000000003</ele>
        <time>2023-08-30T15:25:25Z</time>
      </trkpt>
      <trkpt lat="56.622975999489427" lon="-5.526267969980836">
        <ele>50.609999999999999</ele>
        <time>2023-08-30T15:25:26Z</time>
      </trkpt>
      <trkpt lat="56.622881032526493" lon="-5.526218013837934">
        <ele>50.609999999999999</ele>
        <time>2023-08-30T15:25:27Z</time>
      </trkpt>
      <trkpt lat="56.622786987572908" lon="-5.526167973876">
        <ele>50.609999999999999</ele>
        <time>2023-08-30T15:25:28Z</time>
      </trkpt>
      <trkpt lat="56.622695960104465" lon="-5.526091028004885">
        <ele>50.130000000000003</ele>
        <time>2023-08-30T15:25:29Z</time>
      </trkpt>
      <trkpt lat="56.622612979263067" lon="-5.525994971394539">
        <ele>49.649999999999999</ele>
        <time>2023-08-30T15:25:30Z</time>
      </trkpt>
      <trkpt lat="56.622535027563572" lon="-5.525903021916747">
        <ele>49.649999999999999</ele>
        <time>2023-08-30T15:25:31Z</time>
      </trkpt>
      <trkpt lat="56.622464032843709" lon="-5.525791961699724">
        <ele>49.649999999999999</ele>
        <time>2023-08-30T15:25:32Z</time>
      </trkpt>
      <trkpt lat="56.622412987053394" lon="-5.525661036372185">
        <ele>50.130000000000003</ele>
        <time>2023-08-30T15:25:33Z</time>
      </trkpt>
      <trkpt lat="56.622356995940208" lon="-5.525518963113427">
        <ele>49.649999999999999</ele>
        <time>2023-08-30T15:25:34Z</time>
      </trkpt>
      <trkpt lat="56.622149040922523" lon="-5.524827037006617">
        <ele>50.130000000000003</ele>
        <time>2023-08-30T15:25:38Z</time>
      </trkpt>
      <trkpt lat="56.622097995132208" lon="-5.52464297041297">
        <ele>50.130000000000003</ele>
        <time>2023-08-30T15:25:39Z</time>
      </trkpt>
      <trkpt lat="56.621519979089499" lon="-5.523487022146583">
        <ele>50.609999999999999</ele>
        <time>2023-08-30T15:25:47Z</time>
      </trkpt>
      <trkpt lat="56.621474968269467" lon="-5.523332040756941">
        <ele>51.090000000000003</ele>
        <time>2023-08-30T15:25:48Z</time>
      </trkpt>
      <trkpt lat="56.621423000469804" lon="-5.523149985820055">
        <ele>51.090000000000003</ele>
        <time>2023-08-30T15:25:49Z</time>
      </trkpt>
      <trkpt lat="56.6211589705199" lon="-5.52221599034965">
        <ele>51.090000000000003</ele>
        <time>2023-08-30T15:25:54Z</time>
      </trkpt>
      <trkpt lat="56.62111303769052" lon="-5.522052040323615">
        <ele>51.090000000000003</ele>
        <time>2023-08-30T15:25:55Z</time>
      </trkpt>
      <trkpt lat="56.621090993285179" lon="-5.521884988993406">
        <ele>51.090000000000003</ele>
        <time>2023-08-30T15:25:56Z</time>
      </trkpt>
      <trkpt lat="56.62107003852725" lon="-5.521718021482229">
        <ele>51.57</ele>
        <time>2023-08-30T15:25:57Z</time>
      </trkpt>
      <trkpt lat="56.62104899995029" lon="-5.521550970152021">
        <ele>51.57</ele>
        <time>2023-08-30T15:25:58Z</time>
      </trkpt>
      <trkpt lat="56.62102896720171" lon="-5.521387020125985">
        <ele>51.57</ele>
        <time>2023-08-30T15:25:59Z</time>
      </trkpt>
      <trkpt lat="56.620978005230427" lon="-5.521227009594441">
        <ele>51.090000000000003</ele>
        <time>2023-08-30T15:26:00Z</time>
      </trkpt>
      <trkpt lat="56.620925031602383" lon="-5.521077979356051">
        <ele>50.609999999999999</ele>
        <time>2023-08-30T15:26:01Z</time>
      </trkpt>
      <trkpt lat="56.620842972770333" lon="-5.520948981866241">
        <ele>50.130000000000003</ele>
        <time>2023-08-30T15:26:02Z</time>
      </trkpt>
      <trkpt lat="56.620760997757316" lon="-5.520828031003475">
        <ele>49.649999999999999</ele>
        <time>2023-08-30T15:26:03Z</time>
      </trkpt>
      <trkpt lat="56.620552958920598" lon="-5.520523013547063">
        <ele>48.200000000000003</ele>
        <time>2023-08-30T15:26:06Z</time>
      </trkpt>
      <trkpt lat="56.620464026927948" lon="-5.520291002467275">
        <ele>47.240000000000002</ele>
        <time>2023-08-30T15:26:08Z</time>
      </trkpt>
      <trkpt lat="56.62042697891593" lon="-5.520159993320704">
        <ele>46.759999999999998</ele>
        <time>2023-08-30T15:26:09Z</time>
      </trkpt>
      <trkpt lat="56.620308039709926" lon="-5.519647020846605">
        <ele>45.32</ele>
        <time>2023-08-30T15:26:12Z</time>
      </trkpt>
      <trkpt lat="56.620271997526288" lon="-5.519490027800202">
        <ele>44.840000000000003</ele>
        <time>2023-08-30T15:26:13Z</time>
      </trkpt>
      <trkpt lat="56.620246013626456" lon="-5.519345020875335">
        <ele>44.359999999999999</ele>
        <time>2023-08-30T15:26:14Z</time>
      </trkpt>
      <trkpt lat="56.620228998363018" lon="-5.519195990636945">
        <ele>43.399999999999999</ele>
        <time>2023-08-30T15:26:15Z</time>
      </trkpt>
      <trkpt lat="56.620210977271199" lon="-5.519040003418922">
        <ele>42.920000000000002</ele>
        <time>2023-08-30T15:26:16Z</time>
      </trkpt>
      <trkpt lat="56.620191028341651" lon="-5.518867000937462">
        <ele>42.439999999999998</ele>
        <time>2023-08-30T15:26:17Z</time>
      </trkpt>
      <trkpt lat="56.620124978944659" lon="-5.518144983798266">
        <ele>40.030000000000001</ele>
        <time>2023-08-30T15:26:21Z</time>
      </trkpt>
      <trkpt lat="56.620113998651505" lon="-5.517977010458708">
        <ele>39.549999999999997</ele>
        <time>2023-08-30T15:26:22Z</time>
      </trkpt>
      <trkpt lat="56.620118021965027" lon="-5.51761600188911">
        <ele>39.07</ele>
        <time>2023-08-30T15:26:24Z</time>
      </trkpt>
      <trkpt lat="56.620132019743323" lon="-5.517456997185946">
        <ele>39.07</ele>
        <time>2023-08-30T15:26:25Z</time>
      </trkpt>
      <trkpt lat="56.620172001421452" lon="-5.516986018046737">
        <ele>39.07</ele>
        <time>2023-08-30T15:26:28Z</time>
      </trkpt>
      <trkpt lat="56.620188010856509" lon="-5.516788959503174">
        <ele>38.109999999999999</ele>
        <time>2023-08-30T15:26:29Z</time>
      </trkpt>
      <trkpt lat="56.620051972568035" lon="-5.515436958521605">
        <ele>36.189999999999998</ele>
        <time>2023-08-30T15:26:35Z</time>
      </trkpt>
      <trkpt lat="56.620029006153345" lon="-5.515206959098578">
        <ele>35.710000000000001</ele>
        <time>2023-08-30T15:26:36Z</time>
      </trkpt>
      <trkpt lat="56.619857009500265" lon="-5.513887982815504">
        <ele>37.630000000000003</ele>
        <time>2023-08-30T15:26:42Z</time>
      </trkpt>
      <trkpt lat="56.619766987860203" lon="-5.513464026153088">
        <ele>39.07</ele>
        <time>2023-08-30T15:26:44Z</time>
      </trkpt>
      <trkpt lat="56.619730023667216" lon="-5.513292029500008">
        <ele>39.549999999999997</ele>
        <time>2023-08-30T15:26:45Z</time>
      </trkpt>
      <trkpt lat="56.61971895955503" lon="-5.513134030625224">
        <ele>40.509999999999998</ele>
        <time>2023-08-30T15:26:46Z</time>
      </trkpt>
      <trkpt lat="56.619723988696933" lon="-5.512990029528737">
        <ele>40.990000000000002</ele>
        <time>2023-08-30T15:26:47Z</time>
      </trkpt>
      <trkpt lat="56.619729017838836" lon="-5.51284602843225">
        <ele>41.950000000000003</ele>
        <time>2023-08-30T15:26:48Z</time>
      </trkpt>
      <trkpt lat="56.619734968990088" lon="-5.51267403177917">
        <ele>41.950000000000003</ele>
        <time>2023-08-30T15:26:49Z</time>
      </trkpt>
      <trkpt lat="56.619741003960371" lon="-5.512496000155807">
        <ele>42.920000000000002</ele>
        <time>2023-08-30T15:26:50Z</time>
      </trkpt>
      <trkpt lat="56.619747038930655" lon="-5.512319980189204">
        <ele>42.920000000000002</ele>
        <time>2023-08-30T15:26:51Z</time>
      </trkpt>
      <trkpt lat="56.619752990081906" lon="-5.512149995192885">
        <ele>43.399999999999999</ele>
        <time>2023-08-30T15:26:52Z</time>
      </trkpt>
      <trkpt lat="56.61975902505219" lon="-5.511959977447987">
        <ele>43.399999999999999</ele>
        <time>2023-08-30T15:26:53Z</time>
      </trkpt>
      <trkpt lat="56.61971602588892" lon="-5.511802984401584">
        <ele>43.399999999999999</ele>
        <time>2023-08-30T15:26:54Z</time>
      </trkpt>
      <trkpt lat="56.61967596039176" lon="-5.511654037982225">
        <ele>43.399999999999999</ele>
        <time>2023-08-30T15:26:55Z</time>
      </trkpt>
      <trkpt lat="56.619634972885251" lon="-5.511505007743835">
        <ele>43.880000000000003</ele>
        <time>2023-08-30T15:26:56Z</time>
      </trkpt>
      <trkpt lat="56.619592979550362" lon="-5.511351032182574">
        <ele>43.880000000000003</ele>
        <time>2023-08-30T15:26:57Z</time>
      </trkpt>
      <trkpt lat="56.619560038670897" lon="-5.511204013600946">
        <ele>43.880000000000003</ele>
        <time>2023-08-30T15:26:58Z</time>
      </trkpt>
      <trkpt lat="56.619542017579079" lon="-5.511058000847697">
        <ele>44.359999999999999</ele>
        <time>2023-08-30T15:26:59Z</time>
      </trkpt>
      <trkpt lat="56.61952399648726" lon="-5.510919028893113">
        <ele>44.359999999999999</ele>
        <time>2023-08-30T15:27:00Z</time>
      </trkpt>
      <trkpt lat="56.619507987052202" lon="-5.5107850022614">
        <ele>44.840000000000003</ele>
        <time>2023-08-30T15:27:01Z</time>
      </trkpt>
      <trkpt lat="56.619489965960383" lon="-5.510639995336533">
        <ele>44.840000000000003</ele>
        <time>2023-08-30T15:27:02Z</time>
      </trkpt>
      <trkpt lat="56.619470017030835" lon="-5.510486019775271">
        <ele>44.840000000000003</ele>
        <time>2023-08-30T15:27:03Z</time>
      </trkpt>
      <trkpt lat="56.619435986503959" lon="-5.510322991758585">
        <ele>44.840000000000003</ele>
        <time>2023-08-30T15:27:04Z</time>
      </trkpt>
      <trkpt lat="56.619044970721006" lon="-5.50878600217402">
        <ele>42.439999999999998</ele>
        <time>2023-08-30T15:27:13Z</time>
      </trkpt>
      <trkpt lat="56.618896024301648" lon="-5.507626030594111">
        <ele>41.950000000000003</ele>
        <time>2023-08-30T15:27:20Z</time>
      </trkpt>
      <trkpt lat="56.618852019309998" lon="-5.507449004799128">
        <ele>41.950000000000003</ele>
        <time>2023-08-30T15:27:21Z</time>
      </trkpt>
      <trkpt lat="56.618807008489966" lon="-5.507263010367751">
        <ele>41.469999999999999</ele>
        <time>2023-08-30T15:27:22Z</time>
      </trkpt>
      <trkpt lat="56.618629982694983" lon="-5.506536969915032">
        <ele>39.549999999999997</ele>
        <time>2023-08-30T15:27:26Z</time>
      </trkpt>
      <trkpt lat="56.618590001016855" lon="-5.506374025717378">
        <ele>39.07</ele>
        <time>2023-08-30T15:27:27Z</time>
      </trkpt>
      <trkpt lat="56.618548007681966" lon="-5.506200017407537">
        <ele>38.590000000000003</ele>
        <time>2023-08-30T15:27:28Z</time>
      </trkpt>
      <trkpt lat="56.618499979376793" lon="-5.506002036854625">
        <ele>38.109999999999999</ele>
        <time>2023-08-30T15:27:29Z</time>
      </trkpt>
      <trkpt lat="56.618452034890652" lon="-5.505803972482681">
        <ele>37.630000000000003</ele>
        <time>2023-08-30T15:27:30Z</time>
      </trkpt>
      <trkpt lat="56.618315996602178" lon="-5.505211958661676">
        <ele>36.670000000000002</ele>
        <time>2023-08-30T15:27:34Z</time>
      </trkpt>
      <trkpt lat="56.618264028802514" lon="-5.504989000037313">
        <ele>35.710000000000001</ele>
        <time>2023-08-30T15:27:36Z</time>
      </trkpt>
      <trkpt lat="56.618238966912031" lon="-5.504880035296083">
        <ele>35.710000000000001</ele>
        <time>2023-08-30T15:27:37Z</time>
      </trkpt>
      <trkpt lat="56.618209965527058" lon="-5.504753971472383">
        <ele>35.710000000000001</ele>
        <time>2023-08-30T15:27:38Z</time>
      </trkpt>
      <trkpt lat="56.618175012990832" lon="-5.504602007567883">
        <ele>35.710000000000001</ele>
        <time>2023-08-30T15:27:39Z</time>
      </trkpt>
      <trkpt lat="56.618136959150434" lon="-5.504438979551196">
        <ele>35.229999999999997</ele>
        <time>2023-08-30T15:27:40Z</time>
      </trkpt>
      <trkpt lat="56.617921041324735" lon="-5.50350196659565">
        <ele>35.229999999999997</ele>
        <time>2023-08-30T15:27:45Z</time>
      </trkpt>
      <trkpt lat="56.617875024676323" lon="-5.503302980214357">
        <ele>35.229999999999997</ele>
        <time>2023-08-30T15:27:46Z</time>
      </trkpt>
      <trkpt lat="56.617834037169814" lon="-5.503123020753264">
        <ele>35.229999999999997</ele>
        <time>2023-08-30T15:27:47Z</time>
      </trkpt>
      <trkpt lat="56.61778399720788" lon="-5.502954963594675">
        <ele>34.740000000000002</ele>
        <time>2023-08-30T15:27:48Z</time>
      </trkpt>
      <trkpt lat="56.617730017751455" lon="-5.502781039103866">
        <ele>34.740000000000002</ele>
        <time>2023-08-30T15:27:49Z</time>
      </trkpt>
      <trkpt lat="56.617676960304379" lon="-5.502606024965644">
        <ele>34.259999999999998</ele>
        <time>2023-08-30T15:27:50Z</time>
      </trkpt>
      <trkpt lat="56.617621975019574" lon="-5.5024269875139">
        <ele>34.259999999999998</ele>
        <time>2023-08-30T15:27:51Z</time>
      </trkpt>
      <trkpt lat="56.617567995563149" lon="-5.502251973375678">
        <ele>34.259999999999998</ele>
        <time>2023-08-30T15:27:52Z</time>
      </trkpt>
      <trkpt lat="56.617518039420247" lon="-5.502088023349643">
        <ele>33.780000000000001</ele>
        <time>2023-08-30T15:27:53Z</time>
      </trkpt>
      <trkpt lat="56.617472022771835" lon="-5.501937987282872">
        <ele>33.780000000000001</ele>
        <time>2023-08-30T15:27:54Z</time>
      </trkpt>
      <trkpt lat="56.617317963391542" lon="-5.501368017867208">
        <ele>33.780000000000001</ele>
        <time>2023-08-30T15:27:58Z</time>
      </trkpt>
      <trkpt lat="56.617192989215255" lon="-5.500339977443218">
        <ele>34.740000000000002</ele>
        <time>2023-08-30T15:28:04Z</time>
      </trkpt>
      <trkpt lat="56.617164993658662" lon="-5.500028003007174">
        <ele>35.229999999999997</ele>
        <time>2023-08-30T15:28:06Z</time>
      </trkpt>
      <trkpt lat="56.617149990051985" lon="-5.499873021617532">
        <ele>35.229999999999997</ele>
        <time>2023-08-30T15:28:07Z</time>
      </trkpt>
      <trkpt lat="56.617126017808914" lon="-5.499716028571129">
        <ele>34.740000000000002</ele>
        <time>2023-08-30T15:28:08Z</time>
      </trkpt>
      <trkpt lat="56.616690997034311" lon="-5.498221032321453">
        <ele>35.229999999999997</ele>
        <time>2023-08-30T15:28:17Z</time>
      </trkpt>
      <trkpt lat="56.616492010653019" lon="-5.497600017115474">
        <ele>35.229999999999997</ele>
        <time>2023-08-30T15:28:23Z</time>
      </trkpt>
      <trkpt lat="56.616437025368214" lon="-5.497429026290774">
        <ele>36.189999999999998</ele>
        <time>2023-08-30T15:28:29Z</time>
      </trkpt>
      <trkpt lat="56.616409029811621" lon="-5.497341016307473">
        <ele>36.670000000000002</ele>
        <time>2023-08-30T15:28:30Z</time>
      </trkpt>
      <trkpt lat="56.616006027907133" lon="-5.496233012527227">
        <ele>37.149999999999999</ele>
        <time>2023-08-30T15:28:38Z</time>
      </trkpt>
      <trkpt lat="56.615689024329185" lon="-5.49544301815331">
        <ele>39.07</ele>
        <time>2023-08-30T15:28:43Z</time>
      </trkpt>
      <trkpt lat="56.615649964660406" lon="-5.495283007621765">
        <ele>39.07</ele>
        <time>2023-08-30T15:28:44Z</time>
      </trkpt>
      <trkpt lat="56.615445027127862" lon="-5.494451019912958">
        <ele>40.509999999999998</ele>
        <time>2023-08-30T15:28:49Z</time>
      </trkpt>
      <trkpt lat="56.615379983559251" lon="-5.494106020778418">
        <ele>40.990000000000002</ele>
        <time>2023-08-30T15:28:51Z</time>
      </trkpt>
      <trkpt lat="56.615333966910839" lon="-5.493763033300638">
        <ele>41.950000000000003</ele>
        <time>2023-08-30T15:28:53Z</time>
      </trkpt>
      <trkpt lat="56.615314017981291" lon="-5.493610985577107">
        <ele>42.439999999999998</ele>
        <time>2023-08-30T15:28:54Z</time>
      </trkpt>
      <trkpt lat="56.615294991061091" lon="-5.493465978652239">
        <ele>43.399999999999999</ele>
        <time>2023-08-30T15:28:55Z</time>
      </trkpt>
      <trkpt lat="56.615275964140892" lon="-5.493324995040894">
        <ele>43.880000000000003</ele>
        <time>2023-08-30T15:28:56Z</time>
      </trkpt>
      <trkpt lat="56.615236988291144" lon="-5.493198009207845">
        <ele>44.840000000000003</ele>
        <time>2023-08-30T15:28:57Z</time>
      </trkpt>
      <trkpt lat="56.615189965814352" lon="-5.493054008111358">
        <ele>44.840000000000003</ele>
        <time>2023-08-30T15:28:58Z</time>
      </trkpt>
      <trkpt lat="56.614814959466457" lon="-5.491541996598244">
        <ele>44.840000000000003</ele>
        <time>2023-08-30T15:29:08Z</time>
      </trkpt>
      <trkpt lat="56.6147540230304" lon="-5.491118961945176">
        <ele>44.359999999999999</ele>
        <time>2023-08-30T15:29:11Z</time>
      </trkpt>
      <trkpt lat="56.614747988060117" lon="-5.490984013304114">
        <ele>43.880000000000003</ele>
        <time>2023-08-30T15:29:12Z</time>
      </trkpt>
      <trkpt lat="56.614742958918214" lon="-5.490849986672401">
        <ele>43.399999999999999</ele>
        <time>2023-08-30T15:29:13Z</time>
      </trkpt>
      <trkpt lat="56.614810014143586" lon="-5.490039037540555">
        <ele>42.439999999999998</ele>
        <time>2023-08-30T15:29:19Z</time>
      </trkpt>
      <trkpt lat="56.614824011921883" lon="-5.489902999252081">
        <ele>41.950000000000003</ele>
        <time>2023-08-30T15:29:20Z</time>
      </trkpt>
      <trkpt lat="56.614872040227056" lon="-5.489786993712187">
        <ele>41.469999999999999</ele>
        <time>2023-08-30T15:29:21Z</time>
      </trkpt>
      <trkpt lat="56.614970024675131" lon="-5.489547019824386">
        <ele>40.509999999999998</ele>
        <time>2023-08-30T15:29:23Z</time>
      </trkpt>
      <trkpt lat="56.615040013566613" lon="-5.489464038982987">
        <ele>39.549999999999997</ele>
        <time>2023-08-30T15:29:24Z</time>
      </trkpt>
      <trkpt lat="56.61520698107779" lon="-5.48927896656096">
        <ele>38.590000000000003</ele>
        <time>2023-08-30T15:29:26Z</time>
      </trkpt>
      <trkpt lat="56.61528903990984" lon="-5.489189028739929">
        <ele>38.590000000000003</ele>
        <time>2023-08-30T15:29:27Z</time>
      </trkpt>
      <trkpt lat="56.615560026839375" lon="-5.488985013216734">
        <ele>37.149999999999999</ele>
        <time>2023-08-30T15:29:30Z</time>
      </trkpt>
      <trkpt lat="56.615733029320836" lon="-5.488877976313233">
        <ele>36.189999999999998</ele>
        <time>2023-08-30T15:29:32Z</time>
      </trkpt>
      <trkpt lat="56.615818021818995" lon="-5.488813016563654">
        <ele>35.710000000000001</ele>
        <time>2023-08-30T15:29:33Z</time>
      </trkpt>
      <trkpt lat="56.615869989618659" lon="-5.488679995760322">
        <ele>35.229999999999997</ele>
        <time>2023-08-30T15:29:34Z</time>
      </trkpt>
      <trkpt lat="56.615924974903464" lon="-5.488539012148976">
        <ele>34.740000000000002</ele>
        <time>2023-08-30T15:29:35Z</time>
      </trkpt>
      <trkpt lat="56.615981971845031" lon="-5.488394005224109">
        <ele>34.740000000000002</ele>
        <time>2023-08-30T15:29:36Z</time>
      </trkpt>
      <trkpt lat="56.616047015413642" lon="-5.488228965550661">
        <ele>34.259999999999998</ele>
        <time>2023-08-30T15:29:37Z</time>
      </trkpt>
      <trkpt lat="56.616167966276407" lon="-5.487758992239833">
        <ele>33.780000000000001</ele>
        <time>2023-08-30T15:29:41Z</time>
      </trkpt>
      <trkpt lat="56.616195039823651" lon="-5.487654972821474">
        <ele>34.259999999999998</ele>
        <time>2023-08-30T15:29:42Z</time>
      </trkpt>
      <trkpt lat="56.616230998188257" lon="-5.487534021958709">
        <ele>33.780000000000001</ele>
        <time>2023-08-30T15:29:43Z</time>
      </trkpt>
      <trkpt lat="56.616328982636333" lon="-5.487288013100624">
        <ele>33.780000000000001</ele>
        <time>2023-08-30T15:29:45Z</time>
      </trkpt>
      <trkpt lat="56.616376005113125" lon="-5.487169995903969">
        <ele>33.780000000000001</ele>
        <time>2023-08-30T15:29:46Z</time>
      </trkpt>
      <trkpt lat="56.616423027589917" lon="-5.487052984535694">
        <ele>33.299999999999997</ele>
        <time>2023-08-30T15:29:47Z</time>
      </trkpt>
      <trkpt lat="56.616476001217961" lon="-5.486919963732362">
        <ele>33.299999999999997</ele>
        <time>2023-08-30T15:29:48Z</time>
      </trkpt>
      <trkpt lat="56.616491004824638" lon="-5.486802030354738">
        <ele>33.299999999999997</ele>
        <time>2023-08-30T15:29:49Z</time>
      </trkpt>
      <trkpt lat="56.616507014259696" lon="-5.486672027036548">
        <ele>32.82</ele>
        <time>2023-08-30T15:29:50Z</time>
      </trkpt>
      <trkpt lat="56.61653702147305" lon="-5.486430963501334">
        <ele>31.379999999999999</ele>
        <time>2023-08-30T15:29:52Z</time>
      </trkpt>
      <trkpt lat="56.616561999544501" lon="-5.486232982948422">
        <ele>30.420000000000002</ele>
        <time>2023-08-30T15:29:53Z</time>
      </trkpt>
      <trkpt lat="56.616672975942492" lon="-5.485969036817551">
        <ele>27.530000000000001</ele>
        <time>2023-08-30T15:29:56Z</time>
      </trkpt>
      <trkpt lat="56.616718992590904" lon="-5.485856970772147">
        <ele>26.57</ele>
        <time>2023-08-30T15:29:57Z</time>
      </trkpt>
      <trkpt lat="56.616768026724458" lon="-5.485740965232253">
        <ele>25.609999999999999</ele>
        <time>2023-08-30T15:29:58Z</time>
      </trkpt>
      <trkpt lat="56.61681798286736" lon="-5.48562303185463">
        <ele>25.609999999999999</ele>
        <time>2023-08-30T15:29:59Z</time>
      </trkpt>
      <trkpt lat="56.616862993687391" lon="-5.485514989122748">
        <ele>25.129999999999999</ele>
        <time>2023-08-30T15:30:00Z</time>
      </trkpt>
      <trkpt lat="56.616904987022281" lon="-5.485413987189531">
        <ele>24.649999999999999</ele>
        <time>2023-08-30T15:30:01Z</time>
      </trkpt>
      <trkpt lat="56.616956032812595" lon="-5.485298987478018">
        <ele>24.170000000000002</ele>
        <time>2023-08-30T15:30:02Z</time>
      </trkpt>
      <trkpt lat="56.617016969248652" lon="-5.485207960009575">
        <ele>23.690000000000001</ele>
        <time>2023-08-30T15:30:03Z</time>
      </trkpt>
      <trkpt lat="56.617288962006569" lon="-5.484921969473362">
        <ele>21.77</ele>
        <time>2023-08-30T15:30:07Z</time>
      </trkpt>
      <trkpt lat="56.617361968383193" lon="-5.484856003895402">
        <ele>21.289999999999999</ele>
        <time>2023-08-30T15:30:08Z</time>
      </trkpt>
      <trkpt lat="56.617454001680017" lon="-5.484795989468694">
        <ele>20.809999999999999</ele>
        <time>2023-08-30T15:30:09Z</time>
      </trkpt>
      <trkpt lat="56.618396965786815" lon="-5.484209004789591">
        <ele>18.879999999999999</ele>
        <time>2023-08-30T15:30:17Z</time>
      </trkpt>
      <trkpt lat="56.619425006210804" lon="-5.483365030959249">
        <ele>17.920000000000002</ele>
        <time>2023-08-30T15:30:27Z</time>
      </trkpt>
      <trkpt lat="56.619681995362043" lon="-5.483079962432385">
        <ele>17.440000000000001</ele>
        <time>2023-08-30T15:30:30Z</time>
      </trkpt>
      <trkpt lat="56.61976296454668" lon="-5.482969991862774">
        <ele>17.440000000000001</ele>
        <time>2023-08-30T15:30:31Z</time>
      </trkpt>
      <trkpt lat="56.619835970923305" lon="-5.482843006029725">
        <ele>17.920000000000002</ele>
        <time>2023-08-30T15:30:32Z</time>
      </trkpt>
      <trkpt lat="56.620044009760022" lon="-5.482479985803366">
        <ele>17.920000000000002</ele>
        <time>2023-08-30T15:30:35Z</time>
      </trkpt>
      <trkpt lat="56.620119027793407" lon="-5.482387030497193">
        <ele>17.920000000000002</ele>
        <time>2023-08-30T15:30:36Z</time>
      </trkpt>
      <trkpt lat="56.620196979492903" lon="-5.482331039384008">
        <ele>17.920000000000002</ele>
        <time>2023-08-30T15:30:37Z</time>
      </trkpt>
      <trkpt lat="56.620776001363993" lon="-5.481787975877523">
        <ele>18.879999999999999</ele>
        <time>2023-08-30T15:30:45Z</time>
      </trkpt>
      <trkpt lat="56.620841966941953" lon="-5.481718992814422">
        <ele>18.879999999999999</ele>
        <time>2023-08-30T15:30:46Z</time>
      </trkpt>
      <trkpt lat="56.6208999697119" lon="-5.481641963124275">
        <ele>18.879999999999999</ele>
        <time>2023-08-30T15:30:47Z</time>
      </trkpt>
      <trkpt lat="56.62092000246048" lon="-5.481536015868187">
        <ele>18.879999999999999</ele>
        <time>2023-08-30T15:30:48Z</time>
      </trkpt>
      <trkpt lat="56.620939029380679" lon="-5.481424033641815">
        <ele>18.879999999999999</ele>
        <time>2023-08-30T15:30:49Z</time>
      </trkpt>
      <trkpt lat="56.620935006067157" lon="-5.481296963989735">
        <ele>18.399999999999999</ele>
        <time>2023-08-30T15:30:50Z</time>
      </trkpt>
      <trkpt lat="56.620929976925254" lon="-5.481158997863531">
        <ele>18.399999999999999</ele>
        <time>2023-08-30T15:30:51Z</time>
      </trkpt>
      <trkpt lat="56.620924025774002" lon="-5.481010973453522">
        <ele>17.920000000000002</ele>
        <time>2023-08-30T15:30:52Z</time>
      </trkpt>
      <trkpt lat="56.620918996632099" lon="-5.480859009549022">
        <ele>17.440000000000001</ele>
        <time>2023-08-30T15:30:53Z</time>
      </trkpt>
      <trkpt lat="56.620906004682183" lon="-5.480527002364397">
        <ele>16.48</ele>
        <time>2023-08-30T15:30:55Z</time>
      </trkpt>
      <trkpt lat="56.620842972770333" lon="-5.478801000863314">
        <ele>15.039999999999999</ele>
        <time>2023-08-30T15:31:03Z</time>
      </trkpt>
      <trkpt lat="56.620801985263824" lon="-5.477827023714781">
        <ele>15.039999999999999</ele>
        <time>2023-08-30T15:31:08Z</time>
      </trkpt>
      <trkpt lat="56.62079201079905" lon="-5.477709006518126">
        <ele>15.039999999999999</ele>
        <time>2023-08-30T15:31:09Z</time>
      </trkpt>
      <trkpt lat="56.620733002200723" lon="-5.477648992091417">
        <ele>15.039999999999999</ele>
        <time>2023-08-30T15:31:10Z</time>
      </trkpt>
      <trkpt lat="56.62068204022944" lon="-5.477628959342837">
        <ele>14.56</ele>
        <time>2023-08-30T15:31:11Z</time>
      </trkpt>
      <trkpt lat="56.620612973347306" lon="-5.477652009576559">
        <ele>14.56</ele>
        <time>2023-08-30T15:31:12Z</time>
      </trkpt>
      <trkpt lat="56.620523035526276" lon="-5.477682016789913">
        <ele>14.56</ele>
        <time>2023-08-30T15:31:13Z</time>
      </trkpt>
      <trkpt lat="56.620412981137633" lon="-5.477717975154519">
        <ele>14.56</ele>
        <time>2023-08-30T15:31:14Z</time>
      </trkpt>
      <trkpt lat="56.61928603425622" lon="-5.47829900868237">
        <ele>12.15</ele>
        <time>2023-08-30T15:31:22Z</time>
      </trkpt>
      <trkpt lat="56.61851498298347" lon="-5.478958999738097">
        <ele>11.19</ele>
        <time>2023-08-30T15:31:29Z</time>
      </trkpt>
      <trkpt lat="56.618407024070621" lon="-5.479008033871651">
        <ele>10.710000000000001</ele>
        <time>2023-08-30T15:31:30Z</time>
      </trkpt>
      <trkpt lat="56.618309039622545" lon="-5.47905296087265">
        <ele>10.710000000000001</ele>
        <time>2023-08-30T15:31:31Z</time>
      </trkpt>
      <trkpt lat="56.618207031860948" lon="-5.479057990014553">
        <ele>10.710000000000001</ele>
        <time>2023-08-30T15:31:32Z</time>
      </trkpt>
      <trkpt lat="56.618098989129066" lon="-5.479044998064637">
        <ele>10.23</ele>
        <time>2023-08-30T15:31:33Z</time>
      </trkpt>
      <trkpt lat="56.617984995245934" lon="-5.479032006114721">
        <ele>9.75</ele>
        <time>2023-08-30T15:31:34Z</time>
      </trkpt>
      <trkpt lat="56.616669036448002" lon="-5.478801000863314">
        <ele>8.789999999999999</ele>
        <time>2023-08-30T15:31:45Z</time>
      </trkpt>
      <trkpt lat="56.616587983444333" lon="-5.478740986436606">
        <ele>9.27</ele>
        <time>2023-08-30T15:31:46Z</time>
      </trkpt>
      <trkpt lat="56.61651698872447" lon="-5.478639984503388">
        <ele>9.75</ele>
        <time>2023-08-30T15:31:47Z</time>
      </trkpt>
      <trkpt lat="56.616454962641001" lon="-5.478550968691707">
        <ele>10.23</ele>
        <time>2023-08-30T15:31:48Z</time>
      </trkpt>
      <trkpt lat="56.616416992619634" lon="-5.478405961766839">
        <ele>11.19</ele>
        <time>2023-08-30T15:31:49Z</time>
      </trkpt>
      <trkpt lat="56.616380028426647" lon="-5.478261960670352">
        <ele>11.67</ele>
        <time>2023-08-30T15:31:50Z</time>
      </trkpt>
      <trkpt lat="56.616339962929487" lon="-5.47810597345233">
        <ele>12.15</ele>
        <time>2023-08-30T15:31:51Z</time>
      </trkpt>
      <trkpt lat="56.616071993485093" lon="-5.477062007412314">
        <ele>13.119999999999999</ele>
        <time>2023-08-30T15:31:57Z</time>
      </trkpt>
      <trkpt lat="56.61599999293685" lon="-5.476924041286111">
        <ele>13.119999999999999</ele>
        <time>2023-08-30T15:31:58Z</time>
      </trkpt>
      <trkpt lat="56.615928998216987" lon="-5.47679303213954">
        <ele>12.630000000000001</ele>
        <time>2023-08-30T15:31:59Z</time>
      </trkpt>
      <trkpt lat="56.615859009325504" lon="-5.476663028821349">
        <ele>12.15</ele>
        <time>2023-08-30T15:32:00Z</time>
      </trkpt>
      <trkpt lat="56.61578600294888" lon="-5.476527996361256">
        <ele>11.67</ele>
        <time>2023-08-30T15:32:01Z</time>
      </trkpt>
      <trkpt lat="56.615415019914508" lon="-5.475646974518895">
        <ele>8.310000000000001</ele>
        <time>2023-08-30T15:32:07Z</time>
      </trkpt>
      <trkpt lat="56.615359028801322" lon="-5.475498028099537">
        <ele>7.83</ele>
        <time>2023-08-30T15:32:08Z</time>
      </trkpt>
      <trkpt lat="56.615322986617684" lon="-5.475344974547625">
        <ele>8.310000000000001</ele>
        <time>2023-08-30T15:32:09Z</time>
      </trkpt>
      <trkpt lat="56.615272024646401" lon="-5.475097037851811">
        <ele>9.27</ele>
        <time>2023-08-30T15:32:11Z</time>
      </trkpt>
      <trkpt lat="56.615264983847737" lon="-5.474974997341633">
        <ele>9.75</ele>
        <time>2023-08-30T15:32:12Z</time>
      </trkpt>
      <trkpt lat="56.615238999947906" lon="-5.474509969353676">
        <ele>11.67</ele>
        <time>2023-08-30T15:32:15Z</time>
      </trkpt>
      <trkpt lat="56.615223996341228" lon="-5.474353982135654">
        <ele>11.67</ele>
        <time>2023-08-30T15:32:16Z</time>
      </trkpt>
      <trkpt lat="56.615188959985971" lon="-5.474205035716295">
        <ele>12.15</ele>
        <time>2023-08-30T15:32:17Z</time>
      </trkpt>
      <trkpt lat="56.615096004679799" lon="-5.473806979134679">
        <ele>12.15</ele>
        <time>2023-08-30T15:32:20Z</time>
      </trkpt>
      <trkpt lat="56.61507798358798" lon="-5.473694996908307">
        <ele>12.15</ele>
        <time>2023-08-30T15:32:21Z</time>
      </trkpt>
      <trkpt lat="56.615068009123206" lon="-5.473575973883271">
        <ele>12.15</ele>
        <time>2023-08-30T15:32:22Z</time>
      </trkpt>
      <trkpt lat="56.615039007738233" lon="-5.473208008334041">
        <ele>11.19</ele>
        <time>2023-08-30T15:32:25Z</time>
      </trkpt>
      <trkpt lat="56.615062979981303" lon="-5.473029976710677">
        <ele>11.19</ele>
        <time>2023-08-30T15:32:26Z</time>
      </trkpt>
      <trkpt lat="56.615081001073122" lon="-5.472898967564106">
        <ele>11.19</ele>
        <time>2023-08-30T15:32:27Z</time>
      </trkpt>
      <trkpt lat="56.615101033821702" lon="-5.472758989781141">
        <ele>10.710000000000001</ele>
        <time>2023-08-30T15:32:28Z</time>
      </trkpt>
      <trkpt lat="56.615124000236392" lon="-5.472585987299681">
        <ele>11.19</ele>
        <time>2023-08-30T15:32:29Z</time>
      </trkpt>
      <trkpt lat="56.615525996312499" lon="-5.471033994108439">
        <ele>11.19</ele>
        <time>2023-08-30T15:32:37Z</time>
      </trkpt>
      <trkpt lat="56.615874012932181" lon="-5.469971001148224">
        <ele>12.630000000000001</ele>
        <time>2023-08-30T15:32:43Z</time>
      </trkpt>
      <trkpt lat="56.615941990166903" lon="-5.46983596868813">
        <ele>12.630000000000001</ele>
        <time>2023-08-30T15:32:44Z</time>
      </trkpt>
      <trkpt lat="56.616017008200288" lon="-5.469698002561927">
        <ele>12.630000000000001</ele>
        <time>2023-08-30T15:32:45Z</time>
      </trkpt>
      <trkpt lat="56.616102000698447" lon="-5.469615021720529">
        <ele>13.119999999999999</ele>
        <time>2023-08-30T15:32:46Z</time>
      </trkpt>
      <trkpt lat="56.616186993196607" lon="-5.46953204087913">
        <ele>13.119999999999999</ele>
        <time>2023-08-30T15:32:47Z</time>
      </trkpt>
      <trkpt lat="56.617206986993551" lon="-5.468482961878181">
        <ele>13.119999999999999</ele>
        <time>2023-08-30T15:32:57Z</time>
      </trkpt>
      <trkpt lat="56.618120027706027" lon="-5.467258030548692">
        <ele>12.630000000000001</ele>
        <time>2023-08-30T15:33:07Z</time>
      </trkpt>
      <trkpt lat="56.619034996256232" lon="-5.465984987094998">
        <ele>12.630000000000001</ele>
        <time>2023-08-30T15:33:19Z</time>
      </trkpt>
      <trkpt lat="56.61969699896872" lon="-5.465026013553143">
        <ele>13.6</ele>
        <time>2023-08-30T15:33:29Z</time>
      </trkpt>
      <trkpt lat="56.619750978425145" lon="-5.464947978034616">
        <ele>13.6</ele>
        <time>2023-08-30T15:33:30Z</time>
      </trkpt>
      <trkpt lat="56.619806969538331" lon="-5.464863991364837">
        <ele>14.08</ele>
        <time>2023-08-30T15:33:31Z</time>
      </trkpt>
      <trkpt lat="56.619866983965039" lon="-5.464775981381536">
        <ele>14.56</ele>
        <time>2023-08-30T15:33:32Z</time>
      </trkpt>
      <trkpt lat="56.620463021099567" lon="-5.463458010926843">
        <ele>17.920000000000002</ele>
        <time>2023-08-30T15:33:44Z</time>
      </trkpt>
      <trkpt lat="56.620526975020766" lon="-5.463378969579935">
        <ele>18.399999999999999</ele>
        <time>2023-08-30T15:33:45Z</time>
      </trkpt>
      <trkpt lat="56.620811959728599" lon="-5.463030030950904">
        <ele>18.879999999999999</ele>
        <time>2023-08-30T15:33:49Z</time>
      </trkpt>
      <trkpt lat="56.620926959440112" lon="-5.462849987670779">
        <ele>19.359999999999999</ele>
        <time>2023-08-30T15:33:51Z</time>
      </trkpt>
      <trkpt lat="56.620980016887188" lon="-5.462746974080801">
        <ele>19.359999999999999</ele>
        <time>2023-08-30T15:33:52Z</time>
      </trkpt>
      <trkpt lat="56.6211779974401" lon="-5.462358975782991">
        <ele>18.879999999999999</ele>
        <time>2023-08-30T15:33:56Z</time>
      </trkpt>
      <trkpt lat="56.621278999373317" lon="-5.462160995230079">
        <ele>18.879999999999999</ele>
        <time>2023-08-30T15:33:58Z</time>
      </trkpt>
      <trkpt lat="56.62132803350687" lon="-5.462066028267145">
        <ele>18.879999999999999</ele>
        <time>2023-08-30T15:33:59Z</time>
      </trkpt>
      <trkpt lat="56.621644031256437" lon="-5.46132599003613">
        <ele>18.399999999999999</ele>
        <time>2023-08-30T15:34:06Z</time>
      </trkpt>
      <trkpt lat="56.621804963797331" lon="-5.460946038365364">
        <ele>18.879999999999999</ele>
        <time>2023-08-30T15:34:10Z</time>
      </trkpt>
      <trkpt lat="56.621850980445743" lon="-5.460836989805102">
        <ele>18.879999999999999</ele>
        <time>2023-08-30T15:34:11Z</time>
      </trkpt>
      <trkpt lat="56.622054995968938" lon="-5.460403980687261">
        <ele>17.920000000000002</ele>
        <time>2023-08-30T15:34:15Z</time>
      </trkpt>
      <trkpt lat="56.622635023668408" lon="-5.459594959393144">
        <ele>16</ele>
        <time>2023-08-30T15:34:23Z</time>
      </trkpt>
      <trkpt lat="56.623389981687069" lon="-5.458849975839257">
        <ele>15.039999999999999</ele>
        <time>2023-08-30T15:34:32Z</time>
      </trkpt>
      <trkpt lat="56.623456031084061" lon="-5.458746962249279">
        <ele>15.039999999999999</ele>
        <time>2023-08-30T15:34:33Z</time>
      </trkpt>
      <trkpt lat="56.623683013021946" lon="-5.458390982821584">
        <ele>14.56</ele>
        <time>2023-08-30T15:34:37Z</time>
      </trkpt>
      <trkpt lat="56.623740009963512" lon="-5.458301967009902">
        <ele>15.039999999999999</ele>
        <time>2023-08-30T15:34:38Z</time>
      </trkpt>
      <trkpt lat="56.623801030218601" lon="-5.458219991996884">
        <ele>15.039999999999999</ele>
        <time>2023-08-30T15:34:39Z</time>
      </trkpt>
      <trkpt lat="56.624211994931102" lon="-5.457769967615604">
        <ele>15.52</ele>
        <time>2023-08-30T15:34:45Z</time>
      </trkpt>
      <trkpt lat="56.624259017407894" lon="-5.457678018137813">
        <ele>15.52</ele>
        <time>2023-08-30T15:34:46Z</time>
      </trkpt>
      <trkpt lat="56.624301010742784" lon="-5.457582967355847">
        <ele>15.52</ele>
        <time>2023-08-30T15:34:47Z</time>
      </trkpt>
      <trkpt lat="56.624386003240943" lon="-5.457391021773219">
        <ele>15.52</ele>
        <time>2023-08-30T15:34:49Z</time>
      </trkpt>
      <trkpt lat="56.624431014060974" lon="-5.457290019840002">
        <ele>15.039999999999999</ele>
        <time>2023-08-30T15:34:50Z</time>
      </trkpt>
      <trkpt lat="56.624648021534085" lon="-5.456801019608975">
        <ele>13.6</ele>
        <time>2023-08-30T15:34:54Z</time>
      </trkpt>
      <trkpt lat="56.624684985727072" lon="-5.456661963835359">
        <ele>13.119999999999999</ele>
        <time>2023-08-30T15:34:55Z</time>
      </trkpt>
      <trkpt lat="56.624723039567471" lon="-5.456517040729523">
        <ele>13.119999999999999</ele>
        <time>2023-08-30T15:34:56Z</time>
      </trkpt>
      <trkpt lat="56.624762015417218" lon="-5.456364993005991">
        <ele>13.6</ele>
        <time>2023-08-30T15:34:57Z</time>
      </trkpt>
      <trkpt lat="56.624799985438585" lon="-5.456217974424362">
        <ele>13.6</ele>
        <time>2023-08-30T15:34:58Z</time>
      </trkpt>
      <trkpt lat="56.624938035383821" lon="-5.455813966691494">
        <ele>14.08</ele>
        <time>2023-08-30T15:35:01Z</time>
      </trkpt>
      <trkpt lat="56.624988997355103" lon="-5.455688992515206">
        <ele>14.08</ele>
        <time>2023-08-30T15:35:02Z</time>
      </trkpt>
      <trkpt lat="56.62504599429667" lon="-5.455558989197016">
        <ele>14.08</ele>
        <time>2023-08-30T15:35:03Z</time>
      </trkpt>
      <trkpt lat="56.625816039741039" lon="-5.454527009278536">
        <ele>15.039999999999999</ele>
        <time>2023-08-30T15:35:12Z</time>
      </trkpt>
      <trkpt lat="56.625890973955393" lon="-5.454375967383385">
        <ele>15.52</ele>
        <time>2023-08-30T15:35:13Z</time>
      </trkpt>
      <trkpt lat="56.625966997817159" lon="-5.454219980165362">
        <ele>15.52</ele>
        <time>2023-08-30T15:35:14Z</time>
      </trkpt>
      <trkpt lat="56.626202026382089" lon="-5.45374003238976">
        <ele>15.52</ele>
        <time>2023-08-30T15:35:17Z</time>
      </trkpt>
      <trkpt lat="56.626279978081584" lon="-5.453581027686596">
        <ele>15.52</ele>
        <time>2023-08-30T15:35:18Z</time>
      </trkpt>
      <trkpt lat="56.626717010512948" lon="-5.453061014413834">
        <ele>14.08</ele>
        <time>2023-08-30T15:35:23Z</time>
      </trkpt>
      <trkpt lat="56.62680996581912" lon="-5.453004017472267">
        <ele>14.08</ele>
        <time>2023-08-30T15:35:24Z</time>
      </trkpt>
      <trkpt lat="56.627489989623427" lon="-5.45260202139616">
        <ele>13.6</ele>
        <time>2023-08-30T15:35:32Z</time>
      </trkpt>
      <trkpt lat="56.627556961029768" lon="-5.452584000304341">
        <ele>13.6</ele>
        <time>2023-08-30T15:35:33Z</time>
      </trkpt>
      <trkpt lat="56.628169007599354" lon="-5.452399011701345">
        <ele>16</ele>
        <time>2023-08-30T15:35:43Z</time>
      </trkpt>
      <trkpt lat="56.62824503146112" lon="-5.452351989224553">
        <ele>16.48</ele>
        <time>2023-08-30T15:35:45Z</time>
      </trkpt>
      <trkpt lat="56.628287024796009" lon="-5.452326005324721">
        <ele>16.960000000000001</ele>
        <time>2023-08-30T15:35:46Z</time>
      </trkpt>
      <trkpt lat="56.628335975110531" lon="-5.452295998111367">
        <ele>16.960000000000001</ele>
        <time>2023-08-30T15:35:47Z</time>
      </trkpt>
      <trkpt lat="56.628398001194" lon="-5.452247969806194">
        <ele>17.440000000000001</ele>
        <time>2023-08-30T15:35:48Z</time>
      </trkpt>
      <trkpt lat="56.628462038934231" lon="-5.452160965651274">
        <ele>17.440000000000001</ele>
        <time>2023-08-30T15:35:49Z</time>
      </trkpt>
      <trkpt lat="56.628528004512191" lon="-5.452070022001863">
        <ele>17.440000000000001</ele>
        <time>2023-08-30T15:35:50Z</time>
      </trkpt>
      <trkpt lat="56.628588018938899" lon="-5.451950998976827">
        <ele>17.440000000000001</ele>
        <time>2023-08-30T15:35:51Z</time>
      </trkpt>
      <trkpt lat="56.62863596342504" lon="-5.45182996429503">
        <ele>17.440000000000001</ele>
        <time>2023-08-30T15:35:52Z</time>
      </trkpt>
      <trkpt lat="56.628683991730213" lon="-5.451708007603884">
        <ele>17.440000000000001</ele>
        <time>2023-08-30T15:35:53Z</time>
      </trkpt>
      <trkpt lat="56.628918014466763" lon="-5.451115993782878">
        <ele>16</ele>
        <time>2023-08-30T15:35:58Z</time>
      </trkpt>
      <trkpt lat="56.628971993923187" lon="-5.451032007113099">
        <ele>16</ele>
        <time>2023-08-30T15:35:59Z</time>
      </trkpt>
      <trkpt lat="56.629027985036373" lon="-5.45094802044332">
        <ele>15.52</ele>
        <time>2023-08-30T15:36:00Z</time>
      </trkpt>
      <trkpt lat="56.62908598780632" lon="-5.4508610162884">
        <ele>15.52</ele>
        <time>2023-08-30T15:36:01Z</time>
      </trkpt>
      <trkpt lat="56.629151031374931" lon="-5.450822040438652">
        <ele>15.52</ele>
        <time>2023-08-30T15:36:02Z</time>
      </trkpt>
      <trkpt lat="56.629222026094794" lon="-5.450788009911776">
        <ele>15.039999999999999</ele>
        <time>2023-08-30T15:36:03Z</time>
      </trkpt>
      <trkpt lat="56.629292014986277" lon="-5.45075498521328">
        <ele>15.039999999999999</ele>
        <time>2023-08-30T15:36:04Z</time>
      </trkpt>
      <trkpt lat="56.62936401553452" lon="-5.450720032677054">
        <ele>15.039999999999999</ele>
        <time>2023-08-30T15:36:05Z</time>
      </trkpt>
      <trkpt lat="56.629513967782259" lon="-5.450649037957192">
        <ele>15.52</ele>
        <time>2023-08-30T15:36:07Z</time>
      </trkpt>
      <trkpt lat="56.629587979987264" lon="-5.450612995773554">
        <ele>15.52</ele>
        <time>2023-08-30T15:36:08Z</time>
      </trkpt>
      <trkpt lat="56.629652017727494" lon="-5.450531020760536">
        <ele>15.52</ele>
        <time>2023-08-30T15:36:09Z</time>
      </trkpt>
      <trkpt lat="56.630387026816607" lon="-5.44968101195991">
        <ele>16.48</ele>
        <time>2023-08-30T15:36:19Z</time>
      </trkpt>
      <trkpt lat="56.631076019257307" lon="-5.44897198677063">
        <ele>17.440000000000001</ele>
        <time>2023-08-30T15:36:28Z</time>
      </trkpt>
      <trkpt lat="56.631563007831573" lon="-5.448581976816058">
        <ele>17.920000000000002</ele>
        <time>2023-08-30T15:36:34Z</time>
      </trkpt>
      <trkpt lat="56.631643977016211" lon="-5.448488015681505">
        <ele>18.399999999999999</ele>
        <time>2023-08-30T15:36:35Z</time>
      </trkpt>
      <trkpt lat="56.631696028634906" lon="-5.448363041505218">
        <ele>18.399999999999999</ele>
        <time>2023-08-30T15:36:36Z</time>
      </trkpt>
      <trkpt lat="56.63174900226295" lon="-5.448235971853137">
        <ele>18.399999999999999</ele>
        <time>2023-08-30T15:36:37Z</time>
      </trkpt>
      <trkpt lat="56.631802981719375" lon="-5.448105968534946">
        <ele>18.399999999999999</ele>
        <time>2023-08-30T15:36:38Z</time>
      </trkpt>
      <trkpt lat="56.632535979151726" lon="-5.446352977305651">
        <ele>17.920000000000002</ele>
        <time>2023-08-30T15:36:51Z</time>
      </trkpt>
      <trkpt lat="56.633409960195422" lon="-5.444698976352811">
        <ele>17.440000000000001</ele>
        <time>2023-08-30T15:37:05Z</time>
      </trkpt>
      <trkpt lat="56.633736016228795" lon="-5.444365963339806">
        <ele>17.440000000000001</ele>
        <time>2023-08-30T15:37:09Z</time>
      </trkpt>
      <trkpt lat="56.633822014555335" lon="-5.444306032732129">
        <ele>16.960000000000001</ele>
        <time>2023-08-30T15:37:10Z</time>
      </trkpt>
      <trkpt lat="56.633903989568353" lon="-5.444312989711762">
        <ele>16.960000000000001</ele>
        <time>2023-08-30T15:37:11Z</time>
      </trkpt>
      <trkpt lat="56.633989987894893" lon="-5.444321036338806">
        <ele>16.960000000000001</ele>
        <time>2023-08-30T15:37:12Z</time>
      </trkpt>
      <trkpt lat="56.634072968736291" lon="-5.444327993318439">
        <ele>16.960000000000001</ele>
        <time>2023-08-30T15:37:13Z</time>
      </trkpt>
      <trkpt lat="56.634158967062831" lon="-5.444336039945483">
        <ele>16.48</ele>
        <time>2023-08-30T15:37:14Z</time>
      </trkpt>
      <trkpt lat="56.634246977046132" lon="-5.444344002753496">
        <ele>16.48</ele>
        <time>2023-08-30T15:37:15Z</time>
      </trkpt>
      <trkpt lat="56.634331969544291" lon="-5.444328999146819">
        <ele>16</ele>
        <time>2023-08-30T15:37:16Z</time>
      </trkpt>
      <trkpt lat="56.634422997012734" lon="-5.444292034953833">
        <ele>16</ele>
        <time>2023-08-30T15:37:17Z</time>
      </trkpt>
      <trkpt lat="56.634517963975668" lon="-5.444252975285053">
        <ele>16</ele>
        <time>2023-08-30T15:37:18Z</time>
      </trkpt>
      <trkpt lat="56.634609997272491" lon="-5.444215005263686">
        <ele>16</ele>
        <time>2023-08-30T15:37:19Z</time>
      </trkpt>
      <trkpt lat="56.63469398394227" lon="-5.44415800832212">
        <ele>16.48</ele>
        <time>2023-08-30T15:37:20Z</time>
      </trkpt>
      <trkpt lat="56.634771013632417" lon="-5.444086007773876">
        <ele>16.48</ele>
        <time>2023-08-30T15:37:21Z</time>
      </trkpt>
      <trkpt lat="56.635549021884799" lon="-5.443358039483428">
        <ele>19.359999999999999</ele>
        <time>2023-08-30T15:37:32Z</time>
      </trkpt>
      <trkpt lat="56.636444041505456" lon="-5.442717997357249">
        <ele>18.399999999999999</ele>
        <time>2023-08-30T15:37:44Z</time>
      </trkpt>
      <trkpt lat="56.637397985905409" lon="-5.441781990230084">
        <ele>16.960000000000001</ele>
        <time>2023-08-30T15:37:55Z</time>
      </trkpt>
      <trkpt lat="56.637913975864649" lon="-5.440637022256851">
        <ele>16.48</ele>
        <time>2023-08-30T15:38:04Z</time>
      </trkpt>
      <trkpt lat="56.638589976355433" lon="-5.439150994643569">
        <ele>17.920000000000002</ele>
        <time>2023-08-30T15:38:17Z</time>
      </trkpt>
      <trkpt lat="56.639133961871266" lon="-5.438175005838275">
        <ele>18.399999999999999</ele>
        <time>2023-08-30T15:38:25Z</time>
      </trkpt>
      <trkpt lat="56.639209985733032" lon="-5.43805799447">
        <ele>18.399999999999999</ele>
        <time>2023-08-30T15:38:26Z</time>
      </trkpt>
      <trkpt lat="56.640340033918619" lon="-5.436934987083077">
        <ele>16</ele>
        <time>2023-08-30T15:38:37Z</time>
      </trkpt>
      <trkpt lat="56.641229018568993" lon="-5.436107022687793">
        <ele>14.56</ele>
        <time>2023-08-30T15:38:47Z</time>
      </trkpt>
      <trkpt lat="56.641294984146953" lon="-5.436054971069098">
        <ele>14.08</ele>
        <time>2023-08-30T15:38:57Z</time>
      </trkpt>
      <trkpt lat="56.641294984146953" lon="-5.436054971069098">
        <ele>14.08</ele>
        <time>2023-08-30T15:39:12Z</time>
      </trkpt>
      <trkpt lat="56.641351981088519" lon="-5.435910969972611">
        <ele>13.119999999999999</ele>
        <time>2023-08-30T15:45:41Z</time>
      </trkpt>
      <trkpt lat="56.641364973038435" lon="-5.435952041298151">
        <ele>11.19</ele>
        <time>2023-08-30T15:45:52Z</time>
      </trkpt>
      <trkpt lat="56.641405038535595" lon="-5.435968972742558">
        <ele>11.19</ele>
        <time>2023-08-30T15:45:55Z</time>
      </trkpt>
      <trkpt lat="56.641425993293524" lon="-5.4359529633075">
        <ele>11.67</ele>
        <time>2023-08-30T15:45:56Z</time>
      </trkpt>
      <trkpt lat="56.6414600238204" lon="-5.435925973579288">
        <ele>12.15</ele>
        <time>2023-08-30T15:45:57Z</time>
      </trkpt>
      <trkpt lat="56.641506962478161" lon="-5.435890015214682">
        <ele>12.630000000000001</ele>
        <time>2023-08-30T15:45:58Z</time>
      </trkpt>
      <trkpt lat="56.641563037410378" lon="-5.435845004394651">
        <ele>12.630000000000001</ele>
        <time>2023-08-30T15:45:59Z</time>
      </trkpt>
      <trkpt lat="56.642307015135884" lon="-5.435259025543928">
        <ele>17.440000000000001</ele>
        <time>2023-08-30T15:46:08Z</time>
      </trkpt>
      <trkpt lat="56.64350101724267" lon="-5.434209024533629">
        <ele>20.32</ele>
        <time>2023-08-30T15:46:21Z</time>
      </trkpt>
      <trkpt lat="56.644598040729761" lon="-5.433245021849871">
        <ele>25.609999999999999</ele>
        <time>2023-08-30T15:46:33Z</time>
      </trkpt>
      <trkpt lat="56.645174967125058" lon="-5.43268796056509">
        <ele>26.57</ele>
        <time>2023-08-30T15:46:40Z</time>
      </trkpt>
      <trkpt lat="56.645235987380147" lon="-5.432584024965763">
        <ele>27.050000000000001</ele>
        <time>2023-08-30T15:46:41Z</time>
      </trkpt>
      <trkpt lat="56.645294995978475" lon="-5.432476988062263">
        <ele>27.050000000000001</ele>
        <time>2023-08-30T15:46:42Z</time>
      </trkpt>
      <trkpt lat="56.64534998126328" lon="-5.432350002229214">
        <ele>27.050000000000001</ele>
        <time>2023-08-30T15:46:43Z</time>
      </trkpt>
      <trkpt lat="56.645849961787462" lon="-5.43107402510941">
        <ele>28.5</ele>
        <time>2023-08-30T15:46:52Z</time>
      </trkpt>
      <trkpt lat="56.646192027255893" lon="-5.430075991898775">
        <ele>28.02</ele>
        <time>2023-08-30T15:47:00Z</time>
      </trkpt>
      <trkpt lat="56.646221028640866" lon="-5.429941965267062">
        <ele>28.02</ele>
        <time>2023-08-30T15:47:01Z</time>
      </trkpt>
      <trkpt lat="56.646236032247543" lon="-5.429797964170575">
        <ele>28.5</ele>
        <time>2023-08-30T15:47:02Z</time>
      </trkpt>
      <trkpt lat="56.64623100310564" lon="-5.429637031629682">
        <ele>29.460000000000001</ele>
        <time>2023-08-30T15:47:03Z</time>
      </trkpt>
      <trkpt lat="56.646225973963737" lon="-5.429475009441376">
        <ele>29.940000000000001</ele>
        <time>2023-08-30T15:47:04Z</time>
      </trkpt>
      <trkpt lat="56.646170988678932" lon="-5.427784966304898">
        <ele>31.379999999999999</ele>
        <time>2023-08-30T15:47:14Z</time>
      </trkpt>
      <trkpt lat="56.646178029477596" lon="-5.427019027993083">
        <ele>30.420000000000002</ele>
        <time>2023-08-30T15:47:19Z</time>
      </trkpt>
      <trkpt lat="56.646199990063906" lon="-5.426860023289919">
        <ele>29.940000000000001</ele>
        <time>2023-08-30T15:47:20Z</time>
      </trkpt>
      <trkpt lat="56.646245000883937" lon="-5.426532961428165">
        <ele>29.940000000000001</ele>
        <time>2023-08-30T15:47:22Z</time>
      </trkpt>
      <trkpt lat="56.646292023360729" lon="-5.426193997263908">
        <ele>28.98</ele>
        <time>2023-08-30T15:47:24Z</time>
      </trkpt>
      <trkpt lat="56.6463159956038" lon="-5.426018983125687">
        <ele>28.5</ele>
        <time>2023-08-30T15:47:25Z</time>
      </trkpt>
      <trkpt lat="56.646340973675251" lon="-5.425836006179452">
        <ele>28.02</ele>
        <time>2023-08-30T15:47:26Z</time>
      </trkpt>
      <trkpt lat="56.646366035565734" lon="-5.425657974556088">
        <ele>27.530000000000001</ele>
        <time>2023-08-30T15:47:27Z</time>
      </trkpt>
      <trkpt lat="56.646389001980424" lon="-5.425490001216531">
        <ele>27.050000000000001</ele>
        <time>2023-08-30T15:47:28Z</time>
      </trkpt>
      <trkpt lat="56.646414985880256" lon="-5.425301995128393">
        <ele>27.050000000000001</ele>
        <time>2023-08-30T15:47:29Z</time>
      </trkpt>
      <trkpt lat="56.646440969780087" lon="-5.425109965726733">
        <ele>27.050000000000001</ele>
        <time>2023-08-30T15:47:30Z</time>
      </trkpt>
      <trkpt lat="56.64646603167057" lon="-5.424935035407543">
        <ele>27.530000000000001</ele>
        <time>2023-08-30T15:47:31Z</time>
      </trkpt>
      <trkpt lat="56.64648899808526" lon="-5.424765972420573">
        <ele>27.530000000000001</ele>
        <time>2023-08-30T15:47:32Z</time>
      </trkpt>
      <trkpt lat="56.64651196449995" lon="-5.424597999081016">
        <ele>27.530000000000001</ele>
        <time>2023-08-30T15:47:33Z</time>
      </trkpt>
      <trkpt lat="56.646533003076911" lon="-5.424420973286033">
        <ele>27.530000000000001</ele>
        <time>2023-08-30T15:47:34Z</time>
      </trkpt>
      <trkpt lat="56.646658983081579" lon="-5.423273993656039">
        <ele>26.57</ele>
        <time>2023-08-30T15:47:40Z</time>
      </trkpt>
      <trkpt lat="56.646796027198434" lon="-5.422031963244081">
        <ele>25.129999999999999</ele>
        <time>2023-08-30T15:47:47Z</time>
      </trkpt>
      <trkpt lat="56.646857969462872" lon="-5.421837000176311">
        <ele>25.129999999999999</ele>
        <time>2023-08-30T15:47:48Z</time>
      </trkpt>
      <trkpt lat="56.646908009424806" lon="-5.421680007129908">
        <ele>24.649999999999999</ele>
        <time>2023-08-30T15:47:49Z</time>
      </trkpt>
      <trkpt lat="56.646957965567708" lon="-5.421536006033421">
        <ele>24.649999999999999</ele>
        <time>2023-08-30T15:47:50Z</time>
      </trkpt>
      <trkpt lat="56.647023009136319" lon="-5.421408014371991">
        <ele>24.170000000000002</ele>
        <time>2023-08-30T15:47:51Z</time>
      </trkpt>
      <trkpt lat="56.647088974714279" lon="-5.421278011053801">
        <ele>24.170000000000002</ele>
        <time>2023-08-30T15:47:52Z</time>
      </trkpt>
      <trkpt lat="56.647681994363666" lon="-5.420107981190085">
        <ele>22.73</ele>
        <time>2023-08-30T15:48:01Z</time>
      </trkpt>
      <trkpt lat="56.64786103181541" lon="-5.419702967628837">
        <ele>22.25</ele>
        <time>2023-08-30T15:48:04Z</time>
      </trkpt>
      <trkpt lat="56.647919034585357" lon="-5.41955603286624">
        <ele>22.25</ele>
        <time>2023-08-30T15:48:05Z</time>
      </trkpt>
      <trkpt lat="56.648115003481507" lon="-5.419097961857915">
        <ele>21.77</ele>
        <time>2023-08-30T15:48:08Z</time>
      </trkpt>
      <trkpt lat="56.648252969607711" lon="-5.418835021555424">
        <ele>21.289999999999999</ele>
        <time>2023-08-30T15:48:10Z</time>
      </trkpt>
      <trkpt lat="56.648308038711548" lon="-5.418705018237233">
        <ele>21.289999999999999</ele>
        <time>2023-08-30T15:48:11Z</time>
      </trkpt>
      <trkpt lat="56.648362018167973" lon="-5.418469989672303">
        <ele>21.289999999999999</ele>
        <time>2023-08-30T15:48:13Z</time>
      </trkpt>
      <trkpt lat="56.648419015109539" lon="-5.418413998559117">
        <ele>21.289999999999999</ele>
        <time>2023-08-30T15:48:14Z</time>
      </trkpt>
      <trkpt lat="56.648472994565964" lon="-5.418359013274312">
        <ele>21.77</ele>
        <time>2023-08-30T15:48:15Z</time>
      </trkpt>
      <trkpt lat="56.648536026477814" lon="-5.418295981362462">
        <ele>21.77</ele>
        <time>2023-08-30T15:48:16Z</time>
      </trkpt>
      <trkpt lat="56.648612972348928" lon="-5.418220041319728">
        <ele>21.77</ele>
        <time>2023-08-30T15:48:17Z</time>
      </trkpt>
      <trkpt lat="56.648692013695836" lon="-5.418104035779834">
        <ele>21.77</ele>
        <time>2023-08-30T15:48:18Z</time>
      </trkpt>
      <trkpt lat="56.648767031729221" lon="-5.417974032461643">
        <ele>21.77</ele>
        <time>2023-08-30T15:48:19Z</time>
      </trkpt>
      <trkpt lat="56.649252008646727" lon="-5.416942974552512">
        <ele>22.25</ele>
        <time>2023-08-30T15:48:26Z</time>
      </trkpt>
      <trkpt lat="56.6494329739362" lon="-5.416491022333503">
        <ele>23.210000000000001</ele>
        <time>2023-08-30T15:48:29Z</time>
      </trkpt>
      <trkpt lat="56.649579992517829" lon="-5.416262028738856">
        <ele>23.690000000000001</ele>
        <time>2023-08-30T15:48:31Z</time>
      </trkpt>
      <trkpt lat="56.649669008329511" lon="-5.416140994057059">
        <ele>24.170000000000002</ele>
        <time>2023-08-30T15:48:32Z</time>
      </trkpt>
      <trkpt lat="56.650111991912127" lon="-5.415473040193319">
        <ele>24.649999999999999</ele>
        <time>2023-08-30T15:48:37Z</time>
      </trkpt>
      <trkpt lat="56.650264039635658" lon="-5.415144972503185">
        <ele>24.649999999999999</ele>
        <time>2023-08-30T15:48:39Z</time>
      </trkpt>
      <trkpt lat="56.650494961068034" lon="-5.414647003635764">
        <ele>23.210000000000001</ele>
        <time>2023-08-30T15:48:42Z</time>
      </trkpt>
      <trkpt lat="56.650670981034636" lon="-5.414350032806397">
        <ele>22.73</ele>
        <time>2023-08-30T15:48:44Z</time>
      </trkpt>
      <trkpt lat="56.65076301433146" lon="-5.414231009781361">
        <ele>22.25</ele>
        <time>2023-08-30T15:48:45Z</time>
      </trkpt>
      <trkpt lat="56.650852030143142" lon="-5.414115004241467">
        <ele>21.77</ele>
        <time>2023-08-30T15:48:46Z</time>
      </trkpt>
      <trkpt lat="56.651543034240603" lon="-5.413336995989084">
        <ele>22.73</ele>
        <time>2023-08-30T15:48:54Z</time>
      </trkpt>
      <trkpt lat="56.651726011186838" lon="-5.413254015147686">
        <ele>23.690000000000001</ele>
        <time>2023-08-30T15:48:56Z</time>
      </trkpt>
      <trkpt lat="56.651801029220223" lon="-5.413224007934332">
        <ele>24.170000000000002</ele>
        <time>2023-08-30T15:48:57Z</time>
      </trkpt>
      <trkpt lat="56.651893984526396" lon="-5.413205986842513">
        <ele>24.649999999999999</ele>
        <time>2023-08-30T15:48:58Z</time>
      </trkpt>
      <trkpt lat="56.651943018659949" lon="-5.413264995440841">
        <ele>25.129999999999999</ele>
        <time>2023-08-30T15:48:59Z</time>
      </trkpt>
      <trkpt lat="56.652002027258277" lon="-5.413335990160704">
        <ele>25.609999999999999</ele>
        <time>2023-08-30T15:49:00Z</time>
      </trkpt>
      <trkpt lat="56.652070004492998" lon="-5.413417965173721">
        <ele>25.609999999999999</ele>
        <time>2023-08-30T15:49:01Z</time>
      </trkpt>
      <trkpt lat="56.65220302529633" lon="-5.413577975705266">
        <ele>26.09</ele>
        <time>2023-08-30T15:49:03Z</time>
      </trkpt>
      <trkpt lat="56.65228902362287" lon="-5.413614017888904">
        <ele>26.09</ele>
        <time>2023-08-30T15:49:04Z</time>
      </trkpt>
      <trkpt lat="56.652376027777791" lon="-5.41365098208189">
        <ele>26.09</ele>
        <time>2023-08-30T15:49:05Z</time>
      </trkpt>
      <trkpt lat="56.652467977255583" lon="-5.41369004175067">
        <ele>26.09</ele>
        <time>2023-08-30T15:49:06Z</time>
      </trkpt>
      <trkpt lat="56.652563028037548" lon="-5.413730023428798">
        <ele>26.09</ele>
        <time>2023-08-30T15:49:07Z</time>
      </trkpt>
      <trkpt lat="56.652653971686959" lon="-5.413767993450165">
        <ele>25.609999999999999</ele>
        <time>2023-08-30T15:49:08Z</time>
      </trkpt>
      <trkpt lat="56.65276100859046" lon="-5.413814010098577">
        <ele>25.609999999999999</ele>
        <time>2023-08-30T15:49:09Z</time>
      </trkpt>
      <trkpt lat="56.652838038280606" lon="-5.41388601064682">
        <ele>25.609999999999999</ele>
        <time>2023-08-30T15:49:10Z</time>
      </trkpt>
      <trkpt lat="56.653113970533013" lon="-5.414148028939962">
        <ele>25.609999999999999</ele>
        <time>2023-08-30T15:49:13Z</time>
      </trkpt>
      <trkpt lat="56.653194017708302" lon="-5.414279038086534">
        <ele>25.129999999999999</ele>
        <time>2023-08-30T15:49:14Z</time>
      </trkpt>
      <trkpt lat="56.653232993558049" lon="-5.414406023919582">
        <ele>24.649999999999999</ele>
        <time>2023-08-30T15:49:15Z</time>
      </trkpt>
      <trkpt lat="56.653275992721319" lon="-5.414543990045786">
        <ele>24.649999999999999</ele>
        <time>2023-08-30T15:49:16Z</time>
      </trkpt>
      <trkpt lat="56.653327960520983" lon="-5.414708023890853">
        <ele>24.649999999999999</ele>
        <time>2023-08-30T15:49:17Z</time>
      </trkpt>
      <trkpt lat="56.653380012139678" lon="-5.414873985573649">
        <ele>25.129999999999999</ele>
        <time>2023-08-30T15:49:18Z</time>
      </trkpt>
      <trkpt lat="56.653425022959709" lon="-5.415017986670137">
        <ele>25.609999999999999</ele>
        <time>2023-08-30T15:49:19Z</time>
      </trkpt>
      <trkpt lat="56.653468022122979" lon="-5.415157964453101">
        <ele>25.609999999999999</ele>
        <time>2023-08-30T15:49:20Z</time>
      </trkpt>
      <trkpt lat="56.653490988537669" lon="-5.415229965001345">
        <ele>26.09</ele>
        <time>2023-08-30T15:49:21Z</time>
      </trkpt>
      <trkpt lat="56.653572963550687" lon="-5.415281010791659">
        <ele>26.57</ele>
        <time>2023-08-30T15:49:22Z</time>
      </trkpt>
      <trkpt lat="56.653653010725975" lon="-5.415330966934562">
        <ele>26.57</ele>
        <time>2023-08-30T15:49:23Z</time>
      </trkpt>
      <trkpt lat="56.653712019324303" lon="-5.415324009954929">
        <ele>26.57</ele>
        <time>2023-08-30T15:49:24Z</time>
      </trkpt>
      <trkpt lat="56.653803968802094" lon="-5.415300037711859">
        <ele>26.09</ele>
        <time>2023-08-30T15:49:25Z</time>
      </trkpt>
      <trkpt lat="56.65390295907855" lon="-5.415272964164615">
        <ele>25.609999999999999</ele>
        <time>2023-08-30T15:49:26Z</time>
      </trkpt>
      <trkpt lat="56.653995998203754" lon="-5.415241029113531">
        <ele>25.609999999999999</ele>
        <time>2023-08-30T15:49:27Z</time>
      </trkpt>
      <trkpt lat="56.654098005965352" lon="-5.415151007473469">
        <ele>25.609999999999999</ele>
        <time>2023-08-30T15:49:28Z</time>
      </trkpt>
      <trkpt lat="56.654176963493228" lon="-5.415080012753606">
        <ele>25.609999999999999</ele>
        <time>2023-08-30T15:49:29Z</time>
      </trkpt>
      <trkpt lat="56.654285006225109" lon="-5.414934000000358">
        <ele>26.09</ele>
        <time>2023-08-30T15:49:30Z</time>
      </trkpt>
      <trkpt lat="56.654377961531281" lon="-5.414807014167309">
        <ele>26.57</ele>
        <time>2023-08-30T15:49:31Z</time>
      </trkpt>
      <trkpt lat="56.654778029769659" lon="-5.414264034479857">
        <ele>26.09</ele>
        <time>2023-08-30T15:49:36Z</time>
      </trkpt>
      <trkpt lat="56.654835026711226" lon="-5.414094971492887">
        <ele>25.609999999999999</ele>
        <time>2023-08-30T15:49:37Z</time>
      </trkpt>
      <trkpt lat="56.654884982854128" lon="-5.413945019245148">
        <ele>25.609999999999999</ele>
        <time>2023-08-30T15:49:38Z</time>
      </trkpt>
      <trkpt lat="56.655245991423726" lon="-5.412861993536353">
        <ele>26.09</ele>
        <time>2023-08-30T15:49:45Z</time>
      </trkpt>
      <trkpt lat="56.65529896505177" lon="-5.412744982168078">
        <ele>26.09</ele>
        <time>2023-08-30T15:49:46Z</time>
      </trkpt>
      <trkpt lat="56.655370965600014" lon="-5.41264096274972">
        <ele>26.09</ele>
        <time>2023-08-30T15:49:47Z</time>
      </trkpt>
      <trkpt lat="56.655441038310528" lon="-5.412539960816503">
        <ele>26.57</ele>
        <time>2023-08-30T15:49:48Z</time>
      </trkpt>
      <trkpt lat="56.655507003888488" lon="-5.412444993853569">
        <ele>27.050000000000001</ele>
        <time>2023-08-30T15:49:49Z</time>
      </trkpt>
      <trkpt lat="56.655631978064775" lon="-5.412264028564096">
        <ele>28.98</ele>
        <time>2023-08-30T15:49:51Z</time>
      </trkpt>
      <trkpt lat="56.655697021633387" lon="-5.412171995267272">
        <ele>29.460000000000001</ele>
        <time>2023-08-30T15:49:52Z</time>
      </trkpt>
      <trkpt lat="56.655944958329201" lon="-5.411747032776475">
        <ele>30.899999999999999</ele>
        <time>2023-08-30T15:49:56Z</time>
      </trkpt>
      <trkpt lat="56.656201025471091" lon="-5.41130798868835">
        <ele>30.899999999999999</ele>
        <time>2023-08-30T15:50:00Z</time>
      </trkpt>
      <trkpt lat="56.656278977170587" lon="-5.411218972876668">
        <ele>30.899999999999999</ele>
        <time>2023-08-30T15:50:01Z</time>
      </trkpt>
      <trkpt lat="56.656359024345875" lon="-5.411128029227257">
        <ele>31.379999999999999</ele>
        <time>2023-08-30T15:50:02Z</time>
      </trkpt>
      <trkpt lat="56.656430019065738" lon="-5.411045970395207">
        <ele>31.379999999999999</ele>
        <time>2023-08-30T15:50:03Z</time>
      </trkpt>
      <trkpt lat="56.656510988250375" lon="-5.411021998152137">
        <ele>31.859999999999999</ele>
        <time>2023-08-30T15:50:04Z</time>
      </trkpt>
      <trkpt lat="56.656596986576915" lon="-5.410996014252305">
        <ele>32.340000000000003</ele>
        <time>2023-08-30T15:50:05Z</time>
      </trkpt>
      <trkpt lat="56.656687008216977" lon="-5.410969024524093">
        <ele>32.82</ele>
        <time>2023-08-30T15:50:06Z</time>
      </trkpt>
      <trkpt lat="56.656776024028659" lon="-5.41094203479588">
        <ele>33.299999999999997</ele>
        <time>2023-08-30T15:50:07Z</time>
      </trkpt>
      <trkpt lat="56.656942991539836" lon="-5.410843966528773">
        <ele>34.259999999999998</ele>
        <time>2023-08-30T15:50:09Z</time>
      </trkpt>
      <trkpt lat="56.65701599791646" lon="-5.410780012607575">
        <ele>34.740000000000002</ele>
        <time>2023-08-30T15:50:10Z</time>
      </trkpt>
      <trkpt lat="56.657075006514788" lon="-5.410697031766176">
        <ele>35.229999999999997</ele>
        <time>2023-08-30T15:50:11Z</time>
      </trkpt>
      <trkpt lat="56.657138038426638" lon="-5.41059703566134">
        <ele>35.710000000000001</ele>
        <time>2023-08-30T15:50:12Z</time>
      </trkpt>
      <trkpt lat="56.657204004004598" lon="-5.4104920104146">
        <ele>36.189999999999998</ele>
        <time>2023-08-30T15:50:13Z</time>
      </trkpt>
      <trkpt lat="56.657271981239319" lon="-5.410382961854339">
        <ele>36.670000000000002</ele>
        <time>2023-08-30T15:50:14Z</time>
      </trkpt>
      <trkpt lat="56.657341970130801" lon="-5.410270979627967">
        <ele>37.149999999999999</ele>
        <time>2023-08-30T15:50:15Z</time>
      </trkpt>
      <trkpt lat="56.657627038657665" lon="-5.409817015752196">
        <ele>38.109999999999999</ele>
        <time>2023-08-30T15:50:19Z</time>
      </trkpt>
      <trkpt lat="56.657698033377528" lon="-5.409703021869063">
        <ele>38.109999999999999</ele>
        <time>2023-08-30T15:50:20Z</time>
      </trkpt>
      <trkpt lat="56.657897019758821" lon="-5.409444021061063">
        <ele>39.549999999999997</ele>
        <time>2023-08-30T15:50:23Z</time>
      </trkpt>
      <trkpt lat="56.657966002821922" lon="-5.409390041604638">
        <ele>40.030000000000001</ele>
        <time>2023-08-30T15:50:24Z</time>
      </trkpt>
      <trkpt lat="56.658040015026927" lon="-5.409332038834691">
        <ele>40.509999999999998</ele>
        <time>2023-08-30T15:50:25Z</time>
      </trkpt>
      <trkpt lat="56.658362969756126" lon="-5.409076977521181">
        <ele>41.950000000000003</ele>
        <time>2023-08-30T15:50:29Z</time>
      </trkpt>
      <trkpt lat="56.658447962254286" lon="-5.409010006114841">
        <ele>42.439999999999998</ele>
        <time>2023-08-30T15:50:30Z</time>
      </trkpt>
      <trkpt lat="56.658537983894348" lon="-5.408935993909836">
        <ele>42.920000000000002</ele>
        <time>2023-08-30T15:50:31Z</time>
      </trkpt>
      <trkpt lat="56.659203004091978" lon="-5.407969979569316">
        <ele>49.649999999999999</ele>
        <time>2023-08-30T15:50:40Z</time>
      </trkpt>
      <trkpt lat="56.659282967448235" lon="-5.407888004556298">
        <ele>50.609999999999999</ele>
        <time>2023-08-30T15:50:41Z</time>
      </trkpt>
      <trkpt lat="56.660081008449197" lon="-5.406965995207429">
        <ele>58.299999999999997</ele>
        <time>2023-08-30T15:50:51Z</time>
      </trkpt>
      <trkpt lat="56.660141022875905" lon="-5.406878991052508">
        <ele>59.259999999999998</ele>
        <time>2023-08-30T15:50:52Z</time>
      </trkpt>
      <trkpt lat="56.660253005102277" lon="-5.406715963035822">
        <ele>61.18</ele>
        <time>2023-08-30T15:50:54Z</time>
      </trkpt>
      <trkpt lat="56.660271026194096" lon="-5.40668997913599">
        <ele>61.659999999999997</ele>
        <time>2023-08-30T15:50:55Z</time>
      </trkpt>
      <trkpt lat="56.660369010642171" lon="-5.406661983579397">
        <ele>62.619999999999997</ele>
        <time>2023-08-30T15:50:56Z</time>
      </trkpt>
      <trkpt lat="56.660451991483569" lon="-5.406639017164707">
        <ele>63.579999999999998</ele>
        <time>2023-08-30T15:50:57Z</time>
      </trkpt>
      <trkpt lat="56.660547964274883" lon="-5.406612027436495">
        <ele>64.069999999999993</ele>
        <time>2023-08-30T15:50:58Z</time>
      </trkpt>
      <trkpt lat="56.660655001178384" lon="-5.406582020223141">
        <ele>64.549999999999997</ele>
        <time>2023-08-30T15:50:59Z</time>
      </trkpt>
      <trkpt lat="56.661620009690523" lon="-5.40602101944387">
        <ele>70.310000000000002</ele>
        <time>2023-08-30T15:51:07Z</time>
      </trkpt>
      <trkpt lat="56.663108970969915" lon="-5.40494604036212">
        <ele>78.969999999999999</ele>
        <time>2023-08-30T15:51:20Z</time>
      </trkpt>
      <trkpt lat="56.664103986695409" lon="-5.404059989377856">
        <ele>78.969999999999999</ele>
        <time>2023-08-30T15:51:29Z</time>
      </trkpt>
      <trkpt lat="56.664211023598909" lon="-5.404014978557825">
        <ele>78</ele>
        <time>2023-08-30T15:51:30Z</time>
      </trkpt>
      <trkpt lat="56.664945026859641" lon="-5.403645001351833">
        <ele>72.719999999999999</ele>
        <time>2023-08-30T15:51:37Z</time>
      </trkpt>
      <trkpt lat="56.665527988225222" lon="-5.402913009747863">
        <ele>67.909999999999997</ele>
        <time>2023-08-30T15:51:44Z</time>
      </trkpt>
      <trkpt lat="56.665626978501678" lon="-5.402875961735845">
        <ele>67.430000000000007</ele>
        <time>2023-08-30T15:51:45Z</time>
      </trkpt>
      <trkpt lat="56.665720017626882" lon="-5.402841009199619">
        <ele>66.469999999999999</ele>
        <time>2023-08-30T15:51:46Z</time>
      </trkpt>
      <trkpt lat="56.665814984589815" lon="-5.402805972844362">
        <ele>65.989999999999995</ele>
        <time>2023-08-30T15:51:47Z</time>
      </trkpt>
      <trkpt lat="56.66591003537178" lon="-5.402770014479756">
        <ele>65.510000000000005</ele>
        <time>2023-08-30T15:51:48Z</time>
      </trkpt>
      <trkpt lat="56.666457960382104" lon="-5.402445970103145">
        <ele>62.619999999999997</ele>
        <time>2023-08-30T15:51:54Z</time>
      </trkpt>
      <trkpt lat="56.66653398424387" lon="-5.402378998696804">
        <ele>62.619999999999997</ele>
        <time>2023-08-30T15:51:55Z</time>
      </trkpt>
      <trkpt lat="56.666571032255888" lon="-5.402272967621684">
        <ele>62.140000000000001</ele>
        <time>2023-08-30T15:51:56Z</time>
      </trkpt>
      <trkpt lat="56.666617970913649" lon="-5.402132989838719">
        <ele>61.18</ele>
        <time>2023-08-30T15:51:57Z</time>
      </trkpt>
      <trkpt lat="56.666670022532344" lon="-5.401978008449078">
        <ele>60.700000000000003</ele>
        <time>2023-08-30T15:51:58Z</time>
      </trkpt>
      <trkpt lat="56.666722996160388" lon="-5.401816992089152">
        <ele>59.740000000000002</ele>
        <time>2023-08-30T15:51:59Z</time>
      </trkpt>
      <trkpt lat="56.66689801029861" lon="-5.401293039321899">
        <ele>57.82</ele>
        <time>2023-08-30T15:52:02Z</time>
      </trkpt>
      <trkpt lat="56.666960036382079" lon="-5.401107966899872">
        <ele>57.340000000000003</ele>
        <time>2023-08-30T15:52:03Z</time>
      </trkpt>
      <trkpt lat="56.667033964768052" lon="-5.400939993560314">
        <ele>56.859999999999999</ele>
        <time>2023-08-30T15:52:04Z</time>
      </trkpt>
      <trkpt lat="56.667120968922973" lon="-5.400784006342292">
        <ele>56.369999999999997</ele>
        <time>2023-08-30T15:52:05Z</time>
      </trkpt>
      <trkpt lat="56.667208978906274" lon="-5.400623995810747">
        <ele>55.890000000000001</ele>
        <time>2023-08-30T15:52:06Z</time>
      </trkpt>
      <trkpt lat="56.667976006865501" lon="-5.399237964302301">
        <ele>55.890000000000001</ele>
        <time>2023-08-30T15:52:15Z</time>
      </trkpt>
      <trkpt lat="56.668035015463829" lon="-5.399062028154731">
        <ele>56.369999999999997</ele>
        <time>2023-08-30T15:52:16Z</time>
      </trkpt>
      <trkpt lat="56.668084971606731" lon="-5.398880979046226">
        <ele>57.340000000000003</ele>
        <time>2023-08-30T15:52:17Z</time>
      </trkpt>
      <trkpt lat="56.668471964076161" lon="-5.397203005850315">
        <ele>65.989999999999995</ele>
        <time>2023-08-30T15:52:25Z</time>
      </trkpt>
      <trkpt lat="56.668802965432405" lon="-5.395887969061732">
        <ele>71.760000000000005</ele>
        <time>2023-08-30T15:52:32Z</time>
      </trkpt>
      <trkpt lat="56.668871026486158" lon="-5.395736005157232">
        <ele>71.760000000000005</ele>
        <time>2023-08-30T15:52:33Z</time>
      </trkpt>
      <trkpt lat="56.66894000954926" lon="-5.39558001793921">
        <ele>72.239999999999995</ele>
        <time>2023-08-30T15:52:34Z</time>
      </trkpt>
      <trkpt lat="56.669985987246037" lon="-5.393915958702564">
        <ele>68.870000000000005</ele>
        <time>2023-08-30T15:52:45Z</time>
      </trkpt>
      <trkpt lat="56.671339999884367" lon="-5.39231400936842">
        <ele>65.989999999999995</ele>
        <time>2023-08-30T15:52:57Z</time>
      </trkpt>
      <trkpt lat="56.672535007819533" lon="-5.390702001750469">
        <ele>63.579999999999998</ele>
        <time>2023-08-30T15:53:09Z</time>
      </trkpt>
      <trkpt lat="56.673436984419823" lon="-5.389224020764232">
        <ele>64.549999999999997</ele>
        <time>2023-08-30T15:53:19Z</time>
      </trkpt>
      <trkpt lat="56.673705959692597" lon="-5.388854965567589">
        <ele>64.549999999999997</ele>
        <time>2023-08-30T15:53:22Z</time>
      </trkpt>
      <trkpt lat="56.67379598133266" lon="-5.388730997219682">
        <ele>64.549999999999997</ele>
        <time>2023-08-30T15:53:23Z</time>
      </trkpt>
      <trkpt lat="56.673883991315961" lon="-5.388599988073111">
        <ele>64.069999999999993</ele>
        <time>2023-08-30T15:53:24Z</time>
      </trkpt>
      <trkpt lat="56.673950962722301" lon="-5.388425979763269">
        <ele>64.069999999999993</ele>
        <time>2023-08-30T15:53:25Z</time>
      </trkpt>
      <trkpt lat="56.674019023776054" lon="-5.388247026130557">
        <ele>63.579999999999998</ele>
        <time>2023-08-30T15:53:26Z</time>
      </trkpt>
      <trkpt lat="56.674274001270533" lon="-5.387551998719573">
        <ele>63.100000000000001</ele>
        <time>2023-08-30T15:53:30Z</time>
      </trkpt>
      <trkpt lat="56.67430903762579" lon="-5.3873710334301">
        <ele>63.100000000000001</ele>
        <time>2023-08-30T15:53:31Z</time>
      </trkpt>
      <trkpt lat="56.674341978505254" lon="-5.387195013463497">
        <ele>62.619999999999997</ele>
        <time>2023-08-30T15:53:32Z</time>
      </trkpt>
      <trkpt lat="56.674369974061847" lon="-5.387017987668514">
        <ele>62.619999999999997</ele>
        <time>2023-08-30T15:53:33Z</time>
      </trkpt>
      <trkpt lat="56.674373997375369" lon="-5.386821012943983">
        <ele>62.140000000000001</ele>
        <time>2023-08-30T15:53:34Z</time>
      </trkpt>
      <trkpt lat="56.674298979341984" lon="-5.384595030918717">
        <ele>64.069999999999993</ele>
        <time>2023-08-30T15:53:45Z</time>
      </trkpt>
      <trkpt lat="56.674318006262183" lon="-5.384413981810212">
        <ele>65.030000000000001</ele>
        <time>2023-08-30T15:53:46Z</time>
      </trkpt>
      <trkpt lat="56.67437500320375" lon="-5.38389396853745">
        <ele>67.430000000000007</ele>
        <time>2023-08-30T15:53:49Z</time>
      </trkpt>
      <trkpt lat="56.674391012638807" lon="-5.383750973269343">
        <ele>67.909999999999997</ele>
        <time>2023-08-30T15:53:50Z</time>
      </trkpt>
      <trkpt lat="56.674444992095232" lon="-5.383621975779533">
        <ele>68.870000000000005</ele>
        <time>2023-08-30T15:53:51Z</time>
      </trkpt>
      <trkpt lat="56.674494026228786" lon="-5.383505970239639">
        <ele>69.349999999999994</ele>
        <time>2023-08-30T15:53:52Z</time>
      </trkpt>
      <trkpt lat="56.674544988200068" lon="-5.383384013548493">
        <ele>69.349999999999994</ele>
        <time>2023-08-30T15:53:53Z</time>
      </trkpt>
      <trkpt lat="56.67523599229753" lon="-5.381912989541888">
        <ele>63.579999999999998</ele>
        <time>2023-08-30T15:54:03Z</time>
      </trkpt>
      <trkpt lat="56.675719041377306" lon="-5.381079996004701">
        <ele>54.93</ele>
        <time>2023-08-30T15:54:09Z</time>
      </trkpt>
      <trkpt lat="56.675789030268788" lon="-5.380987962707877">
        <ele>53.490000000000002</ele>
        <time>2023-08-30T15:54:10Z</time>
      </trkpt>
      <trkpt lat="56.675934037193656" lon="-5.38079702295363">
        <ele>50.609999999999999</ele>
        <time>2023-08-30T15:54:12Z</time>
      </trkpt>
      <trkpt lat="56.676007965579629" lon="-5.380700966343284">
        <ele>49.649999999999999</ele>
        <time>2023-08-30T15:54:13Z</time>
      </trkpt>
      <trkpt lat="56.676062028855085" lon="-5.3805619943887">
        <ele>48.68</ele>
        <time>2023-08-30T15:54:14Z</time>
      </trkpt>
      <trkpt lat="56.676112990826368" lon="-5.380408018827438">
        <ele>47.719999999999999</ele>
        <time>2023-08-30T15:54:15Z</time>
      </trkpt>
      <trkpt lat="56.676167976111174" lon="-5.380242979153991">
        <ele>46.759999999999998</ele>
        <time>2023-08-30T15:54:16Z</time>
      </trkpt>
      <trkpt lat="56.676263026893139" lon="-5.379879958927631">
        <ele>43.880000000000003</ele>
        <time>2023-08-30T15:54:18Z</time>
      </trkpt>
      <trkpt lat="56.676771976053715" lon="-5.377742992714047">
        <ele>28.5</ele>
        <time>2023-08-30T15:54:29Z</time>
      </trkpt>
      <trkpt lat="56.676847999915481" lon="-5.37764199078083">
        <ele>27.050000000000001</ele>
        <time>2023-08-30T15:54:30Z</time>
      </trkpt>
      <trkpt lat="56.676916982978582" lon="-5.377550041303039">
        <ele>25.129999999999999</ele>
        <time>2023-08-30T15:54:31Z</time>
      </trkpt>
      <trkpt lat="56.676989989355206" lon="-5.377452978864312">
        <ele>23.690000000000001</ele>
        <time>2023-08-30T15:54:32Z</time>
      </trkpt>
      <trkpt lat="56.677059978246689" lon="-5.377391958609223">
        <ele>22.25</ele>
        <time>2023-08-30T15:54:33Z</time>
      </trkpt>
      <trkpt lat="56.677161986008286" lon="-5.377365974709392">
        <ele>21.289999999999999</ele>
        <time>2023-08-30T15:54:34Z</time>
      </trkpt>
      <trkpt lat="56.677271034568548" lon="-5.377336973324418">
        <ele>19.84</ele>
        <time>2023-08-30T15:54:35Z</time>
      </trkpt>
      <trkpt lat="56.677387040108442" lon="-5.377306966111064">
        <ele>18.399999999999999</ele>
        <time>2023-08-30T15:54:36Z</time>
      </trkpt>
      <trkpt lat="56.678402004763484" lon="-5.376896001398563">
        <ele>10.710000000000001</ele>
        <time>2023-08-30T15:54:45Z</time>
      </trkpt>
      <trkpt lat="56.679086973890662" lon="-5.376199968159199">
        <ele>8.789999999999999</ele>
        <time>2023-08-30T15:54:53Z</time>
      </trkpt>
      <trkpt lat="56.67916601523757" lon="-5.376111958175898">
        <ele>8.310000000000001</ele>
        <time>2023-08-30T15:54:54Z</time>
      </trkpt>
      <trkpt lat="56.679821982979774" lon="-5.375175029039383">
        <ele>10.23</ele>
        <time>2023-08-30T15:55:03Z</time>
      </trkpt>
      <trkpt lat="56.680094981566072" lon="-5.374617967754602">
        <ele>14.56</ele>
        <time>2023-08-30T15:55:08Z</time>
      </trkpt>
      <trkpt lat="56.680119959637523" lon="-5.3745680116117">
        <ele>15.039999999999999</ele>
        <time>2023-08-30T15:55:09Z</time>
      </trkpt>
      <trkpt lat="56.680282987654209" lon="-5.374323008581996">
        <ele>17.920000000000002</ele>
        <time>2023-08-30T15:55:13Z</time>
      </trkpt>
      <trkpt lat="56.680275024846196" lon="-5.374221000820398">
        <ele>18.399999999999999</ele>
        <time>2023-08-30T15:55:14Z</time>
      </trkpt>
      <trkpt lat="56.68026396073401" lon="-5.374079011380673">
        <ele>18.879999999999999</ele>
        <time>2023-08-30T15:55:15Z</time>
      </trkpt>
      <trkpt lat="56.680179974064231" lon="-5.372722987085581">
        <ele>19.359999999999999</ele>
        <time>2023-08-30T15:55:21Z</time>
      </trkpt>
      <trkpt lat="56.680146027356386" lon="-5.370084028691053">
        <ele>17.440000000000001</ele>
        <time>2023-08-30T15:55:30Z</time>
      </trkpt>
      <trkpt lat="56.680280975997448" lon="-5.368642006069422">
        <ele>16</ele>
        <time>2023-08-30T15:55:35Z</time>
      </trkpt>
      <trkpt lat="56.680416008457541" lon="-5.367823010310531">
        <ele>16</ele>
        <time>2023-08-30T15:55:38Z</time>
      </trkpt>
      <trkpt lat="56.680463030934334" lon="-5.367544982582331">
        <ele>16.48</ele>
        <time>2023-08-30T15:55:39Z</time>
      </trkpt>
      <trkpt lat="56.680737035349011" lon="-5.36588896997273">
        <ele>17.920000000000002</ele>
        <time>2023-08-30T15:55:45Z</time>
      </trkpt>
      <trkpt lat="56.680784979835153" lon="-5.365598034113646">
        <ele>18.399999999999999</ele>
        <time>2023-08-30T15:55:46Z</time>
      </trkpt>
      <trkpt lat="56.680942978709936" lon="-5.365163013339043">
        <ele>18.879999999999999</ele>
        <time>2023-08-30T15:55:48Z</time>
      </trkpt>
      <trkpt lat="56.681028977036476" lon="-5.364924967288971">
        <ele>18.879999999999999</ele>
        <time>2023-08-30T15:55:49Z</time>
      </trkpt>
      <trkpt lat="56.681884014979005" lon="-5.362840974703431">
        <ele>18.879999999999999</ele>
        <time>2023-08-30T15:55:58Z</time>
      </trkpt>
      <trkpt lat="56.683147000148892" lon="-5.359976040199399">
        <ele>14.56</ele>
        <time>2023-08-30T15:56:10Z</time>
      </trkpt>
      <trkpt lat="56.684450972825289" lon="-5.356841962784529">
        <ele>16</ele>
        <time>2023-08-30T15:56:23Z</time>
      </trkpt>
      <trkpt lat="56.684996969997883" lon="-5.354161011055112">
        <ele>15.52</ele>
        <time>2023-08-30T15:56:32Z</time>
      </trkpt>
      <trkpt lat="56.685769027099013" lon="-5.350257977843285">
        <ele>16.48</ele>
        <time>2023-08-30T15:56:45Z</time>
      </trkpt>
      <trkpt lat="56.686587017029524" lon="-5.348313041031361">
        <ele>16.960000000000001</ele>
        <time>2023-08-30T15:56:53Z</time>
      </trkpt>
      <trkpt lat="56.687294030562043" lon="-5.346976965665817">
        <ele>17.440000000000001</ele>
        <time>2023-08-30T15:57:00Z</time>
      </trkpt>
      <trkpt lat="56.688087964430451" lon="-5.345492027699947">
        <ele>19.359999999999999</ele>
        <time>2023-08-30T15:57:09Z</time>
      </trkpt>
      <trkpt lat="56.689139977097511" lon="-5.343522028997541">
        <ele>18.879999999999999</ele>
        <time>2023-08-30T15:57:18Z</time>
      </trkpt>
      <trkpt lat="56.690041031688452" lon="-5.341839026659727">
        <ele>22.73</ele>
        <time>2023-08-30T15:57:27Z</time>
      </trkpt>
      <trkpt lat="56.690879976376891" lon="-5.34027898684144">
        <ele>21.77</ele>
        <time>2023-08-30T15:57:35Z</time>
      </trkpt>
      <trkpt lat="56.691968031227589" lon="-5.338254002854228">
        <ele>16.960000000000001</ele>
        <time>2023-08-30T15:57:44Z</time>
      </trkpt>
      <trkpt lat="56.693200003355742" lon="-5.336564965546131">
        <ele>16.48</ele>
        <time>2023-08-30T15:57:53Z</time>
      </trkpt>
      <trkpt lat="56.693993015214801" lon="-5.335403988137841">
        <ele>20.32</ele>
        <time>2023-08-30T15:58:00Z</time>
      </trkpt>
      <trkpt lat="56.694929022341967" lon="-5.333236008882523">
        <ele>23.210000000000001</ele>
        <time>2023-08-30T15:58:10Z</time>
      </trkpt>
      <trkpt lat="56.69573100283742" lon="-5.331347985193133">
        <ele>24.170000000000002</ele>
        <time>2023-08-30T15:58:18Z</time>
      </trkpt>
      <trkpt lat="56.695827981457114" lon="-5.331110022962093">
        <ele>23.210000000000001</ele>
        <time>2023-08-30T15:58:19Z</time>
      </trkpt>
      <trkpt lat="56.696627028286457" lon="-5.328793013468385">
        <ele>17.920000000000002</ele>
        <time>2023-08-30T15:58:28Z</time>
      </trkpt>
      <trkpt lat="56.697032963857055" lon="-5.32564502209425">
        <ele>16</ele>
        <time>2023-08-30T15:58:38Z</time>
      </trkpt>
      <trkpt lat="56.69734301045537" lon="-5.323564969003201">
        <ele>17.920000000000002</ele>
        <time>2023-08-30T15:58:45Z</time>
      </trkpt>
      <trkpt lat="56.697395984083414" lon="-5.323292976245284">
        <ele>17.920000000000002</ele>
        <time>2023-08-30T15:58:46Z</time>
      </trkpt>
      <trkpt lat="56.697479970753193" lon="-5.323049984872341">
        <ele>17.920000000000002</ele>
        <time>2023-08-30T15:58:47Z</time>
      </trkpt>
      <trkpt lat="56.6975780390203" lon="-5.322826020419598">
        <ele>17.920000000000002</ele>
        <time>2023-08-30T15:58:48Z</time>
      </trkpt>
      <trkpt lat="56.69768700376153" lon="-5.322616975754499">
        <ele>18.399999999999999</ele>
        <time>2023-08-30T15:58:49Z</time>
      </trkpt>
      <trkpt lat="56.697819018736482" lon="-5.322455037385225">
        <ele>18.399999999999999</ele>
        <time>2023-08-30T15:58:50Z</time>
      </trkpt>
      <trkpt lat="56.697953967377543" lon="-5.322288991883397">
        <ele>18.879999999999999</ele>
        <time>2023-08-30T15:58:51Z</time>
      </trkpt>
      <trkpt lat="56.698091011494398" lon="-5.32212101854384">
        <ele>18.879999999999999</ele>
        <time>2023-08-30T15:58:52Z</time>
      </trkpt>
      <trkpt lat="56.698239035904408" lon="-5.322012975811958">
        <ele>18.879999999999999</ele>
        <time>2023-08-30T15:58:53Z</time>
      </trkpt>
      <trkpt lat="56.69839602895081" lon="-5.321919014677405">
        <ele>18.879999999999999</ele>
        <time>2023-08-30T15:58:54Z</time>
      </trkpt>
      <trkpt lat="56.700194031000137" lon="-5.320845963433385">
        <ele>20.32</ele>
        <time>2023-08-30T15:59:05Z</time>
      </trkpt>
      <trkpt lat="56.70129700563848" lon="-5.320079019293189">
        <ele>21.77</ele>
        <time>2023-08-30T15:59:12Z</time>
      </trkpt>
      <trkpt lat="56.701834034174681" lon="-5.319305034354329">
        <ele>20.809999999999999</ele>
        <time>2023-08-30T15:59:16Z</time>
      </trkpt>
      <trkpt lat="56.701945010572672" lon="-5.319052990525961">
        <ele>20.32</ele>
        <time>2023-08-30T15:59:17Z</time>
      </trkpt>
      <trkpt lat="56.703144041821361" lon="-5.316330967471004">
        <ele>18.399999999999999</ele>
        <time>2023-08-30T15:59:29Z</time>
      </trkpt>
      <trkpt lat="56.703273961320519" lon="-5.316088981926441">
        <ele>18.879999999999999</ele>
        <time>2023-08-30T15:59:30Z</time>
      </trkpt>
      <trkpt lat="56.703389966860414" lon="-5.315874991938472">
        <ele>18.879999999999999</ele>
        <time>2023-08-30T15:59:31Z</time>
      </trkpt>
      <trkpt lat="56.704225977882743" lon="-5.314784003421664">
        <ele>18.879999999999999</ele>
        <time>2023-08-30T15:59:37Z</time>
      </trkpt>
      <trkpt lat="56.704370984807611" lon="-5.314620975404978">
        <ele>18.879999999999999</ele>
        <time>2023-08-30T15:59:38Z</time>
      </trkpt>
      <trkpt lat="56.704523032531142" lon="-5.314490972086787">
        <ele>18.879999999999999</ele>
        <time>2023-08-30T15:59:39Z</time>
      </trkpt>
      <trkpt lat="56.705645034089684" lon="-5.313710030168295">
        <ele>19.359999999999999</ele>
        <time>2023-08-30T15:59:46Z</time>
      </trkpt>
      <trkpt lat="56.705771014094353" lon="-5.3135060146451">
        <ele>19.84</ele>
        <time>2023-08-30T15:59:47Z</time>
      </trkpt>
      <trkpt lat="56.705892970785499" lon="-5.313281966373324">
        <ele>20.32</ele>
        <time>2023-08-30T15:59:48Z</time>
      </trkpt>
      <trkpt lat="56.705988021567464" lon="-5.313021959736943">
        <ele>20.809999999999999</ele>
        <time>2023-08-30T15:59:49Z</time>
      </trkpt>
      <trkpt lat="56.706085000187159" lon="-5.312760025262833">
        <ele>20.809999999999999</ele>
        <time>2023-08-30T15:59:50Z</time>
      </trkpt>
      <trkpt lat="56.706181978806853" lon="-5.312493983656168">
        <ele>21.289999999999999</ele>
        <time>2023-08-30T15:59:51Z</time>
      </trkpt>
      <trkpt lat="56.706609036773443" lon="-5.31146502122283">
        <ele>20.32</ele>
        <time>2023-08-30T15:59:55Z</time>
      </trkpt>
      <trkpt lat="56.707887025550008" lon="-5.309286983683705">
        <ele>18.879999999999999</ele>
        <time>2023-08-30T16:00:05Z</time>
      </trkpt>
      <trkpt lat="56.708668973296881" lon="-5.30811402015388">
        <ele>17.440000000000001</ele>
        <time>2023-08-30T16:00:11Z</time>
      </trkpt>
      <trkpt lat="56.709110029041767" lon="-5.307355960831046">
        <ele>16.48</ele>
        <time>2023-08-30T16:00:15Z</time>
      </trkpt>
      <trkpt lat="56.709241038188338" lon="-5.307188993319869">
        <ele>16.48</ele>
        <time>2023-08-30T16:00:16Z</time>
      </trkpt>
      <trkpt lat="56.709385039284825" lon="-5.307053960859776">
        <ele>16</ele>
        <time>2023-08-30T16:00:17Z</time>
      </trkpt>
      <trkpt lat="56.709532979875803" lon="-5.306914988905191">
        <ele>15.039999999999999</ele>
        <time>2023-08-30T16:00:18Z</time>
      </trkpt>
      <trkpt lat="56.709693996235728" lon="-5.306802000850439">
        <ele>14.56</ele>
        <time>2023-08-30T16:00:19Z</time>
      </trkpt>
      <trkpt lat="56.709858030080795" lon="-5.306693958118558">
        <ele>14.08</ele>
        <time>2023-08-30T16:00:20Z</time>
      </trkpt>
      <trkpt lat="56.710017034783959" lon="-5.306590022519231">
        <ele>13.6</ele>
        <time>2023-08-30T16:00:21Z</time>
      </trkpt>
      <trkpt lat="56.710178973153234" lon="-5.30648298561573">
        <ele>12.630000000000001</ele>
        <time>2023-08-30T16:00:22Z</time>
      </trkpt>
      <trkpt lat="56.711224028840661" lon="-5.305338017642498">
        <ele>11.19</ele>
        <time>2023-08-30T16:00:29Z</time>
      </trkpt>
      <trkpt lat="56.712310994043946" lon="-5.303305992856622">
        <ele>15.039999999999999</ele>
        <time>2023-08-30T16:00:38Z</time>
      </trkpt>
      <trkpt lat="56.712414007633924" lon="-5.303040035068989">
        <ele>14.56</ele>
        <time>2023-08-30T16:00:39Z</time>
      </trkpt>
      <trkpt lat="56.712502017617226" lon="-5.302756978198886">
        <ele>14.08</ele>
        <time>2023-08-30T16:00:40Z</time>
      </trkpt>
      <trkpt lat="56.712565971538424" lon="-5.30244299210608">
        <ele>14.08</ele>
        <time>2023-08-30T16:00:41Z</time>
      </trkpt>
      <trkpt lat="56.712607964873314" lon="-5.302122971042991">
        <ele>13.6</ele>
        <time>2023-08-30T16:00:42Z</time>
      </trkpt>
      <trkpt lat="56.712634032592177" lon="-5.301794987171888">
        <ele>13.119999999999999</ele>
        <time>2023-08-30T16:00:43Z</time>
      </trkpt>
      <trkpt lat="56.712645012885332" lon="-5.301460968330503">
        <ele>13.119999999999999</ele>
        <time>2023-08-30T16:00:44Z</time>
      </trkpt>
      <trkpt lat="56.712655993178487" lon="-5.301124015823007">
        <ele>12.630000000000001</ele>
        <time>2023-08-30T16:00:45Z</time>
      </trkpt>
      <trkpt lat="56.712725982069969" lon="-5.299810990691185">
        <ele>12.630000000000001</ele>
        <time>2023-08-30T16:00:49Z</time>
      </trkpt>
      <trkpt lat="56.712775016203523" lon="-5.299497004598379">
        <ele>12.630000000000001</ele>
        <time>2023-08-30T16:00:50Z</time>
      </trkpt>
      <trkpt lat="56.712835030630231" lon="-5.299196010455489">
        <ele>13.119999999999999</ele>
        <time>2023-08-30T16:00:51Z</time>
      </trkpt>
      <trkpt lat="56.712908959016204" lon="-5.298898033797741">
        <ele>13.119999999999999</ele>
        <time>2023-08-30T16:00:52Z</time>
      </trkpt>
      <trkpt lat="56.71298598870635" lon="-5.298592010512948">
        <ele>14.08</ele>
        <time>2023-08-30T16:00:53Z</time>
      </trkpt>
      <trkpt lat="56.713397959247231" lon="-5.296787973493338">
        <ele>16.960000000000001</ele>
        <time>2023-08-30T16:00:59Z</time>
      </trkpt>
      <trkpt lat="56.713422015309334" lon="-5.296471975743771">
        <ele>17.440000000000001</ele>
        <time>2023-08-30T16:01:00Z</time>
      </trkpt>
      <trkpt lat="56.713422015309334" lon="-5.296204006299377">
        <ele>18.399999999999999</ele>
        <time>2023-08-30T16:01:01Z</time>
      </trkpt>
      <trkpt lat="56.713374992832541" lon="-5.295851966366172">
        <ele>18.879999999999999</ele>
        <time>2023-08-30T16:01:02Z</time>
      </trkpt>
      <trkpt lat="56.713336016982794" lon="-5.295560024678707">
        <ele>19.84</ele>
        <time>2023-08-30T16:01:03Z</time>
      </trkpt>
      <trkpt lat="56.713266028091311" lon="-5.29524402692914">
        <ele>20.32</ele>
        <time>2023-08-30T16:01:04Z</time>
      </trkpt>
      <trkpt lat="56.71246999874711" lon="-5.292111039161682">
        <ele>19.84</ele>
        <time>2023-08-30T16:01:14Z</time>
      </trkpt>
      <trkpt lat="56.71139501966536" lon="-5.287968032062054">
        <ele>20.809999999999999</ele>
        <time>2023-08-30T16:01:28Z</time>
      </trkpt>
      <trkpt lat="56.710483990609646" lon="-5.284622982144356">
        <ele>22.73</ele>
        <time>2023-08-30T16:01:40Z</time>
      </trkpt>
      <trkpt lat="56.710414001718163" lon="-5.283784037455916">
        <ele>22.25</ele>
        <time>2023-08-30T16:01:43Z</time>
      </trkpt>
      <trkpt lat="56.710406960919499" lon="-5.283493017777801">
        <ele>21.77</ele>
        <time>2023-08-30T16:01:44Z</time>
      </trkpt>
      <trkpt lat="56.710398998111486" lon="-5.283195963129401">
        <ele>21.77</ele>
        <time>2023-08-30T16:01:45Z</time>
      </trkpt>
      <trkpt lat="56.710414001718163" lon="-5.282908966764808">
        <ele>21.289999999999999</ele>
        <time>2023-08-30T16:01:46Z</time>
      </trkpt>
      <trkpt lat="56.710439985617995" lon="-5.282623982056975">
        <ele>20.809999999999999</ele>
        <time>2023-08-30T16:01:47Z</time>
      </trkpt>
      <trkpt lat="56.710465969517827" lon="-5.282340003177524">
        <ele>20.809999999999999</ele>
        <time>2023-08-30T16:01:48Z</time>
      </trkpt>
      <trkpt lat="56.710866037756205" lon="-5.279527958482504">
        <ele>20.32</ele>
        <time>2023-08-30T16:01:57Z</time>
      </trkpt>
      <trkpt lat="56.711370041593909" lon="-5.276796966791153">
        <ele>23.690000000000001</ele>
        <time>2023-08-30T16:02:07Z</time>
      </trkpt>
      <trkpt lat="56.711452016606927" lon="-5.276569984853268">
        <ele>24.170000000000002</ele>
        <time>2023-08-30T16:02:08Z</time>
      </trkpt>
      <trkpt lat="56.711544971913099" lon="-5.27633797377348">
        <ele>24.649999999999999</ele>
        <time>2023-08-30T16:02:09Z</time>
      </trkpt>
      <trkpt lat="56.7116520088166" lon="-5.276113003492355">
        <ele>25.129999999999999</ele>
        <time>2023-08-30T16:02:10Z</time>
      </trkpt>
      <trkpt lat="56.711774971336126" lon="-5.275902030989528">
        <ele>25.609999999999999</ele>
        <time>2023-08-30T16:02:11Z</time>
      </trkpt>
      <trkpt lat="56.711904974654317" lon="-5.275678988546133">
        <ele>25.129999999999999</ele>
        <time>2023-08-30T16:02:12Z</time>
      </trkpt>
      <trkpt lat="56.713101994246244" lon="-5.274123977869749">
        <ele>21.77</ele>
        <time>2023-08-30T16:02:20Z</time>
      </trkpt>
      <trkpt lat="56.713525028899312" lon="-5.273598013445735">
        <ele>20.809999999999999</ele>
        <time>2023-08-30T16:02:23Z</time>
      </trkpt>
      <trkpt lat="56.713660983368754" lon="-5.273398021236062">
        <ele>20.809999999999999</ele>
        <time>2023-08-30T16:02:24Z</time>
      </trkpt>
      <trkpt lat="56.713760979473591" lon="-5.273147989064455">
        <ele>20.809999999999999</ele>
        <time>2023-08-30T16:02:25Z</time>
      </trkpt>
      <trkpt lat="56.713858963921666" lon="-5.272902986034751">
        <ele>20.809999999999999</ele>
        <time>2023-08-30T16:02:26Z</time>
      </trkpt>
      <trkpt lat="56.713955020532012" lon="-5.27266401797533">
        <ele>20.809999999999999</ele>
        <time>2023-08-30T16:02:27Z</time>
      </trkpt>
      <trkpt lat="56.714022997766733" lon="-5.272386996075511">
        <ele>20.32</ele>
        <time>2023-08-30T16:02:28Z</time>
      </trkpt>
      <trkpt lat="56.71408100053668" lon="-5.27210402302444">
        <ele>20.32</ele>
        <time>2023-08-30T16:02:29Z</time>
      </trkpt>
      <trkpt lat="56.714140009135008" lon="-5.271814009174705">
        <ele>20.32</ele>
        <time>2023-08-30T16:02:30Z</time>
      </trkpt>
      <trkpt lat="56.714892033487558" lon="-5.268200989812613">
        <ele>16</ele>
        <time>2023-08-30T16:02:42Z</time>
      </trkpt>
      <trkpt lat="56.716024009510875" lon="-5.265431022271514">
        <ele>14.56</ele>
        <time>2023-08-30T16:02:52Z</time>
      </trkpt>
      <trkpt lat="56.716587021946907" lon="-5.264072986319661">
        <ele>14.56</ele>
        <time>2023-08-30T16:02:57Z</time>
      </trkpt>
      <trkpt lat="56.716684000566602" lon="-5.263781966641545">
        <ele>14.56</ele>
        <time>2023-08-30T16:02:58Z</time>
      </trkpt>
      <trkpt lat="56.716738985851407" lon="-5.263464963063598">
        <ele>14.56</ele>
        <time>2023-08-30T16:02:59Z</time>
      </trkpt>
      <trkpt lat="56.716794976964593" lon="-5.26314795948565">
        <ele>14.08</ele>
        <time>2023-08-30T16:03:00Z</time>
      </trkpt>
      <trkpt lat="56.716829007491469" lon="-5.262815030291677">
        <ele>14.08</ele>
        <time>2023-08-30T16:03:01Z</time>
      </trkpt>
      <trkpt lat="56.71685297973454" lon="-5.262481011450291">
        <ele>14.08</ele>
        <time>2023-08-30T16:03:02Z</time>
      </trkpt>
      <trkpt lat="56.716850968077779" lon="-5.262139029800892">
        <ele>14.08</ele>
        <time>2023-08-30T16:03:03Z</time>
      </trkpt>
      <trkpt lat="56.716847028583288" lon="-5.26179101318121">
        <ele>14.08</ele>
        <time>2023-08-30T16:03:04Z</time>
      </trkpt>
      <trkpt lat="56.716824984177947" lon="-5.259030014276505">
        <ele>13.119999999999999</ele>
        <time>2023-08-30T16:03:13Z</time>
      </trkpt>
      <trkpt lat="56.717141987755895" lon="-5.257010981440544">
        <ele>13.6</ele>
        <time>2023-08-30T16:03:21Z</time>
      </trkpt>
      <trkpt lat="56.717665018513799" lon="-5.255190012976527">
        <ele>13.119999999999999</ele>
        <time>2023-08-30T16:03:31Z</time>
      </trkpt>
      <trkpt lat="56.718748966231942" lon="-5.25229599326849">
        <ele>13.6</ele>
        <time>2023-08-30T16:03:48Z</time>
      </trkpt>
      <trkpt lat="56.718998998403549" lon="-5.251605994999409">
        <ele>16</ele>
        <time>2023-08-30T16:03:52Z</time>
      </trkpt>
      <trkpt lat="56.71941096894443" lon="-5.250396989285946">
        <ele>18.399999999999999</ele>
        <time>2023-08-30T16:03:59Z</time>
      </trkpt>
      <trkpt lat="56.719438964501023" lon="-5.250175958499312">
        <ele>18.879999999999999</ele>
        <time>2023-08-30T16:04:00Z</time>
      </trkpt>
      <trkpt lat="56.719726966693997" lon="-5.248061958700419">
        <ele>17.440000000000001</ele>
        <time>2023-08-30T16:04:10Z</time>
      </trkpt>
      <trkpt lat="56.719963001087308" lon="-5.245791971683502">
        <ele>14.56</ele>
        <time>2023-08-30T16:04:22Z</time>
      </trkpt>
      <trkpt lat="56.720008011907339" lon="-5.244653038680553">
        <ele>14.56</ele>
        <time>2023-08-30T16:04:28Z</time>
      </trkpt>
      <trkpt lat="56.720036007463932" lon="-5.244453968480229">
        <ele>14.56</ele>
        <time>2023-08-30T16:04:29Z</time>
      </trkpt>
      <trkpt lat="56.720065008848906" lon="-5.244254982098937">
        <ele>14.56</ele>
        <time>2023-08-30T16:04:30Z</time>
      </trkpt>
      <trkpt lat="56.72011798247695" lon="-5.244072005152702">
        <ele>14.56</ele>
        <time>2023-08-30T16:04:31Z</time>
      </trkpt>
      <trkpt lat="56.720180008560419" lon="-5.243906965479255">
        <ele>14.08</ele>
        <time>2023-08-30T16:04:32Z</time>
      </trkpt>
      <trkpt lat="56.720242034643888" lon="-5.243743015453219">
        <ele>14.08</ele>
        <time>2023-08-30T16:04:33Z</time>
      </trkpt>
      <trkpt lat="56.720314035192132" lon="-5.243593985214829">
        <ele>14.08</ele>
        <time>2023-08-30T16:04:34Z</time>
      </trkpt>
      <trkpt lat="56.720395004376769" lon="-5.243451995775104">
        <ele>14.08</ele>
        <time>2023-08-30T16:04:35Z</time>
      </trkpt>
      <trkpt lat="56.720475973561406" lon="-5.243310006335378">
        <ele>14.08</ele>
        <time>2023-08-30T16:04:36Z</time>
      </trkpt>
      <trkpt lat="56.720567001029849" lon="-5.243194000795484">
        <ele>13.6</ele>
        <time>2023-08-30T16:04:37Z</time>
      </trkpt>
      <trkpt lat="56.720672026276588" lon="-5.243118982762098">
        <ele>13.6</ele>
        <time>2023-08-30T16:04:38Z</time>
      </trkpt>
      <trkpt lat="56.720777973532677" lon="-5.243042958900333">
        <ele>13.6</ele>
        <time>2023-08-30T16:04:39Z</time>
      </trkpt>
      <trkpt lat="56.720884004607797" lon="-5.242966013029218">
        <ele>13.6</ele>
        <time>2023-08-30T16:04:40Z</time>
      </trkpt>
      <trkpt lat="56.720991041511297" lon="-5.242888983339071">
        <ele>13.6</ele>
        <time>2023-08-30T16:04:41Z</time>
      </trkpt>
      <trkpt lat="56.72121299430728" lon="-5.242845984175801">
        <ele>14.08</ele>
        <time>2023-08-30T16:04:43Z</time>
      </trkpt>
      <trkpt lat="56.721309972926974" lon="-5.242851013317704">
        <ele>14.08</ele>
        <time>2023-08-30T16:04:44Z</time>
      </trkpt>
      <trkpt lat="56.721388008445501" lon="-5.242854030802846">
        <ele>14.08</ele>
        <time>2023-08-30T16:04:45Z</time>
      </trkpt>
      <trkpt lat="56.72155799344182" lon="-5.242861993610859">
        <ele>14.56</ele>
        <time>2023-08-30T16:04:50Z</time>
      </trkpt>
      <trkpt lat="56.721564028412104" lon="-5.24286299943924">
        <ele>14.56</ele>
        <time>2023-08-30T16:04:51Z</time>
      </trkpt>
      <trkpt lat="56.72151499427855" lon="-5.242860987782478">
        <ele>14.08</ele>
        <time>2023-08-30T16:04:53Z</time>
      </trkpt>
      <trkpt lat="56.72149102203548" lon="-5.242859981954098">
        <ele>14.08</ele>
        <time>2023-08-30T16:04:54Z</time>
      </trkpt>
      <trkpt lat="56.72149102203548" lon="-5.242859981954098">
        <ele>14.56</ele>
        <time>2023-08-30T16:04:55Z</time>
      </trkpt>
      <trkpt lat="56.72149102203548" lon="-5.242521017789841">
        <ele>15.52</ele>
        <time>2023-08-30T16:05:05Z</time>
      </trkpt>
      <trkpt lat="56.72149102203548" lon="-5.242521017789841">
        <ele>15.52</ele>
        <time>2023-08-30T16:05:22Z</time>
      </trkpt>
      <trkpt lat="56.721537038683891" lon="-5.242557981982827">
        <ele>16.48</ele>
        <time>2023-08-30T16:21:18Z</time>
      </trkpt>
      <trkpt lat="56.721533015370369" lon="-5.242511965334415">
        <ele>14.08</ele>
        <time>2023-08-30T16:21:42Z</time>
      </trkpt>
      <trkpt lat="56.721591018140316" lon="-5.24286400526762">
        <ele>13.6</ele>
        <time>2023-08-30T16:21:45Z</time>
      </trkpt>
      <trkpt lat="56.721637034788728" lon="-5.242866016924381">
        <ele>13.119999999999999</ele>
        <time>2023-08-30T16:21:46Z</time>
      </trkpt>
      <trkpt lat="56.721682967618108" lon="-5.242868028581142">
        <ele>13.119999999999999</ele>
        <time>2023-08-30T16:21:47Z</time>
      </trkpt>
      <trkpt lat="56.721727978438139" lon="-5.242870962247253">
        <ele>13.119999999999999</ele>
        <time>2023-08-30T16:21:48Z</time>
      </trkpt>
      <trkpt lat="56.721768965944648" lon="-5.242871968075633">
        <ele>12.630000000000001</ele>
        <time>2023-08-30T16:21:49Z</time>
      </trkpt>
      <trkpt lat="56.721806013956666" lon="-5.242873979732394">
        <ele>12.630000000000001</ele>
        <time>2023-08-30T16:21:50Z</time>
      </trkpt>
      <trkpt lat="56.721845995634794" lon="-5.242875991389155">
        <ele>12.630000000000001</ele>
        <time>2023-08-30T16:21:51Z</time>
      </trkpt>
      <trkpt lat="56.721894023939967" lon="-5.242878003045917">
        <ele>12.15</ele>
        <time>2023-08-30T16:21:52Z</time>
      </trkpt>
      <trkpt lat="56.722011035308242" lon="-5.242918990552425">
        <ele>11.67</ele>
        <time>2023-08-30T16:21:54Z</time>
      </trkpt>
      <trkpt lat="56.722065014764667" lon="-5.242959978058934">
        <ele>11.67</ele>
        <time>2023-08-30T16:21:55Z</time>
      </trkpt>
      <trkpt lat="56.722190994769335" lon="-5.243057040497661">
        <ele>11.19</ele>
        <time>2023-08-30T16:21:57Z</time>
      </trkpt>
      <trkpt lat="56.722373971715569" lon="-5.243233982473612">
        <ele>11.19</ele>
        <time>2023-08-30T16:22:00Z</time>
      </trkpt>
      <trkpt lat="56.722980989143252" lon="-5.24440904147923">
        <ele>10.710000000000001</ele>
        <time>2023-08-30T16:22:11Z</time>
      </trkpt>
      <trkpt lat="56.723807025700808" lon="-5.245968997478485">
        <ele>10.23</ele>
        <time>2023-08-30T16:22:23Z</time>
      </trkpt>
      <trkpt lat="56.724246991798282" lon="-5.246715992689133">
        <ele>11.67</ele>
        <time>2023-08-30T16:22:29Z</time>
      </trkpt>
      <trkpt lat="56.724289990961552" lon="-5.246788999065757">
        <ele>12.15</ele>
        <time>2023-08-30T16:22:30Z</time>
      </trkpt>
      <trkpt lat="56.724355034530163" lon="-5.246925037354231">
        <ele>12.15</ele>
        <time>2023-08-30T16:22:32Z</time>
      </trkpt>
      <trkpt lat="56.724762981757522" lon="-5.247803963720799">
        <ele>12.630000000000001</ele>
        <time>2023-08-30T16:22:40Z</time>
      </trkpt>
      <trkpt lat="56.725453985854983" lon="-5.249484032392502">
        <ele>14.08</ele>
        <time>2023-08-30T16:22:50Z</time>
      </trkpt>
      <trkpt lat="56.726507004350424" lon="-5.251960968598723">
        <ele>15.039999999999999</ele>
        <time>2023-08-30T16:23:05Z</time>
      </trkpt>
      <trkpt lat="56.727525992318988" lon="-5.253617987036705">
        <ele>13.6</ele>
        <time>2023-08-30T16:23:17Z</time>
      </trkpt>
      <trkpt lat="56.727625988423824" lon="-5.253687975928187">
        <ele>13.6</ele>
        <time>2023-08-30T16:23:18Z</time>
      </trkpt>
      <trkpt lat="56.727727996185422" lon="-5.253759976476431">
        <ele>13.6</ele>
        <time>2023-08-30T16:23:19Z</time>
      </trkpt>
      <trkpt lat="56.728765005245805" lon="-5.254797991365194">
        <ele>14.08</ele>
        <time>2023-08-30T16:23:30Z</time>
      </trkpt>
      <trkpt lat="56.729182004928589" lon="-5.255290009081364">
        <ele>14.56</ele>
        <time>2023-08-30T16:23:36Z</time>
      </trkpt>
      <trkpt lat="56.729241013526917" lon="-5.25534600019455">
        <ele>14.56</ele>
        <time>2023-08-30T16:23:43Z</time>
      </trkpt>
      <trkpt lat="56.729297004640102" lon="-5.255398973822594">
        <ele>14.56</ele>
        <time>2023-08-30T16:23:44Z</time>
      </trkpt>
      <trkpt lat="56.729375962167978" lon="-5.255472986027598">
        <ele>14.56</ele>
        <time>2023-08-30T16:23:45Z</time>
      </trkpt>
      <trkpt lat="56.730165034532547" lon="-5.256201960146427">
        <ele>14.56</ele>
        <time>2023-08-30T16:23:52Z</time>
      </trkpt>
      <trkpt lat="56.731117973104119" lon="-5.256570009514689">
        <ele>13.6</ele>
        <time>2023-08-30T16:23:58Z</time>
      </trkpt>
      <trkpt lat="56.732075018808246" lon="-5.256626000627875">
        <ele>14.56</ele>
        <time>2023-08-30T16:24:04Z</time>
      </trkpt>
      <trkpt lat="56.732202004641294" lon="-5.256536984816194">
        <ele>14.56</ele>
        <time>2023-08-30T16:24:05Z</time>
      </trkpt>
      <trkpt lat="56.732326978817582" lon="-5.256431037560105">
        <ele>14.56</ele>
        <time>2023-08-30T16:24:06Z</time>
      </trkpt>
      <trkpt lat="56.73245295882225" lon="-5.256324000656605">
        <ele>14.08</ele>
        <time>2023-08-30T16:24:07Z</time>
      </trkpt>
      <trkpt lat="56.732583967968822" lon="-5.256213024258614">
        <ele>14.56</ele>
        <time>2023-08-30T16:24:08Z</time>
      </trkpt>
      <trkpt lat="56.732720006257296" lon="-5.25609701871872">
        <ele>14.08</ele>
        <time>2023-08-30T16:24:09Z</time>
      </trkpt>
      <trkpt lat="56.732863001525402" lon="-5.255975984036923">
        <ele>13.119999999999999</ele>
        <time>2023-08-30T16:24:10Z</time>
      </trkpt>
      <trkpt lat="56.733011025935411" lon="-5.255850004032254">
        <ele>12.15</ele>
        <time>2023-08-30T16:24:11Z</time>
      </trkpt>
      <trkpt lat="56.733158966526389" lon="-5.255724024027586">
        <ele>11.67</ele>
        <time>2023-08-30T16:24:12Z</time>
      </trkpt>
      <trkpt lat="56.73330900259316" lon="-5.255596032366157">
        <ele>10.710000000000001</ele>
        <time>2023-08-30T16:24:13Z</time>
      </trkpt>
      <trkpt lat="56.734328996390104" lon="-5.254496997222304">
        <ele>10.23</ele>
        <time>2023-08-30T16:24:20Z</time>
      </trkpt>
      <trkpt lat="56.734471991658211" lon="-5.254361964762211">
        <ele>9.75</ele>
        <time>2023-08-30T16:24:21Z</time>
      </trkpt>
      <trkpt lat="56.734636025503278" lon="-5.254306979477406">
        <ele>9.75</ele>
        <time>2023-08-30T16:24:22Z</time>
      </trkpt>
      <trkpt lat="56.734794024378061" lon="-5.254254005849361">
        <ele>9.27</ele>
        <time>2023-08-30T16:24:23Z</time>
      </trkpt>
      <trkpt lat="56.734961997717619" lon="-5.254269009456039">
        <ele>9.27</ele>
        <time>2023-08-30T16:24:24Z</time>
      </trkpt>
      <trkpt lat="56.735138017684221" lon="-5.254285018891096">
        <ele>9.75</ele>
        <time>2023-08-30T16:24:25Z</time>
      </trkpt>
      <trkpt lat="56.736384993419051" lon="-5.254349978640676">
        <ele>10.710000000000001</ele>
        <time>2023-08-30T16:24:32Z</time>
      </trkpt>
      <trkpt lat="56.736543998122215" lon="-5.25431502610445">
        <ele>10.710000000000001</ele>
        <time>2023-08-30T16:24:33Z</time>
      </trkpt>
      <trkpt lat="56.736700991168618" lon="-5.254280995577574">
        <ele>11.19</ele>
        <time>2023-08-30T16:24:34Z</time>
      </trkpt>
      <trkpt lat="56.736850021407008" lon="-5.254197008907795">
        <ele>11.19</ele>
        <time>2023-08-30T16:24:35Z</time>
      </trkpt>
      <trkpt lat="56.736998967826366" lon="-5.25410195812583">
        <ele>11.19</ele>
        <time>2023-08-30T16:24:36Z</time>
      </trkpt>
      <trkpt lat="56.737595004960895" lon="-5.253724018111825">
        <ele>11.19</ele>
        <time>2023-08-30T16:24:40Z</time>
      </trkpt>
      <trkpt lat="56.737731965258718" lon="-5.253584962338209">
        <ele>11.19</ele>
        <time>2023-08-30T16:24:41Z</time>
      </trkpt>
      <trkpt lat="56.738142007961869" lon="-5.253087999299169">
        <ele>11.19</ele>
        <time>2023-08-30T16:24:44Z</time>
      </trkpt>
      <trkpt lat="56.738266982138157" lon="-5.252879038453102">
        <ele>11.19</ele>
        <time>2023-08-30T16:24:45Z</time>
      </trkpt>
      <trkpt lat="56.738373013213277" lon="-5.252643004059792">
        <ele>11.19</ele>
        <time>2023-08-30T16:24:46Z</time>
      </trkpt>
      <trkpt lat="56.738478960469365" lon="-5.252389032393694">
        <ele>11.19</ele>
        <time>2023-08-30T16:24:47Z</time>
      </trkpt>
      <trkpt lat="56.738560013473034" lon="-5.252113016322255">
        <ele>11.19</ele>
        <time>2023-08-30T16:24:48Z</time>
      </trkpt>
      <trkpt lat="56.7386360373348" lon="-5.251815961673856">
        <ele>10.710000000000001</ele>
        <time>2023-08-30T16:24:49Z</time>
      </trkpt>
      <trkpt lat="56.738712983205914" lon="-5.251513039693236">
        <ele>10.710000000000001</ele>
        <time>2023-08-30T16:24:50Z</time>
      </trkpt>
      <trkpt lat="56.738774003461003" lon="-5.25120098143816">
        <ele>10.710000000000001</ele>
        <time>2023-08-30T16:24:51Z</time>
      </trkpt>
      <trkpt lat="56.739039039239287" lon="-5.249759964644909">
        <ele>10.23</ele>
        <time>2023-08-30T16:24:56Z</time>
      </trkpt>
      <trkpt lat="56.739127971231937" lon="-5.249534994363785">
        <ele>10.23</ele>
        <time>2023-08-30T16:24:57Z</time>
      </trkpt>
      <trkpt lat="56.739235008135438" lon="-5.249319998547435">
        <ele>10.23</ele>
        <time>2023-08-30T16:24:58Z</time>
      </trkpt>
      <trkpt lat="56.739343972876668" lon="-5.249101985245943">
        <ele>10.23</ele>
        <time>2023-08-30T16:24:59Z</time>
      </trkpt>
      <trkpt lat="56.739459978416562" lon="-5.248886989429593">
        <ele>10.710000000000001</ele>
        <time>2023-08-30T16:25:00Z</time>
      </trkpt>
      <trkpt lat="56.740260031074286" lon="-5.247964980080724">
        <ele>10.710000000000001</ele>
        <time>2023-08-30T16:25:06Z</time>
      </trkpt>
      <trkpt lat="56.74042004160583" lon="-5.247872024774551">
        <ele>10.710000000000001</ele>
        <time>2023-08-30T16:25:07Z</time>
      </trkpt>
      <trkpt lat="56.742077982053161" lon="-5.246650027111173">
        <ele>12.630000000000001</ele>
        <time>2023-08-30T16:25:17Z</time>
      </trkpt>
      <trkpt lat="56.743312971666455" lon="-5.245490977540612">
        <ele>18.399999999999999</ele>
        <time>2023-08-30T16:25:26Z</time>
      </trkpt>
      <trkpt lat="56.744489958509803" lon="-5.243848962709308">
        <ele>20.809999999999999</ele>
        <time>2023-08-30T16:25:35Z</time>
      </trkpt>
      <trkpt lat="56.745559992268682" lon="-5.24116700515151">
        <ele>22.73</ele>
        <time>2023-08-30T16:25:46Z</time>
      </trkpt>
      <trkpt lat="56.74658602103591" lon="-5.239044036716223">
        <ele>17.440000000000001</ele>
        <time>2023-08-30T16:25:54Z</time>
      </trkpt>
      <trkpt lat="56.747233020141721" lon="-5.237823966890574">
        <ele>16.960000000000001</ele>
        <time>2023-08-30T16:26:00Z</time>
      </trkpt>
      <trkpt lat="56.747333016246557" lon="-5.23768600076437">
        <ele>16.48</ele>
        <time>2023-08-30T16:26:01Z</time>
      </trkpt>
      <trkpt lat="56.74744600430131" lon="-5.237592039629817">
        <ele>16.48</ele>
        <time>2023-08-30T16:26:02Z</time>
      </trkpt>
      <trkpt lat="56.748530035838485" lon="-5.236539021134377">
        <ele>14.56</ele>
        <time>2023-08-30T16:26:11Z</time>
      </trkpt>
      <trkpt lat="56.748660039156675" lon="-5.236371969804168">
        <ele>14.56</ele>
        <time>2023-08-30T16:26:12Z</time>
      </trkpt>
      <trkpt lat="56.748772021383047" lon="-5.23618396371603">
        <ele>14.56</ele>
        <time>2023-08-30T16:26:13Z</time>
      </trkpt>
      <trkpt lat="56.748874029144645" lon="-5.23596502840519">
        <ele>15.039999999999999</ele>
        <time>2023-08-30T16:26:14Z</time>
      </trkpt>
      <trkpt lat="56.74897201359272" lon="-5.235755983740091">
        <ele>15.039999999999999</ele>
        <time>2023-08-30T16:26:15Z</time>
      </trkpt>
      <trkpt lat="56.74905801191926" lon="-5.23555800318718">
        <ele>15.039999999999999</ele>
        <time>2023-08-30T16:26:16Z</time>
      </trkpt>
      <trkpt lat="56.749346014112234" lon="-5.234703971073031">
        <ele>16</ele>
        <time>2023-08-30T16:26:22Z</time>
      </trkpt>
      <trkpt lat="56.749655976891518" lon="-5.233785985037684">
        <ele>16.960000000000001</ele>
        <time>2023-08-30T16:26:30Z</time>
      </trkpt>
      <trkpt lat="56.749747004359961" lon="-5.233648018911481">
        <ele>16.960000000000001</ele>
        <time>2023-08-30T16:26:31Z</time>
      </trkpt>
      <trkpt lat="56.749840965494514" lon="-5.23351801559329">
        <ele>16.960000000000001</ele>
        <time>2023-08-30T16:26:32Z</time>
      </trkpt>
      <trkpt lat="56.74994096159935" lon="-5.233380971476436">
        <ele>16.48</ele>
        <time>2023-08-30T16:26:33Z</time>
      </trkpt>
      <trkpt lat="56.750596007332206" lon="-5.232406994327903">
        <ele>14.08</ele>
        <time>2023-08-30T16:26:39Z</time>
      </trkpt>
      <trkpt lat="56.750686028972268" lon="-5.232216976583004">
        <ele>14.08</ele>
        <time>2023-08-30T16:26:40Z</time>
      </trkpt>
      <trkpt lat="56.750985011458397" lon="-5.231513986364007">
        <ele>14.08</ele>
        <time>2023-08-30T16:26:44Z</time>
      </trkpt>
      <trkpt lat="56.751067992299795" lon="-5.231417007744312">
        <ele>14.56</ele>
        <time>2023-08-30T16:26:45Z</time>
      </trkpt>
      <trkpt lat="56.751148039475083" lon="-5.231322962790728">
        <ele>14.56</ele>
        <time>2023-08-30T16:26:46Z</time>
      </trkpt>
      <trkpt lat="56.751232026144862" lon="-5.231252973899245">
        <ele>14.56</ele>
        <time>2023-08-30T16:26:47Z</time>
      </trkpt>
      <trkpt lat="56.75133403390646" lon="-5.231255991384387">
        <ele>14.56</ele>
        <time>2023-08-30T16:26:48Z</time>
      </trkpt>
      <trkpt lat="56.751450039446354" lon="-5.231260014697909">
        <ele>14.56</ele>
        <time>2023-08-30T16:26:49Z</time>
      </trkpt>
      <trkpt lat="56.751574007794261" lon="-5.231264960020781">
        <ele>14.56</ele>
        <time>2023-08-30T16:26:50Z</time>
      </trkpt>
      <trkpt lat="56.7518309969455" lon="-5.231264960020781">
        <ele>14.56</ele>
        <time>2023-08-30T16:26:52Z</time>
      </trkpt>
      <trkpt lat="56.751956976950169" lon="-5.231217015534639">
        <ele>15.039999999999999</ele>
        <time>2023-08-30T16:26:53Z</time>
      </trkpt>
      <trkpt lat="56.752089997753501" lon="-5.231164963915944">
        <ele>15.039999999999999</ele>
        <time>2023-08-30T16:26:54Z</time>
      </trkpt>
      <trkpt lat="56.752940006554127" lon="-5.230678981170058">
        <ele>15.039999999999999</ele>
        <time>2023-08-30T16:27:01Z</time>
      </trkpt>
      <trkpt lat="56.753242006525397" lon="-5.230677975341678">
        <ele>14.08</ele>
        <time>2023-08-30T16:27:04Z</time>
      </trkpt>
      <trkpt lat="56.753331022337079" lon="-5.230731032788754">
        <ele>13.6</ele>
        <time>2023-08-30T16:27:05Z</time>
      </trkpt>
      <trkpt lat="56.753424983471632" lon="-5.23078802973032">
        <ele>13.6</ele>
        <time>2023-08-30T16:27:06Z</time>
      </trkpt>
      <trkpt lat="56.753530008718371" lon="-5.230888025835156">
        <ele>13.6</ele>
        <time>2023-08-30T16:27:07Z</time>
      </trkpt>
      <trkpt lat="56.753639979287982" lon="-5.231040995568037">
        <ele>13.119999999999999</ele>
        <time>2023-08-30T16:27:08Z</time>
      </trkpt>
      <trkpt lat="56.753759002313018" lon="-5.231207963079214">
        <ele>13.119999999999999</ele>
        <time>2023-08-30T16:27:09Z</time>
      </trkpt>
      <trkpt lat="56.754173990339041" lon="-5.231752032414079">
        <ele>13.119999999999999</ele>
        <time>2023-08-30T16:27:13Z</time>
      </trkpt>
      <trkpt lat="56.754294019192457" lon="-5.231822021305561">
        <ele>13.119999999999999</ele>
        <time>2023-08-30T16:27:14Z</time>
      </trkpt>
      <trkpt lat="56.754425028339028" lon="-5.231898967176676">
        <ele>13.119999999999999</ele>
        <time>2023-08-30T16:27:15Z</time>
      </trkpt>
      <trkpt lat="56.754568023607135" lon="-5.231945989653468">
        <ele>12.630000000000001</ele>
        <time>2023-08-30T16:27:16Z</time>
      </trkpt>
      <trkpt lat="56.754727028310299" lon="-5.231961999088526">
        <ele>12.15</ele>
        <time>2023-08-30T16:27:17Z</time>
      </trkpt>
      <trkpt lat="56.756033012643456" lon="-5.232090996578336">
        <ele>7.83</ele>
        <time>2023-08-30T16:27:25Z</time>
      </trkpt>
      <trkpt lat="56.75675000064075" lon="-5.232042968273163">
        <ele>5.91</ele>
        <time>2023-08-30T16:27:30Z</time>
      </trkpt>
      <trkpt lat="56.75752398557961" lon="-5.231636026874185">
        <ele>4.94</ele>
        <time>2023-08-30T16:27:36Z</time>
      </trkpt>
      <trkpt lat="56.757646026089787" lon="-5.231624962761998">
        <ele>4.94</ele>
        <time>2023-08-30T16:27:37Z</time>
      </trkpt>
      <trkpt lat="56.75776001997292" lon="-5.231629991903901">
        <ele>4.94</ele>
        <time>2023-08-30T16:27:38Z</time>
      </trkpt>
      <trkpt lat="56.757870996370912" lon="-5.231685983017087">
        <ele>5.42</ele>
        <time>2023-08-30T16:27:39Z</time>
      </trkpt>
      <trkpt lat="56.757985996082425" lon="-5.231742979958654">
        <ele>5.42</ele>
        <time>2023-08-30T16:27:40Z</time>
      </trkpt>
      <trkpt lat="56.758106024935842" lon="-5.2318200096488">
        <ele>5.42</ele>
        <time>2023-08-30T16:27:41Z</time>
      </trkpt>
      <trkpt lat="56.758219012990594" lon="-5.231936015188694">
        <ele>5.42</ele>
        <time>2023-08-30T16:27:42Z</time>
      </trkpt>
      <trkpt lat="56.759313018992543" lon="-5.233101015910506">
        <ele>3.98</ele>
        <time>2023-08-30T16:27:51Z</time>
      </trkpt>
      <trkpt lat="56.759504964575171" lon="-5.233399998396635">
        <ele>3.98</ele>
        <time>2023-08-30T16:27:53Z</time>
      </trkpt>
      <trkpt lat="56.759605966508389" lon="-5.233573000878096">
        <ele>4.46</ele>
        <time>2023-08-30T16:27:54Z</time>
      </trkpt>
      <trkpt lat="56.759664975106716" lon="-5.233789002522826">
        <ele>4.46</ele>
        <time>2023-08-30T16:27:55Z</time>
      </trkpt>
      <trkpt lat="56.759733958169818" lon="-5.234039034694433">
        <ele>4.46</ele>
        <time>2023-08-30T16:27:56Z</time>
      </trkpt>
      <trkpt lat="56.759806964546442" lon="-5.234304992482066">
        <ele>3.98</ele>
        <time>2023-08-30T16:27:57Z</time>
      </trkpt>
      <trkpt lat="56.760441977530718" lon="-5.236622001975775">
        <ele>2.54</ele>
        <time>2023-08-30T16:28:04Z</time>
      </trkpt>
      <trkpt lat="56.761044971644878" lon="-5.238682022318244">
        <ele>1.1</ele>
        <time>2023-08-30T16:28:11Z</time>
      </trkpt>
      <trkpt lat="56.761229960247874" lon="-5.239121988415718">
        <ele>1.58</ele>
        <time>2023-08-30T16:28:13Z</time>
      </trkpt>
      <trkpt lat="56.762159010395408" lon="-5.240355972200632">
        <ele>2.54</ele>
        <time>2023-08-30T16:28:19Z</time>
      </trkpt>
      <trkpt lat="56.764185000211" lon="-5.242404006421566">
        <ele>5.91</ele>
        <time>2023-08-30T16:28:30Z</time>
      </trkpt>
      <trkpt lat="56.765035009011626" lon="-5.242921002209187">
        <ele>6.39</ele>
        <time>2023-08-30T16:28:36Z</time>
      </trkpt>
      <trkpt lat="56.765164006501436" lon="-5.242914967238903">
        <ele>6.87</ele>
        <time>2023-08-30T16:28:37Z</time>
      </trkpt>
      <trkpt lat="56.765289986506104" lon="-5.242909016087651">
        <ele>6.87</ele>
        <time>2023-08-30T16:28:38Z</time>
      </trkpt>
      <trkpt lat="56.765416972339153" lon="-5.242889989167452">
        <ele>6.87</ele>
        <time>2023-08-30T16:28:39Z</time>
      </trkpt>
      <trkpt lat="56.765535995364189" lon="-5.242823017761111">
        <ele>7.35</ele>
        <time>2023-08-30T16:28:40Z</time>
      </trkpt>
      <trkpt lat="56.765659041702747" lon="-5.24275504052639">
        <ele>7.35</ele>
        <time>2023-08-30T16:28:41Z</time>
      </trkpt>
      <trkpt lat="56.765778986737132" lon="-5.242688991129398">
        <ele>7.83</ele>
        <time>2023-08-30T16:28:42Z</time>
      </trkpt>
      <trkpt lat="56.765893986448646" lon="-5.242533003911376">
        <ele>7.83</ele>
        <time>2023-08-30T16:28:43Z</time>
      </trkpt>
      <trkpt lat="56.766007980331779" lon="-5.242379028350115">
        <ele>7.83</ele>
        <time>2023-08-30T16:28:44Z</time>
      </trkpt>
      <trkpt lat="56.766129015013576" lon="-5.242216000333428">
        <ele>7.83</ele>
        <time>2023-08-30T16:28:45Z</time>
      </trkpt>
      <trkpt lat="56.766251977533102" lon="-5.242036962881684">
        <ele>8.310000000000001</ele>
        <time>2023-08-30T16:28:46Z</time>
      </trkpt>
      <trkpt lat="56.766763022169471" lon="-5.241058962419629">
        <ele>8.310000000000001</ele>
        <time>2023-08-30T16:28:51Z</time>
      </trkpt>
      <trkpt lat="56.76682697609067" lon="-5.240872967988253">
        <ele>8.310000000000001</ele>
        <time>2023-08-30T16:28:52Z</time>
      </trkpt>
      <trkpt lat="56.766851032152772" lon="-5.240684039890766">
        <ele>8.310000000000001</ele>
        <time>2023-08-30T16:28:53Z</time>
      </trkpt>
      <trkpt lat="56.767102992162108" lon="-5.238529974594712">
        <ele>8.789999999999999</ele>
        <time>2023-08-30T16:29:02Z</time>
      </trkpt>
      <trkpt lat="56.767268031835556" lon="-5.237126005813479">
        <ele>9.27</ele>
        <time>2023-08-30T16:29:07Z</time>
      </trkpt>
      <trkpt lat="56.76729803904891" lon="-5.236868010833859">
        <ele>9.27</ele>
        <time>2023-08-30T16:29:08Z</time>
      </trkpt>
      <trkpt lat="56.767329974099994" lon="-5.236598029732704">
        <ele>10.23</ele>
        <time>2023-08-30T16:29:09Z</time>
      </trkpt>
      <trkpt lat="56.767344977706671" lon="-5.235770987346768">
        <ele>11.19</ele>
        <time>2023-08-30T16:29:12Z</time>
      </trkpt>
      <trkpt lat="56.767344977706671" lon="-5.235478961840272">
        <ele>11.19</ele>
        <time>2023-08-30T16:29:13Z</time>
      </trkpt>
      <trkpt lat="56.767304996028543" lon="-5.235217027366161">
        <ele>11.19</ele>
        <time>2023-08-30T16:29:14Z</time>
      </trkpt>
      <trkpt lat="56.767093017697334" lon="-5.233566965907812">
        <ele>10.23</ele>
        <time>2023-08-30T16:29:20Z</time>
      </trkpt>
      <trkpt lat="56.767099974676967" lon="-5.233319029211998">
        <ele>10.23</ele>
        <time>2023-08-30T16:29:21Z</time>
      </trkpt>
      <trkpt lat="56.767125958576798" lon="-5.233073020353913">
        <ele>10.23</ele>
        <time>2023-08-30T16:29:22Z</time>
      </trkpt>
      <trkpt lat="56.767187984660268" lon="-5.232860036194325">
        <ele>9.75</ele>
        <time>2023-08-30T16:29:23Z</time>
      </trkpt>
      <trkpt lat="56.767263002693653" lon="-5.232640011236072">
        <ele>9.75</ele>
        <time>2023-08-30T16:29:24Z</time>
      </trkpt>
      <trkpt lat="56.767372973263264" lon="-5.23244203068316">
        <ele>9.75</ele>
        <time>2023-08-30T16:29:25Z</time>
      </trkpt>
      <trkpt lat="56.768587008118629" lon="-5.230518970638514">
        <ele>10.23</ele>
        <time>2023-08-30T16:29:35Z</time>
      </trkpt>
      <trkpt lat="56.768863024190068" lon="-5.229911031201482">
        <ele>10.23</ele>
        <time>2023-08-30T16:29:38Z</time>
      </trkpt>
      <trkpt lat="56.768924966454506" lon="-5.229695029556751">
        <ele>10.23</ele>
        <time>2023-08-30T16:29:39Z</time>
      </trkpt>
      <trkpt lat="56.76897500641644" lon="-5.229228995740414">
        <ele>10.23</ele>
        <time>2023-08-30T16:29:41Z</time>
      </trkpt>
      <trkpt lat="56.768971988931298" lon="-5.228948034346104">
        <ele>9.75</ele>
        <time>2023-08-30T16:29:42Z</time>
      </trkpt>
      <trkpt lat="56.768967965617776" lon="-5.228645028546453">
        <ele>9.75</ele>
        <time>2023-08-30T16:29:43Z</time>
      </trkpt>
      <trkpt lat="56.76895497366786" lon="-5.22741699591279">
        <ele>7.83</ele>
        <time>2023-08-30T16:29:47Z</time>
      </trkpt>
      <trkpt lat="56.768996967002749" lon="-5.227151960134506">
        <ele>7.35</ele>
        <time>2023-08-30T16:29:48Z</time>
      </trkpt>
      <trkpt lat="56.76903803832829" lon="-5.226921960711479">
        <ele>6.87</ele>
        <time>2023-08-30T16:29:49Z</time>
      </trkpt>
      <trkpt lat="56.769096963107586" lon="-5.226709982380271">
        <ele>6.39</ele>
        <time>2023-08-30T16:29:50Z</time>
      </trkpt>
      <trkpt lat="56.769179021939635" lon="-5.226527005434036">
        <ele>5.91</ele>
        <time>2023-08-30T16:29:51Z</time>
      </trkpt>
      <trkpt lat="56.769270971417427" lon="-5.226334976032376">
        <ele>5.91</ele>
        <time>2023-08-30T16:29:52Z</time>
      </trkpt>
      <trkpt lat="56.769383959472179" lon="-5.226167002692819">
        <ele>5.42</ele>
        <time>2023-08-30T16:29:53Z</time>
      </trkpt>
      <trkpt lat="56.770422980189323" lon="-5.224617021158338">
        <ele>6.87</ele>
        <time>2023-08-30T16:30:02Z</time>
      </trkpt>
      <trkpt lat="56.770519958809018" lon="-5.224473020061851">
        <ele>7.83</ele>
        <time>2023-08-30T16:30:03Z</time>
      </trkpt>
      <trkpt lat="56.77060604095459" lon="-5.224301023408771">
        <ele>8.789999999999999</ele>
        <time>2023-08-30T16:30:04Z</time>
      </trkpt>
      <trkpt lat="56.770689021795988" lon="-5.224134977906942">
        <ele>9.75</ele>
        <time>2023-08-30T16:30:05Z</time>
      </trkpt>
      <trkpt lat="56.770775020122528" lon="-5.223962981253862">
        <ele>10.710000000000001</ele>
        <time>2023-08-30T16:30:06Z</time>
      </trkpt>
      <trkpt lat="56.770837968215346" lon="-5.223746979609132">
        <ele>12.15</ele>
        <time>2023-08-30T16:30:07Z</time>
      </trkpt>
      <trkpt lat="56.770901000127196" lon="-5.22352502681315">
        <ele>13.119999999999999</ele>
        <time>2023-08-30T16:30:08Z</time>
      </trkpt>
      <trkpt lat="56.771285980939865" lon="-5.222180988639593">
        <ele>19.84</ele>
        <time>2023-08-30T16:30:15Z</time>
      </trkpt>
      <trkpt lat="56.771448003128171" lon="-5.22161303088069">
        <ele>22.25</ele>
        <time>2023-08-30T16:30:18Z</time>
      </trkpt>
      <trkpt lat="56.771500976756215" lon="-5.221427958458662">
        <ele>23.210000000000001</ele>
        <time>2023-08-30T16:30:19Z</time>
      </trkpt>
      <trkpt lat="56.771637015044689" lon="-5.22112101316452">
        <ele>25.129999999999999</ele>
        <time>2023-08-30T16:30:21Z</time>
      </trkpt>
      <trkpt lat="56.771727036684752" lon="-5.220982963219285">
        <ele>26.09</ele>
        <time>2023-08-30T16:30:22Z</time>
      </trkpt>
      <trkpt lat="56.771824015304446" lon="-5.220833010971546">
        <ele>27.530000000000001</ele>
        <time>2023-08-30T16:30:23Z</time>
      </trkpt>
      <trkpt lat="56.772504961118102" lon="-5.220127003267407">
        <ele>36.189999999999998</ele>
        <time>2023-08-30T16:30:29Z</time>
      </trkpt>
      <trkpt lat="56.773194037377834" lon="-5.218718005344272">
        <ele>46.280000000000001</ele>
        <time>2023-08-30T16:30:36Z</time>
      </trkpt>
      <trkpt lat="56.773284981027246" lon="-5.218490017578006">
        <ele>46.759999999999998</ele>
        <time>2023-08-30T16:30:37Z</time>
      </trkpt>
      <trkpt lat="56.773373996838927" lon="-5.218269992619753">
        <ele>47.240000000000002</ele>
        <time>2023-08-30T16:30:38Z</time>
      </trkpt>
      <trkpt lat="56.77346502430737" lon="-5.218033036217094">
        <ele>47.719999999999999</ele>
        <time>2023-08-30T16:30:39Z</time>
      </trkpt>
      <trkpt lat="56.773511962965131" lon="-5.217771017923951">
        <ele>48.200000000000003</ele>
        <time>2023-08-30T16:30:40Z</time>
      </trkpt>
      <trkpt lat="56.773559991270304" lon="-5.217501036822796">
        <ele>48.68</ele>
        <time>2023-08-30T16:30:41Z</time>
      </trkpt>
      <trkpt lat="56.773607013747096" lon="-5.217238012701273">
        <ele>48.68</ele>
        <time>2023-08-30T16:30:42Z</time>
      </trkpt>
      <trkpt lat="56.773999035358429" lon="-5.21581300534308">
        <ele>45.799999999999997</ele>
        <time>2023-08-30T16:30:48Z</time>
      </trkpt>
      <trkpt lat="56.774483006447554" lon="-5.214654039591551">
        <ele>45.32</ele>
        <time>2023-08-30T16:30:53Z</time>
      </trkpt>
      <trkpt lat="56.774584008380771" lon="-5.214411970227957">
        <ele>45.32</ele>
        <time>2023-08-30T16:30:54Z</time>
      </trkpt>
      <trkpt lat="56.775123970583081" lon="-5.212784959003329">
        <ele>45.799999999999997</ele>
        <time>2023-08-30T16:31:01Z</time>
      </trkpt>
      <trkpt lat="56.775153977796435" lon="-5.212528975680471">
        <ele>45.32</ele>
        <time>2023-08-30T16:31:02Z</time>
      </trkpt>
      <trkpt lat="56.775180967524648" lon="-5.212256982922554">
        <ele>45.32</ele>
        <time>2023-08-30T16:31:03Z</time>
      </trkpt>
      <trkpt lat="56.775207035243511" lon="-5.211983984336257">
        <ele>44.359999999999999</ele>
        <time>2023-08-30T16:31:04Z</time>
      </trkpt>
      <trkpt lat="56.775212986394763" lon="-5.211711991578341">
        <ele>43.880000000000003</ele>
        <time>2023-08-30T16:31:05Z</time>
      </trkpt>
      <trkpt lat="56.775086000561714" lon="-5.209284005686641">
        <ele>36.189999999999998</ele>
        <time>2023-08-30T16:31:13Z</time>
      </trkpt>
      <trkpt lat="56.77503596059978" lon="-5.207989001646638">
        <ele>31.379999999999999</ele>
        <time>2023-08-30T16:31:18Z</time>
      </trkpt>
      <trkpt lat="56.775048030540347" lon="-5.207768976688385">
        <ele>30.420000000000002</ele>
        <time>2023-08-30T16:31:19Z</time>
      </trkpt>
      <trkpt lat="56.775103015825152" lon="-5.207568984478712">
        <ele>29.940000000000001</ele>
        <time>2023-08-30T16:31:20Z</time>
      </trkpt>
      <trkpt lat="56.775165041908622" lon="-5.207360023632646">
        <ele>29.460000000000001</ele>
        <time>2023-08-30T16:31:21Z</time>
      </trkpt>
      <trkpt lat="56.77522799000144" lon="-5.207146033644676">
        <ele>29.460000000000001</ele>
        <time>2023-08-30T16:31:22Z</time>
      </trkpt>
      <trkpt lat="56.775292027741671" lon="-5.206929026171565">
        <ele>28.98</ele>
        <time>2023-08-30T16:31:23Z</time>
      </trkpt>
      <trkpt lat="56.775415996089578" lon="-5.206506997346878">
        <ele>28.5</ele>
        <time>2023-08-30T16:31:25Z</time>
      </trkpt>
      <trkpt lat="56.775478022173047" lon="-5.206297030672431">
        <ele>28.02</ele>
        <time>2023-08-30T16:31:26Z</time>
      </trkpt>
      <trkpt lat="56.775495037436485" lon="-5.206097038462758">
        <ele>27.530000000000001</ele>
        <time>2023-08-30T16:31:27Z</time>
      </trkpt>
      <trkpt lat="56.775512974709272" lon="-5.205890005454421">
        <ele>27.050000000000001</ele>
        <time>2023-08-30T16:31:28Z</time>
      </trkpt>
      <trkpt lat="56.775530995801091" lon="-5.205684984102845">
        <ele>26.09</ele>
        <time>2023-08-30T16:31:29Z</time>
      </trkpt>
      <trkpt lat="56.775606013834476" lon="-5.204818965867162">
        <ele>22.73</ele>
        <time>2023-08-30T16:31:33Z</time>
      </trkpt>
      <trkpt lat="56.775669967755675" lon="-5.204604975879192">
        <ele>22.25</ele>
        <time>2023-08-30T16:31:34Z</time>
      </trkpt>
      <trkpt lat="56.775740040466189" lon="-5.204376988112927">
        <ele>21.289999999999999</ele>
        <time>2023-08-30T16:31:35Z</time>
      </trkpt>
      <trkpt lat="56.775996023789048" lon="-5.203437963500619">
        <ele>18.879999999999999</ele>
        <time>2023-08-30T16:31:39Z</time>
      </trkpt>
      <trkpt lat="56.776026031002402" lon="-5.203186003491283">
        <ele>18.879999999999999</ele>
        <time>2023-08-30T16:31:40Z</time>
      </trkpt>
      <trkpt lat="56.776045979931951" lon="-5.202905964106321">
        <ele>18.399999999999999</ele>
        <time>2023-08-30T16:31:41Z</time>
      </trkpt>
      <trkpt lat="56.776163997128606" lon="-5.201232014223933">
        <ele>15.52</ele>
        <time>2023-08-30T16:31:47Z</time>
      </trkpt>
      <trkpt lat="56.776225017383695" lon="-5.20098902285099">
        <ele>15.039999999999999</ele>
        <time>2023-08-30T16:31:48Z</time>
      </trkpt>
      <trkpt lat="56.776286037638783" lon="-5.200772015377879">
        <ele>14.08</ele>
        <time>2023-08-30T16:31:49Z</time>
      </trkpt>
      <trkpt lat="56.776372035965323" lon="-5.200577974319458">
        <ele>13.6</ele>
        <time>2023-08-30T16:31:50Z</time>
      </trkpt>
      <trkpt lat="56.776463985443115" lon="-5.200382005423307">
        <ele>13.119999999999999</ele>
        <time>2023-08-30T16:31:51Z</time>
      </trkpt>
      <trkpt lat="56.776573034003377" lon="-5.200197016820312">
        <ele>12.630000000000001</ele>
        <time>2023-08-30T16:31:52Z</time>
      </trkpt>
      <trkpt lat="56.77668803371489" lon="-5.200000964105129">
        <ele>12.630000000000001</ele>
        <time>2023-08-30T16:31:53Z</time>
      </trkpt>
      <trkpt lat="56.776805967092514" lon="-5.199799966067076">
        <ele>12.15</ele>
        <time>2023-08-30T16:31:54Z</time>
      </trkpt>
      <trkpt lat="56.77692499011755" lon="-5.199597962200642">
        <ele>12.15</ele>
        <time>2023-08-30T16:31:55Z</time>
      </trkpt>
      <trkpt lat="56.778009021654725" lon="-5.197690995410085">
        <ele>11.67</ele>
        <time>2023-08-30T16:32:04Z</time>
      </trkpt>
      <trkpt lat="56.778942011296749" lon="-5.195886958390474">
        <ele>9.75</ele>
        <time>2023-08-30T16:32:13Z</time>
      </trkpt>
      <trkpt lat="56.779156001284719" lon="-5.195623012259603">
        <ele>8.789999999999999</ele>
        <time>2023-08-30T16:32:15Z</time>
      </trkpt>
      <trkpt lat="56.779413996264338" lon="-5.195365017279983">
        <ele>7.83</ele>
        <time>2023-08-30T16:32:17Z</time>
      </trkpt>
      <trkpt lat="56.780040040612221" lon="-5.194889008998871">
        <ele>9.27</ele>
        <time>2023-08-30T16:32:21Z</time>
      </trkpt>
      <trkpt lat="56.781220966950059" lon="-5.193628035485745">
        <ele>11.67</ele>
        <time>2023-08-30T16:32:29Z</time>
      </trkpt>
      <trkpt lat="56.782784024253488" lon="-5.191504983231425">
        <ele>14.08</ele>
        <time>2023-08-30T16:32:40Z</time>
      </trkpt>
      <trkpt lat="56.784013984724879" lon="-5.189359970390797">
        <ele>15.039999999999999</ele>
        <time>2023-08-30T16:32:50Z</time>
      </trkpt>
      <trkpt lat="56.784728961065412" lon="-5.187485022470355">
        <ele>16.48</ele>
        <time>2023-08-30T16:32:58Z</time>
      </trkpt>
      <trkpt lat="56.785032972693443" lon="-5.186635013669729">
        <ele>17.920000000000002</ele>
        <time>2023-08-30T16:33:02Z</time>
      </trkpt>
      <trkpt lat="56.785140009596944" lon="-5.1863360311836">
        <ele>18.399999999999999</ele>
        <time>2023-08-30T16:33:04Z</time>
      </trkpt>
      <trkpt lat="56.7852199729532" lon="-5.186111982911825">
        <ele>18.879999999999999</ele>
        <time>2023-08-30T16:33:06Z</time>
      </trkpt>
      <trkpt lat="56.785490037873387" lon="-5.185359958559275">
        <ele>19.359999999999999</ele>
        <time>2023-08-30T16:33:11Z</time>
      </trkpt>
      <trkpt lat="56.785559020936489" lon="-5.185166001319885">
        <ele>19.359999999999999</ele>
        <time>2023-08-30T16:33:12Z</time>
      </trkpt>
      <trkpt lat="56.786049026995897" lon="-5.183877032250166">
        <ele>20.32</ele>
        <time>2023-08-30T16:33:18Z</time>
      </trkpt>
      <trkpt lat="56.786268968135118" lon="-5.183562962338328">
        <ele>19.84</ele>
        <time>2023-08-30T16:33:20Z</time>
      </trkpt>
      <trkpt lat="56.786382962018251" lon="-5.183401023969054">
        <ele>19.359999999999999</ele>
        <time>2023-08-30T16:33:21Z</time>
      </trkpt>
      <trkpt lat="56.786510031670332" lon="-5.1832639798522">
        <ele>19.359999999999999</ele>
        <time>2023-08-30T16:33:22Z</time>
      </trkpt>
      <trkpt lat="56.786644980311394" lon="-5.183159960433841">
        <ele>18.879999999999999</ele>
        <time>2023-08-30T16:33:23Z</time>
      </trkpt>
      <trkpt lat="56.786774983629584" lon="-5.183059964329004">
        <ele>18.879999999999999</ele>
        <time>2023-08-30T16:33:24Z</time>
      </trkpt>
      <trkpt lat="56.786974975839257" lon="-5.182906994596124">
        <ele>18.879999999999999</ele>
        <time>2023-08-30T16:33:26Z</time>
      </trkpt>
      <trkpt lat="56.787062985822558" lon="-5.182839017361403">
        <ele>18.879999999999999</ele>
        <time>2023-08-30T16:33:27Z</time>
      </trkpt>
      <trkpt lat="56.787364985793829" lon="-5.182607006281614">
        <ele>18.879999999999999</ele>
        <time>2023-08-30T16:33:30Z</time>
      </trkpt>
      <trkpt lat="56.787534970790148" lon="-5.182392010465264">
        <ele>19.359999999999999</ele>
        <time>2023-08-30T16:33:32Z</time>
      </trkpt>
      <trkpt lat="56.788236033171415" lon="-5.180898020043969">
        <ele>17.920000000000002</ele>
        <time>2023-08-30T16:33:39Z</time>
      </trkpt>
      <trkpt lat="56.789157036691904" lon="-5.178329972550273">
        <ele>14.08</ele>
        <time>2023-08-30T16:33:48Z</time>
      </trkpt>
      <trkpt lat="56.789482003077865" lon="-5.177297992631793">
        <ele>11.19</ele>
        <time>2023-08-30T16:33:52Z</time>
      </trkpt>
      <trkpt lat="56.789554003626108" lon="-5.177071010693908">
        <ele>10.23</ele>
        <time>2023-08-30T16:33:53Z</time>
      </trkpt>
      <trkpt lat="56.789631033316255" lon="-5.176884010434151">
        <ele>9.75</ele>
        <time>2023-08-30T16:33:54Z</time>
      </trkpt>
      <trkpt lat="56.789710996672511" lon="-5.176696004346013">
        <ele>8.789999999999999</ele>
        <time>2023-08-30T16:33:55Z</time>
      </trkpt>
      <trkpt lat="56.789805041626096" lon="-5.176548985764384">
        <ele>8.310000000000001</ele>
        <time>2023-08-30T16:33:56Z</time>
      </trkpt>
      <trkpt lat="56.789906965568662" lon="-5.176394004374743">
        <ele>7.35</ele>
        <time>2023-08-30T16:33:57Z</time>
      </trkpt>
      <trkpt lat="56.790026994422078" lon="-5.176255032420158">
        <ele>6.39</ele>
        <time>2023-08-30T16:33:58Z</time>
      </trkpt>
      <trkpt lat="56.79015900939703" lon="-5.176102984696627">
        <ele>5.42</ele>
        <time>2023-08-30T16:33:59Z</time>
      </trkpt>
      <trkpt lat="56.790476012974977" lon="-5.1757019944489">
        <ele>3.02</ele>
        <time>2023-08-30T16:34:02Z</time>
      </trkpt>
      <trkpt lat="56.790549019351602" lon="-5.175564028322697">
        <ele>2.06</ele>
        <time>2023-08-30T16:34:03Z</time>
      </trkpt>
      <trkpt lat="56.790821012109518" lon="-5.175045020878315">
        <ele>-1.3</ele>
        <time>2023-08-30T16:34:09Z</time>
      </trkpt>
      <trkpt lat="56.790850013494492" lon="-5.17499003559351">
        <ele>-1.79</ele>
        <time>2023-08-30T16:34:10Z</time>
      </trkpt>
      <trkpt lat="56.790878009051085" lon="-5.174935972318053">
        <ele>-2.27</ele>
        <time>2023-08-30T16:34:11Z</time>
      </trkpt>
      <trkpt lat="56.790908016264439" lon="-5.174878975376487">
        <ele>-2.75</ele>
        <time>2023-08-30T16:34:12Z</time>
      </trkpt>
      <trkpt lat="56.790939029306173" lon="-5.17482097260654">
        <ele>-3.71</ele>
        <time>2023-08-30T16:34:13Z</time>
      </trkpt>
      <trkpt lat="56.79097699932754" lon="-5.174746038392186">
        <ele>-4.19</ele>
        <time>2023-08-30T16:34:14Z</time>
      </trkpt>
      <trkpt lat="56.791027039289474" lon="-5.174652999266982">
        <ele>-4.67</ele>
        <time>2023-08-30T16:34:15Z</time>
      </trkpt>
      <trkpt lat="56.791309006512165" lon="-5.174114964902401">
        <ele>-6.59</ele>
        <time>2023-08-30T16:34:19Z</time>
      </trkpt>
      <trkpt lat="56.79222397506237" lon="-5.172888021916151">
        <ele>-10.44</ele>
        <time>2023-08-30T16:34:26Z</time>
      </trkpt>
      <trkpt lat="56.793501963838935" lon="-5.171212982386351">
        <ele>-12.359999999999999</ele>
        <time>2023-08-30T16:34:35Z</time>
      </trkpt>
      <trkpt lat="56.793903037905693" lon="-5.170821966603398">
        <ele>-11.880000000000001</ele>
        <time>2023-08-30T16:34:38Z</time>
      </trkpt>
      <trkpt lat="56.794037986546755" lon="-5.170690035447478">
        <ele>-11.880000000000001</ele>
        <time>2023-08-30T16:34:39Z</time>
      </trkpt>
      <trkpt lat="56.794426990672946" lon="-5.1703089941293">
        <ele>-10.92</ele>
        <time>2023-08-30T16:34:42Z</time>
      </trkpt>
      <trkpt lat="56.794536039233208" lon="-5.170144038274884">
        <ele>-10.92</ele>
        <time>2023-08-30T16:34:43Z</time>
      </trkpt>
      <trkpt lat="56.794739970937371" lon="-5.169767020270228">
        <ele>-10.44</ele>
        <time>2023-08-30T16:34:45Z</time>
      </trkpt>
      <trkpt lat="56.794838039204478" lon="-5.169537020847201">
        <ele>-10.44</ele>
        <time>2023-08-30T16:34:46Z</time>
      </trkpt>
      <trkpt lat="56.795598026365042" lon="-5.167815964668989">
        <ele>-9</ele>
        <time>2023-08-30T16:34:54Z</time>
      </trkpt>
      <trkpt lat="56.795689975842834" lon="-5.167671963572502">
        <ele>-9</ele>
        <time>2023-08-30T16:34:55Z</time>
      </trkpt>
      <trkpt lat="56.795784020796418" lon="-5.167526034638286">
        <ele>-8.51</ele>
        <time>2023-08-30T16:34:56Z</time>
      </trkpt>
      <trkpt lat="56.795874964445829" lon="-5.167414974421263">
        <ele>-8.51</ele>
        <time>2023-08-30T16:34:57Z</time>
      </trkpt>
      <trkpt lat="56.795989964157343" lon="-5.167340962216258">
        <ele>-8.029999999999999</ele>
        <time>2023-08-30T16:34:58Z</time>
      </trkpt>
      <trkpt lat="56.796098006889224" lon="-5.167269967496395">
        <ele>-7.55</ele>
        <time>2023-08-30T16:34:59Z</time>
      </trkpt>
      <trkpt lat="56.796205965802073" lon="-5.167200984433293">
        <ele>-6.59</ele>
        <time>2023-08-30T16:35:00Z</time>
      </trkpt>
      <trkpt lat="56.796318031847477" lon="-5.167197966948152">
        <ele>-5.63</ele>
        <time>2023-08-30T16:35:01Z</time>
      </trkpt>
      <trkpt lat="56.797129986807704" lon="-5.167153961956501">
        <ele>4.94</ele>
        <time>2023-08-30T16:35:07Z</time>
      </trkpt>
      <trkpt lat="56.797254038974643" lon="-5.16710601747036">
        <ele>5.91</ele>
        <time>2023-08-30T16:35:08Z</time>
      </trkpt>
      <trkpt lat="56.79737901315093" lon="-5.167028987780213">
        <ele>5.91</ele>
        <time>2023-08-30T16:35:09Z</time>
      </trkpt>
      <trkpt lat="56.797446990385652" lon="-5.166949024423957">
        <ele>6.39</ele>
        <time>2023-08-30T16:35:10Z</time>
      </trkpt>
      <trkpt lat="56.797492001205683" lon="-5.166895966976881">
        <ele>6.87</ele>
        <time>2023-08-30T16:35:11Z</time>
      </trkpt>
      <trkpt lat="56.797522008419037" lon="-5.166861014440656">
        <ele>7.35</ele>
        <time>2023-08-30T16:35:12Z</time>
      </trkpt>
      <trkpt lat="56.797611024230719" lon="-5.166717013344169">
        <ele>7.35</ele>
        <time>2023-08-30T16:35:19Z</time>
      </trkpt>
      <trkpt lat="56.797933978959918" lon="-5.165943028405309">
        <ele>7.83</ele>
        <time>2023-08-30T16:35:25Z</time>
      </trkpt>
      <trkpt lat="56.798272021114826" lon="-5.165240960195661">
        <ele>7.83</ele>
        <time>2023-08-30T16:35:29Z</time>
      </trkpt>
      <trkpt lat="56.798372017219663" lon="-5.165053959935904">
        <ele>8.310000000000001</ele>
        <time>2023-08-30T16:35:30Z</time>
      </trkpt>
      <trkpt lat="56.798665970563889" lon="-5.16450603492558">
        <ele>8.789999999999999</ele>
        <time>2023-08-30T16:35:33Z</time>
      </trkpt>
      <trkpt lat="56.7987310141325" lon="-5.164383994415402">
        <ele>8.789999999999999</ele>
        <time>2023-08-30T16:35:34Z</time>
      </trkpt>
      <trkpt lat="56.798778958618641" lon="-5.16429397277534">
        <ele>9.27</ele>
        <time>2023-08-30T16:35:35Z</time>
      </trkpt>
      <trkpt lat="56.798841990530491" lon="-5.164176961407065">
        <ele>9.75</ele>
        <time>2023-08-30T16:35:37Z</time>
      </trkpt>
      <trkpt lat="56.798871997743845" lon="-5.16412097029388">
        <ele>9.75</ele>
        <time>2023-08-30T16:35:38Z</time>
      </trkpt>
      <trkpt lat="56.798895969986916" lon="-5.1640750374645">
        <ele>10.23</ele>
        <time>2023-08-30T16:35:39Z</time>
      </trkpt>
      <trkpt lat="56.798908039927483" lon="-5.164052993059158">
        <ele>10.23</ele>
        <time>2023-08-30T16:35:40Z</time>
      </trkpt>
      <trkpt lat="56.798916002735496" lon="-5.164037989452481">
        <ele>10.23</ele>
        <time>2023-08-30T16:35:41Z</time>
      </trkpt>
      <trkpt lat="56.798930000513792" lon="-5.164010999724269">
        <ele>10.23</ele>
        <time>2023-08-30T16:35:42Z</time>
      </trkpt>
      <trkpt lat="56.798963025212288" lon="-5.163950985297561">
        <ele>10.710000000000001</ele>
        <time>2023-08-30T16:35:43Z</time>
      </trkpt>
      <trkpt lat="56.799009963870049" lon="-5.16386297531426">
        <ele>10.710000000000001</ele>
        <time>2023-08-30T16:35:44Z</time>
      </trkpt>
      <trkpt lat="56.799553027376533" lon="-5.163028975948691">
        <ele>10.710000000000001</ele>
        <time>2023-08-30T16:35:51Z</time>
      </trkpt>
      <trkpt lat="56.799682024866343" lon="-5.162866031751037">
        <ele>11.19</ele>
        <time>2023-08-30T16:35:52Z</time>
      </trkpt>
      <trkpt lat="56.79978596046567" lon="-5.162806017324328">
        <ele>11.67</ele>
        <time>2023-08-30T16:35:53Z</time>
      </trkpt>
      <trkpt lat="56.79991202428937" lon="-5.162733010947704">
        <ele>12.15</ele>
        <time>2023-08-30T16:35:54Z</time>
      </trkpt>
      <trkpt lat="56.800038004294038" lon="-5.16266000457108">
        <ele>12.630000000000001</ele>
        <time>2023-08-30T16:35:55Z</time>
      </trkpt>
      <trkpt lat="56.800155015662313" lon="-5.162609964609146">
        <ele>13.6</ele>
        <time>2023-08-30T16:35:56Z</time>
      </trkpt>
      <trkpt lat="56.800274960696697" lon="-5.162571994587779">
        <ele>14.08</ele>
        <time>2023-08-30T16:35:57Z</time>
      </trkpt>
      <trkpt lat="56.800405969843268" lon="-5.162532012909651">
        <ele>15.039999999999999</ele>
        <time>2023-08-30T16:35:58Z</time>
      </trkpt>
      <trkpt lat="56.800545025616884" lon="-5.162488007918">
        <ele>15.52</ele>
        <time>2023-08-30T16:35:59Z</time>
      </trkpt>
      <trkpt lat="56.800689026713371" lon="-5.162442997097969">
        <ele>16</ele>
        <time>2023-08-30T16:36:00Z</time>
      </trkpt>
      <trkpt lat="56.800833027809858" lon="-5.162397986277938">
        <ele>16.48</ele>
        <time>2023-08-30T16:36:01Z</time>
      </trkpt>
      <trkpt lat="56.801112983375788" lon="-5.162310982123017">
        <ele>17.440000000000001</ele>
        <time>2023-08-30T16:36:03Z</time>
      </trkpt>
      <trkpt lat="56.801251033321023" lon="-5.162267982959747">
        <ele>17.440000000000001</ele>
        <time>2023-08-30T16:36:04Z</time>
      </trkpt>
      <trkpt lat="56.802506977692246" lon="-5.161889959126711">
        <ele>16.960000000000001</ele>
        <time>2023-08-30T16:36:13Z</time>
      </trkpt>
      <trkpt lat="56.803062027320266" lon="-5.16188601963222">
        <ele>18.399999999999999</ele>
        <time>2023-08-30T16:36:19Z</time>
      </trkpt>
      <trkpt lat="56.803389005362988" lon="-5.161988027393818">
        <ele>19.359999999999999</ele>
        <time>2023-08-30T16:36:22Z</time>
      </trkpt>
      <trkpt lat="56.8035230319947" lon="-5.162029014900327">
        <ele>19.359999999999999</ele>
        <time>2023-08-30T16:36:23Z</time>
      </trkpt>
      <trkpt lat="56.803599977865815" lon="-5.161980986595154">
        <ele>19.359999999999999</ele>
        <time>2023-08-30T16:36:24Z</time>
      </trkpt>
      <trkpt lat="56.803691005334258" lon="-5.161923989653587">
        <ele>19.84</ele>
        <time>2023-08-30T16:36:25Z</time>
      </trkpt>
      <trkpt lat="56.80375998839736" lon="-5.161745036020875">
        <ele>19.84</ele>
        <time>2023-08-30T16:36:26Z</time>
      </trkpt>
      <trkpt lat="56.803815979510546" lon="-5.161591982468963">
        <ele>20.32</ele>
        <time>2023-08-30T16:36:27Z</time>
      </trkpt>
      <trkpt lat="56.803874988108873" lon="-5.161389978602529">
        <ele>20.32</ele>
        <time>2023-08-30T16:36:28Z</time>
      </trkpt>
      <trkpt lat="56.803926033899188" lon="-5.161174982786179">
        <ele>20.809999999999999</ele>
        <time>2023-08-30T16:36:29Z</time>
      </trkpt>
      <trkpt lat="56.804194003343582" lon="-5.159487035125494">
        <ele>19.84</ele>
        <time>2023-08-30T16:36:36Z</time>
      </trkpt>
      <trkpt lat="56.804198026657104" lon="-5.1592449657619">
        <ele>19.84</ele>
        <time>2023-08-30T16:36:37Z</time>
      </trkpt>
      <trkpt lat="56.804208001121879" lon="-5.158526971936226">
        <ele>18.399999999999999</ele>
        <time>2023-08-30T16:36:40Z</time>
      </trkpt>
      <trkpt lat="56.80423398502171" lon="-5.158297978341579">
        <ele>18.399999999999999</ele>
        <time>2023-08-30T16:36:41Z</time>
      </trkpt>
      <trkpt lat="56.804272038862109" lon="-5.158064961433411">
        <ele>17.920000000000002</ele>
        <time>2023-08-30T16:36:42Z</time>
      </trkpt>
      <trkpt lat="56.804648973047733" lon="-5.155775025486946">
        <ele>16.48</ele>
        <time>2023-08-30T16:36:51Z</time>
      </trkpt>
      <trkpt lat="56.804959019646049" lon="-5.154297966510057">
        <ele>15.52</ele>
        <time>2023-08-30T16:36:57Z</time>
      </trkpt>
      <trkpt lat="56.805040994659066" lon="-5.154101997613907">
        <ele>14.56</ele>
        <time>2023-08-30T16:36:58Z</time>
      </trkpt>
      <trkpt lat="56.805123975500464" lon="-5.153903011232615">
        <ele>14.08</ele>
        <time>2023-08-30T16:36:59Z</time>
      </trkpt>
      <trkpt lat="56.80543796159327" lon="-5.153381992131472">
        <ele>13.119999999999999</ele>
        <time>2023-08-30T16:37:02Z</time>
      </trkpt>
      <trkpt lat="56.805550027638674" lon="-5.153203038498759">
        <ele>13.119999999999999</ele>
        <time>2023-08-30T16:37:03Z</time>
      </trkpt>
      <trkpt lat="56.805666033178568" lon="-5.153019977733493">
        <ele>13.119999999999999</ele>
        <time>2023-08-30T16:37:04Z</time>
      </trkpt>
      <trkpt lat="56.806620983406901" lon="-5.151719022542238">
        <ele>12.15</ele>
        <time>2023-08-30T16:37:11Z</time>
      </trkpt>
      <trkpt lat="56.808129977434874" lon="-5.149568980559707">
        <ele>11.19</ele>
        <time>2023-08-30T16:37:22Z</time>
      </trkpt>
      <trkpt lat="56.809043018147349" lon="-5.148005001246929">
        <ele>14.08</ele>
        <time>2023-08-30T16:37:29Z</time>
      </trkpt>
      <trkpt lat="56.810168037191033" lon="-5.146076995879412">
        <ele>17.440000000000001</ele>
        <time>2023-08-30T16:37:37Z</time>
      </trkpt>
      <trkpt lat="56.811184007674456" lon="-5.144368009641767">
        <ele>18.399999999999999</ele>
        <time>2023-08-30T16:37:44Z</time>
      </trkpt>
      <trkpt lat="56.812014989554882" lon="-5.143208038061857">
        <ele>17.920000000000002</ele>
        <time>2023-08-30T16:37:50Z</time>
      </trkpt>
      <trkpt lat="56.812147004529834" lon="-5.143024977296591">
        <ele>17.920000000000002</ele>
        <time>2023-08-30T16:37:51Z</time>
      </trkpt>
      <trkpt lat="56.812263010069728" lon="-5.142830014228821">
        <ele>17.920000000000002</ele>
        <time>2023-08-30T16:37:52Z</time>
      </trkpt>
      <trkpt lat="56.812371974810958" lon="-5.142607977613807">
        <ele>17.920000000000002</ele>
        <time>2023-08-30T16:37:53Z</time>
      </trkpt>
      <trkpt lat="56.812483035027981" lon="-5.142383007332683">
        <ele>17.920000000000002</ele>
        <time>2023-08-30T16:37:54Z</time>
      </trkpt>
      <trkpt lat="56.813624985516071" lon="-5.140289962291718">
        <ele>19.359999999999999</ele>
        <time>2023-08-30T16:38:04Z</time>
      </trkpt>
      <trkpt lat="56.813758006319404" lon="-5.14014302752912">
        <ele>18.879999999999999</ele>
        <time>2023-08-30T16:38:05Z</time>
      </trkpt>
      <trkpt lat="56.813984988257289" lon="-5.139996008947492">
        <ele>18.399999999999999</ele>
        <time>2023-08-30T16:38:07Z</time>
      </trkpt>
      <trkpt lat="56.814064029604197" lon="-5.139944963157177">
        <ele>17.920000000000002</ele>
        <time>2023-08-30T16:38:08Z</time>
      </trkpt>
      <trkpt lat="56.814641961827874" lon="-5.139571968466044">
        <ele>17.440000000000001</ele>
        <time>2023-08-30T16:38:16Z</time>
      </trkpt>
      <trkpt lat="56.814728965982795" lon="-5.139515977352858">
        <ele>15.52</ele>
        <time>2023-08-30T16:38:22Z</time>
      </trkpt>
      <trkpt lat="56.815124005079269" lon="-5.139260999858379">
        <ele>13.6</ele>
        <time>2023-08-30T16:38:29Z</time>
      </trkpt>
      <trkpt lat="56.816081972792745" lon="-5.138641996309161">
        <ele>12.630000000000001</ele>
        <time>2023-08-30T16:38:36Z</time>
      </trkpt>
      <trkpt lat="56.81725200265646" lon="-5.13780296780169">
        <ele>12.630000000000001</ele>
        <time>2023-08-30T16:38:44Z</time>
      </trkpt>
      <trkpt lat="56.817364990711212" lon="-5.137642035260797">
        <ele>12.630000000000001</ele>
        <time>2023-08-30T16:38:45Z</time>
      </trkpt>
      <trkpt lat="56.817474961280823" lon="-5.137468026950955">
        <ele>12.630000000000001</ele>
        <time>2023-08-30T16:38:46Z</time>
      </trkpt>
      <trkpt lat="56.817587027326226" lon="-5.137289995327592">
        <ele>12.630000000000001</ele>
        <time>2023-08-30T16:38:47Z</time>
      </trkpt>
      <trkpt lat="56.817684005945921" lon="-5.137067958712578">
        <ele>12.15</ele>
        <time>2023-08-30T16:38:48Z</time>
      </trkpt>
      <trkpt lat="56.817759023979306" lon="-5.136828990653157">
        <ele>12.15</ele>
        <time>2023-08-30T16:38:49Z</time>
      </trkpt>
      <trkpt lat="56.818113997578621" lon="-5.135701037943363">
        <ele>10.710000000000001</ele>
        <time>2023-08-30T16:38:54Z</time>
      </trkpt>
      <trkpt lat="56.818202007561922" lon="-5.135516971349716">
        <ele>10.23</ele>
        <time>2023-08-30T16:38:55Z</time>
      </trkpt>
      <trkpt lat="56.818290017545223" lon="-5.135332988575101">
        <ele>9.75</ele>
        <time>2023-08-30T16:38:56Z</time>
      </trkpt>
      <trkpt lat="56.818380039185286" lon="-5.135174989700317">
        <ele>9.27</ele>
        <time>2023-08-30T16:38:57Z</time>
      </trkpt>
      <trkpt lat="56.818492021411657" lon="-5.135054038837552">
        <ele>8.789999999999999</ele>
        <time>2023-08-30T16:38:58Z</time>
      </trkpt>
      <trkpt lat="56.818607021123171" lon="-5.134930992498994">
        <ele>8.310000000000001</ele>
        <time>2023-08-30T16:38:59Z</time>
      </trkpt>
      <trkpt lat="56.819730028510094" lon="-5.133991967886686">
        <ele>6.87</ele>
        <time>2023-08-30T16:39:07Z</time>
      </trkpt>
      <trkpt lat="56.819990035146475" lon="-5.133775966241956">
        <ele>7.35</ele>
        <time>2023-08-30T16:39:09Z</time>
      </trkpt>
      <trkpt lat="56.820102017372847" lon="-5.133616961538792">
        <ele>7.35</ele>
        <time>2023-08-30T16:39:10Z</time>
      </trkpt>
      <trkpt lat="56.820208970457315" lon="-5.133440019562841">
        <ele>7.35</ele>
        <time>2023-08-30T16:39:11Z</time>
      </trkpt>
      <trkpt lat="56.820318019017577" lon="-5.133257964625955">
        <ele>7.35</ele>
        <time>2023-08-30T16:39:12Z</time>
      </trkpt>
      <trkpt lat="56.820407034829259" lon="-5.133012961596251">
        <ele>7.35</ele>
        <time>2023-08-30T16:39:13Z</time>
      </trkpt>
      <trkpt lat="56.820484986528754" lon="-5.132758989930153">
        <ele>7.35</ele>
        <time>2023-08-30T16:39:14Z</time>
      </trkpt>
      <trkpt lat="56.820566039532423" lon="-5.132496971637011">
        <ele>7.35</ele>
        <time>2023-08-30T16:39:15Z</time>
      </trkpt>
      <trkpt lat="56.820638962090015" lon="-5.132221961393952">
        <ele>7.35</ele>
        <time>2023-08-30T16:39:16Z</time>
      </trkpt>
      <trkpt lat="56.820888994261622" lon="-5.130846993997693">
        <ele>8.310000000000001</ele>
        <time>2023-08-30T16:39:21Z</time>
      </trkpt>
      <trkpt lat="56.82099100202322" lon="-5.129747036844492">
        <ele>8.789999999999999</ele>
        <time>2023-08-30T16:39:27Z</time>
      </trkpt>
      <trkpt lat="56.821044981479645" lon="-5.129158962517977">
        <ele>9.75</ele>
        <time>2023-08-30T16:39:33Z</time>
      </trkpt>
      <trkpt lat="56.821060990914702" lon="-5.128989983350039">
        <ele>9.27</ele>
        <time>2023-08-30T16:39:34Z</time>
      </trkpt>
      <trkpt lat="56.821081023663282" lon="-5.128803988918662">
        <ele>9.27</ele>
        <time>2023-08-30T16:39:35Z</time>
      </trkpt>
      <trkpt lat="56.821117987856269" lon="-5.128617994487286">
        <ele>9.27</ele>
        <time>2023-08-30T16:39:36Z</time>
      </trkpt>
      <trkpt lat="56.821155035868287" lon="-5.128435017541051">
        <ele>8.789999999999999</ele>
        <time>2023-08-30T16:39:37Z</time>
      </trkpt>
      <trkpt lat="56.821221001446247" lon="-5.128278024494648">
        <ele>8.789999999999999</ele>
        <time>2023-08-30T16:39:38Z</time>
      </trkpt>
      <trkpt lat="56.821298031136394" lon="-5.1281129848212">
        <ele>8.789999999999999</ele>
        <time>2023-08-30T16:39:39Z</time>
      </trkpt>
      <trkpt lat="56.82140096090734" lon="-5.127968983724713">
        <ele>8.310000000000001</ele>
        <time>2023-08-30T16:39:40Z</time>
      </trkpt>
      <trkpt lat="56.821520989760756" lon="-5.127844009548426">
        <ele>7.83</ele>
        <time>2023-08-30T16:39:41Z</time>
      </trkpt>
      <trkpt lat="56.821646969765425" lon="-5.127714006230235">
        <ele>7.83</ele>
        <time>2023-08-30T16:39:42Z</time>
      </trkpt>
      <trkpt lat="56.823040964081883" lon="-5.126684037968516">
        <ele>7.83</ele>
        <time>2023-08-30T16:39:52Z</time>
      </trkpt>
      <trkpt lat="56.82399800978601" lon="-5.126325041055679">
        <ele>7.35</ele>
        <time>2023-08-30T16:39:59Z</time>
      </trkpt>
      <trkpt lat="56.824131030589342" lon="-5.126245999708772">
        <ele>7.83</ele>
        <time>2023-08-30T16:40:00Z</time>
      </trkpt>
      <trkpt lat="56.824250975623727" lon="-5.126152038574219">
        <ele>8.310000000000001</ele>
        <time>2023-08-30T16:40:01Z</time>
      </trkpt>
      <trkpt lat="56.824372010305524" lon="-5.125983981415629">
        <ele>8.789999999999999</ele>
        <time>2023-08-30T16:40:02Z</time>
      </trkpt>
      <trkpt lat="56.824489021673799" lon="-5.125821959227324">
        <ele>8.789999999999999</ele>
        <time>2023-08-30T16:40:03Z</time>
      </trkpt>
      <trkpt lat="56.824607960879803" lon="-5.125655997544527">
        <ele>9.27</ele>
        <time>2023-08-30T16:40:04Z</time>
      </trkpt>
      <trkpt lat="56.825713030993938" lon="-5.123831005766988">
        <ele>11.67</ele>
        <time>2023-08-30T16:40:14Z</time>
      </trkpt>
      <trkpt lat="56.825902964919806" lon="-5.12355599552393">
        <ele>12.15</ele>
        <time>2023-08-30T16:40:16Z</time>
      </trkpt>
      <trkpt lat="56.826006984338164" lon="-5.123462034389377">
        <ele>12.630000000000001</ele>
        <time>2023-08-30T16:40:17Z</time>
      </trkpt>
      <trkpt lat="56.826117960736156" lon="-5.123362960293889">
        <ele>12.630000000000001</ele>
        <time>2023-08-30T16:40:18Z</time>
      </trkpt>
      <trkpt lat="56.826218040660024" lon="-5.123329013586044">
        <ele>12.630000000000001</ele>
        <time>2023-08-30T16:40:19Z</time>
      </trkpt>
      <trkpt lat="56.826313007622957" lon="-5.12329800054431">
        <ele>13.119999999999999</ele>
        <time>2023-08-30T16:40:20Z</time>
      </trkpt>
      <trkpt lat="56.827074000611901" lon="-5.123113011941314">
        <ele>12.630000000000001</ele>
        <time>2023-08-30T16:40:28Z</time>
      </trkpt>
      <trkpt lat="56.827164022251964" lon="-5.123167997226119">
        <ele>12.630000000000001</ele>
        <time>2023-08-30T16:40:29Z</time>
      </trkpt>
      <trkpt lat="56.827252032235265" lon="-5.123221976682544">
        <ele>12.15</ele>
        <time>2023-08-30T16:40:30Z</time>
      </trkpt>
      <trkpt lat="56.827348005026579" lon="-5.123287020251155">
        <ele>12.15</ele>
        <time>2023-08-30T16:40:31Z</time>
      </trkpt>
      <trkpt lat="56.827416988089681" lon="-5.123391961678863">
        <ele>11.67</ele>
        <time>2023-08-30T16:40:32Z</time>
      </trkpt>
      <trkpt lat="56.827512038871646" lon="-5.12353403493762">
        <ele>11.67</ele>
        <time>2023-08-30T16:40:33Z</time>
      </trkpt>
      <trkpt lat="56.827561995014548" lon="-5.123638976365328">
        <ele>11.67</ele>
        <time>2023-08-30T16:40:34Z</time>
      </trkpt>
      <trkpt lat="56.828156020492315" lon="-5.124992989003658">
        <ele>12.630000000000001</ele>
        <time>2023-08-30T16:40:43Z</time>
      </trkpt>
      <trkpt lat="56.828476041555405" lon="-5.125452987849712">
        <ele>13.119999999999999</ele>
        <time>2023-08-30T16:40:47Z</time>
      </trkpt>
      <trkpt lat="56.828696988523006" lon="-5.125619033351541">
        <ele>13.119999999999999</ele>
        <time>2023-08-30T16:40:49Z</time>
      </trkpt>
      <trkpt lat="56.828964035958052" lon="-5.125711988657713">
        <ele>12.630000000000001</ele>
        <time>2023-08-30T16:40:51Z</time>
      </trkpt>
      <trkpt lat="56.829109964892268" lon="-5.125737972557545">
        <ele>12.15</ele>
        <time>2023-08-30T16:40:52Z</time>
      </trkpt>
      <trkpt lat="56.829550014808774" lon="-5.125765968114138">
        <ele>11.19</ele>
        <time>2023-08-30T16:40:55Z</time>
      </trkpt>
      <trkpt lat="56.829701978713274" lon="-5.125735038891435">
        <ele>11.19</ele>
        <time>2023-08-30T16:40:56Z</time>
      </trkpt>
      <trkpt lat="56.831034030765295" lon="-5.124856028705835">
        <ele>13.6</ele>
        <time>2023-08-30T16:41:05Z</time>
      </trkpt>
      <trkpt lat="56.83220699429512" lon="-5.124012976884842">
        <ele>14.56</ele>
        <time>2023-08-30T16:41:13Z</time>
      </trkpt>
      <trkpt lat="56.832471024245024" lon="-5.123933013528585">
        <ele>14.56</ele>
        <time>2023-08-30T16:41:15Z</time>
      </trkpt>
      <trkpt lat="56.83259298093617" lon="-5.123913986608386">
        <ele>14.56</ele>
        <time>2023-08-30T16:41:16Z</time>
      </trkpt>
      <trkpt lat="56.832718960940838" lon="-5.123929996043444">
        <ele>14.08</ele>
        <time>2023-08-30T16:41:17Z</time>
      </trkpt>
      <trkpt lat="56.83282901532948" lon="-5.124027980491519">
        <ele>14.08</ele>
        <time>2023-08-30T16:41:18Z</time>
      </trkpt>
      <trkpt lat="56.832946026697755" lon="-5.124130994081497">
        <ele>13.6</ele>
        <time>2023-08-30T16:41:19Z</time>
      </trkpt>
      <trkpt lat="56.833075024187565" lon="-5.124276001006365">
        <ele>13.6</ele>
        <time>2023-08-30T16:41:20Z</time>
      </trkpt>
      <trkpt lat="56.833165967836976" lon="-5.1244589779526">
        <ele>13.119999999999999</ele>
        <time>2023-08-30T16:41:21Z</time>
      </trkpt>
      <trkpt lat="56.833261018618941" lon="-5.124653019011021">
        <ele>13.119999999999999</ele>
        <time>2023-08-30T16:41:22Z</time>
      </trkpt>
      <trkpt lat="56.833359003067017" lon="-5.124853011220694">
        <ele>13.6</ele>
        <time>2023-08-30T16:41:23Z</time>
      </trkpt>
      <trkpt lat="56.833831993862987" lon="-5.125884991139174">
        <ele>13.119999999999999</ele>
        <time>2023-08-30T16:41:28Z</time>
      </trkpt>
      <trkpt lat="56.834042966365814" lon="-5.126492008566856">
        <ele>13.119999999999999</ele>
        <time>2023-08-30T16:41:31Z</time>
      </trkpt>
      <trkpt lat="56.834305990487337" lon="-5.128500983119011">
        <ele>11.19</ele>
        <time>2023-08-30T16:41:38Z</time>
      </trkpt>
      <trkpt lat="56.834705974906683" lon="-5.132474005222321">
        <ele>8.310000000000001</ele>
        <time>2023-08-30T16:41:50Z</time>
      </trkpt>
      <trkpt lat="56.835433021187782" lon="-5.135817965492606">
        <ele>7.83</ele>
        <time>2023-08-30T16:42:01Z</time>
      </trkpt>
      <trkpt lat="56.835796963423491" lon="-5.137902041897178">
        <ele>8.789999999999999</ele>
        <time>2023-08-30T16:42:09Z</time>
      </trkpt>
      <trkpt lat="56.836140034720302" lon="-5.139158992096782">
        <ele>9.27</ele>
        <time>2023-08-30T16:42:16Z</time>
      </trkpt>
      <trkpt lat="56.83618102222681" lon="-5.139306010678411">
        <ele>9.27</ele>
        <time>2023-08-30T16:42:17Z</time>
      </trkpt>
      <trkpt lat="56.836218992248178" lon="-5.139744970947504">
        <ele>9.75</ele>
        <time>2023-08-30T16:42:20Z</time>
      </trkpt>
      <trkpt lat="56.836164006963372" lon="-5.14136603102088">
        <ele>9.75</ele>
        <time>2023-08-30T16:42:29Z</time>
      </trkpt>
      <trkpt lat="56.83607499115169" lon="-5.142930010333657">
        <ele>12.630000000000001</ele>
        <time>2023-08-30T16:42:38Z</time>
      </trkpt>
      <trkpt lat="56.83607398532331" lon="-5.143068982288241">
        <ele>12.630000000000001</ele>
        <time>2023-08-30T16:42:39Z</time>
      </trkpt>
      <trkpt lat="56.836084965616465" lon="-5.144618963822722">
        <ele>13.6</ele>
        <time>2023-08-30T16:42:48Z</time>
      </trkpt>
      <trkpt lat="56.836086977273226" lon="-5.144790038466454">
        <ele>13.6</ele>
        <time>2023-08-30T16:42:49Z</time>
      </trkpt>
      <trkpt lat="56.836088988929987" lon="-5.144946025684476">
        <ele>14.08</ele>
        <time>2023-08-30T16:42:50Z</time>
      </trkpt>
      <trkpt lat="56.836112039163709" lon="-5.146230971440673">
        <ele>13.6</ele>
        <time>2023-08-30T16:42:59Z</time>
      </trkpt>
      <trkpt lat="56.836128970608115" lon="-5.147095983847976">
        <ele>11.19</ele>
        <time>2023-08-30T16:43:06Z</time>
      </trkpt>
      <trkpt lat="56.836192002519965" lon="-5.148894991725683">
        <ele>9.27</ele>
        <time>2023-08-30T16:43:15Z</time>
      </trkpt>
      <trkpt lat="56.836626017466187" lon="-5.151093984022737">
        <ele>9.27</ele>
        <time>2023-08-30T16:43:26Z</time>
      </trkpt>
      <trkpt lat="56.837067995220423" lon="-5.153204966336489">
        <ele>10.710000000000001</ele>
        <time>2023-08-30T16:43:35Z</time>
      </trkpt>
      <trkpt lat="56.837799986824393" lon="-5.155636975541711">
        <ele>11.67</ele>
        <time>2023-08-30T16:43:44Z</time>
      </trkpt>
      <trkpt lat="56.838212963193655" lon="-5.15692301094532">
        <ele>10.23</ele>
        <time>2023-08-30T16:43:49Z</time>
      </trkpt>
      <trkpt lat="56.838324023410678" lon="-5.157131971791387">
        <ele>10.23</ele>
        <time>2023-08-30T16:43:50Z</time>
      </trkpt>
      <trkpt lat="56.839218959212303" lon="-5.1590930018574">
        <ele>8.789999999999999</ele>
        <time>2023-08-30T16:43:58Z</time>
      </trkpt>
      <trkpt lat="56.840320006012917" lon="-5.161990039050579">
        <ele>8.789999999999999</ele>
        <time>2023-08-30T16:44:09Z</time>
      </trkpt>
      <trkpt lat="56.84071303345263" lon="-5.163079015910626">
        <ele>10.23</ele>
        <time>2023-08-30T16:44:14Z</time>
      </trkpt>
      <trkpt lat="56.840804982930422" lon="-5.163241038098931">
        <ele>10.23</ele>
        <time>2023-08-30T16:44:15Z</time>
      </trkpt>
      <trkpt lat="56.840915037319064" lon="-5.163351008668542">
        <ele>10.710000000000001</ele>
        <time>2023-08-30T16:44:16Z</time>
      </trkpt>
      <trkpt lat="56.841018972918391" lon="-5.163455028086901">
        <ele>10.710000000000001</ele>
        <time>2023-08-30T16:44:17Z</time>
      </trkpt>
      <trkpt lat="56.841136990115047" lon="-5.163514036685228">
        <ele>11.19</ele>
        <time>2023-08-30T16:44:18Z</time>
      </trkpt>
      <trkpt lat="56.841256013140082" lon="-5.163523005321622">
        <ele>11.19</ele>
        <time>2023-08-30T16:44:19Z</time>
      </trkpt>
      <trkpt lat="56.841385010629892" lon="-5.163531973958015">
        <ele>11.67</ele>
        <time>2023-08-30T16:44:20Z</time>
      </trkpt>
      <trkpt lat="56.841519959270954" lon="-5.163542032241821">
        <ele>12.15</ele>
        <time>2023-08-30T16:44:21Z</time>
      </trkpt>
      <trkpt lat="56.841770997270942" lon="-5.163597017526627">
        <ele>12.630000000000001</ele>
        <time>2023-08-30T16:44:23Z</time>
      </trkpt>
      <trkpt lat="56.841966966167092" lon="-5.163742024451494">
        <ele>12.15</ele>
        <time>2023-08-30T16:44:25Z</time>
      </trkpt>
      <trkpt lat="56.842051958665252" lon="-5.163864986971021">
        <ele>11.67</ele>
        <time>2023-08-30T16:44:26Z</time>
      </trkpt>
      <trkpt lat="56.842147009447217" lon="-5.164003958925605">
        <ele>11.67</ele>
        <time>2023-08-30T16:44:27Z</time>
      </trkpt>
      <trkpt lat="56.842200988903642" lon="-5.164194982498884">
        <ele>11.19</ele>
        <time>2023-08-30T16:44:28Z</time>
      </trkpt>
      <trkpt lat="56.842275001108646" lon="-5.164453983306885">
        <ele>10.710000000000001</ele>
        <time>2023-08-30T16:44:29Z</time>
      </trkpt>
      <trkpt lat="56.842310959473252" lon="-5.164667973294854">
        <ele>10.710000000000001</ele>
        <time>2023-08-30T16:44:30Z</time>
      </trkpt>
      <trkpt lat="56.842650007456541" lon="-5.166687006130815">
        <ele>8.310000000000001</ele>
        <time>2023-08-30T16:44:37Z</time>
      </trkpt>
      <trkpt lat="56.84277799911797" lon="-5.167453028261662">
        <ele>7.83</ele>
        <time>2023-08-30T16:44:40Z</time>
      </trkpt>
      <trkpt lat="56.842871960252523" lon="-5.167868016287684">
        <ele>7.83</ele>
        <time>2023-08-30T16:44:42Z</time>
      </trkpt>
      <trkpt lat="56.84294999577105" lon="-5.168042024597526">
        <ele>8.310000000000001</ele>
        <time>2023-08-30T16:44:43Z</time>
      </trkpt>
      <trkpt lat="56.84303498826921" lon="-5.168216032907367">
        <ele>8.310000000000001</ele>
        <time>2023-08-30T16:44:44Z</time>
      </trkpt>
      <trkpt lat="56.843783995136619" lon="-5.169571973383427">
        <ele>9.27</ele>
        <time>2023-08-30T16:44:51Z</time>
      </trkpt>
      <trkpt lat="56.844469970092177" lon="-5.171726960688829">
        <ele>9.75</ele>
        <time>2023-08-30T16:45:00Z</time>
      </trkpt>
      <trkpt lat="56.844485979527235" lon="-5.171968024224043">
        <ele>9.75</ele>
        <time>2023-08-30T16:45:01Z</time>
      </trkpt>
      <trkpt lat="56.844502994790673" lon="-5.172211015596986">
        <ele>9.75</ele>
        <time>2023-08-30T16:45:02Z</time>
      </trkpt>
      <trkpt lat="56.844491008669138" lon="-5.172465993091464">
        <ele>9.75</ele>
        <time>2023-08-30T16:45:03Z</time>
      </trkpt>
      <trkpt lat="56.844467958435416" lon="-5.172747960314155">
        <ele>9.27</ele>
        <time>2023-08-30T16:45:04Z</time>
      </trkpt>
      <trkpt lat="56.844442980363965" lon="-5.173044009134173">
        <ele>9.27</ele>
        <time>2023-08-30T16:45:05Z</time>
      </trkpt>
      <trkpt lat="56.844424037262797" lon="-5.173367969691753">
        <ele>9.27</ele>
        <time>2023-08-30T16:45:06Z</time>
      </trkpt>
      <trkpt lat="56.844441974535584" lon="-5.17368002794683">
        <ele>9.27</ele>
        <time>2023-08-30T16:45:07Z</time>
      </trkpt>
      <trkpt lat="56.844459995627403" lon="-5.173999965190888">
        <ele>9.27</ele>
        <time>2023-08-30T16:45:08Z</time>
      </trkpt>
      <trkpt lat="56.844954025000334" lon="-5.177637040615082">
        <ele>8.789999999999999</ele>
        <time>2023-08-30T16:45:19Z</time>
      </trkpt>
      <trkpt lat="56.845413018018007" lon="-5.179540989920497">
        <ele>9.75</ele>
        <time>2023-08-30T16:45:25Z</time>
      </trkpt>
      <trkpt lat="56.84548401273787" lon="-5.179823040962219">
        <ele>10.23</ele>
        <time>2023-08-30T16:45:26Z</time>
      </trkpt>
      <trkpt lat="56.845660032704473" lon="-5.180636001750827">
        <ele>12.630000000000001</ele>
        <time>2023-08-30T16:45:29Z</time>
      </trkpt>
      <trkpt lat="56.84584703296423" lon="-5.182785037904978">
        <ele>14.08</ele>
        <time>2023-08-30T16:45:36Z</time>
      </trkpt>
      <trkpt lat="56.845958009362221" lon="-5.185657013207674">
        <ele>15.52</ele>
        <time>2023-08-30T16:45:45Z</time>
      </trkpt>
      <trkpt lat="56.84593596495688" lon="-5.185952978208661">
        <ele>15.52</ele>
        <time>2023-08-30T16:45:46Z</time>
      </trkpt>
      <trkpt lat="56.84574100188911" lon="-5.187689960002899">
        <ele>16.48</ele>
        <time>2023-08-30T16:45:52Z</time>
      </trkpt>
      <trkpt lat="56.845650980249047" lon="-5.188149036839604">
        <ele>16.960000000000001</ele>
        <time>2023-08-30T16:45:54Z</time>
      </trkpt>
      <trkpt lat="56.845589959993958" lon="-5.188354980200529">
        <ele>17.440000000000001</ele>
        <time>2023-08-30T16:45:55Z</time>
      </trkpt>
      <trkpt lat="56.845525000244379" lon="-5.188547009602189">
        <ele>17.920000000000002</ele>
        <time>2023-08-30T16:45:56Z</time>
      </trkpt>
      <trkpt lat="56.845181006938219" lon="-5.189417973160744">
        <ele>18.879999999999999</ele>
        <time>2023-08-30T16:46:00Z</time>
      </trkpt>
      <trkpt lat="56.845121998339891" lon="-5.189668005332351">
        <ele>19.359999999999999</ele>
        <time>2023-08-30T16:46:01Z</time>
      </trkpt>
      <trkpt lat="56.845071036368608" lon="-5.189938992261887">
        <ele>19.359999999999999</ele>
        <time>2023-08-30T16:46:02Z</time>
      </trkpt>
      <trkpt lat="56.84475596062839" lon="-5.192761011421681">
        <ele>16</ele>
        <time>2023-08-30T16:46:11Z</time>
      </trkpt>
      <trkpt lat="56.844555968418717" lon="-5.195278013125062">
        <ele>15.039999999999999</ele>
        <time>2023-08-30T16:46:19Z</time>
      </trkpt>
      <trkpt lat="56.844534007832408" lon="-5.195547994226217">
        <ele>15.039999999999999</ele>
        <time>2023-08-30T16:46:20Z</time>
      </trkpt>
      <trkpt lat="56.844511963427067" lon="-5.195820992812514">
        <ele>15.039999999999999</ele>
        <time>2023-08-30T16:46:21Z</time>
      </trkpt>
      <trkpt lat="56.844468964263797" lon="-5.196085022762418">
        <ele>15.52</ele>
        <time>2023-08-30T16:46:22Z</time>
      </trkpt>
      <trkpt lat="56.844418002292514" lon="-5.19634704105556">
        <ele>16</ele>
        <time>2023-08-30T16:46:23Z</time>
      </trkpt>
      <trkpt lat="56.84436603449285" lon="-5.196617022156715">
        <ele>16.48</ele>
        <time>2023-08-30T16:46:24Z</time>
      </trkpt>
      <trkpt lat="56.844057999551296" lon="-5.198201034218073">
        <ele>18.399999999999999</ele>
        <time>2023-08-30T16:46:31Z</time>
      </trkpt>
      <trkpt lat="56.844037966802716" lon="-5.198307987302542">
        <ele>18.399999999999999</ele>
        <time>2023-08-30T16:46:32Z</time>
      </trkpt>
      <trkpt lat="56.843995973467827" lon="-5.198520971462131">
        <ele>16.960000000000001</ele>
        <time>2023-08-30T16:46:39Z</time>
      </trkpt>
      <trkpt lat="56.843987004831433" lon="-5.198567993938923">
        <ele>16.960000000000001</ele>
        <time>2023-08-30T16:46:42Z</time>
      </trkpt>
      <trkpt lat="56.843975018709898" lon="-5.198632031679153">
        <ele>16.960000000000001</ele>
        <time>2023-08-30T16:46:43Z</time>
      </trkpt>
      <trkpt lat="56.843976024538279" lon="-5.199218010529876">
        <ele>16</ele>
        <time>2023-08-30T16:46:47Z</time>
      </trkpt>
      <trkpt lat="56.843990022316575" lon="-5.199433006346226">
        <ele>16</ele>
        <time>2023-08-30T16:46:48Z</time>
      </trkpt>
      <trkpt lat="56.84406797401607" lon="-5.199622018262744">
        <ele>16</ele>
        <time>2023-08-30T16:46:49Z</time>
      </trkpt>
      <trkpt lat="56.844165036454797" lon="-5.199813041836023">
        <ele>16</ele>
        <time>2023-08-30T16:46:50Z</time>
      </trkpt>
      <trkpt lat="56.844268972054124" lon="-5.200018985196948">
        <ele>16</ele>
        <time>2023-08-30T16:46:51Z</time>
      </trkpt>
      <trkpt lat="56.844669040292501" lon="-5.200840998440981">
        <ele>15.52</ele>
        <time>2023-08-30T16:46:55Z</time>
      </trkpt>
      <trkpt lat="56.844715978950262" lon="-5.201066974550486">
        <ele>15.039999999999999</ele>
        <time>2023-08-30T16:46:56Z</time>
      </trkpt>
      <trkpt lat="56.844763001427054" lon="-5.201295968145132">
        <ele>15.039999999999999</ele>
        <time>2023-08-30T16:46:57Z</time>
      </trkpt>
      <trkpt lat="56.844798037782311" lon="-5.201534014195204">
        <ele>15.039999999999999</ele>
        <time>2023-08-30T16:46:58Z</time>
      </trkpt>
      <trkpt lat="56.844823015853763" lon="-5.201791003346443">
        <ele>14.56</ele>
        <time>2023-08-30T16:46:59Z</time>
      </trkpt>
      <trkpt lat="56.845092996954918" lon="-5.203736023977399">
        <ele>13.6</ele>
        <time>2023-08-30T16:47:06Z</time>
      </trkpt>
      <trkpt lat="56.845216965302825" lon="-5.204545967280865">
        <ele>14.08</ele>
        <time>2023-08-30T16:47:09Z</time>
      </trkpt>
      <trkpt lat="56.845223000273108" lon="-5.204832963645458">
        <ele>14.08</ele>
        <time>2023-08-30T16:47:10Z</time>
      </trkpt>
      <trkpt lat="56.845278991386294" lon="-5.207480974495411">
        <ele>16</ele>
        <time>2023-08-30T16:47:19Z</time>
      </trkpt>
      <trkpt lat="56.845265999436378" lon="-5.207743998616934">
        <ele>16.48</ele>
        <time>2023-08-30T16:47:20Z</time>
      </trkpt>
      <trkpt lat="56.845224006101489" lon="-5.207981038838625">
        <ele>16.960000000000001</ele>
        <time>2023-08-30T16:47:21Z</time>
      </trkpt>
      <trkpt lat="56.84511998668313" lon="-5.208472972735763">
        <ele>18.399999999999999</ele>
        <time>2023-08-30T16:47:23Z</time>
      </trkpt>
      <trkpt lat="56.844439962878823" lon="-5.21110899746418">
        <ele>19.359999999999999</ele>
        <time>2023-08-30T16:47:32Z</time>
      </trkpt>
      <trkpt lat="56.844121031463146" lon="-5.212598964571953">
        <ele>20.32</ele>
        <time>2023-08-30T16:47:37Z</time>
      </trkpt>
      <trkpt lat="56.844047019258142" lon="-5.213542012497783">
        <ele>20.32</ele>
        <time>2023-08-30T16:47:42Z</time>
      </trkpt>
      <trkpt lat="56.844004020094872" lon="-5.214232010766864">
        <ele>18.399999999999999</ele>
        <time>2023-08-30T16:47:49Z</time>
      </trkpt>
      <trkpt lat="56.843940988183022" lon="-5.216022972017527">
        <ele>17.440000000000001</ele>
        <time>2023-08-30T16:47:56Z</time>
      </trkpt>
      <trkpt lat="56.843718029558659" lon="-5.219456031918526">
        <ele>14.56</ele>
        <time>2023-08-30T16:48:07Z</time>
      </trkpt>
      <trkpt lat="56.843350986018777" lon="-5.222616009414196">
        <ele>15.52</ele>
        <time>2023-08-30T16:48:17Z</time>
      </trkpt>
      <trkpt lat="56.843274962157011" lon="-5.223187990486622">
        <ele>15.039999999999999</ele>
        <time>2023-08-30T16:48:19Z</time>
      </trkpt>
      <trkpt lat="56.843242021277547" lon="-5.223471969366074">
        <ele>15.039999999999999</ele>
        <time>2023-08-30T16:48:20Z</time>
      </trkpt>
      <trkpt lat="56.843248978257179" lon="-5.223778998479247">
        <ele>15.039999999999999</ele>
        <time>2023-08-30T16:48:21Z</time>
      </trkpt>
      <trkpt lat="56.843261970207095" lon="-5.22561295889318">
        <ele>14.56</ele>
        <time>2023-08-30T16:48:27Z</time>
      </trkpt>
      <trkpt lat="56.843248978257179" lon="-5.225882017984986">
        <ele>15.039999999999999</ele>
        <time>2023-08-30T16:48:28Z</time>
      </trkpt>
      <trkpt lat="56.843226011842489" lon="-5.226145964115858">
        <ele>15.039999999999999</ele>
        <time>2023-08-30T16:48:29Z</time>
      </trkpt>
      <trkpt lat="56.843182006850839" lon="-5.226413011550903">
        <ele>15.039999999999999</ele>
        <time>2023-08-30T16:48:30Z</time>
      </trkpt>
      <trkpt lat="56.843135990202427" lon="-5.226690033450723">
        <ele>15.039999999999999</ele>
        <time>2023-08-30T16:48:31Z</time>
      </trkpt>
      <trkpt lat="56.843085028231144" lon="-5.226980969309807">
        <ele>15.039999999999999</ele>
        <time>2023-08-30T16:48:32Z</time>
      </trkpt>
      <trkpt lat="56.84279702603817" lon="-5.228085033595562">
        <ele>15.039999999999999</ele>
        <time>2023-08-30T16:48:36Z</time>
      </trkpt>
      <trkpt lat="56.842457978054881" lon="-5.23074796423316">
        <ele>16</ele>
        <time>2023-08-30T16:48:45Z</time>
      </trkpt>
      <trkpt lat="56.842319006100297" lon="-5.232041962444782">
        <ele>16.48</ele>
        <time>2023-08-30T16:48:49Z</time>
      </trkpt>
      <trkpt lat="56.842284975573421" lon="-5.232367012649775">
        <ele>16.48</ele>
        <time>2023-08-30T16:48:50Z</time>
      </trkpt>
      <trkpt lat="56.842210963368416" lon="-5.23360300809145">
        <ele>16</ele>
        <time>2023-08-30T16:48:54Z</time>
      </trkpt>
      <trkpt lat="56.842210963368416" lon="-5.233914982527494">
        <ele>16</ele>
        <time>2023-08-30T16:48:55Z</time>
      </trkpt>
      <trkpt lat="56.842227978631854" lon="-5.234221005812287">
        <ele>16</ele>
        <time>2023-08-30T16:48:56Z</time>
      </trkpt>
      <trkpt lat="56.842458983883262" lon="-5.236316984519362">
        <ele>16</ele>
        <time>2023-08-30T16:49:03Z</time>
      </trkpt>
      <trkpt lat="56.842532996088266" lon="-5.239226007834077">
        <ele>16.960000000000001</ele>
        <time>2023-08-30T16:49:12Z</time>
      </trkpt>
      <trkpt lat="56.842516986653209" lon="-5.240230998024344">
        <ele>16.960000000000001</ele>
        <time>2023-08-30T16:49:15Z</time>
      </trkpt>
      <trkpt lat="56.842483961954713" lon="-5.240546995773912">
        <ele>16.960000000000001</ele>
        <time>2023-08-30T16:49:16Z</time>
      </trkpt>
      <trkpt lat="56.842163018882275" lon="-5.24260500445962">
        <ele>17.440000000000001</ele>
        <time>2023-08-30T16:49:24Z</time>
      </trkpt>
      <trkpt lat="56.842144997790456" lon="-5.24284397251904">
        <ele>17.920000000000002</ele>
        <time>2023-08-30T16:49:25Z</time>
      </trkpt>
      <trkpt lat="56.842113984748721" lon="-5.245115971192718">
        <ele>17.440000000000001</ele>
        <time>2023-08-30T16:49:33Z</time>
      </trkpt>
      <trkpt lat="56.842222027480602" lon="-5.248022982850671">
        <ele>17.440000000000001</ele>
        <time>2023-08-30T16:49:42Z</time>
      </trkpt>
      <trkpt lat="56.842493014410138" lon="-5.251798024401069">
        <ele>15.52</ele>
        <time>2023-08-30T16:49:54Z</time>
      </trkpt>
      <trkpt lat="56.842439034953713" lon="-5.254409993067384">
        <ele>15.52</ele>
        <time>2023-08-30T16:50:02Z</time>
      </trkpt>
      <trkpt lat="56.842454960569739" lon="-5.25536703877151">
        <ele>16</ele>
        <time>2023-08-30T16:50:05Z</time>
      </trkpt>
      <trkpt lat="56.84266903437674" lon="-5.257887979969382">
        <ele>16.48</ele>
        <time>2023-08-30T16:50:14Z</time>
      </trkpt>
      <trkpt lat="56.842678003013134" lon="-5.258284024894238">
        <ele>16.48</ele>
        <time>2023-08-30T16:50:16Z</time>
      </trkpt>
      <trkpt lat="56.842682026326656" lon="-5.258448980748653">
        <ele>16.48</ele>
        <time>2023-08-30T16:50:17Z</time>
      </trkpt>
      <trkpt lat="56.842672973871231" lon="-5.258576972410083">
        <ele>16.48</ele>
        <time>2023-08-30T16:50:18Z</time>
      </trkpt>
      <trkpt lat="56.842587981373072" lon="-5.259158005937934">
        <ele>16.48</ele>
        <time>2023-08-30T16:50:24Z</time>
      </trkpt>
      <trkpt lat="56.842556968331337" lon="-5.259268982335925">
        <ele>16.48</ele>
        <time>2023-08-30T16:50:25Z</time>
      </trkpt>
      <trkpt lat="56.842460995540023" lon="-5.259592020884156">
        <ele>16.48</ele>
        <time>2023-08-30T16:50:28Z</time>
      </trkpt>
      <trkpt lat="56.842032009735703" lon="-5.260786022990942">
        <ele>15.52</ele>
        <time>2023-08-30T16:50:36Z</time>
      </trkpt>
      <trkpt lat="56.841823970898986" lon="-5.261434027925134">
        <ele>15.039999999999999</ele>
        <time>2023-08-30T16:50:39Z</time>
      </trkpt>
      <trkpt lat="56.841762028634548" lon="-5.261671990156174">
        <ele>15.039999999999999</ele>
        <time>2023-08-30T16:50:40Z</time>
      </trkpt>
      <trkpt lat="56.841727998107672" lon="-5.261917999014258">
        <ele>14.56</ele>
        <time>2023-08-30T16:50:41Z</time>
      </trkpt>
      <trkpt lat="56.841694973409176" lon="-5.262166019529104">
        <ele>14.56</ele>
        <time>2023-08-30T16:50:42Z</time>
      </trkpt>
      <trkpt lat="56.841675024479628" lon="-5.262412028387189">
        <ele>14.56</ele>
        <time>2023-08-30T16:50:43Z</time>
      </trkpt>
      <trkpt lat="56.841675024479628" lon="-5.262662982568145">
        <ele>14.08</ele>
        <time>2023-08-30T16:50:44Z</time>
      </trkpt>
      <trkpt lat="56.841759011149406" lon="-5.264230985194445">
        <ele>13.119999999999999</ele>
        <time>2023-08-30T16:50:51Z</time>
      </trkpt>
      <trkpt lat="56.841781977564096" lon="-5.264433994889259">
        <ele>13.119999999999999</ele>
        <time>2023-08-30T16:50:52Z</time>
      </trkpt>
      <trkpt lat="56.84181097894907" lon="-5.264637004584074">
        <ele>13.119999999999999</ele>
        <time>2023-08-30T16:50:53Z</time>
      </trkpt>
      <trkpt lat="56.841885996982455" lon="-5.264826016500592">
        <ele>12.630000000000001</ele>
        <time>2023-08-30T16:50:54Z</time>
      </trkpt>
      <trkpt lat="56.841967971995473" lon="-5.265030032023788">
        <ele>12.630000000000001</ele>
        <time>2023-08-30T16:50:55Z</time>
      </trkpt>
      <trkpt lat="56.842057993635535" lon="-5.265253996476531">
        <ele>12.15</ele>
        <time>2023-08-30T16:50:56Z</time>
      </trkpt>
      <trkpt lat="56.842849999666214" lon="-5.266847983002663">
        <ele>11.19</ele>
        <time>2023-08-30T16:51:03Z</time>
      </trkpt>
      <trkpt lat="56.844030003994703" lon="-5.26920598000288">
        <ele>10.23</ele>
        <time>2023-08-30T16:51:14Z</time>
      </trkpt>
      <trkpt lat="56.844649007543921" lon="-5.271129040047526">
        <ele>8.789999999999999</ele>
        <time>2023-08-30T16:51:22Z</time>
      </trkpt>
      <trkpt lat="56.845175977796316" lon="-5.274719009175897">
        <ele>6.39</ele>
        <time>2023-08-30T16:51:34Z</time>
      </trkpt>
      <trkpt lat="56.845426009967923" lon="-5.278232032433152">
        <ele>6.87</ele>
        <time>2023-08-30T16:51:45Z</time>
      </trkpt>
      <trkpt lat="56.84563497081399" lon="-5.281072994694114">
        <ele>6.87</ele>
        <time>2023-08-30T16:51:54Z</time>
      </trkpt>
      <trkpt lat="56.846033027395606" lon="-5.283140977844596">
        <ele>7.35</ele>
        <time>2023-08-30T16:52:01Z</time>
      </trkpt>
      <trkpt lat="56.846737023442984" lon="-5.286384020000696">
        <ele>7.83</ele>
        <time>2023-08-30T16:52:12Z</time>
      </trkpt>
      <trkpt lat="56.846785973757505" lon="-5.28718801215291">
        <ele>8.310000000000001</ele>
        <time>2023-08-30T16:52:18Z</time>
      </trkpt>
      <trkpt lat="56.846795026212931" lon="-5.28824002481997">
        <ele>8.310000000000001</ele>
        <time>2023-08-30T16:52:29Z</time>
      </trkpt>
      <trkpt lat="56.846810029819608" lon="-5.289439978078008">
        <ele>6.87</ele>
        <time>2023-08-30T16:52:35Z</time>
      </trkpt>
      <trkpt lat="56.846849005669355" lon="-5.291711976751685">
        <ele>6.87</ele>
        <time>2023-08-30T16:52:43Z</time>
      </trkpt>
      <trkpt lat="56.846894016489387" lon="-5.294401980936527">
        <ele>7.35</ele>
        <time>2023-08-30T16:52:52Z</time>
      </trkpt>
      <trkpt lat="56.846937015652657" lon="-5.29700699262321">
        <ele>9.27</ele>
        <time>2023-08-30T16:53:01Z</time>
      </trkpt>
      <trkpt lat="56.847104988992214" lon="-5.300484979525209">
        <ele>5.91</ele>
        <time>2023-08-30T16:53:13Z</time>
      </trkpt>
      <trkpt lat="56.847204985097051" lon="-5.303458040580154">
        <ele>4.94</ele>
        <time>2023-08-30T16:53:23Z</time>
      </trkpt>
      <trkpt lat="56.846936009824276" lon="-5.306559009477496">
        <ele>3.5</ele>
        <time>2023-08-30T16:53:33Z</time>
      </trkpt>
      <trkpt lat="56.846522027626634" lon="-5.309328977018595">
        <ele>3.5</ele>
        <time>2023-08-30T16:53:42Z</time>
      </trkpt>
      <trkpt lat="56.846368974074721" lon="-5.31262599863112">
        <ele>0.62</ele>
        <time>2023-08-30T16:53:52Z</time>
      </trkpt>
      <trkpt lat="56.846419014036655" lon="-5.313179036602378">
        <ele>0.62</ele>
        <time>2023-08-30T16:53:54Z</time>
      </trkpt>
      <trkpt lat="56.846463019028306" lon="-5.313426973298192">
        <ele>0.62</ele>
        <time>2023-08-30T16:53:55Z</time>
      </trkpt>
      <trkpt lat="56.846524961292744" lon="-5.313674993813038">
        <ele>0.14</ele>
        <time>2023-08-30T16:53:56Z</time>
      </trkpt>
      <trkpt lat="56.846586987376213" lon="-5.313924020156264">
        <ele>0.14</ele>
        <time>2023-08-30T16:53:57Z</time>
      </trkpt>
      <trkpt lat="56.846649013459682" lon="-5.31417103484273">
        <ele>-0.34</ele>
        <time>2023-08-30T16:53:58Z</time>
      </trkpt>
      <trkpt lat="56.846731994301081" lon="-5.314400028437376">
        <ele>-0.34</ele>
        <time>2023-08-30T16:53:59Z</time>
      </trkpt>
      <trkpt lat="56.846831990405917" lon="-5.314621981233358">
        <ele>-0.34</ele>
        <time>2023-08-30T16:54:00Z</time>
      </trkpt>
      <trkpt lat="56.846939027309418" lon="-5.314843012019992">
        <ele>-0.82</ele>
        <time>2023-08-30T16:54:01Z</time>
      </trkpt>
      <trkpt lat="56.848068991675973" lon="-5.316717959940434">
        <ele>-2.75</ele>
        <time>2023-08-30T16:54:10Z</time>
      </trkpt>
      <trkpt lat="56.848273007199168" lon="-5.317111993208528">
        <ele>-3.71</ele>
        <time>2023-08-30T16:54:12Z</time>
      </trkpt>
      <trkpt lat="56.848373003304005" lon="-5.317307962104678">
        <ele>-4.19</ele>
        <time>2023-08-30T16:54:13Z</time>
      </trkpt>
      <trkpt lat="56.848442992195487" lon="-5.317548019811511">
        <ele>-4.67</ele>
        <time>2023-08-30T16:54:14Z</time>
      </trkpt>
      <trkpt lat="56.848920006304979" lon="-5.319344010204077">
        <ele>-5.63</ele>
        <time>2023-08-30T16:54:22Z</time>
      </trkpt>
      <trkpt lat="56.849453011527658" lon="-5.321512995287776">
        <ele>-5.15</ele>
        <time>2023-08-30T16:54:32Z</time>
      </trkpt>
      <trkpt lat="56.849575974047184" lon="-5.322011969983578">
        <ele>-4.67</ele>
        <time>2023-08-30T16:54:34Z</time>
      </trkpt>
      <trkpt lat="56.84980396181345" lon="-5.322781009599567">
        <ele>-4.19</ele>
        <time>2023-08-30T16:54:37Z</time>
      </trkpt>
      <trkpt lat="56.849908987060189" lon="-5.323000028729439">
        <ele>-4.19</ele>
        <time>2023-08-30T16:54:38Z</time>
      </trkpt>
      <trkpt lat="56.850020969286561" lon="-5.323201026767492">
        <ele>-3.71</ele>
        <time>2023-08-30T16:54:39Z</time>
      </trkpt>
      <trkpt lat="56.850153990089893" lon="-5.323380986228585">
        <ele>-3.23</ele>
        <time>2023-08-30T16:54:40Z</time>
      </trkpt>
      <trkpt lat="56.850288016721606" lon="-5.323549965396524">
        <ele>-3.23</ele>
        <time>2023-08-30T16:54:41Z</time>
      </trkpt>
      <trkpt lat="56.851067030802369" lon="-5.324597032740712">
        <ele>-1.79</ele>
        <time>2023-08-30T16:54:47Z</time>
      </trkpt>
      <trkpt lat="56.851331982761621" lon="-5.325257023796439">
        <ele>-1.3</ele>
        <time>2023-08-30T16:54:50Z</time>
      </trkpt>
      <trkpt lat="56.851407000795007" lon="-5.325482999905944">
        <ele>-1.3</ele>
        <time>2023-08-30T16:54:51Z</time>
      </trkpt>
      <trkpt lat="56.851462991908193" lon="-5.32573495991528">
        <ele>-1.3</ele>
        <time>2023-08-30T16:54:52Z</time>
      </trkpt>
      <trkpt lat="56.85216698795557" lon="-5.328340977430344">
        <ele>0.14</ele>
        <time>2023-08-30T16:55:02Z</time>
      </trkpt>
      <trkpt lat="56.852288022637367" lon="-5.328549016267061">
        <ele>0.14</ele>
        <time>2023-08-30T16:55:03Z</time>
      </trkpt>
      <trkpt lat="56.852412996813655" lon="-5.328763006255031">
        <ele>0.14</ele>
        <time>2023-08-30T16:55:04Z</time>
      </trkpt>
      <trkpt lat="56.853577997535467" lon="-5.330576011911035">
        <ele>0.14</ele>
        <time>2023-08-30T16:55:13Z</time>
      </trkpt>
      <trkpt lat="56.854240000247955" lon="-5.332426987588406">
        <ele>0.14</ele>
        <time>2023-08-30T16:55:20Z</time>
      </trkpt>
      <trkpt lat="56.85500199906528" lon="-5.335620995610952">
        <ele>2.06</ele>
        <time>2023-08-30T16:55:31Z</time>
      </trkpt>
      <trkpt lat="56.854989007115364" lon="-5.338240005075932">
        <ele>3.02</ele>
        <time>2023-08-30T16:55:39Z</time>
      </trkpt>
      <trkpt lat="56.854978026822209" lon="-5.342382006347179">
        <ele>1.58</ele>
        <time>2023-08-30T16:55:51Z</time>
      </trkpt>
      <trkpt lat="56.855297964066267" lon="-5.344402967020869">
        <ele>1.58</ele>
        <time>2023-08-30T16:55:58Z</time>
      </trkpt>
      <trkpt lat="56.856090975925326" lon="-5.346699021756649">
        <ele>3.5</ele>
        <time>2023-08-30T16:56:07Z</time>
      </trkpt>
      <trkpt lat="56.856773011386395" lon="-5.348605988547206">
        <ele>8.789999999999999</ele>
        <time>2023-08-30T16:56:16Z</time>
      </trkpt>
      <trkpt lat="56.856862027198076" lon="-5.348905976861715">
        <ele>10.23</ele>
        <time>2023-08-30T16:56:18Z</time>
      </trkpt>
      <trkpt lat="56.856895973905921" lon="-5.349023994058371">
        <ele>10.710000000000001</ele>
        <time>2023-08-30T16:56:19Z</time>
      </trkpt>
      <trkpt lat="56.856922041624784" lon="-5.34910898655653">
        <ele>11.19</ele>
        <time>2023-08-30T16:56:20Z</time>
      </trkpt>
      <trkpt lat="56.856950037181377" lon="-5.349155003204942">
        <ele>11.67</ele>
        <time>2023-08-30T16:56:21Z</time>
      </trkpt>
      <trkpt lat="56.85699999332428" lon="-5.34919498488307">
        <ele>12.15</ele>
        <time>2023-08-30T16:56:22Z</time>
      </trkpt>
      <trkpt lat="56.857060007750988" lon="-5.349242007359862">
        <ele>12.630000000000001</ele>
        <time>2023-08-30T16:56:23Z</time>
      </trkpt>
      <trkpt lat="56.857123961672187" lon="-5.349291963502765">
        <ele>12.630000000000001</ele>
        <time>2023-08-30T16:56:24Z</time>
      </trkpt>
      <trkpt lat="56.85719596222043" lon="-5.349348038434982">
        <ele>13.119999999999999</ele>
        <time>2023-08-30T16:56:25Z</time>
      </trkpt>
      <trkpt lat="56.857262011617422" lon="-5.349434036761522">
        <ele>13.6</ele>
        <time>2023-08-30T16:56:26Z</time>
      </trkpt>
      <trkpt lat="56.857325965538621" lon="-5.349552975967526">
        <ele>13.6</ele>
        <time>2023-08-30T16:56:27Z</time>
      </trkpt>
      <trkpt lat="56.857391009107232" lon="-5.349671998992562">
        <ele>14.08</ele>
        <time>2023-08-30T16:56:28Z</time>
      </trkpt>
      <trkpt lat="56.85745102353394" lon="-5.349783981218934">
        <ele>14.56</ele>
        <time>2023-08-30T16:56:29Z</time>
      </trkpt>
      <trkpt lat="56.857587983831763" lon="-5.350038036704063">
        <ele>14.56</ele>
        <time>2023-08-30T16:56:32Z</time>
      </trkpt>
      <trkpt lat="56.857717987149954" lon="-5.350237023085356">
        <ele>15.039999999999999</ele>
        <time>2023-08-30T16:56:37Z</time>
      </trkpt>
      <trkpt lat="56.857842961326241" lon="-5.350321009755135">
        <ele>15.039999999999999</ele>
        <time>2023-08-30T16:56:39Z</time>
      </trkpt>
      <trkpt lat="56.85792401432991" lon="-5.350374989211559">
        <ele>15.039999999999999</ele>
        <time>2023-08-30T16:56:40Z</time>
      </trkpt>
      <trkpt lat="56.85833397321403" lon="-5.350387981161475">
        <ele>15.52</ele>
        <time>2023-08-30T16:56:44Z</time>
      </trkpt>
      <trkpt lat="56.858645025640726" lon="-5.350232999771833">
        <ele>15.52</ele>
        <time>2023-08-30T16:56:47Z</time>
      </trkpt>
      <trkpt lat="56.85874099843204" lon="-5.350131997838616">
        <ele>15.52</ele>
        <time>2023-08-30T16:56:48Z</time>
      </trkpt>
      <trkpt lat="56.858834959566593" lon="-5.350030995905399">
        <ele>15.52</ele>
        <time>2023-08-30T16:56:49Z</time>
      </trkpt>
      <trkpt lat="56.858921041712165" lon="-5.349939968436956">
        <ele>15.52</ele>
        <time>2023-08-30T16:56:50Z</time>
      </trkpt>
      <trkpt lat="56.859012991189957" lon="-5.349874002858996">
        <ele>15.039999999999999</ele>
        <time>2023-08-30T16:56:51Z</time>
      </trkpt>
      <trkpt lat="56.859087003394961" lon="-5.349822035059333">
        <ele>14.56</ele>
        <time>2023-08-30T16:56:52Z</time>
      </trkpt>
      <trkpt lat="56.859140982851386" lon="-5.349783981218934">
        <ele>14.08</ele>
        <time>2023-08-30T16:56:54Z</time>
      </trkpt>
      <trkpt lat="56.859248019754887" lon="-5.349634028971195">
        <ele>14.08</ele>
        <time>2023-08-30T16:56:55Z</time>
      </trkpt>
      <trkpt lat="56.859279032796621" lon="-5.349551970139146">
        <ele>14.08</ele>
        <time>2023-08-30T16:56:56Z</time>
      </trkpt>
      <trkpt lat="56.859323037788272" lon="-5.349434958770871">
        <ele>13.6</ele>
        <time>2023-08-30T16:56:57Z</time>
      </trkpt>
      <trkpt lat="56.859372993931174" lon="-5.349302021786571">
        <ele>13.6</ele>
        <time>2023-08-30T16:56:58Z</time>
      </trkpt>
      <trkpt lat="56.859426973387599" lon="-5.349160032346845">
        <ele>13.6</ele>
        <time>2023-08-30T16:56:59Z</time>
      </trkpt>
      <trkpt lat="56.859482964500785" lon="-5.349016031250358">
        <ele>14.08</ele>
        <time>2023-08-30T16:57:00Z</time>
      </trkpt>
      <trkpt lat="56.859571980312467" lon="-5.348899019882083">
        <ele>14.08</ele>
        <time>2023-08-30T16:57:01Z</time>
      </trkpt>
      <trkpt lat="56.859635012224317" lon="-5.348817966878414">
        <ele>15.039999999999999</ele>
        <time>2023-08-30T16:57:02Z</time>
      </trkpt>
      <trkpt lat="56.859754035249352" lon="-5.348765999078751">
        <ele>15.52</ele>
        <time>2023-08-30T16:57:03Z</time>
      </trkpt>
      <trkpt lat="56.859842967242002" lon="-5.348726017400622">
        <ele>16.48</ele>
        <time>2023-08-30T16:57:04Z</time>
      </trkpt>
      <trkpt lat="56.859928965568542" lon="-5.348687963560224">
        <ele>16.960000000000001</ele>
        <time>2023-08-30T16:57:05Z</time>
      </trkpt>
      <trkpt lat="56.860022004693747" lon="-5.348646976053715">
        <ele>17.440000000000001</ele>
        <time>2023-08-30T16:57:06Z</time>
      </trkpt>
      <trkpt lat="56.860104985535145" lon="-5.348670026287437">
        <ele>17.920000000000002</ele>
        <time>2023-08-30T16:57:07Z</time>
      </trkpt>
      <trkpt lat="56.860177991911769" lon="-5.348689975216985">
        <ele>18.399999999999999</ele>
        <time>2023-08-30T16:57:08Z</time>
      </trkpt>
      <trkpt lat="56.860392987728119" lon="-5.348747977986932">
        <ele>20.32</ele>
        <time>2023-08-30T16:57:15Z</time>
      </trkpt>
      <trkpt lat="56.860434981063008" lon="-5.348759964108467">
        <ele>20.32</ele>
        <time>2023-08-30T16:57:16Z</time>
      </trkpt>
      <trkpt lat="56.860461970791221" lon="-5.348767004907131">
        <ele>20.809999999999999</ele>
        <time>2023-08-30T16:57:17Z</time>
      </trkpt>
      <trkpt lat="56.86050396412611" lon="-5.34863498993218">
        <ele>21.289999999999999</ele>
        <time>2023-08-30T16:57:18Z</time>
      </trkpt>
      <trkpt lat="56.860512010753155" lon="-5.348525019362569">
        <ele>21.289999999999999</ele>
        <time>2023-08-30T16:57:19Z</time>
      </trkpt>
      <trkpt lat="56.86052399687469" lon="-5.348379006609321">
        <ele>21.289999999999999</ele>
        <time>2023-08-30T16:57:20Z</time>
      </trkpt>
      <trkpt lat="56.860536988824606" lon="-5.348211033269763">
        <ele>21.289999999999999</ele>
        <time>2023-08-30T16:57:21Z</time>
      </trkpt>
      <trkpt lat="56.86054696328938" lon="-5.348002994433045">
        <ele>20.809999999999999</ele>
        <time>2023-08-30T16:57:22Z</time>
      </trkpt>
      <trkpt lat="56.860537994652987" lon="-5.346089992672205">
        <ele>20.32</ele>
        <time>2023-08-30T16:57:29Z</time>
      </trkpt>
      <trkpt lat="56.860343031585217" lon="-5.342774027958512">
        <ele>18.399999999999999</ele>
        <time>2023-08-30T16:57:38Z</time>
      </trkpt>
      <trkpt lat="56.860386030748487" lon="-5.339119015261531">
        <ele>13.6</ele>
        <time>2023-08-30T16:57:47Z</time>
      </trkpt>
      <trkpt lat="56.860535982996225" lon="-5.335064018145204">
        <ele>13.6</ele>
        <time>2023-08-30T16:57:57Z</time>
      </trkpt>
      <trkpt lat="56.860440010204911" lon="-5.331144975498319">
        <ele>12.630000000000001</ele>
        <time>2023-08-30T16:58:06Z</time>
      </trkpt>
      <trkpt lat="56.860118983313441" lon="-5.327831022441387">
        <ele>14.08</ele>
        <time>2023-08-30T16:58:14Z</time>
      </trkpt>
      <trkpt lat="56.859795022755861" lon="-5.323581984266639">
        <ele>15.039999999999999</ele>
        <time>2023-08-30T16:58:25Z</time>
      </trkpt>
      <trkpt lat="56.859552031382918" lon="-5.320011964067817">
        <ele>13.6</ele>
        <time>2023-08-30T16:58:34Z</time>
      </trkpt>
      <trkpt lat="56.859013997018337" lon="-5.317292958498001">
        <ele>11.67</ele>
        <time>2023-08-30T16:58:41Z</time>
      </trkpt>
      <trkpt lat="56.857965001836419" lon="-5.313712041825056">
        <ele>11.67</ele>
        <time>2023-08-30T16:58:51Z</time>
      </trkpt>
      <trkpt lat="56.857384974136949" lon="-5.310186026617885">
        <ele>11.19</ele>
        <time>2023-08-30T16:59:00Z</time>
      </trkpt>
      <trkpt lat="56.856864960864186" lon="-5.305092008784413">
        <ele>12.15</ele>
        <time>2023-08-30T16:59:13Z</time>
      </trkpt>
      <trkpt lat="56.856545023620129" lon="-5.300944978371263">
        <ele>12.15</ele>
        <time>2023-08-30T16:59:23Z</time>
      </trkpt>
      <trkpt lat="56.856498001143336" lon="-5.296508017927408">
        <ele>12.15</ele>
        <time>2023-08-30T16:59:34Z</time>
      </trkpt>
      <trkpt lat="56.856350982561707" lon="-5.292180022224784">
        <ele>10.710000000000001</ele>
        <time>2023-08-30T16:59:45Z</time>
      </trkpt>
      <trkpt lat="56.855972958728671" lon="-5.288726007565856">
        <ele>12.15</ele>
        <time>2023-08-30T16:59:54Z</time>
      </trkpt>
      <trkpt lat="56.855480019003153" lon="-5.283268969506025">
        <ele>14.08</ele>
        <time>2023-08-30T17:00:08Z</time>
      </trkpt>
      <trkpt lat="56.855375999584794" lon="-5.278785992413759">
        <ele>12.630000000000001</ele>
        <time>2023-08-30T17:00:19Z</time>
      </trkpt>
      <trkpt lat="56.855253959074616" lon="-5.272971969097853">
        <ele>11.19</ele>
        <time>2023-08-30T17:00:33Z</time>
      </trkpt>
      <trkpt lat="56.855066958814859" lon="-5.267606964334846">
        <ele>11.67</ele>
        <time>2023-08-30T17:00:46Z</time>
      </trkpt>
      <trkpt lat="56.854591034352779" lon="-5.263982964679599">
        <ele>12.630000000000001</ele>
        <time>2023-08-30T17:00:55Z</time>
      </trkpt>
      <trkpt lat="56.854319963604212" lon="-5.260300962254405">
        <ele>12.630000000000001</ele>
        <time>2023-08-30T17:01:04Z</time>
      </trkpt>
      <trkpt lat="56.85450897552073" lon="-5.257419012486935">
        <ele>12.15</ele>
        <time>2023-08-30T17:01:11Z</time>
      </trkpt>
      <trkpt lat="56.854912983253598" lon="-5.252503026276827">
        <ele>11.19</ele>
        <time>2023-08-30T17:01:23Z</time>
      </trkpt>
      <trkpt lat="56.855058996006846" lon="-5.249613029882312">
        <ele>13.6</ele>
        <time>2023-08-30T17:01:30Z</time>
      </trkpt>
      <trkpt lat="56.855247002094984" lon="-5.245886016637087">
        <ele>13.6</ele>
        <time>2023-08-30T17:01:39Z</time>
      </trkpt>
      <trkpt lat="56.855260999873281" lon="-5.242598969489336">
        <ele>11.19</ele>
        <time>2023-08-30T17:01:47Z</time>
      </trkpt>
      <trkpt lat="56.855182964354753" lon="-5.237243017181754">
        <ele>7.35</ele>
        <time>2023-08-30T17:02:00Z</time>
      </trkpt>
      <trkpt lat="56.855177013203502" lon="-5.232630036771298">
        <ele>7.83</ele>
        <time>2023-08-30T17:02:11Z</time>
      </trkpt>
      <trkpt lat="56.855185981839895" lon="-5.226820958778262">
        <ele>10.23</ele>
        <time>2023-08-30T17:02:25Z</time>
      </trkpt>
      <trkpt lat="56.855238033458591" lon="-5.222242008894682">
        <ele>11.67</ele>
        <time>2023-08-30T17:02:36Z</time>
      </trkpt>
      <trkpt lat="56.855524023994803" lon="-5.216884966939688">
        <ele>11.67</ele>
        <time>2023-08-30T17:02:49Z</time>
      </trkpt>
      <trkpt lat="56.855622008442879" lon="-5.21276299841702">
        <ele>12.15</ele>
        <time>2023-08-30T17:02:59Z</time>
      </trkpt>
      <trkpt lat="56.855659978464246" lon="-5.208202991634607">
        <ele>12.15</ele>
        <time>2023-08-30T17:03:10Z</time>
      </trkpt>
      <trkpt lat="56.855697026476264" lon="-5.203638039529324">
        <ele>12.630000000000001</ele>
        <time>2023-08-30T17:03:21Z</time>
      </trkpt>
      <trkpt lat="56.855730973184109" lon="-5.199498971924186">
        <ele>14.08</ele>
        <time>2023-08-30T17:03:31Z</time>
      </trkpt>
      <trkpt lat="56.85573399066925" lon="-5.196189964190126">
        <ele>17.440000000000001</ele>
        <time>2023-08-30T17:03:39Z</time>
      </trkpt>
      <trkpt lat="56.855381028726697" lon="-5.191652001813054">
        <ele>18.879999999999999</ele>
        <time>2023-08-30T17:03:50Z</time>
      </trkpt>
      <trkpt lat="56.85470100492239" lon="-5.189055036753416">
        <ele>18.879999999999999</ele>
        <time>2023-08-30T17:03:57Z</time>
      </trkpt>
      <trkpt lat="56.853754017502069" lon="-5.185760026797652">
        <ele>21.289999999999999</ele>
        <time>2023-08-30T17:04:06Z</time>
      </trkpt>
      <trkpt lat="56.853533992543817" lon="-5.182861983776093">
        <ele>19.359999999999999</ele>
        <time>2023-08-30T17:04:13Z</time>
      </trkpt>
      <trkpt lat="56.85323903337121" lon="-5.177105041220784">
        <ele>17.440000000000001</ele>
        <time>2023-08-30T17:04:27Z</time>
      </trkpt>
      <trkpt lat="56.85274600982666" lon="-5.174375977367163">
        <ele>16.960000000000001</ele>
        <time>2023-08-30T17:04:34Z</time>
      </trkpt>
      <trkpt lat="56.851754011586308" lon="-5.172116970643401">
        <ele>16.48</ele>
        <time>2023-08-30T17:04:41Z</time>
      </trkpt>
      <trkpt lat="56.850568978115916" lon="-5.169097976759076">
        <ele>14.56</ele>
        <time>2023-08-30T17:04:50Z</time>
      </trkpt>
      <trkpt lat="56.849334994331002" lon="-5.165141969919205">
        <ele>14.56</ele>
        <time>2023-08-30T17:05:01Z</time>
      </trkpt>
      <trkpt lat="56.848575007170439" lon="-5.162704009562731">
        <ele>18.399999999999999</ele>
        <time>2023-08-30T17:05:09Z</time>
      </trkpt>
      <trkpt lat="56.848020041361451" lon="-5.160924028605223">
        <ele>26.09</ele>
        <time>2023-08-30T17:05:17Z</time>
      </trkpt>
      <trkpt lat="56.847104988992214" lon="-5.157964965328574">
        <ele>30.899999999999999</ele>
        <time>2023-08-30T17:05:31Z</time>
      </trkpt>
      <trkpt lat="56.846926035359502" lon="-5.15728997066617">
        <ele>32.340000000000003</ele>
        <time>2023-08-30T17:05:34Z</time>
      </trkpt>
      <trkpt lat="56.846872977912426" lon="-5.157049996778369">
        <ele>32.82</ele>
        <time>2023-08-30T17:05:35Z</time>
      </trkpt>
      <trkpt lat="56.846713973209262" lon="-5.156325967982411">
        <ele>34.259999999999998</ele>
        <time>2023-08-30T17:05:38Z</time>
      </trkpt>
      <trkpt lat="56.846660999581218" lon="-5.156081970781088">
        <ele>34.740000000000002</ele>
        <time>2023-08-30T17:05:39Z</time>
      </trkpt>
      <trkpt lat="56.846395963802934" lon="-5.154879000037909">
        <ele>35.710000000000001</ele>
        <time>2023-08-30T17:05:44Z</time>
      </trkpt>
      <trkpt lat="56.846025986596942" lon="-5.153481988236308">
        <ele>34.259999999999998</ele>
        <time>2023-08-30T17:05:50Z</time>
      </trkpt>
      <trkpt lat="56.845853989943862" lon="-5.153065994381905">
        <ele>33.780000000000001</ele>
        <time>2023-08-30T17:05:52Z</time>
      </trkpt>
      <trkpt lat="56.844938015565276" lon="-5.151350973173976">
        <ele>32.340000000000003</ele>
        <time>2023-08-30T17:06:00Z</time>
      </trkpt>
      <trkpt lat="56.843785000964999" lon="-5.148984007537365">
        <ele>31.859999999999999</ele>
        <time>2023-08-30T17:06:09Z</time>
      </trkpt>
      <trkpt lat="56.843290971592069" lon="-5.147105036303401">
        <ele>31.859999999999999</ele>
        <time>2023-08-30T17:06:16Z</time>
      </trkpt>
      <trkpt lat="56.843090979382396" lon="-5.144945019856095">
        <ele>30.420000000000002</ele>
        <time>2023-08-30T17:06:24Z</time>
      </trkpt>
      <trkpt lat="56.843100031837821" lon="-5.141894007101655">
        <ele>28.98</ele>
        <time>2023-08-30T17:06:35Z</time>
      </trkpt>
      <trkpt lat="56.843192987143993" lon="-5.138023998588324">
        <ele>23.210000000000001</ele>
        <time>2023-08-30T17:06:49Z</time>
      </trkpt>
      <trkpt lat="56.843248978257179" lon="-5.134421959519386">
        <ele>19.359999999999999</ele>
        <time>2023-08-30T17:07:02Z</time>
      </trkpt>
      <trkpt lat="56.843473026528955" lon="-5.131438001990318">
        <ele>17.440000000000001</ele>
        <time>2023-08-30T17:07:13Z</time>
      </trkpt>
      <trkpt lat="56.843778965994716" lon="-5.128655964508653">
        <ele>18.399999999999999</ele>
        <time>2023-08-30T17:07:24Z</time>
      </trkpt>
      <trkpt lat="56.843857001513243" lon="-5.126288998872042">
        <ele>20.32</ele>
        <time>2023-08-30T17:07:35Z</time>
      </trkpt>
      <trkpt lat="56.843857001513243" lon="-5.123474020510912">
        <ele>20.32</ele>
        <time>2023-08-30T17:07:48Z</time>
      </trkpt>
      <trkpt lat="56.843874016776681" lon="-5.120469024404883">
        <ele>20.32</ele>
        <time>2023-08-30T17:08:02Z</time>
      </trkpt>
      <trkpt lat="56.844070991501212" lon="-5.118144974112511">
        <ele>21.77</ele>
        <time>2023-08-30T17:08:13Z</time>
      </trkpt>
      <trkpt lat="56.844442980363965" lon="-5.115830982103944">
        <ele>23.690000000000001</ele>
        <time>2023-08-30T17:08:24Z</time>
      </trkpt>
      <trkpt lat="56.844457983970642" lon="-5.114121995866299">
        <ele>23.690000000000001</ele>
        <time>2023-08-30T17:08:32Z</time>
      </trkpt>
      <trkpt lat="56.844484973698854" lon="-5.111454036086798">
        <ele>21.77</ele>
        <time>2023-08-30T17:08:45Z</time>
      </trkpt>
      <trkpt lat="56.844743974506855" lon="-5.109257977455854">
        <ele>25.129999999999999</ele>
        <time>2023-08-30T17:08:56Z</time>
      </trkpt>
      <trkpt lat="56.844926029443741" lon="-5.107446983456612">
        <ele>25.129999999999999</ele>
        <time>2023-08-30T17:09:05Z</time>
      </trkpt>
      <trkpt lat="56.845065001398325" lon="-5.105549991130829">
        <ele>19.359999999999999</ele>
        <time>2023-08-30T17:09:14Z</time>
      </trkpt>
      <trkpt lat="56.845244038850069" lon="-5.102871973067522">
        <ele>14.56</ele>
        <time>2023-08-30T17:09:27Z</time>
      </trkpt>
      <trkpt lat="56.845257030799985" lon="-5.100221028551459">
        <ele>12.630000000000001</ele>
        <time>2023-08-30T17:09:39Z</time>
      </trkpt>
      <trkpt lat="56.844829972833395" lon="-5.097775021567941">
        <ele>10.710000000000001</ele>
        <time>2023-08-30T17:09:50Z</time>
      </trkpt>
      <trkpt lat="56.844121031463146" lon="-5.095616010949016">
        <ele>12.15</ele>
        <time>2023-08-30T17:10:01Z</time>
      </trkpt>
      <trkpt lat="56.843478977680206" lon="-5.093342000618577">
        <ele>11.67</ele>
        <time>2023-08-30T17:10:11Z</time>
      </trkpt>
      <trkpt lat="56.842924011871219" lon="-5.090175988152623">
        <ele>13.119999999999999</ele>
        <time>2023-08-30T17:10:22Z</time>
      </trkpt>
      <trkpt lat="56.842177016660571" lon="-5.08799996227026">
        <ele>15.039999999999999</ele>
        <time>2023-08-30T17:10:31Z</time>
      </trkpt>
      <trkpt lat="56.841406971216202" lon="-5.086655002087355">
        <ele>16</ele>
        <time>2023-08-30T17:10:39Z</time>
      </trkpt>
      <trkpt lat="56.840984020382166" lon="-5.085955029353499">
        <ele>16.960000000000001</ele>
        <time>2023-08-30T17:10:47Z</time>
      </trkpt>
      <trkpt lat="56.840973040089011" lon="-5.0859360024333">
        <ele>16.960000000000001</ele>
        <time>2023-08-30T17:10:57Z</time>
      </trkpt>
      <trkpt lat="56.840946972370148" lon="-5.085894009098411">
        <ele>16.960000000000001</ele>
        <time>2023-08-30T17:10:58Z</time>
      </trkpt>
      <trkpt lat="56.840603984892368" lon="-5.085090016946197">
        <ele>16.960000000000001</ele>
        <time>2023-08-30T17:11:05Z</time>
      </trkpt>
      <trkpt lat="56.840575989335775" lon="-5.084916008636355">
        <ele>16.48</ele>
        <time>2023-08-30T17:11:06Z</time>
      </trkpt>
      <trkpt lat="56.840548999607563" lon="-5.084749963134527">
        <ele>16.48</ele>
        <time>2023-08-30T17:11:07Z</time>
      </trkpt>
      <trkpt lat="56.840537013486028" lon="-5.084674023091793">
        <ele>16.48</ele>
        <time>2023-08-30T17:11:08Z</time>
      </trkpt>
      <trkpt lat="56.840535001829267" lon="-5.084284013137221">
        <ele>16.48</ele>
        <time>2023-08-30T17:11:10Z</time>
      </trkpt>
      <trkpt lat="56.840466018766165" lon="-5.08415199816227">
        <ele>16.48</ele>
        <time>2023-08-30T17:11:11Z</time>
      </trkpt>
      <trkpt lat="56.840409021824598" lon="-5.084095001220703">
        <ele>16</ele>
        <time>2023-08-30T17:11:12Z</time>
      </trkpt>
      <trkpt lat="56.840298967435956" lon="-5.084121990948916">
        <ele>16</ele>
        <time>2023-08-30T17:11:13Z</time>
      </trkpt>
      <trkpt lat="56.840200982987881" lon="-5.08413196541369">
        <ele>15.52</ele>
        <time>2023-08-30T17:11:14Z</time>
      </trkpt>
      <trkpt lat="56.840097969397902" lon="-5.084113022312522">
        <ele>15.039999999999999</ele>
        <time>2023-08-30T17:11:15Z</time>
      </trkpt>
      <trkpt lat="56.839976012706757" lon="-5.08406599983573">
        <ele>15.039999999999999</ele>
        <time>2023-08-30T17:11:16Z</time>
      </trkpt>
      <trkpt lat="56.839882973581553" lon="-5.08395804092288">
        <ele>15.039999999999999</ele>
        <time>2023-08-30T17:11:17Z</time>
      </trkpt>
      <trkpt lat="56.839788006618619" lon="-5.083846980705857">
        <ele>15.039999999999999</ele>
        <time>2023-08-30T17:11:18Z</time>
      </trkpt>
      <trkpt lat="56.839689016342163" lon="-5.083730975165963">
        <ele>15.039999999999999</ele>
        <time>2023-08-30T17:11:19Z</time>
      </trkpt>
      <trkpt lat="56.838769018650055" lon="-5.082367993891239">
        <ele>16</ele>
        <time>2023-08-30T17:11:29Z</time>
      </trkpt>
      <trkpt lat="56.837535034865141" lon="-5.080401012673974">
        <ele>17.440000000000001</ele>
        <time>2023-08-30T17:11:44Z</time>
      </trkpt>
      <trkpt lat="56.836722996085882" lon="-5.079099973663688">
        <ele>21.289999999999999</ele>
        <time>2023-08-30T17:11:55Z</time>
      </trkpt>
      <trkpt lat="56.836615959182382" lon="-5.078925965353847">
        <ele>21.77</ele>
        <time>2023-08-30T17:12:02Z</time>
      </trkpt>
      <trkpt lat="56.836472963914275" lon="-5.07869403809309">
        <ele>21.289999999999999</ele>
        <time>2023-08-30T17:12:21Z</time>
      </trkpt>
      <trkpt lat="56.835835017263889" lon="-5.077671026811004">
        <ele>18.879999999999999</ele>
        <time>2023-08-30T17:12:30Z</time>
      </trkpt>
      <trkpt lat="56.834972016513348" lon="-5.076336041092873">
        <ele>16</ele>
        <time>2023-08-30T17:12:41Z</time>
      </trkpt>
      <trkpt lat="56.834903033450246" lon="-5.07622598670423">
        <ele>16</ele>
        <time>2023-08-30T17:12:48Z</time>
      </trkpt>
      <trkpt lat="56.834872020408511" lon="-5.076177036389709">
        <ele>15.52</ele>
        <time>2023-08-30T17:12:58Z</time>
      </trkpt>
      <trkpt lat="56.834797002375126" lon="-5.075950976461172">
        <ele>15.52</ele>
        <time>2023-08-30T17:13:12Z</time>
      </trkpt>
      <trkpt lat="56.834771018475294" lon="-5.075872018933296">
        <ele>15.52</ele>
        <time>2023-08-30T17:13:13Z</time>
      </trkpt>
      <trkpt lat="56.83474101126194" lon="-5.075783003121615">
        <ele>15.52</ele>
        <time>2023-08-30T17:13:14Z</time>
      </trkpt>
      <trkpt lat="56.834769006818533" lon="-5.075463987886906">
        <ele>15.52</ele>
        <time>2023-08-30T17:13:16Z</time>
      </trkpt>
      <trkpt lat="56.834723995998502" lon="-5.075397016480565">
        <ele>15.039999999999999</ele>
        <time>2023-08-30T17:13:17Z</time>
      </trkpt>
      <trkpt lat="56.834651995450258" lon="-5.075373966246843">
        <ele>15.039999999999999</ele>
        <time>2023-08-30T17:13:18Z</time>
      </trkpt>
      <trkpt lat="56.834615031257272" lon="-5.075383018702269">
        <ele>14.56</ele>
        <time>2023-08-30T17:13:19Z</time>
      </trkpt>
      <trkpt lat="56.834581000730395" lon="-5.075518973171711">
        <ele>14.56</ele>
        <time>2023-08-30T17:13:20Z</time>
      </trkpt>
      <trkpt lat="56.834516040980816" lon="-5.075702033936977">
        <ele>14.08</ele>
        <time>2023-08-30T17:13:21Z</time>
      </trkpt>
      <trkpt lat="56.834357036277652" lon="-5.075812004506588">
        <ele>13.6</ele>
        <time>2023-08-30T17:13:23Z</time>
      </trkpt>
      <trkpt lat="56.834282018244267" lon="-5.07588098756969">
        <ele>13.119999999999999</ele>
        <time>2023-08-30T17:13:24Z</time>
      </trkpt>
      <trkpt lat="56.834201971068978" lon="-5.075953993946314">
        <ele>13.119999999999999</ele>
        <time>2023-08-30T17:13:25Z</time>
      </trkpt>
      <trkpt lat="56.833184994757175" lon="-5.076445005834103">
        <ele>13.119999999999999</ele>
        <time>2023-08-30T17:13:35Z</time>
      </trkpt>
      <trkpt lat="56.832719966769218" lon="-5.076679028570652">
        <ele>12.15</ele>
        <time>2023-08-30T17:13:39Z</time>
      </trkpt>
      <trkpt lat="56.83229299262166" lon="-5.077022016048431">
        <ele>10.710000000000001</ele>
        <time>2023-08-30T17:13:43Z</time>
      </trkpt>
      <trkpt lat="56.832188973203301" lon="-5.077141961082816">
        <ele>10.23</ele>
        <time>2023-08-30T17:13:44Z</time>
      </trkpt>
      <trkpt lat="56.831247014924884" lon="-5.078491028398275">
        <ele>7.83</ele>
        <time>2023-08-30T17:13:54Z</time>
      </trkpt>
      <trkpt lat="56.830731024965644" lon="-5.079310024157167">
        <ele>7.83</ele>
        <time>2023-08-30T17:14:02Z</time>
      </trkpt>
      <trkpt lat="56.830625999718904" lon="-5.079310024157167">
        <ele>7.83</ele>
        <time>2023-08-30T17:14:04Z</time>
      </trkpt>
      <trkpt lat="56.830601021647453" lon="-5.079310024157167">
        <ele>8.310000000000001</ele>
        <time>2023-08-30T17:14:05Z</time>
      </trkpt>
      <trkpt lat="56.830580988898873" lon="-5.079310024157167">
        <ele>8.310000000000001</ele>
        <time>2023-08-30T17:14:06Z</time>
      </trkpt>
      <trkpt lat="56.830580988898873" lon="-5.079310024157167">
        <ele>8.310000000000001</ele>
        <time>2023-08-30T17:14:07Z</time>
      </trkpt>
      <trkpt lat="56.830580988898873" lon="-5.079310024157167">
        <ele>8.310000000000001</ele>
        <time>2023-08-30T17:14:21Z</time>
      </trkpt>
      <trkpt lat="56.830127025023103" lon="-5.079891979694367">
        <ele>9.27</ele>
        <time>2023-08-30T17:17:49Z</time>
      </trkpt>
      <trkpt lat="56.830378985032439" lon="-5.079672038555145">
        <ele>27.530000000000001</ele>
        <time>2023-08-30T17:18:06Z</time>
      </trkpt>
      <trkpt lat="56.830409998074174" lon="-5.079475985839963">
        <ele>3.5</ele>
        <time>2023-08-30T17:18:31Z</time>
      </trkpt>
      <trkpt lat="56.830460960045457" lon="-5.079628033563495">
        <ele>-2.27</ele>
        <time>2023-08-30T17:18:44Z</time>
      </trkpt>
      <trkpt lat="56.830494990572333" lon="-5.079701039940119">
        <ele>3.5</ele>
        <time>2023-08-30T17:18:54Z</time>
      </trkpt>
      <trkpt lat="56.830481998622417" lon="-5.079700034111738">
        <ele>5.42</ele>
        <time>2023-08-30T17:18:56Z</time>
      </trkpt>
      <trkpt lat="56.830450985580683" lon="-5.079747978597879">
        <ele>5.91</ele>
        <time>2023-08-30T17:18:57Z</time>
      </trkpt>
      <trkpt lat="56.830388037487864" lon="-5.079845963045955">
        <ele>5.91</ele>
        <time>2023-08-30T17:18:58Z</time>
      </trkpt>
      <trkpt lat="56.830345960333943" lon="-5.079906983301044">
        <ele>5.91</ele>
        <time>2023-08-30T17:18:59Z</time>
      </trkpt>
      <trkpt lat="56.829725028946996" lon="-5.080924965441227">
        <ele>5.42</ele>
        <time>2023-08-30T17:19:07Z</time>
      </trkpt>
      <trkpt lat="56.829555965960026" lon="-5.081307012587786">
        <ele>6.39</ele>
        <time>2023-08-30T17:19:10Z</time>
      </trkpt>
      <trkpt lat="56.829511960968375" lon="-5.081414971500635">
        <ele>7.35</ele>
        <time>2023-08-30T17:19:11Z</time>
      </trkpt>
      <trkpt lat="56.829425040632486" lon="-5.081464005634189">
        <ele>8.789999999999999</ele>
        <time>2023-08-30T17:19:12Z</time>
      </trkpt>
      <trkpt lat="56.829267041757703" lon="-5.081512033939362">
        <ele>9.27</ele>
        <time>2023-08-30T17:19:14Z</time>
      </trkpt>
      <trkpt lat="56.829232005402446" lon="-5.08161798119545">
        <ele>9.75</ele>
        <time>2023-08-30T17:19:15Z</time>
      </trkpt>
      <trkpt lat="56.829208033159375" lon="-5.081691993400455">
        <ele>9.75</ele>
        <time>2023-08-30T17:19:16Z</time>
      </trkpt>
      <trkpt lat="56.829208033159375" lon="-5.081691993400455">
        <ele>9.75</ele>
        <time>2023-08-30T17:19:17Z</time>
      </trkpt>
      <trkpt lat="56.829208033159375" lon="-5.082102036103606">
        <ele>9.75</ele>
        <time>2023-08-30T17:19:18Z</time>
      </trkpt>
      <trkpt lat="56.829149024561048" lon="-5.082205971702933">
        <ele>10.23</ele>
        <time>2023-08-30T17:19:19Z</time>
      </trkpt>
      <trkpt lat="56.829082975164056" lon="-5.082323988899589">
        <ele>10.23</ele>
        <time>2023-08-30T17:19:20Z</time>
      </trkpt>
      <trkpt lat="56.829013992100954" lon="-5.082445023581386">
        <ele>10.23</ele>
        <time>2023-08-30T17:19:21Z</time>
      </trkpt>
      <trkpt lat="56.828942997381091" lon="-5.082572009414434">
        <ele>10.23</ele>
        <time>2023-08-30T17:19:22Z</time>
      </trkpt>
      <trkpt lat="56.828133976086974" lon="-5.084011014550924">
        <ele>10.23</ele>
        <time>2023-08-30T17:19:34Z</time>
      </trkpt>
      <trkpt lat="56.827109958976507" lon="-5.085472986102104">
        <ele>10.23</ele>
        <time>2023-08-30T17:19:47Z</time>
      </trkpt>
      <trkpt lat="56.825945964083076" lon="-5.086506977677345">
        <ele>9.75</ele>
        <time>2023-08-30T17:19:59Z</time>
      </trkpt>
      <trkpt lat="56.825069971382618" lon="-5.087414989247918">
        <ele>11.19</ele>
        <time>2023-08-30T17:20:08Z</time>
      </trkpt>
      <trkpt lat="56.824452979490161" lon="-5.088453004136682">
        <ele>9.27</ele>
        <time>2023-08-30T17:20:16Z</time>
      </trkpt>
      <trkpt lat="56.823842022567987" lon="-5.089897960424423">
        <ele>3.5</ele>
        <time>2023-08-30T17:20:26Z</time>
      </trkpt>
      <trkpt lat="56.823253026232123" lon="-5.091259013861418">
        <ele>0.62</ele>
        <time>2023-08-30T17:20:35Z</time>
      </trkpt>
      <trkpt lat="56.82260200381279" lon="-5.092560974881053">
        <ele>3.02</ele>
        <time>2023-08-30T17:20:45Z</time>
      </trkpt>
      <trkpt lat="56.821711007505655" lon="-5.093920016661286">
        <ele>1.58</ele>
        <time>2023-08-30T17:20:57Z</time>
      </trkpt>
      <trkpt lat="56.821568012237549" lon="-5.094117997214198">
        <ele>1.58</ele>
        <time>2023-08-30T17:20:59Z</time>
      </trkpt>
      <trkpt lat="56.821511015295982" lon="-5.094197960570455">
        <ele>1.58</ele>
        <time>2023-08-30T17:21:00Z</time>
      </trkpt>
      <trkpt lat="56.821460975334048" lon="-5.094266021624208">
        <ele>1.58</ele>
        <time>2023-08-30T17:21:01Z</time>
      </trkpt>
      <trkpt lat="56.821379000321031" lon="-5.094255963340402">
        <ele>1.58</ele>
        <time>2023-08-30T17:21:02Z</time>
      </trkpt>
      <trkpt lat="56.821354022249579" lon="-5.094329975545406">
        <ele>1.1</ele>
        <time>2023-08-30T17:21:03Z</time>
      </trkpt>
      <trkpt lat="56.82142099365592" lon="-5.094409016892314">
        <ele>0.62</ele>
        <time>2023-08-30T17:21:04Z</time>
      </trkpt>
      <trkpt lat="56.821435997262597" lon="-5.094500966370106">
        <ele>0.62</ele>
        <time>2023-08-30T17:21:05Z</time>
      </trkpt>
      <trkpt lat="56.821453012526035" lon="-5.094598028808832">
        <ele>0.62</ele>
        <time>2023-08-30T17:21:06Z</time>
      </trkpt>
      <trkpt lat="56.821523001417518" lon="-5.095015028491616">
        <ele>0.62</ele>
        <time>2023-08-30T17:21:09Z</time>
      </trkpt>
      <trkpt lat="56.821778984740376" lon="-5.096726026386023">
        <ele>0.14</ele>
        <time>2023-08-30T17:21:18Z</time>
      </trkpt>
      <trkpt lat="56.821776973083615" lon="-5.096920989453793">
        <ele>0.14</ele>
        <time>2023-08-30T17:21:19Z</time>
      </trkpt>
      <trkpt lat="56.821771021932364" lon="-5.097110001370311">
        <ele>0.62</ele>
        <time>2023-08-30T17:21:20Z</time>
      </trkpt>
      <trkpt lat="56.821761969476938" lon="-5.097356010228396">
        <ele>0.62</ele>
        <time>2023-08-30T17:21:21Z</time>
      </trkpt>
      <trkpt lat="56.821727016940713" lon="-5.097481990233064">
        <ele>1.1</ele>
        <time>2023-08-30T17:21:22Z</time>
      </trkpt>
      <trkpt lat="56.82167898863554" lon="-5.097651975229383">
        <ele>1.58</ele>
        <time>2023-08-30T17:21:23Z</time>
      </trkpt>
      <trkpt lat="56.821128968149424" lon="-5.099705960601568">
        <ele>1.1</ele>
        <time>2023-08-30T17:21:35Z</time>
      </trkpt>
      <trkpt lat="56.820605015382171" lon="-5.101562971249223">
        <ele>3.02</ele>
        <time>2023-08-30T17:21:45Z</time>
      </trkpt>
      <trkpt lat="56.820093970745802" lon="-5.103388968855143">
        <ele>1.58</ele>
        <time>2023-08-30T17:21:57Z</time>
      </trkpt>
      <trkpt lat="56.819818960502744" lon="-5.104524968191981">
        <ele>-0.82</ele>
        <time>2023-08-30T17:22:03Z</time>
      </trkpt>
      <trkpt lat="56.819788031280041" lon="-5.104694031178951">
        <ele>-1.3</ele>
        <time>2023-08-30T17:22:04Z</time>
      </trkpt>
      <trkpt lat="56.819775961339474" lon="-5.104878013953567">
        <ele>-2.27</ele>
        <time>2023-08-30T17:22:05Z</time>
      </trkpt>
      <trkpt lat="56.8197659868747" lon="-5.105052022263408">
        <ele>-2.27</ele>
        <time>2023-08-30T17:22:06Z</time>
      </trkpt>
      <trkpt lat="56.8197659868747" lon="-5.105238016694784">
        <ele>-2.75</ele>
        <time>2023-08-30T17:22:07Z</time>
      </trkpt>
      <trkpt lat="56.819790964946151" lon="-5.105599025264382">
        <ele>-3.71</ele>
        <time>2023-08-30T17:22:09Z</time>
      </trkpt>
      <trkpt lat="56.819817032665014" lon="-5.105779990553856">
        <ele>-4.67</ele>
        <time>2023-08-30T17:22:10Z</time>
      </trkpt>
      <trkpt lat="56.81993798352778" lon="-5.106324981898069">
        <ele>-6.11</ele>
        <time>2023-08-30T17:22:13Z</time>
      </trkpt>
      <trkpt lat="56.820003027096391" lon="-5.106477029621601">
        <ele>-6.59</ele>
        <time>2023-08-30T17:22:14Z</time>
      </trkpt>
      <trkpt lat="56.820328999310732" lon="-5.107240034267306">
        <ele>-5.63</ele>
        <time>2023-08-30T17:22:21Z</time>
      </trkpt>
      <trkpt lat="56.820409968495369" lon="-5.10744103230536">
        <ele>-4.67</ele>
        <time>2023-08-30T17:22:26Z</time>
      </trkpt>
      <trkpt lat="56.820417009294033" lon="-5.107530970126391">
        <ele>-4.19</ele>
        <time>2023-08-30T17:22:27Z</time>
      </trkpt>
      <trkpt lat="56.820425977930427" lon="-5.107647981494665">
        <ele>-4.19</ele>
        <time>2023-08-30T17:22:28Z</time>
      </trkpt>
      <trkpt lat="56.82043100707233" lon="-5.1077860314399">
        <ele>-3.71</ele>
        <time>2023-08-30T17:22:29Z</time>
      </trkpt>
      <trkpt lat="56.820422038435936" lon="-5.10793698951602">
        <ele>-3.71</ele>
        <time>2023-08-30T17:22:30Z</time>
      </trkpt>
      <trkpt lat="56.820406029000878" lon="-5.108091970905662">
        <ele>-3.71</ele>
        <time>2023-08-30T17:22:31Z</time>
      </trkpt>
      <trkpt lat="56.82038901373744" lon="-5.108256004750729">
        <ele>-3.71</ele>
        <time>2023-08-30T17:22:32Z</time>
      </trkpt>
      <trkpt lat="56.820341991260648" lon="-5.108440993353725">
        <ele>-3.71</ele>
        <time>2023-08-30T17:22:33Z</time>
      </trkpt>
      <trkpt lat="56.820296980440617" lon="-5.108621958643198">
        <ele>-4.19</ele>
        <time>2023-08-30T17:22:34Z</time>
      </trkpt>
      <trkpt lat="56.820231014862657" lon="-5.108800996094942">
        <ele>-4.19</ele>
        <time>2023-08-30T17:22:35Z</time>
      </trkpt>
      <trkpt lat="56.820157002657652" lon="-5.108971986919642">
        <ele>-4.19</ele>
        <time>2023-08-30T17:22:36Z</time>
      </trkpt>
      <trkpt lat="56.820079972967505" lon="-5.109151024371386">
        <ele>-4.67</ele>
        <time>2023-08-30T17:22:37Z</time>
      </trkpt>
      <trkpt lat="56.819217978045344" lon="-5.110658006742597">
        <ele>-5.63</ele>
        <time>2023-08-30T17:22:47Z</time>
      </trkpt>
      <trkpt lat="56.817926997318864" lon="-5.112489033490419">
        <ele>-5.63</ele>
        <time>2023-08-30T17:23:01Z</time>
      </trkpt>
      <trkpt lat="56.817041030153632" lon="-5.113813038915396">
        <ele>-4.19</ele>
        <time>2023-08-30T17:23:11Z</time>
      </trkpt>
      <trkpt lat="56.81624399498105" lon="-5.115288002416492">
        <ele>-5.63</ele>
        <time>2023-08-30T17:23:22Z</time>
      </trkpt>
      <trkpt lat="56.815580986440182" lon="-5.116235995665193">
        <ele>-4.67</ele>
        <time>2023-08-30T17:23:31Z</time>
      </trkpt>
      <trkpt lat="56.815527006983757" lon="-5.116258962079883">
        <ele>-4.19</ele>
        <time>2023-08-30T17:23:32Z</time>
      </trkpt>
      <trkpt lat="56.815477972850204" lon="-5.116280000656843">
        <ele>-3.71</ele>
        <time>2023-08-30T17:23:33Z</time>
      </trkpt>
      <trkpt lat="56.815441008657217" lon="-5.116272959858179">
        <ele>-3.71</ele>
        <time>2023-08-30T17:23:34Z</time>
      </trkpt>
      <trkpt lat="56.815366996452212" lon="-5.116216968744993">
        <ele>-3.23</ele>
        <time>2023-08-30T17:23:35Z</time>
      </trkpt>
      <trkpt lat="56.815322991460562" lon="-5.11618796736002">
        <ele>-2.75</ele>
        <time>2023-08-30T17:23:36Z</time>
      </trkpt>
      <trkpt lat="56.815260965377092" lon="-5.116146979853511">
        <ele>-1.79</ele>
        <time>2023-08-30T17:23:37Z</time>
      </trkpt>
      <trkpt lat="56.815184019505978" lon="-5.116194002330303">
        <ele>-1.79</ele>
        <time>2023-08-30T17:23:38Z</time>
      </trkpt>
      <trkpt lat="56.815128028392792" lon="-5.116258040070534">
        <ele>-1.3</ele>
        <time>2023-08-30T17:23:39Z</time>
      </trkpt>
      <trkpt lat="56.815072959288955" lon="-5.116363987326622">
        <ele>-1.3</ele>
        <time>2023-08-30T17:23:40Z</time>
      </trkpt>
      <trkpt lat="56.815034989267588" lon="-5.116514023393393">
        <ele>-1.3</ele>
        <time>2023-08-30T17:23:41Z</time>
      </trkpt>
      <trkpt lat="56.814990984275937" lon="-5.116675039753318">
        <ele>-1.3</ele>
        <time>2023-08-30T17:23:42Z</time>
      </trkpt>
      <trkpt lat="56.814919989556074" lon="-5.116800013929606">
        <ele>-1.3</ele>
        <time>2023-08-30T17:23:43Z</time>
      </trkpt>
      <trkpt lat="56.814839020371437" lon="-5.116919036954641">
        <ele>-1.3</ele>
        <time>2023-08-30T17:23:44Z</time>
      </trkpt>
      <trkpt lat="56.814754027873278" lon="-5.117043005302548">
        <ele>-1.3</ele>
        <time>2023-08-30T17:23:45Z</time>
      </trkpt>
      <trkpt lat="56.813657004386187" lon="-5.118645960465074">
        <ele>-1.3</ele>
        <time>2023-08-30T17:23:56Z</time>
      </trkpt>
      <trkpt lat="56.812358982861042" lon="-5.120735988020897">
        <ele>-1.79</ele>
        <time>2023-08-30T17:24:10Z</time>
      </trkpt>
      <trkpt lat="56.811186019331217" lon="-5.122637003660202">
        <ele>-1.3</ele>
        <time>2023-08-30T17:24:22Z</time>
      </trkpt>
      <trkpt lat="56.809696974232793" lon="-5.124770030379295">
        <ele>-2.75</ele>
        <time>2023-08-30T17:24:36Z</time>
      </trkpt>
      <trkpt lat="56.808458967134356" lon="-5.126297967508435">
        <ele>-2.75</ele>
        <time>2023-08-30T17:24:47Z</time>
      </trkpt>
      <trkpt lat="56.808359976857901" lon="-5.126489996910095">
        <ele>-2.75</ele>
        <time>2023-08-30T17:24:48Z</time>
      </trkpt>
      <trkpt lat="56.808259980753064" lon="-5.126684959977865">
        <ele>-2.75</ele>
        <time>2023-08-30T17:24:49Z</time>
      </trkpt>
      <trkpt lat="56.80784298107028" lon="-5.127492975443602">
        <ele>-3.23</ele>
        <time>2023-08-30T17:24:53Z</time>
      </trkpt>
      <trkpt lat="56.807725969702005" lon="-5.127679975703359">
        <ele>-3.23</ele>
        <time>2023-08-30T17:24:54Z</time>
      </trkpt>
      <trkpt lat="56.807594038546085" lon="-5.127819031476975">
        <ele>-2.75</ele>
        <time>2023-08-30T17:24:55Z</time>
      </trkpt>
      <trkpt lat="56.806280007585883" lon="-5.129506979137659">
        <ele>-1.3</ele>
        <time>2023-08-30T17:25:06Z</time>
      </trkpt>
      <trkpt lat="56.805830989032984" lon="-5.130230002105236">
        <ele>-2.75</ele>
        <time>2023-08-30T17:25:10Z</time>
      </trkpt>
      <trkpt lat="56.805709032341838" lon="-5.130385989323258">
        <ele>-2.75</ele>
        <time>2023-08-30T17:25:11Z</time>
      </trkpt>
      <trkpt lat="56.805587997660041" lon="-5.130532002076507">
        <ele>-2.75</ele>
        <time>2023-08-30T17:25:12Z</time>
      </trkpt>
      <trkpt lat="56.803912036120892" lon="-5.132566960528493">
        <ele>-0.82</ele>
        <time>2023-08-30T17:25:26Z</time>
      </trkpt>
      <trkpt lat="56.802819035947323" lon="-5.133834974840283">
        <ele>1.1</ele>
        <time>2023-08-30T17:25:35Z</time>
      </trkpt>
      <trkpt lat="56.801573988050222" lon="-5.13509402051568">
        <ele>2.06</ele>
        <time>2023-08-30T17:25:46Z</time>
      </trkpt>
      <trkpt lat="56.799722006544471" lon="-5.13685698620975">
        <ele>2.54</ele>
        <time>2023-08-30T17:26:01Z</time>
      </trkpt>
      <trkpt lat="56.797581017017365" lon="-5.138825979083777">
        <ele>4.46</ele>
        <time>2023-08-30T17:26:17Z</time>
      </trkpt>
      <trkpt lat="56.795955011621118" lon="-5.140733029693365">
        <ele>2.54</ele>
        <time>2023-08-30T17:26:30Z</time>
      </trkpt>
      <trkpt lat="56.794910961762071" lon="-5.14184296131134">
        <ele>1.1</ele>
        <time>2023-08-30T17:26:38Z</time>
      </trkpt>
      <trkpt lat="56.794786993414164" lon="-5.141997020691633">
        <ele>1.1</ele>
        <time>2023-08-30T17:26:39Z</time>
      </trkpt>
      <trkpt lat="56.793294008821249" lon="-5.144411008805037">
        <ele>-2.75</ele>
        <time>2023-08-30T17:26:52Z</time>
      </trkpt>
      <trkpt lat="56.79142601788044" lon="-5.14725498855114">
        <ele>-3.71</ele>
        <time>2023-08-30T17:27:08Z</time>
      </trkpt>
      <trkpt lat="56.79001098498702" lon="-5.149392038583756">
        <ele>-5.15</ele>
        <time>2023-08-30T17:27:20Z</time>
      </trkpt>
      <trkpt lat="56.788360001519322" lon="-5.151523975655437">
        <ele>-2.27</ele>
        <time>2023-08-30T17:27:33Z</time>
      </trkpt>
      <trkpt lat="56.786803985014558" lon="-5.15361500903964">
        <ele>-1.79</ele>
        <time>2023-08-30T17:27:44Z</time>
      </trkpt>
      <trkpt lat="56.785553991794586" lon="-5.155452992767096">
        <ele>1.1</ele>
        <time>2023-08-30T17:27:53Z</time>
      </trkpt>
      <trkpt lat="56.784178018569946" lon="-5.157650979235768">
        <ele>2.54</ele>
        <time>2023-08-30T17:28:03Z</time>
      </trkpt>
      <trkpt lat="56.782770026475191" lon="-5.159822981804609">
        <ele>3.02</ele>
        <time>2023-08-30T17:28:13Z</time>
      </trkpt>
      <trkpt lat="56.782662989571691" lon="-5.160050969570875">
        <ele>3.02</ele>
        <time>2023-08-30T17:28:14Z</time>
      </trkpt>
      <trkpt lat="56.782577997073531" lon="-5.160270994529128">
        <ele>3.02</ele>
        <time>2023-08-30T17:28:15Z</time>
      </trkpt>
      <trkpt lat="56.782516976818442" lon="-5.16048900783062">
        <ele>3.02</ele>
        <time>2023-08-30T17:28:16Z</time>
      </trkpt>
      <trkpt lat="56.782448999583721" lon="-5.160734010860324">
        <ele>2.54</ele>
        <time>2023-08-30T17:28:17Z</time>
      </trkpt>
      <trkpt lat="56.782371969893575" lon="-5.161012038588524">
        <ele>1.58</ele>
        <time>2023-08-30T17:28:18Z</time>
      </trkpt>
      <trkpt lat="56.782214976847172" lon="-5.161578990519047">
        <ele>-0.34</ele>
        <time>2023-08-30T17:28:20Z</time>
      </trkpt>
      <trkpt lat="56.782101988792419" lon="-5.161774037405849">
        <ele>-1.3</ele>
        <time>2023-08-30T17:28:21Z</time>
      </trkpt>
      <trkpt lat="56.781980032101274" lon="-5.161984004080296">
        <ele>-2.27</ele>
        <time>2023-08-30T17:28:22Z</time>
      </trkpt>
      <trkpt lat="56.781861009076238" lon="-5.162190031260252">
        <ele>-3.23</ele>
        <time>2023-08-30T17:28:23Z</time>
      </trkpt>
      <trkpt lat="56.781696975231171" lon="-5.162350041791797">
        <ele>-3.71</ele>
        <time>2023-08-30T17:28:24Z</time>
      </trkpt>
      <trkpt lat="56.781539982184768" lon="-5.162475015968084">
        <ele>-4.19</ele>
        <time>2023-08-30T17:28:25Z</time>
      </trkpt>
      <trkpt lat="56.781364968046546" lon="-5.162556990981102">
        <ele>-4.67</ele>
        <time>2023-08-30T17:28:26Z</time>
      </trkpt>
      <trkpt lat="56.78119900636375" lon="-5.162622034549713">
        <ele>-5.15</ele>
        <time>2023-08-30T17:28:27Z</time>
      </trkpt>
      <trkpt lat="56.781038995832205" lon="-5.162684982642531">
        <ele>-4.67</ele>
        <time>2023-08-30T17:28:28Z</time>
      </trkpt>
      <trkpt lat="56.780724003911018" lon="-5.162845999002457">
        <ele>-4.67</ele>
        <time>2023-08-30T17:28:30Z</time>
      </trkpt>
      <trkpt lat="56.780117992311716" lon="-5.163206001743674">
        <ele>-4.19</ele>
        <time>2023-08-30T17:28:34Z</time>
      </trkpt>
      <trkpt lat="56.779968040063977" lon="-5.163299962878227">
        <ele>-4.67</ele>
        <time>2023-08-30T17:28:35Z</time>
      </trkpt>
      <trkpt lat="56.779808029532433" lon="-5.163400964811444">
        <ele>-4.19</ele>
        <time>2023-08-30T17:28:36Z</time>
      </trkpt>
      <trkpt lat="56.77800097502768" lon="-5.164554985240102">
        <ele>-1.3</ele>
        <time>2023-08-30T17:28:47Z</time>
      </trkpt>
      <trkpt lat="56.776303974911571" lon="-5.165828028693795">
        <ele>2.06</ele>
        <time>2023-08-30T17:28:57Z</time>
      </trkpt>
      <trkpt lat="56.775942966341972" lon="-5.166050987318158">
        <ele>2.06</ele>
        <time>2023-08-30T17:28:59Z</time>
      </trkpt>
      <trkpt lat="56.774839991703629" lon="-5.166263971477747">
        <ele>3.98</ele>
        <time>2023-08-30T17:29:05Z</time>
      </trkpt>
      <trkpt lat="56.773567032068968" lon="-5.166422976180911">
        <ele>3.98</ele>
        <time>2023-08-30T17:29:12Z</time>
      </trkpt>
      <trkpt lat="56.773395035415888" lon="-5.166521966457367">
        <ele>3.5</ele>
        <time>2023-08-30T17:29:13Z</time>
      </trkpt>
      <trkpt lat="56.773219015449286" lon="-5.166623974218965">
        <ele>3.02</ele>
        <time>2023-08-30T17:29:14Z</time>
      </trkpt>
      <trkpt lat="56.772504961118102" lon="-5.16715002246201">
        <ele>2.06</ele>
        <time>2023-08-30T17:29:18Z</time>
      </trkpt>
      <trkpt lat="56.772345034405589" lon="-5.167353032156825">
        <ele>2.06</ele>
        <time>2023-08-30T17:29:19Z</time>
      </trkpt>
      <trkpt lat="56.770861018449068" lon="-5.169327976182103">
        <ele>1.58</ele>
        <time>2023-08-30T17:29:29Z</time>
      </trkpt>
      <trkpt lat="56.770193986594677" lon="-5.170377977192402">
        <ele>2.06</ele>
        <time>2023-08-30T17:29:34Z</time>
      </trkpt>
      <trkpt lat="56.770106982439756" lon="-5.170642007142305">
        <ele>2.06</ele>
        <time>2023-08-30T17:29:35Z</time>
      </trkpt>
      <trkpt lat="56.770035987719893" lon="-5.17093101516366">
        <ele>2.54</ele>
        <time>2023-08-30T17:29:36Z</time>
      </trkpt>
      <trkpt lat="56.769710015505552" lon="-5.172043964266777">
        <ele>3.5</ele>
        <time>2023-08-30T17:29:40Z</time>
      </trkpt>
      <trkpt lat="56.769614964723587" lon="-5.172307994216681">
        <ele>3.5</ele>
        <time>2023-08-30T17:29:41Z</time>
      </trkpt>
      <trkpt lat="56.769488984718919" lon="-5.172534976154566">
        <ele>3.98</ele>
        <time>2023-08-30T17:29:42Z</time>
      </trkpt>
      <trkpt lat="56.769340960308909" lon="-5.172737985849381">
        <ele>4.46</ele>
        <time>2023-08-30T17:29:43Z</time>
      </trkpt>
      <trkpt lat="56.76919000223279" lon="-5.172944013029337">
        <ele>4.94</ele>
        <time>2023-08-30T17:29:44Z</time>
      </trkpt>
      <trkpt lat="56.767710009589791" lon="-5.174974026158452">
        <ele>6.39</ele>
        <time>2023-08-30T17:29:54Z</time>
      </trkpt>
      <trkpt lat="56.766364965587854" lon="-5.176445972174406">
        <ele>6.87</ele>
        <time>2023-08-30T17:30:03Z</time>
      </trkpt>
      <trkpt lat="56.765024028718472" lon="-5.177453979849815">
        <ele>7.35</ele>
        <time>2023-08-30T17:30:11Z</time>
      </trkpt>
      <trkpt lat="56.764695039018989" lon="-5.177693031728268">
        <ele>7.83</ele>
        <time>2023-08-30T17:30:13Z</time>
      </trkpt>
      <trkpt lat="56.764538967981935" lon="-5.177835021167994">
        <ele>7.83</ele>
        <time>2023-08-30T17:30:14Z</time>
      </trkpt>
      <trkpt lat="56.76439999602735" lon="-5.178039958700538">
        <ele>7.83</ele>
        <time>2023-08-30T17:30:15Z</time>
      </trkpt>
      <trkpt lat="56.764255994930863" lon="-5.178253026679158">
        <ele>8.310000000000001</ele>
        <time>2023-08-30T17:30:16Z</time>
      </trkpt>
      <trkpt lat="56.764106964692473" lon="-5.178463999181986">
        <ele>8.310000000000001</ele>
        <time>2023-08-30T17:30:17Z</time>
      </trkpt>
      <trkpt lat="56.76394603215158" lon="-5.178625015541911">
        <ele>8.310000000000001</ele>
        <time>2023-08-30T17:30:18Z</time>
      </trkpt>
      <trkpt lat="56.763789039105177" lon="-5.178782008588314">
        <ele>8.310000000000001</ele>
        <time>2023-08-30T17:30:19Z</time>
      </trkpt>
      <trkpt lat="56.763631040230393" lon="-5.178950987756252">
        <ele>8.310000000000001</ele>
        <time>2023-08-30T17:30:20Z</time>
      </trkpt>
      <trkpt lat="56.763487961143255" lon="-5.17915902659297">
        <ele>8.310000000000001</ele>
        <time>2023-08-30T17:30:21Z</time>
      </trkpt>
      <trkpt lat="56.763343960046768" lon="-5.179369999095798">
        <ele>8.310000000000001</ele>
        <time>2023-08-30T17:30:22Z</time>
      </trkpt>
      <trkpt lat="56.762756975367665" lon="-5.180174997076392">
        <ele>8.310000000000001</ele>
        <time>2023-08-30T17:30:26Z</time>
      </trkpt>
      <trkpt lat="56.761517040431499" lon="-5.18137201666832">
        <ele>8.310000000000001</ele>
        <time>2023-08-30T17:30:34Z</time>
      </trkpt>
      <trkpt lat="56.761054024100304" lon="-5.181820029392839">
        <ele>8.310000000000001</ele>
        <time>2023-08-30T17:30:37Z</time>
      </trkpt>
      <trkpt lat="56.760904993861914" lon="-5.181999988853931">
        <ele>8.310000000000001</ele>
        <time>2023-08-30T17:30:38Z</time>
      </trkpt>
      <trkpt lat="56.760756969451904" lon="-5.182205010205507">
        <ele>8.789999999999999</ele>
        <time>2023-08-30T17:30:39Z</time>
      </trkpt>
      <trkpt lat="56.759695988148451" lon="-5.184310041368008">
        <ele>12.630000000000001</ele>
        <time>2023-08-30T17:30:47Z</time>
      </trkpt>
      <trkpt lat="56.759200030937791" lon="-5.185293992981315">
        <ele>13.119999999999999</ele>
        <time>2023-08-30T17:30:51Z</time>
      </trkpt>
      <trkpt lat="56.758206021040678" lon="-5.186691004782915">
        <ele>12.630000000000001</ele>
        <time>2023-08-30T17:30:58Z</time>
      </trkpt>
      <trkpt lat="56.757057029753923" lon="-5.188702996820211">
        <ele>13.119999999999999</ele>
        <time>2023-08-30T17:31:07Z</time>
      </trkpt>
      <trkpt lat="56.756640030071139" lon="-5.189212029799819">
        <ele>13.119999999999999</ele>
        <time>2023-08-30T17:31:10Z</time>
      </trkpt>
      <trkpt lat="56.755822040140629" lon="-5.18988098949194">
        <ele>11.67</ele>
        <time>2023-08-30T17:31:15Z</time>
      </trkpt>
      <trkpt lat="56.755635961890221" lon="-5.18992499448359">
        <ele>11.67</ele>
        <time>2023-08-30T17:31:16Z</time>
      </trkpt>
      <trkpt lat="56.755449967458844" lon="-5.18996799364686">
        <ele>11.67</ele>
        <time>2023-08-30T17:31:17Z</time>
      </trkpt>
      <trkpt lat="56.755082001909614" lon="-5.19007695838809">
        <ele>11.67</ele>
        <time>2023-08-30T17:31:19Z</time>
      </trkpt>
      <trkpt lat="56.754901958629489" lon="-5.190163040533662">
        <ele>11.67</ele>
        <time>2023-08-30T17:31:20Z</time>
      </trkpt>
      <trkpt lat="56.754726022481918" lon="-5.190259013324976">
        <ele>11.67</ele>
        <time>2023-08-30T17:31:21Z</time>
      </trkpt>
      <trkpt lat="56.754548996686935" lon="-5.190393961966038">
        <ele>11.67</ele>
        <time>2023-08-30T17:31:22Z</time>
      </trkpt>
      <trkpt lat="56.754369037225842" lon="-5.190532011911273">
        <ele>11.67</ele>
        <time>2023-08-30T17:31:23Z</time>
      </trkpt>
      <trkpt lat="56.753349965438247" lon="-5.191428959369659">
        <ele>12.15</ele>
        <time>2023-08-30T17:31:29Z</time>
      </trkpt>
      <trkpt lat="56.75318400375545" lon="-5.191615037620068">
        <ele>12.630000000000001</ele>
        <time>2023-08-30T17:31:30Z</time>
      </trkpt>
      <trkpt lat="56.753030028194189" lon="-5.191787034273148">
        <ele>12.630000000000001</ele>
        <time>2023-08-30T17:31:31Z</time>
      </trkpt>
      <trkpt lat="56.752585032954812" lon="-5.192222977057099">
        <ele>12.630000000000001</ele>
        <time>2023-08-30T17:31:34Z</time>
      </trkpt>
      <trkpt lat="56.751306038349867" lon="-5.193454027175903">
        <ele>11.19</ele>
        <time>2023-08-30T17:31:42Z</time>
      </trkpt>
      <trkpt lat="56.750489976257086" lon="-5.194998979568481">
        <ele>10.23</ele>
        <time>2023-08-30T17:31:49Z</time>
      </trkpt>
      <trkpt lat="56.749537959694862" lon="-5.197221022099257">
        <ele>8.789999999999999</ele>
        <time>2023-08-30T17:31:58Z</time>
      </trkpt>
      <trkpt lat="56.749430000782013" lon="-5.197411961853504">
        <ele>8.789999999999999</ele>
        <time>2023-08-30T17:31:59Z</time>
      </trkpt>
      <trkpt lat="56.749318018555641" lon="-5.197609020397067">
        <ele>8.789999999999999</ele>
        <time>2023-08-30T17:32:00Z</time>
      </trkpt>
      <trkpt lat="56.749169994145632" lon="-5.197724020108581">
        <ele>8.310000000000001</ele>
        <time>2023-08-30T17:32:01Z</time>
      </trkpt>
      <trkpt lat="56.749008977785707" lon="-5.197844970971346">
        <ele>8.310000000000001</ele>
        <time>2023-08-30T17:32:02Z</time>
      </trkpt>
      <trkpt lat="56.748829018324614" lon="-5.197891993448138">
        <ele>8.310000000000001</ele>
        <time>2023-08-30T17:32:03Z</time>
      </trkpt>
      <trkpt lat="56.748643023893237" lon="-5.197940021753311">
        <ele>8.310000000000001</ele>
        <time>2023-08-30T17:32:04Z</time>
      </trkpt>
      <trkpt lat="56.748454011976719" lon="-5.197988972067833">
        <ele>7.83</ele>
        <time>2023-08-30T17:32:05Z</time>
      </trkpt>
      <trkpt lat="56.748273968696594" lon="-5.19808997400105">
        <ele>7.83</ele>
        <time>2023-08-30T17:32:06Z</time>
      </trkpt>
      <trkpt lat="56.747424965724349" lon="-5.198699003085494">
        <ele>5.91</ele>
        <time>2023-08-30T17:32:11Z</time>
      </trkpt>
      <trkpt lat="56.747266966849566" lon="-5.198864964768291">
        <ele>5.91</ele>
        <time>2023-08-30T17:32:12Z</time>
      </trkpt>
      <trkpt lat="56.747135035693645" lon="-5.199116002768278">
        <ele>5.42</ele>
        <time>2023-08-30T17:32:13Z</time>
      </trkpt>
      <trkpt lat="56.747008971869946" lon="-5.199386989697814">
        <ele>4.94</ele>
        <time>2023-08-30T17:32:14Z</time>
      </trkpt>
      <trkpt lat="56.746905958279967" lon="-5.199674991890788">
        <ele>4.94</ele>
        <time>2023-08-30T17:32:15Z</time>
      </trkpt>
      <trkpt lat="56.746829012408853" lon="-5.199990989640355">
        <ele>4.46</ele>
        <time>2023-08-30T17:32:16Z</time>
      </trkpt>
      <trkpt lat="56.746755000203848" lon="-5.200298018753529">
        <ele>3.98</ele>
        <time>2023-08-30T17:32:17Z</time>
      </trkpt>
      <trkpt lat="56.746495999395847" lon="-5.201177028939128">
        <ele>3.98</ele>
        <time>2023-08-30T17:32:20Z</time>
      </trkpt>
      <trkpt lat="56.746379993855953" lon="-5.20143804140389">
        <ele>3.5</ele>
        <time>2023-08-30T17:32:21Z</time>
      </trkpt>
      <trkpt lat="56.746252002194524" lon="-5.201659994199872">
        <ele>3.5</ele>
        <time>2023-08-30T17:32:22Z</time>
      </trkpt>
      <trkpt lat="56.74589803442359" lon="-5.202275980263948">
        <ele>3.5</ele>
        <time>2023-08-30T17:32:25Z</time>
      </trkpt>
      <trkpt lat="56.745758978649974" lon="-5.202441019937396">
        <ele>3.5</ele>
        <time>2023-08-30T17:32:26Z</time>
      </trkpt>
      <trkpt lat="56.745607014745474" lon="-5.202568005770445">
        <ele>3.5</ele>
        <time>2023-08-30T17:32:27Z</time>
      </trkpt>
      <trkpt lat="56.74544901587069" lon="-5.202699014917016">
        <ele>3.5</ele>
        <time>2023-08-30T17:32:28Z</time>
      </trkpt>
      <trkpt lat="56.745282970368862" lon="-5.202828012406826">
        <ele>3.5</ele>
        <time>2023-08-30T17:32:29Z</time>
      </trkpt>
      <trkpt lat="56.74441703595221" lon="-5.203456990420818">
        <ele>3.02</ele>
        <time>2023-08-30T17:32:34Z</time>
      </trkpt>
      <trkpt lat="56.744264988228679" lon="-5.203655976802111">
        <ele>2.54</ele>
        <time>2023-08-30T17:32:35Z</time>
      </trkpt>
      <trkpt lat="56.74411604180932" lon="-5.203878013417125">
        <ele>2.54</ele>
        <time>2023-08-30T17:32:36Z</time>
      </trkpt>
      <trkpt lat="56.743261003866792" lon="-5.205161031335592">
        <ele>0.14</ele>
        <time>2023-08-30T17:32:42Z</time>
      </trkpt>
      <trkpt lat="56.743084983900189" lon="-5.205283993855119">
        <ele>0.14</ele>
        <time>2023-08-30T17:32:43Z</time>
      </trkpt>
      <trkpt lat="56.742906030267477" lon="-5.205395976081491">
        <ele>0.62</ele>
        <time>2023-08-30T17:32:44Z</time>
      </trkpt>
      <trkpt lat="56.740692034363747" lon="-5.206764992326498">
        <ele>9.75</ele>
        <time>2023-08-30T17:32:57Z</time>
      </trkpt>
      <trkpt lat="56.740536969155073" lon="-5.206937994807959">
        <ele>9.75</ele>
        <time>2023-08-30T17:32:58Z</time>
      </trkpt>
      <trkpt lat="56.740394979715347" lon="-5.207119965925813">
        <ele>9.75</ele>
        <time>2023-08-30T17:32:59Z</time>
      </trkpt>
      <trkpt lat="56.739538013935089" lon="-5.208758963271976">
        <ele>10.710000000000001</ele>
        <time>2023-08-30T17:33:06Z</time>
      </trkpt>
      <trkpt lat="56.739396024495363" lon="-5.208970019593835">
        <ele>10.710000000000001</ele>
        <time>2023-08-30T17:33:07Z</time>
      </trkpt>
      <trkpt lat="56.739250011742115" lon="-5.209186021238565">
        <ele>11.19</ele>
        <time>2023-08-30T17:33:08Z</time>
      </trkpt>
      <trkpt lat="56.73855297267437" lon="-5.210257982835174">
        <ele>11.67</ele>
        <time>2023-08-30T17:33:13Z</time>
      </trkpt>
      <trkpt lat="56.73846697434783" lon="-5.210531987249851">
        <ele>12.15</ele>
        <time>2023-08-30T17:33:14Z</time>
      </trkpt>
      <trkpt lat="56.738408971577883" lon="-5.210826024413109">
        <ele>12.15</ele>
        <time>2023-08-30T17:33:15Z</time>
      </trkpt>
      <trkpt lat="56.738349962979555" lon="-5.211133975535631">
        <ele>12.630000000000001</ele>
        <time>2023-08-30T17:33:16Z</time>
      </trkpt>
      <trkpt lat="56.738290032371879" lon="-5.211449973285198">
        <ele>13.119999999999999</ele>
        <time>2023-08-30T17:33:17Z</time>
      </trkpt>
      <trkpt lat="56.73822901211679" lon="-5.211772006005049">
        <ele>13.119999999999999</ele>
        <time>2023-08-30T17:33:18Z</time>
      </trkpt>
      <trkpt lat="56.737841013818979" lon="-5.213591968640685">
        <ele>10.23</ele>
        <time>2023-08-30T17:33:24Z</time>
      </trkpt>
      <trkpt lat="56.737720984965563" lon="-5.213857004418969">
        <ele>9.75</ele>
        <time>2023-08-30T17:33:25Z</time>
      </trkpt>
      <trkpt lat="56.737604979425669" lon="-5.214091027155519">
        <ele>9.75</ele>
        <time>2023-08-30T17:33:26Z</time>
      </trkpt>
      <trkpt lat="56.737461984157562" lon="-5.214270986616612">
        <ele>9.75</ele>
        <time>2023-08-30T17:33:27Z</time>
      </trkpt>
      <trkpt lat="56.737317983061075" lon="-5.214452035725117">
        <ele>9.75</ele>
        <time>2023-08-30T17:33:28Z</time>
      </trkpt>
      <trkpt lat="56.73702796921134" lon="-5.214828969910741">
        <ele>9.75</ele>
        <time>2023-08-30T17:33:30Z</time>
      </trkpt>
      <trkpt lat="56.736632008105516" lon="-5.21555501036346">
        <ele>9.27</ele>
        <time>2023-08-30T17:33:33Z</time>
      </trkpt>
      <trkpt lat="56.735587036237121" lon="-5.217337002977729">
        <ele>7.35</ele>
        <time>2023-08-30T17:33:41Z</time>
      </trkpt>
      <trkpt lat="56.734531000256538" lon="-5.219071973115206">
        <ele>5.91</ele>
        <time>2023-08-30T17:33:49Z</time>
      </trkpt>
      <trkpt lat="56.734409965574741" lon="-5.219310019165278">
        <ele>5.42</ele>
        <time>2023-08-30T17:33:50Z</time>
      </trkpt>
      <trkpt lat="56.734105031937361" lon="-5.220039999112487">
        <ele>4.94</ele>
        <time>2023-08-30T17:33:53Z</time>
      </trkpt>
      <trkpt lat="56.733986008912325" lon="-5.22023999132216">
        <ele>4.94</ele>
        <time>2023-08-30T17:33:54Z</time>
      </trkpt>
      <trkpt lat="56.732602994889021" lon="-5.221853004768491">
        <ele>4.94</ele>
        <time>2023-08-30T17:34:03Z</time>
      </trkpt>
      <trkpt lat="56.731926994398236" lon="-5.22253897972405">
        <ele>5.91</ele>
        <time>2023-08-30T17:34:07Z</time>
      </trkpt>
      <trkpt lat="56.731789028272033" lon="-5.222755987197161">
        <ele>5.91</ele>
        <time>2023-08-30T17:34:08Z</time>
      </trkpt>
      <trkpt lat="56.731665981933475" lon="-5.223001996055245">
        <ele>5.42</ele>
        <time>2023-08-30T17:34:09Z</time>
      </trkpt>
      <trkpt lat="56.730647999793291" lon="-5.225335014984012">
        <ele>5.42</ele>
        <time>2023-08-30T17:34:18Z</time>
      </trkpt>
      <trkpt lat="56.729929000139236" lon="-5.227108960971236">
        <ele>7.83</ele>
        <time>2023-08-30T17:34:25Z</time>
      </trkpt>
      <trkpt lat="56.729026017710567" lon="-5.228729015216231">
        <ele>4.46</ele>
        <time>2023-08-30T17:34:32Z</time>
      </trkpt>
      <trkpt lat="56.727951960638165" lon="-5.230130972340703">
        <ele>-0.82</ele>
        <time>2023-08-30T17:34:41Z</time>
      </trkpt>
      <trkpt lat="56.72707898542285" lon="-5.230931024998426">
        <ele>0.14</ele>
        <time>2023-08-30T17:34:48Z</time>
      </trkpt>
      <trkpt lat="56.726943030953407" lon="-5.230981986969709">
        <ele>0.62</ele>
        <time>2023-08-30T17:34:49Z</time>
      </trkpt>
      <trkpt lat="56.726805986836553" lon="-5.231016017496586">
        <ele>0.62</ele>
        <time>2023-08-30T17:34:50Z</time>
      </trkpt>
      <trkpt lat="56.726657962426543" lon="-5.231016017496586">
        <ele>1.1</ele>
        <time>2023-08-30T17:34:51Z</time>
      </trkpt>
      <trkpt lat="56.726510021835566" lon="-5.231016017496586">
        <ele>1.58</ele>
        <time>2023-08-30T17:34:52Z</time>
      </trkpt>
      <trkpt lat="56.725449962541461" lon="-5.231177033856511">
        <ele>5.91</ele>
        <time>2023-08-30T17:35:00Z</time>
      </trkpt>
      <trkpt lat="56.725330017507076" lon="-5.231265965849161">
        <ele>6.39</ele>
        <time>2023-08-30T17:35:01Z</time>
      </trkpt>
      <trkpt lat="56.724244980141521" lon="-5.232140030711889">
        <ele>9.27</ele>
        <time>2023-08-30T17:35:10Z</time>
      </trkpt>
      <trkpt lat="56.723421039059758" lon="-5.232774959877133">
        <ele>8.789999999999999</ele>
        <time>2023-08-30T17:35:17Z</time>
      </trkpt>
      <trkpt lat="56.723323976621032" lon="-5.232769008725882">
        <ele>8.789999999999999</ele>
        <time>2023-08-30T17:35:18Z</time>
      </trkpt>
      <trkpt lat="56.723220041021705" lon="-5.232762973755598">
        <ele>9.27</ele>
        <time>2023-08-30T17:35:19Z</time>
      </trkpt>
      <trkpt lat="56.723010996356606" lon="-5.232714023441076">
        <ele>9.75</ele>
        <time>2023-08-30T17:35:21Z</time>
      </trkpt>
      <trkpt lat="56.722904965281487" lon="-5.232650991529226">
        <ele>10.23</ele>
        <time>2023-08-30T17:35:22Z</time>
      </trkpt>
      <trkpt lat="56.722329966723919" lon="-5.232339017093182">
        <ele>11.67</ele>
        <time>2023-08-30T17:35:27Z</time>
      </trkpt>
      <trkpt lat="56.721381973475218" lon="-5.232212031260133">
        <ele>14.56</ele>
        <time>2023-08-30T17:35:36Z</time>
      </trkpt>
      <trkpt lat="56.721206037327647" lon="-5.232138019055128">
        <ele>15.52</ele>
        <time>2023-08-30T17:35:38Z</time>
      </trkpt>
      <trkpt lat="56.721122972667217" lon="-5.232081022113562">
        <ele>16</ele>
        <time>2023-08-30T17:35:39Z</time>
      </trkpt>
      <trkpt lat="56.720239017158747" lon="-5.231404015794396">
        <ele>18.399999999999999</ele>
        <time>2023-08-30T17:35:50Z</time>
      </trkpt>
      <trkpt lat="56.720107002183795" lon="-5.231346013024449">
        <ele>18.879999999999999</ele>
        <time>2023-08-30T17:35:57Z</time>
      </trkpt>
      <trkpt lat="56.720107002183795" lon="-5.231346013024449">
        <ele>18.879999999999999</ele>
        <time>2023-08-30T17:36:21Z</time>
      </trkpt>
      <trkpt lat="56.720000971108675" lon="-5.23132698610425">
        <ele>21.289999999999999</ele>
        <time>2023-08-30T17:36:33Z</time>
      </trkpt>
      <trkpt lat="56.720000971108675" lon="-5.23132698610425">
        <ele>21.289999999999999</ele>
        <time>2023-08-30T17:36:42Z</time>
      </trkpt>
      <trkpt lat="56.719944979995489" lon="-5.231316005811095">
        <ele>21.77</ele>
        <time>2023-08-30T17:36:43Z</time>
      </trkpt>
      <trkpt lat="56.720055034384131" lon="-5.231336038559675">
        <ele>21.289999999999999</ele>
        <time>2023-08-30T17:36:46Z</time>
      </trkpt>
      <trkpt lat="56.720124017447233" lon="-5.231349030509591">
        <ele>21.289999999999999</ele>
        <time>2023-08-30T17:36:47Z</time>
      </trkpt>
      <trkpt lat="56.720208004117012" lon="-5.231379959732294">
        <ele>21.289999999999999</ele>
        <time>2023-08-30T17:36:48Z</time>
      </trkpt>
      <trkpt lat="56.72089003957808" lon="-5.231901984661818">
        <ele>19.84</ele>
        <time>2023-08-30T17:36:55Z</time>
      </trkpt>
      <trkpt lat="56.721368981525302" lon="-5.232205996289849">
        <ele>18.879999999999999</ele>
        <time>2023-08-30T17:37:00Z</time>
      </trkpt>
      <trkpt lat="56.721489010378718" lon="-5.232243966311216">
        <ele>18.399999999999999</ele>
        <time>2023-08-30T17:37:01Z</time>
      </trkpt>
      <trkpt lat="56.722224019467831" lon="-5.232327030971646">
        <ele>16</ele>
        <time>2023-08-30T17:37:08Z</time>
      </trkpt>
      <trkpt lat="56.722276993095875" lon="-5.232332982122898">
        <ele>16</ele>
        <time>2023-08-30T17:37:09Z</time>
      </trkpt>
      <trkpt lat="56.722390986979008" lon="-5.232345974072814">
        <ele>15.52</ele>
        <time>2023-08-30T17:37:10Z</time>
      </trkpt>
      <trkpt lat="56.722320998087525" lon="-5.23246600292623">
        <ele>15.52</ele>
        <time>2023-08-30T17:37:11Z</time>
      </trkpt>
      <trkpt lat="56.722294008359313" lon="-5.232512019574642">
        <ele>15.039999999999999</ele>
        <time>2023-08-30T17:37:12Z</time>
      </trkpt>
      <trkpt lat="56.722239023074508" lon="-5.232603969052434">
        <ele>14.56</ele>
        <time>2023-08-30T17:37:13Z</time>
      </trkpt>
      <trkpt lat="56.722174985334277" lon="-5.232601035386324">
        <ele>14.08</ele>
        <time>2023-08-30T17:37:14Z</time>
      </trkpt>
      <trkpt lat="56.722103990614414" lon="-5.232597012072802">
        <ele>13.6</ele>
        <time>2023-08-30T17:37:15Z</time>
      </trkpt>
      <trkpt lat="56.722024027258158" lon="-5.232592988759279">
        <ele>13.6</ele>
        <time>2023-08-30T17:37:16Z</time>
      </trkpt>
      <trkpt lat="56.721843983978033" lon="-5.232585025951266">
        <ele>13.119999999999999</ele>
        <time>2023-08-30T17:37:18Z</time>
      </trkpt>
      <trkpt lat="56.721778018400073" lon="-5.232592988759279">
        <ele>12.630000000000001</ele>
        <time>2023-08-30T17:37:19Z</time>
      </trkpt>
      <trkpt lat="56.72170601785183" lon="-5.232654009014368">
        <ele>12.15</ele>
        <time>2023-08-30T17:37:20Z</time>
      </trkpt>
      <trkpt lat="56.721640974283218" lon="-5.232708994299173">
        <ele>12.15</ele>
        <time>2023-08-30T17:37:21Z</time>
      </trkpt>
      <trkpt lat="56.721580037847161" lon="-5.232760962098837">
        <ele>11.19</ele>
        <time>2023-08-30T17:37:22Z</time>
      </trkpt>
      <trkpt lat="56.721511976793408" lon="-5.232817959040403">
        <ele>10.710000000000001</ele>
        <time>2023-08-30T17:37:23Z</time>
      </trkpt>
      <trkpt lat="56.721490016207099" lon="-5.232922984287143">
        <ele>10.23</ele>
        <time>2023-08-30T17:37:24Z</time>
      </trkpt>
      <trkpt lat="56.721466965973377" lon="-5.233033960685134">
        <ele>9.75</ele>
        <time>2023-08-30T17:37:25Z</time>
      </trkpt>
      <trkpt lat="56.721443999558687" lon="-5.233143009245396">
        <ele>9.27</ele>
        <time>2023-08-30T17:37:26Z</time>
      </trkpt>
      <trkpt lat="56.721422038972378" lon="-5.233249040320516">
        <ele>8.789999999999999</ele>
        <time>2023-08-30T17:37:27Z</time>
      </trkpt>
      <trkpt lat="56.721401000395417" lon="-5.233352975919843">
        <ele>8.310000000000001</ele>
        <time>2023-08-30T17:37:28Z</time>
      </trkpt>
      <trkpt lat="56.721382979303598" lon="-5.233446015045047">
        <ele>7.83</ele>
        <time>2023-08-30T17:37:29Z</time>
      </trkpt>
      <trkpt lat="56.721382979303598" lon="-5.233439980074763">
        <ele>6.87</ele>
        <time>2023-08-30T17:37:30Z</time>
      </trkpt>
      <trkpt lat="56.721382979303598" lon="-5.233439980074763">
        <ele>6.39</ele>
        <time>2023-08-30T17:37:31Z</time>
      </trkpt>
      <trkpt lat="56.721382979303598" lon="-5.233439980074763">
        <ele>5.42</ele>
        <time>2023-08-30T17:37:41Z</time>
      </trkpt>
      <trkpt lat="56.721382979303598" lon="-5.233439980074763">
        <ele>4.94</ele>
        <time>2023-08-30T17:37:53Z</time>
      </trkpt>
      <trkpt lat="56.721460008993745" lon="-5.234092008322477">
        <ele>1.58</ele>
        <time>2023-08-30T17:38:03Z</time>
      </trkpt>
      <trkpt lat="56.721464032307267" lon="-5.23412000387907">
        <ele>1.1</ele>
        <time>2023-08-30T17:38:04Z</time>
      </trkpt>
      <trkpt lat="56.721465960144997" lon="-5.23414196446538">
        <ele>0.62</ele>
        <time>2023-08-30T17:38:05Z</time>
      </trkpt>
      <trkpt lat="56.721283989027143" lon="-5.23418496362865">
        <ele>-0.82</ele>
        <time>2023-08-30T17:38:13Z</time>
      </trkpt>
      <trkpt lat="56.721264962106943" lon="-5.234194016084075">
        <ele>-1.3</ele>
        <time>2023-08-30T17:38:56Z</time>
      </trkpt>
      <trkpt lat="56.721264962106943" lon="-5.234169960021973">
        <ele>-0.82</ele>
        <time>2023-08-30T17:39:12Z</time>
      </trkpt>
    </trkseg>
  </trk>

</gpx>